<?xml version="1.0" encoding="UTF-8" standalone="no" ?>
<gpx xmlns="http://www.topografix.com/GPX/1/1" xmlns:xsi="http://www.w3.org/2001/XMLSchema-instance" xsi:schemaLocation="http://www.topografix.com/GPX/1/1 http://www.topografix.com/GPX/1/1/gpx.xsd" version="1.1" creator="VisuGPX - https://www.visugpx.com">
  <metadata>
    <name>Voujeaucourt Belchamp</name>
    <desc><![CDATA[Bouclette dans les bois autour de Belchamp. Temps clément et terrain bien gras]]></desc>
  </metadata>
  <wpt lat="47.50502" lon="6.76649">
    <ele>400.5</ele>
    <name><![CDATA[Point de cheminement 1]]></name>
    <desc><![CDATA[]]></desc>
  </wpt>
  <wpt lat="47.48724" lon="6.77497">
    <ele>327.4</ele>
    <name><![CDATA[Point de cheminement 2]]></name>
    <desc><![CDATA[]]></desc>
  </wpt>
  <wpt lat="47.48268" lon="6.77067">
    <ele>321.7</ele>
    <name><![CDATA[Point de cheminement 3]]></name>
    <desc><![CDATA[]]></desc>
  </wpt>
  <wpt lat="47.47653" lon="6.78401">
    <ele>348.7</ele>
    <name><![CDATA[Point de cheminement 4]]></name>
    <desc><![CDATA[]]></desc>
  </wpt>
  <wpt lat="47.46395" lon="6.78385">
    <ele>393.1</ele>
    <name><![CDATA[Point de cheminement 5]]></name>
    <desc><![CDATA[]]></desc>
  </wpt>
  <wpt lat="47.4629" lon="6.78292">
    <ele>387.9</ele>
    <name><![CDATA[Point de cheminement 6]]></name>
    <desc><![CDATA[]]></desc>
  </wpt>
  <wpt lat="47.46733" lon="6.78755">
    <ele>376</ele>
    <name><![CDATA[Point de cheminement 7]]></name>
    <desc><![CDATA[]]></desc>
  </wpt>
  <wpt lat="47.47877" lon="6.7685">
    <ele>314</ele>
    <name><![CDATA[Point de cheminement 8]]></name>
    <desc><![CDATA[]]></desc>
  </wpt>
  <wpt lat="47.49136" lon="6.77367">
    <ele>328.4</ele>
    <name><![CDATA[Point de cheminement 9]]></name>
    <desc><![CDATA[]]></desc>
  </wpt>
  <wpt lat="47.51805" lon="6.7748">
    <ele>389.9</ele>
    <name><![CDATA[Point de cheminement 10]]></name>
    <desc><![CDATA[]]></desc>
  </wpt>
  <wpt lat="47.51806" lon="6.77486">
    <ele>388.9</ele>
    <name><![CDATA[Point de cheminement 11]]></name>
    <desc><![CDATA[]]></desc>
  </wpt>
  <trk>
    <name><![CDATA[Rue Antoine Coysevox]]></name>
    <desc><![CDATA[]]></desc>
    <trkseg>
      <trkpt lat="47.51805" lon="6.77481">
        <ele>388.5</ele>
        <time>2016-01-10T08:50:00.000Z</time>
      </trkpt>
      <trkpt lat="47.51801" lon="6.77474">
        <ele>375.2</ele>
        <time>2016-01-10T08:50:01.000Z</time>
      </trkpt>
      <trkpt lat="47.51802" lon="6.77473">
        <ele>374.6</ele>
        <time>2016-01-10T08:50:04.000Z</time>
      </trkpt>
      <trkpt lat="47.51805" lon="6.77478">
        <ele>384</ele>
        <time>2016-01-10T08:50:05.000Z</time>
      </trkpt>
      <trkpt lat="47.51804" lon="6.77483">
        <ele>390.4</ele>
        <time>2016-01-10T08:50:08.000Z</time>
      </trkpt>
      <trkpt lat="47.51804" lon="6.77485">
        <ele>392</ele>
        <time>2016-01-10T08:50:09.000Z</time>
      </trkpt>
      <trkpt lat="47.51808" lon="6.77486">
        <ele>397.8</ele>
        <time>2016-01-10T08:56:22.000Z</time>
      </trkpt>
      <trkpt lat="47.51811" lon="6.77486">
        <ele>402.1</ele>
        <time>2016-01-10T08:56:23.000Z</time>
      </trkpt>
      <trkpt lat="47.51807" lon="6.77483">
        <ele>397.3</ele>
        <time>2016-01-10T08:56:28.000Z</time>
      </trkpt>
      <trkpt lat="47.51808" lon="6.77481">
        <ele>396.2</ele>
        <time>2016-01-10T08:56:29.000Z</time>
      </trkpt>
      <trkpt lat="47.5181" lon="6.77485">
        <ele>395.3</ele>
        <time>2016-01-10T08:56:35.000Z</time>
      </trkpt>
      <trkpt lat="47.5181" lon="6.77487">
        <ele>396.1</ele>
        <time>2016-01-10T08:56:36.000Z</time>
      </trkpt>
      <trkpt lat="47.51807" lon="6.77489">
        <ele>395</ele>
        <time>2016-01-10T08:56:37.000Z</time>
      </trkpt>
      <trkpt lat="47.51804" lon="6.77491">
        <ele>395.4</ele>
        <time>2016-01-10T08:56:38.000Z</time>
      </trkpt>
      <trkpt lat="47.51801" lon="6.77492">
        <ele>393.8</ele>
        <time>2016-01-10T08:56:39.000Z</time>
      </trkpt>
      <trkpt lat="47.51799" lon="6.77493">
        <ele>394.4</ele>
        <time>2016-01-10T08:56:40.000Z</time>
      </trkpt>
      <trkpt lat="47.51796" lon="6.77492">
        <ele>392.8</ele>
        <time>2016-01-10T08:56:41.000Z</time>
      </trkpt>
      <trkpt lat="47.51793" lon="6.77491">
        <ele>392.6</ele>
        <time>2016-01-10T08:56:42.000Z</time>
      </trkpt>
      <trkpt lat="47.5179" lon="6.7749">
        <ele>392.8</ele>
        <time>2016-01-10T08:56:43.000Z</time>
      </trkpt>
      <trkpt lat="47.51787" lon="6.77489">
        <ele>392.9</ele>
        <time>2016-01-10T08:56:44.000Z</time>
      </trkpt>
      <trkpt lat="47.51784" lon="6.77488">
        <ele>392.8</ele>
        <time>2016-01-10T08:56:45.000Z</time>
      </trkpt>
      <trkpt lat="47.51781" lon="6.77487">
        <ele>392</ele>
        <time>2016-01-10T08:56:46.000Z</time>
      </trkpt>
      <trkpt lat="47.51778" lon="6.77486">
        <ele>393.5</ele>
        <time>2016-01-10T08:56:47.000Z</time>
      </trkpt>
      <trkpt lat="47.51775" lon="6.77485">
        <ele>393.6</ele>
        <time>2016-01-10T08:56:48.000Z</time>
      </trkpt>
      <trkpt lat="47.51772" lon="6.77485">
        <ele>393.7</ele>
        <time>2016-01-10T08:56:49.000Z</time>
      </trkpt>
      <trkpt lat="47.51769" lon="6.77484">
        <ele>392.7</ele>
        <time>2016-01-10T08:56:50.000Z</time>
      </trkpt>
      <trkpt lat="47.51766" lon="6.77484">
        <ele>392.8</ele>
        <time>2016-01-10T08:56:51.000Z</time>
      </trkpt>
      <trkpt lat="47.51763" lon="6.77483">
        <ele>393</ele>
        <time>2016-01-10T08:56:52.000Z</time>
      </trkpt>
      <trkpt lat="47.5176" lon="6.77482">
        <ele>392.5</ele>
        <time>2016-01-10T08:56:53.000Z</time>
      </trkpt>
      <trkpt lat="47.51758" lon="6.77481">
        <ele>392.5</ele>
        <time>2016-01-10T08:56:54.000Z</time>
      </trkpt>
      <trkpt lat="47.51755" lon="6.77481">
        <ele>392.5</ele>
        <time>2016-01-10T08:56:55.000Z</time>
      </trkpt>
      <trkpt lat="47.51752" lon="6.7748">
        <ele>392.4</ele>
        <time>2016-01-10T08:56:56.000Z</time>
      </trkpt>
      <trkpt lat="47.5175" lon="6.7748">
        <ele>391.5</ele>
        <time>2016-01-10T08:56:57.000Z</time>
      </trkpt>
      <trkpt lat="47.51747" lon="6.77479">
        <ele>390.8</ele>
        <time>2016-01-10T08:56:58.000Z</time>
      </trkpt>
      <trkpt lat="47.51744" lon="6.77478">
        <ele>390.7</ele>
        <time>2016-01-10T08:56:59.000Z</time>
      </trkpt>
      <trkpt lat="47.5174" lon="6.77477">
        <ele>390.5</ele>
        <time>2016-01-10T08:57:00.000Z</time>
      </trkpt>
      <trkpt lat="47.51737" lon="6.77477">
        <ele>390.1</ele>
        <time>2016-01-10T08:57:01.000Z</time>
      </trkpt>
      <trkpt lat="47.51734" lon="6.77477">
        <ele>390</ele>
        <time>2016-01-10T08:57:02.000Z</time>
      </trkpt>
      <trkpt lat="47.51731" lon="6.77477">
        <ele>389.9</ele>
        <time>2016-01-10T08:57:03.000Z</time>
      </trkpt>
      <trkpt lat="47.51728" lon="6.77478">
        <ele>389.5</ele>
        <time>2016-01-10T08:57:04.000Z</time>
      </trkpt>
      <trkpt lat="47.51725" lon="6.7748">
        <ele>389.7</ele>
        <time>2016-01-10T08:57:05.000Z</time>
      </trkpt>
      <trkpt lat="47.51723" lon="6.77483">
        <ele>389.3</ele>
        <time>2016-01-10T08:57:06.000Z</time>
      </trkpt>
      <trkpt lat="47.51722" lon="6.77487">
        <ele>389</ele>
        <time>2016-01-10T08:57:07.000Z</time>
      </trkpt>
      <trkpt lat="47.51721" lon="6.77491">
        <ele>389</ele>
        <time>2016-01-10T08:57:08.000Z</time>
      </trkpt>
      <trkpt lat="47.5172" lon="6.77496">
        <ele>388.7</ele>
        <time>2016-01-10T08:57:09.000Z</time>
      </trkpt>
      <trkpt lat="47.51719" lon="6.77501">
        <ele>388.8</ele>
        <time>2016-01-10T08:57:10.000Z</time>
      </trkpt>
      <trkpt lat="47.51719" lon="6.77506">
        <ele>388.9</ele>
        <time>2016-01-10T08:57:11.000Z</time>
      </trkpt>
      <trkpt lat="47.51718" lon="6.77511">
        <ele>389.4</ele>
        <time>2016-01-10T08:57:12.000Z</time>
      </trkpt>
      <trkpt lat="47.51718" lon="6.77516">
        <ele>389.6</ele>
        <time>2016-01-10T08:57:13.000Z</time>
      </trkpt>
      <trkpt lat="47.51717" lon="6.77521">
        <ele>389.7</ele>
        <time>2016-01-10T08:57:14.000Z</time>
      </trkpt>
      <trkpt lat="47.51716" lon="6.77526">
        <ele>389.5</ele>
        <time>2016-01-10T08:57:15.000Z</time>
      </trkpt>
      <trkpt lat="47.51716" lon="6.77532">
        <ele>390</ele>
        <time>2016-01-10T08:57:16.000Z</time>
      </trkpt>
      <trkpt lat="47.51715" lon="6.77537">
        <ele>390.2</ele>
        <time>2016-01-10T08:57:17.000Z</time>
      </trkpt>
      <trkpt lat="47.51714" lon="6.77541">
        <ele>389.8</ele>
        <time>2016-01-10T08:57:18.000Z</time>
      </trkpt>
      <trkpt lat="47.51713" lon="6.77546">
        <ele>389.4</ele>
        <time>2016-01-10T08:57:19.000Z</time>
      </trkpt>
      <trkpt lat="47.51711" lon="6.77549">
        <ele>389.4</ele>
        <time>2016-01-10T08:57:20.000Z</time>
      </trkpt>
      <trkpt lat="47.51709" lon="6.77551">
        <ele>389.2</ele>
        <time>2016-01-10T08:57:21.000Z</time>
      </trkpt>
      <trkpt lat="47.51706" lon="6.7755">
        <ele>388.6</ele>
        <time>2016-01-10T08:57:22.000Z</time>
      </trkpt>
      <trkpt lat="47.51703" lon="6.77549">
        <ele>387.9</ele>
        <time>2016-01-10T08:57:23.000Z</time>
      </trkpt>
      <trkpt lat="47.517" lon="6.77547">
        <ele>387.9</ele>
        <time>2016-01-10T08:57:24.000Z</time>
      </trkpt>
      <trkpt lat="47.51696" lon="6.77544">
        <ele>387.7</ele>
        <time>2016-01-10T08:57:25.000Z</time>
      </trkpt>
      <trkpt lat="47.51693" lon="6.7754">
        <ele>387.6</ele>
        <time>2016-01-10T08:57:26.000Z</time>
      </trkpt>
      <trkpt lat="47.5169" lon="6.77536">
        <ele>387.5</ele>
        <time>2016-01-10T08:57:27.000Z</time>
      </trkpt>
      <trkpt lat="47.51685" lon="6.77527">
        <ele>387.1</ele>
        <time>2016-01-10T08:57:28.000Z</time>
      </trkpt>
      <trkpt lat="47.51681" lon="6.77522">
        <ele>386.9</ele>
        <time>2016-01-10T08:57:29.000Z</time>
      </trkpt>
      <trkpt lat="47.51677" lon="6.77517">
        <ele>386.3</ele>
        <time>2016-01-10T08:57:30.000Z</time>
      </trkpt>
      <trkpt lat="47.51674" lon="6.77512">
        <ele>386.2</ele>
        <time>2016-01-10T08:57:31.000Z</time>
      </trkpt>
      <trkpt lat="47.51669" lon="6.77507">
        <ele>385.8</ele>
        <time>2016-01-10T08:57:32.000Z</time>
      </trkpt>
      <trkpt lat="47.51664" lon="6.77501">
        <ele>385.4</ele>
        <time>2016-01-10T08:57:33.000Z</time>
      </trkpt>
      <trkpt lat="47.5166" lon="6.77496">
        <ele>385.1</ele>
        <time>2016-01-10T08:57:34.000Z</time>
      </trkpt>
      <trkpt lat="47.51655" lon="6.7749">
        <ele>385.1</ele>
        <time>2016-01-10T08:57:35.000Z</time>
      </trkpt>
      <trkpt lat="47.5165" lon="6.77485">
        <ele>384.7</ele>
        <time>2016-01-10T08:57:36.000Z</time>
      </trkpt>
      <trkpt lat="47.51646" lon="6.77479">
        <ele>384.6</ele>
        <time>2016-01-10T08:57:37.000Z</time>
      </trkpt>
      <trkpt lat="47.51641" lon="6.77473">
        <ele>384.4</ele>
        <time>2016-01-10T08:57:38.000Z</time>
      </trkpt>
      <trkpt lat="47.51636" lon="6.77467">
        <ele>383.9</ele>
        <time>2016-01-10T08:57:39.000Z</time>
      </trkpt>
      <trkpt lat="47.51631" lon="6.7746">
        <ele>383.3</ele>
        <time>2016-01-10T08:57:40.000Z</time>
      </trkpt>
      <trkpt lat="47.51626" lon="6.77453">
        <ele>383.2</ele>
        <time>2016-01-10T08:57:41.000Z</time>
      </trkpt>
      <trkpt lat="47.5162" lon="6.77448">
        <ele>383.1</ele>
        <time>2016-01-10T08:57:42.000Z</time>
      </trkpt>
      <trkpt lat="47.51615" lon="6.7744">
        <ele>382.6</ele>
        <time>2016-01-10T08:57:43.000Z</time>
      </trkpt>
      <trkpt lat="47.5161" lon="6.77434">
        <ele>381.9</ele>
        <time>2016-01-10T08:57:44.000Z</time>
      </trkpt>
      <trkpt lat="47.51605" lon="6.77426">
        <ele>381.4</ele>
        <time>2016-01-10T08:57:45.000Z</time>
      </trkpt>
      <trkpt lat="47.51599" lon="6.77419">
        <ele>380.9</ele>
        <time>2016-01-10T08:57:46.000Z</time>
      </trkpt>
      <trkpt lat="47.51593" lon="6.77412">
        <ele>380.4</ele>
        <time>2016-01-10T08:57:47.000Z</time>
      </trkpt>
      <trkpt lat="47.51587" lon="6.77405">
        <ele>379.9</ele>
        <time>2016-01-10T08:57:48.000Z</time>
      </trkpt>
      <trkpt lat="47.51581" lon="6.77399">
        <ele>380.2</ele>
        <time>2016-01-10T08:57:49.000Z</time>
      </trkpt>
      <trkpt lat="47.51574" lon="6.77392">
        <ele>380.3</ele>
        <time>2016-01-10T08:57:50.000Z</time>
      </trkpt>
      <trkpt lat="47.51568" lon="6.77386">
        <ele>380.1</ele>
        <time>2016-01-10T08:57:51.000Z</time>
      </trkpt>
      <trkpt lat="47.51562" lon="6.77379">
        <ele>379.7</ele>
        <time>2016-01-10T08:57:52.000Z</time>
      </trkpt>
      <trkpt lat="47.51556" lon="6.77372">
        <ele>379</ele>
        <time>2016-01-10T08:57:53.000Z</time>
      </trkpt>
      <trkpt lat="47.51549" lon="6.77364">
        <ele>378.6</ele>
        <time>2016-01-10T08:57:54.000Z</time>
      </trkpt>
      <trkpt lat="47.51543" lon="6.77355">
        <ele>378.1</ele>
        <time>2016-01-10T08:57:55.000Z</time>
      </trkpt>
      <trkpt lat="47.51537" lon="6.77347">
        <ele>377.5</ele>
        <time>2016-01-10T08:57:56.000Z</time>
      </trkpt>
      <trkpt lat="47.51531" lon="6.77339">
        <ele>376.6</ele>
        <time>2016-01-10T08:57:57.000Z</time>
      </trkpt>
      <trkpt lat="47.51524" lon="6.77331">
        <ele>375.8</ele>
        <time>2016-01-10T08:57:58.000Z</time>
      </trkpt>
      <trkpt lat="47.51517" lon="6.77322">
        <ele>374.9</ele>
        <time>2016-01-10T08:57:59.000Z</time>
      </trkpt>
      <trkpt lat="47.5151" lon="6.77314">
        <ele>374</ele>
        <time>2016-01-10T08:58:00.000Z</time>
      </trkpt>
      <trkpt lat="47.51503" lon="6.77304">
        <ele>373</ele>
        <time>2016-01-10T08:58:01.000Z</time>
      </trkpt>
      <trkpt lat="47.51497" lon="6.77293">
        <ele>372.6</ele>
        <time>2016-01-10T08:58:02.000Z</time>
      </trkpt>
      <trkpt lat="47.51493" lon="6.77281">
        <ele>372.1</ele>
        <time>2016-01-10T08:58:03.000Z</time>
      </trkpt>
      <trkpt lat="47.5149" lon="6.77268">
        <ele>372</ele>
        <time>2016-01-10T08:58:04.000Z</time>
      </trkpt>
      <trkpt lat="47.51489" lon="6.77255">
        <ele>371.6</ele>
        <time>2016-01-10T08:58:05.000Z</time>
      </trkpt>
      <trkpt lat="47.51488" lon="6.77243">
        <ele>371.4</ele>
        <time>2016-01-10T08:58:06.000Z</time>
      </trkpt>
      <trkpt lat="47.51487" lon="6.77231">
        <ele>371.3</ele>
        <time>2016-01-10T08:58:07.000Z</time>
      </trkpt>
      <trkpt lat="47.51487" lon="6.7722">
        <ele>371</ele>
        <time>2016-01-10T08:58:08.000Z</time>
      </trkpt>
      <trkpt lat="47.51486" lon="6.7721">
        <ele>370.6</ele>
        <time>2016-01-10T08:58:09.000Z</time>
      </trkpt>
      <trkpt lat="47.51484" lon="6.77203">
        <ele>370.7</ele>
        <time>2016-01-10T08:58:10.000Z</time>
      </trkpt>
      <trkpt lat="47.51481" lon="6.77196">
        <ele>370.4</ele>
        <time>2016-01-10T08:58:11.000Z</time>
      </trkpt>
      <trkpt lat="47.51477" lon="6.77192">
        <ele>370.2</ele>
        <time>2016-01-10T08:58:12.000Z</time>
      </trkpt>
      <trkpt lat="47.51471" lon="6.77191">
        <ele>369.8</ele>
        <time>2016-01-10T08:58:13.000Z</time>
      </trkpt>
      <trkpt lat="47.51465" lon="6.77193">
        <ele>369</ele>
        <time>2016-01-10T08:58:14.000Z</time>
      </trkpt>
      <trkpt lat="47.51459" lon="6.77196">
        <ele>368.7</ele>
        <time>2016-01-10T08:58:15.000Z</time>
      </trkpt>
      <trkpt lat="47.51453" lon="6.77199">
        <ele>368.1</ele>
        <time>2016-01-10T08:58:16.000Z</time>
      </trkpt>
      <trkpt lat="47.51446" lon="6.77202">
        <ele>367.8</ele>
        <time>2016-01-10T08:58:17.000Z</time>
      </trkpt>
      <trkpt lat="47.51439" lon="6.77205">
        <ele>367.8</ele>
        <time>2016-01-10T08:58:18.000Z</time>
      </trkpt>
      <trkpt lat="47.51433" lon="6.77209">
        <ele>367.7</ele>
        <time>2016-01-10T08:58:19.000Z</time>
      </trkpt>
      <trkpt lat="47.51427" lon="6.77211">
        <ele>368.1</ele>
        <time>2016-01-10T08:58:20.000Z</time>
      </trkpt>
      <trkpt lat="47.5142" lon="6.77213">
        <ele>368.4</ele>
        <time>2016-01-10T08:58:21.000Z</time>
      </trkpt>
      <trkpt lat="47.51415" lon="6.77216">
        <ele>368.8</ele>
        <time>2016-01-10T08:58:22.000Z</time>
      </trkpt>
      <trkpt lat="47.5141" lon="6.77218">
        <ele>369.2</ele>
        <time>2016-01-10T08:58:23.000Z</time>
      </trkpt>
      <trkpt lat="47.51406" lon="6.77221">
        <ele>369</ele>
        <time>2016-01-10T08:58:24.000Z</time>
      </trkpt>
      <trkpt lat="47.51401" lon="6.77224">
        <ele>369.3</ele>
        <time>2016-01-10T08:58:25.000Z</time>
      </trkpt>
      <trkpt lat="47.51398" lon="6.77226">
        <ele>369.9</ele>
        <time>2016-01-10T08:58:26.000Z</time>
      </trkpt>
      <trkpt lat="47.51394" lon="6.77229">
        <ele>369.9</ele>
        <time>2016-01-10T08:58:27.000Z</time>
      </trkpt>
      <trkpt lat="47.5139" lon="6.77231">
        <ele>370.6</ele>
        <time>2016-01-10T08:58:28.000Z</time>
      </trkpt>
      <trkpt lat="47.51386" lon="6.77235">
        <ele>371.1</ele>
        <time>2016-01-10T08:58:29.000Z</time>
      </trkpt>
      <trkpt lat="47.51383" lon="6.77238">
        <ele>371.4</ele>
        <time>2016-01-10T08:58:30.000Z</time>
      </trkpt>
      <trkpt lat="47.51379" lon="6.7724">
        <ele>372.4</ele>
        <time>2016-01-10T08:58:31.000Z</time>
      </trkpt>
      <trkpt lat="47.51376" lon="6.77243">
        <ele>373.2</ele>
        <time>2016-01-10T08:58:32.000Z</time>
      </trkpt>
      <trkpt lat="47.51372" lon="6.77245">
        <ele>373.7</ele>
        <time>2016-01-10T08:58:33.000Z</time>
      </trkpt>
      <trkpt lat="47.51369" lon="6.77247">
        <ele>374.1</ele>
        <time>2016-01-10T08:58:34.000Z</time>
      </trkpt>
      <trkpt lat="47.51366" lon="6.7725">
        <ele>374.6</ele>
        <time>2016-01-10T08:58:35.000Z</time>
      </trkpt>
      <trkpt lat="47.51363" lon="6.77253">
        <ele>374.6</ele>
        <time>2016-01-10T08:58:36.000Z</time>
      </trkpt>
      <trkpt lat="47.5136" lon="6.77256">
        <ele>376.5</ele>
        <time>2016-01-10T08:58:37.000Z</time>
      </trkpt>
      <trkpt lat="47.51357" lon="6.77259">
        <ele>376.9</ele>
        <time>2016-01-10T08:58:38.000Z</time>
      </trkpt>
      <trkpt lat="47.51354" lon="6.77261">
        <ele>377.1</ele>
        <time>2016-01-10T08:58:39.000Z</time>
      </trkpt>
      <trkpt lat="47.51351" lon="6.77264">
        <ele>378</ele>
        <time>2016-01-10T08:58:40.000Z</time>
      </trkpt>
      <trkpt lat="47.51349" lon="6.77266">
        <ele>378.1</ele>
        <time>2016-01-10T08:58:41.000Z</time>
      </trkpt>
      <trkpt lat="47.51346" lon="6.77268">
        <ele>378.4</ele>
        <time>2016-01-10T08:58:42.000Z</time>
      </trkpt>
      <trkpt lat="47.51344" lon="6.7727">
        <ele>378.5</ele>
        <time>2016-01-10T08:58:43.000Z</time>
      </trkpt>
      <trkpt lat="47.51342" lon="6.77272">
        <ele>378.9</ele>
        <time>2016-01-10T08:58:44.000Z</time>
      </trkpt>
      <trkpt lat="47.5134" lon="6.77274">
        <ele>379</ele>
        <time>2016-01-10T08:58:45.000Z</time>
      </trkpt>
      <trkpt lat="47.51338" lon="6.77275">
        <ele>379.3</ele>
        <time>2016-01-10T08:58:46.000Z</time>
      </trkpt>
      <trkpt lat="47.51334" lon="6.77278">
        <ele>380.3</ele>
        <time>2016-01-10T08:58:48.000Z</time>
      </trkpt>
      <trkpt lat="47.51332" lon="6.77279">
        <ele>380.3</ele>
        <time>2016-01-10T08:58:49.000Z</time>
      </trkpt>
      <trkpt lat="47.51329" lon="6.7728">
        <ele>380.6</ele>
        <time>2016-01-10T08:58:50.000Z</time>
      </trkpt>
      <trkpt lat="47.51326" lon="6.7728">
        <ele>380.9</ele>
        <time>2016-01-10T08:58:51.000Z</time>
      </trkpt>
      <trkpt lat="47.51323" lon="6.7728">
        <ele>381</ele>
        <time>2016-01-10T08:58:52.000Z</time>
      </trkpt>
      <trkpt lat="47.5132" lon="6.77279">
        <ele>381.2</ele>
        <time>2016-01-10T08:58:53.000Z</time>
      </trkpt>
      <trkpt lat="47.51317" lon="6.77278">
        <ele>381.3</ele>
        <time>2016-01-10T08:58:54.000Z</time>
      </trkpt>
      <trkpt lat="47.51314" lon="6.77277">
        <ele>381.5</ele>
        <time>2016-01-10T08:58:55.000Z</time>
      </trkpt>
      <trkpt lat="47.51311" lon="6.77276">
        <ele>381.7</ele>
        <time>2016-01-10T08:58:56.000Z</time>
      </trkpt>
      <trkpt lat="47.51308" lon="6.77274">
        <ele>381.7</ele>
        <time>2016-01-10T08:58:57.000Z</time>
      </trkpt>
      <trkpt lat="47.51304" lon="6.77273">
        <ele>381.9</ele>
        <time>2016-01-10T08:58:58.000Z</time>
      </trkpt>
      <trkpt lat="47.51301" lon="6.77271">
        <ele>382.2</ele>
        <time>2016-01-10T08:58:59.000Z</time>
      </trkpt>
      <trkpt lat="47.51298" lon="6.77269">
        <ele>382.5</ele>
        <time>2016-01-10T08:59:00.000Z</time>
      </trkpt>
      <trkpt lat="47.51295" lon="6.77267">
        <ele>382.6</ele>
        <time>2016-01-10T08:59:01.000Z</time>
      </trkpt>
      <trkpt lat="47.51291" lon="6.77265">
        <ele>382.8</ele>
        <time>2016-01-10T08:59:02.000Z</time>
      </trkpt>
      <trkpt lat="47.51287" lon="6.77263">
        <ele>383</ele>
        <time>2016-01-10T08:59:03.000Z</time>
      </trkpt>
      <trkpt lat="47.51283" lon="6.77261">
        <ele>383.1</ele>
        <time>2016-01-10T08:59:04.000Z</time>
      </trkpt>
      <trkpt lat="47.51279" lon="6.77258">
        <ele>383.5</ele>
        <time>2016-01-10T08:59:05.000Z</time>
      </trkpt>
      <trkpt lat="47.51275" lon="6.77256">
        <ele>383.6</ele>
        <time>2016-01-10T08:59:06.000Z</time>
      </trkpt>
      <trkpt lat="47.51271" lon="6.77253">
        <ele>383.7</ele>
        <time>2016-01-10T08:59:07.000Z</time>
      </trkpt>
      <trkpt lat="47.51267" lon="6.7725">
        <ele>384.4</ele>
        <time>2016-01-10T08:59:08.000Z</time>
      </trkpt>
      <trkpt lat="47.51264" lon="6.77247">
        <ele>384.1</ele>
        <time>2016-01-10T08:59:09.000Z</time>
      </trkpt>
      <trkpt lat="47.5126" lon="6.7724">
        <ele>384.1</ele>
        <time>2016-01-10T08:59:10.000Z</time>
      </trkpt>
      <trkpt lat="47.51257" lon="6.77235">
        <ele>383.7</ele>
        <time>2016-01-10T08:59:11.000Z</time>
      </trkpt>
      <trkpt lat="47.51254" lon="6.7723">
        <ele>383.8</ele>
        <time>2016-01-10T08:59:12.000Z</time>
      </trkpt>
      <trkpt lat="47.5125" lon="6.77224">
        <ele>383.8</ele>
        <time>2016-01-10T08:59:13.000Z</time>
      </trkpt>
      <trkpt lat="47.51247" lon="6.77218">
        <ele>383.3</ele>
        <time>2016-01-10T08:59:14.000Z</time>
      </trkpt>
      <trkpt lat="47.51243" lon="6.77212">
        <ele>383.2</ele>
        <time>2016-01-10T08:59:15.000Z</time>
      </trkpt>
      <trkpt lat="47.5124" lon="6.77206">
        <ele>383.5</ele>
        <time>2016-01-10T08:59:16.000Z</time>
      </trkpt>
      <trkpt lat="47.51236" lon="6.77199">
        <ele>383.6</ele>
        <time>2016-01-10T08:59:17.000Z</time>
      </trkpt>
      <trkpt lat="47.51233" lon="6.77192">
        <ele>383.4</ele>
        <time>2016-01-10T08:59:18.000Z</time>
      </trkpt>
      <trkpt lat="47.51229" lon="6.77185">
        <ele>383.3</ele>
        <time>2016-01-10T08:59:19.000Z</time>
      </trkpt>
      <trkpt lat="47.51226" lon="6.77178">
        <ele>383.1</ele>
        <time>2016-01-10T08:59:20.000Z</time>
      </trkpt>
      <trkpt lat="47.51222" lon="6.7717">
        <ele>383.1</ele>
        <time>2016-01-10T08:59:21.000Z</time>
      </trkpt>
      <trkpt lat="47.51219" lon="6.77163">
        <ele>383</ele>
        <time>2016-01-10T08:59:22.000Z</time>
      </trkpt>
      <trkpt lat="47.51215" lon="6.77154">
        <ele>382.8</ele>
        <time>2016-01-10T08:59:23.000Z</time>
      </trkpt>
      <trkpt lat="47.5121" lon="6.77147">
        <ele>382.5</ele>
        <time>2016-01-10T08:59:24.000Z</time>
      </trkpt>
      <trkpt lat="47.51206" lon="6.77138">
        <ele>382.6</ele>
        <time>2016-01-10T08:59:25.000Z</time>
      </trkpt>
      <trkpt lat="47.51202" lon="6.7713">
        <ele>382.6</ele>
        <time>2016-01-10T08:59:26.000Z</time>
      </trkpt>
      <trkpt lat="47.51197" lon="6.77122">
        <ele>382</ele>
        <time>2016-01-10T08:59:27.000Z</time>
      </trkpt>
      <trkpt lat="47.51193" lon="6.77113">
        <ele>381.7</ele>
        <time>2016-01-10T08:59:28.000Z</time>
      </trkpt>
      <trkpt lat="47.51188" lon="6.77104">
        <ele>381.6</ele>
        <time>2016-01-10T08:59:29.000Z</time>
      </trkpt>
      <trkpt lat="47.51183" lon="6.77094">
        <ele>381.3</ele>
        <time>2016-01-10T08:59:30.000Z</time>
      </trkpt>
      <trkpt lat="47.51178" lon="6.77085">
        <ele>380.9</ele>
        <time>2016-01-10T08:59:31.000Z</time>
      </trkpt>
      <trkpt lat="47.51173" lon="6.77076">
        <ele>380.7</ele>
        <time>2016-01-10T08:59:32.000Z</time>
      </trkpt>
      <trkpt lat="47.51167" lon="6.77068">
        <ele>380.9</ele>
        <time>2016-01-10T08:59:33.000Z</time>
      </trkpt>
      <trkpt lat="47.51161" lon="6.77061">
        <ele>380.1</ele>
        <time>2016-01-10T08:59:34.000Z</time>
      </trkpt>
      <trkpt lat="47.51155" lon="6.77055">
        <ele>379.8</ele>
        <time>2016-01-10T08:59:35.000Z</time>
      </trkpt>
      <trkpt lat="47.51148" lon="6.77049">
        <ele>379.6</ele>
        <time>2016-01-10T08:59:36.000Z</time>
      </trkpt>
      <trkpt lat="47.51141" lon="6.77044">
        <ele>379.4</ele>
        <time>2016-01-10T08:59:37.000Z</time>
      </trkpt>
      <trkpt lat="47.51135" lon="6.77038">
        <ele>379.4</ele>
        <time>2016-01-10T08:59:38.000Z</time>
      </trkpt>
      <trkpt lat="47.51128" lon="6.77032">
        <ele>379.4</ele>
        <time>2016-01-10T08:59:39.000Z</time>
      </trkpt>
      <trkpt lat="47.51121" lon="6.77027">
        <ele>379.1</ele>
        <time>2016-01-10T08:59:40.000Z</time>
      </trkpt>
      <trkpt lat="47.51115" lon="6.77021">
        <ele>378.8</ele>
        <time>2016-01-10T08:59:41.000Z</time>
      </trkpt>
      <trkpt lat="47.51108" lon="6.77015">
        <ele>378.8</ele>
        <time>2016-01-10T08:59:42.000Z</time>
      </trkpt>
      <trkpt lat="47.51102" lon="6.77009">
        <ele>378.8</ele>
        <time>2016-01-10T08:59:43.000Z</time>
      </trkpt>
      <trkpt lat="47.51095" lon="6.77004">
        <ele>379</ele>
        <time>2016-01-10T08:59:44.000Z</time>
      </trkpt>
      <trkpt lat="47.5109" lon="6.76998">
        <ele>379.1</ele>
        <time>2016-01-10T08:59:45.000Z</time>
      </trkpt>
      <trkpt lat="47.51084" lon="6.76992">
        <ele>378.9</ele>
        <time>2016-01-10T08:59:46.000Z</time>
      </trkpt>
      <trkpt lat="47.51078" lon="6.76987">
        <ele>379</ele>
        <time>2016-01-10T08:59:47.000Z</time>
      </trkpt>
      <trkpt lat="47.51072" lon="6.76981">
        <ele>378.9</ele>
        <time>2016-01-10T08:59:48.000Z</time>
      </trkpt>
      <trkpt lat="47.51065" lon="6.76975">
        <ele>378.8</ele>
        <time>2016-01-10T08:59:49.000Z</time>
      </trkpt>
      <trkpt lat="47.51059" lon="6.7697">
        <ele>378.8</ele>
        <time>2016-01-10T08:59:50.000Z</time>
      </trkpt>
      <trkpt lat="47.51053" lon="6.76964">
        <ele>378.8</ele>
        <time>2016-01-10T08:59:51.000Z</time>
      </trkpt>
      <trkpt lat="47.51047" lon="6.7696">
        <ele>379.3</ele>
        <time>2016-01-10T08:59:52.000Z</time>
      </trkpt>
      <trkpt lat="47.51042" lon="6.76956">
        <ele>379.8</ele>
        <time>2016-01-10T08:59:53.000Z</time>
      </trkpt>
      <trkpt lat="47.51037" lon="6.76951">
        <ele>380.1</ele>
        <time>2016-01-10T08:59:54.000Z</time>
      </trkpt>
      <trkpt lat="47.51032" lon="6.76946">
        <ele>380.1</ele>
        <time>2016-01-10T08:59:55.000Z</time>
      </trkpt>
      <trkpt lat="47.51028" lon="6.76939">
        <ele>381.3</ele>
        <time>2016-01-10T08:59:56.000Z</time>
      </trkpt>
      <trkpt lat="47.51024" lon="6.76934">
        <ele>381.1</ele>
        <time>2016-01-10T08:59:57.000Z</time>
      </trkpt>
      <trkpt lat="47.5102" lon="6.76932">
        <ele>381.1</ele>
        <time>2016-01-10T08:59:58.000Z</time>
      </trkpt>
      <trkpt lat="47.51015" lon="6.76929">
        <ele>380.9</ele>
        <time>2016-01-10T08:59:59.000Z</time>
      </trkpt>
      <trkpt lat="47.5101" lon="6.76928">
        <ele>381.1</ele>
        <time>2016-01-10T09:00:00.000Z</time>
      </trkpt>
      <trkpt lat="47.51006" lon="6.76925">
        <ele>380.8</ele>
        <time>2016-01-10T09:00:01.000Z</time>
      </trkpt>
      <trkpt lat="47.51002" lon="6.76922">
        <ele>380.6</ele>
        <time>2016-01-10T09:00:02.000Z</time>
      </trkpt>
      <trkpt lat="47.50999" lon="6.76917">
        <ele>380.9</ele>
        <time>2016-01-10T09:00:03.000Z</time>
      </trkpt>
      <trkpt lat="47.50998" lon="6.7691">
        <ele>380.6</ele>
        <time>2016-01-10T09:00:04.000Z</time>
      </trkpt>
      <trkpt lat="47.50996" lon="6.76905">
        <ele>380</ele>
        <time>2016-01-10T09:00:05.000Z</time>
      </trkpt>
      <trkpt lat="47.50992" lon="6.769">
        <ele>380.2</ele>
        <time>2016-01-10T09:00:06.000Z</time>
      </trkpt>
      <trkpt lat="47.50988" lon="6.76898">
        <ele>379.7</ele>
        <time>2016-01-10T09:00:07.000Z</time>
      </trkpt>
      <trkpt lat="47.50983" lon="6.76896">
        <ele>379.6</ele>
        <time>2016-01-10T09:00:08.000Z</time>
      </trkpt>
      <trkpt lat="47.50979" lon="6.76896">
        <ele>379.8</ele>
        <time>2016-01-10T09:00:09.000Z</time>
      </trkpt>
      <trkpt lat="47.50975" lon="6.76896">
        <ele>380.3</ele>
        <time>2016-01-10T09:00:10.000Z</time>
      </trkpt>
      <trkpt lat="47.5097" lon="6.76896">
        <ele>380.5</ele>
        <time>2016-01-10T09:00:11.000Z</time>
      </trkpt>
      <trkpt lat="47.50966" lon="6.76894">
        <ele>380.6</ele>
        <time>2016-01-10T09:00:12.000Z</time>
      </trkpt>
      <trkpt lat="47.50962" lon="6.76892">
        <ele>380.6</ele>
        <time>2016-01-10T09:00:13.000Z</time>
      </trkpt>
      <trkpt lat="47.50958" lon="6.7689">
        <ele>381.3</ele>
        <time>2016-01-10T09:00:14.000Z</time>
      </trkpt>
      <trkpt lat="47.50954" lon="6.76887">
        <ele>381.3</ele>
        <time>2016-01-10T09:00:15.000Z</time>
      </trkpt>
      <trkpt lat="47.5095" lon="6.76884">
        <ele>381.8</ele>
        <time>2016-01-10T09:00:16.000Z</time>
      </trkpt>
      <trkpt lat="47.50946" lon="6.7688">
        <ele>381.9</ele>
        <time>2016-01-10T09:00:17.000Z</time>
      </trkpt>
      <trkpt lat="47.50942" lon="6.76876">
        <ele>382.5</ele>
        <time>2016-01-10T09:00:18.000Z</time>
      </trkpt>
      <trkpt lat="47.50939" lon="6.76872">
        <ele>382.3</ele>
        <time>2016-01-10T09:00:19.000Z</time>
      </trkpt>
      <trkpt lat="47.50935" lon="6.76867">
        <ele>382.3</ele>
        <time>2016-01-10T09:00:20.000Z</time>
      </trkpt>
      <trkpt lat="47.50931" lon="6.76862">
        <ele>382</ele>
        <time>2016-01-10T09:00:21.000Z</time>
      </trkpt>
      <trkpt lat="47.50929" lon="6.76856">
        <ele>382.3</ele>
        <time>2016-01-10T09:00:22.000Z</time>
      </trkpt>
      <trkpt lat="47.50926" lon="6.76851">
        <ele>382.2</ele>
        <time>2016-01-10T09:00:23.000Z</time>
      </trkpt>
      <trkpt lat="47.50923" lon="6.76845">
        <ele>382.5</ele>
        <time>2016-01-10T09:00:24.000Z</time>
      </trkpt>
      <trkpt lat="47.5092" lon="6.76839">
        <ele>382.3</ele>
        <time>2016-01-10T09:00:25.000Z</time>
      </trkpt>
      <trkpt lat="47.50918" lon="6.76832">
        <ele>382.2</ele>
        <time>2016-01-10T09:00:26.000Z</time>
      </trkpt>
      <trkpt lat="47.50916" lon="6.76827">
        <ele>382.1</ele>
        <time>2016-01-10T09:00:27.000Z</time>
      </trkpt>
      <trkpt lat="47.50913" lon="6.76821">
        <ele>382.3</ele>
        <time>2016-01-10T09:00:28.000Z</time>
      </trkpt>
      <trkpt lat="47.50911" lon="6.76816">
        <ele>382.7</ele>
        <time>2016-01-10T09:00:29.000Z</time>
      </trkpt>
      <trkpt lat="47.50909" lon="6.7681">
        <ele>383</ele>
        <time>2016-01-10T09:00:30.000Z</time>
      </trkpt>
      <trkpt lat="47.50906" lon="6.76804">
        <ele>382.9</ele>
        <time>2016-01-10T09:00:31.000Z</time>
      </trkpt>
      <trkpt lat="47.50904" lon="6.76799">
        <ele>382.9</ele>
        <time>2016-01-10T09:00:32.000Z</time>
      </trkpt>
      <trkpt lat="47.50902" lon="6.76793">
        <ele>383.2</ele>
        <time>2016-01-10T09:00:33.000Z</time>
      </trkpt>
      <trkpt lat="47.509" lon="6.76788">
        <ele>383.6</ele>
        <time>2016-01-10T09:00:34.000Z</time>
      </trkpt>
      <trkpt lat="47.50898" lon="6.76783">
        <ele>383.5</ele>
        <time>2016-01-10T09:00:35.000Z</time>
      </trkpt>
      <trkpt lat="47.50895" lon="6.76779">
        <ele>383.2</ele>
        <time>2016-01-10T09:00:36.000Z</time>
      </trkpt>
      <trkpt lat="47.50893" lon="6.76775">
        <ele>383.8</ele>
        <time>2016-01-10T09:00:37.000Z</time>
      </trkpt>
      <trkpt lat="47.50891" lon="6.7677">
        <ele>383.9</ele>
        <time>2016-01-10T09:00:38.000Z</time>
      </trkpt>
      <trkpt lat="47.50889" lon="6.76764">
        <ele>384.1</ele>
        <time>2016-01-10T09:00:39.000Z</time>
      </trkpt>
      <trkpt lat="47.50888" lon="6.76759">
        <ele>384.3</ele>
        <time>2016-01-10T09:00:40.000Z</time>
      </trkpt>
      <trkpt lat="47.50886" lon="6.76754">
        <ele>384.5</ele>
        <time>2016-01-10T09:00:41.000Z</time>
      </trkpt>
      <trkpt lat="47.50885" lon="6.76749">
        <ele>385</ele>
        <time>2016-01-10T09:00:42.000Z</time>
      </trkpt>
      <trkpt lat="47.50883" lon="6.76743">
        <ele>385.7</ele>
        <time>2016-01-10T09:00:44.000Z</time>
      </trkpt>
      <trkpt lat="47.50883" lon="6.76742">
        <ele>385.6</ele>
        <time>2016-01-10T09:00:45.000Z</time>
      </trkpt>
      <trkpt lat="47.50881" lon="6.76737">
        <ele>384.5</ele>
        <time>2016-01-10T09:00:48.000Z</time>
      </trkpt>
      <trkpt lat="47.5088" lon="6.76734">
        <ele>384.2</ele>
        <time>2016-01-10T09:00:49.000Z</time>
      </trkpt>
      <trkpt lat="47.50879" lon="6.76731">
        <ele>384.6</ele>
        <time>2016-01-10T09:00:50.000Z</time>
      </trkpt>
      <trkpt lat="47.50878" lon="6.76727">
        <ele>385.1</ele>
        <time>2016-01-10T09:00:51.000Z</time>
      </trkpt>
      <trkpt lat="47.50877" lon="6.76722">
        <ele>385.3</ele>
        <time>2016-01-10T09:00:52.000Z</time>
      </trkpt>
      <trkpt lat="47.50876" lon="6.76717">
        <ele>385.3</ele>
        <time>2016-01-10T09:00:53.000Z</time>
      </trkpt>
      <trkpt lat="47.50874" lon="6.76712">
        <ele>385.7</ele>
        <time>2016-01-10T09:00:54.000Z</time>
      </trkpt>
      <trkpt lat="47.50873" lon="6.76708">
        <ele>385.7</ele>
        <time>2016-01-10T09:00:55.000Z</time>
      </trkpt>
      <trkpt lat="47.50871" lon="6.76703">
        <ele>385.9</ele>
        <time>2016-01-10T09:00:56.000Z</time>
      </trkpt>
      <trkpt lat="47.50869" lon="6.76698">
        <ele>386.3</ele>
        <time>2016-01-10T09:00:57.000Z</time>
      </trkpt>
      <trkpt lat="47.50868" lon="6.76694">
        <ele>386.6</ele>
        <time>2016-01-10T09:00:58.000Z</time>
      </trkpt>
      <trkpt lat="47.50866" lon="6.7669">
        <ele>386.8</ele>
        <time>2016-01-10T09:00:59.000Z</time>
      </trkpt>
      <trkpt lat="47.50864" lon="6.76686">
        <ele>387.3</ele>
        <time>2016-01-10T09:01:00.000Z</time>
      </trkpt>
      <trkpt lat="47.50863" lon="6.76681">
        <ele>387.6</ele>
        <time>2016-01-10T09:01:01.000Z</time>
      </trkpt>
      <trkpt lat="47.50861" lon="6.76677">
        <ele>387.5</ele>
        <time>2016-01-10T09:01:02.000Z</time>
      </trkpt>
      <trkpt lat="47.5086" lon="6.76673">
        <ele>387.7</ele>
        <time>2016-01-10T09:01:03.000Z</time>
      </trkpt>
      <trkpt lat="47.50858" lon="6.76669">
        <ele>387.8</ele>
        <time>2016-01-10T09:01:04.000Z</time>
      </trkpt>
      <trkpt lat="47.50856" lon="6.76665">
        <ele>388.2</ele>
        <time>2016-01-10T09:01:05.000Z</time>
      </trkpt>
      <trkpt lat="47.50854" lon="6.76661">
        <ele>388.3</ele>
        <time>2016-01-10T09:01:06.000Z</time>
      </trkpt>
      <trkpt lat="47.50853" lon="6.76657">
        <ele>388.5</ele>
        <time>2016-01-10T09:01:07.000Z</time>
      </trkpt>
      <trkpt lat="47.50851" lon="6.76653">
        <ele>388.6</ele>
        <time>2016-01-10T09:01:08.000Z</time>
      </trkpt>
      <trkpt lat="47.50849" lon="6.7665">
        <ele>389</ele>
        <time>2016-01-10T09:01:09.000Z</time>
      </trkpt>
      <trkpt lat="47.50847" lon="6.76646">
        <ele>389.2</ele>
        <time>2016-01-10T09:01:10.000Z</time>
      </trkpt>
      <trkpt lat="47.50846" lon="6.76642">
        <ele>389.7</ele>
        <time>2016-01-10T09:01:11.000Z</time>
      </trkpt>
      <trkpt lat="47.50844" lon="6.76638">
        <ele>390.1</ele>
        <time>2016-01-10T09:01:12.000Z</time>
      </trkpt>
      <trkpt lat="47.50842" lon="6.76634">
        <ele>390.1</ele>
        <time>2016-01-10T09:01:13.000Z</time>
      </trkpt>
      <trkpt lat="47.5084" lon="6.7663">
        <ele>390.1</ele>
        <time>2016-01-10T09:01:14.000Z</time>
      </trkpt>
      <trkpt lat="47.50838" lon="6.76626">
        <ele>390.2</ele>
        <time>2016-01-10T09:01:15.000Z</time>
      </trkpt>
      <trkpt lat="47.50837" lon="6.76622">
        <ele>390.3</ele>
        <time>2016-01-10T09:01:16.000Z</time>
      </trkpt>
      <trkpt lat="47.50835" lon="6.76618">
        <ele>390.5</ele>
        <time>2016-01-10T09:01:17.000Z</time>
      </trkpt>
      <trkpt lat="47.50833" lon="6.76614">
        <ele>390.7</ele>
        <time>2016-01-10T09:01:18.000Z</time>
      </trkpt>
      <trkpt lat="47.50832" lon="6.7661">
        <ele>390.9</ele>
        <time>2016-01-10T09:01:19.000Z</time>
      </trkpt>
      <trkpt lat="47.5083" lon="6.76607">
        <ele>391.5</ele>
        <time>2016-01-10T09:01:20.000Z</time>
      </trkpt>
      <trkpt lat="47.50829" lon="6.76603">
        <ele>390.8</ele>
        <time>2016-01-10T09:01:21.000Z</time>
      </trkpt>
      <trkpt lat="47.50827" lon="6.76599">
        <ele>390.8</ele>
        <time>2016-01-10T09:01:22.000Z</time>
      </trkpt>
      <trkpt lat="47.50826" lon="6.76595">
        <ele>391.4</ele>
        <time>2016-01-10T09:01:23.000Z</time>
      </trkpt>
      <trkpt lat="47.50825" lon="6.76591">
        <ele>391.2</ele>
        <time>2016-01-10T09:01:24.000Z</time>
      </trkpt>
      <trkpt lat="47.50824" lon="6.76588">
        <ele>391.3</ele>
        <time>2016-01-10T09:01:25.000Z</time>
      </trkpt>
      <trkpt lat="47.5082" lon="6.76587">
        <ele>391.9</ele>
        <time>2016-01-10T09:01:27.000Z</time>
      </trkpt>
      <trkpt lat="47.50818" lon="6.76589">
        <ele>391.5</ele>
        <time>2016-01-10T09:01:28.000Z</time>
      </trkpt>
      <trkpt lat="47.50815" lon="6.76591">
        <ele>391.4</ele>
        <time>2016-01-10T09:01:29.000Z</time>
      </trkpt>
      <trkpt lat="47.50813" lon="6.76591">
        <ele>392.1</ele>
        <time>2016-01-10T09:01:30.000Z</time>
      </trkpt>
      <trkpt lat="47.5081" lon="6.76586">
        <ele>392.5</ele>
        <time>2016-01-10T09:01:32.000Z</time>
      </trkpt>
      <trkpt lat="47.50808" lon="6.76584">
        <ele>392.6</ele>
        <time>2016-01-10T09:01:33.000Z</time>
      </trkpt>
      <trkpt lat="47.50805" lon="6.76582">
        <ele>391.8</ele>
        <time>2016-01-10T09:01:35.000Z</time>
      </trkpt>
      <trkpt lat="47.50803" lon="6.76582">
        <ele>391.4</ele>
        <time>2016-01-10T09:01:36.000Z</time>
      </trkpt>
      <trkpt lat="47.50799" lon="6.76583">
        <ele>392.4</ele>
        <time>2016-01-10T09:01:38.000Z</time>
      </trkpt>
      <trkpt lat="47.50797" lon="6.76584">
        <ele>392.7</ele>
        <time>2016-01-10T09:01:39.000Z</time>
      </trkpt>
      <trkpt lat="47.50793" lon="6.76586">
        <ele>393.8</ele>
        <time>2016-01-10T09:01:49.000Z</time>
      </trkpt>
      <trkpt lat="47.50792" lon="6.76586">
        <ele>393.8</ele>
        <time>2016-01-10T09:01:50.000Z</time>
      </trkpt>
      <trkpt lat="47.50787" lon="6.76586">
        <ele>393.1</ele>
        <time>2016-01-10T09:01:55.000Z</time>
      </trkpt>
      <trkpt lat="47.50785" lon="6.76587">
        <ele>393.5</ele>
        <time>2016-01-10T09:01:56.000Z</time>
      </trkpt>
      <trkpt lat="47.50783" lon="6.76588">
        <ele>393.6</ele>
        <time>2016-01-10T09:01:57.000Z</time>
      </trkpt>
      <trkpt lat="47.5078" lon="6.76589">
        <ele>393.9</ele>
        <time>2016-01-10T09:01:58.000Z</time>
      </trkpt>
      <trkpt lat="47.50777" lon="6.7659">
        <ele>394</ele>
        <time>2016-01-10T09:01:59.000Z</time>
      </trkpt>
      <trkpt lat="47.50775" lon="6.7659">
        <ele>394</ele>
        <time>2016-01-10T09:02:00.000Z</time>
      </trkpt>
      <trkpt lat="47.50772" lon="6.76591">
        <ele>392.2</ele>
        <time>2016-01-10T09:02:01.000Z</time>
      </trkpt>
      <trkpt lat="47.50769" lon="6.76591">
        <ele>392.4</ele>
        <time>2016-01-10T09:02:02.000Z</time>
      </trkpt>
      <trkpt lat="47.50766" lon="6.76592">
        <ele>392.4</ele>
        <time>2016-01-10T09:02:03.000Z</time>
      </trkpt>
      <trkpt lat="47.50763" lon="6.76593">
        <ele>391.4</ele>
        <time>2016-01-10T09:02:04.000Z</time>
      </trkpt>
      <trkpt lat="47.5076" lon="6.76593">
        <ele>391.8</ele>
        <time>2016-01-10T09:02:05.000Z</time>
      </trkpt>
      <trkpt lat="47.50757" lon="6.76593">
        <ele>392</ele>
        <time>2016-01-10T09:02:06.000Z</time>
      </trkpt>
      <trkpt lat="47.50755" lon="6.76593">
        <ele>392.2</ele>
        <time>2016-01-10T09:02:07.000Z</time>
      </trkpt>
      <trkpt lat="47.50752" lon="6.76593">
        <ele>392.4</ele>
        <time>2016-01-10T09:02:08.000Z</time>
      </trkpt>
      <trkpt lat="47.50749" lon="6.76593">
        <ele>392.6</ele>
        <time>2016-01-10T09:02:09.000Z</time>
      </trkpt>
      <trkpt lat="47.50746" lon="6.76593">
        <ele>393.1</ele>
        <time>2016-01-10T09:02:10.000Z</time>
      </trkpt>
      <trkpt lat="47.50743" lon="6.76593">
        <ele>393</ele>
        <time>2016-01-10T09:02:11.000Z</time>
      </trkpt>
      <trkpt lat="47.5074" lon="6.76593">
        <ele>393</ele>
        <time>2016-01-10T09:02:12.000Z</time>
      </trkpt>
      <trkpt lat="47.50736" lon="6.76593">
        <ele>392.9</ele>
        <time>2016-01-10T09:02:13.000Z</time>
      </trkpt>
      <trkpt lat="47.50733" lon="6.76592">
        <ele>393.4</ele>
        <time>2016-01-10T09:02:14.000Z</time>
      </trkpt>
      <trkpt lat="47.5073" lon="6.76592">
        <ele>392.9</ele>
        <time>2016-01-10T09:02:15.000Z</time>
      </trkpt>
      <trkpt lat="47.50727" lon="6.76591">
        <ele>393.4</ele>
        <time>2016-01-10T09:02:16.000Z</time>
      </trkpt>
      <trkpt lat="47.50724" lon="6.76591">
        <ele>393.4</ele>
        <time>2016-01-10T09:02:17.000Z</time>
      </trkpt>
      <trkpt lat="47.5072" lon="6.7659">
        <ele>393.6</ele>
        <time>2016-01-10T09:02:18.000Z</time>
      </trkpt>
      <trkpt lat="47.50717" lon="6.76589">
        <ele>394.1</ele>
        <time>2016-01-10T09:02:19.000Z</time>
      </trkpt>
      <trkpt lat="47.50714" lon="6.76589">
        <ele>393.3</ele>
        <time>2016-01-10T09:02:20.000Z</time>
      </trkpt>
      <trkpt lat="47.50711" lon="6.76588">
        <ele>393.9</ele>
        <time>2016-01-10T09:02:21.000Z</time>
      </trkpt>
      <trkpt lat="47.50708" lon="6.76587">
        <ele>394.2</ele>
        <time>2016-01-10T09:02:22.000Z</time>
      </trkpt>
      <trkpt lat="47.50705" lon="6.76587">
        <ele>394.1</ele>
        <time>2016-01-10T09:02:23.000Z</time>
      </trkpt>
      <trkpt lat="47.50702" lon="6.76586">
        <ele>394.5</ele>
        <time>2016-01-10T09:02:24.000Z</time>
      </trkpt>
      <trkpt lat="47.50699" lon="6.76585">
        <ele>394.9</ele>
        <time>2016-01-10T09:02:25.000Z</time>
      </trkpt>
      <trkpt lat="47.50696" lon="6.76585">
        <ele>394.8</ele>
        <time>2016-01-10T09:02:26.000Z</time>
      </trkpt>
      <trkpt lat="47.50694" lon="6.76585">
        <ele>394.9</ele>
        <time>2016-01-10T09:02:27.000Z</time>
      </trkpt>
      <trkpt lat="47.50691" lon="6.76585">
        <ele>395.3</ele>
        <time>2016-01-10T09:02:28.000Z</time>
      </trkpt>
      <trkpt lat="47.50688" lon="6.76586">
        <ele>395.6</ele>
        <time>2016-01-10T09:02:29.000Z</time>
      </trkpt>
      <trkpt lat="47.50685" lon="6.76586">
        <ele>395.7</ele>
        <time>2016-01-10T09:02:30.000Z</time>
      </trkpt>
      <trkpt lat="47.50682" lon="6.76586">
        <ele>395.7</ele>
        <time>2016-01-10T09:02:31.000Z</time>
      </trkpt>
      <trkpt lat="47.50679" lon="6.76586">
        <ele>395.8</ele>
        <time>2016-01-10T09:02:32.000Z</time>
      </trkpt>
      <trkpt lat="47.50676" lon="6.76586">
        <ele>395.6</ele>
        <time>2016-01-10T09:02:33.000Z</time>
      </trkpt>
      <trkpt lat="47.50673" lon="6.76586">
        <ele>395.7</ele>
        <time>2016-01-10T09:02:34.000Z</time>
      </trkpt>
      <trkpt lat="47.50669" lon="6.76586">
        <ele>395.9</ele>
        <time>2016-01-10T09:02:35.000Z</time>
      </trkpt>
      <trkpt lat="47.50666" lon="6.76587">
        <ele>396.2</ele>
        <time>2016-01-10T09:02:36.000Z</time>
      </trkpt>
      <trkpt lat="47.50663" lon="6.76588">
        <ele>396.2</ele>
        <time>2016-01-10T09:02:37.000Z</time>
      </trkpt>
      <trkpt lat="47.5066" lon="6.7659">
        <ele>396.4</ele>
        <time>2016-01-10T09:02:38.000Z</time>
      </trkpt>
      <trkpt lat="47.50657" lon="6.76591">
        <ele>396.7</ele>
        <time>2016-01-10T09:02:39.000Z</time>
      </trkpt>
      <trkpt lat="47.50655" lon="6.76592">
        <ele>396.7</ele>
        <time>2016-01-10T09:02:40.000Z</time>
      </trkpt>
      <trkpt lat="47.50652" lon="6.76594">
        <ele>396.9</ele>
        <time>2016-01-10T09:02:41.000Z</time>
      </trkpt>
      <trkpt lat="47.5065" lon="6.76595">
        <ele>396.7</ele>
        <time>2016-01-10T09:02:42.000Z</time>
      </trkpt>
      <trkpt lat="47.50647" lon="6.76597">
        <ele>396.8</ele>
        <time>2016-01-10T09:02:43.000Z</time>
      </trkpt>
      <trkpt lat="47.50644" lon="6.76598">
        <ele>397.3</ele>
        <time>2016-01-10T09:02:44.000Z</time>
      </trkpt>
      <trkpt lat="47.50641" lon="6.76599">
        <ele>396.5</ele>
        <time>2016-01-10T09:02:45.000Z</time>
      </trkpt>
      <trkpt lat="47.50638" lon="6.76601">
        <ele>395.9</ele>
        <time>2016-01-10T09:02:46.000Z</time>
      </trkpt>
      <trkpt lat="47.50635" lon="6.76602">
        <ele>395.5</ele>
        <time>2016-01-10T09:02:47.000Z</time>
      </trkpt>
      <trkpt lat="47.50633" lon="6.76603">
        <ele>395.4</ele>
        <time>2016-01-10T09:02:48.000Z</time>
      </trkpt>
      <trkpt lat="47.5063" lon="6.76605">
        <ele>395.6</ele>
        <time>2016-01-10T09:02:49.000Z</time>
      </trkpt>
      <trkpt lat="47.50628" lon="6.76606">
        <ele>396.9</ele>
        <time>2016-01-10T09:02:50.000Z</time>
      </trkpt>
      <trkpt lat="47.50625" lon="6.76608">
        <ele>396.5</ele>
        <time>2016-01-10T09:02:51.000Z</time>
      </trkpt>
      <trkpt lat="47.50622" lon="6.7661">
        <ele>396.5</ele>
        <time>2016-01-10T09:02:52.000Z</time>
      </trkpt>
      <trkpt lat="47.5062" lon="6.76612">
        <ele>396.8</ele>
        <time>2016-01-10T09:02:53.000Z</time>
      </trkpt>
      <trkpt lat="47.50617" lon="6.76614">
        <ele>397.3</ele>
        <time>2016-01-10T09:02:54.000Z</time>
      </trkpt>
      <trkpt lat="47.50614" lon="6.76615">
        <ele>397.8</ele>
        <time>2016-01-10T09:02:55.000Z</time>
      </trkpt>
      <trkpt lat="47.50611" lon="6.76616">
        <ele>397.8</ele>
        <time>2016-01-10T09:02:56.000Z</time>
      </trkpt>
      <trkpt lat="47.50608" lon="6.76618">
        <ele>398.4</ele>
        <time>2016-01-10T09:02:57.000Z</time>
      </trkpt>
      <trkpt lat="47.50605" lon="6.76619">
        <ele>399</ele>
        <time>2016-01-10T09:02:58.000Z</time>
      </trkpt>
      <trkpt lat="47.50602" lon="6.7662">
        <ele>399.3</ele>
        <time>2016-01-10T09:02:59.000Z</time>
      </trkpt>
      <trkpt lat="47.50599" lon="6.76622">
        <ele>399.8</ele>
        <time>2016-01-10T09:03:00.000Z</time>
      </trkpt>
      <trkpt lat="47.50596" lon="6.76623">
        <ele>400.1</ele>
        <time>2016-01-10T09:03:01.000Z</time>
      </trkpt>
      <trkpt lat="47.50593" lon="6.76624">
        <ele>400.2</ele>
        <time>2016-01-10T09:03:02.000Z</time>
      </trkpt>
      <trkpt lat="47.5059" lon="6.76625">
        <ele>401.1</ele>
        <time>2016-01-10T09:03:03.000Z</time>
      </trkpt>
      <trkpt lat="47.50587" lon="6.76625">
        <ele>400.7</ele>
        <time>2016-01-10T09:03:04.000Z</time>
      </trkpt>
      <trkpt lat="47.50584" lon="6.76626">
        <ele>401.5</ele>
        <time>2016-01-10T09:03:05.000Z</time>
      </trkpt>
      <trkpt lat="47.50582" lon="6.76627">
        <ele>401.9</ele>
        <time>2016-01-10T09:03:06.000Z</time>
      </trkpt>
      <trkpt lat="47.50579" lon="6.76628">
        <ele>401.8</ele>
        <time>2016-01-10T09:03:07.000Z</time>
      </trkpt>
      <trkpt lat="47.50576" lon="6.76629">
        <ele>401.5</ele>
        <time>2016-01-10T09:03:08.000Z</time>
      </trkpt>
      <trkpt lat="47.50573" lon="6.7663">
        <ele>401.5</ele>
        <time>2016-01-10T09:03:09.000Z</time>
      </trkpt>
      <trkpt lat="47.5057" lon="6.76631">
        <ele>401.3</ele>
        <time>2016-01-10T09:03:10.000Z</time>
      </trkpt>
      <trkpt lat="47.50568" lon="6.76632">
        <ele>401.5</ele>
        <time>2016-01-10T09:03:11.000Z</time>
      </trkpt>
      <trkpt lat="47.50565" lon="6.76632">
        <ele>401.4</ele>
        <time>2016-01-10T09:03:12.000Z</time>
      </trkpt>
      <trkpt lat="47.50562" lon="6.76633">
        <ele>401.7</ele>
        <time>2016-01-10T09:03:13.000Z</time>
      </trkpt>
      <trkpt lat="47.50559" lon="6.76634">
        <ele>402</ele>
        <time>2016-01-10T09:03:14.000Z</time>
      </trkpt>
      <trkpt lat="47.50556" lon="6.76635">
        <ele>401.2</ele>
        <time>2016-01-10T09:03:15.000Z</time>
      </trkpt>
      <trkpt lat="47.50553" lon="6.76636">
        <ele>401.4</ele>
        <time>2016-01-10T09:03:16.000Z</time>
      </trkpt>
      <trkpt lat="47.5055" lon="6.76637">
        <ele>401.6</ele>
        <time>2016-01-10T09:03:17.000Z</time>
      </trkpt>
      <trkpt lat="47.50547" lon="6.76638">
        <ele>401.6</ele>
        <time>2016-01-10T09:03:18.000Z</time>
      </trkpt>
      <trkpt lat="47.50543" lon="6.76639">
        <ele>401.5</ele>
        <time>2016-01-10T09:03:19.000Z</time>
      </trkpt>
      <trkpt lat="47.5054" lon="6.7664">
        <ele>401.6</ele>
        <time>2016-01-10T09:03:20.000Z</time>
      </trkpt>
      <trkpt lat="47.50536" lon="6.76641">
        <ele>401.4</ele>
        <time>2016-01-10T09:03:21.000Z</time>
      </trkpt>
      <trkpt lat="47.50533" lon="6.76642">
        <ele>401.5</ele>
        <time>2016-01-10T09:03:22.000Z</time>
      </trkpt>
      <trkpt lat="47.50529" lon="6.76642">
        <ele>401.5</ele>
        <time>2016-01-10T09:03:23.000Z</time>
      </trkpt>
      <trkpt lat="47.50525" lon="6.76643">
        <ele>401.4</ele>
        <time>2016-01-10T09:03:24.000Z</time>
      </trkpt>
      <trkpt lat="47.50521" lon="6.76644">
        <ele>401.4</ele>
        <time>2016-01-10T09:03:25.000Z</time>
      </trkpt>
      <trkpt lat="47.50517" lon="6.76645">
        <ele>401.3</ele>
        <time>2016-01-10T09:03:26.000Z</time>
      </trkpt>
      <trkpt lat="47.50513" lon="6.76647">
        <ele>400.6</ele>
        <time>2016-01-10T09:03:27.000Z</time>
      </trkpt>
      <trkpt lat="47.5051" lon="6.76648">
        <ele>400.8</ele>
        <time>2016-01-10T09:03:28.000Z</time>
      </trkpt>
      <trkpt lat="47.50506" lon="6.76649">
        <ele>400.5</ele>
        <time>2016-01-10T09:03:29.000Z</time>
      </trkpt>
      <trkpt lat="47.50502" lon="6.76649">
        <ele>400.5</ele>
        <time>2016-01-10T09:03:30.000Z</time>
      </trkpt>
      <trkpt lat="47.50499" lon="6.7665">
        <ele>400</ele>
        <time>2016-01-10T09:03:31.000Z</time>
      </trkpt>
      <trkpt lat="47.50495" lon="6.76651">
        <ele>399.5</ele>
        <time>2016-01-10T09:03:32.000Z</time>
      </trkpt>
      <trkpt lat="47.50491" lon="6.76652">
        <ele>399.4</ele>
        <time>2016-01-10T09:03:33.000Z</time>
      </trkpt>
      <trkpt lat="47.50487" lon="6.76653">
        <ele>399.1</ele>
        <time>2016-01-10T09:03:34.000Z</time>
      </trkpt>
      <trkpt lat="47.50483" lon="6.76655">
        <ele>399.1</ele>
        <time>2016-01-10T09:03:35.000Z</time>
      </trkpt>
      <trkpt lat="47.50479" lon="6.76657">
        <ele>398.9</ele>
        <time>2016-01-10T09:03:36.000Z</time>
      </trkpt>
      <trkpt lat="47.50475" lon="6.76658">
        <ele>399.4</ele>
        <time>2016-01-10T09:03:37.000Z</time>
      </trkpt>
      <trkpt lat="47.50471" lon="6.7666">
        <ele>399.3</ele>
        <time>2016-01-10T09:03:38.000Z</time>
      </trkpt>
      <trkpt lat="47.50467" lon="6.76662">
        <ele>399.4</ele>
        <time>2016-01-10T09:03:39.000Z</time>
      </trkpt>
      <trkpt lat="47.50463" lon="6.76664">
        <ele>399.8</ele>
        <time>2016-01-10T09:03:40.000Z</time>
      </trkpt>
      <trkpt lat="47.50458" lon="6.76666">
        <ele>400</ele>
        <time>2016-01-10T09:03:41.000Z</time>
      </trkpt>
      <trkpt lat="47.50453" lon="6.76669">
        <ele>399.8</ele>
        <time>2016-01-10T09:03:42.000Z</time>
      </trkpt>
      <trkpt lat="47.50449" lon="6.76671">
        <ele>399.9</ele>
        <time>2016-01-10T09:03:43.000Z</time>
      </trkpt>
      <trkpt lat="47.50445" lon="6.76673">
        <ele>399.3</ele>
        <time>2016-01-10T09:03:44.000Z</time>
      </trkpt>
      <trkpt lat="47.50441" lon="6.76675">
        <ele>399.4</ele>
        <time>2016-01-10T09:03:45.000Z</time>
      </trkpt>
      <trkpt lat="47.50437" lon="6.76676">
        <ele>399.2</ele>
        <time>2016-01-10T09:03:46.000Z</time>
      </trkpt>
      <trkpt lat="47.50433" lon="6.76678">
        <ele>399.3</ele>
        <time>2016-01-10T09:03:47.000Z</time>
      </trkpt>
      <trkpt lat="47.50429" lon="6.7668">
        <ele>399.3</ele>
        <time>2016-01-10T09:03:48.000Z</time>
      </trkpt>
      <trkpt lat="47.50425" lon="6.76682">
        <ele>399.4</ele>
        <time>2016-01-10T09:03:49.000Z</time>
      </trkpt>
      <trkpt lat="47.50421" lon="6.76684">
        <ele>399.5</ele>
        <time>2016-01-10T09:03:50.000Z</time>
      </trkpt>
      <trkpt lat="47.50417" lon="6.76685">
        <ele>399.5</ele>
        <time>2016-01-10T09:03:51.000Z</time>
      </trkpt>
      <trkpt lat="47.50413" lon="6.76687">
        <ele>399.3</ele>
        <time>2016-01-10T09:03:52.000Z</time>
      </trkpt>
      <trkpt lat="47.50409" lon="6.76688">
        <ele>399.3</ele>
        <time>2016-01-10T09:03:53.000Z</time>
      </trkpt>
      <trkpt lat="47.50406" lon="6.76689">
        <ele>399</ele>
        <time>2016-01-10T09:03:54.000Z</time>
      </trkpt>
      <trkpt lat="47.50402" lon="6.76691">
        <ele>399.1</ele>
        <time>2016-01-10T09:03:55.000Z</time>
      </trkpt>
      <trkpt lat="47.50398" lon="6.76693">
        <ele>398.9</ele>
        <time>2016-01-10T09:03:56.000Z</time>
      </trkpt>
      <trkpt lat="47.50395" lon="6.76695">
        <ele>399.1</ele>
        <time>2016-01-10T09:03:57.000Z</time>
      </trkpt>
      <trkpt lat="47.50391" lon="6.76697">
        <ele>399.2</ele>
        <time>2016-01-10T09:03:58.000Z</time>
      </trkpt>
      <trkpt lat="47.50388" lon="6.767">
        <ele>399.2</ele>
        <time>2016-01-10T09:03:59.000Z</time>
      </trkpt>
      <trkpt lat="47.50384" lon="6.76702">
        <ele>398.7</ele>
        <time>2016-01-10T09:04:00.000Z</time>
      </trkpt>
      <trkpt lat="47.50381" lon="6.76703">
        <ele>398.8</ele>
        <time>2016-01-10T09:04:01.000Z</time>
      </trkpt>
      <trkpt lat="47.50377" lon="6.76705">
        <ele>398.8</ele>
        <time>2016-01-10T09:04:02.000Z</time>
      </trkpt>
      <trkpt lat="47.50374" lon="6.76707">
        <ele>399.2</ele>
        <time>2016-01-10T09:04:03.000Z</time>
      </trkpt>
      <trkpt lat="47.5037" lon="6.76708">
        <ele>399.2</ele>
        <time>2016-01-10T09:04:04.000Z</time>
      </trkpt>
      <trkpt lat="47.50367" lon="6.76709">
        <ele>399</ele>
        <time>2016-01-10T09:04:05.000Z</time>
      </trkpt>
      <trkpt lat="47.50363" lon="6.7671">
        <ele>398.8</ele>
        <time>2016-01-10T09:04:06.000Z</time>
      </trkpt>
      <trkpt lat="47.5036" lon="6.76711">
        <ele>398.9</ele>
        <time>2016-01-10T09:04:07.000Z</time>
      </trkpt>
      <trkpt lat="47.50357" lon="6.76712">
        <ele>398.8</ele>
        <time>2016-01-10T09:04:08.000Z</time>
      </trkpt>
      <trkpt lat="47.50353" lon="6.76713">
        <ele>398.8</ele>
        <time>2016-01-10T09:04:09.000Z</time>
      </trkpt>
      <trkpt lat="47.5035" lon="6.76714">
        <ele>398.6</ele>
        <time>2016-01-10T09:04:10.000Z</time>
      </trkpt>
      <trkpt lat="47.50347" lon="6.76715">
        <ele>398.7</ele>
        <time>2016-01-10T09:04:11.000Z</time>
      </trkpt>
      <trkpt lat="47.50344" lon="6.76716">
        <ele>399.1</ele>
        <time>2016-01-10T09:04:12.000Z</time>
      </trkpt>
      <trkpt lat="47.5034" lon="6.76718">
        <ele>399.4</ele>
        <time>2016-01-10T09:04:13.000Z</time>
      </trkpt>
      <trkpt lat="47.50337" lon="6.7672">
        <ele>399.1</ele>
        <time>2016-01-10T09:04:14.000Z</time>
      </trkpt>
      <trkpt lat="47.50334" lon="6.76721">
        <ele>399.2</ele>
        <time>2016-01-10T09:04:15.000Z</time>
      </trkpt>
      <trkpt lat="47.5033" lon="6.76723">
        <ele>399.1</ele>
        <time>2016-01-10T09:04:16.000Z</time>
      </trkpt>
      <trkpt lat="47.50327" lon="6.76724">
        <ele>398.8</ele>
        <time>2016-01-10T09:04:17.000Z</time>
      </trkpt>
      <trkpt lat="47.50324" lon="6.76725">
        <ele>398.8</ele>
        <time>2016-01-10T09:04:18.000Z</time>
      </trkpt>
      <trkpt lat="47.50321" lon="6.76727">
        <ele>398.2</ele>
        <time>2016-01-10T09:04:19.000Z</time>
      </trkpt>
      <trkpt lat="47.50318" lon="6.76729">
        <ele>397.8</ele>
        <time>2016-01-10T09:04:20.000Z</time>
      </trkpt>
      <trkpt lat="47.50315" lon="6.7673">
        <ele>397.7</ele>
        <time>2016-01-10T09:04:21.000Z</time>
      </trkpt>
      <trkpt lat="47.50311" lon="6.76732">
        <ele>398</ele>
        <time>2016-01-10T09:04:22.000Z</time>
      </trkpt>
      <trkpt lat="47.50308" lon="6.76734">
        <ele>398.2</ele>
        <time>2016-01-10T09:04:23.000Z</time>
      </trkpt>
      <trkpt lat="47.50304" lon="6.76735">
        <ele>398.4</ele>
        <time>2016-01-10T09:04:24.000Z</time>
      </trkpt>
      <trkpt lat="47.503" lon="6.76736">
        <ele>398</ele>
        <time>2016-01-10T09:04:25.000Z</time>
      </trkpt>
      <trkpt lat="47.50297" lon="6.76736">
        <ele>397</ele>
        <time>2016-01-10T09:04:26.000Z</time>
      </trkpt>
      <trkpt lat="47.50294" lon="6.76736">
        <ele>396.6</ele>
        <time>2016-01-10T09:04:27.000Z</time>
      </trkpt>
      <trkpt lat="47.50291" lon="6.76736">
        <ele>397.3</ele>
        <time>2016-01-10T09:04:28.000Z</time>
      </trkpt>
      <trkpt lat="47.50287" lon="6.76737">
        <ele>397.7</ele>
        <time>2016-01-10T09:04:29.000Z</time>
      </trkpt>
      <trkpt lat="47.50284" lon="6.76738">
        <ele>398.3</ele>
        <time>2016-01-10T09:04:30.000Z</time>
      </trkpt>
      <trkpt lat="47.5028" lon="6.76739">
        <ele>398.5</ele>
        <time>2016-01-10T09:04:31.000Z</time>
      </trkpt>
      <trkpt lat="47.50277" lon="6.76739">
        <ele>398.6</ele>
        <time>2016-01-10T09:04:32.000Z</time>
      </trkpt>
      <trkpt lat="47.50274" lon="6.7674">
        <ele>398.9</ele>
        <time>2016-01-10T09:04:33.000Z</time>
      </trkpt>
      <trkpt lat="47.50271" lon="6.76741">
        <ele>399.6</ele>
        <time>2016-01-10T09:04:34.000Z</time>
      </trkpt>
      <trkpt lat="47.50268" lon="6.76742">
        <ele>399.5</ele>
        <time>2016-01-10T09:04:35.000Z</time>
      </trkpt>
      <trkpt lat="47.50265" lon="6.76743">
        <ele>399.9</ele>
        <time>2016-01-10T09:04:36.000Z</time>
      </trkpt>
      <trkpt lat="47.50262" lon="6.76744">
        <ele>400.1</ele>
        <time>2016-01-10T09:04:37.000Z</time>
      </trkpt>
      <trkpt lat="47.5026" lon="6.76745">
        <ele>400.4</ele>
        <time>2016-01-10T09:04:38.000Z</time>
      </trkpt>
      <trkpt lat="47.50258" lon="6.76746">
        <ele>399.8</ele>
        <time>2016-01-10T09:04:39.000Z</time>
      </trkpt>
      <trkpt lat="47.50255" lon="6.76746">
        <ele>399.5</ele>
        <time>2016-01-10T09:04:40.000Z</time>
      </trkpt>
      <trkpt lat="47.50253" lon="6.76746">
        <ele>399.9</ele>
        <time>2016-01-10T09:04:41.000Z</time>
      </trkpt>
      <trkpt lat="47.50251" lon="6.76745">
        <ele>399.9</ele>
        <time>2016-01-10T09:04:42.000Z</time>
      </trkpt>
      <trkpt lat="47.50249" lon="6.76743">
        <ele>400.3</ele>
        <time>2016-01-10T09:04:43.000Z</time>
      </trkpt>
      <trkpt lat="47.50247" lon="6.76737">
        <ele>399.6</ele>
        <time>2016-01-10T09:04:45.000Z</time>
      </trkpt>
      <trkpt lat="47.50246" lon="6.76735">
        <ele>399.6</ele>
        <time>2016-01-10T09:04:46.000Z</time>
      </trkpt>
      <trkpt lat="47.50244" lon="6.76729">
        <ele>400.1</ele>
        <time>2016-01-10T09:04:48.000Z</time>
      </trkpt>
      <trkpt lat="47.50243" lon="6.76727">
        <ele>399.8</ele>
        <time>2016-01-10T09:04:49.000Z</time>
      </trkpt>
      <trkpt lat="47.50242" lon="6.76724">
        <ele>398.7</ele>
        <time>2016-01-10T09:04:50.000Z</time>
      </trkpt>
      <trkpt lat="47.5024" lon="6.7672">
        <ele>398.5</ele>
        <time>2016-01-10T09:04:51.000Z</time>
      </trkpt>
      <trkpt lat="47.50238" lon="6.76717">
        <ele>399.1</ele>
        <time>2016-01-10T09:04:52.000Z</time>
      </trkpt>
      <trkpt lat="47.50237" lon="6.76714">
        <ele>400.4</ele>
        <time>2016-01-10T09:04:53.000Z</time>
      </trkpt>
      <trkpt lat="47.50235" lon="6.76711">
        <ele>400.6</ele>
        <time>2016-01-10T09:04:54.000Z</time>
      </trkpt>
      <trkpt lat="47.50233" lon="6.76708">
        <ele>401.1</ele>
        <time>2016-01-10T09:04:55.000Z</time>
      </trkpt>
      <trkpt lat="47.50231" lon="6.76705">
        <ele>401.3</ele>
        <time>2016-01-10T09:04:56.000Z</time>
      </trkpt>
      <trkpt lat="47.50229" lon="6.76702">
        <ele>400.9</ele>
        <time>2016-01-10T09:04:57.000Z</time>
      </trkpt>
      <trkpt lat="47.50228" lon="6.76699">
        <ele>401.4</ele>
        <time>2016-01-10T09:04:58.000Z</time>
      </trkpt>
      <trkpt lat="47.50227" lon="6.76695">
        <ele>402</ele>
        <time>2016-01-10T09:04:59.000Z</time>
      </trkpt>
      <trkpt lat="47.50225" lon="6.76692">
        <ele>402.2</ele>
        <time>2016-01-10T09:05:00.000Z</time>
      </trkpt>
      <trkpt lat="47.50224" lon="6.76688">
        <ele>402.8</ele>
        <time>2016-01-10T09:05:01.000Z</time>
      </trkpt>
      <trkpt lat="47.50222" lon="6.76685">
        <ele>403.1</ele>
        <time>2016-01-10T09:05:02.000Z</time>
      </trkpt>
      <trkpt lat="47.50221" lon="6.76681">
        <ele>403.1</ele>
        <time>2016-01-10T09:05:03.000Z</time>
      </trkpt>
      <trkpt lat="47.5022" lon="6.76677">
        <ele>402.6</ele>
        <time>2016-01-10T09:05:04.000Z</time>
      </trkpt>
      <trkpt lat="47.50219" lon="6.76672">
        <ele>402.7</ele>
        <time>2016-01-10T09:05:05.000Z</time>
      </trkpt>
      <trkpt lat="47.50218" lon="6.76668">
        <ele>402.5</ele>
        <time>2016-01-10T09:05:06.000Z</time>
      </trkpt>
      <trkpt lat="47.50216" lon="6.76664">
        <ele>402.1</ele>
        <time>2016-01-10T09:05:07.000Z</time>
      </trkpt>
      <trkpt lat="47.50215" lon="6.7666">
        <ele>402.2</ele>
        <time>2016-01-10T09:05:08.000Z</time>
      </trkpt>
      <trkpt lat="47.50214" lon="6.76655">
        <ele>402.4</ele>
        <time>2016-01-10T09:05:09.000Z</time>
      </trkpt>
      <trkpt lat="47.50212" lon="6.76651">
        <ele>402.1</ele>
        <time>2016-01-10T09:05:10.000Z</time>
      </trkpt>
      <trkpt lat="47.50211" lon="6.76647">
        <ele>402.2</ele>
        <time>2016-01-10T09:05:11.000Z</time>
      </trkpt>
      <trkpt lat="47.50209" lon="6.76643">
        <ele>402.4</ele>
        <time>2016-01-10T09:05:12.000Z</time>
      </trkpt>
      <trkpt lat="47.50208" lon="6.76639">
        <ele>402.5</ele>
        <time>2016-01-10T09:05:13.000Z</time>
      </trkpt>
      <trkpt lat="47.50207" lon="6.76635">
        <ele>402.4</ele>
        <time>2016-01-10T09:05:14.000Z</time>
      </trkpt>
      <trkpt lat="47.50206" lon="6.76631">
        <ele>402.1</ele>
        <time>2016-01-10T09:05:15.000Z</time>
      </trkpt>
      <trkpt lat="47.50204" lon="6.76627">
        <ele>402.1</ele>
        <time>2016-01-10T09:05:16.000Z</time>
      </trkpt>
      <trkpt lat="47.50203" lon="6.76623">
        <ele>402.1</ele>
        <time>2016-01-10T09:05:17.000Z</time>
      </trkpt>
      <trkpt lat="47.50201" lon="6.76619">
        <ele>401.8</ele>
        <time>2016-01-10T09:05:18.000Z</time>
      </trkpt>
      <trkpt lat="47.502" lon="6.76615">
        <ele>401.5</ele>
        <time>2016-01-10T09:05:19.000Z</time>
      </trkpt>
      <trkpt lat="47.50198" lon="6.7661">
        <ele>401.2</ele>
        <time>2016-01-10T09:05:20.000Z</time>
      </trkpt>
      <trkpt lat="47.50197" lon="6.76607">
        <ele>401.3</ele>
        <time>2016-01-10T09:05:21.000Z</time>
      </trkpt>
      <trkpt lat="47.50196" lon="6.76603">
        <ele>401.3</ele>
        <time>2016-01-10T09:05:22.000Z</time>
      </trkpt>
      <trkpt lat="47.50196" lon="6.766">
        <ele>401</ele>
        <time>2016-01-10T09:05:23.000Z</time>
      </trkpt>
      <trkpt lat="47.50196" lon="6.76594">
        <ele>400.4</ele>
        <time>2016-01-10T09:05:25.000Z</time>
      </trkpt>
      <trkpt lat="47.50196" lon="6.76592">
        <ele>399.7</ele>
        <time>2016-01-10T09:05:26.000Z</time>
      </trkpt>
      <trkpt lat="47.50196" lon="6.76587">
        <ele>397.1</ele>
        <time>2016-01-10T09:05:28.000Z</time>
      </trkpt>
      <trkpt lat="47.50195" lon="6.76584">
        <ele>396.3</ele>
        <time>2016-01-10T09:05:29.000Z</time>
      </trkpt>
      <trkpt lat="47.50195" lon="6.76577">
        <ele>396</ele>
        <time>2016-01-10T09:05:31.000Z</time>
      </trkpt>
      <trkpt lat="47.50196" lon="6.76574">
        <ele>395.9</ele>
        <time>2016-01-10T09:05:32.000Z</time>
      </trkpt>
      <trkpt lat="47.50198" lon="6.76569">
        <ele>396</ele>
        <time>2016-01-10T09:05:34.000Z</time>
      </trkpt>
      <trkpt lat="47.502" lon="6.76569">
        <ele>394.3</ele>
        <time>2016-01-10T09:05:35.000Z</time>
      </trkpt>
      <trkpt lat="47.50202" lon="6.76569">
        <ele>395.1</ele>
        <time>2016-01-10T09:05:36.000Z</time>
      </trkpt>
      <trkpt lat="47.50204" lon="6.76569">
        <ele>394.8</ele>
        <time>2016-01-10T09:05:37.000Z</time>
      </trkpt>
      <trkpt lat="47.50208" lon="6.76568">
        <ele>388.3</ele>
        <time>2016-01-10T09:05:39.000Z</time>
      </trkpt>
      <trkpt lat="47.50209" lon="6.76567">
        <ele>391.5</ele>
        <time>2016-01-10T09:05:40.000Z</time>
      </trkpt>
      <trkpt lat="47.50209" lon="6.76562">
        <ele>394.3</ele>
        <time>2016-01-10T09:05:43.000Z</time>
      </trkpt>
      <trkpt lat="47.50209" lon="6.76558">
        <ele>394.2</ele>
        <time>2016-01-10T09:05:44.000Z</time>
      </trkpt>
      <trkpt lat="47.50211" lon="6.76555">
        <ele>392.1</ele>
        <time>2016-01-10T09:05:45.000Z</time>
      </trkpt>
      <trkpt lat="47.50213" lon="6.76551">
        <ele>391.5</ele>
        <time>2016-01-10T09:05:46.000Z</time>
      </trkpt>
      <trkpt lat="47.50216" lon="6.76547">
        <ele>391.3</ele>
        <time>2016-01-10T09:05:47.000Z</time>
      </trkpt>
      <trkpt lat="47.50219" lon="6.76544">
        <ele>391.2</ele>
        <time>2016-01-10T09:05:48.000Z</time>
      </trkpt>
      <trkpt lat="47.50221" lon="6.76541">
        <ele>391.4</ele>
        <time>2016-01-10T09:05:49.000Z</time>
      </trkpt>
      <trkpt lat="47.50222" lon="6.76537">
        <ele>391.3</ele>
        <time>2016-01-10T09:05:50.000Z</time>
      </trkpt>
      <trkpt lat="47.50221" lon="6.76531">
        <ele>391.7</ele>
        <time>2016-01-10T09:05:51.000Z</time>
      </trkpt>
      <trkpt lat="47.5022" lon="6.76524">
        <ele>392.3</ele>
        <time>2016-01-10T09:05:52.000Z</time>
      </trkpt>
      <trkpt lat="47.50218" lon="6.76516">
        <ele>392.4</ele>
        <time>2016-01-10T09:05:53.000Z</time>
      </trkpt>
      <trkpt lat="47.50209" lon="6.765">
        <ele>392.7</ele>
        <time>2016-01-10T09:05:54.000Z</time>
      </trkpt>
      <trkpt lat="47.50206" lon="6.76493">
        <ele>392.4</ele>
        <time>2016-01-10T09:05:55.000Z</time>
      </trkpt>
      <trkpt lat="47.50204" lon="6.76486">
        <ele>392.6</ele>
        <time>2016-01-10T09:05:56.000Z</time>
      </trkpt>
      <trkpt lat="47.50201" lon="6.76478">
        <ele>393.1</ele>
        <time>2016-01-10T09:05:57.000Z</time>
      </trkpt>
      <trkpt lat="47.50199" lon="6.76467">
        <ele>394.4</ele>
        <time>2016-01-10T09:05:58.000Z</time>
      </trkpt>
      <trkpt lat="47.50195" lon="6.76456">
        <ele>390.8</ele>
        <time>2016-01-10T09:05:59.000Z</time>
      </trkpt>
      <trkpt lat="47.50192" lon="6.76448">
        <ele>390.6</ele>
        <time>2016-01-10T09:06:00.000Z</time>
      </trkpt>
      <trkpt lat="47.50188" lon="6.76437">
        <ele>392.5</ele>
        <time>2016-01-10T09:06:01.000Z</time>
      </trkpt>
      <trkpt lat="47.50185" lon="6.76426">
        <ele>393.4</ele>
        <time>2016-01-10T09:06:02.000Z</time>
      </trkpt>
      <trkpt lat="47.50182" lon="6.76416">
        <ele>393.4</ele>
        <time>2016-01-10T09:06:03.000Z</time>
      </trkpt>
      <trkpt lat="47.50181" lon="6.76406">
        <ele>392.9</ele>
        <time>2016-01-10T09:06:04.000Z</time>
      </trkpt>
      <trkpt lat="47.50177" lon="6.76397">
        <ele>393.5</ele>
        <time>2016-01-10T09:06:05.000Z</time>
      </trkpt>
      <trkpt lat="47.50173" lon="6.76388">
        <ele>393.4</ele>
        <time>2016-01-10T09:06:06.000Z</time>
      </trkpt>
      <trkpt lat="47.5017" lon="6.76378">
        <ele>393.3</ele>
        <time>2016-01-10T09:06:07.000Z</time>
      </trkpt>
      <trkpt lat="47.50167" lon="6.76367">
        <ele>393.1</ele>
        <time>2016-01-10T09:06:08.000Z</time>
      </trkpt>
      <trkpt lat="47.50164" lon="6.76358">
        <ele>393.7</ele>
        <time>2016-01-10T09:06:09.000Z</time>
      </trkpt>
      <trkpt lat="47.50161" lon="6.76347">
        <ele>393.2</ele>
        <time>2016-01-10T09:06:10.000Z</time>
      </trkpt>
      <trkpt lat="47.50158" lon="6.76337">
        <ele>393.1</ele>
        <time>2016-01-10T09:06:11.000Z</time>
      </trkpt>
      <trkpt lat="47.50155" lon="6.76327">
        <ele>393.7</ele>
        <time>2016-01-10T09:06:12.000Z</time>
      </trkpt>
      <trkpt lat="47.50151" lon="6.76317">
        <ele>394</ele>
        <time>2016-01-10T09:06:13.000Z</time>
      </trkpt>
      <trkpt lat="47.5015" lon="6.76308">
        <ele>394.6</ele>
        <time>2016-01-10T09:06:14.000Z</time>
      </trkpt>
      <trkpt lat="47.50147" lon="6.76298">
        <ele>394.5</ele>
        <time>2016-01-10T09:06:15.000Z</time>
      </trkpt>
      <trkpt lat="47.50145" lon="6.76285">
        <ele>395.1</ele>
        <time>2016-01-10T09:06:16.000Z</time>
      </trkpt>
      <trkpt lat="47.50142" lon="6.76275">
        <ele>394.4</ele>
        <time>2016-01-10T09:06:17.000Z</time>
      </trkpt>
      <trkpt lat="47.5014" lon="6.76265">
        <ele>395</ele>
        <time>2016-01-10T09:06:18.000Z</time>
      </trkpt>
      <trkpt lat="47.50138" lon="6.76255">
        <ele>394.6</ele>
        <time>2016-01-10T09:06:19.000Z</time>
      </trkpt>
      <trkpt lat="47.50135" lon="6.76243">
        <ele>394.6</ele>
        <time>2016-01-10T09:06:20.000Z</time>
      </trkpt>
      <trkpt lat="47.50133" lon="6.76232">
        <ele>394.3</ele>
        <time>2016-01-10T09:06:21.000Z</time>
      </trkpt>
      <trkpt lat="47.50131" lon="6.7622">
        <ele>394.1</ele>
        <time>2016-01-10T09:06:22.000Z</time>
      </trkpt>
      <trkpt lat="47.50129" lon="6.76208">
        <ele>394.5</ele>
        <time>2016-01-10T09:06:23.000Z</time>
      </trkpt>
      <trkpt lat="47.50127" lon="6.76198">
        <ele>394.5</ele>
        <time>2016-01-10T09:06:24.000Z</time>
      </trkpt>
      <trkpt lat="47.50124" lon="6.76187">
        <ele>393.9</ele>
        <time>2016-01-10T09:06:25.000Z</time>
      </trkpt>
      <trkpt lat="47.50121" lon="6.76176">
        <ele>392.9</ele>
        <time>2016-01-10T09:06:26.000Z</time>
      </trkpt>
      <trkpt lat="47.50119" lon="6.76164">
        <ele>395.6</ele>
        <time>2016-01-10T09:06:27.000Z</time>
      </trkpt>
      <trkpt lat="47.50118" lon="6.76154">
        <ele>396.1</ele>
        <time>2016-01-10T09:06:28.000Z</time>
      </trkpt>
      <trkpt lat="47.50116" lon="6.76144">
        <ele>396.3</ele>
        <time>2016-01-10T09:06:29.000Z</time>
      </trkpt>
      <trkpt lat="47.50114" lon="6.76132">
        <ele>395.4</ele>
        <time>2016-01-10T09:06:30.000Z</time>
      </trkpt>
      <trkpt lat="47.5011" lon="6.7612">
        <ele>395.3</ele>
        <time>2016-01-10T09:06:31.000Z</time>
      </trkpt>
      <trkpt lat="47.50109" lon="6.76106">
        <ele>394.2</ele>
        <time>2016-01-10T09:06:32.000Z</time>
      </trkpt>
      <trkpt lat="47.50107" lon="6.76093">
        <ele>394</ele>
        <time>2016-01-10T09:06:33.000Z</time>
      </trkpt>
      <trkpt lat="47.50104" lon="6.76082">
        <ele>394.4</ele>
        <time>2016-01-10T09:06:34.000Z</time>
      </trkpt>
      <trkpt lat="47.50102" lon="6.76071">
        <ele>393.5</ele>
        <time>2016-01-10T09:06:35.000Z</time>
      </trkpt>
      <trkpt lat="47.50099" lon="6.76058">
        <ele>393.5</ele>
        <time>2016-01-10T09:06:36.000Z</time>
      </trkpt>
      <trkpt lat="47.50096" lon="6.76039">
        <ele>392.4</ele>
        <time>2016-01-10T09:06:37.000Z</time>
      </trkpt>
      <trkpt lat="47.50094" lon="6.76023">
        <ele>392.1</ele>
        <time>2016-01-10T09:06:38.000Z</time>
      </trkpt>
      <trkpt lat="47.50092" lon="6.76013">
        <ele>392.6</ele>
        <time>2016-01-10T09:06:39.000Z</time>
      </trkpt>
      <trkpt lat="47.50089" lon="6.76003">
        <ele>392.7</ele>
        <time>2016-01-10T09:06:40.000Z</time>
      </trkpt>
      <trkpt lat="47.50086" lon="6.75993">
        <ele>393.3</ele>
        <time>2016-01-10T09:06:41.000Z</time>
      </trkpt>
      <trkpt lat="47.50083" lon="6.75986">
        <ele>393.1</ele>
        <time>2016-01-10T09:06:42.000Z</time>
      </trkpt>
      <trkpt lat="47.50079" lon="6.7598">
        <ele>393.3</ele>
        <time>2016-01-10T09:06:43.000Z</time>
      </trkpt>
      <trkpt lat="47.50076" lon="6.75974">
        <ele>393.2</ele>
        <time>2016-01-10T09:06:44.000Z</time>
      </trkpt>
      <trkpt lat="47.50071" lon="6.75966">
        <ele>392.6</ele>
        <time>2016-01-10T09:06:45.000Z</time>
      </trkpt>
      <trkpt lat="47.50066" lon="6.75955">
        <ele>392.4</ele>
        <time>2016-01-10T09:06:46.000Z</time>
      </trkpt>
      <trkpt lat="47.50063" lon="6.75948">
        <ele>392.3</ele>
        <time>2016-01-10T09:06:47.000Z</time>
      </trkpt>
      <trkpt lat="47.50059" lon="6.75941">
        <ele>392.1</ele>
        <time>2016-01-10T09:06:48.000Z</time>
      </trkpt>
      <trkpt lat="47.50054" lon="6.75933">
        <ele>392</ele>
        <time>2016-01-10T09:06:49.000Z</time>
      </trkpt>
      <trkpt lat="47.50048" lon="6.75926">
        <ele>392.3</ele>
        <time>2016-01-10T09:06:50.000Z</time>
      </trkpt>
      <trkpt lat="47.50042" lon="6.75919">
        <ele>395.3</ele>
        <time>2016-01-10T09:06:51.000Z</time>
      </trkpt>
      <trkpt lat="47.50035" lon="6.75911">
        <ele>396.4</ele>
        <time>2016-01-10T09:06:52.000Z</time>
      </trkpt>
      <trkpt lat="47.50033" lon="6.75899">
        <ele>398.2</ele>
        <time>2016-01-10T09:06:53.000Z</time>
      </trkpt>
      <trkpt lat="47.50027" lon="6.7589">
        <ele>395.4</ele>
        <time>2016-01-10T09:06:54.000Z</time>
      </trkpt>
      <trkpt lat="47.50022" lon="6.75882">
        <ele>393.9</ele>
        <time>2016-01-10T09:06:55.000Z</time>
      </trkpt>
      <trkpt lat="47.50016" lon="6.75874">
        <ele>393.1</ele>
        <time>2016-01-10T09:06:56.000Z</time>
      </trkpt>
      <trkpt lat="47.5001" lon="6.75868">
        <ele>393.1</ele>
        <time>2016-01-10T09:06:57.000Z</time>
      </trkpt>
      <trkpt lat="47.50006" lon="6.75857">
        <ele>391.7</ele>
        <time>2016-01-10T09:06:58.000Z</time>
      </trkpt>
      <trkpt lat="47.50002" lon="6.75847">
        <ele>390.4</ele>
        <time>2016-01-10T09:06:59.000Z</time>
      </trkpt>
      <trkpt lat="47.49999" lon="6.75835">
        <ele>391.3</ele>
        <time>2016-01-10T09:07:00.000Z</time>
      </trkpt>
      <trkpt lat="47.49994" lon="6.75826">
        <ele>389.4</ele>
        <time>2016-01-10T09:07:01.000Z</time>
      </trkpt>
      <trkpt lat="47.49988" lon="6.75819">
        <ele>388.3</ele>
        <time>2016-01-10T09:07:02.000Z</time>
      </trkpt>
      <trkpt lat="47.49983" lon="6.7581">
        <ele>386.4</ele>
        <time>2016-01-10T09:07:03.000Z</time>
      </trkpt>
      <trkpt lat="47.49978" lon="6.75801">
        <ele>385</ele>
        <time>2016-01-10T09:07:04.000Z</time>
      </trkpt>
      <trkpt lat="47.49973" lon="6.75793">
        <ele>384.5</ele>
        <time>2016-01-10T09:07:05.000Z</time>
      </trkpt>
      <trkpt lat="47.49968" lon="6.75783">
        <ele>383.6</ele>
        <time>2016-01-10T09:07:06.000Z</time>
      </trkpt>
      <trkpt lat="47.49964" lon="6.75774">
        <ele>383.5</ele>
        <time>2016-01-10T09:07:07.000Z</time>
      </trkpt>
      <trkpt lat="47.49958" lon="6.7577">
        <ele>382.8</ele>
        <time>2016-01-10T09:07:08.000Z</time>
      </trkpt>
      <trkpt lat="47.49951" lon="6.75766">
        <ele>383.5</ele>
        <time>2016-01-10T09:07:09.000Z</time>
      </trkpt>
      <trkpt lat="47.49945" lon="6.75762">
        <ele>383.5</ele>
        <time>2016-01-10T09:07:10.000Z</time>
      </trkpt>
      <trkpt lat="47.49941" lon="6.75752">
        <ele>382.6</ele>
        <time>2016-01-10T09:07:11.000Z</time>
      </trkpt>
      <trkpt lat="47.49935" lon="6.75743">
        <ele>381.9</ele>
        <time>2016-01-10T09:07:12.000Z</time>
      </trkpt>
      <trkpt lat="47.49929" lon="6.75738">
        <ele>381.9</ele>
        <time>2016-01-10T09:07:13.000Z</time>
      </trkpt>
      <trkpt lat="47.49923" lon="6.75731">
        <ele>380.5</ele>
        <time>2016-01-10T09:07:14.000Z</time>
      </trkpt>
      <trkpt lat="47.49916" lon="6.75726">
        <ele>378.7</ele>
        <time>2016-01-10T09:07:15.000Z</time>
      </trkpt>
      <trkpt lat="47.4991" lon="6.75722">
        <ele>379</ele>
        <time>2016-01-10T09:07:16.000Z</time>
      </trkpt>
      <trkpt lat="47.49904" lon="6.7572">
        <ele>378.8</ele>
        <time>2016-01-10T09:07:17.000Z</time>
      </trkpt>
      <trkpt lat="47.49897" lon="6.7572">
        <ele>378.5</ele>
        <time>2016-01-10T09:07:18.000Z</time>
      </trkpt>
      <trkpt lat="47.49889" lon="6.75722">
        <ele>378.2</ele>
        <time>2016-01-10T09:07:19.000Z</time>
      </trkpt>
      <trkpt lat="47.49883" lon="6.75723">
        <ele>378</ele>
        <time>2016-01-10T09:07:20.000Z</time>
      </trkpt>
      <trkpt lat="47.49875" lon="6.75726">
        <ele>377.8</ele>
        <time>2016-01-10T09:07:21.000Z</time>
      </trkpt>
      <trkpt lat="47.49867" lon="6.75727">
        <ele>377.2</ele>
        <time>2016-01-10T09:07:22.000Z</time>
      </trkpt>
      <trkpt lat="47.4986" lon="6.75727">
        <ele>376.9</ele>
        <time>2016-01-10T09:07:23.000Z</time>
      </trkpt>
      <trkpt lat="47.49851" lon="6.75727">
        <ele>377</ele>
        <time>2016-01-10T09:07:24.000Z</time>
      </trkpt>
      <trkpt lat="47.49843" lon="6.75729">
        <ele>376.6</ele>
        <time>2016-01-10T09:07:25.000Z</time>
      </trkpt>
      <trkpt lat="47.49837" lon="6.75731">
        <ele>375.2</ele>
        <time>2016-01-10T09:07:26.000Z</time>
      </trkpt>
      <trkpt lat="47.49829" lon="6.75734">
        <ele>374.8</ele>
        <time>2016-01-10T09:07:27.000Z</time>
      </trkpt>
      <trkpt lat="47.49821" lon="6.75736">
        <ele>370.6</ele>
        <time>2016-01-10T09:07:28.000Z</time>
      </trkpt>
      <trkpt lat="47.49814" lon="6.75739">
        <ele>369.4</ele>
        <time>2016-01-10T09:07:29.000Z</time>
      </trkpt>
      <trkpt lat="47.49805" lon="6.75741">
        <ele>368.9</ele>
        <time>2016-01-10T09:07:30.000Z</time>
      </trkpt>
      <trkpt lat="47.49798" lon="6.75744">
        <ele>368.7</ele>
        <time>2016-01-10T09:07:31.000Z</time>
      </trkpt>
      <trkpt lat="47.49787" lon="6.75748">
        <ele>368</ele>
        <time>2016-01-10T09:07:32.000Z</time>
      </trkpt>
      <trkpt lat="47.49779" lon="6.75749">
        <ele>366.3</ele>
        <time>2016-01-10T09:07:33.000Z</time>
      </trkpt>
      <trkpt lat="47.4977" lon="6.75753">
        <ele>365.5</ele>
        <time>2016-01-10T09:07:34.000Z</time>
      </trkpt>
      <trkpt lat="47.49762" lon="6.75755">
        <ele>363.7</ele>
        <time>2016-01-10T09:07:35.000Z</time>
      </trkpt>
      <trkpt lat="47.49754" lon="6.75759">
        <ele>363.8</ele>
        <time>2016-01-10T09:07:36.000Z</time>
      </trkpt>
      <trkpt lat="47.49745" lon="6.75761">
        <ele>362.5</ele>
        <time>2016-01-10T09:07:37.000Z</time>
      </trkpt>
      <trkpt lat="47.49737" lon="6.75765">
        <ele>362.4</ele>
        <time>2016-01-10T09:07:38.000Z</time>
      </trkpt>
      <trkpt lat="47.49729" lon="6.75768">
        <ele>361.9</ele>
        <time>2016-01-10T09:07:39.000Z</time>
      </trkpt>
      <trkpt lat="47.49721" lon="6.75771">
        <ele>360.4</ele>
        <time>2016-01-10T09:07:40.000Z</time>
      </trkpt>
      <trkpt lat="47.49713" lon="6.75774">
        <ele>360.6</ele>
        <time>2016-01-10T09:07:41.000Z</time>
      </trkpt>
      <trkpt lat="47.49705" lon="6.75776">
        <ele>358.5</ele>
        <time>2016-01-10T09:07:42.000Z</time>
      </trkpt>
      <trkpt lat="47.49697" lon="6.75779">
        <ele>358.2</ele>
        <time>2016-01-10T09:07:43.000Z</time>
      </trkpt>
      <trkpt lat="47.49689" lon="6.75782">
        <ele>355.8</ele>
        <time>2016-01-10T09:07:44.000Z</time>
      </trkpt>
      <trkpt lat="47.49681" lon="6.75783">
        <ele>355</ele>
        <time>2016-01-10T09:07:45.000Z</time>
      </trkpt>
      <trkpt lat="47.49673" lon="6.75785">
        <ele>352.3</ele>
        <time>2016-01-10T09:07:46.000Z</time>
      </trkpt>
      <trkpt lat="47.49666" lon="6.75786">
        <ele>351.8</ele>
        <time>2016-01-10T09:07:47.000Z</time>
      </trkpt>
      <trkpt lat="47.49657" lon="6.75788">
        <ele>354.1</ele>
        <time>2016-01-10T09:07:48.000Z</time>
      </trkpt>
      <trkpt lat="47.4965" lon="6.75787">
        <ele>352.9</ele>
        <time>2016-01-10T09:07:49.000Z</time>
      </trkpt>
      <trkpt lat="47.49642" lon="6.75787">
        <ele>352.5</ele>
        <time>2016-01-10T09:07:50.000Z</time>
      </trkpt>
      <trkpt lat="47.49634" lon="6.75786">
        <ele>349.9</ele>
        <time>2016-01-10T09:07:51.000Z</time>
      </trkpt>
      <trkpt lat="47.49626" lon="6.75785">
        <ele>349.3</ele>
        <time>2016-01-10T09:07:52.000Z</time>
      </trkpt>
      <trkpt lat="47.49619" lon="6.75785">
        <ele>349.1</ele>
        <time>2016-01-10T09:07:53.000Z</time>
      </trkpt>
      <trkpt lat="47.49612" lon="6.75785">
        <ele>349.3</ele>
        <time>2016-01-10T09:07:54.000Z</time>
      </trkpt>
      <trkpt lat="47.49605" lon="6.75784">
        <ele>349.5</ele>
        <time>2016-01-10T09:07:55.000Z</time>
      </trkpt>
      <trkpt lat="47.49598" lon="6.75783">
        <ele>349</ele>
        <time>2016-01-10T09:07:56.000Z</time>
      </trkpt>
      <trkpt lat="47.49591" lon="6.75781">
        <ele>346</ele>
        <time>2016-01-10T09:07:57.000Z</time>
      </trkpt>
      <trkpt lat="47.49583" lon="6.75779">
        <ele>345.2</ele>
        <time>2016-01-10T09:07:58.000Z</time>
      </trkpt>
      <trkpt lat="47.49577" lon="6.75779">
        <ele>345</ele>
        <time>2016-01-10T09:07:59.000Z</time>
      </trkpt>
      <trkpt lat="47.4957" lon="6.75779">
        <ele>344.8</ele>
        <time>2016-01-10T09:08:00.000Z</time>
      </trkpt>
      <trkpt lat="47.49565" lon="6.75776">
        <ele>345.6</ele>
        <time>2016-01-10T09:08:01.000Z</time>
      </trkpt>
      <trkpt lat="47.49562" lon="6.75771">
        <ele>344</ele>
        <time>2016-01-10T09:08:02.000Z</time>
      </trkpt>
      <trkpt lat="47.49557" lon="6.75767">
        <ele>341.9</ele>
        <time>2016-01-10T09:08:03.000Z</time>
      </trkpt>
      <trkpt lat="47.49554" lon="6.75762">
        <ele>340.4</ele>
        <time>2016-01-10T09:08:05.000Z</time>
      </trkpt>
      <trkpt lat="47.49554" lon="6.75758">
        <ele>340</ele>
        <time>2016-01-10T09:08:06.000Z</time>
      </trkpt>
      <trkpt lat="47.49555" lon="6.75753">
        <ele>338.6</ele>
        <time>2016-01-10T09:08:07.000Z</time>
      </trkpt>
      <trkpt lat="47.49558" lon="6.75751">
        <ele>337.9</ele>
        <time>2016-01-10T09:08:08.000Z</time>
      </trkpt>
      <trkpt lat="47.49561" lon="6.75748">
        <ele>337.4</ele>
        <time>2016-01-10T09:08:09.000Z</time>
      </trkpt>
      <trkpt lat="47.49564" lon="6.75745">
        <ele>337</ele>
        <time>2016-01-10T09:08:10.000Z</time>
      </trkpt>
      <trkpt lat="47.49567" lon="6.75743">
        <ele>336.9</ele>
        <time>2016-01-10T09:08:11.000Z</time>
      </trkpt>
      <trkpt lat="47.4957" lon="6.7574">
        <ele>336.6</ele>
        <time>2016-01-10T09:08:12.000Z</time>
      </trkpt>
      <trkpt lat="47.49574" lon="6.75736">
        <ele>336.1</ele>
        <time>2016-01-10T09:08:13.000Z</time>
      </trkpt>
      <trkpt lat="47.49578" lon="6.7573">
        <ele>335.4</ele>
        <time>2016-01-10T09:08:14.000Z</time>
      </trkpt>
      <trkpt lat="47.49585" lon="6.75721">
        <ele>334.2</ele>
        <time>2016-01-10T09:08:16.000Z</time>
      </trkpt>
      <trkpt lat="47.49589" lon="6.75715">
        <ele>333.9</ele>
        <time>2016-01-10T09:08:17.000Z</time>
      </trkpt>
      <trkpt lat="47.49592" lon="6.75709">
        <ele>333.4</ele>
        <time>2016-01-10T09:08:18.000Z</time>
      </trkpt>
      <trkpt lat="47.49593" lon="6.75701">
        <ele>333.1</ele>
        <time>2016-01-10T09:08:19.000Z</time>
      </trkpt>
      <trkpt lat="47.49593" lon="6.75693">
        <ele>332.9</ele>
        <time>2016-01-10T09:08:20.000Z</time>
      </trkpt>
      <trkpt lat="47.49592" lon="6.75686">
        <ele>332.4</ele>
        <time>2016-01-10T09:08:21.000Z</time>
      </trkpt>
      <trkpt lat="47.49588" lon="6.7568">
        <ele>332</ele>
        <time>2016-01-10T09:08:22.000Z</time>
      </trkpt>
      <trkpt lat="47.49585" lon="6.75674">
        <ele>331.6</ele>
        <time>2016-01-10T09:08:23.000Z</time>
      </trkpt>
      <trkpt lat="47.49581" lon="6.75668">
        <ele>331.3</ele>
        <time>2016-01-10T09:08:24.000Z</time>
      </trkpt>
      <trkpt lat="47.49576" lon="6.75663">
        <ele>331.6</ele>
        <time>2016-01-10T09:08:25.000Z</time>
      </trkpt>
      <trkpt lat="47.4957" lon="6.75664">
        <ele>330.4</ele>
        <time>2016-01-10T09:08:26.000Z</time>
      </trkpt>
      <trkpt lat="47.49566" lon="6.75668">
        <ele>330.2</ele>
        <time>2016-01-10T09:08:27.000Z</time>
      </trkpt>
      <trkpt lat="47.49562" lon="6.75673">
        <ele>329.5</ele>
        <time>2016-01-10T09:08:28.000Z</time>
      </trkpt>
      <trkpt lat="47.49559" lon="6.7568">
        <ele>328.7</ele>
        <time>2016-01-10T09:08:29.000Z</time>
      </trkpt>
      <trkpt lat="47.49555" lon="6.75686">
        <ele>328.3</ele>
        <time>2016-01-10T09:08:30.000Z</time>
      </trkpt>
      <trkpt lat="47.49551" lon="6.75692">
        <ele>328.2</ele>
        <time>2016-01-10T09:08:31.000Z</time>
      </trkpt>
      <trkpt lat="47.49546" lon="6.75698">
        <ele>328.1</ele>
        <time>2016-01-10T09:08:32.000Z</time>
      </trkpt>
      <trkpt lat="47.49543" lon="6.75704">
        <ele>328.5</ele>
        <time>2016-01-10T09:08:33.000Z</time>
      </trkpt>
      <trkpt lat="47.49538" lon="6.75709">
        <ele>328</ele>
        <time>2016-01-10T09:08:34.000Z</time>
      </trkpt>
      <trkpt lat="47.49534" lon="6.75714">
        <ele>327.8</ele>
        <time>2016-01-10T09:08:35.000Z</time>
      </trkpt>
      <trkpt lat="47.49529" lon="6.75718">
        <ele>328</ele>
        <time>2016-01-10T09:08:36.000Z</time>
      </trkpt>
      <trkpt lat="47.49524" lon="6.75722">
        <ele>328</ele>
        <time>2016-01-10T09:08:37.000Z</time>
      </trkpt>
      <trkpt lat="47.4952" lon="6.75726">
        <ele>328.1</ele>
        <time>2016-01-10T09:08:38.000Z</time>
      </trkpt>
      <trkpt lat="47.49515" lon="6.75729">
        <ele>327.8</ele>
        <time>2016-01-10T09:08:39.000Z</time>
      </trkpt>
      <trkpt lat="47.4951" lon="6.75732">
        <ele>327.3</ele>
        <time>2016-01-10T09:08:40.000Z</time>
      </trkpt>
      <trkpt lat="47.49505" lon="6.75734">
        <ele>327.2</ele>
        <time>2016-01-10T09:08:41.000Z</time>
      </trkpt>
      <trkpt lat="47.49499" lon="6.75736">
        <ele>327.6</ele>
        <time>2016-01-10T09:08:42.000Z</time>
      </trkpt>
      <trkpt lat="47.49494" lon="6.75738">
        <ele>326.4</ele>
        <time>2016-01-10T09:08:43.000Z</time>
      </trkpt>
      <trkpt lat="47.49489" lon="6.7574">
        <ele>325.9</ele>
        <time>2016-01-10T09:08:44.000Z</time>
      </trkpt>
      <trkpt lat="47.49484" lon="6.75737">
        <ele>326</ele>
        <time>2016-01-10T09:08:45.000Z</time>
      </trkpt>
      <trkpt lat="47.4948" lon="6.75731">
        <ele>325.4</ele>
        <time>2016-01-10T09:08:46.000Z</time>
      </trkpt>
      <trkpt lat="47.49477" lon="6.75725">
        <ele>325.3</ele>
        <time>2016-01-10T09:08:47.000Z</time>
      </trkpt>
      <trkpt lat="47.49474" lon="6.75718">
        <ele>325.3</ele>
        <time>2016-01-10T09:08:47.999Z</time>
      </trkpt>
      <trkpt lat="47.49472" lon="6.7571">
        <ele>325</ele>
        <time>2016-01-10T09:08:49.000Z</time>
      </trkpt>
      <trkpt lat="47.4947" lon="6.75703">
        <ele>324.6</ele>
        <time>2016-01-10T09:08:50.000Z</time>
      </trkpt>
      <trkpt lat="47.49466" lon="6.75697">
        <ele>324.3</ele>
        <time>2016-01-10T09:08:51.000Z</time>
      </trkpt>
      <trkpt lat="47.49463" lon="6.75693">
        <ele>323.5</ele>
        <time>2016-01-10T09:08:52.000Z</time>
      </trkpt>
      <trkpt lat="47.49458" lon="6.75694">
        <ele>323</ele>
        <time>2016-01-10T09:08:53.000Z</time>
      </trkpt>
      <trkpt lat="47.49453" lon="6.75697">
        <ele>322.3</ele>
        <time>2016-01-10T09:08:54.000Z</time>
      </trkpt>
      <trkpt lat="47.49449" lon="6.75701">
        <ele>322.5</ele>
        <time>2016-01-10T09:08:55.000Z</time>
      </trkpt>
      <trkpt lat="47.49444" lon="6.75699">
        <ele>322.5</ele>
        <time>2016-01-10T09:08:56.000Z</time>
      </trkpt>
      <trkpt lat="47.49442" lon="6.75694">
        <ele>321.9</ele>
        <time>2016-01-10T09:08:57.000Z</time>
      </trkpt>
      <trkpt lat="47.4944" lon="6.75688">
        <ele>321.8</ele>
        <time>2016-01-10T09:08:58.000Z</time>
      </trkpt>
      <trkpt lat="47.49438" lon="6.75683">
        <ele>321.5</ele>
        <time>2016-01-10T09:08:59.000Z</time>
      </trkpt>
      <trkpt lat="47.49436" lon="6.75676">
        <ele>320.8</ele>
        <time>2016-01-10T09:09:00.000Z</time>
      </trkpt>
      <trkpt lat="47.49434" lon="6.75671">
        <ele>320.8</ele>
        <time>2016-01-10T09:09:01.000Z</time>
      </trkpt>
      <trkpt lat="47.49431" lon="6.75668">
        <ele>320.6</ele>
        <time>2016-01-10T09:09:02.000Z</time>
      </trkpt>
      <trkpt lat="47.49425" lon="6.75675">
        <ele>320.6</ele>
        <time>2016-01-10T09:09:03.000Z</time>
      </trkpt>
      <trkpt lat="47.49421" lon="6.75678">
        <ele>320.3</ele>
        <time>2016-01-10T09:09:04.000Z</time>
      </trkpt>
      <trkpt lat="47.49417" lon="6.75681">
        <ele>320</ele>
        <time>2016-01-10T09:09:05.001Z</time>
      </trkpt>
      <trkpt lat="47.49414" lon="6.75684">
        <ele>320.4</ele>
        <time>2016-01-10T09:09:06.000Z</time>
      </trkpt>
      <trkpt lat="47.49409" lon="6.75688">
        <ele>321</ele>
        <time>2016-01-10T09:09:07.000Z</time>
      </trkpt>
      <trkpt lat="47.49405" lon="6.75692">
        <ele>321.4</ele>
        <time>2016-01-10T09:09:08.000Z</time>
      </trkpt>
      <trkpt lat="47.49401" lon="6.75695">
        <ele>321.6</ele>
        <time>2016-01-10T09:09:09.000Z</time>
      </trkpt>
      <trkpt lat="47.49397" lon="6.75697">
        <ele>321.6</ele>
        <time>2016-01-10T09:09:10.000Z</time>
      </trkpt>
      <trkpt lat="47.49393" lon="6.75699">
        <ele>321.2</ele>
        <time>2016-01-10T09:09:11.000Z</time>
      </trkpt>
      <trkpt lat="47.49389" lon="6.75703">
        <ele>321</ele>
        <time>2016-01-10T09:09:12.000Z</time>
      </trkpt>
      <trkpt lat="47.49385" lon="6.75706">
        <ele>320.9</ele>
        <time>2016-01-10T09:09:13.000Z</time>
      </trkpt>
      <trkpt lat="47.49385" lon="6.75707">
        <ele>321.8</ele>
        <time>2016-01-10T09:09:14.000Z</time>
      </trkpt>
      <trkpt lat="47.49383" lon="6.75709">
        <ele>321.9</ele>
        <time>2016-01-10T09:09:15.001Z</time>
      </trkpt>
      <trkpt lat="47.49378" lon="6.7571">
        <ele>321.3</ele>
        <time>2016-01-10T09:09:16.000Z</time>
      </trkpt>
      <trkpt lat="47.49376" lon="6.75711">
        <ele>319.3</ele>
        <time>2016-01-10T09:09:16.999Z</time>
      </trkpt>
      <trkpt lat="47.4937" lon="6.75715">
        <ele>322.1</ele>
        <time>2016-01-10T09:09:18.000Z</time>
      </trkpt>
      <trkpt lat="47.49366" lon="6.75719">
        <ele>321.5</ele>
        <time>2016-01-10T09:09:19.000Z</time>
      </trkpt>
      <trkpt lat="47.49362" lon="6.75722">
        <ele>322</ele>
        <time>2016-01-10T09:09:21.000Z</time>
      </trkpt>
      <trkpt lat="47.49359" lon="6.75724">
        <ele>321.8</ele>
        <time>2016-01-10T09:09:22.000Z</time>
      </trkpt>
      <trkpt lat="47.49356" lon="6.75726">
        <ele>321.5</ele>
        <time>2016-01-10T09:09:23.000Z</time>
      </trkpt>
      <trkpt lat="47.49352" lon="6.75726">
        <ele>320.4</ele>
        <time>2016-01-10T09:09:24.000Z</time>
      </trkpt>
      <trkpt lat="47.49348" lon="6.75729">
        <ele>319.5</ele>
        <time>2016-01-10T09:09:25.000Z</time>
      </trkpt>
      <trkpt lat="47.49343" lon="6.75733">
        <ele>318.2</ele>
        <time>2016-01-10T09:09:26.000Z</time>
      </trkpt>
      <trkpt lat="47.49338" lon="6.75738">
        <ele>317.8</ele>
        <time>2016-01-10T09:09:27.000Z</time>
      </trkpt>
      <trkpt lat="47.49332" lon="6.75743">
        <ele>319.3</ele>
        <time>2016-01-10T09:09:28.000Z</time>
      </trkpt>
      <trkpt lat="47.49327" lon="6.75748">
        <ele>321.1</ele>
        <time>2016-01-10T09:09:29.000Z</time>
      </trkpt>
      <trkpt lat="47.49324" lon="6.75753">
        <ele>322.7</ele>
        <time>2016-01-10T09:09:30.000Z</time>
      </trkpt>
      <trkpt lat="47.4932" lon="6.75757">
        <ele>322.4</ele>
        <time>2016-01-10T09:09:31.000Z</time>
      </trkpt>
      <trkpt lat="47.49315" lon="6.75763">
        <ele>322.6</ele>
        <time>2016-01-10T09:09:32.000Z</time>
      </trkpt>
      <trkpt lat="47.4931" lon="6.75768">
        <ele>322.6</ele>
        <time>2016-01-10T09:09:33.000Z</time>
      </trkpt>
      <trkpt lat="47.49305" lon="6.75774">
        <ele>322.3</ele>
        <time>2016-01-10T09:09:34.000Z</time>
      </trkpt>
      <trkpt lat="47.493" lon="6.7578">
        <ele>322.5</ele>
        <time>2016-01-10T09:09:35.000Z</time>
      </trkpt>
      <trkpt lat="47.49296" lon="6.75785">
        <ele>322.7</ele>
        <time>2016-01-10T09:09:36.000Z</time>
      </trkpt>
      <trkpt lat="47.49292" lon="6.75791">
        <ele>322.9</ele>
        <time>2016-01-10T09:09:37.000Z</time>
      </trkpt>
      <trkpt lat="47.49287" lon="6.75797">
        <ele>323</ele>
        <time>2016-01-10T09:09:38.000Z</time>
      </trkpt>
      <trkpt lat="47.49283" lon="6.75803">
        <ele>322.9</ele>
        <time>2016-01-10T09:09:39.000Z</time>
      </trkpt>
      <trkpt lat="47.49279" lon="6.7581">
        <ele>323.6</ele>
        <time>2016-01-10T09:09:40.000Z</time>
      </trkpt>
      <trkpt lat="47.49276" lon="6.75816">
        <ele>323.8</ele>
        <time>2016-01-10T09:09:41.000Z</time>
      </trkpt>
      <trkpt lat="47.49272" lon="6.75822">
        <ele>323.2</ele>
        <time>2016-01-10T09:09:42.000Z</time>
      </trkpt>
      <trkpt lat="47.49267" lon="6.75828">
        <ele>323.4</ele>
        <time>2016-01-10T09:09:43.000Z</time>
      </trkpt>
      <trkpt lat="47.49263" lon="6.75833">
        <ele>322.8</ele>
        <time>2016-01-10T09:09:44.000Z</time>
      </trkpt>
      <trkpt lat="47.4926" lon="6.7584">
        <ele>322.7</ele>
        <time>2016-01-10T09:09:45.000Z</time>
      </trkpt>
      <trkpt lat="47.49257" lon="6.75846">
        <ele>322.1</ele>
        <time>2016-01-10T09:09:46.000Z</time>
      </trkpt>
      <trkpt lat="47.49255" lon="6.75854">
        <ele>322.2</ele>
        <time>2016-01-10T09:09:47.000Z</time>
      </trkpt>
      <trkpt lat="47.49251" lon="6.75861">
        <ele>321.9</ele>
        <time>2016-01-10T09:09:48.000Z</time>
      </trkpt>
      <trkpt lat="47.49247" lon="6.75868">
        <ele>321.5</ele>
        <time>2016-01-10T09:09:49.000Z</time>
      </trkpt>
      <trkpt lat="47.49243" lon="6.75874">
        <ele>320.7</ele>
        <time>2016-01-10T09:09:50.000Z</time>
      </trkpt>
      <trkpt lat="47.49241" lon="6.7588">
        <ele>320.3</ele>
        <time>2016-01-10T09:09:51.000Z</time>
      </trkpt>
      <trkpt lat="47.4924" lon="6.75886">
        <ele>320.3</ele>
        <time>2016-01-10T09:09:51.999Z</time>
      </trkpt>
      <trkpt lat="47.49234" lon="6.75892">
        <ele>317.1</ele>
        <time>2016-01-10T09:09:53.000Z</time>
      </trkpt>
      <trkpt lat="47.4923" lon="6.75896">
        <ele>315.9</ele>
        <time>2016-01-10T09:09:54.000Z</time>
      </trkpt>
      <trkpt lat="47.49227" lon="6.75906">
        <ele>317.3</ele>
        <time>2016-01-10T09:09:55.000Z</time>
      </trkpt>
      <trkpt lat="47.49224" lon="6.75913">
        <ele>318</ele>
        <time>2016-01-10T09:09:56.000Z</time>
      </trkpt>
      <trkpt lat="47.49223" lon="6.7592">
        <ele>318</ele>
        <time>2016-01-10T09:09:57.001Z</time>
      </trkpt>
      <trkpt lat="47.49218" lon="6.75926">
        <ele>317</ele>
        <time>2016-01-10T09:09:58.000Z</time>
      </trkpt>
      <trkpt lat="47.49216" lon="6.75933">
        <ele>316.7</ele>
        <time>2016-01-10T09:09:59.000Z</time>
      </trkpt>
      <trkpt lat="47.49213" lon="6.7594">
        <ele>316.7</ele>
        <time>2016-01-10T09:10:00.000Z</time>
      </trkpt>
      <trkpt lat="47.49211" lon="6.75945">
        <ele>314.9</ele>
        <time>2016-01-10T09:10:01.000Z</time>
      </trkpt>
      <trkpt lat="47.49208" lon="6.75953">
        <ele>314.4</ele>
        <time>2016-01-10T09:10:02.000Z</time>
      </trkpt>
      <trkpt lat="47.49206" lon="6.75958">
        <ele>316</ele>
        <time>2016-01-10T09:10:03.000Z</time>
      </trkpt>
      <trkpt lat="47.49203" lon="6.75962">
        <ele>316.3</ele>
        <time>2016-01-10T09:10:04.000Z</time>
      </trkpt>
      <trkpt lat="47.49201" lon="6.75966">
        <ele>315.3</ele>
        <time>2016-01-10T09:10:05.000Z</time>
      </trkpt>
      <trkpt lat="47.492" lon="6.75973">
        <ele>314.2</ele>
        <time>2016-01-10T09:10:06.000Z</time>
      </trkpt>
      <trkpt lat="47.49198" lon="6.75979">
        <ele>314.1</ele>
        <time>2016-01-10T09:10:07.000Z</time>
      </trkpt>
      <trkpt lat="47.49196" lon="6.75984">
        <ele>314</ele>
        <time>2016-01-10T09:10:07.998Z</time>
      </trkpt>
      <trkpt lat="47.49191" lon="6.75994">
        <ele>312.7</ele>
        <time>2016-01-10T09:10:09.000Z</time>
      </trkpt>
      <trkpt lat="47.49187" lon="6.76003">
        <ele>312.7</ele>
        <time>2016-01-10T09:10:10.000Z</time>
      </trkpt>
      <trkpt lat="47.49183" lon="6.76011">
        <ele>311.9</ele>
        <time>2016-01-10T09:10:11.000Z</time>
      </trkpt>
      <trkpt lat="47.49178" lon="6.76021">
        <ele>314.1</ele>
        <time>2016-01-10T09:10:12.000Z</time>
      </trkpt>
      <trkpt lat="47.49174" lon="6.76029">
        <ele>314.5</ele>
        <time>2016-01-10T09:10:13.000Z</time>
      </trkpt>
      <trkpt lat="47.49173" lon="6.76035">
        <ele>312.2</ele>
        <time>2016-01-10T09:10:14.000Z</time>
      </trkpt>
      <trkpt lat="47.49171" lon="6.76041">
        <ele>311.6</ele>
        <time>2016-01-10T09:10:15.000Z</time>
      </trkpt>
      <trkpt lat="47.49168" lon="6.76048">
        <ele>312.4</ele>
        <time>2016-01-10T09:10:16.000Z</time>
      </trkpt>
      <trkpt lat="47.49165" lon="6.76055">
        <ele>313</ele>
        <time>2016-01-10T09:10:17.000Z</time>
      </trkpt>
      <trkpt lat="47.49163" lon="6.76062">
        <ele>313.6</ele>
        <time>2016-01-10T09:10:18.000Z</time>
      </trkpt>
      <trkpt lat="47.4916" lon="6.76071">
        <ele>314</ele>
        <time>2016-01-10T09:10:19.000Z</time>
      </trkpt>
      <trkpt lat="47.49159" lon="6.76078">
        <ele>313.7</ele>
        <time>2016-01-10T09:10:20.000Z</time>
      </trkpt>
      <trkpt lat="47.49156" lon="6.76086">
        <ele>313.2</ele>
        <time>2016-01-10T09:10:21.001Z</time>
      </trkpt>
      <trkpt lat="47.49154" lon="6.76094">
        <ele>313.5</ele>
        <time>2016-01-10T09:10:22.000Z</time>
      </trkpt>
      <trkpt lat="47.49152" lon="6.76102">
        <ele>314.6</ele>
        <time>2016-01-10T09:10:23.000Z</time>
      </trkpt>
      <trkpt lat="47.4915" lon="6.76109">
        <ele>313.3</ele>
        <time>2016-01-10T09:10:24.000Z</time>
      </trkpt>
      <trkpt lat="47.49148" lon="6.76117">
        <ele>313.6</ele>
        <time>2016-01-10T09:10:25.000Z</time>
      </trkpt>
      <trkpt lat="47.49146" lon="6.76125">
        <ele>314.7</ele>
        <time>2016-01-10T09:10:26.000Z</time>
      </trkpt>
      <trkpt lat="47.49145" lon="6.76134">
        <ele>314.1</ele>
        <time>2016-01-10T09:10:27.000Z</time>
      </trkpt>
      <trkpt lat="47.49144" lon="6.76142">
        <ele>313.3</ele>
        <time>2016-01-10T09:10:28.001Z</time>
      </trkpt>
      <trkpt lat="47.49142" lon="6.76149">
        <ele>314.3</ele>
        <time>2016-01-10T09:10:29.000Z</time>
      </trkpt>
      <trkpt lat="47.49142" lon="6.76158">
        <ele>315</ele>
        <time>2016-01-10T09:10:30.000Z</time>
      </trkpt>
      <trkpt lat="47.49139" lon="6.76165">
        <ele>314.5</ele>
        <time>2016-01-10T09:10:31.000Z</time>
      </trkpt>
      <trkpt lat="47.49136" lon="6.76173">
        <ele>314</ele>
        <time>2016-01-10T09:10:32.000Z</time>
      </trkpt>
      <trkpt lat="47.49134" lon="6.7618">
        <ele>315</ele>
        <time>2016-01-10T09:10:33.000Z</time>
      </trkpt>
      <trkpt lat="47.49132" lon="6.76188">
        <ele>315.3</ele>
        <time>2016-01-10T09:10:34.000Z</time>
      </trkpt>
      <trkpt lat="47.4913" lon="6.76195">
        <ele>314.7</ele>
        <time>2016-01-10T09:10:35.000Z</time>
      </trkpt>
      <trkpt lat="47.4913" lon="6.76204">
        <ele>314.3</ele>
        <time>2016-01-10T09:10:36.000Z</time>
      </trkpt>
      <trkpt lat="47.49129" lon="6.76213">
        <ele>314.4</ele>
        <time>2016-01-10T09:10:36.998Z</time>
      </trkpt>
      <trkpt lat="47.49138" lon="6.76219">
        <ele>314.4</ele>
        <time>2016-01-10T09:10:38.000Z</time>
      </trkpt>
      <trkpt lat="47.49136" lon="6.76229">
        <ele>313.8</ele>
        <time>2016-01-10T09:10:39.000Z</time>
      </trkpt>
      <trkpt lat="47.49136" lon="6.76238">
        <ele>314</ele>
        <time>2016-01-10T09:10:40.000Z</time>
      </trkpt>
      <trkpt lat="47.49136" lon="6.76246">
        <ele>314.5</ele>
        <time>2016-01-10T09:10:41.000Z</time>
      </trkpt>
      <trkpt lat="47.49135" lon="6.76254">
        <ele>313.4</ele>
        <time>2016-01-10T09:10:42.000Z</time>
      </trkpt>
      <trkpt lat="47.49135" lon="6.76262">
        <ele>313.1</ele>
        <time>2016-01-10T09:10:43.000Z</time>
      </trkpt>
      <trkpt lat="47.49135" lon="6.76269">
        <ele>313.1</ele>
        <time>2016-01-10T09:10:44.000Z</time>
      </trkpt>
      <trkpt lat="47.49135" lon="6.76276">
        <ele>313</ele>
        <time>2016-01-10T09:10:45.000Z</time>
      </trkpt>
      <trkpt lat="47.49135" lon="6.7628">
        <ele>313.3</ele>
        <time>2016-01-10T09:10:46.000Z</time>
      </trkpt>
      <trkpt lat="47.49137" lon="6.76291">
        <ele>313.2</ele>
        <time>2016-01-10T09:10:47.000Z</time>
      </trkpt>
      <trkpt lat="47.49139" lon="6.76302">
        <ele>311.7</ele>
        <time>2016-01-10T09:10:48.000Z</time>
      </trkpt>
      <trkpt lat="47.4914" lon="6.7631">
        <ele>311.1</ele>
        <time>2016-01-10T09:10:48.999Z</time>
      </trkpt>
      <trkpt lat="47.49142" lon="6.76318">
        <ele>312.9</ele>
        <time>2016-01-10T09:10:50.000Z</time>
      </trkpt>
      <trkpt lat="47.49143" lon="6.76327">
        <ele>313.5</ele>
        <time>2016-01-10T09:10:51.000Z</time>
      </trkpt>
      <trkpt lat="47.4914" lon="6.76334">
        <ele>312.8</ele>
        <time>2016-01-10T09:10:52.000Z</time>
      </trkpt>
      <trkpt lat="47.49139" lon="6.76341">
        <ele>312.2</ele>
        <time>2016-01-10T09:10:53.000Z</time>
      </trkpt>
      <trkpt lat="47.49137" lon="6.76351">
        <ele>311.5</ele>
        <time>2016-01-10T09:10:54.000Z</time>
      </trkpt>
      <trkpt lat="47.49133" lon="6.76361">
        <ele>310.4</ele>
        <time>2016-01-10T09:10:55.000Z</time>
      </trkpt>
      <trkpt lat="47.49134" lon="6.76369">
        <ele>312.3</ele>
        <time>2016-01-10T09:10:56.000Z</time>
      </trkpt>
      <trkpt lat="47.49133" lon="6.76376">
        <ele>313.2</ele>
        <time>2016-01-10T09:10:56.999Z</time>
      </trkpt>
      <trkpt lat="47.49132" lon="6.76385">
        <ele>315.2</ele>
        <time>2016-01-10T09:10:58.000Z</time>
      </trkpt>
      <trkpt lat="47.49131" lon="6.76395">
        <ele>314.9</ele>
        <time>2016-01-10T09:10:59.000Z</time>
      </trkpt>
      <trkpt lat="47.49131" lon="6.76403">
        <ele>315.1</ele>
        <time>2016-01-10T09:10:59.998Z</time>
      </trkpt>
      <trkpt lat="47.4913" lon="6.7641">
        <ele>315.4</ele>
        <time>2016-01-10T09:11:01.002Z</time>
      </trkpt>
      <trkpt lat="47.49129" lon="6.76419">
        <ele>314.6</ele>
        <time>2016-01-10T09:11:02.000Z</time>
      </trkpt>
      <trkpt lat="47.49129" lon="6.76429">
        <ele>314.8</ele>
        <time>2016-01-10T09:11:03.000Z</time>
      </trkpt>
      <trkpt lat="47.49128" lon="6.76438">
        <ele>314.4</ele>
        <time>2016-01-10T09:11:04.000Z</time>
      </trkpt>
      <trkpt lat="47.49127" lon="6.76447">
        <ele>315.5</ele>
        <time>2016-01-10T09:11:05.000Z</time>
      </trkpt>
      <trkpt lat="47.49126" lon="6.76454">
        <ele>316.4</ele>
        <time>2016-01-10T09:11:06.000Z</time>
      </trkpt>
      <trkpt lat="47.49127" lon="6.76464">
        <ele>315.9</ele>
        <time>2016-01-10T09:11:07.000Z</time>
      </trkpt>
      <trkpt lat="47.49128" lon="6.76472">
        <ele>316.5</ele>
        <time>2016-01-10T09:11:08.000Z</time>
      </trkpt>
      <trkpt lat="47.49128" lon="6.76481">
        <ele>316.4</ele>
        <time>2016-01-10T09:11:08.999Z</time>
      </trkpt>
      <trkpt lat="47.49128" lon="6.76489">
        <ele>316.9</ele>
        <time>2016-01-10T09:11:10.000Z</time>
      </trkpt>
      <trkpt lat="47.49127" lon="6.76497">
        <ele>316.1</ele>
        <time>2016-01-10T09:11:11.000Z</time>
      </trkpt>
      <trkpt lat="47.49127" lon="6.76506">
        <ele>315.9</ele>
        <time>2016-01-10T09:11:12.000Z</time>
      </trkpt>
      <trkpt lat="47.49126" lon="6.76515">
        <ele>316.7</ele>
        <time>2016-01-10T09:11:13.000Z</time>
      </trkpt>
      <trkpt lat="47.49126" lon="6.76524">
        <ele>317.3</ele>
        <time>2016-01-10T09:11:14.000Z</time>
      </trkpt>
      <trkpt lat="47.49126" lon="6.76533">
        <ele>317.1</ele>
        <time>2016-01-10T09:11:14.999Z</time>
      </trkpt>
      <trkpt lat="47.49126" lon="6.76543">
        <ele>316.6</ele>
        <time>2016-01-10T09:11:16.000Z</time>
      </trkpt>
      <trkpt lat="47.49126" lon="6.76552">
        <ele>317.1</ele>
        <time>2016-01-10T09:11:17.000Z</time>
      </trkpt>
      <trkpt lat="47.49126" lon="6.7656">
        <ele>317.9</ele>
        <time>2016-01-10T09:11:18.000Z</time>
      </trkpt>
      <trkpt lat="47.49127" lon="6.76569">
        <ele>317.4</ele>
        <time>2016-01-10T09:11:19.000Z</time>
      </trkpt>
      <trkpt lat="47.49127" lon="6.76577">
        <ele>316.9</ele>
        <time>2016-01-10T09:11:19.999Z</time>
      </trkpt>
      <trkpt lat="47.49128" lon="6.76586">
        <ele>315.9</ele>
        <time>2016-01-10T09:11:21.000Z</time>
      </trkpt>
      <trkpt lat="47.4913" lon="6.76595">
        <ele>315.5</ele>
        <time>2016-01-10T09:11:22.000Z</time>
      </trkpt>
      <trkpt lat="47.49129" lon="6.76605">
        <ele>315.1</ele>
        <time>2016-01-10T09:11:23.000Z</time>
      </trkpt>
      <trkpt lat="47.49131" lon="6.76613">
        <ele>315</ele>
        <time>2016-01-10T09:11:24.000Z</time>
      </trkpt>
      <trkpt lat="47.49132" lon="6.76621">
        <ele>314.3</ele>
        <time>2016-01-10T09:11:25.000Z</time>
      </trkpt>
      <trkpt lat="47.49133" lon="6.76629">
        <ele>313.5</ele>
        <time>2016-01-10T09:11:26.000Z</time>
      </trkpt>
      <trkpt lat="47.49135" lon="6.76638">
        <ele>314.5</ele>
        <time>2016-01-10T09:11:27.000Z</time>
      </trkpt>
      <trkpt lat="47.49138" lon="6.76648">
        <ele>315.3</ele>
        <time>2016-01-10T09:11:28.000Z</time>
      </trkpt>
      <trkpt lat="47.49142" lon="6.76657">
        <ele>316.5</ele>
        <time>2016-01-10T09:11:29.000Z</time>
      </trkpt>
      <trkpt lat="47.49143" lon="6.76665">
        <ele>316.3</ele>
        <time>2016-01-10T09:11:30.000Z</time>
      </trkpt>
      <trkpt lat="47.49145" lon="6.76673">
        <ele>316.2</ele>
        <time>2016-01-10T09:11:31.000Z</time>
      </trkpt>
      <trkpt lat="47.49146" lon="6.76682">
        <ele>315.8</ele>
        <time>2016-01-10T09:11:32.000Z</time>
      </trkpt>
      <trkpt lat="47.49147" lon="6.76691">
        <ele>316.2</ele>
        <time>2016-01-10T09:11:33.000Z</time>
      </trkpt>
      <trkpt lat="47.49147" lon="6.767">
        <ele>316.2</ele>
        <time>2016-01-10T09:11:33.999Z</time>
      </trkpt>
      <trkpt lat="47.49147" lon="6.76708">
        <ele>315.8</ele>
        <time>2016-01-10T09:11:35.000Z</time>
      </trkpt>
      <trkpt lat="47.49148" lon="6.76717">
        <ele>315.8</ele>
        <time>2016-01-10T09:11:36.000Z</time>
      </trkpt>
      <trkpt lat="47.49148" lon="6.76725">
        <ele>316</ele>
        <time>2016-01-10T09:11:37.000Z</time>
      </trkpt>
      <trkpt lat="47.49149" lon="6.76734">
        <ele>316.2</ele>
        <time>2016-01-10T09:11:38.000Z</time>
      </trkpt>
      <trkpt lat="47.49154" lon="6.76743">
        <ele>316.5</ele>
        <time>2016-01-10T09:11:39.000Z</time>
      </trkpt>
      <trkpt lat="47.49155" lon="6.76751">
        <ele>316</ele>
        <time>2016-01-10T09:11:39.999Z</time>
      </trkpt>
      <trkpt lat="47.49155" lon="6.76759">
        <ele>316.6</ele>
        <time>2016-01-10T09:11:41.000Z</time>
      </trkpt>
      <trkpt lat="47.49155" lon="6.76767">
        <ele>316.3</ele>
        <time>2016-01-10T09:11:42.000Z</time>
      </trkpt>
      <trkpt lat="47.49156" lon="6.76775">
        <ele>316.1</ele>
        <time>2016-01-10T09:11:43.000Z</time>
      </trkpt>
      <trkpt lat="47.4916" lon="6.76783">
        <ele>317.3</ele>
        <time>2016-01-10T09:11:44.000Z</time>
      </trkpt>
      <trkpt lat="47.4916" lon="6.76792">
        <ele>317.3</ele>
        <time>2016-01-10T09:11:45.000Z</time>
      </trkpt>
      <trkpt lat="47.49159" lon="6.76802">
        <ele>316.8</ele>
        <time>2016-01-10T09:11:46.000Z</time>
      </trkpt>
      <trkpt lat="47.49158" lon="6.7681">
        <ele>316.6</ele>
        <time>2016-01-10T09:11:47.000Z</time>
      </trkpt>
      <trkpt lat="47.49158" lon="6.76817">
        <ele>316</ele>
        <time>2016-01-10T09:11:48.000Z</time>
      </trkpt>
      <trkpt lat="47.49159" lon="6.76826">
        <ele>316.6</ele>
        <time>2016-01-10T09:11:49.000Z</time>
      </trkpt>
      <trkpt lat="47.49158" lon="6.76835">
        <ele>316.3</ele>
        <time>2016-01-10T09:11:50.000Z</time>
      </trkpt>
      <trkpt lat="47.4916" lon="6.76842">
        <ele>315.7</ele>
        <time>2016-01-10T09:11:51.000Z</time>
      </trkpt>
      <trkpt lat="47.4916" lon="6.76852">
        <ele>315.5</ele>
        <time>2016-01-10T09:11:52.000Z</time>
      </trkpt>
      <trkpt lat="47.49159" lon="6.76859">
        <ele>315.2</ele>
        <time>2016-01-10T09:11:53.000Z</time>
      </trkpt>
      <trkpt lat="47.49158" lon="6.76868">
        <ele>314.4</ele>
        <time>2016-01-10T09:11:54.000Z</time>
      </trkpt>
      <trkpt lat="47.49157" lon="6.76875">
        <ele>313.7</ele>
        <time>2016-01-10T09:11:55.000Z</time>
      </trkpt>
      <trkpt lat="47.49157" lon="6.76882">
        <ele>314.1</ele>
        <time>2016-01-10T09:11:56.000Z</time>
      </trkpt>
      <trkpt lat="47.49155" lon="6.76891">
        <ele>314.4</ele>
        <time>2016-01-10T09:11:57.000Z</time>
      </trkpt>
      <trkpt lat="47.49157" lon="6.76898">
        <ele>314.3</ele>
        <time>2016-01-10T09:11:58.000Z</time>
      </trkpt>
      <trkpt lat="47.49159" lon="6.76906">
        <ele>313.9</ele>
        <time>2016-01-10T09:11:59.001Z</time>
      </trkpt>
      <trkpt lat="47.49159" lon="6.76915">
        <ele>314.1</ele>
        <time>2016-01-10T09:12:00.000Z</time>
      </trkpt>
      <trkpt lat="47.49158" lon="6.76922">
        <ele>314.1</ele>
        <time>2016-01-10T09:12:01.000Z</time>
      </trkpt>
      <trkpt lat="47.49156" lon="6.7693">
        <ele>314.7</ele>
        <time>2016-01-10T09:12:02.000Z</time>
      </trkpt>
      <trkpt lat="47.49156" lon="6.76938">
        <ele>315.4</ele>
        <time>2016-01-10T09:12:03.000Z</time>
      </trkpt>
      <trkpt lat="47.49156" lon="6.76946">
        <ele>316.1</ele>
        <time>2016-01-10T09:12:04.000Z</time>
      </trkpt>
      <trkpt lat="47.49157" lon="6.7695">
        <ele>316.1</ele>
        <time>2016-01-10T09:12:05.000Z</time>
      </trkpt>
      <trkpt lat="47.49157" lon="6.76955">
        <ele>316.4</ele>
        <time>2016-01-10T09:12:06.000Z</time>
      </trkpt>
      <trkpt lat="47.49156" lon="6.7696">
        <ele>316.4</ele>
        <time>2016-01-10T09:12:07.000Z</time>
      </trkpt>
      <trkpt lat="47.49155" lon="6.76967">
        <ele>316.6</ele>
        <time>2016-01-10T09:12:08.000Z</time>
      </trkpt>
      <trkpt lat="47.49154" lon="6.7698">
        <ele>316.3</ele>
        <time>2016-01-10T09:12:09.000Z</time>
      </trkpt>
      <trkpt lat="47.49153" lon="6.76986">
        <ele>317.2</ele>
        <time>2016-01-10T09:12:10.000Z</time>
      </trkpt>
      <trkpt lat="47.49155" lon="6.76996">
        <ele>316.6</ele>
        <time>2016-01-10T09:12:11.000Z</time>
      </trkpt>
      <trkpt lat="47.49157" lon="6.77004">
        <ele>315.9</ele>
        <time>2016-01-10T09:12:12.000Z</time>
      </trkpt>
      <trkpt lat="47.4916" lon="6.77011">
        <ele>316.6</ele>
        <time>2016-01-10T09:12:13.000Z</time>
      </trkpt>
      <trkpt lat="47.49162" lon="6.77017">
        <ele>316</ele>
        <time>2016-01-10T09:12:14.000Z</time>
      </trkpt>
      <trkpt lat="47.49164" lon="6.77026">
        <ele>313.4</ele>
        <time>2016-01-10T09:12:15.000Z</time>
      </trkpt>
      <trkpt lat="47.49166" lon="6.77033">
        <ele>312.4</ele>
        <time>2016-01-10T09:12:16.000Z</time>
      </trkpt>
      <trkpt lat="47.49167" lon="6.7704">
        <ele>311.8</ele>
        <time>2016-01-10T09:12:17.000Z</time>
      </trkpt>
      <trkpt lat="47.49168" lon="6.7705">
        <ele>312.1</ele>
        <time>2016-01-10T09:12:18.000Z</time>
      </trkpt>
      <trkpt lat="47.49167" lon="6.77058">
        <ele>311.6</ele>
        <time>2016-01-10T09:12:19.000Z</time>
      </trkpt>
      <trkpt lat="47.49168" lon="6.77065">
        <ele>311.2</ele>
        <time>2016-01-10T09:12:20.000Z</time>
      </trkpt>
      <trkpt lat="47.4917" lon="6.77072">
        <ele>310.4</ele>
        <time>2016-01-10T09:12:21.000Z</time>
      </trkpt>
      <trkpt lat="47.49172" lon="6.77078">
        <ele>310.6</ele>
        <time>2016-01-10T09:12:22.000Z</time>
      </trkpt>
      <trkpt lat="47.49173" lon="6.77084">
        <ele>310.5</ele>
        <time>2016-01-10T09:12:22.999Z</time>
      </trkpt>
      <trkpt lat="47.49175" lon="6.77092">
        <ele>310.1</ele>
        <time>2016-01-10T09:12:24.000Z</time>
      </trkpt>
      <trkpt lat="47.49176" lon="6.771">
        <ele>310.3</ele>
        <time>2016-01-10T09:12:25.000Z</time>
      </trkpt>
      <trkpt lat="47.49176" lon="6.77107">
        <ele>309</ele>
        <time>2016-01-10T09:12:26.000Z</time>
      </trkpt>
      <trkpt lat="47.49175" lon="6.77114">
        <ele>306.8</ele>
        <time>2016-01-10T09:12:26.999Z</time>
      </trkpt>
      <trkpt lat="47.49176" lon="6.77118">
        <ele>307</ele>
        <time>2016-01-10T09:12:28.000Z</time>
      </trkpt>
      <trkpt lat="47.49176" lon="6.77124">
        <ele>304.6</ele>
        <time>2016-01-10T09:12:30.000Z</time>
      </trkpt>
      <trkpt lat="47.49176" lon="6.77128">
        <ele>305.2</ele>
        <time>2016-01-10T09:12:31.000Z</time>
      </trkpt>
      <trkpt lat="47.49178" lon="6.77133">
        <ele>305.1</ele>
        <time>2016-01-10T09:12:32.000Z</time>
      </trkpt>
      <trkpt lat="47.4918" lon="6.77136">
        <ele>305.8</ele>
        <time>2016-01-10T09:12:33.000Z</time>
      </trkpt>
      <trkpt lat="47.49182" lon="6.77141">
        <ele>305.4</ele>
        <time>2016-01-10T09:12:33.999Z</time>
      </trkpt>
      <trkpt lat="47.49185" lon="6.77147">
        <ele>307.2</ele>
        <time>2016-01-10T09:12:35.000Z</time>
      </trkpt>
      <trkpt lat="47.49187" lon="6.77153">
        <ele>307.2</ele>
        <time>2016-01-10T09:12:36.000Z</time>
      </trkpt>
      <trkpt lat="47.49189" lon="6.77159">
        <ele>307.4</ele>
        <time>2016-01-10T09:12:37.000Z</time>
      </trkpt>
      <trkpt lat="47.49191" lon="6.77166">
        <ele>308.5</ele>
        <time>2016-01-10T09:12:38.000Z</time>
      </trkpt>
      <trkpt lat="47.49193" lon="6.77173">
        <ele>308.7</ele>
        <time>2016-01-10T09:12:39.000Z</time>
      </trkpt>
      <trkpt lat="47.49193" lon="6.77181">
        <ele>308.6</ele>
        <time>2016-01-10T09:12:40.000Z</time>
      </trkpt>
      <trkpt lat="47.49193" lon="6.77188">
        <ele>309</ele>
        <time>2016-01-10T09:12:41.000Z</time>
      </trkpt>
      <trkpt lat="47.49192" lon="6.77196">
        <ele>309.4</ele>
        <time>2016-01-10T09:12:42.000Z</time>
      </trkpt>
      <trkpt lat="47.49193" lon="6.77203">
        <ele>309.7</ele>
        <time>2016-01-10T09:12:43.000Z</time>
      </trkpt>
      <trkpt lat="47.49192" lon="6.7721">
        <ele>309.4</ele>
        <time>2016-01-10T09:12:44.000Z</time>
      </trkpt>
      <trkpt lat="47.49191" lon="6.77217">
        <ele>310.6</ele>
        <time>2016-01-10T09:12:45.000Z</time>
      </trkpt>
      <trkpt lat="47.49192" lon="6.77224">
        <ele>311.6</ele>
        <time>2016-01-10T09:12:46.000Z</time>
      </trkpt>
      <trkpt lat="47.49193" lon="6.77232">
        <ele>311.1</ele>
        <time>2016-01-10T09:12:47.000Z</time>
      </trkpt>
      <trkpt lat="47.49192" lon="6.77238">
        <ele>309.6</ele>
        <time>2016-01-10T09:12:48.000Z</time>
      </trkpt>
      <trkpt lat="47.49194" lon="6.77245">
        <ele>311</ele>
        <time>2016-01-10T09:12:49.000Z</time>
      </trkpt>
      <trkpt lat="47.49193" lon="6.77254">
        <ele>310.2</ele>
        <time>2016-01-10T09:12:50.000Z</time>
      </trkpt>
      <trkpt lat="47.49193" lon="6.77262">
        <ele>308.9</ele>
        <time>2016-01-10T09:12:51.000Z</time>
      </trkpt>
      <trkpt lat="47.49193" lon="6.7727">
        <ele>309.6</ele>
        <time>2016-01-10T09:12:52.000Z</time>
      </trkpt>
      <trkpt lat="47.49191" lon="6.77278">
        <ele>309.6</ele>
        <time>2016-01-10T09:12:53.000Z</time>
      </trkpt>
      <trkpt lat="47.4919" lon="6.77285">
        <ele>310.2</ele>
        <time>2016-01-10T09:12:54.000Z</time>
      </trkpt>
      <trkpt lat="47.4919" lon="6.77293">
        <ele>310.6</ele>
        <time>2016-01-10T09:12:55.000Z</time>
      </trkpt>
      <trkpt lat="47.49189" lon="6.77303">
        <ele>310.8</ele>
        <time>2016-01-10T09:12:56.000Z</time>
      </trkpt>
      <trkpt lat="47.49189" lon="6.77311">
        <ele>311.4</ele>
        <time>2016-01-10T09:12:57.000Z</time>
      </trkpt>
      <trkpt lat="47.49188" lon="6.77318">
        <ele>311.4</ele>
        <time>2016-01-10T09:12:58.000Z</time>
      </trkpt>
      <trkpt lat="47.49185" lon="6.77325">
        <ele>310.8</ele>
        <time>2016-01-10T09:12:59.000Z</time>
      </trkpt>
      <trkpt lat="47.49183" lon="6.77328">
        <ele>311.1</ele>
        <time>2016-01-10T09:13:00.000Z</time>
      </trkpt>
      <trkpt lat="47.4918" lon="6.77332">
        <ele>311.5</ele>
        <time>2016-01-10T09:13:01.000Z</time>
      </trkpt>
      <trkpt lat="47.49179" lon="6.77334">
        <ele>311.9</ele>
        <time>2016-01-10T09:13:02.000Z</time>
      </trkpt>
      <trkpt lat="47.49176" lon="6.77337">
        <ele>312.1</ele>
        <time>2016-01-10T09:13:03.000Z</time>
      </trkpt>
      <trkpt lat="47.49174" lon="6.77339">
        <ele>311.9</ele>
        <time>2016-01-10T09:13:04.000Z</time>
      </trkpt>
      <trkpt lat="47.4917" lon="6.77344">
        <ele>310.4</ele>
        <time>2016-01-10T09:13:05.000Z</time>
      </trkpt>
      <trkpt lat="47.49167" lon="6.77348">
        <ele>310.2</ele>
        <time>2016-01-10T09:13:06.000Z</time>
      </trkpt>
      <trkpt lat="47.49164" lon="6.77353">
        <ele>309.8</ele>
        <time>2016-01-10T09:13:07.000Z</time>
      </trkpt>
      <trkpt lat="47.4916" lon="6.77356">
        <ele>309.8</ele>
        <time>2016-01-10T09:13:08.000Z</time>
      </trkpt>
      <trkpt lat="47.49157" lon="6.77361">
        <ele>310.2</ele>
        <time>2016-01-10T09:13:09.000Z</time>
      </trkpt>
      <trkpt lat="47.49153" lon="6.77365">
        <ele>310.9</ele>
        <time>2016-01-10T09:13:10.001Z</time>
      </trkpt>
      <trkpt lat="47.49149" lon="6.77368">
        <ele>310.4</ele>
        <time>2016-01-10T09:13:11.000Z</time>
      </trkpt>
      <trkpt lat="47.49144" lon="6.77372">
        <ele>310.8</ele>
        <time>2016-01-10T09:13:12.000Z</time>
      </trkpt>
      <trkpt lat="47.49142" lon="6.77376">
        <ele>310.6</ele>
        <time>2016-01-10T09:13:13.000Z</time>
      </trkpt>
      <trkpt lat="47.49139" lon="6.7738">
        <ele>310.3</ele>
        <time>2016-01-10T09:13:14.000Z</time>
      </trkpt>
      <trkpt lat="47.49134" lon="6.77384">
        <ele>310</ele>
        <time>2016-01-10T09:13:15.000Z</time>
      </trkpt>
      <trkpt lat="47.49131" lon="6.77387">
        <ele>309.6</ele>
        <time>2016-01-10T09:13:16.000Z</time>
      </trkpt>
      <trkpt lat="47.49126" lon="6.77391">
        <ele>309.5</ele>
        <time>2016-01-10T09:13:17.000Z</time>
      </trkpt>
      <trkpt lat="47.49122" lon="6.77394">
        <ele>309.1</ele>
        <time>2016-01-10T09:13:18.000Z</time>
      </trkpt>
      <trkpt lat="47.49118" lon="6.77397">
        <ele>308.9</ele>
        <time>2016-01-10T09:13:18.999Z</time>
      </trkpt>
      <trkpt lat="47.49113" lon="6.77399">
        <ele>308.8</ele>
        <time>2016-01-10T09:13:20.000Z</time>
      </trkpt>
      <trkpt lat="47.49111" lon="6.77404">
        <ele>309.8</ele>
        <time>2016-01-10T09:13:21.000Z</time>
      </trkpt>
      <trkpt lat="47.49108" lon="6.77407">
        <ele>310.5</ele>
        <time>2016-01-10T09:13:22.000Z</time>
      </trkpt>
      <trkpt lat="47.49104" lon="6.7741">
        <ele>310</ele>
        <time>2016-01-10T09:13:23.000Z</time>
      </trkpt>
      <trkpt lat="47.49099" lon="6.77414">
        <ele>310.7</ele>
        <time>2016-01-10T09:13:24.000Z</time>
      </trkpt>
      <trkpt lat="47.49094" lon="6.77417">
        <ele>311.3</ele>
        <time>2016-01-10T09:13:25.000Z</time>
      </trkpt>
      <trkpt lat="47.4909" lon="6.77418">
        <ele>310.2</ele>
        <time>2016-01-10T09:13:26.000Z</time>
      </trkpt>
      <trkpt lat="47.49086" lon="6.77418">
        <ele>307.8</ele>
        <time>2016-01-10T09:13:27.000Z</time>
      </trkpt>
      <trkpt lat="47.49081" lon="6.77423">
        <ele>309.7</ele>
        <time>2016-01-10T09:13:28.000Z</time>
      </trkpt>
      <trkpt lat="47.49076" lon="6.77425">
        <ele>310.1</ele>
        <time>2016-01-10T09:13:29.000Z</time>
      </trkpt>
      <trkpt lat="47.49072" lon="6.77427">
        <ele>310.9</ele>
        <time>2016-01-10T09:13:30.000Z</time>
      </trkpt>
      <trkpt lat="47.49068" lon="6.77429">
        <ele>311.4</ele>
        <time>2016-01-10T09:13:31.000Z</time>
      </trkpt>
      <trkpt lat="47.49063" lon="6.77431">
        <ele>310.8</ele>
        <time>2016-01-10T09:13:32.000Z</time>
      </trkpt>
      <trkpt lat="47.49059" lon="6.77433">
        <ele>310.8</ele>
        <time>2016-01-10T09:13:33.000Z</time>
      </trkpt>
      <trkpt lat="47.49054" lon="6.77435">
        <ele>310.9</ele>
        <time>2016-01-10T09:13:34.000Z</time>
      </trkpt>
      <trkpt lat="47.49049" lon="6.77438">
        <ele>311.5</ele>
        <time>2016-01-10T09:13:35.001Z</time>
      </trkpt>
      <trkpt lat="47.49045" lon="6.77441">
        <ele>311.7</ele>
        <time>2016-01-10T09:13:36.000Z</time>
      </trkpt>
      <trkpt lat="47.4904" lon="6.77444">
        <ele>312</ele>
        <time>2016-01-10T09:13:37.000Z</time>
      </trkpt>
      <trkpt lat="47.49035" lon="6.77447">
        <ele>312.2</ele>
        <time>2016-01-10T09:13:38.001Z</time>
      </trkpt>
      <trkpt lat="47.49031" lon="6.77449">
        <ele>311.9</ele>
        <time>2016-01-10T09:13:39.000Z</time>
      </trkpt>
      <trkpt lat="47.49027" lon="6.77452">
        <ele>311.5</ele>
        <time>2016-01-10T09:13:40.000Z</time>
      </trkpt>
      <trkpt lat="47.49023" lon="6.77458">
        <ele>311.9</ele>
        <time>2016-01-10T09:13:41.000Z</time>
      </trkpt>
      <trkpt lat="47.4902" lon="6.77461">
        <ele>312.5</ele>
        <time>2016-01-10T09:13:42.000Z</time>
      </trkpt>
      <trkpt lat="47.49017" lon="6.77465">
        <ele>312.6</ele>
        <time>2016-01-10T09:13:43.000Z</time>
      </trkpt>
      <trkpt lat="47.49016" lon="6.77472">
        <ele>313.9</ele>
        <time>2016-01-10T09:13:44.000Z</time>
      </trkpt>
      <trkpt lat="47.49016" lon="6.77476">
        <ele>313.3</ele>
        <time>2016-01-10T09:13:45.000Z</time>
      </trkpt>
      <trkpt lat="47.49016" lon="6.77482">
        <ele>312.2</ele>
        <time>2016-01-10T09:13:46.000Z</time>
      </trkpt>
      <trkpt lat="47.49015" lon="6.77488">
        <ele>311.2</ele>
        <time>2016-01-10T09:13:47.000Z</time>
      </trkpt>
      <trkpt lat="47.49015" lon="6.77494">
        <ele>312.5</ele>
        <time>2016-01-10T09:13:48.001Z</time>
      </trkpt>
      <trkpt lat="47.49015" lon="6.775">
        <ele>313.8</ele>
        <time>2016-01-10T09:13:49.000Z</time>
      </trkpt>
      <trkpt lat="47.49015" lon="6.77506">
        <ele>314.4</ele>
        <time>2016-01-10T09:13:49.998Z</time>
      </trkpt>
      <trkpt lat="47.49016" lon="6.77512">
        <ele>313.3</ele>
        <time>2016-01-10T09:13:51.000Z</time>
      </trkpt>
      <trkpt lat="47.49016" lon="6.77517">
        <ele>313.8</ele>
        <time>2016-01-10T09:13:51.998Z</time>
      </trkpt>
      <trkpt lat="47.49016" lon="6.77522">
        <ele>314.8</ele>
        <time>2016-01-10T09:13:53.000Z</time>
      </trkpt>
      <trkpt lat="47.49015" lon="6.77526">
        <ele>314.6</ele>
        <time>2016-01-10T09:13:54.000Z</time>
      </trkpt>
      <trkpt lat="47.49014" lon="6.7753">
        <ele>315.2</ele>
        <time>2016-01-10T09:13:55.000Z</time>
      </trkpt>
      <trkpt lat="47.49013" lon="6.77534">
        <ele>315.3</ele>
        <time>2016-01-10T09:13:56.000Z</time>
      </trkpt>
      <trkpt lat="47.49013" lon="6.77538">
        <ele>315.7</ele>
        <time>2016-01-10T09:13:56.998Z</time>
      </trkpt>
      <trkpt lat="47.4901" lon="6.77541">
        <ele>315.1</ele>
        <time>2016-01-10T09:13:58.000Z</time>
      </trkpt>
      <trkpt lat="47.49009" lon="6.77545">
        <ele>315.3</ele>
        <time>2016-01-10T09:13:58.998Z</time>
      </trkpt>
      <trkpt lat="47.49006" lon="6.77547">
        <ele>317.8</ele>
        <time>2016-01-10T09:14:00.000Z</time>
      </trkpt>
      <trkpt lat="47.49002" lon="6.77549">
        <ele>317.1</ele>
        <time>2016-01-10T09:14:01.000Z</time>
      </trkpt>
      <trkpt lat="47.48999" lon="6.77552">
        <ele>317.7</ele>
        <time>2016-01-10T09:14:02.000Z</time>
      </trkpt>
      <trkpt lat="47.48996" lon="6.77554">
        <ele>317.5</ele>
        <time>2016-01-10T09:14:03.000Z</time>
      </trkpt>
      <trkpt lat="47.48993" lon="6.77557">
        <ele>317.6</ele>
        <time>2016-01-10T09:14:04.032Z</time>
      </trkpt>
      <trkpt lat="47.48989" lon="6.77559">
        <ele>317.2</ele>
        <time>2016-01-10T09:14:05.000Z</time>
      </trkpt>
      <trkpt lat="47.48986" lon="6.77562">
        <ele>317.1</ele>
        <time>2016-01-10T09:14:05.997Z</time>
      </trkpt>
      <trkpt lat="47.48982" lon="6.77565">
        <ele>317.5</ele>
        <time>2016-01-10T09:14:07.000Z</time>
      </trkpt>
      <trkpt lat="47.48979" lon="6.77568">
        <ele>317.7</ele>
        <time>2016-01-10T09:14:07.998Z</time>
      </trkpt>
      <trkpt lat="47.48976" lon="6.7757">
        <ele>318.3</ele>
        <time>2016-01-10T09:14:09.000Z</time>
      </trkpt>
      <trkpt lat="47.48973" lon="6.77573">
        <ele>318.7</ele>
        <time>2016-01-10T09:14:10.000Z</time>
      </trkpt>
      <trkpt lat="47.4897" lon="6.77576">
        <ele>319.1</ele>
        <time>2016-01-10T09:14:11.000Z</time>
      </trkpt>
      <trkpt lat="47.48968" lon="6.77578">
        <ele>319.8</ele>
        <time>2016-01-10T09:14:12.000Z</time>
      </trkpt>
      <trkpt lat="47.48965" lon="6.77581">
        <ele>317.7</ele>
        <time>2016-01-10T09:14:13.000Z</time>
      </trkpt>
      <trkpt lat="47.48962" lon="6.77584">
        <ele>316.2</ele>
        <time>2016-01-10T09:14:14.000Z</time>
      </trkpt>
      <trkpt lat="47.48959" lon="6.77587">
        <ele>315</ele>
        <time>2016-01-10T09:14:15.000Z</time>
      </trkpt>
      <trkpt lat="47.48953" lon="6.77592">
        <ele>315.2</ele>
        <time>2016-01-10T09:14:16.000Z</time>
      </trkpt>
      <trkpt lat="47.48948" lon="6.77597">
        <ele>314.4</ele>
        <time>2016-01-10T09:14:17.000Z</time>
      </trkpt>
      <trkpt lat="47.48943" lon="6.776">
        <ele>314.6</ele>
        <time>2016-01-10T09:14:18.000Z</time>
      </trkpt>
      <trkpt lat="47.4894" lon="6.77603">
        <ele>314.6</ele>
        <time>2016-01-10T09:14:19.001Z</time>
      </trkpt>
      <trkpt lat="47.48936" lon="6.77603">
        <ele>314.3</ele>
        <time>2016-01-10T09:14:20.000Z</time>
      </trkpt>
      <trkpt lat="47.48936" lon="6.77598">
        <ele>313.7</ele>
        <time>2016-01-10T09:14:21.000Z</time>
      </trkpt>
      <trkpt lat="47.48934" lon="6.77597">
        <ele>313.9</ele>
        <time>2016-01-10T09:14:22.000Z</time>
      </trkpt>
      <trkpt lat="47.4893" lon="6.77597">
        <ele>312.5</ele>
        <time>2016-01-10T09:14:26.000Z</time>
      </trkpt>
      <trkpt lat="47.48929" lon="6.77598">
        <ele>312.5</ele>
        <time>2016-01-10T09:14:27.000Z</time>
      </trkpt>
      <trkpt lat="47.48926" lon="6.77601">
        <ele>314.3</ele>
        <time>2016-01-10T09:14:31.000Z</time>
      </trkpt>
      <trkpt lat="47.48926" lon="6.77602">
        <ele>315</ele>
        <time>2016-01-10T09:14:32.000Z</time>
      </trkpt>
      <trkpt lat="47.48924" lon="6.77608">
        <ele>314.9</ele>
        <time>2016-01-10T09:14:44.999Z</time>
      </trkpt>
      <trkpt lat="47.48924" lon="6.77608">
        <ele>315.2</ele>
        <time>2016-01-10T09:14:46.000Z</time>
      </trkpt>
      <trkpt lat="47.4892" lon="6.77612">
        <ele>315.1</ele>
        <time>2016-01-10T09:14:51.000Z</time>
      </trkpt>
      <trkpt lat="47.48919" lon="6.77614">
        <ele>316.1</ele>
        <time>2016-01-10T09:14:52.000Z</time>
      </trkpt>
      <trkpt lat="47.48918" lon="6.77617">
        <ele>316.3</ele>
        <time>2016-01-10T09:14:53.000Z</time>
      </trkpt>
      <trkpt lat="47.48917" lon="6.77621">
        <ele>315.4</ele>
        <time>2016-01-10T09:14:54.000Z</time>
      </trkpt>
      <trkpt lat="47.48915" lon="6.77624">
        <ele>315.8</ele>
        <time>2016-01-10T09:14:55.000Z</time>
      </trkpt>
      <trkpt lat="47.48914" lon="6.77628">
        <ele>316.3</ele>
        <time>2016-01-10T09:14:56.000Z</time>
      </trkpt>
      <trkpt lat="47.48913" lon="6.77631">
        <ele>316</ele>
        <time>2016-01-10T09:14:57.001Z</time>
      </trkpt>
      <trkpt lat="47.48912" lon="6.77635">
        <ele>317.4</ele>
        <time>2016-01-10T09:14:58.000Z</time>
      </trkpt>
      <trkpt lat="47.4891" lon="6.7764">
        <ele>317.1</ele>
        <time>2016-01-10T09:14:59.000Z</time>
      </trkpt>
      <trkpt lat="47.48909" lon="6.77644">
        <ele>316.9</ele>
        <time>2016-01-10T09:15:00.000Z</time>
      </trkpt>
      <trkpt lat="47.48907" lon="6.77648">
        <ele>316.8</ele>
        <time>2016-01-10T09:15:01.000Z</time>
      </trkpt>
      <trkpt lat="47.48905" lon="6.77652">
        <ele>316.9</ele>
        <time>2016-01-10T09:15:02.000Z</time>
      </trkpt>
      <trkpt lat="47.48902" lon="6.77656">
        <ele>316.2</ele>
        <time>2016-01-10T09:15:03.000Z</time>
      </trkpt>
      <trkpt lat="47.48901" lon="6.77659">
        <ele>315.5</ele>
        <time>2016-01-10T09:15:04.000Z</time>
      </trkpt>
      <trkpt lat="47.48903" lon="6.77659">
        <ele>316.4</ele>
        <time>2016-01-10T09:15:11.000Z</time>
      </trkpt>
      <trkpt lat="47.48906" lon="6.77659">
        <ele>315.1</ele>
        <time>2016-01-10T09:15:12.000Z</time>
      </trkpt>
      <trkpt lat="47.4891" lon="6.7766">
        <ele>314.8</ele>
        <time>2016-01-10T09:15:13.000Z</time>
      </trkpt>
      <trkpt lat="47.48913" lon="6.77662">
        <ele>314.9</ele>
        <time>2016-01-10T09:15:14.000Z</time>
      </trkpt>
      <trkpt lat="47.48916" lon="6.77664">
        <ele>314.7</ele>
        <time>2016-01-10T09:15:15.000Z</time>
      </trkpt>
      <trkpt lat="47.48919" lon="6.77664">
        <ele>314</ele>
        <time>2016-01-10T09:15:16.000Z</time>
      </trkpt>
      <trkpt lat="47.4892" lon="6.77659">
        <ele>315.2</ele>
        <time>2016-01-10T09:15:22.000Z</time>
      </trkpt>
      <trkpt lat="47.48921" lon="6.77657">
        <ele>315.3</ele>
        <time>2016-01-10T09:15:23.000Z</time>
      </trkpt>
      <trkpt lat="47.48919" lon="6.77654">
        <ele>314.1</ele>
        <time>2016-01-10T09:15:26.000Z</time>
      </trkpt>
      <trkpt lat="47.48917" lon="6.77652">
        <ele>316.6</ele>
        <time>2016-01-10T09:15:27.000Z</time>
      </trkpt>
      <trkpt lat="47.48915" lon="6.77649">
        <ele>317.2</ele>
        <time>2016-01-10T09:15:28.000Z</time>
      </trkpt>
      <trkpt lat="47.48911" lon="6.77645">
        <ele>318.1</ele>
        <time>2016-01-10T09:15:29.000Z</time>
      </trkpt>
      <trkpt lat="47.48907" lon="6.77642">
        <ele>318.4</ele>
        <time>2016-01-10T09:15:30.000Z</time>
      </trkpt>
      <trkpt lat="47.48904" lon="6.77638">
        <ele>318.5</ele>
        <time>2016-01-10T09:15:31.000Z</time>
      </trkpt>
      <trkpt lat="47.489" lon="6.77635">
        <ele>318.4</ele>
        <time>2016-01-10T09:15:32.000Z</time>
      </trkpt>
      <trkpt lat="47.48896" lon="6.77632">
        <ele>318.1</ele>
        <time>2016-01-10T09:15:33.000Z</time>
      </trkpt>
      <trkpt lat="47.48892" lon="6.77624">
        <ele>321.5</ele>
        <time>2016-01-10T09:15:34.000Z</time>
      </trkpt>
      <trkpt lat="47.48888" lon="6.77619">
        <ele>321.9</ele>
        <time>2016-01-10T09:15:35.000Z</time>
      </trkpt>
      <trkpt lat="47.48885" lon="6.77616">
        <ele>321.7</ele>
        <time>2016-01-10T09:15:36.000Z</time>
      </trkpt>
      <trkpt lat="47.48879" lon="6.77611">
        <ele>321.2</ele>
        <time>2016-01-10T09:15:37.000Z</time>
      </trkpt>
      <trkpt lat="47.48875" lon="6.77607">
        <ele>318.9</ele>
        <time>2016-01-10T09:15:38.000Z</time>
      </trkpt>
      <trkpt lat="47.4887" lon="6.77604">
        <ele>318.3</ele>
        <time>2016-01-10T09:15:39.000Z</time>
      </trkpt>
      <trkpt lat="47.48867" lon="6.77602">
        <ele>318.3</ele>
        <time>2016-01-10T09:15:40.000Z</time>
      </trkpt>
      <trkpt lat="47.48864" lon="6.77601">
        <ele>318.1</ele>
        <time>2016-01-10T09:15:41.000Z</time>
      </trkpt>
      <trkpt lat="47.48862" lon="6.77596">
        <ele>316.4</ele>
        <time>2016-01-10T09:15:42.000Z</time>
      </trkpt>
      <trkpt lat="47.4886" lon="6.77593">
        <ele>315.7</ele>
        <time>2016-01-10T09:15:43.000Z</time>
      </trkpt>
      <trkpt lat="47.48856" lon="6.77591">
        <ele>316.6</ele>
        <time>2016-01-10T09:15:44.000Z</time>
      </trkpt>
      <trkpt lat="47.48854" lon="6.77589">
        <ele>316.4</ele>
        <time>2016-01-10T09:15:45.000Z</time>
      </trkpt>
      <trkpt lat="47.48852" lon="6.77587">
        <ele>317</ele>
        <time>2016-01-10T09:15:46.000Z</time>
      </trkpt>
      <trkpt lat="47.4885" lon="6.77585">
        <ele>317.1</ele>
        <time>2016-01-10T09:15:47.000Z</time>
      </trkpt>
      <trkpt lat="47.48845" lon="6.77586">
        <ele>317.1</ele>
        <time>2016-01-10T09:15:50.000Z</time>
      </trkpt>
      <trkpt lat="47.48844" lon="6.77585">
        <ele>317.7</ele>
        <time>2016-01-10T09:15:51.000Z</time>
      </trkpt>
      <trkpt lat="47.4884" lon="6.77583">
        <ele>317</ele>
        <time>2016-01-10T09:15:53.000Z</time>
      </trkpt>
      <trkpt lat="47.48838" lon="6.77582">
        <ele>315.9</ele>
        <time>2016-01-10T09:15:54.000Z</time>
      </trkpt>
      <trkpt lat="47.48835" lon="6.77578">
        <ele>319.4</ele>
        <time>2016-01-10T09:15:56.000Z</time>
      </trkpt>
      <trkpt lat="47.48833" lon="6.77577">
        <ele>320.9</ele>
        <time>2016-01-10T09:15:57.000Z</time>
      </trkpt>
      <trkpt lat="47.48831" lon="6.77575">
        <ele>321.2</ele>
        <time>2016-01-10T09:15:58.000Z</time>
      </trkpt>
      <trkpt lat="47.48829" lon="6.77573">
        <ele>322.2</ele>
        <time>2016-01-10T09:15:59.000Z</time>
      </trkpt>
      <trkpt lat="47.48826" lon="6.77571">
        <ele>322.3</ele>
        <time>2016-01-10T09:16:00.000Z</time>
      </trkpt>
      <trkpt lat="47.48824" lon="6.77569">
        <ele>323.1</ele>
        <time>2016-01-10T09:16:01.000Z</time>
      </trkpt>
      <trkpt lat="47.48821" lon="6.77566">
        <ele>322.8</ele>
        <time>2016-01-10T09:16:02.000Z</time>
      </trkpt>
      <trkpt lat="47.48819" lon="6.77564">
        <ele>322.7</ele>
        <time>2016-01-10T09:16:03.000Z</time>
      </trkpt>
      <trkpt lat="47.48816" lon="6.7756">
        <ele>325.5</ele>
        <time>2016-01-10T09:16:06.000Z</time>
      </trkpt>
      <trkpt lat="47.48815" lon="6.7756">
        <ele>326</ele>
        <time>2016-01-10T09:16:07.000Z</time>
      </trkpt>
      <trkpt lat="47.48811" lon="6.77558">
        <ele>326.7</ele>
        <time>2016-01-10T09:16:10.000Z</time>
      </trkpt>
      <trkpt lat="47.48811" lon="6.77558">
        <ele>328.7</ele>
        <time>2016-01-10T09:16:11.000Z</time>
      </trkpt>
      <trkpt lat="47.48807" lon="6.77556">
        <ele>328.8</ele>
        <time>2016-01-10T09:16:14.000Z</time>
      </trkpt>
      <trkpt lat="47.48806" lon="6.77555">
        <ele>330</ele>
        <time>2016-01-10T09:16:15.000Z</time>
      </trkpt>
      <trkpt lat="47.48803" lon="6.77552">
        <ele>328</ele>
        <time>2016-01-10T09:16:18.000Z</time>
      </trkpt>
      <trkpt lat="47.48802" lon="6.7755">
        <ele>328.5</ele>
        <time>2016-01-10T09:16:19.000Z</time>
      </trkpt>
      <trkpt lat="47.48799" lon="6.77547">
        <ele>329.9</ele>
        <time>2016-01-10T09:16:22.000Z</time>
      </trkpt>
      <trkpt lat="47.48798" lon="6.77546">
        <ele>329.7</ele>
        <time>2016-01-10T09:16:23.000Z</time>
      </trkpt>
      <trkpt lat="47.48795" lon="6.77543">
        <ele>330.5</ele>
        <time>2016-01-10T09:16:26.000Z</time>
      </trkpt>
      <trkpt lat="47.48794" lon="6.77542">
        <ele>332.2</ele>
        <time>2016-01-10T09:16:27.000Z</time>
      </trkpt>
      <trkpt lat="47.4879" lon="6.77541">
        <ele>334.7</ele>
        <time>2016-01-10T09:16:31.000Z</time>
      </trkpt>
      <trkpt lat="47.48789" lon="6.77541">
        <ele>334.8</ele>
        <time>2016-01-10T09:16:32.000Z</time>
      </trkpt>
      <trkpt lat="47.48785" lon="6.77539">
        <ele>335.2</ele>
        <time>2016-01-10T09:16:35.000Z</time>
      </trkpt>
      <trkpt lat="47.48784" lon="6.77538">
        <ele>334.6</ele>
        <time>2016-01-10T09:16:36.000Z</time>
      </trkpt>
      <trkpt lat="47.4878" lon="6.77536">
        <ele>334.5</ele>
        <time>2016-01-10T09:16:39.000Z</time>
      </trkpt>
      <trkpt lat="47.48779" lon="6.77535">
        <ele>334.9</ele>
        <time>2016-01-10T09:16:40.000Z</time>
      </trkpt>
      <trkpt lat="47.48776" lon="6.77534">
        <ele>337.1</ele>
        <time>2016-01-10T09:16:43.000Z</time>
      </trkpt>
      <trkpt lat="47.48775" lon="6.77534">
        <ele>337.2</ele>
        <time>2016-01-10T09:16:44.000Z</time>
      </trkpt>
      <trkpt lat="47.48771" lon="6.77534">
        <ele>338.4</ele>
        <time>2016-01-10T09:16:48.000Z</time>
      </trkpt>
      <trkpt lat="47.4877" lon="6.77533">
        <ele>339.8</ele>
        <time>2016-01-10T09:16:49.000Z</time>
      </trkpt>
      <trkpt lat="47.48766" lon="6.77532">
        <ele>340.1</ele>
        <time>2016-01-10T09:16:53.000Z</time>
      </trkpt>
      <trkpt lat="47.48765" lon="6.77531">
        <ele>340.5</ele>
        <time>2016-01-10T09:16:54.000Z</time>
      </trkpt>
      <trkpt lat="47.48761" lon="6.77529">
        <ele>340.4</ele>
        <time>2016-01-10T09:16:58.000Z</time>
      </trkpt>
      <trkpt lat="47.4876" lon="6.77529">
        <ele>339.3</ele>
        <time>2016-01-10T09:16:59.000Z</time>
      </trkpt>
      <trkpt lat="47.48758" lon="6.77525">
        <ele>339.6</ele>
        <time>2016-01-10T09:17:02.000Z</time>
      </trkpt>
      <trkpt lat="47.48757" lon="6.77524">
        <ele>338.9</ele>
        <time>2016-01-10T09:17:03.000Z</time>
      </trkpt>
      <trkpt lat="47.48754" lon="6.77521">
        <ele>338.7</ele>
        <time>2016-01-10T09:17:05.000Z</time>
      </trkpt>
      <trkpt lat="47.48753" lon="6.7752">
        <ele>338.5</ele>
        <time>2016-01-10T09:17:06.000Z</time>
      </trkpt>
      <trkpt lat="47.4875" lon="6.77516">
        <ele>339.9</ele>
        <time>2016-01-10T09:17:08.000Z</time>
      </trkpt>
      <trkpt lat="47.48749" lon="6.77515">
        <ele>340.2</ele>
        <time>2016-01-10T09:17:09.000Z</time>
      </trkpt>
      <trkpt lat="47.48745" lon="6.77512">
        <ele>340.3</ele>
        <time>2016-01-10T09:17:14.000Z</time>
      </trkpt>
      <trkpt lat="47.48744" lon="6.77511">
        <ele>340.5</ele>
        <time>2016-01-10T09:17:15.000Z</time>
      </trkpt>
      <trkpt lat="47.4874" lon="6.77508">
        <ele>340.1</ele>
        <time>2016-01-10T09:17:19.000Z</time>
      </trkpt>
      <trkpt lat="47.48739" lon="6.77507">
        <ele>339.9</ele>
        <time>2016-01-10T09:17:20.000Z</time>
      </trkpt>
      <trkpt lat="47.48736" lon="6.77504">
        <ele>340.3</ele>
        <time>2016-01-10T09:17:23.000Z</time>
      </trkpt>
      <trkpt lat="47.48735" lon="6.77502">
        <ele>340.4</ele>
        <time>2016-01-10T09:17:24.000Z</time>
      </trkpt>
      <trkpt lat="47.48732" lon="6.77499">
        <ele>343.1</ele>
        <time>2016-01-10T09:17:27.000Z</time>
      </trkpt>
      <trkpt lat="47.48731" lon="6.77498">
        <ele>343.1</ele>
        <time>2016-01-10T09:17:28.000Z</time>
      </trkpt>
      <trkpt lat="47.48727" lon="6.77496">
        <ele>343.8</ele>
        <time>2016-01-10T09:17:30.000Z</time>
      </trkpt>
      <trkpt lat="47.48726" lon="6.77495">
        <ele>343.9</ele>
        <time>2016-01-10T09:17:31.000Z</time>
      </trkpt>
      <trkpt lat="47.48722" lon="6.77492">
        <ele>339.1</ele>
        <time>2016-01-10T09:17:35.000Z</time>
      </trkpt>
      <trkpt lat="47.48721" lon="6.77492">
        <ele>341.2</ele>
        <time>2016-01-10T09:17:36.000Z</time>
      </trkpt>
      <trkpt lat="47.48718" lon="6.77489">
        <ele>341.3</ele>
        <time>2016-01-10T09:17:38.000Z</time>
      </trkpt>
      <trkpt lat="47.48716" lon="6.77488">
        <ele>341.1</ele>
        <time>2016-01-10T09:17:39.000Z</time>
      </trkpt>
      <trkpt lat="47.48714" lon="6.77482">
        <ele>338.7</ele>
        <time>2016-01-10T09:17:44.000Z</time>
      </trkpt>
      <trkpt lat="47.48715" lon="6.7748">
        <ele>337.3</ele>
        <time>2016-01-10T09:17:45.000Z</time>
      </trkpt>
      <trkpt lat="47.48719" lon="6.7748">
        <ele>339</ele>
        <time>2016-01-10T09:17:53.000Z</time>
      </trkpt>
      <trkpt lat="47.48719" lon="6.77479">
        <ele>337.4</ele>
        <time>2016-01-10T09:17:54.000Z</time>
      </trkpt>
      <trkpt lat="47.48717" lon="6.77485">
        <ele>332.9</ele>
        <time>2016-01-10T09:18:09.000Z</time>
      </trkpt>
      <trkpt lat="47.48717" lon="6.77485">
        <ele>332.7</ele>
        <time>2016-01-10T09:18:10.000Z</time>
      </trkpt>
      <trkpt lat="47.4872" lon="6.7749">
        <ele>329.3</ele>
        <time>2016-01-10T09:18:26.000Z</time>
      </trkpt>
      <trkpt lat="47.4872" lon="6.77491">
        <ele>327.8</ele>
        <time>2016-01-10T09:18:27.000Z</time>
      </trkpt>
      <trkpt lat="47.48723" lon="6.77496">
        <ele>328</ele>
        <time>2016-01-10T09:18:31.000Z</time>
      </trkpt>
      <trkpt lat="47.48724" lon="6.77497">
        <ele>327.4</ele>
        <time>2016-01-10T09:18:32.000Z</time>
      </trkpt>
      <trkpt lat="47.48726" lon="6.77498">
        <ele>327.4</ele>
        <time>2016-01-10T09:18:33.000Z</time>
      </trkpt>
      <trkpt lat="47.48728" lon="6.77499">
        <ele>327.5</ele>
        <time>2016-01-10T09:18:34.000Z</time>
      </trkpt>
      <trkpt lat="47.48731" lon="6.77501">
        <ele>327.6</ele>
        <time>2016-01-10T09:18:35.000Z</time>
      </trkpt>
      <trkpt lat="47.48733" lon="6.77503">
        <ele>328</ele>
        <time>2016-01-10T09:18:36.000Z</time>
      </trkpt>
      <trkpt lat="47.48735" lon="6.77505">
        <ele>327.3</ele>
        <time>2016-01-10T09:18:37.000Z</time>
      </trkpt>
      <trkpt lat="47.48737" lon="6.77507">
        <ele>326.7</ele>
        <time>2016-01-10T09:18:38.000Z</time>
      </trkpt>
      <trkpt lat="47.48732" lon="6.77506">
        <ele>327.3</ele>
        <time>2016-01-10T09:19:07.000Z</time>
      </trkpt>
      <trkpt lat="47.48732" lon="6.77506">
        <ele>326.8</ele>
        <time>2016-01-10T09:19:08.000Z</time>
      </trkpt>
      <trkpt lat="47.48728" lon="6.77503">
        <ele>325.8</ele>
        <time>2016-01-10T09:19:12.000Z</time>
      </trkpt>
      <trkpt lat="47.48727" lon="6.77502">
        <ele>326</ele>
        <time>2016-01-10T09:19:13.000Z</time>
      </trkpt>
      <trkpt lat="47.48724" lon="6.77499">
        <ele>327.9</ele>
        <time>2016-01-10T09:19:16.000Z</time>
      </trkpt>
      <trkpt lat="47.48723" lon="6.77498">
        <ele>328.5</ele>
        <time>2016-01-10T09:19:17.000Z</time>
      </trkpt>
      <trkpt lat="47.48719" lon="6.77496">
        <ele>326.8</ele>
        <time>2016-01-10T09:19:19.000Z</time>
      </trkpt>
      <trkpt lat="47.48718" lon="6.77494">
        <ele>325.4</ele>
        <time>2016-01-10T09:19:20.000Z</time>
      </trkpt>
      <trkpt lat="47.48716" lon="6.77492">
        <ele>325.8</ele>
        <time>2016-01-10T09:19:21.000Z</time>
      </trkpt>
      <trkpt lat="47.48714" lon="6.77491">
        <ele>323.6</ele>
        <time>2016-01-10T09:19:22.000Z</time>
      </trkpt>
      <trkpt lat="47.48711" lon="6.77488">
        <ele>324.9</ele>
        <time>2016-01-10T09:19:24.000Z</time>
      </trkpt>
      <trkpt lat="47.4871" lon="6.77486">
        <ele>323</ele>
        <time>2016-01-10T09:19:25.000Z</time>
      </trkpt>
      <trkpt lat="47.48706" lon="6.77482">
        <ele>327.2</ele>
        <time>2016-01-10T09:19:28.000Z</time>
      </trkpt>
      <trkpt lat="47.48705" lon="6.77483">
        <ele>328</ele>
        <time>2016-01-10T09:19:29.000Z</time>
      </trkpt>
      <trkpt lat="47.48702" lon="6.77487">
        <ele>331.2</ele>
        <time>2016-01-10T09:19:34.999Z</time>
      </trkpt>
      <trkpt lat="47.48702" lon="6.77488">
        <ele>330</ele>
        <time>2016-01-10T09:19:36.001Z</time>
      </trkpt>
      <trkpt lat="47.48698" lon="6.77489">
        <ele>335.2</ele>
        <time>2016-01-10T09:19:39.000Z</time>
      </trkpt>
      <trkpt lat="47.48697" lon="6.77488">
        <ele>335.9</ele>
        <time>2016-01-10T09:19:40.000Z</time>
      </trkpt>
      <trkpt lat="47.48695" lon="6.77493">
        <ele>336.9</ele>
        <time>2016-01-10T09:20:11.000Z</time>
      </trkpt>
      <trkpt lat="47.48695" lon="6.77494">
        <ele>336.1</ele>
        <time>2016-01-10T09:20:12.000Z</time>
      </trkpt>
      <trkpt lat="47.48691" lon="6.77499">
        <ele>333</ele>
        <time>2016-01-10T09:20:26.000Z</time>
      </trkpt>
      <trkpt lat="47.48691" lon="6.77499">
        <ele>333.1</ele>
        <time>2016-01-10T09:20:27.000Z</time>
      </trkpt>
      <trkpt lat="47.48689" lon="6.77504">
        <ele>332.8</ele>
        <time>2016-01-10T09:20:38.998Z</time>
      </trkpt>
      <trkpt lat="47.48688" lon="6.77504">
        <ele>332.9</ele>
        <time>2016-01-10T09:20:40.000Z</time>
      </trkpt>
      <trkpt lat="47.48684" lon="6.77504">
        <ele>332.1</ele>
        <time>2016-01-10T09:20:52.000Z</time>
      </trkpt>
      <trkpt lat="47.48684" lon="6.77505">
        <ele>332.2</ele>
        <time>2016-01-10T09:20:53.000Z</time>
      </trkpt>
      <trkpt lat="47.4868" lon="6.77502">
        <ele>331.2</ele>
        <time>2016-01-10T09:21:09.000Z</time>
      </trkpt>
      <trkpt lat="47.4868" lon="6.77502">
        <ele>330.8</ele>
        <time>2016-01-10T09:21:10.000Z</time>
      </trkpt>
      <trkpt lat="47.48676" lon="6.77505">
        <ele>329.5</ele>
        <time>2016-01-10T09:21:27.000Z</time>
      </trkpt>
      <trkpt lat="47.48675" lon="6.77506">
        <ele>329.2</ele>
        <time>2016-01-10T09:21:28.000Z</time>
      </trkpt>
      <trkpt lat="47.48673" lon="6.77511">
        <ele>329.8</ele>
        <time>2016-01-10T09:21:36.000Z</time>
      </trkpt>
      <trkpt lat="47.48673" lon="6.77512">
        <ele>330</ele>
        <time>2016-01-10T09:21:37.000Z</time>
      </trkpt>
      <trkpt lat="47.48671" lon="6.77506">
        <ele>335.9</ele>
        <time>2016-01-10T09:22:26.000Z</time>
      </trkpt>
      <trkpt lat="47.48671" lon="6.77505">
        <ele>336.1</ele>
        <time>2016-01-10T09:22:27.000Z</time>
      </trkpt>
      <trkpt lat="47.48675" lon="6.77507">
        <ele>336.3</ele>
        <time>2016-01-10T09:22:35.000Z</time>
      </trkpt>
      <trkpt lat="47.48675" lon="6.77509">
        <ele>337.9</ele>
        <time>2016-01-10T09:22:36.000Z</time>
      </trkpt>
      <trkpt lat="47.48672" lon="6.77513">
        <ele>341.4</ele>
        <time>2016-01-10T09:22:39.000Z</time>
      </trkpt>
      <trkpt lat="47.48671" lon="6.77513">
        <ele>342.2</ele>
        <time>2016-01-10T09:22:40.000Z</time>
      </trkpt>
      <trkpt lat="47.48667" lon="6.77516">
        <ele>341.6</ele>
        <time>2016-01-10T09:22:43.000Z</time>
      </trkpt>
      <trkpt lat="47.48666" lon="6.77517">
        <ele>341.8</ele>
        <time>2016-01-10T09:22:44.000Z</time>
      </trkpt>
      <trkpt lat="47.48668" lon="6.77513">
        <ele>351.8</ele>
        <time>2016-01-10T09:23:03.000Z</time>
      </trkpt>
      <trkpt lat="47.4867" lon="6.77511">
        <ele>352</ele>
        <time>2016-01-10T09:23:04.000Z</time>
      </trkpt>
      <trkpt lat="47.48671" lon="6.77508">
        <ele>352.1</ele>
        <time>2016-01-10T09:23:05.000Z</time>
      </trkpt>
      <trkpt lat="47.48674" lon="6.77504">
        <ele>352</ele>
        <time>2016-01-10T09:23:06.000Z</time>
      </trkpt>
      <trkpt lat="47.48677" lon="6.77499">
        <ele>351.5</ele>
        <time>2016-01-10T09:23:07.000Z</time>
      </trkpt>
      <trkpt lat="47.4868" lon="6.77495">
        <ele>351.3</ele>
        <time>2016-01-10T09:23:08.000Z</time>
      </trkpt>
      <trkpt lat="47.48683" lon="6.7749">
        <ele>346.6</ele>
        <time>2016-01-10T09:23:42.000Z</time>
      </trkpt>
      <trkpt lat="47.48683" lon="6.7749">
        <ele>346.3</ele>
        <time>2016-01-10T09:23:43.000Z</time>
      </trkpt>
      <trkpt lat="47.48684" lon="6.77497">
        <ele>343.3</ele>
        <time>2016-01-10T09:24:01.000Z</time>
      </trkpt>
      <trkpt lat="47.48683" lon="6.77497">
        <ele>342.6</ele>
        <time>2016-01-10T09:24:02.000Z</time>
      </trkpt>
      <trkpt lat="47.48687" lon="6.77498">
        <ele>339.8</ele>
        <time>2016-01-10T09:24:44.000Z</time>
      </trkpt>
      <trkpt lat="47.48688" lon="6.77497">
        <ele>339.2</ele>
        <time>2016-01-10T09:24:45.000Z</time>
      </trkpt>
      <trkpt lat="47.48688" lon="6.77491">
        <ele>338.2</ele>
        <time>2016-01-10T09:24:49.000Z</time>
      </trkpt>
      <trkpt lat="47.48688" lon="6.7749">
        <ele>337.5</ele>
        <time>2016-01-10T09:24:50.000Z</time>
      </trkpt>
      <trkpt lat="47.48692" lon="6.77493">
        <ele>334.8</ele>
        <time>2016-01-10T09:25:21.000Z</time>
      </trkpt>
      <trkpt lat="47.48692" lon="6.77494">
        <ele>334.2</ele>
        <time>2016-01-10T09:25:22.000Z</time>
      </trkpt>
      <trkpt lat="47.4869" lon="6.77499">
        <ele>333.7</ele>
        <time>2016-01-10T09:25:26.000Z</time>
      </trkpt>
      <trkpt lat="47.4869" lon="6.77501">
        <ele>334</ele>
        <time>2016-01-10T09:25:27.000Z</time>
      </trkpt>
      <trkpt lat="47.48686" lon="6.77504">
        <ele>331.8</ele>
        <time>2016-01-10T09:25:32.000Z</time>
      </trkpt>
      <trkpt lat="47.48685" lon="6.77505">
        <ele>332.6</ele>
        <time>2016-01-10T09:25:33.000Z</time>
      </trkpt>
      <trkpt lat="47.48683" lon="6.77509">
        <ele>334.6</ele>
        <time>2016-01-10T09:25:38.000Z</time>
      </trkpt>
      <trkpt lat="47.48682" lon="6.7751">
        <ele>335.3</ele>
        <time>2016-01-10T09:25:39.000Z</time>
      </trkpt>
      <trkpt lat="47.48678" lon="6.77506">
        <ele>335.6</ele>
        <time>2016-01-10T09:25:52.000Z</time>
      </trkpt>
      <trkpt lat="47.48678" lon="6.77506">
        <ele>336</ele>
        <time>2016-01-10T09:25:53.000Z</time>
      </trkpt>
      <trkpt lat="47.48674" lon="6.77509">
        <ele>339.1</ele>
        <time>2016-01-10T09:28:04.000Z</time>
      </trkpt>
      <trkpt lat="47.48672" lon="6.77511">
        <ele>339.6</ele>
        <time>2016-01-10T09:28:05.000Z</time>
      </trkpt>
      <trkpt lat="47.48671" lon="6.77513">
        <ele>339.9</ele>
        <time>2016-01-10T09:28:06.000Z</time>
      </trkpt>
      <trkpt lat="47.48669" lon="6.77515">
        <ele>341.3</ele>
        <time>2016-01-10T09:28:07.000Z</time>
      </trkpt>
      <trkpt lat="47.48666" lon="6.77519">
        <ele>342.5</ele>
        <time>2016-01-10T09:28:09.000Z</time>
      </trkpt>
      <trkpt lat="47.48665" lon="6.7752">
        <ele>342.9</ele>
        <time>2016-01-10T09:28:10.000Z</time>
      </trkpt>
      <trkpt lat="47.48661" lon="6.77521">
        <ele>338.2</ele>
        <time>2016-01-10T09:28:22.000Z</time>
      </trkpt>
      <trkpt lat="47.4866" lon="6.77521">
        <ele>338</ele>
        <time>2016-01-10T09:28:23.000Z</time>
      </trkpt>
      <trkpt lat="47.48657" lon="6.77523">
        <ele>335.9</ele>
        <time>2016-01-10T09:28:26.000Z</time>
      </trkpt>
      <trkpt lat="47.48656" lon="6.77524">
        <ele>336</ele>
        <time>2016-01-10T09:28:27.000Z</time>
      </trkpt>
      <trkpt lat="47.48651" lon="6.77524">
        <ele>336.9</ele>
        <time>2016-01-10T09:28:30.000Z</time>
      </trkpt>
      <trkpt lat="47.4865" lon="6.77523">
        <ele>335.3</ele>
        <time>2016-01-10T09:28:31.000Z</time>
      </trkpt>
      <trkpt lat="47.48646" lon="6.77521">
        <ele>335</ele>
        <time>2016-01-10T09:28:33.000Z</time>
      </trkpt>
      <trkpt lat="47.48645" lon="6.7752">
        <ele>333.7</ele>
        <time>2016-01-10T09:28:34.000Z</time>
      </trkpt>
      <trkpt lat="47.4864" lon="6.77518">
        <ele>333.5</ele>
        <time>2016-01-10T09:28:37.000Z</time>
      </trkpt>
      <trkpt lat="47.48638" lon="6.77518">
        <ele>333.6</ele>
        <time>2016-01-10T09:28:38.000Z</time>
      </trkpt>
      <trkpt lat="47.48635" lon="6.77516">
        <ele>331.9</ele>
        <time>2016-01-10T09:28:40.000Z</time>
      </trkpt>
      <trkpt lat="47.48633" lon="6.77515">
        <ele>332.2</ele>
        <time>2016-01-10T09:28:41.000Z</time>
      </trkpt>
      <trkpt lat="47.48629" lon="6.77512">
        <ele>333.1</ele>
        <time>2016-01-10T09:28:43.000Z</time>
      </trkpt>
      <trkpt lat="47.48627" lon="6.7751">
        <ele>333.7</ele>
        <time>2016-01-10T09:28:44.000Z</time>
      </trkpt>
      <trkpt lat="47.48625" lon="6.77509">
        <ele>334.7</ele>
        <time>2016-01-10T09:28:45.000Z</time>
      </trkpt>
      <trkpt lat="47.48622" lon="6.77507">
        <ele>335</ele>
        <time>2016-01-10T09:28:46.000Z</time>
      </trkpt>
      <trkpt lat="47.48619" lon="6.77506">
        <ele>334.7</ele>
        <time>2016-01-10T09:28:48.000Z</time>
      </trkpt>
      <trkpt lat="47.48617" lon="6.77504">
        <ele>334.1</ele>
        <time>2016-01-10T09:28:49.000Z</time>
      </trkpt>
      <trkpt lat="47.48613" lon="6.775">
        <ele>333.9</ele>
        <time>2016-01-10T09:28:51.000Z</time>
      </trkpt>
      <trkpt lat="47.48612" lon="6.77498">
        <ele>331.1</ele>
        <time>2016-01-10T09:28:52.000Z</time>
      </trkpt>
      <trkpt lat="47.4861" lon="6.77493">
        <ele>328.7</ele>
        <time>2016-01-10T09:28:54.000Z</time>
      </trkpt>
      <trkpt lat="47.48608" lon="6.77489">
        <ele>328.7</ele>
        <time>2016-01-10T09:28:55.000Z</time>
      </trkpt>
      <trkpt lat="47.48607" lon="6.77485">
        <ele>328.7</ele>
        <time>2016-01-10T09:28:56.000Z</time>
      </trkpt>
      <trkpt lat="47.48605" lon="6.77482">
        <ele>329.3</ele>
        <time>2016-01-10T09:28:57.000Z</time>
      </trkpt>
      <trkpt lat="47.48602" lon="6.77479">
        <ele>329.7</ele>
        <time>2016-01-10T09:28:58.000Z</time>
      </trkpt>
      <trkpt lat="47.486" lon="6.77477">
        <ele>330.4</ele>
        <time>2016-01-10T09:28:59.000Z</time>
      </trkpt>
      <trkpt lat="47.48597" lon="6.77476">
        <ele>331.9</ele>
        <time>2016-01-10T09:29:01.000Z</time>
      </trkpt>
      <trkpt lat="47.48595" lon="6.77477">
        <ele>333.1</ele>
        <time>2016-01-10T09:29:02.000Z</time>
      </trkpt>
      <trkpt lat="47.48591" lon="6.77477">
        <ele>334.5</ele>
        <time>2016-01-10T09:29:04.000Z</time>
      </trkpt>
      <trkpt lat="47.4859" lon="6.77475">
        <ele>334.2</ele>
        <time>2016-01-10T09:29:05.000Z</time>
      </trkpt>
      <trkpt lat="47.48588" lon="6.7747">
        <ele>335</ele>
        <time>2016-01-10T09:29:07.000Z</time>
      </trkpt>
      <trkpt lat="47.48587" lon="6.77466">
        <ele>334.8</ele>
        <time>2016-01-10T09:29:08.000Z</time>
      </trkpt>
      <trkpt lat="47.48584" lon="6.77461">
        <ele>332.5</ele>
        <time>2016-01-10T09:29:10.000Z</time>
      </trkpt>
      <trkpt lat="47.48582" lon="6.77459">
        <ele>331.4</ele>
        <time>2016-01-10T09:29:11.000Z</time>
      </trkpt>
      <trkpt lat="47.48579" lon="6.77455">
        <ele>329.7</ele>
        <time>2016-01-10T09:29:13.000Z</time>
      </trkpt>
      <trkpt lat="47.48576" lon="6.77454">
        <ele>332.4</ele>
        <time>2016-01-10T09:29:14.000Z</time>
      </trkpt>
      <trkpt lat="47.48573" lon="6.77453">
        <ele>332.4</ele>
        <time>2016-01-10T09:29:15.000Z</time>
      </trkpt>
      <trkpt lat="47.4857" lon="6.77453">
        <ele>332.1</ele>
        <time>2016-01-10T09:29:16.000Z</time>
      </trkpt>
      <trkpt lat="47.48568" lon="6.77452">
        <ele>331.7</ele>
        <time>2016-01-10T09:29:17.000Z</time>
      </trkpt>
      <trkpt lat="47.48565" lon="6.77451">
        <ele>332.6</ele>
        <time>2016-01-10T09:29:18.000Z</time>
      </trkpt>
      <trkpt lat="47.48562" lon="6.77449">
        <ele>332.8</ele>
        <time>2016-01-10T09:29:19.000Z</time>
      </trkpt>
      <trkpt lat="47.48559" lon="6.77447">
        <ele>332.9</ele>
        <time>2016-01-10T09:29:20.000Z</time>
      </trkpt>
      <trkpt lat="47.48556" lon="6.77445">
        <ele>331.1</ele>
        <time>2016-01-10T09:29:21.000Z</time>
      </trkpt>
      <trkpt lat="47.48554" lon="6.77442">
        <ele>329.7</ele>
        <time>2016-01-10T09:29:22.000Z</time>
      </trkpt>
      <trkpt lat="47.48551" lon="6.7744">
        <ele>329.8</ele>
        <time>2016-01-10T09:29:23.000Z</time>
      </trkpt>
      <trkpt lat="47.48549" lon="6.77436">
        <ele>329</ele>
        <time>2016-01-10T09:29:24.000Z</time>
      </trkpt>
      <trkpt lat="47.48546" lon="6.77433">
        <ele>328.7</ele>
        <time>2016-01-10T09:29:25.000Z</time>
      </trkpt>
      <trkpt lat="47.48544" lon="6.7743">
        <ele>329.4</ele>
        <time>2016-01-10T09:29:26.000Z</time>
      </trkpt>
      <trkpt lat="47.48541" lon="6.77427">
        <ele>329.4</ele>
        <time>2016-01-10T09:29:27.000Z</time>
      </trkpt>
      <trkpt lat="47.48538" lon="6.77425">
        <ele>329.8</ele>
        <time>2016-01-10T09:29:28.000Z</time>
      </trkpt>
      <trkpt lat="47.48535" lon="6.77424">
        <ele>331.4</ele>
        <time>2016-01-10T09:29:29.000Z</time>
      </trkpt>
      <trkpt lat="47.48533" lon="6.77424">
        <ele>331.8</ele>
        <time>2016-01-10T09:29:30.000Z</time>
      </trkpt>
      <trkpt lat="47.48529" lon="6.77423">
        <ele>333</ele>
        <time>2016-01-10T09:29:32.000Z</time>
      </trkpt>
      <trkpt lat="47.48527" lon="6.77422">
        <ele>332.3</ele>
        <time>2016-01-10T09:29:33.000Z</time>
      </trkpt>
      <trkpt lat="47.48524" lon="6.77418">
        <ele>329.3</ele>
        <time>2016-01-10T09:29:35.000Z</time>
      </trkpt>
      <trkpt lat="47.48522" lon="6.77416">
        <ele>329</ele>
        <time>2016-01-10T09:29:36.000Z</time>
      </trkpt>
      <trkpt lat="47.48519" lon="6.77413">
        <ele>332.1</ele>
        <time>2016-01-10T09:29:38.000Z</time>
      </trkpt>
      <trkpt lat="47.48517" lon="6.77411">
        <ele>332.5</ele>
        <time>2016-01-10T09:29:39.000Z</time>
      </trkpt>
      <trkpt lat="47.48514" lon="6.77409">
        <ele>333.2</ele>
        <time>2016-01-10T09:29:40.000Z</time>
      </trkpt>
      <trkpt lat="47.48512" lon="6.77407">
        <ele>334.4</ele>
        <time>2016-01-10T09:29:41.000Z</time>
      </trkpt>
      <trkpt lat="47.4851" lon="6.77405">
        <ele>334.7</ele>
        <time>2016-01-10T09:29:42.000Z</time>
      </trkpt>
      <trkpt lat="47.48508" lon="6.77403">
        <ele>335.3</ele>
        <time>2016-01-10T09:29:43.000Z</time>
      </trkpt>
      <trkpt lat="47.48505" lon="6.77401">
        <ele>331.4</ele>
        <time>2016-01-10T09:29:44.000Z</time>
      </trkpt>
      <trkpt lat="47.48503" lon="6.77399">
        <ele>331.2</ele>
        <time>2016-01-10T09:29:45.000Z</time>
      </trkpt>
      <trkpt lat="47.48501" lon="6.77397">
        <ele>329.4</ele>
        <time>2016-01-10T09:29:46.000Z</time>
      </trkpt>
      <trkpt lat="47.48499" lon="6.77395">
        <ele>328.8</ele>
        <time>2016-01-10T09:29:47.000Z</time>
      </trkpt>
      <trkpt lat="47.48498" lon="6.77393">
        <ele>327.8</ele>
        <time>2016-01-10T09:29:48.000Z</time>
      </trkpt>
      <trkpt lat="47.48496" lon="6.77391">
        <ele>327.8</ele>
        <time>2016-01-10T09:29:49.000Z</time>
      </trkpt>
      <trkpt lat="47.48494" lon="6.77388">
        <ele>327.9</ele>
        <time>2016-01-10T09:29:50.000Z</time>
      </trkpt>
      <trkpt lat="47.48492" lon="6.77386">
        <ele>328</ele>
        <time>2016-01-10T09:29:51.000Z</time>
      </trkpt>
      <trkpt lat="47.48489" lon="6.77383">
        <ele>326.9</ele>
        <time>2016-01-10T09:29:52.000Z</time>
      </trkpt>
      <trkpt lat="47.48487" lon="6.77381">
        <ele>326.6</ele>
        <time>2016-01-10T09:29:53.000Z</time>
      </trkpt>
      <trkpt lat="47.48485" lon="6.77379">
        <ele>328.4</ele>
        <time>2016-01-10T09:29:54.000Z</time>
      </trkpt>
      <trkpt lat="47.48483" lon="6.77376">
        <ele>329.8</ele>
        <time>2016-01-10T09:29:55.000Z</time>
      </trkpt>
      <trkpt lat="47.48481" lon="6.77374">
        <ele>330.3</ele>
        <time>2016-01-10T09:29:56.000Z</time>
      </trkpt>
      <trkpt lat="47.48478" lon="6.77371">
        <ele>330.7</ele>
        <time>2016-01-10T09:29:57.000Z</time>
      </trkpt>
      <trkpt lat="47.48476" lon="6.77369">
        <ele>331</ele>
        <time>2016-01-10T09:29:58.000Z</time>
      </trkpt>
      <trkpt lat="47.48474" lon="6.77367">
        <ele>331.5</ele>
        <time>2016-01-10T09:29:59.000Z</time>
      </trkpt>
      <trkpt lat="47.48472" lon="6.77366">
        <ele>333.3</ele>
        <time>2016-01-10T09:30:00.000Z</time>
      </trkpt>
      <trkpt lat="47.48469" lon="6.77365">
        <ele>334.5</ele>
        <time>2016-01-10T09:30:01.000Z</time>
      </trkpt>
      <trkpt lat="47.48467" lon="6.77364">
        <ele>335.5</ele>
        <time>2016-01-10T09:30:02.000Z</time>
      </trkpt>
      <trkpt lat="47.48464" lon="6.77361">
        <ele>333.5</ele>
        <time>2016-01-10T09:30:03.000Z</time>
      </trkpt>
      <trkpt lat="47.48462" lon="6.77359">
        <ele>334.2</ele>
        <time>2016-01-10T09:30:04.000Z</time>
      </trkpt>
      <trkpt lat="47.4846" lon="6.77356">
        <ele>333.4</ele>
        <time>2016-01-10T09:30:05.000Z</time>
      </trkpt>
      <trkpt lat="47.48458" lon="6.77352">
        <ele>333</ele>
        <time>2016-01-10T09:30:06.000Z</time>
      </trkpt>
      <trkpt lat="47.48457" lon="6.77347">
        <ele>335</ele>
        <time>2016-01-10T09:30:07.000Z</time>
      </trkpt>
      <trkpt lat="47.48455" lon="6.77343">
        <ele>335.4</ele>
        <time>2016-01-10T09:30:08.000Z</time>
      </trkpt>
      <trkpt lat="47.48452" lon="6.77339">
        <ele>336</ele>
        <time>2016-01-10T09:30:09.000Z</time>
      </trkpt>
      <trkpt lat="47.4845" lon="6.77336">
        <ele>335.6</ele>
        <time>2016-01-10T09:30:10.000Z</time>
      </trkpt>
      <trkpt lat="47.48448" lon="6.77334">
        <ele>335.7</ele>
        <time>2016-01-10T09:30:11.000Z</time>
      </trkpt>
      <trkpt lat="47.48446" lon="6.77332">
        <ele>336.2</ele>
        <time>2016-01-10T09:30:12.000Z</time>
      </trkpt>
      <trkpt lat="47.48445" lon="6.77329">
        <ele>336.9</ele>
        <time>2016-01-10T09:30:13.000Z</time>
      </trkpt>
      <trkpt lat="47.48443" lon="6.77327">
        <ele>337.2</ele>
        <time>2016-01-10T09:30:14.000Z</time>
      </trkpt>
      <trkpt lat="47.48441" lon="6.77324">
        <ele>337</ele>
        <time>2016-01-10T09:30:15.000Z</time>
      </trkpt>
      <trkpt lat="47.48438" lon="6.77321">
        <ele>337.1</ele>
        <time>2016-01-10T09:30:16.000Z</time>
      </trkpt>
      <trkpt lat="47.48435" lon="6.77318">
        <ele>338.2</ele>
        <time>2016-01-10T09:30:17.000Z</time>
      </trkpt>
      <trkpt lat="47.48432" lon="6.77315">
        <ele>339.9</ele>
        <time>2016-01-10T09:30:18.000Z</time>
      </trkpt>
      <trkpt lat="47.48429" lon="6.77313">
        <ele>340.2</ele>
        <time>2016-01-10T09:30:19.000Z</time>
      </trkpt>
      <trkpt lat="47.48426" lon="6.77311">
        <ele>340.7</ele>
        <time>2016-01-10T09:30:20.000Z</time>
      </trkpt>
      <trkpt lat="47.48423" lon="6.7731">
        <ele>337.3</ele>
        <time>2016-01-10T09:30:21.000Z</time>
      </trkpt>
      <trkpt lat="47.4842" lon="6.77309">
        <ele>338.2</ele>
        <time>2016-01-10T09:30:22.000Z</time>
      </trkpt>
      <trkpt lat="47.48417" lon="6.77307">
        <ele>337.8</ele>
        <time>2016-01-10T09:30:23.000Z</time>
      </trkpt>
      <trkpt lat="47.48414" lon="6.77304">
        <ele>338</ele>
        <time>2016-01-10T09:30:24.000Z</time>
      </trkpt>
      <trkpt lat="47.48412" lon="6.77301">
        <ele>334.6</ele>
        <time>2016-01-10T09:30:25.000Z</time>
      </trkpt>
      <trkpt lat="47.4841" lon="6.77297">
        <ele>333.8</ele>
        <time>2016-01-10T09:30:26.000Z</time>
      </trkpt>
      <trkpt lat="47.48409" lon="6.77293">
        <ele>333.5</ele>
        <time>2016-01-10T09:30:27.000Z</time>
      </trkpt>
      <trkpt lat="47.48407" lon="6.7729">
        <ele>333.9</ele>
        <time>2016-01-10T09:30:28.000Z</time>
      </trkpt>
      <trkpt lat="47.48405" lon="6.77286">
        <ele>334.4</ele>
        <time>2016-01-10T09:30:29.000Z</time>
      </trkpt>
      <trkpt lat="47.48403" lon="6.77283">
        <ele>334.4</ele>
        <time>2016-01-10T09:30:30.000Z</time>
      </trkpt>
      <trkpt lat="47.48401" lon="6.7728">
        <ele>334.3</ele>
        <time>2016-01-10T09:30:31.000Z</time>
      </trkpt>
      <trkpt lat="47.48398" lon="6.77278">
        <ele>336.5</ele>
        <time>2016-01-10T09:30:32.000Z</time>
      </trkpt>
      <trkpt lat="47.48396" lon="6.77276">
        <ele>337.5</ele>
        <time>2016-01-10T09:30:33.000Z</time>
      </trkpt>
      <trkpt lat="47.48393" lon="6.77274">
        <ele>337.6</ele>
        <time>2016-01-10T09:30:34.000Z</time>
      </trkpt>
      <trkpt lat="47.48391" lon="6.77272">
        <ele>336.3</ele>
        <time>2016-01-10T09:30:35.000Z</time>
      </trkpt>
      <trkpt lat="47.48388" lon="6.7727">
        <ele>334.2</ele>
        <time>2016-01-10T09:30:36.000Z</time>
      </trkpt>
      <trkpt lat="47.48386" lon="6.77268">
        <ele>334.7</ele>
        <time>2016-01-10T09:30:37.000Z</time>
      </trkpt>
      <trkpt lat="47.48384" lon="6.77265">
        <ele>334.5</ele>
        <time>2016-01-10T09:30:38.000Z</time>
      </trkpt>
      <trkpt lat="47.48381" lon="6.77263">
        <ele>335.9</ele>
        <time>2016-01-10T09:30:39.000Z</time>
      </trkpt>
      <trkpt lat="47.48378" lon="6.77261">
        <ele>337.4</ele>
        <time>2016-01-10T09:30:40.000Z</time>
      </trkpt>
      <trkpt lat="47.48375" lon="6.7726">
        <ele>338.3</ele>
        <time>2016-01-10T09:30:41.000Z</time>
      </trkpt>
      <trkpt lat="47.48371" lon="6.77259">
        <ele>338.9</ele>
        <time>2016-01-10T09:30:42.000Z</time>
      </trkpt>
      <trkpt lat="47.48366" lon="6.77258">
        <ele>339.3</ele>
        <time>2016-01-10T09:30:43.000Z</time>
      </trkpt>
      <trkpt lat="47.48362" lon="6.77255">
        <ele>339</ele>
        <time>2016-01-10T09:30:44.000Z</time>
      </trkpt>
      <trkpt lat="47.48357" lon="6.77253">
        <ele>339</ele>
        <time>2016-01-10T09:30:45.000Z</time>
      </trkpt>
      <trkpt lat="47.48353" lon="6.7725">
        <ele>339.5</ele>
        <time>2016-01-10T09:30:46.000Z</time>
      </trkpt>
      <trkpt lat="47.48349" lon="6.77247">
        <ele>340.9</ele>
        <time>2016-01-10T09:30:47.000Z</time>
      </trkpt>
      <trkpt lat="47.48346" lon="6.77244">
        <ele>341.3</ele>
        <time>2016-01-10T09:30:48.000Z</time>
      </trkpt>
      <trkpt lat="47.48342" lon="6.77242">
        <ele>341.1</ele>
        <time>2016-01-10T09:30:49.000Z</time>
      </trkpt>
      <trkpt lat="47.48339" lon="6.77239">
        <ele>341.6</ele>
        <time>2016-01-10T09:30:50.000Z</time>
      </trkpt>
      <trkpt lat="47.48336" lon="6.77238">
        <ele>342.6</ele>
        <time>2016-01-10T09:30:51.000Z</time>
      </trkpt>
      <trkpt lat="47.48333" lon="6.77237">
        <ele>343.2</ele>
        <time>2016-01-10T09:30:52.000Z</time>
      </trkpt>
      <trkpt lat="47.4833" lon="6.77237">
        <ele>344</ele>
        <time>2016-01-10T09:30:53.000Z</time>
      </trkpt>
      <trkpt lat="47.48327" lon="6.77237">
        <ele>344.7</ele>
        <time>2016-01-10T09:30:54.000Z</time>
      </trkpt>
      <trkpt lat="47.48324" lon="6.77236">
        <ele>344.4</ele>
        <time>2016-01-10T09:30:55.000Z</time>
      </trkpt>
      <trkpt lat="47.48321" lon="6.77235">
        <ele>345.1</ele>
        <time>2016-01-10T09:30:56.000Z</time>
      </trkpt>
      <trkpt lat="47.48318" lon="6.77233">
        <ele>345</ele>
        <time>2016-01-10T09:30:57.000Z</time>
      </trkpt>
      <trkpt lat="47.48316" lon="6.77231">
        <ele>344.6</ele>
        <time>2016-01-10T09:30:58.000Z</time>
      </trkpt>
      <trkpt lat="47.48313" lon="6.77229">
        <ele>345.6</ele>
        <time>2016-01-10T09:30:59.000Z</time>
      </trkpt>
      <trkpt lat="47.4831" lon="6.77227">
        <ele>344.9</ele>
        <time>2016-01-10T09:31:00.000Z</time>
      </trkpt>
      <trkpt lat="47.48306" lon="6.77225">
        <ele>344.7</ele>
        <time>2016-01-10T09:31:01.000Z</time>
      </trkpt>
      <trkpt lat="47.48303" lon="6.77224">
        <ele>344.5</ele>
        <time>2016-01-10T09:31:02.000Z</time>
      </trkpt>
      <trkpt lat="47.48299" lon="6.77223">
        <ele>345.1</ele>
        <time>2016-01-10T09:31:03.000Z</time>
      </trkpt>
      <trkpt lat="47.48296" lon="6.77222">
        <ele>345.4</ele>
        <time>2016-01-10T09:31:04.000Z</time>
      </trkpt>
      <trkpt lat="47.48294" lon="6.77221">
        <ele>346.7</ele>
        <time>2016-01-10T09:31:05.000Z</time>
      </trkpt>
      <trkpt lat="47.48291" lon="6.7722">
        <ele>347.5</ele>
        <time>2016-01-10T09:31:06.000Z</time>
      </trkpt>
      <trkpt lat="47.48287" lon="6.77221">
        <ele>347.4</ele>
        <time>2016-01-10T09:31:08.000Z</time>
      </trkpt>
      <trkpt lat="47.48286" lon="6.77222">
        <ele>347.6</ele>
        <time>2016-01-10T09:31:09.000Z</time>
      </trkpt>
      <trkpt lat="47.48282" lon="6.77219">
        <ele>346.1</ele>
        <time>2016-01-10T09:31:21.000Z</time>
      </trkpt>
      <trkpt lat="47.48281" lon="6.77219">
        <ele>346.1</ele>
        <time>2016-01-10T09:31:22.000Z</time>
      </trkpt>
      <trkpt lat="47.48284" lon="6.77213">
        <ele>341.2</ele>
        <time>2016-01-10T09:31:54.000Z</time>
      </trkpt>
      <trkpt lat="47.48284" lon="6.77212">
        <ele>341.4</ele>
        <time>2016-01-10T09:31:55.000Z</time>
      </trkpt>
      <trkpt lat="47.48284" lon="6.77206">
        <ele>339.8</ele>
        <time>2016-01-10T09:31:58.000Z</time>
      </trkpt>
      <trkpt lat="47.48284" lon="6.77203">
        <ele>339.3</ele>
        <time>2016-01-10T09:31:59.000Z</time>
      </trkpt>
      <trkpt lat="47.48284" lon="6.77199">
        <ele>338.7</ele>
        <time>2016-01-10T09:32:00.000Z</time>
      </trkpt>
      <trkpt lat="47.48284" lon="6.77195">
        <ele>337.9</ele>
        <time>2016-01-10T09:32:01.000Z</time>
      </trkpt>
      <trkpt lat="47.48285" lon="6.77192">
        <ele>337</ele>
        <time>2016-01-10T09:32:02.000Z</time>
      </trkpt>
      <trkpt lat="47.48286" lon="6.77188">
        <ele>335.9</ele>
        <time>2016-01-10T09:32:03.000Z</time>
      </trkpt>
      <trkpt lat="47.48288" lon="6.77185">
        <ele>336.1</ele>
        <time>2016-01-10T09:32:04.000Z</time>
      </trkpt>
      <trkpt lat="47.48291" lon="6.77182">
        <ele>334.7</ele>
        <time>2016-01-10T09:32:05.000Z</time>
      </trkpt>
      <trkpt lat="47.48294" lon="6.77179">
        <ele>333.7</ele>
        <time>2016-01-10T09:32:06.000Z</time>
      </trkpt>
      <trkpt lat="47.48298" lon="6.77176">
        <ele>333.5</ele>
        <time>2016-01-10T09:32:07.000Z</time>
      </trkpt>
      <trkpt lat="47.483" lon="6.77173">
        <ele>331.8</ele>
        <time>2016-01-10T09:32:08.000Z</time>
      </trkpt>
      <trkpt lat="47.48301" lon="6.7717">
        <ele>331.2</ele>
        <time>2016-01-10T09:32:09.000Z</time>
      </trkpt>
      <trkpt lat="47.48303" lon="6.77165">
        <ele>327.5</ele>
        <time>2016-01-10T09:32:11.000Z</time>
      </trkpt>
      <trkpt lat="47.48305" lon="6.77163">
        <ele>326.2</ele>
        <time>2016-01-10T09:32:12.000Z</time>
      </trkpt>
      <trkpt lat="47.48309" lon="6.77161">
        <ele>327</ele>
        <time>2016-01-10T09:32:14.000Z</time>
      </trkpt>
      <trkpt lat="47.4831" lon="6.7716">
        <ele>326.5</ele>
        <time>2016-01-10T09:32:15.000Z</time>
      </trkpt>
      <trkpt lat="47.48308" lon="6.77157">
        <ele>328.7</ele>
        <time>2016-01-10T09:32:21.000Z</time>
      </trkpt>
      <trkpt lat="47.48306" lon="6.77158">
        <ele>328.7</ele>
        <time>2016-01-10T09:32:22.000Z</time>
      </trkpt>
      <trkpt lat="47.48302" lon="6.77159">
        <ele>328.7</ele>
        <time>2016-01-10T09:32:25.000Z</time>
      </trkpt>
      <trkpt lat="47.483" lon="6.7716">
        <ele>328.9</ele>
        <time>2016-01-10T09:32:26.000Z</time>
      </trkpt>
      <trkpt lat="47.48296" lon="6.77161">
        <ele>329.6</ele>
        <time>2016-01-10T09:32:28.000Z</time>
      </trkpt>
      <trkpt lat="47.48294" lon="6.77161">
        <ele>329.6</ele>
        <time>2016-01-10T09:32:29.000Z</time>
      </trkpt>
      <trkpt lat="47.48292" lon="6.77156">
        <ele>329.9</ele>
        <time>2016-01-10T09:32:44.000Z</time>
      </trkpt>
      <trkpt lat="47.48291" lon="6.77155">
        <ele>330.3</ele>
        <time>2016-01-10T09:32:45.000Z</time>
      </trkpt>
      <trkpt lat="47.4829" lon="6.7715">
        <ele>329.1</ele>
        <time>2016-01-10T09:32:47.000Z</time>
      </trkpt>
      <trkpt lat="47.4829" lon="6.77148">
        <ele>328.7</ele>
        <time>2016-01-10T09:32:48.000Z</time>
      </trkpt>
      <trkpt lat="47.4829" lon="6.77143">
        <ele>327.2</ele>
        <time>2016-01-10T09:32:50.000Z</time>
      </trkpt>
      <trkpt lat="47.48291" lon="6.77141">
        <ele>326.5</ele>
        <time>2016-01-10T09:32:51.000Z</time>
      </trkpt>
      <trkpt lat="47.48294" lon="6.77137">
        <ele>325.5</ele>
        <time>2016-01-10T09:32:53.000Z</time>
      </trkpt>
      <trkpt lat="47.48295" lon="6.77136">
        <ele>325.6</ele>
        <time>2016-01-10T09:32:54.000Z</time>
      </trkpt>
      <trkpt lat="47.48297" lon="6.77131">
        <ele>323.8</ele>
        <time>2016-01-10T09:32:56.000Z</time>
      </trkpt>
      <trkpt lat="47.48298" lon="6.77128">
        <ele>322.6</ele>
        <time>2016-01-10T09:32:57.000Z</time>
      </trkpt>
      <trkpt lat="47.48299" lon="6.77125">
        <ele>321.8</ele>
        <time>2016-01-10T09:32:58.000Z</time>
      </trkpt>
      <trkpt lat="47.483" lon="6.77121">
        <ele>320.6</ele>
        <time>2016-01-10T09:32:59.000Z</time>
      </trkpt>
      <trkpt lat="47.48301" lon="6.77118">
        <ele>321</ele>
        <time>2016-01-10T09:33:00.000Z</time>
      </trkpt>
      <trkpt lat="47.48302" lon="6.77114">
        <ele>321.2</ele>
        <time>2016-01-10T09:33:01.000Z</time>
      </trkpt>
      <trkpt lat="47.48302" lon="6.77108">
        <ele>318.2</ele>
        <time>2016-01-10T09:33:03.000Z</time>
      </trkpt>
      <trkpt lat="47.48301" lon="6.77105">
        <ele>318.8</ele>
        <time>2016-01-10T09:33:04.000Z</time>
      </trkpt>
      <trkpt lat="47.48298" lon="6.77104">
        <ele>319.3</ele>
        <time>2016-01-10T09:33:05.000Z</time>
      </trkpt>
      <trkpt lat="47.48295" lon="6.77103">
        <ele>320.1</ele>
        <time>2016-01-10T09:33:06.000Z</time>
      </trkpt>
      <trkpt lat="47.48291" lon="6.77103">
        <ele>320.4</ele>
        <time>2016-01-10T09:33:07.000Z</time>
      </trkpt>
      <trkpt lat="47.48287" lon="6.77103">
        <ele>320.6</ele>
        <time>2016-01-10T09:33:08.000Z</time>
      </trkpt>
      <trkpt lat="47.48283" lon="6.77104">
        <ele>320.5</ele>
        <time>2016-01-10T09:33:09.000Z</time>
      </trkpt>
      <trkpt lat="47.48279" lon="6.77106">
        <ele>321.9</ele>
        <time>2016-01-10T09:33:10.000Z</time>
      </trkpt>
      <trkpt lat="47.48276" lon="6.77109">
        <ele>322.4</ele>
        <time>2016-01-10T09:33:11.000Z</time>
      </trkpt>
      <trkpt lat="47.48272" lon="6.77112">
        <ele>322.5</ele>
        <time>2016-01-10T09:33:12.000Z</time>
      </trkpt>
      <trkpt lat="47.4827" lon="6.77115">
        <ele>325.1</ele>
        <time>2016-01-10T09:33:13.000Z</time>
      </trkpt>
      <trkpt lat="47.48267" lon="6.77119">
        <ele>324.7</ele>
        <time>2016-01-10T09:33:14.000Z</time>
      </trkpt>
      <trkpt lat="47.48264" lon="6.77122">
        <ele>323.8</ele>
        <time>2016-01-10T09:33:15.000Z</time>
      </trkpt>
      <trkpt lat="47.48262" lon="6.77125">
        <ele>323.7</ele>
        <time>2016-01-10T09:33:16.000Z</time>
      </trkpt>
      <trkpt lat="47.48258" lon="6.77127">
        <ele>323.9</ele>
        <time>2016-01-10T09:33:18.000Z</time>
      </trkpt>
      <trkpt lat="47.48257" lon="6.77127">
        <ele>324.9</ele>
        <time>2016-01-10T09:33:19.000Z</time>
      </trkpt>
      <trkpt lat="47.48254" lon="6.77122">
        <ele>323.6</ele>
        <time>2016-01-10T09:33:22.000Z</time>
      </trkpt>
      <trkpt lat="47.48255" lon="6.77119">
        <ele>323.1</ele>
        <time>2016-01-10T09:33:23.000Z</time>
      </trkpt>
      <trkpt lat="47.48255" lon="6.77115">
        <ele>324</ele>
        <time>2016-01-10T09:33:24.000Z</time>
      </trkpt>
      <trkpt lat="47.48257" lon="6.7711">
        <ele>324</ele>
        <time>2016-01-10T09:33:25.000Z</time>
      </trkpt>
      <trkpt lat="47.48258" lon="6.77105">
        <ele>323.8</ele>
        <time>2016-01-10T09:33:26.000Z</time>
      </trkpt>
      <trkpt lat="47.4826" lon="6.771">
        <ele>324.8</ele>
        <time>2016-01-10T09:33:27.000Z</time>
      </trkpt>
      <trkpt lat="47.48262" lon="6.77095">
        <ele>323.4</ele>
        <time>2016-01-10T09:33:28.000Z</time>
      </trkpt>
      <trkpt lat="47.48263" lon="6.77089">
        <ele>324.2</ele>
        <time>2016-01-10T09:33:29.000Z</time>
      </trkpt>
      <trkpt lat="47.48264" lon="6.77083">
        <ele>324.2</ele>
        <time>2016-01-10T09:33:30.000Z</time>
      </trkpt>
      <trkpt lat="47.48265" lon="6.77078">
        <ele>324.4</ele>
        <time>2016-01-10T09:33:31.000Z</time>
      </trkpt>
      <trkpt lat="47.48266" lon="6.77073">
        <ele>322.9</ele>
        <time>2016-01-10T09:33:32.000Z</time>
      </trkpt>
      <trkpt lat="47.48268" lon="6.77067">
        <ele>321.7</ele>
        <time>2016-01-10T09:33:33.000Z</time>
      </trkpt>
      <trkpt lat="47.48269" lon="6.77062">
        <ele>321.1</ele>
        <time>2016-01-10T09:33:34.000Z</time>
      </trkpt>
      <trkpt lat="47.48271" lon="6.77056">
        <ele>321.2</ele>
        <time>2016-01-10T09:33:35.000Z</time>
      </trkpt>
      <trkpt lat="47.48273" lon="6.77051">
        <ele>320.9</ele>
        <time>2016-01-10T09:33:36.000Z</time>
      </trkpt>
      <trkpt lat="47.48275" lon="6.77045">
        <ele>321</ele>
        <time>2016-01-10T09:33:37.000Z</time>
      </trkpt>
      <trkpt lat="47.48276" lon="6.7704">
        <ele>320.9</ele>
        <time>2016-01-10T09:33:38.000Z</time>
      </trkpt>
      <trkpt lat="47.48278" lon="6.77035">
        <ele>319.2</ele>
        <time>2016-01-10T09:33:39.000Z</time>
      </trkpt>
      <trkpt lat="47.48279" lon="6.77031">
        <ele>319.7</ele>
        <time>2016-01-10T09:33:40.000Z</time>
      </trkpt>
      <trkpt lat="47.48279" lon="6.77028">
        <ele>319.9</ele>
        <time>2016-01-10T09:33:41.000Z</time>
      </trkpt>
      <trkpt lat="47.48278" lon="6.77023">
        <ele>318.4</ele>
        <time>2016-01-10T09:33:46.000Z</time>
      </trkpt>
      <trkpt lat="47.48277" lon="6.77021">
        <ele>318.1</ele>
        <time>2016-01-10T09:33:47.000Z</time>
      </trkpt>
      <trkpt lat="47.48277" lon="6.77016">
        <ele>317.3</ele>
        <time>2016-01-10T09:33:50.000Z</time>
      </trkpt>
      <trkpt lat="47.48278" lon="6.77013">
        <ele>318</ele>
        <time>2016-01-10T09:33:51.000Z</time>
      </trkpt>
      <trkpt lat="47.48279" lon="6.7701">
        <ele>318.4</ele>
        <time>2016-01-10T09:33:52.000Z</time>
      </trkpt>
      <trkpt lat="47.48279" lon="6.77006">
        <ele>318.2</ele>
        <time>2016-01-10T09:33:53.000Z</time>
      </trkpt>
      <trkpt lat="47.48276" lon="6.77002">
        <ele>317.6</ele>
        <time>2016-01-10T09:33:55.000Z</time>
      </trkpt>
      <trkpt lat="47.48273" lon="6.77001">
        <ele>317.8</ele>
        <time>2016-01-10T09:33:56.000Z</time>
      </trkpt>
      <trkpt lat="47.48269" lon="6.77">
        <ele>317.8</ele>
        <time>2016-01-10T09:33:57.000Z</time>
      </trkpt>
      <trkpt lat="47.48265" lon="6.76999">
        <ele>318.2</ele>
        <time>2016-01-10T09:33:58.000Z</time>
      </trkpt>
      <trkpt lat="47.4826" lon="6.76998">
        <ele>318.1</ele>
        <time>2016-01-10T09:33:59.000Z</time>
      </trkpt>
      <trkpt lat="47.48256" lon="6.76996">
        <ele>318.4</ele>
        <time>2016-01-10T09:34:00.000Z</time>
      </trkpt>
      <trkpt lat="47.48252" lon="6.76994">
        <ele>318.3</ele>
        <time>2016-01-10T09:34:01.000Z</time>
      </trkpt>
      <trkpt lat="47.48248" lon="6.76992">
        <ele>318.7</ele>
        <time>2016-01-10T09:34:02.000Z</time>
      </trkpt>
      <trkpt lat="47.48244" lon="6.7699">
        <ele>318.3</ele>
        <time>2016-01-10T09:34:03.000Z</time>
      </trkpt>
      <trkpt lat="47.4824" lon="6.76988">
        <ele>319.2</ele>
        <time>2016-01-10T09:34:04.000Z</time>
      </trkpt>
      <trkpt lat="47.48235" lon="6.76986">
        <ele>319.3</ele>
        <time>2016-01-10T09:34:05.000Z</time>
      </trkpt>
      <trkpt lat="47.48231" lon="6.76984">
        <ele>319</ele>
        <time>2016-01-10T09:34:06.000Z</time>
      </trkpt>
      <trkpt lat="47.48227" lon="6.76981">
        <ele>319.1</ele>
        <time>2016-01-10T09:34:07.000Z</time>
      </trkpt>
      <trkpt lat="47.48224" lon="6.76979">
        <ele>319.2</ele>
        <time>2016-01-10T09:34:08.000Z</time>
      </trkpt>
      <trkpt lat="47.4822" lon="6.76976">
        <ele>319.3</ele>
        <time>2016-01-10T09:34:09.000Z</time>
      </trkpt>
      <trkpt lat="47.48216" lon="6.76974">
        <ele>319.6</ele>
        <time>2016-01-10T09:34:10.000Z</time>
      </trkpt>
      <trkpt lat="47.48212" lon="6.76971">
        <ele>319.4</ele>
        <time>2016-01-10T09:34:11.000Z</time>
      </trkpt>
      <trkpt lat="47.48207" lon="6.76967">
        <ele>319.7</ele>
        <time>2016-01-10T09:34:12.000Z</time>
      </trkpt>
      <trkpt lat="47.48203" lon="6.76964">
        <ele>319.7</ele>
        <time>2016-01-10T09:34:13.000Z</time>
      </trkpt>
      <trkpt lat="47.48199" lon="6.76962">
        <ele>319.7</ele>
        <time>2016-01-10T09:34:14.000Z</time>
      </trkpt>
      <trkpt lat="47.48195" lon="6.7696">
        <ele>319.3</ele>
        <time>2016-01-10T09:34:15.000Z</time>
      </trkpt>
      <trkpt lat="47.4819" lon="6.76958">
        <ele>319.6</ele>
        <time>2016-01-10T09:34:16.000Z</time>
      </trkpt>
      <trkpt lat="47.48186" lon="6.76956">
        <ele>319.7</ele>
        <time>2016-01-10T09:34:17.000Z</time>
      </trkpt>
      <trkpt lat="47.48182" lon="6.76954">
        <ele>319.9</ele>
        <time>2016-01-10T09:34:18.000Z</time>
      </trkpt>
      <trkpt lat="47.48178" lon="6.76951">
        <ele>319.3</ele>
        <time>2016-01-10T09:34:19.000Z</time>
      </trkpt>
      <trkpt lat="47.48173" lon="6.76949">
        <ele>319.3</ele>
        <time>2016-01-10T09:34:20.000Z</time>
      </trkpt>
      <trkpt lat="47.48169" lon="6.76947">
        <ele>319.1</ele>
        <time>2016-01-10T09:34:21.000Z</time>
      </trkpt>
      <trkpt lat="47.48165" lon="6.76945">
        <ele>319</ele>
        <time>2016-01-10T09:34:22.000Z</time>
      </trkpt>
      <trkpt lat="47.4816" lon="6.76943">
        <ele>319.3</ele>
        <time>2016-01-10T09:34:23.000Z</time>
      </trkpt>
      <trkpt lat="47.48156" lon="6.76941">
        <ele>319.2</ele>
        <time>2016-01-10T09:34:24.023Z</time>
      </trkpt>
      <trkpt lat="47.48152" lon="6.76939">
        <ele>319.5</ele>
        <time>2016-01-10T09:34:25.000Z</time>
      </trkpt>
      <trkpt lat="47.48147" lon="6.76936">
        <ele>318.6</ele>
        <time>2016-01-10T09:34:26.000Z</time>
      </trkpt>
      <trkpt lat="47.48143" lon="6.76933">
        <ele>318.2</ele>
        <time>2016-01-10T09:34:27.000Z</time>
      </trkpt>
      <trkpt lat="47.48139" lon="6.7693">
        <ele>318</ele>
        <time>2016-01-10T09:34:28.000Z</time>
      </trkpt>
      <trkpt lat="47.48135" lon="6.76927">
        <ele>318.3</ele>
        <time>2016-01-10T09:34:29.000Z</time>
      </trkpt>
      <trkpt lat="47.48131" lon="6.76924">
        <ele>318.2</ele>
        <time>2016-01-10T09:34:30.000Z</time>
      </trkpt>
      <trkpt lat="47.48127" lon="6.76921">
        <ele>318.2</ele>
        <time>2016-01-10T09:34:31.000Z</time>
      </trkpt>
      <trkpt lat="47.48123" lon="6.76919">
        <ele>318.6</ele>
        <time>2016-01-10T09:34:32.000Z</time>
      </trkpt>
      <trkpt lat="47.48119" lon="6.76916">
        <ele>319</ele>
        <time>2016-01-10T09:34:33.000Z</time>
      </trkpt>
      <trkpt lat="47.48115" lon="6.76914">
        <ele>319.8</ele>
        <time>2016-01-10T09:34:34.000Z</time>
      </trkpt>
      <trkpt lat="47.48111" lon="6.7691">
        <ele>319.1</ele>
        <time>2016-01-10T09:34:35.000Z</time>
      </trkpt>
      <trkpt lat="47.48107" lon="6.76908">
        <ele>319.1</ele>
        <time>2016-01-10T09:34:36.000Z</time>
      </trkpt>
      <trkpt lat="47.48103" lon="6.76906">
        <ele>318.9</ele>
        <time>2016-01-10T09:34:37.000Z</time>
      </trkpt>
      <trkpt lat="47.48099" lon="6.76903">
        <ele>318.6</ele>
        <time>2016-01-10T09:34:38.000Z</time>
      </trkpt>
      <trkpt lat="47.48095" lon="6.76899">
        <ele>318</ele>
        <time>2016-01-10T09:34:39.000Z</time>
      </trkpt>
      <trkpt lat="47.48091" lon="6.76895">
        <ele>317.9</ele>
        <time>2016-01-10T09:34:40.000Z</time>
      </trkpt>
      <trkpt lat="47.48087" lon="6.76891">
        <ele>318</ele>
        <time>2016-01-10T09:34:41.000Z</time>
      </trkpt>
      <trkpt lat="47.48083" lon="6.76888">
        <ele>318.2</ele>
        <time>2016-01-10T09:34:42.000Z</time>
      </trkpt>
      <trkpt lat="47.48079" lon="6.76884">
        <ele>318.3</ele>
        <time>2016-01-10T09:34:43.000Z</time>
      </trkpt>
      <trkpt lat="47.48075" lon="6.76881">
        <ele>318.2</ele>
        <time>2016-01-10T09:34:44.000Z</time>
      </trkpt>
      <trkpt lat="47.48072" lon="6.76877">
        <ele>318.7</ele>
        <time>2016-01-10T09:34:45.000Z</time>
      </trkpt>
      <trkpt lat="47.48068" lon="6.76873">
        <ele>319.3</ele>
        <time>2016-01-10T09:34:46.000Z</time>
      </trkpt>
      <trkpt lat="47.48064" lon="6.76868">
        <ele>319.1</ele>
        <time>2016-01-10T09:34:47.000Z</time>
      </trkpt>
      <trkpt lat="47.4806" lon="6.76864">
        <ele>319.2</ele>
        <time>2016-01-10T09:34:48.000Z</time>
      </trkpt>
      <trkpt lat="47.48057" lon="6.76859">
        <ele>319</ele>
        <time>2016-01-10T09:34:49.000Z</time>
      </trkpt>
      <trkpt lat="47.48054" lon="6.76855">
        <ele>319.4</ele>
        <time>2016-01-10T09:34:50.000Z</time>
      </trkpt>
      <trkpt lat="47.4805" lon="6.7685">
        <ele>319.5</ele>
        <time>2016-01-10T09:34:51.000Z</time>
      </trkpt>
      <trkpt lat="47.48047" lon="6.76845">
        <ele>319.2</ele>
        <time>2016-01-10T09:34:52.000Z</time>
      </trkpt>
      <trkpt lat="47.48043" lon="6.7684">
        <ele>319.7</ele>
        <time>2016-01-10T09:34:53.000Z</time>
      </trkpt>
      <trkpt lat="47.4804" lon="6.76835">
        <ele>319.7</ele>
        <time>2016-01-10T09:34:54.000Z</time>
      </trkpt>
      <trkpt lat="47.48036" lon="6.76831">
        <ele>320.1</ele>
        <time>2016-01-10T09:34:55.000Z</time>
      </trkpt>
      <trkpt lat="47.48033" lon="6.76825">
        <ele>319.9</ele>
        <time>2016-01-10T09:34:56.000Z</time>
      </trkpt>
      <trkpt lat="47.48029" lon="6.7682">
        <ele>319.9</ele>
        <time>2016-01-10T09:34:57.000Z</time>
      </trkpt>
      <trkpt lat="47.48025" lon="6.76816">
        <ele>319.7</ele>
        <time>2016-01-10T09:34:58.000Z</time>
      </trkpt>
      <trkpt lat="47.48022" lon="6.7681">
        <ele>319.6</ele>
        <time>2016-01-10T09:34:59.000Z</time>
      </trkpt>
      <trkpt lat="47.48019" lon="6.76805">
        <ele>319.7</ele>
        <time>2016-01-10T09:35:00.000Z</time>
      </trkpt>
      <trkpt lat="47.48015" lon="6.768">
        <ele>319.8</ele>
        <time>2016-01-10T09:35:01.000Z</time>
      </trkpt>
      <trkpt lat="47.48012" lon="6.76794">
        <ele>319.7</ele>
        <time>2016-01-10T09:35:02.000Z</time>
      </trkpt>
      <trkpt lat="47.48009" lon="6.76788">
        <ele>319.7</ele>
        <time>2016-01-10T09:35:03.000Z</time>
      </trkpt>
      <trkpt lat="47.48006" lon="6.76782">
        <ele>319.7</ele>
        <time>2016-01-10T09:35:04.000Z</time>
      </trkpt>
      <trkpt lat="47.48004" lon="6.76776">
        <ele>319.8</ele>
        <time>2016-01-10T09:35:05.000Z</time>
      </trkpt>
      <trkpt lat="47.48001" lon="6.76771">
        <ele>319.9</ele>
        <time>2016-01-10T09:35:06.000Z</time>
      </trkpt>
      <trkpt lat="47.47999" lon="6.76765">
        <ele>319.8</ele>
        <time>2016-01-10T09:35:07.000Z</time>
      </trkpt>
      <trkpt lat="47.47996" lon="6.76759">
        <ele>318.9</ele>
        <time>2016-01-10T09:35:08.000Z</time>
      </trkpt>
      <trkpt lat="47.47994" lon="6.76753">
        <ele>318.7</ele>
        <time>2016-01-10T09:35:09.000Z</time>
      </trkpt>
      <trkpt lat="47.47992" lon="6.76747">
        <ele>319.4</ele>
        <time>2016-01-10T09:35:10.000Z</time>
      </trkpt>
      <trkpt lat="47.4799" lon="6.76741">
        <ele>319.6</ele>
        <time>2016-01-10T09:35:11.000Z</time>
      </trkpt>
      <trkpt lat="47.47988" lon="6.76735">
        <ele>320.2</ele>
        <time>2016-01-10T09:35:12.000Z</time>
      </trkpt>
      <trkpt lat="47.47987" lon="6.76727">
        <ele>321</ele>
        <time>2016-01-10T09:35:13.000Z</time>
      </trkpt>
      <trkpt lat="47.47985" lon="6.76721">
        <ele>321.4</ele>
        <time>2016-01-10T09:35:14.000Z</time>
      </trkpt>
      <trkpt lat="47.47982" lon="6.76716">
        <ele>321.4</ele>
        <time>2016-01-10T09:35:15.000Z</time>
      </trkpt>
      <trkpt lat="47.47981" lon="6.76708">
        <ele>322</ele>
        <time>2016-01-10T09:35:16.000Z</time>
      </trkpt>
      <trkpt lat="47.4798" lon="6.76701">
        <ele>321.7</ele>
        <time>2016-01-10T09:35:17.000Z</time>
      </trkpt>
      <trkpt lat="47.47979" lon="6.76694">
        <ele>321.7</ele>
        <time>2016-01-10T09:35:18.098Z</time>
      </trkpt>
      <trkpt lat="47.47977" lon="6.76688">
        <ele>321.1</ele>
        <time>2016-01-10T09:35:19.000Z</time>
      </trkpt>
      <trkpt lat="47.47976" lon="6.76682">
        <ele>321.2</ele>
        <time>2016-01-10T09:35:20.000Z</time>
      </trkpt>
      <trkpt lat="47.47974" lon="6.76676">
        <ele>320.1</ele>
        <time>2016-01-10T09:35:21.000Z</time>
      </trkpt>
      <trkpt lat="47.47973" lon="6.76669">
        <ele>320.2</ele>
        <time>2016-01-10T09:35:22.000Z</time>
      </trkpt>
      <trkpt lat="47.47972" lon="6.76663">
        <ele>319.5</ele>
        <time>2016-01-10T09:35:23.000Z</time>
      </trkpt>
      <trkpt lat="47.4797" lon="6.76657">
        <ele>319.7</ele>
        <time>2016-01-10T09:35:24.000Z</time>
      </trkpt>
      <trkpt lat="47.47969" lon="6.76649">
        <ele>319.3</ele>
        <time>2016-01-10T09:35:25.000Z</time>
      </trkpt>
      <trkpt lat="47.47968" lon="6.76644">
        <ele>319.5</ele>
        <time>2016-01-10T09:35:26.000Z</time>
      </trkpt>
      <trkpt lat="47.47967" lon="6.76639">
        <ele>319.4</ele>
        <time>2016-01-10T09:35:27.000Z</time>
      </trkpt>
      <trkpt lat="47.47966" lon="6.76635">
        <ele>320</ele>
        <time>2016-01-10T09:35:28.000Z</time>
      </trkpt>
      <trkpt lat="47.47966" lon="6.76632">
        <ele>320.1</ele>
        <time>2016-01-10T09:35:29.000Z</time>
      </trkpt>
      <trkpt lat="47.47964" lon="6.76627">
        <ele>320.1</ele>
        <time>2016-01-10T09:35:32.000Z</time>
      </trkpt>
      <trkpt lat="47.47964" lon="6.76626">
        <ele>320</ele>
        <time>2016-01-10T09:35:33.000Z</time>
      </trkpt>
      <trkpt lat="47.4796" lon="6.76626">
        <ele>320.8</ele>
        <time>2016-01-10T09:35:41.000Z</time>
      </trkpt>
      <trkpt lat="47.47959" lon="6.76627">
        <ele>321.1</ele>
        <time>2016-01-10T09:35:42.000Z</time>
      </trkpt>
      <trkpt lat="47.47955" lon="6.76629">
        <ele>320.3</ele>
        <time>2016-01-10T09:35:45.000Z</time>
      </trkpt>
      <trkpt lat="47.47953" lon="6.76629">
        <ele>320.6</ele>
        <time>2016-01-10T09:35:46.000Z</time>
      </trkpt>
      <trkpt lat="47.47951" lon="6.76626">
        <ele>320.1</ele>
        <time>2016-01-10T09:35:47.000Z</time>
      </trkpt>
      <trkpt lat="47.47949" lon="6.76622">
        <ele>318.7</ele>
        <time>2016-01-10T09:35:48.000Z</time>
      </trkpt>
      <trkpt lat="47.47948" lon="6.76617">
        <ele>318.5</ele>
        <time>2016-01-10T09:35:49.000Z</time>
      </trkpt>
      <trkpt lat="47.47948" lon="6.7661">
        <ele>317.2</ele>
        <time>2016-01-10T09:35:50.000Z</time>
      </trkpt>
      <trkpt lat="47.47948" lon="6.76595">
        <ele>316.5</ele>
        <time>2016-01-10T09:35:51.000Z</time>
      </trkpt>
      <trkpt lat="47.47947" lon="6.76588">
        <ele>316.3</ele>
        <time>2016-01-10T09:35:52.000Z</time>
      </trkpt>
      <trkpt lat="47.47946" lon="6.7658">
        <ele>316.6</ele>
        <time>2016-01-10T09:35:53.000Z</time>
      </trkpt>
      <trkpt lat="47.47944" lon="6.76573">
        <ele>316.5</ele>
        <time>2016-01-10T09:35:54.000Z</time>
      </trkpt>
      <trkpt lat="47.47943" lon="6.76565">
        <ele>316.2</ele>
        <time>2016-01-10T09:35:55.000Z</time>
      </trkpt>
      <trkpt lat="47.47941" lon="6.76557">
        <ele>315.7</ele>
        <time>2016-01-10T09:35:56.000Z</time>
      </trkpt>
      <trkpt lat="47.47939" lon="6.7655">
        <ele>315.9</ele>
        <time>2016-01-10T09:35:57.000Z</time>
      </trkpt>
      <trkpt lat="47.47938" lon="6.76542">
        <ele>315.1</ele>
        <time>2016-01-10T09:35:58.000Z</time>
      </trkpt>
      <trkpt lat="47.47937" lon="6.76535">
        <ele>315.4</ele>
        <time>2016-01-10T09:35:59.000Z</time>
      </trkpt>
      <trkpt lat="47.47935" lon="6.76527">
        <ele>315.5</ele>
        <time>2016-01-10T09:36:00.000Z</time>
      </trkpt>
      <trkpt lat="47.47934" lon="6.7652">
        <ele>315</ele>
        <time>2016-01-10T09:36:01.000Z</time>
      </trkpt>
      <trkpt lat="47.47932" lon="6.76513">
        <ele>315.1</ele>
        <time>2016-01-10T09:36:02.000Z</time>
      </trkpt>
      <trkpt lat="47.4793" lon="6.76505">
        <ele>315.5</ele>
        <time>2016-01-10T09:36:03.000Z</time>
      </trkpt>
      <trkpt lat="47.47929" lon="6.76498">
        <ele>315.1</ele>
        <time>2016-01-10T09:36:04.000Z</time>
      </trkpt>
      <trkpt lat="47.47927" lon="6.7649">
        <ele>315.5</ele>
        <time>2016-01-10T09:36:05.000Z</time>
      </trkpt>
      <trkpt lat="47.47925" lon="6.76483">
        <ele>315.5</ele>
        <time>2016-01-10T09:36:06.000Z</time>
      </trkpt>
      <trkpt lat="47.47924" lon="6.76476">
        <ele>315.5</ele>
        <time>2016-01-10T09:36:07.000Z</time>
      </trkpt>
      <trkpt lat="47.47922" lon="6.76469">
        <ele>315.5</ele>
        <time>2016-01-10T09:36:08.000Z</time>
      </trkpt>
      <trkpt lat="47.47921" lon="6.76462">
        <ele>315.5</ele>
        <time>2016-01-10T09:36:09.000Z</time>
      </trkpt>
      <trkpt lat="47.47919" lon="6.76455">
        <ele>315.5</ele>
        <time>2016-01-10T09:36:10.000Z</time>
      </trkpt>
      <trkpt lat="47.47916" lon="6.76447">
        <ele>317</ele>
        <time>2016-01-10T09:36:11.000Z</time>
      </trkpt>
      <trkpt lat="47.47914" lon="6.7644">
        <ele>316.2</ele>
        <time>2016-01-10T09:36:12.000Z</time>
      </trkpt>
      <trkpt lat="47.47912" lon="6.76433">
        <ele>316.3</ele>
        <time>2016-01-10T09:36:13.000Z</time>
      </trkpt>
      <trkpt lat="47.4791" lon="6.76427">
        <ele>315.8</ele>
        <time>2016-01-10T09:36:14.000Z</time>
      </trkpt>
      <trkpt lat="47.47908" lon="6.7642">
        <ele>316</ele>
        <time>2016-01-10T09:36:15.000Z</time>
      </trkpt>
      <trkpt lat="47.47906" lon="6.76414">
        <ele>316.1</ele>
        <time>2016-01-10T09:36:16.000Z</time>
      </trkpt>
      <trkpt lat="47.47903" lon="6.76407">
        <ele>315.5</ele>
        <time>2016-01-10T09:36:17.000Z</time>
      </trkpt>
      <trkpt lat="47.47901" lon="6.76401">
        <ele>315.8</ele>
        <time>2016-01-10T09:36:18.000Z</time>
      </trkpt>
      <trkpt lat="47.47897" lon="6.76396">
        <ele>315.9</ele>
        <time>2016-01-10T09:36:19.000Z</time>
      </trkpt>
      <trkpt lat="47.47895" lon="6.7639">
        <ele>315.9</ele>
        <time>2016-01-10T09:36:20.000Z</time>
      </trkpt>
      <trkpt lat="47.47893" lon="6.76386">
        <ele>317.1</ele>
        <time>2016-01-10T09:36:21.000Z</time>
      </trkpt>
      <trkpt lat="47.47891" lon="6.7638">
        <ele>317.5</ele>
        <time>2016-01-10T09:36:22.000Z</time>
      </trkpt>
      <trkpt lat="47.47888" lon="6.76374">
        <ele>317</ele>
        <time>2016-01-10T09:36:23.000Z</time>
      </trkpt>
      <trkpt lat="47.47885" lon="6.76368">
        <ele>316.7</ele>
        <time>2016-01-10T09:36:24.000Z</time>
      </trkpt>
      <trkpt lat="47.47882" lon="6.76362">
        <ele>316.9</ele>
        <time>2016-01-10T09:36:25.000Z</time>
      </trkpt>
      <trkpt lat="47.47879" lon="6.76355">
        <ele>316.7</ele>
        <time>2016-01-10T09:36:26.000Z</time>
      </trkpt>
      <trkpt lat="47.47876" lon="6.7635">
        <ele>317.2</ele>
        <time>2016-01-10T09:36:27.000Z</time>
      </trkpt>
      <trkpt lat="47.47873" lon="6.76344">
        <ele>317.2</ele>
        <time>2016-01-10T09:36:28.000Z</time>
      </trkpt>
      <trkpt lat="47.4787" lon="6.76338">
        <ele>317</ele>
        <time>2016-01-10T09:36:29.000Z</time>
      </trkpt>
      <trkpt lat="47.47866" lon="6.76332">
        <ele>317.8</ele>
        <time>2016-01-10T09:36:30.000Z</time>
      </trkpt>
      <trkpt lat="47.47863" lon="6.76327">
        <ele>318</ele>
        <time>2016-01-10T09:36:31.000Z</time>
      </trkpt>
      <trkpt lat="47.47859" lon="6.76321">
        <ele>317.9</ele>
        <time>2016-01-10T09:36:32.000Z</time>
      </trkpt>
      <trkpt lat="47.47856" lon="6.76317">
        <ele>318.4</ele>
        <time>2016-01-10T09:36:33.000Z</time>
      </trkpt>
      <trkpt lat="47.47853" lon="6.76309">
        <ele>318.5</ele>
        <time>2016-01-10T09:36:34.000Z</time>
      </trkpt>
      <trkpt lat="47.47849" lon="6.76303">
        <ele>318.5</ele>
        <time>2016-01-10T09:36:35.000Z</time>
      </trkpt>
      <trkpt lat="47.47846" lon="6.76299">
        <ele>319.3</ele>
        <time>2016-01-10T09:36:36.000Z</time>
      </trkpt>
      <trkpt lat="47.47843" lon="6.76294">
        <ele>319.5</ele>
        <time>2016-01-10T09:36:37.000Z</time>
      </trkpt>
      <trkpt lat="47.47839" lon="6.76288">
        <ele>318.5</ele>
        <time>2016-01-10T09:36:38.000Z</time>
      </trkpt>
      <trkpt lat="47.47835" lon="6.76283">
        <ele>318.1</ele>
        <time>2016-01-10T09:36:39.000Z</time>
      </trkpt>
      <trkpt lat="47.4783" lon="6.76279">
        <ele>318</ele>
        <time>2016-01-10T09:36:40.000Z</time>
      </trkpt>
      <trkpt lat="47.47826" lon="6.76276">
        <ele>318.5</ele>
        <time>2016-01-10T09:36:41.000Z</time>
      </trkpt>
      <trkpt lat="47.47821" lon="6.76273">
        <ele>318.1</ele>
        <time>2016-01-10T09:36:42.000Z</time>
      </trkpt>
      <trkpt lat="47.47817" lon="6.7627">
        <ele>318.3</ele>
        <time>2016-01-10T09:36:43.000Z</time>
      </trkpt>
      <trkpt lat="47.47812" lon="6.76267">
        <ele>318.5</ele>
        <time>2016-01-10T09:36:44.000Z</time>
      </trkpt>
      <trkpt lat="47.47808" lon="6.76264">
        <ele>318.4</ele>
        <time>2016-01-10T09:36:45.000Z</time>
      </trkpt>
      <trkpt lat="47.47803" lon="6.76263">
        <ele>318.3</ele>
        <time>2016-01-10T09:36:46.000Z</time>
      </trkpt>
      <trkpt lat="47.47798" lon="6.7626">
        <ele>318.4</ele>
        <time>2016-01-10T09:36:47.000Z</time>
      </trkpt>
      <trkpt lat="47.47793" lon="6.76257">
        <ele>318.3</ele>
        <time>2016-01-10T09:36:48.000Z</time>
      </trkpt>
      <trkpt lat="47.47789" lon="6.76253">
        <ele>317.9</ele>
        <time>2016-01-10T09:36:49.000Z</time>
      </trkpt>
      <trkpt lat="47.47785" lon="6.76249">
        <ele>317.8</ele>
        <time>2016-01-10T09:36:50.000Z</time>
      </trkpt>
      <trkpt lat="47.47781" lon="6.76244">
        <ele>317.5</ele>
        <time>2016-01-10T09:36:51.000Z</time>
      </trkpt>
      <trkpt lat="47.47777" lon="6.7624">
        <ele>317.6</ele>
        <time>2016-01-10T09:36:52.000Z</time>
      </trkpt>
      <trkpt lat="47.47773" lon="6.76235">
        <ele>317.6</ele>
        <time>2016-01-10T09:36:53.000Z</time>
      </trkpt>
      <trkpt lat="47.4777" lon="6.76229">
        <ele>316.9</ele>
        <time>2016-01-10T09:36:54.000Z</time>
      </trkpt>
      <trkpt lat="47.47766" lon="6.76225">
        <ele>316.8</ele>
        <time>2016-01-10T09:36:55.000Z</time>
      </trkpt>
      <trkpt lat="47.47763" lon="6.76219">
        <ele>316.8</ele>
        <time>2016-01-10T09:36:56.000Z</time>
      </trkpt>
      <trkpt lat="47.4776" lon="6.76212">
        <ele>316.3</ele>
        <time>2016-01-10T09:36:57.000Z</time>
      </trkpt>
      <trkpt lat="47.47757" lon="6.76207">
        <ele>315.8</ele>
        <time>2016-01-10T09:36:58.000Z</time>
      </trkpt>
      <trkpt lat="47.47754" lon="6.76202">
        <ele>315.6</ele>
        <time>2016-01-10T09:36:59.000Z</time>
      </trkpt>
      <trkpt lat="47.4775" lon="6.76198">
        <ele>315.3</ele>
        <time>2016-01-10T09:37:00.000Z</time>
      </trkpt>
      <trkpt lat="47.47746" lon="6.76192">
        <ele>315.2</ele>
        <time>2016-01-10T09:37:01.000Z</time>
      </trkpt>
      <trkpt lat="47.47743" lon="6.76186">
        <ele>315.5</ele>
        <time>2016-01-10T09:37:02.000Z</time>
      </trkpt>
      <trkpt lat="47.47739" lon="6.76181">
        <ele>315.5</ele>
        <time>2016-01-10T09:37:03.000Z</time>
      </trkpt>
      <trkpt lat="47.47736" lon="6.76176">
        <ele>315.6</ele>
        <time>2016-01-10T09:37:04.000Z</time>
      </trkpt>
      <trkpt lat="47.47732" lon="6.76172">
        <ele>315.7</ele>
        <time>2016-01-10T09:37:05.000Z</time>
      </trkpt>
      <trkpt lat="47.47729" lon="6.76166">
        <ele>316</ele>
        <time>2016-01-10T09:37:06.000Z</time>
      </trkpt>
      <trkpt lat="47.47725" lon="6.76161">
        <ele>316.3</ele>
        <time>2016-01-10T09:37:07.000Z</time>
      </trkpt>
      <trkpt lat="47.47722" lon="6.76155">
        <ele>316.7</ele>
        <time>2016-01-10T09:37:08.000Z</time>
      </trkpt>
      <trkpt lat="47.47718" lon="6.7615">
        <ele>316.6</ele>
        <time>2016-01-10T09:37:09.000Z</time>
      </trkpt>
      <trkpt lat="47.47715" lon="6.76145">
        <ele>316.9</ele>
        <time>2016-01-10T09:37:10.000Z</time>
      </trkpt>
      <trkpt lat="47.47711" lon="6.76139">
        <ele>316.6</ele>
        <time>2016-01-10T09:37:11.000Z</time>
      </trkpt>
      <trkpt lat="47.47707" lon="6.76134">
        <ele>317</ele>
        <time>2016-01-10T09:37:12.000Z</time>
      </trkpt>
      <trkpt lat="47.47704" lon="6.76128">
        <ele>317.4</ele>
        <time>2016-01-10T09:37:13.000Z</time>
      </trkpt>
      <trkpt lat="47.477" lon="6.76123">
        <ele>317.7</ele>
        <time>2016-01-10T09:37:14.000Z</time>
      </trkpt>
      <trkpt lat="47.47697" lon="6.76118">
        <ele>318</ele>
        <time>2016-01-10T09:37:15.000Z</time>
      </trkpt>
      <trkpt lat="47.47694" lon="6.76113">
        <ele>317.7</ele>
        <time>2016-01-10T09:37:16.000Z</time>
      </trkpt>
      <trkpt lat="47.4769" lon="6.76109">
        <ele>318.1</ele>
        <time>2016-01-10T09:37:17.000Z</time>
      </trkpt>
      <trkpt lat="47.47687" lon="6.76104">
        <ele>318.5</ele>
        <time>2016-01-10T09:37:18.000Z</time>
      </trkpt>
      <trkpt lat="47.47683" lon="6.76099">
        <ele>318.2</ele>
        <time>2016-01-10T09:37:19.000Z</time>
      </trkpt>
      <trkpt lat="47.47681" lon="6.76094">
        <ele>318.3</ele>
        <time>2016-01-10T09:37:20.000Z</time>
      </trkpt>
      <trkpt lat="47.47678" lon="6.76089">
        <ele>318.3</ele>
        <time>2016-01-10T09:37:20.998Z</time>
      </trkpt>
      <trkpt lat="47.47675" lon="6.76087">
        <ele>318</ele>
        <time>2016-01-10T09:37:21.928Z</time>
      </trkpt>
      <trkpt lat="47.47669" lon="6.76097">
        <ele>317.1</ele>
        <time>2016-01-10T09:37:22.984Z</time>
      </trkpt>
      <trkpt lat="47.47668" lon="6.76104">
        <ele>312.8</ele>
        <time>2016-01-10T09:37:24.000Z</time>
      </trkpt>
      <trkpt lat="47.47665" lon="6.76113">
        <ele>312.9</ele>
        <time>2016-01-10T09:37:25.000Z</time>
      </trkpt>
      <trkpt lat="47.47662" lon="6.76121">
        <ele>312.9</ele>
        <time>2016-01-10T09:37:26.000Z</time>
      </trkpt>
      <trkpt lat="47.47659" lon="6.76129">
        <ele>312.9</ele>
        <time>2016-01-10T09:37:27.000Z</time>
      </trkpt>
      <trkpt lat="47.47657" lon="6.76136">
        <ele>313</ele>
        <time>2016-01-10T09:37:28.000Z</time>
      </trkpt>
      <trkpt lat="47.47654" lon="6.76145">
        <ele>313.4</ele>
        <time>2016-01-10T09:37:29.000Z</time>
      </trkpt>
      <trkpt lat="47.47651" lon="6.76153">
        <ele>313.4</ele>
        <time>2016-01-10T09:37:30.000Z</time>
      </trkpt>
      <trkpt lat="47.47649" lon="6.76162">
        <ele>313.9</ele>
        <time>2016-01-10T09:37:31.000Z</time>
      </trkpt>
      <trkpt lat="47.47646" lon="6.7617">
        <ele>314.3</ele>
        <time>2016-01-10T09:37:32.000Z</time>
      </trkpt>
      <trkpt lat="47.47643" lon="6.76178">
        <ele>314.7</ele>
        <time>2016-01-10T09:37:33.000Z</time>
      </trkpt>
      <trkpt lat="47.4764" lon="6.76185">
        <ele>315.5</ele>
        <time>2016-01-10T09:37:33.999Z</time>
      </trkpt>
      <trkpt lat="47.47637" lon="6.76193">
        <ele>314.4</ele>
        <time>2016-01-10T09:37:35.000Z</time>
      </trkpt>
      <trkpt lat="47.47634" lon="6.762">
        <ele>314.3</ele>
        <time>2016-01-10T09:37:36.000Z</time>
      </trkpt>
      <trkpt lat="47.47632" lon="6.76206">
        <ele>314.5</ele>
        <time>2016-01-10T09:37:37.000Z</time>
      </trkpt>
      <trkpt lat="47.47629" lon="6.76212">
        <ele>314.6</ele>
        <time>2016-01-10T09:37:37.999Z</time>
      </trkpt>
      <trkpt lat="47.47626" lon="6.7622">
        <ele>314.1</ele>
        <time>2016-01-10T09:37:39.000Z</time>
      </trkpt>
      <trkpt lat="47.47624" lon="6.76225">
        <ele>313.9</ele>
        <time>2016-01-10T09:37:40.000Z</time>
      </trkpt>
      <trkpt lat="47.47621" lon="6.76233">
        <ele>313.9</ele>
        <time>2016-01-10T09:37:41.000Z</time>
      </trkpt>
      <trkpt lat="47.4762" lon="6.76238">
        <ele>314</ele>
        <time>2016-01-10T09:37:42.000Z</time>
      </trkpt>
      <trkpt lat="47.47618" lon="6.76244">
        <ele>314.1</ele>
        <time>2016-01-10T09:37:43.000Z</time>
      </trkpt>
      <trkpt lat="47.47616" lon="6.76249">
        <ele>314.1</ele>
        <time>2016-01-10T09:37:44.000Z</time>
      </trkpt>
      <trkpt lat="47.47613" lon="6.76255">
        <ele>314.2</ele>
        <time>2016-01-10T09:37:45.000Z</time>
      </trkpt>
      <trkpt lat="47.4761" lon="6.76264">
        <ele>314.5</ele>
        <time>2016-01-10T09:37:46.000Z</time>
      </trkpt>
      <trkpt lat="47.47608" lon="6.76271">
        <ele>314.5</ele>
        <time>2016-01-10T09:37:47.000Z</time>
      </trkpt>
      <trkpt lat="47.47604" lon="6.7628">
        <ele>316.7</ele>
        <time>2016-01-10T09:37:48.000Z</time>
      </trkpt>
      <trkpt lat="47.47599" lon="6.76286">
        <ele>317.2</ele>
        <time>2016-01-10T09:37:49.000Z</time>
      </trkpt>
      <trkpt lat="47.47594" lon="6.76292">
        <ele>316.4</ele>
        <time>2016-01-10T09:37:50.000Z</time>
      </trkpt>
      <trkpt lat="47.47589" lon="6.76299">
        <ele>315.5</ele>
        <time>2016-01-10T09:37:51.000Z</time>
      </trkpt>
      <trkpt lat="47.47585" lon="6.76306">
        <ele>314.9</ele>
        <time>2016-01-10T09:37:52.000Z</time>
      </trkpt>
      <trkpt lat="47.47581" lon="6.76314">
        <ele>315.4</ele>
        <time>2016-01-10T09:37:53.000Z</time>
      </trkpt>
      <trkpt lat="47.47578" lon="6.76319">
        <ele>315.5</ele>
        <time>2016-01-10T09:37:53.998Z</time>
      </trkpt>
      <trkpt lat="47.47574" lon="6.76327">
        <ele>315</ele>
        <time>2016-01-10T09:37:54.978Z</time>
      </trkpt>
      <trkpt lat="47.4757" lon="6.76332">
        <ele>314.2</ele>
        <time>2016-01-10T09:37:56.000Z</time>
      </trkpt>
      <trkpt lat="47.47567" lon="6.76339">
        <ele>314.2</ele>
        <time>2016-01-10T09:37:57.000Z</time>
      </trkpt>
      <trkpt lat="47.47563" lon="6.76345">
        <ele>314.3</ele>
        <time>2016-01-10T09:37:58.000Z</time>
      </trkpt>
      <trkpt lat="47.47559" lon="6.76351">
        <ele>313.6</ele>
        <time>2016-01-10T09:37:59.000Z</time>
      </trkpt>
      <trkpt lat="47.47556" lon="6.76358">
        <ele>314.6</ele>
        <time>2016-01-10T09:38:00.000Z</time>
      </trkpt>
      <trkpt lat="47.47553" lon="6.76365">
        <ele>314.8</ele>
        <time>2016-01-10T09:38:00.998Z</time>
      </trkpt>
      <trkpt lat="47.4755" lon="6.76371">
        <ele>315</ele>
        <time>2016-01-10T09:38:01.933Z</time>
      </trkpt>
      <trkpt lat="47.47548" lon="6.76379">
        <ele>314.7</ele>
        <time>2016-01-10T09:38:02.980Z</time>
      </trkpt>
      <trkpt lat="47.47548" lon="6.76386">
        <ele>314.6</ele>
        <time>2016-01-10T09:38:04.000Z</time>
      </trkpt>
      <trkpt lat="47.47547" lon="6.76393">
        <ele>314.3</ele>
        <time>2016-01-10T09:38:05.000Z</time>
      </trkpt>
      <trkpt lat="47.4754" lon="6.76402">
        <ele>315.2</ele>
        <time>2016-01-10T09:38:06.000Z</time>
      </trkpt>
      <trkpt lat="47.47536" lon="6.76409">
        <ele>315</ele>
        <time>2016-01-10T09:38:07.000Z</time>
      </trkpt>
      <trkpt lat="47.47533" lon="6.76412">
        <ele>315.4</ele>
        <time>2016-01-10T09:38:08.000Z</time>
      </trkpt>
      <trkpt lat="47.47531" lon="6.76416">
        <ele>315.1</ele>
        <time>2016-01-10T09:38:09.000Z</time>
      </trkpt>
      <trkpt lat="47.47529" lon="6.7642">
        <ele>314.7</ele>
        <time>2016-01-10T09:38:10.000Z</time>
      </trkpt>
      <trkpt lat="47.47528" lon="6.76424">
        <ele>315.1</ele>
        <time>2016-01-10T09:38:11.000Z</time>
      </trkpt>
      <trkpt lat="47.47525" lon="6.76428">
        <ele>314.5</ele>
        <time>2016-01-10T09:38:13.000Z</time>
      </trkpt>
      <trkpt lat="47.47524" lon="6.7643">
        <ele>314.5</ele>
        <time>2016-01-10T09:38:14.058Z</time>
      </trkpt>
      <trkpt lat="47.47523" lon="6.76426">
        <ele>315</ele>
        <time>2016-01-10T09:38:15.000Z</time>
      </trkpt>
      <trkpt lat="47.47523" lon="6.76422">
        <ele>314.8</ele>
        <time>2016-01-10T09:38:16.000Z</time>
      </trkpt>
      <trkpt lat="47.47521" lon="6.76418">
        <ele>316.5</ele>
        <time>2016-01-10T09:38:18.000Z</time>
      </trkpt>
      <trkpt lat="47.4752" lon="6.76416">
        <ele>316.2</ele>
        <time>2016-01-10T09:38:19.000Z</time>
      </trkpt>
      <trkpt lat="47.47516" lon="6.76414">
        <ele>315.8</ele>
        <time>2016-01-10T09:38:22.000Z</time>
      </trkpt>
      <trkpt lat="47.47515" lon="6.76413">
        <ele>316</ele>
        <time>2016-01-10T09:38:23.000Z</time>
      </trkpt>
      <trkpt lat="47.47513" lon="6.76408">
        <ele>314.7</ele>
        <time>2016-01-10T09:38:33.000Z</time>
      </trkpt>
      <trkpt lat="47.47512" lon="6.76406">
        <ele>314.8</ele>
        <time>2016-01-10T09:38:34.000Z</time>
      </trkpt>
      <trkpt lat="47.47511" lon="6.76402">
        <ele>314.8</ele>
        <time>2016-01-10T09:38:36.000Z</time>
      </trkpt>
      <trkpt lat="47.47509" lon="6.764">
        <ele>314.8</ele>
        <time>2016-01-10T09:38:37.000Z</time>
      </trkpt>
      <trkpt lat="47.47506" lon="6.76403">
        <ele>315.1</ele>
        <time>2016-01-10T09:38:40.000Z</time>
      </trkpt>
      <trkpt lat="47.47507" lon="6.76406">
        <ele>315</ele>
        <time>2016-01-10T09:38:41.000Z</time>
      </trkpt>
      <trkpt lat="47.47508" lon="6.76409">
        <ele>314.9</ele>
        <time>2016-01-10T09:38:42.000Z</time>
      </trkpt>
      <trkpt lat="47.47509" lon="6.76412">
        <ele>314.8</ele>
        <time>2016-01-10T09:38:43.000Z</time>
      </trkpt>
      <trkpt lat="47.47513" lon="6.76414">
        <ele>313.3</ele>
        <time>2016-01-10T09:38:45.000Z</time>
      </trkpt>
      <trkpt lat="47.47514" lon="6.76413">
        <ele>313.5</ele>
        <time>2016-01-10T09:38:46.000Z</time>
      </trkpt>
      <trkpt lat="47.47515" lon="6.76409">
        <ele>313.4</ele>
        <time>2016-01-10T09:38:47.000Z</time>
      </trkpt>
      <trkpt lat="47.47515" lon="6.76404">
        <ele>313.4</ele>
        <time>2016-01-10T09:38:48.000Z</time>
      </trkpt>
      <trkpt lat="47.47513" lon="6.764">
        <ele>312.9</ele>
        <time>2016-01-10T09:38:49.000Z</time>
      </trkpt>
      <trkpt lat="47.47511" lon="6.76398">
        <ele>312.9</ele>
        <time>2016-01-10T09:38:50.000Z</time>
      </trkpt>
      <trkpt lat="47.47508" lon="6.76398">
        <ele>314</ele>
        <time>2016-01-10T09:38:51.000Z</time>
      </trkpt>
      <trkpt lat="47.47504" lon="6.76399">
        <ele>314.1</ele>
        <time>2016-01-10T09:38:52.000Z</time>
      </trkpt>
      <trkpt lat="47.47502" lon="6.76399">
        <ele>314.3</ele>
        <time>2016-01-10T09:38:52.998Z</time>
      </trkpt>
      <trkpt lat="47.47497" lon="6.76405">
        <ele>314.5</ele>
        <time>2016-01-10T09:38:54.000Z</time>
      </trkpt>
      <trkpt lat="47.47493" lon="6.76407">
        <ele>314.1</ele>
        <time>2016-01-10T09:38:55.000Z</time>
      </trkpt>
      <trkpt lat="47.4749" lon="6.76408">
        <ele>314.1</ele>
        <time>2016-01-10T09:38:56.000Z</time>
      </trkpt>
      <trkpt lat="47.47486" lon="6.76409">
        <ele>314.3</ele>
        <time>2016-01-10T09:38:57.000Z</time>
      </trkpt>
      <trkpt lat="47.47483" lon="6.7641">
        <ele>314.3</ele>
        <time>2016-01-10T09:38:58.000Z</time>
      </trkpt>
      <trkpt lat="47.47481" lon="6.76411">
        <ele>315</ele>
        <time>2016-01-10T09:38:59.000Z</time>
      </trkpt>
      <trkpt lat="47.47478" lon="6.76412">
        <ele>314.9</ele>
        <time>2016-01-10T09:39:00.000Z</time>
      </trkpt>
      <trkpt lat="47.47474" lon="6.76412">
        <ele>314.2</ele>
        <time>2016-01-10T09:39:01.999Z</time>
      </trkpt>
      <trkpt lat="47.47474" lon="6.76412">
        <ele>313.8</ele>
        <time>2016-01-10T09:39:03.000Z</time>
      </trkpt>
      <trkpt lat="47.47473" lon="6.76417">
        <ele>313.2</ele>
        <time>2016-01-10T09:39:05.000Z</time>
      </trkpt>
      <trkpt lat="47.47472" lon="6.7642">
        <ele>313.7</ele>
        <time>2016-01-10T09:39:06.000Z</time>
      </trkpt>
      <trkpt lat="47.4747" lon="6.76424">
        <ele>313.9</ele>
        <time>2016-01-10T09:39:07.000Z</time>
      </trkpt>
      <trkpt lat="47.47469" lon="6.76429">
        <ele>314.1</ele>
        <time>2016-01-10T09:39:08.000Z</time>
      </trkpt>
      <trkpt lat="47.47467" lon="6.76433">
        <ele>313.7</ele>
        <time>2016-01-10T09:39:09.000Z</time>
      </trkpt>
      <trkpt lat="47.47464" lon="6.76437">
        <ele>313.9</ele>
        <time>2016-01-10T09:39:10.000Z</time>
      </trkpt>
      <trkpt lat="47.47461" lon="6.7644">
        <ele>314</ele>
        <time>2016-01-10T09:39:11.000Z</time>
      </trkpt>
      <trkpt lat="47.47458" lon="6.76441">
        <ele>315.5</ele>
        <time>2016-01-10T09:39:12.000Z</time>
      </trkpt>
      <trkpt lat="47.47454" lon="6.76441">
        <ele>315.4</ele>
        <time>2016-01-10T09:39:13.000Z</time>
      </trkpt>
      <trkpt lat="47.47451" lon="6.76441">
        <ele>316.2</ele>
        <time>2016-01-10T09:39:14.000Z</time>
      </trkpt>
      <trkpt lat="47.47448" lon="6.76441">
        <ele>316.7</ele>
        <time>2016-01-10T09:39:15.000Z</time>
      </trkpt>
      <trkpt lat="47.47444" lon="6.7644">
        <ele>316.8</ele>
        <time>2016-01-10T09:39:16.000Z</time>
      </trkpt>
      <trkpt lat="47.47442" lon="6.76441">
        <ele>317</ele>
        <time>2016-01-10T09:39:17.000Z</time>
      </trkpt>
      <trkpt lat="47.47439" lon="6.76441">
        <ele>316.4</ele>
        <time>2016-01-10T09:39:18.001Z</time>
      </trkpt>
      <trkpt lat="47.47437" lon="6.76444">
        <ele>316</ele>
        <time>2016-01-10T09:39:19.000Z</time>
      </trkpt>
      <trkpt lat="47.47435" lon="6.76445">
        <ele>316</ele>
        <time>2016-01-10T09:39:19.999Z</time>
      </trkpt>
      <trkpt lat="47.47434" lon="6.76452">
        <ele>316.7</ele>
        <time>2016-01-10T09:39:21.000Z</time>
      </trkpt>
      <trkpt lat="47.47432" lon="6.76458">
        <ele>315</ele>
        <time>2016-01-10T09:39:22.000Z</time>
      </trkpt>
      <trkpt lat="47.47431" lon="6.76464">
        <ele>314.8</ele>
        <time>2016-01-10T09:39:23.000Z</time>
      </trkpt>
      <trkpt lat="47.4743" lon="6.76471">
        <ele>314.9</ele>
        <time>2016-01-10T09:39:24.000Z</time>
      </trkpt>
      <trkpt lat="47.4743" lon="6.7648">
        <ele>314</ele>
        <time>2016-01-10T09:39:25.000Z</time>
      </trkpt>
      <trkpt lat="47.47429" lon="6.76485">
        <ele>313.2</ele>
        <time>2016-01-10T09:39:26.000Z</time>
      </trkpt>
      <trkpt lat="47.47426" lon="6.76491">
        <ele>313.7</ele>
        <time>2016-01-10T09:39:27.000Z</time>
      </trkpt>
      <trkpt lat="47.47424" lon="6.76498">
        <ele>313.7</ele>
        <time>2016-01-10T09:39:28.000Z</time>
      </trkpt>
      <trkpt lat="47.47422" lon="6.76505">
        <ele>314.3</ele>
        <time>2016-01-10T09:39:29.000Z</time>
      </trkpt>
      <trkpt lat="47.47422" lon="6.76509">
        <ele>314.5</ele>
        <time>2016-01-10T09:39:30.000Z</time>
      </trkpt>
      <trkpt lat="47.4742" lon="6.76516">
        <ele>315.3</ele>
        <time>2016-01-10T09:39:31.000Z</time>
      </trkpt>
      <trkpt lat="47.47418" lon="6.76522">
        <ele>315.8</ele>
        <time>2016-01-10T09:39:32.000Z</time>
      </trkpt>
      <trkpt lat="47.47414" lon="6.76529">
        <ele>315.7</ele>
        <time>2016-01-10T09:39:33.000Z</time>
      </trkpt>
      <trkpt lat="47.47411" lon="6.76536">
        <ele>315.8</ele>
        <time>2016-01-10T09:39:34.000Z</time>
      </trkpt>
      <trkpt lat="47.47407" lon="6.76541">
        <ele>316.2</ele>
        <time>2016-01-10T09:39:35.000Z</time>
      </trkpt>
      <trkpt lat="47.47404" lon="6.76547">
        <ele>317</ele>
        <time>2016-01-10T09:39:36.000Z</time>
      </trkpt>
      <trkpt lat="47.474" lon="6.76553">
        <ele>317.6</ele>
        <time>2016-01-10T09:39:37.001Z</time>
      </trkpt>
      <trkpt lat="47.47397" lon="6.76557">
        <ele>319.1</ele>
        <time>2016-01-10T09:39:38.000Z</time>
      </trkpt>
      <trkpt lat="47.47394" lon="6.76564">
        <ele>319.7</ele>
        <time>2016-01-10T09:39:39.000Z</time>
      </trkpt>
      <trkpt lat="47.4739" lon="6.7657">
        <ele>320.2</ele>
        <time>2016-01-10T09:39:40.000Z</time>
      </trkpt>
      <trkpt lat="47.47387" lon="6.76576">
        <ele>320.2</ele>
        <time>2016-01-10T09:39:41.000Z</time>
      </trkpt>
      <trkpt lat="47.47384" lon="6.76582">
        <ele>319.9</ele>
        <time>2016-01-10T09:39:42.000Z</time>
      </trkpt>
      <trkpt lat="47.4738" lon="6.76587">
        <ele>319.6</ele>
        <time>2016-01-10T09:39:42.999Z</time>
      </trkpt>
      <trkpt lat="47.47376" lon="6.76593">
        <ele>319.5</ele>
        <time>2016-01-10T09:39:44.000Z</time>
      </trkpt>
      <trkpt lat="47.47374" lon="6.76598">
        <ele>319.3</ele>
        <time>2016-01-10T09:39:45.000Z</time>
      </trkpt>
      <trkpt lat="47.47371" lon="6.76603">
        <ele>318.4</ele>
        <time>2016-01-10T09:39:46.000Z</time>
      </trkpt>
      <trkpt lat="47.47369" lon="6.76609">
        <ele>318.2</ele>
        <time>2016-01-10T09:39:47.000Z</time>
      </trkpt>
      <trkpt lat="47.47366" lon="6.76617">
        <ele>318.9</ele>
        <time>2016-01-10T09:39:48.000Z</time>
      </trkpt>
      <trkpt lat="47.47364" lon="6.76623">
        <ele>318.2</ele>
        <time>2016-01-10T09:39:49.000Z</time>
      </trkpt>
      <trkpt lat="47.47362" lon="6.7663">
        <ele>317.6</ele>
        <time>2016-01-10T09:39:50.000Z</time>
      </trkpt>
      <trkpt lat="47.4736" lon="6.76637">
        <ele>316.7</ele>
        <time>2016-01-10T09:39:51.000Z</time>
      </trkpt>
      <trkpt lat="47.47357" lon="6.76644">
        <ele>317.3</ele>
        <time>2016-01-10T09:39:52.000Z</time>
      </trkpt>
      <trkpt lat="47.47355" lon="6.76651">
        <ele>317.2</ele>
        <time>2016-01-10T09:39:53.000Z</time>
      </trkpt>
      <trkpt lat="47.47353" lon="6.76657">
        <ele>317.6</ele>
        <time>2016-01-10T09:39:54.000Z</time>
      </trkpt>
      <trkpt lat="47.47352" lon="6.76665">
        <ele>317.9</ele>
        <time>2016-01-10T09:39:55.000Z</time>
      </trkpt>
      <trkpt lat="47.47351" lon="6.76672">
        <ele>318.2</ele>
        <time>2016-01-10T09:39:56.000Z</time>
      </trkpt>
      <trkpt lat="47.47351" lon="6.7668">
        <ele>318</ele>
        <time>2016-01-10T09:39:57.000Z</time>
      </trkpt>
      <trkpt lat="47.4735" lon="6.76689">
        <ele>318.8</ele>
        <time>2016-01-10T09:39:58.000Z</time>
      </trkpt>
      <trkpt lat="47.47349" lon="6.76696">
        <ele>318.3</ele>
        <time>2016-01-10T09:39:59.000Z</time>
      </trkpt>
      <trkpt lat="47.47349" lon="6.76703">
        <ele>318.2</ele>
        <time>2016-01-10T09:40:00.000Z</time>
      </trkpt>
      <trkpt lat="47.47348" lon="6.7671">
        <ele>317.4</ele>
        <time>2016-01-10T09:40:01.000Z</time>
      </trkpt>
      <trkpt lat="47.47348" lon="6.76717">
        <ele>317.7</ele>
        <time>2016-01-10T09:40:02.000Z</time>
      </trkpt>
      <trkpt lat="47.47347" lon="6.76725">
        <ele>317.3</ele>
        <time>2016-01-10T09:40:03.000Z</time>
      </trkpt>
      <trkpt lat="47.47347" lon="6.76732">
        <ele>317.5</ele>
        <time>2016-01-10T09:40:04.000Z</time>
      </trkpt>
      <trkpt lat="47.47346" lon="6.76738">
        <ele>317.2</ele>
        <time>2016-01-10T09:40:05.000Z</time>
      </trkpt>
      <trkpt lat="47.47343" lon="6.76746">
        <ele>316.8</ele>
        <time>2016-01-10T09:40:06.000Z</time>
      </trkpt>
      <trkpt lat="47.47339" lon="6.76755">
        <ele>317.4</ele>
        <time>2016-01-10T09:40:07.000Z</time>
      </trkpt>
      <trkpt lat="47.47336" lon="6.76765">
        <ele>317.9</ele>
        <time>2016-01-10T09:40:08.000Z</time>
      </trkpt>
      <trkpt lat="47.47336" lon="6.7677">
        <ele>317.4</ele>
        <time>2016-01-10T09:40:09.000Z</time>
      </trkpt>
      <trkpt lat="47.47335" lon="6.76775">
        <ele>317.6</ele>
        <time>2016-01-10T09:40:10.000Z</time>
      </trkpt>
      <trkpt lat="47.47334" lon="6.76781">
        <ele>317.9</ele>
        <time>2016-01-10T09:40:11.000Z</time>
      </trkpt>
      <trkpt lat="47.47333" lon="6.76789">
        <ele>317.5</ele>
        <time>2016-01-10T09:40:12.000Z</time>
      </trkpt>
      <trkpt lat="47.47333" lon="6.76795">
        <ele>317.6</ele>
        <time>2016-01-10T09:40:13.000Z</time>
      </trkpt>
      <trkpt lat="47.47332" lon="6.76803">
        <ele>318.1</ele>
        <time>2016-01-10T09:40:14.000Z</time>
      </trkpt>
      <trkpt lat="47.4733" lon="6.76811">
        <ele>317.9</ele>
        <time>2016-01-10T09:40:15.000Z</time>
      </trkpt>
      <trkpt lat="47.47331" lon="6.76819">
        <ele>317.4</ele>
        <time>2016-01-10T09:40:16.000Z</time>
      </trkpt>
      <trkpt lat="47.47331" lon="6.76826">
        <ele>317.4</ele>
        <time>2016-01-10T09:40:17.000Z</time>
      </trkpt>
      <trkpt lat="47.4733" lon="6.76833">
        <ele>317.4</ele>
        <time>2016-01-10T09:40:18.000Z</time>
      </trkpt>
      <trkpt lat="47.4733" lon="6.7684">
        <ele>317.1</ele>
        <time>2016-01-10T09:40:19.000Z</time>
      </trkpt>
      <trkpt lat="47.47329" lon="6.76846">
        <ele>317.1</ele>
        <time>2016-01-10T09:40:20.000Z</time>
      </trkpt>
      <trkpt lat="47.47329" lon="6.76854">
        <ele>317.2</ele>
        <time>2016-01-10T09:40:21.000Z</time>
      </trkpt>
      <trkpt lat="47.47329" lon="6.76861">
        <ele>316.7</ele>
        <time>2016-01-10T09:40:22.000Z</time>
      </trkpt>
      <trkpt lat="47.47329" lon="6.76868">
        <ele>317.2</ele>
        <time>2016-01-10T09:40:23.000Z</time>
      </trkpt>
      <trkpt lat="47.47328" lon="6.76877">
        <ele>317.1</ele>
        <time>2016-01-10T09:40:24.000Z</time>
      </trkpt>
      <trkpt lat="47.47328" lon="6.76883">
        <ele>316.4</ele>
        <time>2016-01-10T09:40:25.000Z</time>
      </trkpt>
      <trkpt lat="47.47327" lon="6.7689">
        <ele>317.1</ele>
        <time>2016-01-10T09:40:26.000Z</time>
      </trkpt>
      <trkpt lat="47.47326" lon="6.76896">
        <ele>316.7</ele>
        <time>2016-01-10T09:40:27.000Z</time>
      </trkpt>
      <trkpt lat="47.47324" lon="6.76903">
        <ele>316.8</ele>
        <time>2016-01-10T09:40:28.000Z</time>
      </trkpt>
      <trkpt lat="47.47324" lon="6.76911">
        <ele>317</ele>
        <time>2016-01-10T09:40:29.000Z</time>
      </trkpt>
      <trkpt lat="47.47324" lon="6.76919">
        <ele>316.9</ele>
        <time>2016-01-10T09:40:30.000Z</time>
      </trkpt>
      <trkpt lat="47.47323" lon="6.76926">
        <ele>316.5</ele>
        <time>2016-01-10T09:40:31.000Z</time>
      </trkpt>
      <trkpt lat="47.47323" lon="6.76933">
        <ele>316.4</ele>
        <time>2016-01-10T09:40:32.000Z</time>
      </trkpt>
      <trkpt lat="47.47323" lon="6.76939">
        <ele>316.2</ele>
        <time>2016-01-10T09:40:33.000Z</time>
      </trkpt>
      <trkpt lat="47.47322" lon="6.76946">
        <ele>316.2</ele>
        <time>2016-01-10T09:40:34.000Z</time>
      </trkpt>
      <trkpt lat="47.47322" lon="6.76953">
        <ele>316.5</ele>
        <time>2016-01-10T09:40:35.001Z</time>
      </trkpt>
      <trkpt lat="47.47322" lon="6.76961">
        <ele>316.5</ele>
        <time>2016-01-10T09:40:36.000Z</time>
      </trkpt>
      <trkpt lat="47.47322" lon="6.76969">
        <ele>316</ele>
        <time>2016-01-10T09:40:37.000Z</time>
      </trkpt>
      <trkpt lat="47.47321" lon="6.76977">
        <ele>315.3</ele>
        <time>2016-01-10T09:40:38.000Z</time>
      </trkpt>
      <trkpt lat="47.4732" lon="6.76984">
        <ele>315.9</ele>
        <time>2016-01-10T09:40:39.000Z</time>
      </trkpt>
      <trkpt lat="47.4732" lon="6.76992">
        <ele>315.5</ele>
        <time>2016-01-10T09:40:40.000Z</time>
      </trkpt>
      <trkpt lat="47.4732" lon="6.76998">
        <ele>315.1</ele>
        <time>2016-01-10T09:40:41.000Z</time>
      </trkpt>
      <trkpt lat="47.47319" lon="6.77005">
        <ele>314.6</ele>
        <time>2016-01-10T09:40:42.000Z</time>
      </trkpt>
      <trkpt lat="47.4732" lon="6.77013">
        <ele>315</ele>
        <time>2016-01-10T09:40:43.001Z</time>
      </trkpt>
      <trkpt lat="47.47321" lon="6.7702">
        <ele>315.2</ele>
        <time>2016-01-10T09:40:44.000Z</time>
      </trkpt>
      <trkpt lat="47.4732" lon="6.77026">
        <ele>314.5</ele>
        <time>2016-01-10T09:40:45.000Z</time>
      </trkpt>
      <trkpt lat="47.47321" lon="6.77033">
        <ele>314.3</ele>
        <time>2016-01-10T09:40:46.000Z</time>
      </trkpt>
      <trkpt lat="47.4732" lon="6.7704">
        <ele>315.4</ele>
        <time>2016-01-10T09:40:47.000Z</time>
      </trkpt>
      <trkpt lat="47.47321" lon="6.77047">
        <ele>315.2</ele>
        <time>2016-01-10T09:40:48.000Z</time>
      </trkpt>
      <trkpt lat="47.47322" lon="6.77053">
        <ele>315.1</ele>
        <time>2016-01-10T09:40:49.000Z</time>
      </trkpt>
      <trkpt lat="47.47321" lon="6.77061">
        <ele>315</ele>
        <time>2016-01-10T09:40:50.000Z</time>
      </trkpt>
      <trkpt lat="47.47321" lon="6.77068">
        <ele>315.2</ele>
        <time>2016-01-10T09:40:51.000Z</time>
      </trkpt>
      <trkpt lat="47.47321" lon="6.77076">
        <ele>316.1</ele>
        <time>2016-01-10T09:40:52.000Z</time>
      </trkpt>
      <trkpt lat="47.47321" lon="6.77084">
        <ele>316.2</ele>
        <time>2016-01-10T09:40:53.001Z</time>
      </trkpt>
      <trkpt lat="47.47321" lon="6.77092">
        <ele>316.1</ele>
        <time>2016-01-10T09:40:54.000Z</time>
      </trkpt>
      <trkpt lat="47.47321" lon="6.771">
        <ele>315.8</ele>
        <time>2016-01-10T09:40:55.001Z</time>
      </trkpt>
      <trkpt lat="47.47321" lon="6.77108">
        <ele>316.7</ele>
        <time>2016-01-10T09:40:56.000Z</time>
      </trkpt>
      <trkpt lat="47.47321" lon="6.77116">
        <ele>315.9</ele>
        <time>2016-01-10T09:40:57.000Z</time>
      </trkpt>
      <trkpt lat="47.47321" lon="6.77123">
        <ele>315.8</ele>
        <time>2016-01-10T09:40:57.999Z</time>
      </trkpt>
      <trkpt lat="47.4732" lon="6.77131">
        <ele>316.3</ele>
        <time>2016-01-10T09:40:59.000Z</time>
      </trkpt>
      <trkpt lat="47.47321" lon="6.77139">
        <ele>316.7</ele>
        <time>2016-01-10T09:41:00.000Z</time>
      </trkpt>
      <trkpt lat="47.47322" lon="6.77146">
        <ele>317</ele>
        <time>2016-01-10T09:41:01.000Z</time>
      </trkpt>
      <trkpt lat="47.47322" lon="6.77154">
        <ele>317.4</ele>
        <time>2016-01-10T09:41:02.000Z</time>
      </trkpt>
      <trkpt lat="47.47322" lon="6.77161">
        <ele>317.7</ele>
        <time>2016-01-10T09:41:03.000Z</time>
      </trkpt>
      <trkpt lat="47.47323" lon="6.77169">
        <ele>317.7</ele>
        <time>2016-01-10T09:41:04.000Z</time>
      </trkpt>
      <trkpt lat="47.47323" lon="6.77175">
        <ele>316.8</ele>
        <time>2016-01-10T09:41:05.001Z</time>
      </trkpt>
      <trkpt lat="47.47323" lon="6.77181">
        <ele>317.5</ele>
        <time>2016-01-10T09:41:06.000Z</time>
      </trkpt>
      <trkpt lat="47.47322" lon="6.77187">
        <ele>317.6</ele>
        <time>2016-01-10T09:41:07.000Z</time>
      </trkpt>
      <trkpt lat="47.47324" lon="6.77192">
        <ele>316.6</ele>
        <time>2016-01-10T09:41:08.000Z</time>
      </trkpt>
      <trkpt lat="47.47324" lon="6.77199">
        <ele>316.4</ele>
        <time>2016-01-10T09:41:09.001Z</time>
      </trkpt>
      <trkpt lat="47.47326" lon="6.77203">
        <ele>316.8</ele>
        <time>2016-01-10T09:41:10.000Z</time>
      </trkpt>
      <trkpt lat="47.47332" lon="6.77205">
        <ele>316.7</ele>
        <time>2016-01-10T09:41:11.000Z</time>
      </trkpt>
      <trkpt lat="47.47337" lon="6.77206">
        <ele>316.2</ele>
        <time>2016-01-10T09:41:12.000Z</time>
      </trkpt>
      <trkpt lat="47.47342" lon="6.77208">
        <ele>315.7</ele>
        <time>2016-01-10T09:41:13.000Z</time>
      </trkpt>
      <trkpt lat="47.47346" lon="6.7721">
        <ele>315.2</ele>
        <time>2016-01-10T09:41:14.000Z</time>
      </trkpt>
      <trkpt lat="47.47351" lon="6.77211">
        <ele>315.4</ele>
        <time>2016-01-10T09:41:15.000Z</time>
      </trkpt>
      <trkpt lat="47.47356" lon="6.77211">
        <ele>315.7</ele>
        <time>2016-01-10T09:41:16.000Z</time>
      </trkpt>
      <trkpt lat="47.4736" lon="6.77212">
        <ele>315.1</ele>
        <time>2016-01-10T09:41:17.000Z</time>
      </trkpt>
      <trkpt lat="47.47365" lon="6.77213">
        <ele>315.3</ele>
        <time>2016-01-10T09:41:18.000Z</time>
      </trkpt>
      <trkpt lat="47.4737" lon="6.77213">
        <ele>315.1</ele>
        <time>2016-01-10T09:41:19.000Z</time>
      </trkpt>
      <trkpt lat="47.47375" lon="6.77212">
        <ele>315.6</ele>
        <time>2016-01-10T09:41:20.000Z</time>
      </trkpt>
      <trkpt lat="47.4738" lon="6.77213">
        <ele>315.1</ele>
        <time>2016-01-10T09:41:21.000Z</time>
      </trkpt>
      <trkpt lat="47.47386" lon="6.77214">
        <ele>315.4</ele>
        <time>2016-01-10T09:41:22.000Z</time>
      </trkpt>
      <trkpt lat="47.47391" lon="6.77216">
        <ele>312.5</ele>
        <time>2016-01-10T09:41:23.000Z</time>
      </trkpt>
      <trkpt lat="47.47397" lon="6.77218">
        <ele>312.4</ele>
        <time>2016-01-10T09:41:24.000Z</time>
      </trkpt>
      <trkpt lat="47.47402" lon="6.77219">
        <ele>311.6</ele>
        <time>2016-01-10T09:41:25.000Z</time>
      </trkpt>
      <trkpt lat="47.47408" lon="6.77221">
        <ele>311.7</ele>
        <time>2016-01-10T09:41:26.000Z</time>
      </trkpt>
      <trkpt lat="47.47414" lon="6.77223">
        <ele>312.3</ele>
        <time>2016-01-10T09:41:27.000Z</time>
      </trkpt>
      <trkpt lat="47.47419" lon="6.77226">
        <ele>312.5</ele>
        <time>2016-01-10T09:41:28.000Z</time>
      </trkpt>
      <trkpt lat="47.47424" lon="6.77229">
        <ele>312.4</ele>
        <time>2016-01-10T09:41:29.000Z</time>
      </trkpt>
      <trkpt lat="47.47429" lon="6.77235">
        <ele>312</ele>
        <time>2016-01-10T09:41:30.000Z</time>
      </trkpt>
      <trkpt lat="47.47433" lon="6.7724">
        <ele>312</ele>
        <time>2016-01-10T09:41:31.000Z</time>
      </trkpt>
      <trkpt lat="47.47438" lon="6.77246">
        <ele>311.7</ele>
        <time>2016-01-10T09:41:32.000Z</time>
      </trkpt>
      <trkpt lat="47.47443" lon="6.7725">
        <ele>311.7</ele>
        <time>2016-01-10T09:41:33.000Z</time>
      </trkpt>
      <trkpt lat="47.47448" lon="6.77255">
        <ele>311.4</ele>
        <time>2016-01-10T09:41:34.000Z</time>
      </trkpt>
      <trkpt lat="47.47453" lon="6.7726">
        <ele>311.5</ele>
        <time>2016-01-10T09:41:35.000Z</time>
      </trkpt>
      <trkpt lat="47.47457" lon="6.77265">
        <ele>311.7</ele>
        <time>2016-01-10T09:41:36.000Z</time>
      </trkpt>
      <trkpt lat="47.47462" lon="6.77271">
        <ele>311.9</ele>
        <time>2016-01-10T09:41:37.000Z</time>
      </trkpt>
      <trkpt lat="47.47467" lon="6.77276">
        <ele>310.7</ele>
        <time>2016-01-10T09:41:38.000Z</time>
      </trkpt>
      <trkpt lat="47.47472" lon="6.77281">
        <ele>310.3</ele>
        <time>2016-01-10T09:41:39.000Z</time>
      </trkpt>
      <trkpt lat="47.47477" lon="6.77287">
        <ele>309.9</ele>
        <time>2016-01-10T09:41:40.000Z</time>
      </trkpt>
      <trkpt lat="47.47481" lon="6.77293">
        <ele>310.4</ele>
        <time>2016-01-10T09:41:41.000Z</time>
      </trkpt>
      <trkpt lat="47.47484" lon="6.77299">
        <ele>310</ele>
        <time>2016-01-10T09:41:42.000Z</time>
      </trkpt>
      <trkpt lat="47.47488" lon="6.77304">
        <ele>310.4</ele>
        <time>2016-01-10T09:41:43.000Z</time>
      </trkpt>
      <trkpt lat="47.47491" lon="6.77309">
        <ele>311.3</ele>
        <time>2016-01-10T09:41:44.000Z</time>
      </trkpt>
      <trkpt lat="47.47495" lon="6.77315">
        <ele>311.2</ele>
        <time>2016-01-10T09:41:45.000Z</time>
      </trkpt>
      <trkpt lat="47.47498" lon="6.77321">
        <ele>311.6</ele>
        <time>2016-01-10T09:41:46.000Z</time>
      </trkpt>
      <trkpt lat="47.47502" lon="6.77326">
        <ele>312.2</ele>
        <time>2016-01-10T09:41:47.000Z</time>
      </trkpt>
      <trkpt lat="47.47505" lon="6.77331">
        <ele>312.5</ele>
        <time>2016-01-10T09:41:48.000Z</time>
      </trkpt>
      <trkpt lat="47.47509" lon="6.77337">
        <ele>312.8</ele>
        <time>2016-01-10T09:41:49.000Z</time>
      </trkpt>
      <trkpt lat="47.47513" lon="6.77342">
        <ele>313</ele>
        <time>2016-01-10T09:41:50.000Z</time>
      </trkpt>
      <trkpt lat="47.47517" lon="6.77347">
        <ele>313.1</ele>
        <time>2016-01-10T09:41:51.000Z</time>
      </trkpt>
      <trkpt lat="47.4752" lon="6.77353">
        <ele>313.2</ele>
        <time>2016-01-10T09:41:52.000Z</time>
      </trkpt>
      <trkpt lat="47.47523" lon="6.77358">
        <ele>313</ele>
        <time>2016-01-10T09:41:53.000Z</time>
      </trkpt>
      <trkpt lat="47.47528" lon="6.77364">
        <ele>312.5</ele>
        <time>2016-01-10T09:41:54.000Z</time>
      </trkpt>
      <trkpt lat="47.47531" lon="6.7737">
        <ele>312.5</ele>
        <time>2016-01-10T09:41:55.000Z</time>
      </trkpt>
      <trkpt lat="47.47534" lon="6.77376">
        <ele>312.7</ele>
        <time>2016-01-10T09:41:56.000Z</time>
      </trkpt>
      <trkpt lat="47.47538" lon="6.77382">
        <ele>313.1</ele>
        <time>2016-01-10T09:41:57.000Z</time>
      </trkpt>
      <trkpt lat="47.47542" lon="6.77388">
        <ele>312.6</ele>
        <time>2016-01-10T09:41:58.000Z</time>
      </trkpt>
      <trkpt lat="47.47546" lon="6.77395">
        <ele>312.7</ele>
        <time>2016-01-10T09:41:59.000Z</time>
      </trkpt>
      <trkpt lat="47.47549" lon="6.774">
        <ele>312.3</ele>
        <time>2016-01-10T09:42:00.000Z</time>
      </trkpt>
      <trkpt lat="47.47552" lon="6.77406">
        <ele>312.6</ele>
        <time>2016-01-10T09:42:01.000Z</time>
      </trkpt>
      <trkpt lat="47.47557" lon="6.77413">
        <ele>313.7</ele>
        <time>2016-01-10T09:42:02.000Z</time>
      </trkpt>
      <trkpt lat="47.4756" lon="6.7742">
        <ele>313.2</ele>
        <time>2016-01-10T09:42:03.000Z</time>
      </trkpt>
      <trkpt lat="47.47565" lon="6.77426">
        <ele>313.6</ele>
        <time>2016-01-10T09:42:03.999Z</time>
      </trkpt>
      <trkpt lat="47.47571" lon="6.77431">
        <ele>313.8</ele>
        <time>2016-01-10T09:42:05.000Z</time>
      </trkpt>
      <trkpt lat="47.47573" lon="6.77437">
        <ele>312.9</ele>
        <time>2016-01-10T09:42:06.000Z</time>
      </trkpt>
      <trkpt lat="47.47578" lon="6.77443">
        <ele>313</ele>
        <time>2016-01-10T09:42:07.000Z</time>
      </trkpt>
      <trkpt lat="47.47581" lon="6.77449">
        <ele>312.8</ele>
        <time>2016-01-10T09:42:08.000Z</time>
      </trkpt>
      <trkpt lat="47.47585" lon="6.77455">
        <ele>312.8</ele>
        <time>2016-01-10T09:42:09.000Z</time>
      </trkpt>
      <trkpt lat="47.47591" lon="6.7746">
        <ele>312.9</ele>
        <time>2016-01-10T09:42:10.000Z</time>
      </trkpt>
      <trkpt lat="47.47596" lon="6.77465">
        <ele>312.5</ele>
        <time>2016-01-10T09:42:11.000Z</time>
      </trkpt>
      <trkpt lat="47.476" lon="6.7747">
        <ele>312.6</ele>
        <time>2016-01-10T09:42:12.000Z</time>
      </trkpt>
      <trkpt lat="47.47604" lon="6.77475">
        <ele>312.7</ele>
        <time>2016-01-10T09:42:13.000Z</time>
      </trkpt>
      <trkpt lat="47.47608" lon="6.7748">
        <ele>312.9</ele>
        <time>2016-01-10T09:42:14.000Z</time>
      </trkpt>
      <trkpt lat="47.47612" lon="6.77484">
        <ele>313.2</ele>
        <time>2016-01-10T09:42:15.000Z</time>
      </trkpt>
      <trkpt lat="47.47616" lon="6.77489">
        <ele>315.6</ele>
        <time>2016-01-10T09:42:16.000Z</time>
      </trkpt>
      <trkpt lat="47.4762" lon="6.77494">
        <ele>316.8</ele>
        <time>2016-01-10T09:42:17.000Z</time>
      </trkpt>
      <trkpt lat="47.47625" lon="6.77498">
        <ele>316.9</ele>
        <time>2016-01-10T09:42:18.000Z</time>
      </trkpt>
      <trkpt lat="47.47629" lon="6.77503">
        <ele>317.6</ele>
        <time>2016-01-10T09:42:19.000Z</time>
      </trkpt>
      <trkpt lat="47.47634" lon="6.77507">
        <ele>317.8</ele>
        <time>2016-01-10T09:42:20.000Z</time>
      </trkpt>
      <trkpt lat="47.47638" lon="6.77512">
        <ele>317.3</ele>
        <time>2016-01-10T09:42:21.000Z</time>
      </trkpt>
      <trkpt lat="47.47642" lon="6.77516">
        <ele>316.4</ele>
        <time>2016-01-10T09:42:22.000Z</time>
      </trkpt>
      <trkpt lat="47.47645" lon="6.77521">
        <ele>316.2</ele>
        <time>2016-01-10T09:42:23.000Z</time>
      </trkpt>
      <trkpt lat="47.47649" lon="6.77526">
        <ele>316.8</ele>
        <time>2016-01-10T09:42:24.000Z</time>
      </trkpt>
      <trkpt lat="47.47652" lon="6.77532">
        <ele>316.4</ele>
        <time>2016-01-10T09:42:25.000Z</time>
      </trkpt>
      <trkpt lat="47.47656" lon="6.77537">
        <ele>316.4</ele>
        <time>2016-01-10T09:42:26.000Z</time>
      </trkpt>
      <trkpt lat="47.4766" lon="6.77542">
        <ele>316.7</ele>
        <time>2016-01-10T09:42:27.000Z</time>
      </trkpt>
      <trkpt lat="47.47663" lon="6.77548">
        <ele>316.4</ele>
        <time>2016-01-10T09:42:28.000Z</time>
      </trkpt>
      <trkpt lat="47.47666" lon="6.77554">
        <ele>315.4</ele>
        <time>2016-01-10T09:42:29.000Z</time>
      </trkpt>
      <trkpt lat="47.47671" lon="6.77559">
        <ele>315.7</ele>
        <time>2016-01-10T09:42:30.000Z</time>
      </trkpt>
      <trkpt lat="47.47675" lon="6.77564">
        <ele>316.4</ele>
        <time>2016-01-10T09:42:31.000Z</time>
      </trkpt>
      <trkpt lat="47.47678" lon="6.77569">
        <ele>314.7</ele>
        <time>2016-01-10T09:42:32.000Z</time>
      </trkpt>
      <trkpt lat="47.47682" lon="6.77573">
        <ele>314.5</ele>
        <time>2016-01-10T09:42:33.000Z</time>
      </trkpt>
      <trkpt lat="47.47686" lon="6.7758">
        <ele>315.7</ele>
        <time>2016-01-10T09:42:34.000Z</time>
      </trkpt>
      <trkpt lat="47.47689" lon="6.77585">
        <ele>314.8</ele>
        <time>2016-01-10T09:42:35.000Z</time>
      </trkpt>
      <trkpt lat="47.47692" lon="6.7759">
        <ele>314.4</ele>
        <time>2016-01-10T09:42:36.000Z</time>
      </trkpt>
      <trkpt lat="47.47695" lon="6.77596">
        <ele>314.6</ele>
        <time>2016-01-10T09:42:37.000Z</time>
      </trkpt>
      <trkpt lat="47.47697" lon="6.77603">
        <ele>313.9</ele>
        <time>2016-01-10T09:42:38.000Z</time>
      </trkpt>
      <trkpt lat="47.477" lon="6.77609">
        <ele>314.4</ele>
        <time>2016-01-10T09:42:39.000Z</time>
      </trkpt>
      <trkpt lat="47.47701" lon="6.77616">
        <ele>314.4</ele>
        <time>2016-01-10T09:42:40.000Z</time>
      </trkpt>
      <trkpt lat="47.47703" lon="6.77623">
        <ele>314.8</ele>
        <time>2016-01-10T09:42:41.000Z</time>
      </trkpt>
      <trkpt lat="47.47704" lon="6.7763">
        <ele>314</ele>
        <time>2016-01-10T09:42:42.000Z</time>
      </trkpt>
      <trkpt lat="47.47705" lon="6.77637">
        <ele>313.8</ele>
        <time>2016-01-10T09:42:43.000Z</time>
      </trkpt>
      <trkpt lat="47.47706" lon="6.77645">
        <ele>313.2</ele>
        <time>2016-01-10T09:42:44.000Z</time>
      </trkpt>
      <trkpt lat="47.47707" lon="6.77653">
        <ele>313.5</ele>
        <time>2016-01-10T09:42:45.000Z</time>
      </trkpt>
      <trkpt lat="47.47707" lon="6.7766">
        <ele>313.4</ele>
        <time>2016-01-10T09:42:46.000Z</time>
      </trkpt>
      <trkpt lat="47.47708" lon="6.77666">
        <ele>313.6</ele>
        <time>2016-01-10T09:42:47.000Z</time>
      </trkpt>
      <trkpt lat="47.47709" lon="6.77673">
        <ele>313.7</ele>
        <time>2016-01-10T09:42:47.999Z</time>
      </trkpt>
      <trkpt lat="47.47712" lon="6.77678">
        <ele>314.1</ele>
        <time>2016-01-10T09:42:49.000Z</time>
      </trkpt>
      <trkpt lat="47.47714" lon="6.77684">
        <ele>314.4</ele>
        <time>2016-01-10T09:42:50.000Z</time>
      </trkpt>
      <trkpt lat="47.47715" lon="6.7769">
        <ele>314.2</ele>
        <time>2016-01-10T09:42:51.000Z</time>
      </trkpt>
      <trkpt lat="47.47717" lon="6.77696">
        <ele>314.6</ele>
        <time>2016-01-10T09:42:52.000Z</time>
      </trkpt>
      <trkpt lat="47.47717" lon="6.77703">
        <ele>315.1</ele>
        <time>2016-01-10T09:42:53.000Z</time>
      </trkpt>
      <trkpt lat="47.47716" lon="6.7771">
        <ele>315.5</ele>
        <time>2016-01-10T09:42:54.000Z</time>
      </trkpt>
      <trkpt lat="47.47713" lon="6.77717">
        <ele>315.4</ele>
        <time>2016-01-10T09:42:55.000Z</time>
      </trkpt>
      <trkpt lat="47.47711" lon="6.77724">
        <ele>315.8</ele>
        <time>2016-01-10T09:42:56.000Z</time>
      </trkpt>
      <trkpt lat="47.47709" lon="6.77733">
        <ele>316</ele>
        <time>2016-01-10T09:42:57.000Z</time>
      </trkpt>
      <trkpt lat="47.47708" lon="6.7774">
        <ele>315.8</ele>
        <time>2016-01-10T09:42:58.000Z</time>
      </trkpt>
      <trkpt lat="47.47707" lon="6.77747">
        <ele>316.4</ele>
        <time>2016-01-10T09:42:59.000Z</time>
      </trkpt>
      <trkpt lat="47.47706" lon="6.77754">
        <ele>317</ele>
        <time>2016-01-10T09:43:00.000Z</time>
      </trkpt>
      <trkpt lat="47.47706" lon="6.7776">
        <ele>316.6</ele>
        <time>2016-01-10T09:43:00.999Z</time>
      </trkpt>
      <trkpt lat="47.47704" lon="6.77767">
        <ele>316.4</ele>
        <time>2016-01-10T09:43:02.000Z</time>
      </trkpt>
      <trkpt lat="47.47703" lon="6.77774">
        <ele>316.5</ele>
        <time>2016-01-10T09:43:03.000Z</time>
      </trkpt>
      <trkpt lat="47.47704" lon="6.7778">
        <ele>317</ele>
        <time>2016-01-10T09:43:04.000Z</time>
      </trkpt>
      <trkpt lat="47.47703" lon="6.77787">
        <ele>318.2</ele>
        <time>2016-01-10T09:43:05.000Z</time>
      </trkpt>
      <trkpt lat="47.47703" lon="6.77793">
        <ele>318</ele>
        <time>2016-01-10T09:43:06.000Z</time>
      </trkpt>
      <trkpt lat="47.47703" lon="6.77799">
        <ele>318.6</ele>
        <time>2016-01-10T09:43:07.000Z</time>
      </trkpt>
      <trkpt lat="47.47703" lon="6.77806">
        <ele>318.8</ele>
        <time>2016-01-10T09:43:07.999Z</time>
      </trkpt>
      <trkpt lat="47.47705" lon="6.77812">
        <ele>318.8</ele>
        <time>2016-01-10T09:43:09.000Z</time>
      </trkpt>
      <trkpt lat="47.47704" lon="6.77818">
        <ele>319.2</ele>
        <time>2016-01-10T09:43:10.000Z</time>
      </trkpt>
      <trkpt lat="47.47705" lon="6.77825">
        <ele>319.4</ele>
        <time>2016-01-10T09:43:11.000Z</time>
      </trkpt>
      <trkpt lat="47.47705" lon="6.77831">
        <ele>319.8</ele>
        <time>2016-01-10T09:43:12.000Z</time>
      </trkpt>
      <trkpt lat="47.47705" lon="6.77838">
        <ele>319.9</ele>
        <time>2016-01-10T09:43:13.000Z</time>
      </trkpt>
      <trkpt lat="47.47706" lon="6.77845">
        <ele>319.8</ele>
        <time>2016-01-10T09:43:14.000Z</time>
      </trkpt>
      <trkpt lat="47.47707" lon="6.77851">
        <ele>320.2</ele>
        <time>2016-01-10T09:43:15.000Z</time>
      </trkpt>
      <trkpt lat="47.47707" lon="6.77858">
        <ele>320</ele>
        <time>2016-01-10T09:43:16.000Z</time>
      </trkpt>
      <trkpt lat="47.47708" lon="6.77864">
        <ele>320.1</ele>
        <time>2016-01-10T09:43:17.000Z</time>
      </trkpt>
      <trkpt lat="47.47709" lon="6.7787">
        <ele>320.9</ele>
        <time>2016-01-10T09:43:18.000Z</time>
      </trkpt>
      <trkpt lat="47.4771" lon="6.77876">
        <ele>321.2</ele>
        <time>2016-01-10T09:43:19.000Z</time>
      </trkpt>
      <trkpt lat="47.4771" lon="6.77883">
        <ele>321.2</ele>
        <time>2016-01-10T09:43:20.000Z</time>
      </trkpt>
      <trkpt lat="47.47711" lon="6.7789">
        <ele>321.9</ele>
        <time>2016-01-10T09:43:21.000Z</time>
      </trkpt>
      <trkpt lat="47.47712" lon="6.77897">
        <ele>321.8</ele>
        <time>2016-01-10T09:43:22.000Z</time>
      </trkpt>
      <trkpt lat="47.47713" lon="6.77902">
        <ele>321.9</ele>
        <time>2016-01-10T09:43:23.000Z</time>
      </trkpt>
      <trkpt lat="47.47714" lon="6.77909">
        <ele>321.5</ele>
        <time>2016-01-10T09:43:24.000Z</time>
      </trkpt>
      <trkpt lat="47.47715" lon="6.77915">
        <ele>321.4</ele>
        <time>2016-01-10T09:43:25.000Z</time>
      </trkpt>
      <trkpt lat="47.47716" lon="6.77922">
        <ele>321.4</ele>
        <time>2016-01-10T09:43:26.000Z</time>
      </trkpt>
      <trkpt lat="47.47717" lon="6.77929">
        <ele>322</ele>
        <time>2016-01-10T09:43:27.000Z</time>
      </trkpt>
      <trkpt lat="47.47719" lon="6.77935">
        <ele>322.6</ele>
        <time>2016-01-10T09:43:28.000Z</time>
      </trkpt>
      <trkpt lat="47.4772" lon="6.77941">
        <ele>323.2</ele>
        <time>2016-01-10T09:43:29.000Z</time>
      </trkpt>
      <trkpt lat="47.47722" lon="6.77948">
        <ele>323.5</ele>
        <time>2016-01-10T09:43:30.001Z</time>
      </trkpt>
      <trkpt lat="47.47723" lon="6.77954">
        <ele>323.4</ele>
        <time>2016-01-10T09:43:31.000Z</time>
      </trkpt>
      <trkpt lat="47.47724" lon="6.77961">
        <ele>323.3</ele>
        <time>2016-01-10T09:43:32.000Z</time>
      </trkpt>
      <trkpt lat="47.47726" lon="6.77966">
        <ele>322.6</ele>
        <time>2016-01-10T09:43:33.000Z</time>
      </trkpt>
      <trkpt lat="47.47727" lon="6.77972">
        <ele>322.7</ele>
        <time>2016-01-10T09:43:34.000Z</time>
      </trkpt>
      <trkpt lat="47.47728" lon="6.77979">
        <ele>322.5</ele>
        <time>2016-01-10T09:43:34.999Z</time>
      </trkpt>
      <trkpt lat="47.47731" lon="6.77984">
        <ele>322.5</ele>
        <time>2016-01-10T09:43:36.000Z</time>
      </trkpt>
      <trkpt lat="47.47732" lon="6.7799">
        <ele>322.4</ele>
        <time>2016-01-10T09:43:37.000Z</time>
      </trkpt>
      <trkpt lat="47.47733" lon="6.77996">
        <ele>322.4</ele>
        <time>2016-01-10T09:43:38.000Z</time>
      </trkpt>
      <trkpt lat="47.47733" lon="6.78003">
        <ele>322.1</ele>
        <time>2016-01-10T09:43:39.000Z</time>
      </trkpt>
      <trkpt lat="47.47734" lon="6.78009">
        <ele>322.7</ele>
        <time>2016-01-10T09:43:40.000Z</time>
      </trkpt>
      <trkpt lat="47.47736" lon="6.78016">
        <ele>323.4</ele>
        <time>2016-01-10T09:43:41.000Z</time>
      </trkpt>
      <trkpt lat="47.47735" lon="6.78022">
        <ele>323.7</ele>
        <time>2016-01-10T09:43:42.000Z</time>
      </trkpt>
      <trkpt lat="47.47735" lon="6.78028">
        <ele>323.4</ele>
        <time>2016-01-10T09:43:43.000Z</time>
      </trkpt>
      <trkpt lat="47.47736" lon="6.78035">
        <ele>323.6</ele>
        <time>2016-01-10T09:43:44.000Z</time>
      </trkpt>
      <trkpt lat="47.47736" lon="6.78041">
        <ele>322.8</ele>
        <time>2016-01-10T09:43:45.001Z</time>
      </trkpt>
      <trkpt lat="47.47735" lon="6.78047">
        <ele>322.8</ele>
        <time>2016-01-10T09:43:46.000Z</time>
      </trkpt>
      <trkpt lat="47.47734" lon="6.78054">
        <ele>323.1</ele>
        <time>2016-01-10T09:43:47.000Z</time>
      </trkpt>
      <trkpt lat="47.47733" lon="6.7806">
        <ele>323.7</ele>
        <time>2016-01-10T09:43:48.000Z</time>
      </trkpt>
      <trkpt lat="47.47733" lon="6.78066">
        <ele>323.9</ele>
        <time>2016-01-10T09:43:49.000Z</time>
      </trkpt>
      <trkpt lat="47.47732" lon="6.78071">
        <ele>323.2</ele>
        <time>2016-01-10T09:43:50.000Z</time>
      </trkpt>
      <trkpt lat="47.4773" lon="6.78077">
        <ele>323.7</ele>
        <time>2016-01-10T09:43:51.000Z</time>
      </trkpt>
      <trkpt lat="47.47729" lon="6.78082">
        <ele>324</ele>
        <time>2016-01-10T09:43:52.000Z</time>
      </trkpt>
      <trkpt lat="47.47726" lon="6.78087">
        <ele>324.2</ele>
        <time>2016-01-10T09:43:53.000Z</time>
      </trkpt>
      <trkpt lat="47.47724" lon="6.78092">
        <ele>324.9</ele>
        <time>2016-01-10T09:43:54.000Z</time>
      </trkpt>
      <trkpt lat="47.47721" lon="6.78097">
        <ele>325.4</ele>
        <time>2016-01-10T09:43:55.000Z</time>
      </trkpt>
      <trkpt lat="47.47719" lon="6.78101">
        <ele>326.1</ele>
        <time>2016-01-10T09:43:56.000Z</time>
      </trkpt>
      <trkpt lat="47.47717" lon="6.78106">
        <ele>326.3</ele>
        <time>2016-01-10T09:43:57.000Z</time>
      </trkpt>
      <trkpt lat="47.47715" lon="6.78111">
        <ele>325.8</ele>
        <time>2016-01-10T09:43:58.000Z</time>
      </trkpt>
      <trkpt lat="47.47713" lon="6.78115">
        <ele>326.9</ele>
        <time>2016-01-10T09:43:59.000Z</time>
      </trkpt>
      <trkpt lat="47.47712" lon="6.78119">
        <ele>328.4</ele>
        <time>2016-01-10T09:43:59.998Z</time>
      </trkpt>
      <trkpt lat="47.4771" lon="6.78123">
        <ele>326.7</ele>
        <time>2016-01-10T09:44:01.000Z</time>
      </trkpt>
      <trkpt lat="47.47708" lon="6.78126">
        <ele>326.3</ele>
        <time>2016-01-10T09:44:02.000Z</time>
      </trkpt>
      <trkpt lat="47.47706" lon="6.7813">
        <ele>326.4</ele>
        <time>2016-01-10T09:44:03.000Z</time>
      </trkpt>
      <trkpt lat="47.47705" lon="6.78134">
        <ele>326.5</ele>
        <time>2016-01-10T09:44:04.000Z</time>
      </trkpt>
      <trkpt lat="47.47703" lon="6.78137">
        <ele>327.6</ele>
        <time>2016-01-10T09:44:05.000Z</time>
      </trkpt>
      <trkpt lat="47.47702" lon="6.78141">
        <ele>328.7</ele>
        <time>2016-01-10T09:44:06.000Z</time>
      </trkpt>
      <trkpt lat="47.477" lon="6.78145">
        <ele>329.4</ele>
        <time>2016-01-10T09:44:07.000Z</time>
      </trkpt>
      <trkpt lat="47.47699" lon="6.78149">
        <ele>330.3</ele>
        <time>2016-01-10T09:44:08.000Z</time>
      </trkpt>
      <trkpt lat="47.47698" lon="6.78153">
        <ele>331</ele>
        <time>2016-01-10T09:44:09.000Z</time>
      </trkpt>
      <trkpt lat="47.47697" lon="6.78157">
        <ele>331.3</ele>
        <time>2016-01-10T09:44:10.000Z</time>
      </trkpt>
      <trkpt lat="47.47696" lon="6.78161">
        <ele>331.1</ele>
        <time>2016-01-10T09:44:11.000Z</time>
      </trkpt>
      <trkpt lat="47.47695" lon="6.78164">
        <ele>332.6</ele>
        <time>2016-01-10T09:44:12.000Z</time>
      </trkpt>
      <trkpt lat="47.47694" lon="6.78168">
        <ele>333.7</ele>
        <time>2016-01-10T09:44:13.000Z</time>
      </trkpt>
      <trkpt lat="47.47694" lon="6.78171">
        <ele>333.6</ele>
        <time>2016-01-10T09:44:14.000Z</time>
      </trkpt>
      <trkpt lat="47.47693" lon="6.78175">
        <ele>333.8</ele>
        <time>2016-01-10T09:44:15.000Z</time>
      </trkpt>
      <trkpt lat="47.47692" lon="6.78178">
        <ele>334.2</ele>
        <time>2016-01-10T09:44:16.000Z</time>
      </trkpt>
      <trkpt lat="47.47691" lon="6.78181">
        <ele>334.7</ele>
        <time>2016-01-10T09:44:17.001Z</time>
      </trkpt>
      <trkpt lat="47.4769" lon="6.78184">
        <ele>334.6</ele>
        <time>2016-01-10T09:44:18.000Z</time>
      </trkpt>
      <trkpt lat="47.47689" lon="6.78188">
        <ele>334.7</ele>
        <time>2016-01-10T09:44:19.000Z</time>
      </trkpt>
      <trkpt lat="47.47688" lon="6.78194">
        <ele>333.4</ele>
        <time>2016-01-10T09:44:21.000Z</time>
      </trkpt>
      <trkpt lat="47.47688" lon="6.78197">
        <ele>333.2</ele>
        <time>2016-01-10T09:44:22.000Z</time>
      </trkpt>
      <trkpt lat="47.47689" lon="6.78204">
        <ele>332.8</ele>
        <time>2016-01-10T09:44:24.000Z</time>
      </trkpt>
      <trkpt lat="47.4769" lon="6.78207">
        <ele>333.3</ele>
        <time>2016-01-10T09:44:25.000Z</time>
      </trkpt>
      <trkpt lat="47.47691" lon="6.7821">
        <ele>333.2</ele>
        <time>2016-01-10T09:44:26.000Z</time>
      </trkpt>
      <trkpt lat="47.47691" lon="6.78213">
        <ele>333.4</ele>
        <time>2016-01-10T09:44:27.000Z</time>
      </trkpt>
      <trkpt lat="47.47692" lon="6.78217">
        <ele>333.3</ele>
        <time>2016-01-10T09:44:28.000Z</time>
      </trkpt>
      <trkpt lat="47.47693" lon="6.7822">
        <ele>333.1</ele>
        <time>2016-01-10T09:44:29.000Z</time>
      </trkpt>
      <trkpt lat="47.47694" lon="6.78223">
        <ele>332.9</ele>
        <time>2016-01-10T09:44:30.000Z</time>
      </trkpt>
      <trkpt lat="47.47695" lon="6.78227">
        <ele>332.8</ele>
        <time>2016-01-10T09:44:31.000Z</time>
      </trkpt>
      <trkpt lat="47.47697" lon="6.78231">
        <ele>332.6</ele>
        <time>2016-01-10T09:44:32.000Z</time>
      </trkpt>
      <trkpt lat="47.47698" lon="6.78234">
        <ele>334.1</ele>
        <time>2016-01-10T09:44:33.000Z</time>
      </trkpt>
      <trkpt lat="47.477" lon="6.78238">
        <ele>334.6</ele>
        <time>2016-01-10T09:44:34.000Z</time>
      </trkpt>
      <trkpt lat="47.47702" lon="6.78241">
        <ele>334.9</ele>
        <time>2016-01-10T09:44:35.000Z</time>
      </trkpt>
      <trkpt lat="47.47704" lon="6.78245">
        <ele>333.8</ele>
        <time>2016-01-10T09:44:36.000Z</time>
      </trkpt>
      <trkpt lat="47.47705" lon="6.78248">
        <ele>333.8</ele>
        <time>2016-01-10T09:44:37.000Z</time>
      </trkpt>
      <trkpt lat="47.47706" lon="6.78252">
        <ele>333</ele>
        <time>2016-01-10T09:44:38.000Z</time>
      </trkpt>
      <trkpt lat="47.47707" lon="6.78255">
        <ele>332.9</ele>
        <time>2016-01-10T09:44:39.000Z</time>
      </trkpt>
      <trkpt lat="47.47708" lon="6.78259">
        <ele>333.1</ele>
        <time>2016-01-10T09:44:40.000Z</time>
      </trkpt>
      <trkpt lat="47.47709" lon="6.78262">
        <ele>332</ele>
        <time>2016-01-10T09:44:41.000Z</time>
      </trkpt>
      <trkpt lat="47.4771" lon="6.78266">
        <ele>331.7</ele>
        <time>2016-01-10T09:44:42.000Z</time>
      </trkpt>
      <trkpt lat="47.47711" lon="6.78269">
        <ele>331.1</ele>
        <time>2016-01-10T09:44:43.000Z</time>
      </trkpt>
      <trkpt lat="47.47711" lon="6.78273">
        <ele>331.5</ele>
        <time>2016-01-10T09:44:44.000Z</time>
      </trkpt>
      <trkpt lat="47.47712" lon="6.78276">
        <ele>331.9</ele>
        <time>2016-01-10T09:44:45.000Z</time>
      </trkpt>
      <trkpt lat="47.47713" lon="6.7828">
        <ele>332.9</ele>
        <time>2016-01-10T09:44:46.000Z</time>
      </trkpt>
      <trkpt lat="47.47714" lon="6.78284">
        <ele>333.2</ele>
        <time>2016-01-10T09:44:47.000Z</time>
      </trkpt>
      <trkpt lat="47.47715" lon="6.78287">
        <ele>332.9</ele>
        <time>2016-01-10T09:44:48.000Z</time>
      </trkpt>
      <trkpt lat="47.47716" lon="6.78291">
        <ele>332.8</ele>
        <time>2016-01-10T09:44:49.000Z</time>
      </trkpt>
      <trkpt lat="47.47717" lon="6.78295">
        <ele>333.8</ele>
        <time>2016-01-10T09:44:50.000Z</time>
      </trkpt>
      <trkpt lat="47.47718" lon="6.78298">
        <ele>334.3</ele>
        <time>2016-01-10T09:44:51.000Z</time>
      </trkpt>
      <trkpt lat="47.47718" lon="6.78302">
        <ele>334.8</ele>
        <time>2016-01-10T09:44:52.000Z</time>
      </trkpt>
      <trkpt lat="47.47719" lon="6.78305">
        <ele>335.4</ele>
        <time>2016-01-10T09:44:53.000Z</time>
      </trkpt>
      <trkpt lat="47.47719" lon="6.78309">
        <ele>336</ele>
        <time>2016-01-10T09:44:54.000Z</time>
      </trkpt>
      <trkpt lat="47.47718" lon="6.78313">
        <ele>336.7</ele>
        <time>2016-01-10T09:44:55.000Z</time>
      </trkpt>
      <trkpt lat="47.47717" lon="6.78317">
        <ele>336.6</ele>
        <time>2016-01-10T09:44:56.000Z</time>
      </trkpt>
      <trkpt lat="47.47717" lon="6.7832">
        <ele>336.5</ele>
        <time>2016-01-10T09:44:57.000Z</time>
      </trkpt>
      <trkpt lat="47.47716" lon="6.78324">
        <ele>336.8</ele>
        <time>2016-01-10T09:44:58.000Z</time>
      </trkpt>
      <trkpt lat="47.47715" lon="6.78327">
        <ele>337.2</ele>
        <time>2016-01-10T09:44:59.000Z</time>
      </trkpt>
      <trkpt lat="47.47713" lon="6.78331">
        <ele>337</ele>
        <time>2016-01-10T09:45:00.000Z</time>
      </trkpt>
      <trkpt lat="47.47712" lon="6.78335">
        <ele>337.1</ele>
        <time>2016-01-10T09:45:01.000Z</time>
      </trkpt>
      <trkpt lat="47.47711" lon="6.78338">
        <ele>337.3</ele>
        <time>2016-01-10T09:45:02.000Z</time>
      </trkpt>
      <trkpt lat="47.47709" lon="6.78342">
        <ele>337.2</ele>
        <time>2016-01-10T09:45:03.000Z</time>
      </trkpt>
      <trkpt lat="47.47707" lon="6.78346">
        <ele>337.8</ele>
        <time>2016-01-10T09:45:04.000Z</time>
      </trkpt>
      <trkpt lat="47.47705" lon="6.7835">
        <ele>338.3</ele>
        <time>2016-01-10T09:45:05.000Z</time>
      </trkpt>
      <trkpt lat="47.47703" lon="6.78354">
        <ele>338.4</ele>
        <time>2016-01-10T09:45:06.000Z</time>
      </trkpt>
      <trkpt lat="47.47701" lon="6.78358">
        <ele>338.9</ele>
        <time>2016-01-10T09:45:07.000Z</time>
      </trkpt>
      <trkpt lat="47.47699" lon="6.78362">
        <ele>339.4</ele>
        <time>2016-01-10T09:45:08.000Z</time>
      </trkpt>
      <trkpt lat="47.47697" lon="6.78366">
        <ele>339.6</ele>
        <time>2016-01-10T09:45:09.000Z</time>
      </trkpt>
      <trkpt lat="47.47695" lon="6.78371">
        <ele>340.4</ele>
        <time>2016-01-10T09:45:10.000Z</time>
      </trkpt>
      <trkpt lat="47.47693" lon="6.78375">
        <ele>340.4</ele>
        <time>2016-01-10T09:45:11.000Z</time>
      </trkpt>
      <trkpt lat="47.47691" lon="6.78378">
        <ele>341.1</ele>
        <time>2016-01-10T09:45:12.000Z</time>
      </trkpt>
      <trkpt lat="47.47689" lon="6.78382">
        <ele>341.6</ele>
        <time>2016-01-10T09:45:13.000Z</time>
      </trkpt>
      <trkpt lat="47.47687" lon="6.78385">
        <ele>342</ele>
        <time>2016-01-10T09:45:14.000Z</time>
      </trkpt>
      <trkpt lat="47.47686" lon="6.78388">
        <ele>341.9</ele>
        <time>2016-01-10T09:45:15.000Z</time>
      </trkpt>
      <trkpt lat="47.47684" lon="6.78393">
        <ele>341.5</ele>
        <time>2016-01-10T09:45:17.000Z</time>
      </trkpt>
      <trkpt lat="47.47683" lon="6.78395">
        <ele>341.6</ele>
        <time>2016-01-10T09:45:18.000Z</time>
      </trkpt>
      <trkpt lat="47.47681" lon="6.78399">
        <ele>341.7</ele>
        <time>2016-01-10T09:45:20.000Z</time>
      </trkpt>
      <trkpt lat="47.47679" lon="6.78402">
        <ele>341.9</ele>
        <time>2016-01-10T09:45:21.000Z</time>
      </trkpt>
      <trkpt lat="47.47677" lon="6.78405">
        <ele>341.9</ele>
        <time>2016-01-10T09:45:22.000Z</time>
      </trkpt>
      <trkpt lat="47.47675" lon="6.7841">
        <ele>342</ele>
        <time>2016-01-10T09:45:23.000Z</time>
      </trkpt>
      <trkpt lat="47.47673" lon="6.78415">
        <ele>342.4</ele>
        <time>2016-01-10T09:45:24.000Z</time>
      </trkpt>
      <trkpt lat="47.47672" lon="6.7842">
        <ele>344.4</ele>
        <time>2016-01-10T09:45:25.000Z</time>
      </trkpt>
      <trkpt lat="47.4767" lon="6.78423">
        <ele>344.6</ele>
        <time>2016-01-10T09:45:26.000Z</time>
      </trkpt>
      <trkpt lat="47.4767" lon="6.78426">
        <ele>343.5</ele>
        <time>2016-01-10T09:45:27.000Z</time>
      </trkpt>
      <trkpt lat="47.47666" lon="6.78428">
        <ele>342.2</ele>
        <time>2016-01-10T09:45:30.000Z</time>
      </trkpt>
      <trkpt lat="47.47664" lon="6.78428">
        <ele>341.9</ele>
        <time>2016-01-10T09:45:31.000Z</time>
      </trkpt>
      <trkpt lat="47.47661" lon="6.78425">
        <ele>343</ele>
        <time>2016-01-10T09:45:45.000Z</time>
      </trkpt>
      <trkpt lat="47.4766" lon="6.78424">
        <ele>343.2</ele>
        <time>2016-01-10T09:45:46.000Z</time>
      </trkpt>
      <trkpt lat="47.47658" lon="6.78418">
        <ele>346.4</ele>
        <time>2016-01-10T09:45:56.000Z</time>
      </trkpt>
      <trkpt lat="47.47658" lon="6.78418">
        <ele>346.4</ele>
        <time>2016-01-10T09:45:57.000Z</time>
      </trkpt>
      <trkpt lat="47.47659" lon="6.78412">
        <ele>346.3</ele>
        <time>2016-01-10T09:46:09.000Z</time>
      </trkpt>
      <trkpt lat="47.47659" lon="6.78412">
        <ele>346.2</ele>
        <time>2016-01-10T09:46:10.000Z</time>
      </trkpt>
      <trkpt lat="47.47657" lon="6.78406">
        <ele>347</ele>
        <time>2016-01-10T09:48:09.000Z</time>
      </trkpt>
      <trkpt lat="47.47657" lon="6.78405">
        <ele>346.9</ele>
        <time>2016-01-10T09:48:10.000Z</time>
      </trkpt>
      <trkpt lat="47.47653" lon="6.78401">
        <ele>348.7</ele>
        <time>2016-01-10T09:48:30.000Z</time>
      </trkpt>
      <trkpt lat="47.47653" lon="6.78401">
        <ele>348.7</ele>
        <time>2016-01-10T09:48:31.000Z</time>
      </trkpt>
      <trkpt lat="47.47649" lon="6.78401">
        <ele>349.3</ele>
        <time>2016-01-10T09:48:40.000Z</time>
      </trkpt>
      <trkpt lat="47.47648" lon="6.784">
        <ele>349</ele>
        <time>2016-01-10T09:48:41.000Z</time>
      </trkpt>
      <trkpt lat="47.47645" lon="6.784">
        <ele>351</ele>
        <time>2016-01-10T09:48:47.000Z</time>
      </trkpt>
      <trkpt lat="47.47644" lon="6.784">
        <ele>351.6</ele>
        <time>2016-01-10T09:48:48.000Z</time>
      </trkpt>
      <trkpt lat="47.4764" lon="6.78398">
        <ele>352.8</ele>
        <time>2016-01-10T09:48:56.000Z</time>
      </trkpt>
      <trkpt lat="47.47639" lon="6.78397">
        <ele>353</ele>
        <time>2016-01-10T09:48:57.000Z</time>
      </trkpt>
      <trkpt lat="47.47636" lon="6.78394">
        <ele>353.3</ele>
        <time>2016-01-10T09:48:59.000Z</time>
      </trkpt>
      <trkpt lat="47.47635" lon="6.78392">
        <ele>353.5</ele>
        <time>2016-01-10T09:49:00.000Z</time>
      </trkpt>
      <trkpt lat="47.47633" lon="6.78389">
        <ele>353.3</ele>
        <time>2016-01-10T09:49:01.000Z</time>
      </trkpt>
      <trkpt lat="47.47632" lon="6.78386">
        <ele>353.6</ele>
        <time>2016-01-10T09:49:02.000Z</time>
      </trkpt>
      <trkpt lat="47.4763" lon="6.78382">
        <ele>353.6</ele>
        <time>2016-01-10T09:49:03.000Z</time>
      </trkpt>
      <trkpt lat="47.47629" lon="6.78379">
        <ele>354.6</ele>
        <time>2016-01-10T09:49:04.000Z</time>
      </trkpt>
      <trkpt lat="47.47628" lon="6.78376">
        <ele>354.7</ele>
        <time>2016-01-10T09:49:05.000Z</time>
      </trkpt>
      <trkpt lat="47.47627" lon="6.78373">
        <ele>354.9</ele>
        <time>2016-01-10T09:49:06.000Z</time>
      </trkpt>
      <trkpt lat="47.47625" lon="6.78368">
        <ele>355.1</ele>
        <time>2016-01-10T09:49:08.000Z</time>
      </trkpt>
      <trkpt lat="47.47623" lon="6.78365">
        <ele>355.4</ele>
        <time>2016-01-10T09:49:09.000Z</time>
      </trkpt>
      <trkpt lat="47.47622" lon="6.78362">
        <ele>354.9</ele>
        <time>2016-01-10T09:49:10.000Z</time>
      </trkpt>
      <trkpt lat="47.4762" lon="6.7836">
        <ele>354.4</ele>
        <time>2016-01-10T09:49:11.000Z</time>
      </trkpt>
      <trkpt lat="47.47618" lon="6.78357">
        <ele>354.3</ele>
        <time>2016-01-10T09:49:12.000Z</time>
      </trkpt>
      <trkpt lat="47.47617" lon="6.78354">
        <ele>354.3</ele>
        <time>2016-01-10T09:49:13.000Z</time>
      </trkpt>
      <trkpt lat="47.47615" lon="6.78351">
        <ele>354.4</ele>
        <time>2016-01-10T09:49:14.000Z</time>
      </trkpt>
      <trkpt lat="47.47613" lon="6.78348">
        <ele>355.4</ele>
        <time>2016-01-10T09:49:15.000Z</time>
      </trkpt>
      <trkpt lat="47.47611" lon="6.78345">
        <ele>354.7</ele>
        <time>2016-01-10T09:49:16.000Z</time>
      </trkpt>
      <trkpt lat="47.4761" lon="6.78342">
        <ele>353.1</ele>
        <time>2016-01-10T09:49:17.000Z</time>
      </trkpt>
      <trkpt lat="47.47608" lon="6.78339">
        <ele>352.8</ele>
        <time>2016-01-10T09:49:18.000Z</time>
      </trkpt>
      <trkpt lat="47.47607" lon="6.78336">
        <ele>353</ele>
        <time>2016-01-10T09:49:19.000Z</time>
      </trkpt>
      <trkpt lat="47.47605" lon="6.78333">
        <ele>353.3</ele>
        <time>2016-01-10T09:49:20.000Z</time>
      </trkpt>
      <trkpt lat="47.47604" lon="6.7833">
        <ele>353</ele>
        <time>2016-01-10T09:49:21.000Z</time>
      </trkpt>
      <trkpt lat="47.47602" lon="6.78327">
        <ele>353.2</ele>
        <time>2016-01-10T09:49:22.000Z</time>
      </trkpt>
      <trkpt lat="47.47601" lon="6.78325">
        <ele>353.5</ele>
        <time>2016-01-10T09:49:23.000Z</time>
      </trkpt>
      <trkpt lat="47.47599" lon="6.78322">
        <ele>351.4</ele>
        <time>2016-01-10T09:49:24.000Z</time>
      </trkpt>
      <trkpt lat="47.47598" lon="6.78319">
        <ele>351.9</ele>
        <time>2016-01-10T09:49:25.000Z</time>
      </trkpt>
      <trkpt lat="47.47596" lon="6.78316">
        <ele>350.6</ele>
        <time>2016-01-10T09:49:26.000Z</time>
      </trkpt>
      <trkpt lat="47.47594" lon="6.78313">
        <ele>350.4</ele>
        <time>2016-01-10T09:49:27.000Z</time>
      </trkpt>
      <trkpt lat="47.47593" lon="6.7831">
        <ele>352.3</ele>
        <time>2016-01-10T09:49:28.000Z</time>
      </trkpt>
      <trkpt lat="47.47591" lon="6.78308">
        <ele>353.6</ele>
        <time>2016-01-10T09:49:29.000Z</time>
      </trkpt>
      <trkpt lat="47.47588" lon="6.78303">
        <ele>353.4</ele>
        <time>2016-01-10T09:49:31.000Z</time>
      </trkpt>
      <trkpt lat="47.47587" lon="6.78302">
        <ele>353.5</ele>
        <time>2016-01-10T09:49:32.000Z</time>
      </trkpt>
      <trkpt lat="47.47583" lon="6.78298">
        <ele>352.5</ele>
        <time>2016-01-10T09:49:34.000Z</time>
      </trkpt>
      <trkpt lat="47.47581" lon="6.78295">
        <ele>352.9</ele>
        <time>2016-01-10T09:49:35.000Z</time>
      </trkpt>
      <trkpt lat="47.47579" lon="6.78292">
        <ele>353</ele>
        <time>2016-01-10T09:49:36.000Z</time>
      </trkpt>
      <trkpt lat="47.47577" lon="6.78289">
        <ele>353.7</ele>
        <time>2016-01-10T09:49:37.000Z</time>
      </trkpt>
      <trkpt lat="47.47574" lon="6.78286">
        <ele>354.3</ele>
        <time>2016-01-10T09:49:38.000Z</time>
      </trkpt>
      <trkpt lat="47.47571" lon="6.78282">
        <ele>353.9</ele>
        <time>2016-01-10T09:49:39.000Z</time>
      </trkpt>
      <trkpt lat="47.47569" lon="6.78279">
        <ele>354.4</ele>
        <time>2016-01-10T09:49:40.000Z</time>
      </trkpt>
      <trkpt lat="47.47566" lon="6.78274">
        <ele>355.2</ele>
        <time>2016-01-10T09:49:41.000Z</time>
      </trkpt>
      <trkpt lat="47.47563" lon="6.7827">
        <ele>355.4</ele>
        <time>2016-01-10T09:49:42.000Z</time>
      </trkpt>
      <trkpt lat="47.4756" lon="6.78265">
        <ele>355.8</ele>
        <time>2016-01-10T09:49:43.000Z</time>
      </trkpt>
      <trkpt lat="47.47557" lon="6.7826">
        <ele>356.8</ele>
        <time>2016-01-10T09:49:44.000Z</time>
      </trkpt>
      <trkpt lat="47.47553" lon="6.78256">
        <ele>357.2</ele>
        <time>2016-01-10T09:49:45.000Z</time>
      </trkpt>
      <trkpt lat="47.4755" lon="6.78251">
        <ele>357.3</ele>
        <time>2016-01-10T09:49:46.000Z</time>
      </trkpt>
      <trkpt lat="47.47547" lon="6.78247">
        <ele>357.3</ele>
        <time>2016-01-10T09:49:47.000Z</time>
      </trkpt>
      <trkpt lat="47.47543" lon="6.78242">
        <ele>357.4</ele>
        <time>2016-01-10T09:49:48.000Z</time>
      </trkpt>
      <trkpt lat="47.4754" lon="6.78237">
        <ele>357.2</ele>
        <time>2016-01-10T09:49:49.000Z</time>
      </trkpt>
      <trkpt lat="47.47537" lon="6.78232">
        <ele>357.1</ele>
        <time>2016-01-10T09:49:50.000Z</time>
      </trkpt>
      <trkpt lat="47.47534" lon="6.78227">
        <ele>357.4</ele>
        <time>2016-01-10T09:49:51.000Z</time>
      </trkpt>
      <trkpt lat="47.47531" lon="6.78222">
        <ele>357.4</ele>
        <time>2016-01-10T09:49:52.000Z</time>
      </trkpt>
      <trkpt lat="47.47526" lon="6.78215">
        <ele>357.3</ele>
        <time>2016-01-10T09:49:53.000Z</time>
      </trkpt>
      <trkpt lat="47.47523" lon="6.78209">
        <ele>357.6</ele>
        <time>2016-01-10T09:49:54.000Z</time>
      </trkpt>
      <trkpt lat="47.4752" lon="6.78204">
        <ele>357.1</ele>
        <time>2016-01-10T09:49:55.000Z</time>
      </trkpt>
      <trkpt lat="47.47516" lon="6.78198">
        <ele>357.1</ele>
        <time>2016-01-10T09:49:56.000Z</time>
      </trkpt>
      <trkpt lat="47.47513" lon="6.78192">
        <ele>356.9</ele>
        <time>2016-01-10T09:49:57.000Z</time>
      </trkpt>
      <trkpt lat="47.47509" lon="6.78187">
        <ele>357.2</ele>
        <time>2016-01-10T09:49:58.000Z</time>
      </trkpt>
      <trkpt lat="47.47506" lon="6.7818">
        <ele>356.8</ele>
        <time>2016-01-10T09:49:59.000Z</time>
      </trkpt>
      <trkpt lat="47.47503" lon="6.78174">
        <ele>357</ele>
        <time>2016-01-10T09:50:00.000Z</time>
      </trkpt>
      <trkpt lat="47.47499" lon="6.78168">
        <ele>356.6</ele>
        <time>2016-01-10T09:50:01.000Z</time>
      </trkpt>
      <trkpt lat="47.47495" lon="6.78162">
        <ele>356.3</ele>
        <time>2016-01-10T09:50:02.000Z</time>
      </trkpt>
      <trkpt lat="47.47491" lon="6.78156">
        <ele>356.3</ele>
        <time>2016-01-10T09:50:03.000Z</time>
      </trkpt>
      <trkpt lat="47.47487" lon="6.7815">
        <ele>356.2</ele>
        <time>2016-01-10T09:50:04.000Z</time>
      </trkpt>
      <trkpt lat="47.47483" lon="6.78145">
        <ele>356.1</ele>
        <time>2016-01-10T09:50:05.000Z</time>
      </trkpt>
      <trkpt lat="47.47479" lon="6.78139">
        <ele>355.9</ele>
        <time>2016-01-10T09:50:06.000Z</time>
      </trkpt>
      <trkpt lat="47.47475" lon="6.78132">
        <ele>354.9</ele>
        <time>2016-01-10T09:50:07.000Z</time>
      </trkpt>
      <trkpt lat="47.47472" lon="6.78125">
        <ele>354.4</ele>
        <time>2016-01-10T09:50:08.000Z</time>
      </trkpt>
      <trkpt lat="47.47468" lon="6.78119">
        <ele>354.6</ele>
        <time>2016-01-10T09:50:09.000Z</time>
      </trkpt>
      <trkpt lat="47.47463" lon="6.78114">
        <ele>354.8</ele>
        <time>2016-01-10T09:50:10.000Z</time>
      </trkpt>
      <trkpt lat="47.4746" lon="6.78107">
        <ele>354.7</ele>
        <time>2016-01-10T09:50:11.000Z</time>
      </trkpt>
      <trkpt lat="47.47455" lon="6.781">
        <ele>354.3</ele>
        <time>2016-01-10T09:50:12.000Z</time>
      </trkpt>
      <trkpt lat="47.47451" lon="6.78094">
        <ele>353.9</ele>
        <time>2016-01-10T09:50:13.000Z</time>
      </trkpt>
      <trkpt lat="47.47448" lon="6.78087">
        <ele>353.9</ele>
        <time>2016-01-10T09:50:14.000Z</time>
      </trkpt>
      <trkpt lat="47.47443" lon="6.7808">
        <ele>353.8</ele>
        <time>2016-01-10T09:50:15.000Z</time>
      </trkpt>
      <trkpt lat="47.47439" lon="6.78074">
        <ele>353.9</ele>
        <time>2016-01-10T09:50:16.000Z</time>
      </trkpt>
      <trkpt lat="47.47435" lon="6.78068">
        <ele>353.8</ele>
        <time>2016-01-10T09:50:17.000Z</time>
      </trkpt>
      <trkpt lat="47.47431" lon="6.78063">
        <ele>353.6</ele>
        <time>2016-01-10T09:50:18.000Z</time>
      </trkpt>
      <trkpt lat="47.47428" lon="6.78058">
        <ele>353.1</ele>
        <time>2016-01-10T09:50:19.000Z</time>
      </trkpt>
      <trkpt lat="47.47423" lon="6.78054">
        <ele>352.9</ele>
        <time>2016-01-10T09:50:20.000Z</time>
      </trkpt>
      <trkpt lat="47.47419" lon="6.7805">
        <ele>352</ele>
        <time>2016-01-10T09:50:21.000Z</time>
      </trkpt>
      <trkpt lat="47.47415" lon="6.78046">
        <ele>351.9</ele>
        <time>2016-01-10T09:50:22.000Z</time>
      </trkpt>
      <trkpt lat="47.47411" lon="6.78042">
        <ele>351.7</ele>
        <time>2016-01-10T09:50:23.000Z</time>
      </trkpt>
      <trkpt lat="47.47407" lon="6.78039">
        <ele>351.4</ele>
        <time>2016-01-10T09:50:24.000Z</time>
      </trkpt>
      <trkpt lat="47.47404" lon="6.78035">
        <ele>351.4</ele>
        <time>2016-01-10T09:50:25.000Z</time>
      </trkpt>
      <trkpt lat="47.47401" lon="6.78031">
        <ele>350.8</ele>
        <time>2016-01-10T09:50:26.000Z</time>
      </trkpt>
      <trkpt lat="47.47399" lon="6.78025">
        <ele>350.4</ele>
        <time>2016-01-10T09:50:27.000Z</time>
      </trkpt>
      <trkpt lat="47.47396" lon="6.78021">
        <ele>349.8</ele>
        <time>2016-01-10T09:50:28.000Z</time>
      </trkpt>
      <trkpt lat="47.47394" lon="6.78015">
        <ele>349.2</ele>
        <time>2016-01-10T09:50:29.000Z</time>
      </trkpt>
      <trkpt lat="47.47393" lon="6.78008">
        <ele>347.8</ele>
        <time>2016-01-10T09:50:30.000Z</time>
      </trkpt>
      <trkpt lat="47.47391" lon="6.78002">
        <ele>347.7</ele>
        <time>2016-01-10T09:50:31.000Z</time>
      </trkpt>
      <trkpt lat="47.47389" lon="6.77996">
        <ele>347.6</ele>
        <time>2016-01-10T09:50:32.000Z</time>
      </trkpt>
      <trkpt lat="47.47385" lon="6.77993">
        <ele>347.5</ele>
        <time>2016-01-10T09:50:33.000Z</time>
      </trkpt>
      <trkpt lat="47.47381" lon="6.77991">
        <ele>348</ele>
        <time>2016-01-10T09:50:34.000Z</time>
      </trkpt>
      <trkpt lat="47.47378" lon="6.77992">
        <ele>348</ele>
        <time>2016-01-10T09:50:35.000Z</time>
      </trkpt>
      <trkpt lat="47.47376" lon="6.77999">
        <ele>346.5</ele>
        <time>2016-01-10T09:50:35.999Z</time>
      </trkpt>
      <trkpt lat="47.47374" lon="6.78002">
        <ele>345.7</ele>
        <time>2016-01-10T09:50:37.000Z</time>
      </trkpt>
      <trkpt lat="47.4737" lon="6.78006">
        <ele>345.3</ele>
        <time>2016-01-10T09:50:38.000Z</time>
      </trkpt>
      <trkpt lat="47.47368" lon="6.78009">
        <ele>345.2</ele>
        <time>2016-01-10T09:50:39.000Z</time>
      </trkpt>
      <trkpt lat="47.47366" lon="6.78014">
        <ele>345.6</ele>
        <time>2016-01-10T09:50:40.000Z</time>
      </trkpt>
      <trkpt lat="47.47363" lon="6.78018">
        <ele>345.4</ele>
        <time>2016-01-10T09:50:41.000Z</time>
      </trkpt>
      <trkpt lat="47.47361" lon="6.78022">
        <ele>345.4</ele>
        <time>2016-01-10T09:50:42.000Z</time>
      </trkpt>
      <trkpt lat="47.4736" lon="6.78025">
        <ele>346.3</ele>
        <time>2016-01-10T09:50:43.000Z</time>
      </trkpt>
      <trkpt lat="47.47358" lon="6.78029">
        <ele>348.2</ele>
        <time>2016-01-10T09:50:44.000Z</time>
      </trkpt>
      <trkpt lat="47.47357" lon="6.78033">
        <ele>349.9</ele>
        <time>2016-01-10T09:50:45.000Z</time>
      </trkpt>
      <trkpt lat="47.47355" lon="6.78037">
        <ele>351.8</ele>
        <time>2016-01-10T09:50:46.001Z</time>
      </trkpt>
      <trkpt lat="47.47354" lon="6.78042">
        <ele>350.2</ele>
        <time>2016-01-10T09:50:47.000Z</time>
      </trkpt>
      <trkpt lat="47.47353" lon="6.78046">
        <ele>350.8</ele>
        <time>2016-01-10T09:50:48.000Z</time>
      </trkpt>
      <trkpt lat="47.47353" lon="6.78051">
        <ele>351.1</ele>
        <time>2016-01-10T09:50:49.000Z</time>
      </trkpt>
      <trkpt lat="47.47352" lon="6.78055">
        <ele>351.3</ele>
        <time>2016-01-10T09:50:50.000Z</time>
      </trkpt>
      <trkpt lat="47.47351" lon="6.78059">
        <ele>351.5</ele>
        <time>2016-01-10T09:50:51.000Z</time>
      </trkpt>
      <trkpt lat="47.47351" lon="6.78062">
        <ele>350.9</ele>
        <time>2016-01-10T09:50:52.000Z</time>
      </trkpt>
      <trkpt lat="47.4735" lon="6.78066">
        <ele>351.4</ele>
        <time>2016-01-10T09:50:53.000Z</time>
      </trkpt>
      <trkpt lat="47.47349" lon="6.7807">
        <ele>352.2</ele>
        <time>2016-01-10T09:50:54.000Z</time>
      </trkpt>
      <trkpt lat="47.47348" lon="6.78073">
        <ele>351.8</ele>
        <time>2016-01-10T09:50:55.000Z</time>
      </trkpt>
      <trkpt lat="47.47347" lon="6.78077">
        <ele>351.6</ele>
        <time>2016-01-10T09:50:56.000Z</time>
      </trkpt>
      <trkpt lat="47.47346" lon="6.78081">
        <ele>351.8</ele>
        <time>2016-01-10T09:50:57.000Z</time>
      </trkpt>
      <trkpt lat="47.47346" lon="6.78086">
        <ele>353.3</ele>
        <time>2016-01-10T09:50:58.000Z</time>
      </trkpt>
      <trkpt lat="47.47345" lon="6.7809">
        <ele>353.2</ele>
        <time>2016-01-10T09:50:59.000Z</time>
      </trkpt>
      <trkpt lat="47.47344" lon="6.78094">
        <ele>353.3</ele>
        <time>2016-01-10T09:51:00.000Z</time>
      </trkpt>
      <trkpt lat="47.47344" lon="6.78097">
        <ele>353.5</ele>
        <time>2016-01-10T09:51:01.000Z</time>
      </trkpt>
      <trkpt lat="47.47343" lon="6.78101">
        <ele>353.6</ele>
        <time>2016-01-10T09:51:02.000Z</time>
      </trkpt>
      <trkpt lat="47.47342" lon="6.78104">
        <ele>354.1</ele>
        <time>2016-01-10T09:51:03.000Z</time>
      </trkpt>
      <trkpt lat="47.47341" lon="6.78107">
        <ele>353.6</ele>
        <time>2016-01-10T09:51:04.000Z</time>
      </trkpt>
      <trkpt lat="47.4734" lon="6.78112">
        <ele>352.4</ele>
        <time>2016-01-10T09:51:06.000Z</time>
      </trkpt>
      <trkpt lat="47.47339" lon="6.78114">
        <ele>352.5</ele>
        <time>2016-01-10T09:51:07.000Z</time>
      </trkpt>
      <trkpt lat="47.47337" lon="6.78119">
        <ele>352</ele>
        <time>2016-01-10T09:51:09.000Z</time>
      </trkpt>
      <trkpt lat="47.47335" lon="6.78122">
        <ele>350.9</ele>
        <time>2016-01-10T09:51:10.000Z</time>
      </trkpt>
      <trkpt lat="47.47334" lon="6.78125">
        <ele>351.2</ele>
        <time>2016-01-10T09:51:11.000Z</time>
      </trkpt>
      <trkpt lat="47.47333" lon="6.78128">
        <ele>351.2</ele>
        <time>2016-01-10T09:51:12.000Z</time>
      </trkpt>
      <trkpt lat="47.47332" lon="6.78132">
        <ele>351.2</ele>
        <time>2016-01-10T09:51:13.000Z</time>
      </trkpt>
      <trkpt lat="47.47331" lon="6.78135">
        <ele>351.4</ele>
        <time>2016-01-10T09:51:14.000Z</time>
      </trkpt>
      <trkpt lat="47.47329" lon="6.78139">
        <ele>351.2</ele>
        <time>2016-01-10T09:51:15.000Z</time>
      </trkpt>
      <trkpt lat="47.47328" lon="6.78143">
        <ele>351.7</ele>
        <time>2016-01-10T09:51:16.000Z</time>
      </trkpt>
      <trkpt lat="47.47327" lon="6.78147">
        <ele>351.9</ele>
        <time>2016-01-10T09:51:17.000Z</time>
      </trkpt>
      <trkpt lat="47.47325" lon="6.78151">
        <ele>352.4</ele>
        <time>2016-01-10T09:51:18.000Z</time>
      </trkpt>
      <trkpt lat="47.47324" lon="6.78155">
        <ele>352.7</ele>
        <time>2016-01-10T09:51:19.000Z</time>
      </trkpt>
      <trkpt lat="47.47323" lon="6.78159">
        <ele>353.5</ele>
        <time>2016-01-10T09:51:20.000Z</time>
      </trkpt>
      <trkpt lat="47.47322" lon="6.78163">
        <ele>354.2</ele>
        <time>2016-01-10T09:51:21.000Z</time>
      </trkpt>
      <trkpt lat="47.47321" lon="6.78167">
        <ele>354.5</ele>
        <time>2016-01-10T09:51:22.000Z</time>
      </trkpt>
      <trkpt lat="47.4732" lon="6.78171">
        <ele>354.5</ele>
        <time>2016-01-10T09:51:23.000Z</time>
      </trkpt>
      <trkpt lat="47.47319" lon="6.78175">
        <ele>354.5</ele>
        <time>2016-01-10T09:51:24.000Z</time>
      </trkpt>
      <trkpt lat="47.47318" lon="6.78178">
        <ele>355</ele>
        <time>2016-01-10T09:51:25.000Z</time>
      </trkpt>
      <trkpt lat="47.47317" lon="6.78181">
        <ele>356.6</ele>
        <time>2016-01-10T09:51:26.000Z</time>
      </trkpt>
      <trkpt lat="47.47316" lon="6.78185">
        <ele>357.1</ele>
        <time>2016-01-10T09:51:27.000Z</time>
      </trkpt>
      <trkpt lat="47.47315" lon="6.78188">
        <ele>357.2</ele>
        <time>2016-01-10T09:51:28.000Z</time>
      </trkpt>
      <trkpt lat="47.47314" lon="6.78191">
        <ele>356.8</ele>
        <time>2016-01-10T09:51:29.000Z</time>
      </trkpt>
      <trkpt lat="47.47314" lon="6.78194">
        <ele>358.1</ele>
        <time>2016-01-10T09:51:30.000Z</time>
      </trkpt>
      <trkpt lat="47.47313" lon="6.78198">
        <ele>360.3</ele>
        <time>2016-01-10T09:51:31.000Z</time>
      </trkpt>
      <trkpt lat="47.47312" lon="6.78201">
        <ele>360.4</ele>
        <time>2016-01-10T09:51:32.000Z</time>
      </trkpt>
      <trkpt lat="47.4731" lon="6.78205">
        <ele>362</ele>
        <time>2016-01-10T09:51:33.000Z</time>
      </trkpt>
      <trkpt lat="47.47309" lon="6.7821">
        <ele>363.6</ele>
        <time>2016-01-10T09:51:34.000Z</time>
      </trkpt>
      <trkpt lat="47.47307" lon="6.78214">
        <ele>363.1</ele>
        <time>2016-01-10T09:51:35.000Z</time>
      </trkpt>
      <trkpt lat="47.47306" lon="6.78219">
        <ele>362.6</ele>
        <time>2016-01-10T09:51:36.000Z</time>
      </trkpt>
      <trkpt lat="47.47305" lon="6.78223">
        <ele>362.4</ele>
        <time>2016-01-10T09:51:37.000Z</time>
      </trkpt>
      <trkpt lat="47.47304" lon="6.78227">
        <ele>362.2</ele>
        <time>2016-01-10T09:51:38.000Z</time>
      </trkpt>
      <trkpt lat="47.47303" lon="6.78231">
        <ele>362.4</ele>
        <time>2016-01-10T09:51:39.000Z</time>
      </trkpt>
      <trkpt lat="47.47302" lon="6.78235">
        <ele>362.6</ele>
        <time>2016-01-10T09:51:40.000Z</time>
      </trkpt>
      <trkpt lat="47.47301" lon="6.78239">
        <ele>361.8</ele>
        <time>2016-01-10T09:51:41.000Z</time>
      </trkpt>
      <trkpt lat="47.473" lon="6.78243">
        <ele>362.9</ele>
        <time>2016-01-10T09:51:42.000Z</time>
      </trkpt>
      <trkpt lat="47.473" lon="6.78247">
        <ele>363.6</ele>
        <time>2016-01-10T09:51:43.000Z</time>
      </trkpt>
      <trkpt lat="47.47299" lon="6.78252">
        <ele>364.4</ele>
        <time>2016-01-10T09:51:44.000Z</time>
      </trkpt>
      <trkpt lat="47.47298" lon="6.78256">
        <ele>364.3</ele>
        <time>2016-01-10T09:51:45.000Z</time>
      </trkpt>
      <trkpt lat="47.47298" lon="6.7826">
        <ele>365.1</ele>
        <time>2016-01-10T09:51:46.000Z</time>
      </trkpt>
      <trkpt lat="47.47297" lon="6.78264">
        <ele>365.9</ele>
        <time>2016-01-10T09:51:47.000Z</time>
      </trkpt>
      <trkpt lat="47.47296" lon="6.78267">
        <ele>366.4</ele>
        <time>2016-01-10T09:51:48.000Z</time>
      </trkpt>
      <trkpt lat="47.47295" lon="6.7827">
        <ele>364</ele>
        <time>2016-01-10T09:51:49.000Z</time>
      </trkpt>
      <trkpt lat="47.47293" lon="6.78274">
        <ele>364.7</ele>
        <time>2016-01-10T09:51:50.000Z</time>
      </trkpt>
      <trkpt lat="47.47291" lon="6.78277">
        <ele>366.2</ele>
        <time>2016-01-10T09:51:51.000Z</time>
      </trkpt>
      <trkpt lat="47.47289" lon="6.78281">
        <ele>367.6</ele>
        <time>2016-01-10T09:51:52.000Z</time>
      </trkpt>
      <trkpt lat="47.47288" lon="6.78284">
        <ele>368.2</ele>
        <time>2016-01-10T09:51:53.000Z</time>
      </trkpt>
      <trkpt lat="47.47287" lon="6.78287">
        <ele>368.6</ele>
        <time>2016-01-10T09:51:54.000Z</time>
      </trkpt>
      <trkpt lat="47.47286" lon="6.7829">
        <ele>368.3</ele>
        <time>2016-01-10T09:51:55.000Z</time>
      </trkpt>
      <trkpt lat="47.47286" lon="6.78293">
        <ele>367.5</ele>
        <time>2016-01-10T09:51:56.000Z</time>
      </trkpt>
      <trkpt lat="47.47285" lon="6.78297">
        <ele>365.9</ele>
        <time>2016-01-10T09:51:57.000Z</time>
      </trkpt>
      <trkpt lat="47.47284" lon="6.783">
        <ele>365.4</ele>
        <time>2016-01-10T09:51:58.000Z</time>
      </trkpt>
      <trkpt lat="47.47283" lon="6.78306">
        <ele>365.2</ele>
        <time>2016-01-10T09:52:00.000Z</time>
      </trkpt>
      <trkpt lat="47.47283" lon="6.78309">
        <ele>365.1</ele>
        <time>2016-01-10T09:52:01.000Z</time>
      </trkpt>
      <trkpt lat="47.47283" lon="6.78312">
        <ele>364.1</ele>
        <time>2016-01-10T09:52:02.000Z</time>
      </trkpt>
      <trkpt lat="47.47282" lon="6.78316">
        <ele>363.6</ele>
        <time>2016-01-10T09:52:03.000Z</time>
      </trkpt>
      <trkpt lat="47.47281" lon="6.7832">
        <ele>365.6</ele>
        <time>2016-01-10T09:52:04.000Z</time>
      </trkpt>
      <trkpt lat="47.47281" lon="6.78325">
        <ele>365.8</ele>
        <time>2016-01-10T09:52:05.000Z</time>
      </trkpt>
      <trkpt lat="47.4728" lon="6.78329">
        <ele>365.9</ele>
        <time>2016-01-10T09:52:06.000Z</time>
      </trkpt>
      <trkpt lat="47.47279" lon="6.78333">
        <ele>365.3</ele>
        <time>2016-01-10T09:52:07.000Z</time>
      </trkpt>
      <trkpt lat="47.47279" lon="6.78337">
        <ele>364.7</ele>
        <time>2016-01-10T09:52:08.000Z</time>
      </trkpt>
      <trkpt lat="47.47278" lon="6.78342">
        <ele>364.6</ele>
        <time>2016-01-10T09:52:09.000Z</time>
      </trkpt>
      <trkpt lat="47.47277" lon="6.78346">
        <ele>364.7</ele>
        <time>2016-01-10T09:52:10.000Z</time>
      </trkpt>
      <trkpt lat="47.47276" lon="6.7835">
        <ele>364.6</ele>
        <time>2016-01-10T09:52:11.000Z</time>
      </trkpt>
      <trkpt lat="47.47275" lon="6.78354">
        <ele>364.6</ele>
        <time>2016-01-10T09:52:12.000Z</time>
      </trkpt>
      <trkpt lat="47.47274" lon="6.78357">
        <ele>364.1</ele>
        <time>2016-01-10T09:52:13.000Z</time>
      </trkpt>
      <trkpt lat="47.47273" lon="6.78361">
        <ele>364.8</ele>
        <time>2016-01-10T09:52:14.000Z</time>
      </trkpt>
      <trkpt lat="47.47272" lon="6.78365">
        <ele>364.7</ele>
        <time>2016-01-10T09:52:15.000Z</time>
      </trkpt>
      <trkpt lat="47.4727" lon="6.78368">
        <ele>364.6</ele>
        <time>2016-01-10T09:52:16.000Z</time>
      </trkpt>
      <trkpt lat="47.47269" lon="6.78371">
        <ele>365.4</ele>
        <time>2016-01-10T09:52:17.000Z</time>
      </trkpt>
      <trkpt lat="47.47268" lon="6.78374">
        <ele>365.7</ele>
        <time>2016-01-10T09:52:18.000Z</time>
      </trkpt>
      <trkpt lat="47.47266" lon="6.78377">
        <ele>365.7</ele>
        <time>2016-01-10T09:52:19.000Z</time>
      </trkpt>
      <trkpt lat="47.47265" lon="6.78383">
        <ele>363.9</ele>
        <time>2016-01-10T09:52:21.000Z</time>
      </trkpt>
      <trkpt lat="47.47264" lon="6.78385">
        <ele>364.2</ele>
        <time>2016-01-10T09:52:22.000Z</time>
      </trkpt>
      <trkpt lat="47.47263" lon="6.7839">
        <ele>365.7</ele>
        <time>2016-01-10T09:52:24.000Z</time>
      </trkpt>
      <trkpt lat="47.47262" lon="6.78392">
        <ele>366</ele>
        <time>2016-01-10T09:52:25.000Z</time>
      </trkpt>
      <trkpt lat="47.47261" lon="6.78397">
        <ele>363.7</ele>
        <time>2016-01-10T09:52:27.000Z</time>
      </trkpt>
      <trkpt lat="47.47261" lon="6.78399">
        <ele>363.8</ele>
        <time>2016-01-10T09:52:28.000Z</time>
      </trkpt>
      <trkpt lat="47.47259" lon="6.78405">
        <ele>364.3</ele>
        <time>2016-01-10T09:52:30.000Z</time>
      </trkpt>
      <trkpt lat="47.47258" lon="6.78408">
        <ele>363.2</ele>
        <time>2016-01-10T09:52:31.000Z</time>
      </trkpt>
      <trkpt lat="47.47257" lon="6.78413">
        <ele>362.7</ele>
        <time>2016-01-10T09:52:33.000Z</time>
      </trkpt>
      <trkpt lat="47.47256" lon="6.78416">
        <ele>364.2</ele>
        <time>2016-01-10T09:52:34.000Z</time>
      </trkpt>
      <trkpt lat="47.47254" lon="6.78422">
        <ele>364.1</ele>
        <time>2016-01-10T09:52:36.000Z</time>
      </trkpt>
      <trkpt lat="47.47254" lon="6.78425">
        <ele>364</ele>
        <time>2016-01-10T09:52:37.000Z</time>
      </trkpt>
      <trkpt lat="47.47253" lon="6.7843">
        <ele>364.5</ele>
        <time>2016-01-10T09:52:39.000Z</time>
      </trkpt>
      <trkpt lat="47.47252" lon="6.78433">
        <ele>364.5</ele>
        <time>2016-01-10T09:52:40.000Z</time>
      </trkpt>
      <trkpt lat="47.47251" lon="6.78439">
        <ele>366.4</ele>
        <time>2016-01-10T09:52:42.000Z</time>
      </trkpt>
      <trkpt lat="47.47251" lon="6.78442">
        <ele>366.8</ele>
        <time>2016-01-10T09:52:43.000Z</time>
      </trkpt>
      <trkpt lat="47.4725" lon="6.78447">
        <ele>367.2</ele>
        <time>2016-01-10T09:52:46.000Z</time>
      </trkpt>
      <trkpt lat="47.47249" lon="6.78449">
        <ele>367.4</ele>
        <time>2016-01-10T09:52:47.000Z</time>
      </trkpt>
      <trkpt lat="47.47248" lon="6.78454">
        <ele>367.2</ele>
        <time>2016-01-10T09:52:49.000Z</time>
      </trkpt>
      <trkpt lat="47.47247" lon="6.78458">
        <ele>368.9</ele>
        <time>2016-01-10T09:52:50.000Z</time>
      </trkpt>
      <trkpt lat="47.47246" lon="6.78461">
        <ele>367.4</ele>
        <time>2016-01-10T09:52:51.000Z</time>
      </trkpt>
      <trkpt lat="47.47245" lon="6.78465">
        <ele>367</ele>
        <time>2016-01-10T09:52:52.000Z</time>
      </trkpt>
      <trkpt lat="47.47243" lon="6.78469">
        <ele>366.5</ele>
        <time>2016-01-10T09:52:53.000Z</time>
      </trkpt>
      <trkpt lat="47.47242" lon="6.78472">
        <ele>366.3</ele>
        <time>2016-01-10T09:52:54.000Z</time>
      </trkpt>
      <trkpt lat="47.4724" lon="6.78475">
        <ele>366.1</ele>
        <time>2016-01-10T09:52:55.000Z</time>
      </trkpt>
      <trkpt lat="47.47238" lon="6.78478">
        <ele>366.2</ele>
        <time>2016-01-10T09:52:56.000Z</time>
      </trkpt>
      <trkpt lat="47.47235" lon="6.7848">
        <ele>366.2</ele>
        <time>2016-01-10T09:52:57.000Z</time>
      </trkpt>
      <trkpt lat="47.47233" lon="6.7848">
        <ele>366.4</ele>
        <time>2016-01-10T09:52:58.000Z</time>
      </trkpt>
      <trkpt lat="47.47229" lon="6.78481">
        <ele>366.7</ele>
        <time>2016-01-10T09:52:59.000Z</time>
      </trkpt>
      <trkpt lat="47.47226" lon="6.7848">
        <ele>367.2</ele>
        <time>2016-01-10T09:53:00.000Z</time>
      </trkpt>
      <trkpt lat="47.47223" lon="6.7848">
        <ele>367.6</ele>
        <time>2016-01-10T09:53:01.000Z</time>
      </trkpt>
      <trkpt lat="47.47219" lon="6.7848">
        <ele>367.8</ele>
        <time>2016-01-10T09:53:02.000Z</time>
      </trkpt>
      <trkpt lat="47.47216" lon="6.78479">
        <ele>367.8</ele>
        <time>2016-01-10T09:53:03.000Z</time>
      </trkpt>
      <trkpt lat="47.47213" lon="6.78478">
        <ele>368</ele>
        <time>2016-01-10T09:53:04.000Z</time>
      </trkpt>
      <trkpt lat="47.47209" lon="6.78477">
        <ele>367.9</ele>
        <time>2016-01-10T09:53:05.000Z</time>
      </trkpt>
      <trkpt lat="47.47206" lon="6.78476">
        <ele>367.8</ele>
        <time>2016-01-10T09:53:06.000Z</time>
      </trkpt>
      <trkpt lat="47.47203" lon="6.78475">
        <ele>368.2</ele>
        <time>2016-01-10T09:53:07.000Z</time>
      </trkpt>
      <trkpt lat="47.47199" lon="6.78474">
        <ele>368.4</ele>
        <time>2016-01-10T09:53:08.000Z</time>
      </trkpt>
      <trkpt lat="47.47196" lon="6.78473">
        <ele>368.3</ele>
        <time>2016-01-10T09:53:09.000Z</time>
      </trkpt>
      <trkpt lat="47.47192" lon="6.78472">
        <ele>367.2</ele>
        <time>2016-01-10T09:53:10.000Z</time>
      </trkpt>
      <trkpt lat="47.47188" lon="6.7847">
        <ele>366.9</ele>
        <time>2016-01-10T09:53:11.000Z</time>
      </trkpt>
      <trkpt lat="47.47185" lon="6.78469">
        <ele>368</ele>
        <time>2016-01-10T09:53:12.000Z</time>
      </trkpt>
      <trkpt lat="47.47181" lon="6.78468">
        <ele>367.9</ele>
        <time>2016-01-10T09:53:13.000Z</time>
      </trkpt>
      <trkpt lat="47.47178" lon="6.78466">
        <ele>367.9</ele>
        <time>2016-01-10T09:53:14.000Z</time>
      </trkpt>
      <trkpt lat="47.47175" lon="6.78464">
        <ele>368</ele>
        <time>2016-01-10T09:53:15.000Z</time>
      </trkpt>
      <trkpt lat="47.47172" lon="6.78463">
        <ele>367.8</ele>
        <time>2016-01-10T09:53:16.000Z</time>
      </trkpt>
      <trkpt lat="47.47169" lon="6.78461">
        <ele>368</ele>
        <time>2016-01-10T09:53:17.000Z</time>
      </trkpt>
      <trkpt lat="47.47167" lon="6.7846">
        <ele>367.9</ele>
        <time>2016-01-10T09:53:18.000Z</time>
      </trkpt>
      <trkpt lat="47.47164" lon="6.78459">
        <ele>367.8</ele>
        <time>2016-01-10T09:53:19.000Z</time>
      </trkpt>
      <trkpt lat="47.47162" lon="6.78459">
        <ele>367.9</ele>
        <time>2016-01-10T09:53:20.000Z</time>
      </trkpt>
      <trkpt lat="47.4716" lon="6.78457">
        <ele>367.8</ele>
        <time>2016-01-10T09:53:21.000Z</time>
      </trkpt>
      <trkpt lat="47.47157" lon="6.78456">
        <ele>367.8</ele>
        <time>2016-01-10T09:53:22.000Z</time>
      </trkpt>
      <trkpt lat="47.47155" lon="6.78454">
        <ele>368</ele>
        <time>2016-01-10T09:53:23.000Z</time>
      </trkpt>
      <trkpt lat="47.47153" lon="6.78452">
        <ele>367.3</ele>
        <time>2016-01-10T09:53:24.000Z</time>
      </trkpt>
      <trkpt lat="47.4715" lon="6.78451">
        <ele>367.3</ele>
        <time>2016-01-10T09:53:25.000Z</time>
      </trkpt>
      <trkpt lat="47.47147" lon="6.78449">
        <ele>365.9</ele>
        <time>2016-01-10T09:53:26.000Z</time>
      </trkpt>
      <trkpt lat="47.47144" lon="6.78447">
        <ele>364.9</ele>
        <time>2016-01-10T09:53:27.000Z</time>
      </trkpt>
      <trkpt lat="47.47142" lon="6.78445">
        <ele>363.8</ele>
        <time>2016-01-10T09:53:27.998Z</time>
      </trkpt>
      <trkpt lat="47.47139" lon="6.78444">
        <ele>363.4</ele>
        <time>2016-01-10T09:53:29.000Z</time>
      </trkpt>
      <trkpt lat="47.47136" lon="6.78443">
        <ele>362.9</ele>
        <time>2016-01-10T09:53:30.000Z</time>
      </trkpt>
      <trkpt lat="47.47133" lon="6.78443">
        <ele>362.4</ele>
        <time>2016-01-10T09:53:31.000Z</time>
      </trkpt>
      <trkpt lat="47.4713" lon="6.78442">
        <ele>362.7</ele>
        <time>2016-01-10T09:53:32.000Z</time>
      </trkpt>
      <trkpt lat="47.47127" lon="6.78441">
        <ele>362.6</ele>
        <time>2016-01-10T09:53:33.000Z</time>
      </trkpt>
      <trkpt lat="47.47124" lon="6.78441">
        <ele>362.7</ele>
        <time>2016-01-10T09:53:34.000Z</time>
      </trkpt>
      <trkpt lat="47.47114" lon="6.78438">
        <ele>361.4</ele>
        <time>2016-01-10T09:53:35.000Z</time>
      </trkpt>
      <trkpt lat="47.47109" lon="6.78437">
        <ele>361.9</ele>
        <time>2016-01-10T09:53:36.000Z</time>
      </trkpt>
      <trkpt lat="47.47104" lon="6.78437">
        <ele>361.9</ele>
        <time>2016-01-10T09:53:37.000Z</time>
      </trkpt>
      <trkpt lat="47.47099" lon="6.78436">
        <ele>361.6</ele>
        <time>2016-01-10T09:53:38.000Z</time>
      </trkpt>
      <trkpt lat="47.47096" lon="6.78437">
        <ele>358.6</ele>
        <time>2016-01-10T09:53:39.000Z</time>
      </trkpt>
      <trkpt lat="47.47092" lon="6.78437">
        <ele>357.6</ele>
        <time>2016-01-10T09:53:40.000Z</time>
      </trkpt>
      <trkpt lat="47.47086" lon="6.78438">
        <ele>358.8</ele>
        <time>2016-01-10T09:53:41.000Z</time>
      </trkpt>
      <trkpt lat="47.47081" lon="6.7844">
        <ele>356.9</ele>
        <time>2016-01-10T09:53:42.000Z</time>
      </trkpt>
      <trkpt lat="47.47076" lon="6.78437">
        <ele>354.3</ele>
        <time>2016-01-10T09:53:43.000Z</time>
      </trkpt>
      <trkpt lat="47.47069" lon="6.78436">
        <ele>354.5</ele>
        <time>2016-01-10T09:53:44.000Z</time>
      </trkpt>
      <trkpt lat="47.47063" lon="6.78434">
        <ele>354.4</ele>
        <time>2016-01-10T09:53:45.000Z</time>
      </trkpt>
      <trkpt lat="47.47058" lon="6.78432">
        <ele>354.2</ele>
        <time>2016-01-10T09:53:46.000Z</time>
      </trkpt>
      <trkpt lat="47.47055" lon="6.78429">
        <ele>353.7</ele>
        <time>2016-01-10T09:53:47.000Z</time>
      </trkpt>
      <trkpt lat="47.47048" lon="6.78422">
        <ele>350.8</ele>
        <time>2016-01-10T09:53:48.000Z</time>
      </trkpt>
      <trkpt lat="47.47043" lon="6.78417">
        <ele>349.7</ele>
        <time>2016-01-10T09:53:49.000Z</time>
      </trkpt>
      <trkpt lat="47.47037" lon="6.78412">
        <ele>349.1</ele>
        <time>2016-01-10T09:53:50.000Z</time>
      </trkpt>
      <trkpt lat="47.47033" lon="6.78407">
        <ele>348.7</ele>
        <time>2016-01-10T09:53:51.000Z</time>
      </trkpt>
      <trkpt lat="47.47027" lon="6.78399">
        <ele>348.4</ele>
        <time>2016-01-10T09:53:52.000Z</time>
      </trkpt>
      <trkpt lat="47.47022" lon="6.78393">
        <ele>348</ele>
        <time>2016-01-10T09:53:53.000Z</time>
      </trkpt>
      <trkpt lat="47.47018" lon="6.7839">
        <ele>345.8</ele>
        <time>2016-01-10T09:53:54.000Z</time>
      </trkpt>
      <trkpt lat="47.47014" lon="6.78386">
        <ele>345</ele>
        <time>2016-01-10T09:53:55.000Z</time>
      </trkpt>
      <trkpt lat="47.47008" lon="6.78388">
        <ele>345.5</ele>
        <time>2016-01-10T09:53:56.000Z</time>
      </trkpt>
      <trkpt lat="47.47003" lon="6.78388">
        <ele>345.6</ele>
        <time>2016-01-10T09:53:57.000Z</time>
      </trkpt>
      <trkpt lat="47.47" lon="6.78392">
        <ele>346.2</ele>
        <time>2016-01-10T09:53:58.000Z</time>
      </trkpt>
      <trkpt lat="47.46997" lon="6.78394">
        <ele>345.4</ele>
        <time>2016-01-10T09:53:59.000Z</time>
      </trkpt>
      <trkpt lat="47.46994" lon="6.78397">
        <ele>345.4</ele>
        <time>2016-01-10T09:54:00.000Z</time>
      </trkpt>
      <trkpt lat="47.46991" lon="6.784">
        <ele>345.3</ele>
        <time>2016-01-10T09:54:01.000Z</time>
      </trkpt>
      <trkpt lat="47.46989" lon="6.78403">
        <ele>344.8</ele>
        <time>2016-01-10T09:54:02.000Z</time>
      </trkpt>
      <trkpt lat="47.46986" lon="6.78405">
        <ele>345.1</ele>
        <time>2016-01-10T09:54:03.000Z</time>
      </trkpt>
      <trkpt lat="47.46983" lon="6.78408">
        <ele>344.4</ele>
        <time>2016-01-10T09:54:04.000Z</time>
      </trkpt>
      <trkpt lat="47.46981" lon="6.78411">
        <ele>344.4</ele>
        <time>2016-01-10T09:54:05.000Z</time>
      </trkpt>
      <trkpt lat="47.46978" lon="6.78414">
        <ele>344.3</ele>
        <time>2016-01-10T09:54:06.000Z</time>
      </trkpt>
      <trkpt lat="47.46976" lon="6.78418">
        <ele>343.9</ele>
        <time>2016-01-10T09:54:07.000Z</time>
      </trkpt>
      <trkpt lat="47.46973" lon="6.78422">
        <ele>344.2</ele>
        <time>2016-01-10T09:54:08.000Z</time>
      </trkpt>
      <trkpt lat="47.46971" lon="6.78425">
        <ele>343.8</ele>
        <time>2016-01-10T09:54:09.000Z</time>
      </trkpt>
      <trkpt lat="47.46968" lon="6.78429">
        <ele>343.7</ele>
        <time>2016-01-10T09:54:10.000Z</time>
      </trkpt>
      <trkpt lat="47.46965" lon="6.78432">
        <ele>343.6</ele>
        <time>2016-01-10T09:54:11.000Z</time>
      </trkpt>
      <trkpt lat="47.46962" lon="6.78435">
        <ele>343</ele>
        <time>2016-01-10T09:54:12.000Z</time>
      </trkpt>
      <trkpt lat="47.4696" lon="6.78439">
        <ele>342.6</ele>
        <time>2016-01-10T09:54:13.000Z</time>
      </trkpt>
      <trkpt lat="47.46957" lon="6.78442">
        <ele>342.4</ele>
        <time>2016-01-10T09:54:14.000Z</time>
      </trkpt>
      <trkpt lat="47.46955" lon="6.78446">
        <ele>342</ele>
        <time>2016-01-10T09:54:15.000Z</time>
      </trkpt>
      <trkpt lat="47.46952" lon="6.78451">
        <ele>341.4</ele>
        <time>2016-01-10T09:54:16.000Z</time>
      </trkpt>
      <trkpt lat="47.4695" lon="6.78455">
        <ele>341.4</ele>
        <time>2016-01-10T09:54:17.000Z</time>
      </trkpt>
      <trkpt lat="47.46948" lon="6.7846">
        <ele>340.3</ele>
        <time>2016-01-10T09:54:18.000Z</time>
      </trkpt>
      <trkpt lat="47.46946" lon="6.78465">
        <ele>339.8</ele>
        <time>2016-01-10T09:54:19.000Z</time>
      </trkpt>
      <trkpt lat="47.46945" lon="6.7847">
        <ele>340.2</ele>
        <time>2016-01-10T09:54:20.000Z</time>
      </trkpt>
      <trkpt lat="47.46943" lon="6.78474">
        <ele>340.3</ele>
        <time>2016-01-10T09:54:21.000Z</time>
      </trkpt>
      <trkpt lat="47.46942" lon="6.78479">
        <ele>340</ele>
        <time>2016-01-10T09:54:22.000Z</time>
      </trkpt>
      <trkpt lat="47.46941" lon="6.78483">
        <ele>343</ele>
        <time>2016-01-10T09:54:23.000Z</time>
      </trkpt>
      <trkpt lat="47.4694" lon="6.78488">
        <ele>342.1</ele>
        <time>2016-01-10T09:54:24.000Z</time>
      </trkpt>
      <trkpt lat="47.46939" lon="6.78493">
        <ele>342.1</ele>
        <time>2016-01-10T09:54:25.000Z</time>
      </trkpt>
      <trkpt lat="47.46939" lon="6.78498">
        <ele>341.6</ele>
        <time>2016-01-10T09:54:26.000Z</time>
      </trkpt>
      <trkpt lat="47.46939" lon="6.78502">
        <ele>343.1</ele>
        <time>2016-01-10T09:54:27.000Z</time>
      </trkpt>
      <trkpt lat="47.46939" lon="6.78505">
        <ele>343.7</ele>
        <time>2016-01-10T09:54:28.000Z</time>
      </trkpt>
      <trkpt lat="47.46939" lon="6.78509">
        <ele>342.8</ele>
        <time>2016-01-10T09:54:29.000Z</time>
      </trkpt>
      <trkpt lat="47.46939" lon="6.78512">
        <ele>342.2</ele>
        <time>2016-01-10T09:54:30.000Z</time>
      </trkpt>
      <trkpt lat="47.46939" lon="6.78516">
        <ele>342</ele>
        <time>2016-01-10T09:54:31.000Z</time>
      </trkpt>
      <trkpt lat="47.4694" lon="6.7852">
        <ele>340</ele>
        <time>2016-01-10T09:54:32.000Z</time>
      </trkpt>
      <trkpt lat="47.4694" lon="6.78525">
        <ele>339.6</ele>
        <time>2016-01-10T09:54:33.000Z</time>
      </trkpt>
      <trkpt lat="47.4694" lon="6.7853">
        <ele>338.8</ele>
        <time>2016-01-10T09:54:34.000Z</time>
      </trkpt>
      <trkpt lat="47.4694" lon="6.78534">
        <ele>338</ele>
        <time>2016-01-10T09:54:35.000Z</time>
      </trkpt>
      <trkpt lat="47.4694" lon="6.78538">
        <ele>337.7</ele>
        <time>2016-01-10T09:54:36.000Z</time>
      </trkpt>
      <trkpt lat="47.46939" lon="6.78542">
        <ele>337.9</ele>
        <time>2016-01-10T09:54:37.000Z</time>
      </trkpt>
      <trkpt lat="47.46939" lon="6.78547">
        <ele>337.4</ele>
        <time>2016-01-10T09:54:38.000Z</time>
      </trkpt>
      <trkpt lat="47.46939" lon="6.78551">
        <ele>337.5</ele>
        <time>2016-01-10T09:54:39.000Z</time>
      </trkpt>
      <trkpt lat="47.46938" lon="6.78555">
        <ele>337.5</ele>
        <time>2016-01-10T09:54:40.000Z</time>
      </trkpt>
      <trkpt lat="47.46937" lon="6.7856">
        <ele>339.9</ele>
        <time>2016-01-10T09:54:41.000Z</time>
      </trkpt>
      <trkpt lat="47.46937" lon="6.78564">
        <ele>341.3</ele>
        <time>2016-01-10T09:54:42.000Z</time>
      </trkpt>
      <trkpt lat="47.46935" lon="6.78569">
        <ele>341</ele>
        <time>2016-01-10T09:54:43.000Z</time>
      </trkpt>
      <trkpt lat="47.46932" lon="6.78573">
        <ele>343.1</ele>
        <time>2016-01-10T09:54:44.000Z</time>
      </trkpt>
      <trkpt lat="47.46929" lon="6.78577">
        <ele>343.7</ele>
        <time>2016-01-10T09:54:45.000Z</time>
      </trkpt>
      <trkpt lat="47.46925" lon="6.78579">
        <ele>343.1</ele>
        <time>2016-01-10T09:54:46.000Z</time>
      </trkpt>
      <trkpt lat="47.4692" lon="6.78581">
        <ele>342.9</ele>
        <time>2016-01-10T09:54:47.000Z</time>
      </trkpt>
      <trkpt lat="47.46917" lon="6.7858">
        <ele>342.3</ele>
        <time>2016-01-10T09:54:48.000Z</time>
      </trkpt>
      <trkpt lat="47.46913" lon="6.78579">
        <ele>342.6</ele>
        <time>2016-01-10T09:54:49.000Z</time>
      </trkpt>
      <trkpt lat="47.46911" lon="6.78578">
        <ele>342.6</ele>
        <time>2016-01-10T09:54:50.000Z</time>
      </trkpt>
      <trkpt lat="47.46906" lon="6.78577">
        <ele>342.9</ele>
        <time>2016-01-10T09:54:52.000Z</time>
      </trkpt>
      <trkpt lat="47.46905" lon="6.78578">
        <ele>343.7</ele>
        <time>2016-01-10T09:54:53.000Z</time>
      </trkpt>
      <trkpt lat="47.46901" lon="6.78578">
        <ele>344.5</ele>
        <time>2016-01-10T09:54:55.000Z</time>
      </trkpt>
      <trkpt lat="47.46899" lon="6.78578">
        <ele>344.3</ele>
        <time>2016-01-10T09:54:56.000Z</time>
      </trkpt>
      <trkpt lat="47.46895" lon="6.7858">
        <ele>345.7</ele>
        <time>2016-01-10T09:54:59.000Z</time>
      </trkpt>
      <trkpt lat="47.46894" lon="6.7858">
        <ele>346.1</ele>
        <time>2016-01-10T09:55:00.000Z</time>
      </trkpt>
      <trkpt lat="47.4689" lon="6.78582">
        <ele>347.3</ele>
        <time>2016-01-10T09:55:04.000Z</time>
      </trkpt>
      <trkpt lat="47.46889" lon="6.78582">
        <ele>347.5</ele>
        <time>2016-01-10T09:55:05.000Z</time>
      </trkpt>
      <trkpt lat="47.46885" lon="6.78584">
        <ele>347.1</ele>
        <time>2016-01-10T09:55:10.000Z</time>
      </trkpt>
      <trkpt lat="47.46884" lon="6.78584">
        <ele>347.1</ele>
        <time>2016-01-10T09:55:11.000Z</time>
      </trkpt>
      <trkpt lat="47.4688" lon="6.78585">
        <ele>351</ele>
        <time>2016-01-10T09:55:15.000Z</time>
      </trkpt>
      <trkpt lat="47.46879" lon="6.78585">
        <ele>352.3</ele>
        <time>2016-01-10T09:55:16.000Z</time>
      </trkpt>
      <trkpt lat="47.46875" lon="6.78586">
        <ele>351.8</ele>
        <time>2016-01-10T09:55:19.000Z</time>
      </trkpt>
      <trkpt lat="47.46874" lon="6.78585">
        <ele>351.7</ele>
        <time>2016-01-10T09:55:20.000Z</time>
      </trkpt>
      <trkpt lat="47.4687" lon="6.78585">
        <ele>351.7</ele>
        <time>2016-01-10T09:55:23.000Z</time>
      </trkpt>
      <trkpt lat="47.46869" lon="6.78585">
        <ele>350.8</ele>
        <time>2016-01-10T09:55:24.000Z</time>
      </trkpt>
      <trkpt lat="47.46865" lon="6.78585">
        <ele>350.3</ele>
        <time>2016-01-10T09:55:26.000Z</time>
      </trkpt>
      <trkpt lat="47.46864" lon="6.78585">
        <ele>350.6</ele>
        <time>2016-01-10T09:55:27.000Z</time>
      </trkpt>
      <trkpt lat="47.4686" lon="6.78587">
        <ele>349.8</ele>
        <time>2016-01-10T09:55:30.000Z</time>
      </trkpt>
      <trkpt lat="47.46859" lon="6.78587">
        <ele>350.9</ele>
        <time>2016-01-10T09:55:31.000Z</time>
      </trkpt>
      <trkpt lat="47.46856" lon="6.78588">
        <ele>350.7</ele>
        <time>2016-01-10T09:55:33.000Z</time>
      </trkpt>
      <trkpt lat="47.46853" lon="6.78588">
        <ele>351.2</ele>
        <time>2016-01-10T09:55:34.000Z</time>
      </trkpt>
      <trkpt lat="47.46849" lon="6.7859">
        <ele>351.8</ele>
        <time>2016-01-10T09:55:38.000Z</time>
      </trkpt>
      <trkpt lat="47.46849" lon="6.78591">
        <ele>352.2</ele>
        <time>2016-01-10T09:55:39.000Z</time>
      </trkpt>
      <trkpt lat="47.46845" lon="6.78595">
        <ele>354.4</ele>
        <time>2016-01-10T09:55:43.000Z</time>
      </trkpt>
      <trkpt lat="47.46844" lon="6.78596">
        <ele>355.5</ele>
        <time>2016-01-10T09:55:44.000Z</time>
      </trkpt>
      <trkpt lat="47.4684" lon="6.78598">
        <ele>356.5</ele>
        <time>2016-01-10T09:55:47.000Z</time>
      </trkpt>
      <trkpt lat="47.46838" lon="6.78598">
        <ele>357.1</ele>
        <time>2016-01-10T09:55:48.000Z</time>
      </trkpt>
      <trkpt lat="47.46835" lon="6.78602">
        <ele>358.9</ele>
        <time>2016-01-10T09:55:51.000Z</time>
      </trkpt>
      <trkpt lat="47.46835" lon="6.78603">
        <ele>359.1</ele>
        <time>2016-01-10T09:55:52.000Z</time>
      </trkpt>
      <trkpt lat="47.46831" lon="6.78607">
        <ele>359.8</ele>
        <time>2016-01-10T09:55:55.000Z</time>
      </trkpt>
      <trkpt lat="47.4683" lon="6.78607">
        <ele>360.7</ele>
        <time>2016-01-10T09:55:56.000Z</time>
      </trkpt>
      <trkpt lat="47.46827" lon="6.78609">
        <ele>360.6</ele>
        <time>2016-01-10T09:55:59.000Z</time>
      </trkpt>
      <trkpt lat="47.46826" lon="6.7861">
        <ele>361.1</ele>
        <time>2016-01-10T09:56:00.000Z</time>
      </trkpt>
      <trkpt lat="47.46823" lon="6.78613">
        <ele>360.9</ele>
        <time>2016-01-10T09:56:03.000Z</time>
      </trkpt>
      <trkpt lat="47.46822" lon="6.78614">
        <ele>361</ele>
        <time>2016-01-10T09:56:04.000Z</time>
      </trkpt>
      <trkpt lat="47.46819" lon="6.78619">
        <ele>362.4</ele>
        <time>2016-01-10T09:56:09.000Z</time>
      </trkpt>
      <trkpt lat="47.46819" lon="6.7862">
        <ele>362.2</ele>
        <time>2016-01-10T09:56:10.000Z</time>
      </trkpt>
      <trkpt lat="47.46816" lon="6.78625">
        <ele>363.2</ele>
        <time>2016-01-10T09:56:17.000Z</time>
      </trkpt>
      <trkpt lat="47.46816" lon="6.78626">
        <ele>363.7</ele>
        <time>2016-01-10T09:56:18.000Z</time>
      </trkpt>
      <trkpt lat="47.46814" lon="6.78631">
        <ele>363</ele>
        <time>2016-01-10T09:56:25.000Z</time>
      </trkpt>
      <trkpt lat="47.46814" lon="6.78631">
        <ele>362.8</ele>
        <time>2016-01-10T09:56:26.000Z</time>
      </trkpt>
      <trkpt lat="47.46811" lon="6.78636">
        <ele>363.6</ele>
        <time>2016-01-10T09:56:31.000Z</time>
      </trkpt>
      <trkpt lat="47.4681" lon="6.78637">
        <ele>363.4</ele>
        <time>2016-01-10T09:56:32.000Z</time>
      </trkpt>
      <trkpt lat="47.46807" lon="6.78641">
        <ele>364.1</ele>
        <time>2016-01-10T09:56:35.000Z</time>
      </trkpt>
      <trkpt lat="47.46806" lon="6.78643">
        <ele>364.6</ele>
        <time>2016-01-10T09:56:36.000Z</time>
      </trkpt>
      <trkpt lat="47.46805" lon="6.78649">
        <ele>367</ele>
        <time>2016-01-10T09:56:41.000Z</time>
      </trkpt>
      <trkpt lat="47.46805" lon="6.7865">
        <ele>367.1</ele>
        <time>2016-01-10T09:56:42.000Z</time>
      </trkpt>
      <trkpt lat="47.46802" lon="6.78654">
        <ele>369.5</ele>
        <time>2016-01-10T09:56:46.000Z</time>
      </trkpt>
      <trkpt lat="47.46801" lon="6.78656">
        <ele>369.7</ele>
        <time>2016-01-10T09:56:47.000Z</time>
      </trkpt>
      <trkpt lat="47.46798" lon="6.78659">
        <ele>369.2</ele>
        <time>2016-01-10T09:56:51.000Z</time>
      </trkpt>
      <trkpt lat="47.46797" lon="6.7866">
        <ele>370</ele>
        <time>2016-01-10T09:56:52.000Z</time>
      </trkpt>
      <trkpt lat="47.46793" lon="6.7866">
        <ele>365</ele>
        <time>2016-01-10T09:56:55.000Z</time>
      </trkpt>
      <trkpt lat="47.46792" lon="6.7866">
        <ele>364.2</ele>
        <time>2016-01-10T09:56:56.000Z</time>
      </trkpt>
      <trkpt lat="47.46788" lon="6.78656">
        <ele>363.1</ele>
        <time>2016-01-10T09:56:59.000Z</time>
      </trkpt>
      <trkpt lat="47.46787" lon="6.78656">
        <ele>362.4</ele>
        <time>2016-01-10T09:57:00.000Z</time>
      </trkpt>
      <trkpt lat="47.46783" lon="6.78656">
        <ele>361.7</ele>
        <time>2016-01-10T09:57:02.000Z</time>
      </trkpt>
      <trkpt lat="47.46782" lon="6.78656">
        <ele>361.6</ele>
        <time>2016-01-10T09:57:03.000Z</time>
      </trkpt>
      <trkpt lat="47.46778" lon="6.7866">
        <ele>363.1</ele>
        <time>2016-01-10T09:57:06.000Z</time>
      </trkpt>
      <trkpt lat="47.46777" lon="6.78661">
        <ele>362.1</ele>
        <time>2016-01-10T09:57:07.000Z</time>
      </trkpt>
      <trkpt lat="47.46775" lon="6.78666">
        <ele>364.1</ele>
        <time>2016-01-10T09:57:10.000Z</time>
      </trkpt>
      <trkpt lat="47.46774" lon="6.78668">
        <ele>363.9</ele>
        <time>2016-01-10T09:57:11.000Z</time>
      </trkpt>
      <trkpt lat="47.46772" lon="6.78673">
        <ele>365.1</ele>
        <time>2016-01-10T09:57:14.000Z</time>
      </trkpt>
      <trkpt lat="47.46771" lon="6.78676">
        <ele>366.5</ele>
        <time>2016-01-10T09:57:15.000Z</time>
      </trkpt>
      <trkpt lat="47.4677" lon="6.7868">
        <ele>367.5</ele>
        <time>2016-01-10T09:57:17.000Z</time>
      </trkpt>
      <trkpt lat="47.46769" lon="6.78682">
        <ele>368.5</ele>
        <time>2016-01-10T09:57:18.000Z</time>
      </trkpt>
      <trkpt lat="47.46767" lon="6.78686">
        <ele>371.2</ele>
        <time>2016-01-10T09:57:20.000Z</time>
      </trkpt>
      <trkpt lat="47.46766" lon="6.78687">
        <ele>371.2</ele>
        <time>2016-01-10T09:57:21.000Z</time>
      </trkpt>
      <trkpt lat="47.46762" lon="6.7869">
        <ele>370.6</ele>
        <time>2016-01-10T09:57:23.000Z</time>
      </trkpt>
      <trkpt lat="47.46761" lon="6.7869">
        <ele>369.3</ele>
        <time>2016-01-10T09:57:24.000Z</time>
      </trkpt>
      <trkpt lat="47.46758" lon="6.78689">
        <ele>368.5</ele>
        <time>2016-01-10T09:57:26.000Z</time>
      </trkpt>
      <trkpt lat="47.46756" lon="6.78689">
        <ele>368.6</ele>
        <time>2016-01-10T09:57:27.000Z</time>
      </trkpt>
      <trkpt lat="47.46752" lon="6.78688">
        <ele>367</ele>
        <time>2016-01-10T09:57:30.000Z</time>
      </trkpt>
      <trkpt lat="47.46751" lon="6.78687">
        <ele>366.2</ele>
        <time>2016-01-10T09:57:31.000Z</time>
      </trkpt>
      <trkpt lat="47.46747" lon="6.78687">
        <ele>366.6</ele>
        <time>2016-01-10T09:57:34.000Z</time>
      </trkpt>
      <trkpt lat="47.46745" lon="6.78689">
        <ele>366.8</ele>
        <time>2016-01-10T09:57:35.000Z</time>
      </trkpt>
      <trkpt lat="47.46742" lon="6.78691">
        <ele>366.7</ele>
        <time>2016-01-10T09:57:37.000Z</time>
      </trkpt>
      <trkpt lat="47.4674" lon="6.78692">
        <ele>367.9</ele>
        <time>2016-01-10T09:57:38.000Z</time>
      </trkpt>
      <trkpt lat="47.46738" lon="6.78695">
        <ele>369.2</ele>
        <time>2016-01-10T09:57:40.000Z</time>
      </trkpt>
      <trkpt lat="47.46736" lon="6.78697">
        <ele>369.3</ele>
        <time>2016-01-10T09:57:41.000Z</time>
      </trkpt>
      <trkpt lat="47.46735" lon="6.78702">
        <ele>369.6</ele>
        <time>2016-01-10T09:57:44.000Z</time>
      </trkpt>
      <trkpt lat="47.46734" lon="6.78703">
        <ele>369.9</ele>
        <time>2016-01-10T09:57:45.000Z</time>
      </trkpt>
      <trkpt lat="47.4673" lon="6.78703">
        <ele>370.3</ele>
        <time>2016-01-10T09:57:48.000Z</time>
      </trkpt>
      <trkpt lat="47.46728" lon="6.78703">
        <ele>370.6</ele>
        <time>2016-01-10T09:57:49.000Z</time>
      </trkpt>
      <trkpt lat="47.46725" lon="6.78703">
        <ele>372.5</ele>
        <time>2016-01-10T09:57:51.000Z</time>
      </trkpt>
      <trkpt lat="47.46723" lon="6.78704">
        <ele>372.6</ele>
        <time>2016-01-10T09:57:52.000Z</time>
      </trkpt>
      <trkpt lat="47.46719" lon="6.78704">
        <ele>370.8</ele>
        <time>2016-01-10T09:57:55.000Z</time>
      </trkpt>
      <trkpt lat="47.46718" lon="6.78704">
        <ele>370.7</ele>
        <time>2016-01-10T09:57:56.000Z</time>
      </trkpt>
      <trkpt lat="47.46714" lon="6.78703">
        <ele>370.7</ele>
        <time>2016-01-10T09:57:59.000Z</time>
      </trkpt>
      <trkpt lat="47.46712" lon="6.78703">
        <ele>371</ele>
        <time>2016-01-10T09:58:00.000Z</time>
      </trkpt>
      <trkpt lat="47.46709" lon="6.78704">
        <ele>371.7</ele>
        <time>2016-01-10T09:58:03.000Z</time>
      </trkpt>
      <trkpt lat="47.46708" lon="6.78704">
        <ele>371.6</ele>
        <time>2016-01-10T09:58:04.000Z</time>
      </trkpt>
      <trkpt lat="47.46704" lon="6.78703">
        <ele>372</ele>
        <time>2016-01-10T09:58:07.000Z</time>
      </trkpt>
      <trkpt lat="47.46703" lon="6.78703">
        <ele>372.8</ele>
        <time>2016-01-10T09:58:08.000Z</time>
      </trkpt>
      <trkpt lat="47.46699" lon="6.78703">
        <ele>373.5</ele>
        <time>2016-01-10T09:58:11.000Z</time>
      </trkpt>
      <trkpt lat="47.46698" lon="6.78703">
        <ele>373.9</ele>
        <time>2016-01-10T09:58:12.000Z</time>
      </trkpt>
      <trkpt lat="47.46694" lon="6.78705">
        <ele>374.7</ele>
        <time>2016-01-10T09:58:15.000Z</time>
      </trkpt>
      <trkpt lat="47.46693" lon="6.78705">
        <ele>375</ele>
        <time>2016-01-10T09:58:16.000Z</time>
      </trkpt>
      <trkpt lat="47.4669" lon="6.78705">
        <ele>375</ele>
        <time>2016-01-10T09:58:18.000Z</time>
      </trkpt>
      <trkpt lat="47.46688" lon="6.78705">
        <ele>374.8</ele>
        <time>2016-01-10T09:58:19.000Z</time>
      </trkpt>
      <trkpt lat="47.46685" lon="6.78705">
        <ele>374.4</ele>
        <time>2016-01-10T09:58:22.000Z</time>
      </trkpt>
      <trkpt lat="47.46683" lon="6.78705">
        <ele>375.2</ele>
        <time>2016-01-10T09:58:23.000Z</time>
      </trkpt>
      <trkpt lat="47.4668" lon="6.78704">
        <ele>375.1</ele>
        <time>2016-01-10T09:58:27.000Z</time>
      </trkpt>
      <trkpt lat="47.46679" lon="6.78704">
        <ele>375</ele>
        <time>2016-01-10T09:58:28.000Z</time>
      </trkpt>
      <trkpt lat="47.46675" lon="6.78702">
        <ele>374.5</ele>
        <time>2016-01-10T09:58:32.000Z</time>
      </trkpt>
      <trkpt lat="47.46674" lon="6.78702">
        <ele>374.1</ele>
        <time>2016-01-10T09:58:33.000Z</time>
      </trkpt>
      <trkpt lat="47.4667" lon="6.78699">
        <ele>376.4</ele>
        <time>2016-01-10T09:58:37.000Z</time>
      </trkpt>
      <trkpt lat="47.46669" lon="6.78699">
        <ele>376.6</ele>
        <time>2016-01-10T09:58:38.000Z</time>
      </trkpt>
      <trkpt lat="47.46664" lon="6.787">
        <ele>377.4</ele>
        <time>2016-01-10T09:58:43.000Z</time>
      </trkpt>
      <trkpt lat="47.46664" lon="6.787">
        <ele>377.8</ele>
        <time>2016-01-10T09:58:44.000Z</time>
      </trkpt>
      <trkpt lat="47.4666" lon="6.787">
        <ele>376.8</ele>
        <time>2016-01-10T09:58:48.000Z</time>
      </trkpt>
      <trkpt lat="47.46659" lon="6.787">
        <ele>376.3</ele>
        <time>2016-01-10T09:58:49.000Z</time>
      </trkpt>
      <trkpt lat="47.46655" lon="6.787">
        <ele>376.5</ele>
        <time>2016-01-10T09:58:53.000Z</time>
      </trkpt>
      <trkpt lat="47.46654" lon="6.787">
        <ele>376.7</ele>
        <time>2016-01-10T09:58:54.000Z</time>
      </trkpt>
      <trkpt lat="47.4665" lon="6.78701">
        <ele>377.6</ele>
        <time>2016-01-10T09:58:58.000Z</time>
      </trkpt>
      <trkpt lat="47.46649" lon="6.78701">
        <ele>377.9</ele>
        <time>2016-01-10T09:58:59.000Z</time>
      </trkpt>
      <trkpt lat="47.46645" lon="6.78701">
        <ele>377.9</ele>
        <time>2016-01-10T09:59:02.000Z</time>
      </trkpt>
      <trkpt lat="47.46644" lon="6.78701">
        <ele>378.5</ele>
        <time>2016-01-10T09:59:03.000Z</time>
      </trkpt>
      <trkpt lat="47.4664" lon="6.78699">
        <ele>379.4</ele>
        <time>2016-01-10T09:59:07.000Z</time>
      </trkpt>
      <trkpt lat="47.46639" lon="6.78699">
        <ele>379.9</ele>
        <time>2016-01-10T09:59:08.000Z</time>
      </trkpt>
      <trkpt lat="47.46635" lon="6.78701">
        <ele>380.4</ele>
        <time>2016-01-10T09:59:10.000Z</time>
      </trkpt>
      <trkpt lat="47.46633" lon="6.78701">
        <ele>380.4</ele>
        <time>2016-01-10T09:59:11.000Z</time>
      </trkpt>
      <trkpt lat="47.46629" lon="6.78702">
        <ele>380.1</ele>
        <time>2016-01-10T09:59:14.000Z</time>
      </trkpt>
      <trkpt lat="47.46628" lon="6.78702">
        <ele>380.5</ele>
        <time>2016-01-10T09:59:15.000Z</time>
      </trkpt>
      <trkpt lat="47.46624" lon="6.78703">
        <ele>381.3</ele>
        <time>2016-01-10T09:59:18.000Z</time>
      </trkpt>
      <trkpt lat="47.46622" lon="6.78703">
        <ele>382.3</ele>
        <time>2016-01-10T09:59:19.000Z</time>
      </trkpt>
      <trkpt lat="47.46618" lon="6.78704">
        <ele>381.8</ele>
        <time>2016-01-10T09:59:23.000Z</time>
      </trkpt>
      <trkpt lat="47.46618" lon="6.78704">
        <ele>381.9</ele>
        <time>2016-01-10T09:59:24.000Z</time>
      </trkpt>
      <trkpt lat="47.46614" lon="6.78704">
        <ele>381.7</ele>
        <time>2016-01-10T09:59:28.000Z</time>
      </trkpt>
      <trkpt lat="47.46613" lon="6.78704">
        <ele>382</ele>
        <time>2016-01-10T09:59:29.000Z</time>
      </trkpt>
      <trkpt lat="47.46609" lon="6.78703">
        <ele>382.3</ele>
        <time>2016-01-10T09:59:34.000Z</time>
      </trkpt>
      <trkpt lat="47.46608" lon="6.78703">
        <ele>382.2</ele>
        <time>2016-01-10T09:59:35.000Z</time>
      </trkpt>
      <trkpt lat="47.46604" lon="6.78703">
        <ele>382.5</ele>
        <time>2016-01-10T09:59:39.000Z</time>
      </trkpt>
      <trkpt lat="47.46602" lon="6.78703">
        <ele>382.2</ele>
        <time>2016-01-10T09:59:40.000Z</time>
      </trkpt>
      <trkpt lat="47.46599" lon="6.78702">
        <ele>382.8</ele>
        <time>2016-01-10T09:59:44.000Z</time>
      </trkpt>
      <trkpt lat="47.46597" lon="6.78702">
        <ele>383.1</ele>
        <time>2016-01-10T09:59:45.000Z</time>
      </trkpt>
      <trkpt lat="47.46593" lon="6.78703">
        <ele>382.7</ele>
        <time>2016-01-10T09:59:48.000Z</time>
      </trkpt>
      <trkpt lat="47.46592" lon="6.78702">
        <ele>383</ele>
        <time>2016-01-10T09:59:49.000Z</time>
      </trkpt>
      <trkpt lat="47.46588" lon="6.78702">
        <ele>384.4</ele>
        <time>2016-01-10T09:59:53.000Z</time>
      </trkpt>
      <trkpt lat="47.46587" lon="6.78702">
        <ele>385</ele>
        <time>2016-01-10T09:59:54.000Z</time>
      </trkpt>
      <trkpt lat="47.46583" lon="6.78703">
        <ele>385.4</ele>
        <time>2016-01-10T09:59:56.000Z</time>
      </trkpt>
      <trkpt lat="47.46582" lon="6.78704">
        <ele>386</ele>
        <time>2016-01-10T09:59:57.000Z</time>
      </trkpt>
      <trkpt lat="47.46578" lon="6.78704">
        <ele>387.8</ele>
        <time>2016-01-10T10:00:00.000Z</time>
      </trkpt>
      <trkpt lat="47.46577" lon="6.78704">
        <ele>388.3</ele>
        <time>2016-01-10T10:00:01.000Z</time>
      </trkpt>
      <trkpt lat="47.46574" lon="6.78704">
        <ele>389</ele>
        <time>2016-01-10T10:00:04.000Z</time>
      </trkpt>
      <trkpt lat="47.46573" lon="6.78704">
        <ele>389.1</ele>
        <time>2016-01-10T10:00:05.000Z</time>
      </trkpt>
      <trkpt lat="47.46569" lon="6.78705">
        <ele>388.9</ele>
        <time>2016-01-10T10:00:07.000Z</time>
      </trkpt>
      <trkpt lat="47.46568" lon="6.78705">
        <ele>389.4</ele>
        <time>2016-01-10T10:00:08.000Z</time>
      </trkpt>
      <trkpt lat="47.46563" lon="6.78706">
        <ele>387.3</ele>
        <time>2016-01-10T10:00:11.000Z</time>
      </trkpt>
      <trkpt lat="47.46562" lon="6.78706">
        <ele>387.1</ele>
        <time>2016-01-10T10:00:12.000Z</time>
      </trkpt>
      <trkpt lat="47.46558" lon="6.78705">
        <ele>387.9</ele>
        <time>2016-01-10T10:00:16.000Z</time>
      </trkpt>
      <trkpt lat="47.46557" lon="6.78706">
        <ele>387.7</ele>
        <time>2016-01-10T10:00:17.000Z</time>
      </trkpt>
      <trkpt lat="47.46554" lon="6.78707">
        <ele>386.5</ele>
        <time>2016-01-10T10:00:20.000Z</time>
      </trkpt>
      <trkpt lat="47.46553" lon="6.78707">
        <ele>386.9</ele>
        <time>2016-01-10T10:00:21.000Z</time>
      </trkpt>
      <trkpt lat="47.46548" lon="6.78706">
        <ele>387.5</ele>
        <time>2016-01-10T10:00:25.000Z</time>
      </trkpt>
      <trkpt lat="47.46547" lon="6.78706">
        <ele>387.1</ele>
        <time>2016-01-10T10:00:26.000Z</time>
      </trkpt>
      <trkpt lat="47.46543" lon="6.78706">
        <ele>388.2</ele>
        <time>2016-01-10T10:00:36.000Z</time>
      </trkpt>
      <trkpt lat="47.46542" lon="6.78706">
        <ele>388.4</ele>
        <time>2016-01-10T10:00:37.000Z</time>
      </trkpt>
      <trkpt lat="47.46539" lon="6.78706">
        <ele>390.9</ele>
        <time>2016-01-10T10:00:43.000Z</time>
      </trkpt>
      <trkpt lat="47.46538" lon="6.78707">
        <ele>391.4</ele>
        <time>2016-01-10T10:00:44.000Z</time>
      </trkpt>
      <trkpt lat="47.46542" lon="6.78707">
        <ele>387.5</ele>
        <time>2016-01-10T10:01:05.000Z</time>
      </trkpt>
      <trkpt lat="47.46545" lon="6.78707">
        <ele>387.3</ele>
        <time>2016-01-10T10:01:06.000Z</time>
      </trkpt>
      <trkpt lat="47.46548" lon="6.78707">
        <ele>386.9</ele>
        <time>2016-01-10T10:01:07.000Z</time>
      </trkpt>
      <trkpt lat="47.46551" lon="6.78707">
        <ele>386.5</ele>
        <time>2016-01-10T10:01:08.000Z</time>
      </trkpt>
      <trkpt lat="47.46554" lon="6.78707">
        <ele>386.8</ele>
        <time>2016-01-10T10:01:09.000Z</time>
      </trkpt>
      <trkpt lat="47.46557" lon="6.78707">
        <ele>386.7</ele>
        <time>2016-01-10T10:01:10.000Z</time>
      </trkpt>
      <trkpt lat="47.46559" lon="6.78702">
        <ele>385.3</ele>
        <time>2016-01-10T10:01:13.000Z</time>
      </trkpt>
      <trkpt lat="47.46559" lon="6.787">
        <ele>385.4</ele>
        <time>2016-01-10T10:01:14.000Z</time>
      </trkpt>
      <trkpt lat="47.46558" lon="6.78694">
        <ele>383.8</ele>
        <time>2016-01-10T10:01:16.000Z</time>
      </trkpt>
      <trkpt lat="47.46557" lon="6.78691">
        <ele>383.8</ele>
        <time>2016-01-10T10:01:17.000Z</time>
      </trkpt>
      <trkpt lat="47.46557" lon="6.78687">
        <ele>384.3</ele>
        <time>2016-01-10T10:01:18.000Z</time>
      </trkpt>
      <trkpt lat="47.46557" lon="6.78682">
        <ele>383.9</ele>
        <time>2016-01-10T10:01:19.000Z</time>
      </trkpt>
      <trkpt lat="47.46558" lon="6.78677">
        <ele>384</ele>
        <time>2016-01-10T10:01:20.000Z</time>
      </trkpt>
      <trkpt lat="47.46558" lon="6.78672">
        <ele>384.3</ele>
        <time>2016-01-10T10:01:21.000Z</time>
      </trkpt>
      <trkpt lat="47.46557" lon="6.78667">
        <ele>384.2</ele>
        <time>2016-01-10T10:01:22.000Z</time>
      </trkpt>
      <trkpt lat="47.46557" lon="6.78661">
        <ele>385</ele>
        <time>2016-01-10T10:01:23.000Z</time>
      </trkpt>
      <trkpt lat="47.46556" lon="6.78656">
        <ele>384.8</ele>
        <time>2016-01-10T10:01:24.000Z</time>
      </trkpt>
      <trkpt lat="47.46556" lon="6.78651">
        <ele>384.9</ele>
        <time>2016-01-10T10:01:25.000Z</time>
      </trkpt>
      <trkpt lat="47.46556" lon="6.78646">
        <ele>386</ele>
        <time>2016-01-10T10:01:26.000Z</time>
      </trkpt>
      <trkpt lat="47.46556" lon="6.78641">
        <ele>386.5</ele>
        <time>2016-01-10T10:01:27.000Z</time>
      </trkpt>
      <trkpt lat="47.46555" lon="6.78637">
        <ele>386.6</ele>
        <time>2016-01-10T10:01:28.000Z</time>
      </trkpt>
      <trkpt lat="47.46555" lon="6.78632">
        <ele>387</ele>
        <time>2016-01-10T10:01:29.000Z</time>
      </trkpt>
      <trkpt lat="47.46554" lon="6.78627">
        <ele>387.5</ele>
        <time>2016-01-10T10:01:30.000Z</time>
      </trkpt>
      <trkpt lat="47.46554" lon="6.78623">
        <ele>388.2</ele>
        <time>2016-01-10T10:01:31.000Z</time>
      </trkpt>
      <trkpt lat="47.46553" lon="6.78617">
        <ele>387.6</ele>
        <time>2016-01-10T10:01:32.000Z</time>
      </trkpt>
      <trkpt lat="47.46553" lon="6.78612">
        <ele>386.7</ele>
        <time>2016-01-10T10:01:33.000Z</time>
      </trkpt>
      <trkpt lat="47.46552" lon="6.78607">
        <ele>386.8</ele>
        <time>2016-01-10T10:01:34.000Z</time>
      </trkpt>
      <trkpt lat="47.46551" lon="6.78601">
        <ele>386.9</ele>
        <time>2016-01-10T10:01:35.000Z</time>
      </trkpt>
      <trkpt lat="47.46551" lon="6.78596">
        <ele>386.8</ele>
        <time>2016-01-10T10:01:36.000Z</time>
      </trkpt>
      <trkpt lat="47.4655" lon="6.7859">
        <ele>387.3</ele>
        <time>2016-01-10T10:01:37.000Z</time>
      </trkpt>
      <trkpt lat="47.46549" lon="6.78585">
        <ele>387.1</ele>
        <time>2016-01-10T10:01:38.000Z</time>
      </trkpt>
      <trkpt lat="47.46548" lon="6.7858">
        <ele>387.4</ele>
        <time>2016-01-10T10:01:39.000Z</time>
      </trkpt>
      <trkpt lat="47.46548" lon="6.78575">
        <ele>388.3</ele>
        <time>2016-01-10T10:01:40.000Z</time>
      </trkpt>
      <trkpt lat="47.46548" lon="6.7857">
        <ele>388.6</ele>
        <time>2016-01-10T10:01:41.000Z</time>
      </trkpt>
      <trkpt lat="47.46547" lon="6.78566">
        <ele>389.3</ele>
        <time>2016-01-10T10:01:42.000Z</time>
      </trkpt>
      <trkpt lat="47.46546" lon="6.78562">
        <ele>389.7</ele>
        <time>2016-01-10T10:01:43.000Z</time>
      </trkpt>
      <trkpt lat="47.46545" lon="6.78557">
        <ele>388.7</ele>
        <time>2016-01-10T10:01:44.000Z</time>
      </trkpt>
      <trkpt lat="47.46545" lon="6.78553">
        <ele>389</ele>
        <time>2016-01-10T10:01:45.000Z</time>
      </trkpt>
      <trkpt lat="47.46545" lon="6.78547">
        <ele>388.4</ele>
        <time>2016-01-10T10:01:46.000Z</time>
      </trkpt>
      <trkpt lat="47.46546" lon="6.78542">
        <ele>388.3</ele>
        <time>2016-01-10T10:01:47.000Z</time>
      </trkpt>
      <trkpt lat="47.46546" lon="6.78536">
        <ele>388.4</ele>
        <time>2016-01-10T10:01:48.000Z</time>
      </trkpt>
      <trkpt lat="47.46547" lon="6.7853">
        <ele>389.2</ele>
        <time>2016-01-10T10:01:49.000Z</time>
      </trkpt>
      <trkpt lat="47.46547" lon="6.78524">
        <ele>389.6</ele>
        <time>2016-01-10T10:01:50.000Z</time>
      </trkpt>
      <trkpt lat="47.46548" lon="6.78517">
        <ele>388</ele>
        <time>2016-01-10T10:01:51.000Z</time>
      </trkpt>
      <trkpt lat="47.4655" lon="6.78511">
        <ele>387.6</ele>
        <time>2016-01-10T10:01:52.000Z</time>
      </trkpt>
      <trkpt lat="47.46551" lon="6.78505">
        <ele>387.6</ele>
        <time>2016-01-10T10:01:53.000Z</time>
      </trkpt>
      <trkpt lat="47.46552" lon="6.78498">
        <ele>387.5</ele>
        <time>2016-01-10T10:01:54.000Z</time>
      </trkpt>
      <trkpt lat="47.46554" lon="6.78492">
        <ele>387.1</ele>
        <time>2016-01-10T10:01:55.000Z</time>
      </trkpt>
      <trkpt lat="47.46555" lon="6.78486">
        <ele>387.6</ele>
        <time>2016-01-10T10:01:56.000Z</time>
      </trkpt>
      <trkpt lat="47.46556" lon="6.7848">
        <ele>386.9</ele>
        <time>2016-01-10T10:01:57.000Z</time>
      </trkpt>
      <trkpt lat="47.46556" lon="6.78473">
        <ele>386.3</ele>
        <time>2016-01-10T10:01:58.000Z</time>
      </trkpt>
      <trkpt lat="47.46557" lon="6.78467">
        <ele>385.9</ele>
        <time>2016-01-10T10:01:59.000Z</time>
      </trkpt>
      <trkpt lat="47.46558" lon="6.78461">
        <ele>385.5</ele>
        <time>2016-01-10T10:02:00.000Z</time>
      </trkpt>
      <trkpt lat="47.46559" lon="6.78453">
        <ele>384.9</ele>
        <time>2016-01-10T10:02:01.000Z</time>
      </trkpt>
      <trkpt lat="47.4656" lon="6.78445">
        <ele>384.1</ele>
        <time>2016-01-10T10:02:02.000Z</time>
      </trkpt>
      <trkpt lat="47.4656" lon="6.78437">
        <ele>383.8</ele>
        <time>2016-01-10T10:02:03.000Z</time>
      </trkpt>
      <trkpt lat="47.46559" lon="6.7843">
        <ele>383.3</ele>
        <time>2016-01-10T10:02:04.000Z</time>
      </trkpt>
      <trkpt lat="47.46558" lon="6.78422">
        <ele>384.6</ele>
        <time>2016-01-10T10:02:05.000Z</time>
      </trkpt>
      <trkpt lat="47.46557" lon="6.78415">
        <ele>385</ele>
        <time>2016-01-10T10:02:06.000Z</time>
      </trkpt>
      <trkpt lat="47.46554" lon="6.78407">
        <ele>383.6</ele>
        <time>2016-01-10T10:02:07.000Z</time>
      </trkpt>
      <trkpt lat="47.46551" lon="6.784">
        <ele>383.6</ele>
        <time>2016-01-10T10:02:08.000Z</time>
      </trkpt>
      <trkpt lat="47.46548" lon="6.78396">
        <ele>383.1</ele>
        <time>2016-01-10T10:02:09.000Z</time>
      </trkpt>
      <trkpt lat="47.46544" lon="6.78394">
        <ele>382.7</ele>
        <time>2016-01-10T10:02:10.000Z</time>
      </trkpt>
      <trkpt lat="47.46542" lon="6.78392">
        <ele>382.8</ele>
        <time>2016-01-10T10:02:11.000Z</time>
      </trkpt>
      <trkpt lat="47.46539" lon="6.78389">
        <ele>383</ele>
        <time>2016-01-10T10:02:12.000Z</time>
      </trkpt>
      <trkpt lat="47.46536" lon="6.78387">
        <ele>383</ele>
        <time>2016-01-10T10:02:13.000Z</time>
      </trkpt>
      <trkpt lat="47.46534" lon="6.78384">
        <ele>382.6</ele>
        <time>2016-01-10T10:02:14.000Z</time>
      </trkpt>
      <trkpt lat="47.46531" lon="6.78382">
        <ele>382.5</ele>
        <time>2016-01-10T10:02:15.000Z</time>
      </trkpt>
      <trkpt lat="47.46528" lon="6.7838">
        <ele>382.6</ele>
        <time>2016-01-10T10:02:16.000Z</time>
      </trkpt>
      <trkpt lat="47.46526" lon="6.78379">
        <ele>382.7</ele>
        <time>2016-01-10T10:02:17.000Z</time>
      </trkpt>
      <trkpt lat="47.46524" lon="6.78376">
        <ele>382.3</ele>
        <time>2016-01-10T10:02:18.000Z</time>
      </trkpt>
      <trkpt lat="47.46522" lon="6.78374">
        <ele>381.6</ele>
        <time>2016-01-10T10:02:19.000Z</time>
      </trkpt>
      <trkpt lat="47.46519" lon="6.78372">
        <ele>380.8</ele>
        <time>2016-01-10T10:02:20.000Z</time>
      </trkpt>
      <trkpt lat="47.46517" lon="6.7837">
        <ele>380.6</ele>
        <time>2016-01-10T10:02:21.000Z</time>
      </trkpt>
      <trkpt lat="47.46515" lon="6.78368">
        <ele>380.6</ele>
        <time>2016-01-10T10:02:22.000Z</time>
      </trkpt>
      <trkpt lat="47.46513" lon="6.78366">
        <ele>379.3</ele>
        <time>2016-01-10T10:02:23.000Z</time>
      </trkpt>
      <trkpt lat="47.46511" lon="6.78363">
        <ele>379.4</ele>
        <time>2016-01-10T10:02:24.000Z</time>
      </trkpt>
      <trkpt lat="47.46508" lon="6.78361">
        <ele>380.2</ele>
        <time>2016-01-10T10:02:25.000Z</time>
      </trkpt>
      <trkpt lat="47.46506" lon="6.78358">
        <ele>380.5</ele>
        <time>2016-01-10T10:02:26.000Z</time>
      </trkpt>
      <trkpt lat="47.46504" lon="6.78356">
        <ele>380.2</ele>
        <time>2016-01-10T10:02:27.000Z</time>
      </trkpt>
      <trkpt lat="47.46501" lon="6.78354">
        <ele>380.7</ele>
        <time>2016-01-10T10:02:28.000Z</time>
      </trkpt>
      <trkpt lat="47.46499" lon="6.78351">
        <ele>380.3</ele>
        <time>2016-01-10T10:02:29.000Z</time>
      </trkpt>
      <trkpt lat="47.46497" lon="6.78349">
        <ele>380.4</ele>
        <time>2016-01-10T10:02:30.000Z</time>
      </trkpt>
      <trkpt lat="47.46495" lon="6.78346">
        <ele>381.8</ele>
        <time>2016-01-10T10:02:31.000Z</time>
      </trkpt>
      <trkpt lat="47.46492" lon="6.78344">
        <ele>381.6</ele>
        <time>2016-01-10T10:02:32.000Z</time>
      </trkpt>
      <trkpt lat="47.4649" lon="6.78341">
        <ele>382.1</ele>
        <time>2016-01-10T10:02:33.000Z</time>
      </trkpt>
      <trkpt lat="47.46487" lon="6.78339">
        <ele>382.9</ele>
        <time>2016-01-10T10:02:34.000Z</time>
      </trkpt>
      <trkpt lat="47.46485" lon="6.78338">
        <ele>383.1</ele>
        <time>2016-01-10T10:02:35.000Z</time>
      </trkpt>
      <trkpt lat="47.46482" lon="6.78337">
        <ele>382.4</ele>
        <time>2016-01-10T10:02:36.000Z</time>
      </trkpt>
      <trkpt lat="47.4648" lon="6.78335">
        <ele>382.3</ele>
        <time>2016-01-10T10:02:37.000Z</time>
      </trkpt>
      <trkpt lat="47.46478" lon="6.78333">
        <ele>382.2</ele>
        <time>2016-01-10T10:02:38.000Z</time>
      </trkpt>
      <trkpt lat="47.46475" lon="6.78331">
        <ele>383.2</ele>
        <time>2016-01-10T10:02:39.000Z</time>
      </trkpt>
      <trkpt lat="47.46472" lon="6.78329">
        <ele>383.2</ele>
        <time>2016-01-10T10:02:40.000Z</time>
      </trkpt>
      <trkpt lat="47.46469" lon="6.78327">
        <ele>383.4</ele>
        <time>2016-01-10T10:02:41.000Z</time>
      </trkpt>
      <trkpt lat="47.46467" lon="6.78325">
        <ele>383.8</ele>
        <time>2016-01-10T10:02:42.000Z</time>
      </trkpt>
      <trkpt lat="47.46464" lon="6.78323">
        <ele>385.1</ele>
        <time>2016-01-10T10:02:43.000Z</time>
      </trkpt>
      <trkpt lat="47.46462" lon="6.78321">
        <ele>384</ele>
        <time>2016-01-10T10:02:44.000Z</time>
      </trkpt>
      <trkpt lat="47.46459" lon="6.78318">
        <ele>383.9</ele>
        <time>2016-01-10T10:02:46.000Z</time>
      </trkpt>
      <trkpt lat="47.46457" lon="6.78317">
        <ele>384.3</ele>
        <time>2016-01-10T10:02:46.997Z</time>
      </trkpt>
      <trkpt lat="47.46455" lon="6.78318">
        <ele>385.1</ele>
        <time>2016-01-10T10:02:48.000Z</time>
      </trkpt>
      <trkpt lat="47.46451" lon="6.78327">
        <ele>386.5</ele>
        <time>2016-01-10T10:02:49.000Z</time>
      </trkpt>
      <trkpt lat="47.46449" lon="6.7833">
        <ele>385.5</ele>
        <time>2016-01-10T10:02:51.000Z</time>
      </trkpt>
      <trkpt lat="47.46447" lon="6.78332">
        <ele>385.2</ele>
        <time>2016-01-10T10:02:52.000Z</time>
      </trkpt>
      <trkpt lat="47.46444" lon="6.78336">
        <ele>383.7</ele>
        <time>2016-01-10T10:02:54.000Z</time>
      </trkpt>
      <trkpt lat="47.46443" lon="6.78338">
        <ele>384.3</ele>
        <time>2016-01-10T10:02:55.000Z</time>
      </trkpt>
      <trkpt lat="47.46439" lon="6.78341">
        <ele>385.2</ele>
        <time>2016-01-10T10:02:58.000Z</time>
      </trkpt>
      <trkpt lat="47.46438" lon="6.78342">
        <ele>385.4</ele>
        <time>2016-01-10T10:02:59.000Z</time>
      </trkpt>
      <trkpt lat="47.46434" lon="6.78345">
        <ele>386</ele>
        <time>2016-01-10T10:03:02.000Z</time>
      </trkpt>
      <trkpt lat="47.46433" lon="6.78347">
        <ele>386.3</ele>
        <time>2016-01-10T10:03:03.000Z</time>
      </trkpt>
      <trkpt lat="47.46431" lon="6.78349">
        <ele>387</ele>
        <time>2016-01-10T10:03:05.000Z</time>
      </trkpt>
      <trkpt lat="47.46429" lon="6.78351">
        <ele>387.5</ele>
        <time>2016-01-10T10:03:06.000Z</time>
      </trkpt>
      <trkpt lat="47.46426" lon="6.78354">
        <ele>388.9</ele>
        <time>2016-01-10T10:03:08.000Z</time>
      </trkpt>
      <trkpt lat="47.46425" lon="6.78355">
        <ele>389.4</ele>
        <time>2016-01-10T10:03:09.000Z</time>
      </trkpt>
      <trkpt lat="47.46422" lon="6.78357">
        <ele>390.2</ele>
        <time>2016-01-10T10:03:11.000Z</time>
      </trkpt>
      <trkpt lat="47.4642" lon="6.78359">
        <ele>390.6</ele>
        <time>2016-01-10T10:03:12.000Z</time>
      </trkpt>
      <trkpt lat="47.46417" lon="6.78361">
        <ele>390.8</ele>
        <time>2016-01-10T10:03:14.000Z</time>
      </trkpt>
      <trkpt lat="47.46416" lon="6.78362">
        <ele>390.8</ele>
        <time>2016-01-10T10:03:15.000Z</time>
      </trkpt>
      <trkpt lat="47.46413" lon="6.78364">
        <ele>391.1</ele>
        <time>2016-01-10T10:03:17.000Z</time>
      </trkpt>
      <trkpt lat="47.46411" lon="6.78365">
        <ele>390.8</ele>
        <time>2016-01-10T10:03:18.000Z</time>
      </trkpt>
      <trkpt lat="47.46409" lon="6.78369">
        <ele>391.9</ele>
        <time>2016-01-10T10:03:21.000Z</time>
      </trkpt>
      <trkpt lat="47.46408" lon="6.78371">
        <ele>391.9</ele>
        <time>2016-01-10T10:03:22.000Z</time>
      </trkpt>
      <trkpt lat="47.46405" lon="6.78376">
        <ele>392.2</ele>
        <time>2016-01-10T10:03:25.000Z</time>
      </trkpt>
      <trkpt lat="47.46404" lon="6.78377">
        <ele>392.5</ele>
        <time>2016-01-10T10:03:26.000Z</time>
      </trkpt>
      <trkpt lat="47.464" lon="6.7838">
        <ele>392.2</ele>
        <time>2016-01-10T10:03:28.000Z</time>
      </trkpt>
      <trkpt lat="47.46399" lon="6.78381">
        <ele>391.8</ele>
        <time>2016-01-10T10:03:29.000Z</time>
      </trkpt>
      <trkpt lat="47.46395" lon="6.78384">
        <ele>392.9</ele>
        <time>2016-01-10T10:03:32.000Z</time>
      </trkpt>
      <trkpt lat="47.46395" lon="6.78385">
        <ele>393.1</ele>
        <time>2016-01-10T10:03:33.000Z</time>
      </trkpt>
      <trkpt lat="47.46392" lon="6.7839">
        <ele>393.8</ele>
        <time>2016-01-10T10:03:36.000Z</time>
      </trkpt>
      <trkpt lat="47.46392" lon="6.78392">
        <ele>394.2</ele>
        <time>2016-01-10T10:03:37.000Z</time>
      </trkpt>
      <trkpt lat="47.4639" lon="6.78398">
        <ele>394.7</ele>
        <time>2016-01-10T10:03:40.000Z</time>
      </trkpt>
      <trkpt lat="47.4639" lon="6.784">
        <ele>395</ele>
        <time>2016-01-10T10:03:41.000Z</time>
      </trkpt>
      <trkpt lat="47.4639" lon="6.78406">
        <ele>396.1</ele>
        <time>2016-01-10T10:03:45.000Z</time>
      </trkpt>
      <trkpt lat="47.46391" lon="6.78407">
        <ele>397.4</ele>
        <time>2016-01-10T10:03:46.000Z</time>
      </trkpt>
      <trkpt lat="47.46391" lon="6.78413">
        <ele>400.3</ele>
        <time>2016-01-10T10:03:56.000Z</time>
      </trkpt>
      <trkpt lat="47.46391" lon="6.78414">
        <ele>399.9</ele>
        <time>2016-01-10T10:03:57.000Z</time>
      </trkpt>
      <trkpt lat="47.4639" lon="6.78419">
        <ele>401.9</ele>
        <time>2016-01-10T10:04:01.000Z</time>
      </trkpt>
      <trkpt lat="47.4639" lon="6.78421">
        <ele>401.6</ele>
        <time>2016-01-10T10:04:02.000Z</time>
      </trkpt>
      <trkpt lat="47.4639" lon="6.78427">
        <ele>401.1</ele>
        <time>2016-01-10T10:04:06.000Z</time>
      </trkpt>
      <trkpt lat="47.4639" lon="6.78429">
        <ele>400.9</ele>
        <time>2016-01-10T10:04:07.000Z</time>
      </trkpt>
      <trkpt lat="47.4639" lon="6.78435">
        <ele>402.2</ele>
        <time>2016-01-10T10:04:10.000Z</time>
      </trkpt>
      <trkpt lat="47.4639" lon="6.78436">
        <ele>402.3</ele>
        <time>2016-01-10T10:04:11.000Z</time>
      </trkpt>
      <trkpt lat="47.46389" lon="6.78442">
        <ele>402.2</ele>
        <time>2016-01-10T10:04:15.000Z</time>
      </trkpt>
      <trkpt lat="47.46389" lon="6.78443">
        <ele>402.5</ele>
        <time>2016-01-10T10:04:16.000Z</time>
      </trkpt>
      <trkpt lat="47.46386" lon="6.78441">
        <ele>399.2</ele>
        <time>2016-01-10T10:04:40.000Z</time>
      </trkpt>
      <trkpt lat="47.46385" lon="6.78439">
        <ele>399.7</ele>
        <time>2016-01-10T10:04:41.000Z</time>
      </trkpt>
      <trkpt lat="47.46382" lon="6.78435">
        <ele>398.4</ele>
        <time>2016-01-10T10:04:43.000Z</time>
      </trkpt>
      <trkpt lat="47.4638" lon="6.78433">
        <ele>398.2</ele>
        <time>2016-01-10T10:04:44.000Z</time>
      </trkpt>
      <trkpt lat="47.46376" lon="6.78431">
        <ele>399.4</ele>
        <time>2016-01-10T10:04:47.000Z</time>
      </trkpt>
      <trkpt lat="47.46375" lon="6.78431">
        <ele>399.7</ele>
        <time>2016-01-10T10:04:48.000Z</time>
      </trkpt>
      <trkpt lat="47.46372" lon="6.78433">
        <ele>398.7</ele>
        <time>2016-01-10T10:04:50.000Z</time>
      </trkpt>
      <trkpt lat="47.46371" lon="6.78434">
        <ele>398</ele>
        <time>2016-01-10T10:04:51.000Z</time>
      </trkpt>
      <trkpt lat="47.46367" lon="6.78436">
        <ele>398.7</ele>
        <time>2016-01-10T10:04:53.000Z</time>
      </trkpt>
      <trkpt lat="47.46366" lon="6.78437">
        <ele>399.1</ele>
        <time>2016-01-10T10:04:54.000Z</time>
      </trkpt>
      <trkpt lat="47.46362" lon="6.78438">
        <ele>399</ele>
        <time>2016-01-10T10:04:57.000Z</time>
      </trkpt>
      <trkpt lat="47.46361" lon="6.78438">
        <ele>398.2</ele>
        <time>2016-01-10T10:04:58.000Z</time>
      </trkpt>
      <trkpt lat="47.46357" lon="6.7844">
        <ele>398.7</ele>
        <time>2016-01-10T10:05:01.000Z</time>
      </trkpt>
      <trkpt lat="47.46356" lon="6.78441">
        <ele>399.1</ele>
        <time>2016-01-10T10:05:02.000Z</time>
      </trkpt>
      <trkpt lat="47.46353" lon="6.78443">
        <ele>400</ele>
        <time>2016-01-10T10:05:05.000Z</time>
      </trkpt>
      <trkpt lat="47.46352" lon="6.78444">
        <ele>399.7</ele>
        <time>2016-01-10T10:05:06.000Z</time>
      </trkpt>
      <trkpt lat="47.46348" lon="6.78446">
        <ele>400.8</ele>
        <time>2016-01-10T10:05:11.000Z</time>
      </trkpt>
      <trkpt lat="47.46346" lon="6.78446">
        <ele>402</ele>
        <time>2016-01-10T10:05:12.000Z</time>
      </trkpt>
      <trkpt lat="47.46342" lon="6.78447">
        <ele>401.9</ele>
        <time>2016-01-10T10:05:14.000Z</time>
      </trkpt>
      <trkpt lat="47.4634" lon="6.78448">
        <ele>402</ele>
        <time>2016-01-10T10:05:15.000Z</time>
      </trkpt>
      <trkpt lat="47.46336" lon="6.78449">
        <ele>400.4</ele>
        <time>2016-01-10T10:05:17.000Z</time>
      </trkpt>
      <trkpt lat="47.46334" lon="6.78449">
        <ele>399.6</ele>
        <time>2016-01-10T10:05:18.000Z</time>
      </trkpt>
      <trkpt lat="47.46331" lon="6.78451">
        <ele>398.5</ele>
        <time>2016-01-10T10:05:20.000Z</time>
      </trkpt>
      <trkpt lat="47.46329" lon="6.78452">
        <ele>399.2</ele>
        <time>2016-01-10T10:05:21.000Z</time>
      </trkpt>
      <trkpt lat="47.46325" lon="6.78453">
        <ele>400</ele>
        <time>2016-01-10T10:05:23.000Z</time>
      </trkpt>
      <trkpt lat="47.46323" lon="6.78454">
        <ele>400.6</ele>
        <time>2016-01-10T10:05:24.000Z</time>
      </trkpt>
      <trkpt lat="47.4632" lon="6.78454">
        <ele>401.7</ele>
        <time>2016-01-10T10:05:26.000Z</time>
      </trkpt>
      <trkpt lat="47.46318" lon="6.78455">
        <ele>401.6</ele>
        <time>2016-01-10T10:05:27.000Z</time>
      </trkpt>
      <trkpt lat="47.46314" lon="6.78456">
        <ele>403.2</ele>
        <time>2016-01-10T10:05:29.000Z</time>
      </trkpt>
      <trkpt lat="47.46311" lon="6.78456">
        <ele>403.5</ele>
        <time>2016-01-10T10:05:30.000Z</time>
      </trkpt>
      <trkpt lat="47.46308" lon="6.78458">
        <ele>406.5</ele>
        <time>2016-01-10T10:05:32.000Z</time>
      </trkpt>
      <trkpt lat="47.46306" lon="6.78459">
        <ele>406.9</ele>
        <time>2016-01-10T10:05:33.000Z</time>
      </trkpt>
      <trkpt lat="47.46303" lon="6.7846">
        <ele>405.8</ele>
        <time>2016-01-10T10:05:35.000Z</time>
      </trkpt>
      <trkpt lat="47.46301" lon="6.78461">
        <ele>405.5</ele>
        <time>2016-01-10T10:05:36.000Z</time>
      </trkpt>
      <trkpt lat="47.46297" lon="6.78463">
        <ele>406.1</ele>
        <time>2016-01-10T10:05:38.000Z</time>
      </trkpt>
      <trkpt lat="47.46294" lon="6.78463">
        <ele>405.8</ele>
        <time>2016-01-10T10:05:39.000Z</time>
      </trkpt>
      <trkpt lat="47.46292" lon="6.78463">
        <ele>406.8</ele>
        <time>2016-01-10T10:05:40.000Z</time>
      </trkpt>
      <trkpt lat="47.46289" lon="6.78464">
        <ele>407.2</ele>
        <time>2016-01-10T10:05:41.000Z</time>
      </trkpt>
      <trkpt lat="47.46287" lon="6.78465">
        <ele>406.7</ele>
        <time>2016-01-10T10:05:42.000Z</time>
      </trkpt>
      <trkpt lat="47.46285" lon="6.78467">
        <ele>407.6</ele>
        <time>2016-01-10T10:05:43.000Z</time>
      </trkpt>
      <trkpt lat="47.46282" lon="6.78467">
        <ele>408.1</ele>
        <time>2016-01-10T10:05:44.000Z</time>
      </trkpt>
      <trkpt lat="47.4628" lon="6.78468">
        <ele>408.5</ele>
        <time>2016-01-10T10:05:45.000Z</time>
      </trkpt>
      <trkpt lat="47.46276" lon="6.7847">
        <ele>409.5</ele>
        <time>2016-01-10T10:05:47.000Z</time>
      </trkpt>
      <trkpt lat="47.46274" lon="6.78472">
        <ele>409.9</ele>
        <time>2016-01-10T10:05:48.000Z</time>
      </trkpt>
      <trkpt lat="47.4627" lon="6.78474">
        <ele>408.9</ele>
        <time>2016-01-10T10:05:50.000Z</time>
      </trkpt>
      <trkpt lat="47.46268" lon="6.78474">
        <ele>408.3</ele>
        <time>2016-01-10T10:05:51.000Z</time>
      </trkpt>
      <trkpt lat="47.46264" lon="6.78475">
        <ele>408.7</ele>
        <time>2016-01-10T10:05:53.000Z</time>
      </trkpt>
      <trkpt lat="47.46262" lon="6.78476">
        <ele>408.4</ele>
        <time>2016-01-10T10:05:54.000Z</time>
      </trkpt>
      <trkpt lat="47.46258" lon="6.78476">
        <ele>406.7</ele>
        <time>2016-01-10T10:05:56.000Z</time>
      </trkpt>
      <trkpt lat="47.46256" lon="6.78477">
        <ele>407</ele>
        <time>2016-01-10T10:05:57.000Z</time>
      </trkpt>
      <trkpt lat="47.46253" lon="6.78478">
        <ele>408.6</ele>
        <time>2016-01-10T10:05:59.000Z</time>
      </trkpt>
      <trkpt lat="47.46251" lon="6.78479">
        <ele>408.4</ele>
        <time>2016-01-10T10:06:00.000Z</time>
      </trkpt>
      <trkpt lat="47.46248" lon="6.7848">
        <ele>410</ele>
        <time>2016-01-10T10:06:03.000Z</time>
      </trkpt>
      <trkpt lat="47.46246" lon="6.78481">
        <ele>408.8</ele>
        <time>2016-01-10T10:06:04.000Z</time>
      </trkpt>
      <trkpt lat="47.46243" lon="6.78484">
        <ele>409.5</ele>
        <time>2016-01-10T10:06:06.000Z</time>
      </trkpt>
      <trkpt lat="47.46241" lon="6.78486">
        <ele>408.7</ele>
        <time>2016-01-10T10:06:07.000Z</time>
      </trkpt>
      <trkpt lat="47.46239" lon="6.78488">
        <ele>408.4</ele>
        <time>2016-01-10T10:06:08.000Z</time>
      </trkpt>
      <trkpt lat="47.46236" lon="6.78489">
        <ele>407.5</ele>
        <time>2016-01-10T10:06:09.000Z</time>
      </trkpt>
      <trkpt lat="47.46234" lon="6.7849">
        <ele>406.2</ele>
        <time>2016-01-10T10:06:10.000Z</time>
      </trkpt>
      <trkpt lat="47.46232" lon="6.78491">
        <ele>405.7</ele>
        <time>2016-01-10T10:06:11.000Z</time>
      </trkpt>
      <trkpt lat="47.4623" lon="6.78493">
        <ele>405.4</ele>
        <time>2016-01-10T10:06:12.000Z</time>
      </trkpt>
      <trkpt lat="47.46227" lon="6.78494">
        <ele>404.1</ele>
        <time>2016-01-10T10:06:13.000Z</time>
      </trkpt>
      <trkpt lat="47.46225" lon="6.78495">
        <ele>404.2</ele>
        <time>2016-01-10T10:06:14.000Z</time>
      </trkpt>
      <trkpt lat="47.46223" lon="6.78496">
        <ele>404.8</ele>
        <time>2016-01-10T10:06:15.000Z</time>
      </trkpt>
      <trkpt lat="47.46221" lon="6.78497">
        <ele>405.3</ele>
        <time>2016-01-10T10:06:16.000Z</time>
      </trkpt>
      <trkpt lat="47.46218" lon="6.78498">
        <ele>405.6</ele>
        <time>2016-01-10T10:06:17.000Z</time>
      </trkpt>
      <trkpt lat="47.46216" lon="6.78499">
        <ele>405.4</ele>
        <time>2016-01-10T10:06:18.000Z</time>
      </trkpt>
      <trkpt lat="47.46213" lon="6.785">
        <ele>404.8</ele>
        <time>2016-01-10T10:06:19.000Z</time>
      </trkpt>
      <trkpt lat="47.4621" lon="6.78502">
        <ele>406.9</ele>
        <time>2016-01-10T10:06:20.000Z</time>
      </trkpt>
      <trkpt lat="47.46208" lon="6.78504">
        <ele>407.4</ele>
        <time>2016-01-10T10:06:21.000Z</time>
      </trkpt>
      <trkpt lat="47.46206" lon="6.78507">
        <ele>407.5</ele>
        <time>2016-01-10T10:06:22.000Z</time>
      </trkpt>
      <trkpt lat="47.46203" lon="6.78509">
        <ele>408</ele>
        <time>2016-01-10T10:06:23.000Z</time>
      </trkpt>
      <trkpt lat="47.46199" lon="6.78511">
        <ele>407</ele>
        <time>2016-01-10T10:06:25.000Z</time>
      </trkpt>
      <trkpt lat="47.46197" lon="6.7851">
        <ele>406.3</ele>
        <time>2016-01-10T10:06:26.000Z</time>
      </trkpt>
      <trkpt lat="47.46193" lon="6.7851">
        <ele>406.7</ele>
        <time>2016-01-10T10:06:28.000Z</time>
      </trkpt>
      <trkpt lat="47.46191" lon="6.7851">
        <ele>406.9</ele>
        <time>2016-01-10T10:06:29.000Z</time>
      </trkpt>
      <trkpt lat="47.46188" lon="6.7851">
        <ele>407.5</ele>
        <time>2016-01-10T10:06:30.000Z</time>
      </trkpt>
      <trkpt lat="47.46186" lon="6.78511">
        <ele>408.1</ele>
        <time>2016-01-10T10:06:31.000Z</time>
      </trkpt>
      <trkpt lat="47.46183" lon="6.78512">
        <ele>408.1</ele>
        <time>2016-01-10T10:06:32.000Z</time>
      </trkpt>
      <trkpt lat="47.4618" lon="6.78512">
        <ele>408.6</ele>
        <time>2016-01-10T10:06:33.000Z</time>
      </trkpt>
      <trkpt lat="47.46176" lon="6.78514">
        <ele>410.4</ele>
        <time>2016-01-10T10:06:34.000Z</time>
      </trkpt>
      <trkpt lat="47.46173" lon="6.78513">
        <ele>410.1</ele>
        <time>2016-01-10T10:06:35.000Z</time>
      </trkpt>
      <trkpt lat="47.4617" lon="6.78513">
        <ele>411.4</ele>
        <time>2016-01-10T10:06:36.000Z</time>
      </trkpt>
      <trkpt lat="47.46167" lon="6.78513">
        <ele>409.2</ele>
        <time>2016-01-10T10:06:37.000Z</time>
      </trkpt>
      <trkpt lat="47.46164" lon="6.78512">
        <ele>406.4</ele>
        <time>2016-01-10T10:06:38.000Z</time>
      </trkpt>
      <trkpt lat="47.46161" lon="6.78512">
        <ele>406.8</ele>
        <time>2016-01-10T10:06:39.000Z</time>
      </trkpt>
      <trkpt lat="47.46158" lon="6.78512">
        <ele>407.2</ele>
        <time>2016-01-10T10:06:40.000Z</time>
      </trkpt>
      <trkpt lat="47.46155" lon="6.78513">
        <ele>409.4</ele>
        <time>2016-01-10T10:06:41.000Z</time>
      </trkpt>
      <trkpt lat="47.46152" lon="6.78515">
        <ele>410.3</ele>
        <time>2016-01-10T10:06:42.000Z</time>
      </trkpt>
      <trkpt lat="47.46149" lon="6.78517">
        <ele>410.6</ele>
        <time>2016-01-10T10:06:43.000Z</time>
      </trkpt>
      <trkpt lat="47.46146" lon="6.78519">
        <ele>409.8</ele>
        <time>2016-01-10T10:06:44.000Z</time>
      </trkpt>
      <trkpt lat="47.46143" lon="6.7852">
        <ele>409.5</ele>
        <time>2016-01-10T10:06:45.000Z</time>
      </trkpt>
      <trkpt lat="47.4614" lon="6.78521">
        <ele>409.2</ele>
        <time>2016-01-10T10:06:46.000Z</time>
      </trkpt>
      <trkpt lat="47.46137" lon="6.78523">
        <ele>409.1</ele>
        <time>2016-01-10T10:06:47.000Z</time>
      </trkpt>
      <trkpt lat="47.46133" lon="6.78524">
        <ele>407.7</ele>
        <time>2016-01-10T10:06:48.000Z</time>
      </trkpt>
      <trkpt lat="47.4613" lon="6.78525">
        <ele>408.1</ele>
        <time>2016-01-10T10:06:49.000Z</time>
      </trkpt>
      <trkpt lat="47.46127" lon="6.78526">
        <ele>408.7</ele>
        <time>2016-01-10T10:06:50.000Z</time>
      </trkpt>
      <trkpt lat="47.46124" lon="6.78528">
        <ele>409.8</ele>
        <time>2016-01-10T10:06:51.000Z</time>
      </trkpt>
      <trkpt lat="47.46121" lon="6.7853">
        <ele>407.8</ele>
        <time>2016-01-10T10:06:52.000Z</time>
      </trkpt>
      <trkpt lat="47.46118" lon="6.78532">
        <ele>407.8</ele>
        <time>2016-01-10T10:06:53.000Z</time>
      </trkpt>
      <trkpt lat="47.46115" lon="6.78533">
        <ele>406.9</ele>
        <time>2016-01-10T10:06:54.000Z</time>
      </trkpt>
      <trkpt lat="47.46112" lon="6.78534">
        <ele>408.7</ele>
        <time>2016-01-10T10:06:55.000Z</time>
      </trkpt>
      <trkpt lat="47.46108" lon="6.78535">
        <ele>411.2</ele>
        <time>2016-01-10T10:06:56.000Z</time>
      </trkpt>
      <trkpt lat="47.46105" lon="6.78537">
        <ele>411.8</ele>
        <time>2016-01-10T10:06:57.000Z</time>
      </trkpt>
      <trkpt lat="47.46102" lon="6.78539">
        <ele>412.8</ele>
        <time>2016-01-10T10:06:58.000Z</time>
      </trkpt>
      <trkpt lat="47.46099" lon="6.78541">
        <ele>413.2</ele>
        <time>2016-01-10T10:06:59.000Z</time>
      </trkpt>
      <trkpt lat="47.46096" lon="6.78543">
        <ele>413.3</ele>
        <time>2016-01-10T10:07:00.000Z</time>
      </trkpt>
      <trkpt lat="47.46093" lon="6.78545">
        <ele>413.5</ele>
        <time>2016-01-10T10:07:01.000Z</time>
      </trkpt>
      <trkpt lat="47.46089" lon="6.78547">
        <ele>411.1</ele>
        <time>2016-01-10T10:07:03.000Z</time>
      </trkpt>
      <trkpt lat="47.46087" lon="6.78548">
        <ele>411.1</ele>
        <time>2016-01-10T10:07:04.000Z</time>
      </trkpt>
      <trkpt lat="47.46083" lon="6.78549">
        <ele>411.3</ele>
        <time>2016-01-10T10:07:06.000Z</time>
      </trkpt>
      <trkpt lat="47.46081" lon="6.78549">
        <ele>411</ele>
        <time>2016-01-10T10:07:07.000Z</time>
      </trkpt>
      <trkpt lat="47.46079" lon="6.7855">
        <ele>412.2</ele>
        <time>2016-01-10T10:07:08.000Z</time>
      </trkpt>
      <trkpt lat="47.46077" lon="6.78552">
        <ele>411.9</ele>
        <time>2016-01-10T10:07:09.000Z</time>
      </trkpt>
      <trkpt lat="47.46075" lon="6.78555">
        <ele>410.5</ele>
        <time>2016-01-10T10:07:10.000Z</time>
      </trkpt>
      <trkpt lat="47.46073" lon="6.78557">
        <ele>410.9</ele>
        <time>2016-01-10T10:07:11.000Z</time>
      </trkpt>
      <trkpt lat="47.46069" lon="6.78557">
        <ele>409.4</ele>
        <time>2016-01-10T10:07:14.000Z</time>
      </trkpt>
      <trkpt lat="47.46068" lon="6.78556">
        <ele>409.4</ele>
        <time>2016-01-10T10:07:15.000Z</time>
      </trkpt>
      <trkpt lat="47.46064" lon="6.78552">
        <ele>407.9</ele>
        <time>2016-01-10T10:07:18.000Z</time>
      </trkpt>
      <trkpt lat="47.46063" lon="6.7855">
        <ele>407.5</ele>
        <time>2016-01-10T10:07:19.000Z</time>
      </trkpt>
      <trkpt lat="47.46061" lon="6.78547">
        <ele>407.5</ele>
        <time>2016-01-10T10:07:20.000Z</time>
      </trkpt>
      <trkpt lat="47.46059" lon="6.78545">
        <ele>408.6</ele>
        <time>2016-01-10T10:07:21.000Z</time>
      </trkpt>
      <trkpt lat="47.46057" lon="6.78543">
        <ele>410.6</ele>
        <time>2016-01-10T10:07:22.000Z</time>
      </trkpt>
      <trkpt lat="47.46055" lon="6.78541">
        <ele>408.8</ele>
        <time>2016-01-10T10:07:23.000Z</time>
      </trkpt>
      <trkpt lat="47.46053" lon="6.78538">
        <ele>407</ele>
        <time>2016-01-10T10:07:24.000Z</time>
      </trkpt>
      <trkpt lat="47.46051" lon="6.78534">
        <ele>405.1</ele>
        <time>2016-01-10T10:07:25.000Z</time>
      </trkpt>
      <trkpt lat="47.46051" lon="6.78529">
        <ele>403.8</ele>
        <time>2016-01-10T10:07:26.000Z</time>
      </trkpt>
      <trkpt lat="47.4605" lon="6.78525">
        <ele>403.5</ele>
        <time>2016-01-10T10:07:27.000Z</time>
      </trkpt>
      <trkpt lat="47.4605" lon="6.78521">
        <ele>403.1</ele>
        <time>2016-01-10T10:07:28.000Z</time>
      </trkpt>
      <trkpt lat="47.46049" lon="6.78517">
        <ele>402.2</ele>
        <time>2016-01-10T10:07:29.000Z</time>
      </trkpt>
      <trkpt lat="47.46047" lon="6.78512">
        <ele>401.9</ele>
        <time>2016-01-10T10:07:31.000Z</time>
      </trkpt>
      <trkpt lat="47.46046" lon="6.78511">
        <ele>401.8</ele>
        <time>2016-01-10T10:07:32.000Z</time>
      </trkpt>
      <trkpt lat="47.46043" lon="6.78508">
        <ele>403</ele>
        <time>2016-01-10T10:07:34.000Z</time>
      </trkpt>
      <trkpt lat="47.46041" lon="6.78507">
        <ele>404.5</ele>
        <time>2016-01-10T10:07:35.000Z</time>
      </trkpt>
      <trkpt lat="47.46038" lon="6.78505">
        <ele>405</ele>
        <time>2016-01-10T10:07:36.000Z</time>
      </trkpt>
      <trkpt lat="47.46035" lon="6.78504">
        <ele>406.6</ele>
        <time>2016-01-10T10:07:37.000Z</time>
      </trkpt>
      <trkpt lat="47.46032" lon="6.78503">
        <ele>407.5</ele>
        <time>2016-01-10T10:07:38.000Z</time>
      </trkpt>
      <trkpt lat="47.46029" lon="6.78502">
        <ele>405.8</ele>
        <time>2016-01-10T10:07:39.000Z</time>
      </trkpt>
      <trkpt lat="47.46026" lon="6.785">
        <ele>405.3</ele>
        <time>2016-01-10T10:07:40.000Z</time>
      </trkpt>
      <trkpt lat="47.46022" lon="6.78497">
        <ele>404.3</ele>
        <time>2016-01-10T10:07:41.000Z</time>
      </trkpt>
      <trkpt lat="47.46019" lon="6.78495">
        <ele>403.7</ele>
        <time>2016-01-10T10:07:42.000Z</time>
      </trkpt>
      <trkpt lat="47.46016" lon="6.78493">
        <ele>403.7</ele>
        <time>2016-01-10T10:07:43.000Z</time>
      </trkpt>
      <trkpt lat="47.46013" lon="6.78493">
        <ele>403.5</ele>
        <time>2016-01-10T10:07:44.000Z</time>
      </trkpt>
      <trkpt lat="47.46011" lon="6.78493">
        <ele>404.2</ele>
        <time>2016-01-10T10:07:45.000Z</time>
      </trkpt>
      <trkpt lat="47.46008" lon="6.78494">
        <ele>404.8</ele>
        <time>2016-01-10T10:07:46.000Z</time>
      </trkpt>
      <trkpt lat="47.46006" lon="6.78495">
        <ele>403.8</ele>
        <time>2016-01-10T10:07:47.000Z</time>
      </trkpt>
      <trkpt lat="47.46002" lon="6.78495">
        <ele>403.9</ele>
        <time>2016-01-10T10:07:49.000Z</time>
      </trkpt>
      <trkpt lat="47.46001" lon="6.78495">
        <ele>404</ele>
        <time>2016-01-10T10:07:50.000Z</time>
      </trkpt>
      <trkpt lat="47.46003" lon="6.785">
        <ele>402.6</ele>
        <time>2016-01-10T10:09:41.000Z</time>
      </trkpt>
      <trkpt lat="47.46003" lon="6.78503">
        <ele>403.1</ele>
        <time>2016-01-10T10:09:42.000Z</time>
      </trkpt>
      <trkpt lat="47.46003" lon="6.78509">
        <ele>404.5</ele>
        <time>2016-01-10T10:09:45.000Z</time>
      </trkpt>
      <trkpt lat="47.46003" lon="6.7851">
        <ele>404.4</ele>
        <time>2016-01-10T10:09:46.000Z</time>
      </trkpt>
      <trkpt lat="47.46002" lon="6.78507">
        <ele>402.7</ele>
        <time>2016-01-10T10:09:50.000Z</time>
      </trkpt>
      <trkpt lat="47.46" lon="6.78505">
        <ele>404.1</ele>
        <time>2016-01-10T10:09:51.000Z</time>
      </trkpt>
      <trkpt lat="47.45998" lon="6.78502">
        <ele>405.1</ele>
        <time>2016-01-10T10:09:52.000Z</time>
      </trkpt>
      <trkpt lat="47.45996" lon="6.78499">
        <ele>405.6</ele>
        <time>2016-01-10T10:09:53.000Z</time>
      </trkpt>
      <trkpt lat="47.45994" lon="6.78495">
        <ele>404.1</ele>
        <time>2016-01-10T10:09:54.000Z</time>
      </trkpt>
      <trkpt lat="47.45992" lon="6.78491">
        <ele>404</ele>
        <time>2016-01-10T10:09:55.000Z</time>
      </trkpt>
      <trkpt lat="47.4599" lon="6.78488">
        <ele>404.7</ele>
        <time>2016-01-10T10:09:56.000Z</time>
      </trkpt>
      <trkpt lat="47.45989" lon="6.78484">
        <ele>403.5</ele>
        <time>2016-01-10T10:09:57.000Z</time>
      </trkpt>
      <trkpt lat="47.45988" lon="6.7848">
        <ele>404</ele>
        <time>2016-01-10T10:09:58.000Z</time>
      </trkpt>
      <trkpt lat="47.45987" lon="6.78477">
        <ele>403.5</ele>
        <time>2016-01-10T10:09:59.000Z</time>
      </trkpt>
      <trkpt lat="47.45985" lon="6.78471">
        <ele>403.6</ele>
        <time>2016-01-10T10:10:01.000Z</time>
      </trkpt>
      <trkpt lat="47.45985" lon="6.78468">
        <ele>402.7</ele>
        <time>2016-01-10T10:10:02.000Z</time>
      </trkpt>
      <trkpt lat="47.45985" lon="6.78473">
        <ele>398.5</ele>
        <time>2016-01-10T10:10:19.000Z</time>
      </trkpt>
      <trkpt lat="47.45986" lon="6.78474">
        <ele>398.1</ele>
        <time>2016-01-10T10:10:20.000Z</time>
      </trkpt>
      <trkpt lat="47.45989" lon="6.78478">
        <ele>397.7</ele>
        <time>2016-01-10T10:10:22.000Z</time>
      </trkpt>
      <trkpt lat="47.4599" lon="6.7848">
        <ele>397.8</ele>
        <time>2016-01-10T10:10:23.000Z</time>
      </trkpt>
      <trkpt lat="47.45993" lon="6.78483">
        <ele>397.5</ele>
        <time>2016-01-10T10:10:25.000Z</time>
      </trkpt>
      <trkpt lat="47.45995" lon="6.78482">
        <ele>398.1</ele>
        <time>2016-01-10T10:10:26.000Z</time>
      </trkpt>
      <trkpt lat="47.45998" lon="6.78481">
        <ele>399</ele>
        <time>2016-01-10T10:10:28.000Z</time>
      </trkpt>
      <trkpt lat="47.45999" lon="6.7848">
        <ele>399.5</ele>
        <time>2016-01-10T10:10:29.000Z</time>
      </trkpt>
      <trkpt lat="47.46003" lon="6.78478">
        <ele>398.1</ele>
        <time>2016-01-10T10:10:32.000Z</time>
      </trkpt>
      <trkpt lat="47.46005" lon="6.78478">
        <ele>395.3</ele>
        <time>2016-01-10T10:10:33.000Z</time>
      </trkpt>
      <trkpt lat="47.46008" lon="6.7848">
        <ele>394.6</ele>
        <time>2016-01-10T10:10:35.000Z</time>
      </trkpt>
      <trkpt lat="47.46009" lon="6.78481">
        <ele>394.6</ele>
        <time>2016-01-10T10:10:36.000Z</time>
      </trkpt>
      <trkpt lat="47.46012" lon="6.78482">
        <ele>396.4</ele>
        <time>2016-01-10T10:10:38.000Z</time>
      </trkpt>
      <trkpt lat="47.46013" lon="6.78484">
        <ele>395.4</ele>
        <time>2016-01-10T10:10:39.000Z</time>
      </trkpt>
      <trkpt lat="47.46016" lon="6.78487">
        <ele>397.3</ele>
        <time>2016-01-10T10:10:41.000Z</time>
      </trkpt>
      <trkpt lat="47.46017" lon="6.78489">
        <ele>397</ele>
        <time>2016-01-10T10:10:42.000Z</time>
      </trkpt>
      <trkpt lat="47.4602" lon="6.78491">
        <ele>397.4</ele>
        <time>2016-01-10T10:10:44.000Z</time>
      </trkpt>
      <trkpt lat="47.46022" lon="6.78491">
        <ele>398</ele>
        <time>2016-01-10T10:10:45.000Z</time>
      </trkpt>
      <trkpt lat="47.46024" lon="6.78494">
        <ele>396.9</ele>
        <time>2016-01-10T10:10:47.000Z</time>
      </trkpt>
      <trkpt lat="47.46025" lon="6.78496">
        <ele>397</ele>
        <time>2016-01-10T10:10:48.000Z</time>
      </trkpt>
      <trkpt lat="47.46027" lon="6.785">
        <ele>397.7</ele>
        <time>2016-01-10T10:10:50.000Z</time>
      </trkpt>
      <trkpt lat="47.46028" lon="6.78502">
        <ele>398.4</ele>
        <time>2016-01-10T10:10:51.000Z</time>
      </trkpt>
      <trkpt lat="47.4603" lon="6.78506">
        <ele>394.4</ele>
        <time>2016-01-10T10:10:53.000Z</time>
      </trkpt>
      <trkpt lat="47.46031" lon="6.78508">
        <ele>394.2</ele>
        <time>2016-01-10T10:10:54.000Z</time>
      </trkpt>
      <trkpt lat="47.46034" lon="6.78511">
        <ele>394.6</ele>
        <time>2016-01-10T10:10:57.000Z</time>
      </trkpt>
      <trkpt lat="47.46035" lon="6.78512">
        <ele>394.6</ele>
        <time>2016-01-10T10:10:58.000Z</time>
      </trkpt>
      <trkpt lat="47.46039" lon="6.78514">
        <ele>398.6</ele>
        <time>2016-01-10T10:11:03.000Z</time>
      </trkpt>
      <trkpt lat="47.4604" lon="6.78514">
        <ele>398.6</ele>
        <time>2016-01-10T10:11:04.000Z</time>
      </trkpt>
      <trkpt lat="47.46042" lon="6.78518">
        <ele>399</ele>
        <time>2016-01-10T10:11:07.000Z</time>
      </trkpt>
      <trkpt lat="47.46043" lon="6.78519">
        <ele>399.2</ele>
        <time>2016-01-10T10:11:08.000Z</time>
      </trkpt>
      <trkpt lat="47.46044" lon="6.78524">
        <ele>398.9</ele>
        <time>2016-01-10T10:11:10.000Z</time>
      </trkpt>
      <trkpt lat="47.46044" lon="6.78526">
        <ele>397.8</ele>
        <time>2016-01-10T10:11:11.000Z</time>
      </trkpt>
      <trkpt lat="47.46045" lon="6.78531">
        <ele>399.5</ele>
        <time>2016-01-10T10:11:13.000Z</time>
      </trkpt>
      <trkpt lat="47.46045" lon="6.78534">
        <ele>401.4</ele>
        <time>2016-01-10T10:11:14.000Z</time>
      </trkpt>
      <trkpt lat="47.46047" lon="6.78537">
        <ele>405.2</ele>
        <time>2016-01-10T10:11:17.000Z</time>
      </trkpt>
      <trkpt lat="47.46049" lon="6.78538">
        <ele>406</ele>
        <time>2016-01-10T10:11:18.000Z</time>
      </trkpt>
      <trkpt lat="47.46051" lon="6.78541">
        <ele>406.2</ele>
        <time>2016-01-10T10:11:20.000Z</time>
      </trkpt>
      <trkpt lat="47.46053" lon="6.78543">
        <ele>406.7</ele>
        <time>2016-01-10T10:11:21.000Z</time>
      </trkpt>
      <trkpt lat="47.46055" lon="6.78546">
        <ele>408.8</ele>
        <time>2016-01-10T10:11:23.000Z</time>
      </trkpt>
      <trkpt lat="47.46057" lon="6.78548">
        <ele>409</ele>
        <time>2016-01-10T10:11:24.000Z</time>
      </trkpt>
      <trkpt lat="47.4606" lon="6.78551">
        <ele>409.1</ele>
        <time>2016-01-10T10:11:26.000Z</time>
      </trkpt>
      <trkpt lat="47.46061" lon="6.78552">
        <ele>409.1</ele>
        <time>2016-01-10T10:11:27.000Z</time>
      </trkpt>
      <trkpt lat="47.46064" lon="6.78555">
        <ele>406.4</ele>
        <time>2016-01-10T10:11:29.000Z</time>
      </trkpt>
      <trkpt lat="47.46065" lon="6.78557">
        <ele>405.8</ele>
        <time>2016-01-10T10:11:30.000Z</time>
      </trkpt>
      <trkpt lat="47.46067" lon="6.78561">
        <ele>405.1</ele>
        <time>2016-01-10T10:11:32.000Z</time>
      </trkpt>
      <trkpt lat="47.46068" lon="6.78563">
        <ele>405</ele>
        <time>2016-01-10T10:11:33.000Z</time>
      </trkpt>
      <trkpt lat="47.46071" lon="6.78568">
        <ele>404.5</ele>
        <time>2016-01-10T10:11:35.000Z</time>
      </trkpt>
      <trkpt lat="47.46072" lon="6.7857">
        <ele>405.6</ele>
        <time>2016-01-10T10:11:36.000Z</time>
      </trkpt>
      <trkpt lat="47.46075" lon="6.78575">
        <ele>406.9</ele>
        <time>2016-01-10T10:11:38.000Z</time>
      </trkpt>
      <trkpt lat="47.46076" lon="6.78578">
        <ele>407.4</ele>
        <time>2016-01-10T10:11:39.000Z</time>
      </trkpt>
      <trkpt lat="47.46077" lon="6.78581">
        <ele>407.9</ele>
        <time>2016-01-10T10:11:40.000Z</time>
      </trkpt>
      <trkpt lat="47.46078" lon="6.78584">
        <ele>407.1</ele>
        <time>2016-01-10T10:11:41.000Z</time>
      </trkpt>
      <trkpt lat="47.4608" lon="6.7859">
        <ele>405.7</ele>
        <time>2016-01-10T10:11:43.000Z</time>
      </trkpt>
      <trkpt lat="47.46081" lon="6.78593">
        <ele>406.3</ele>
        <time>2016-01-10T10:11:44.000Z</time>
      </trkpt>
      <trkpt lat="47.46082" lon="6.78596">
        <ele>407</ele>
        <time>2016-01-10T10:11:45.000Z</time>
      </trkpt>
      <trkpt lat="47.46083" lon="6.78599">
        <ele>406.7</ele>
        <time>2016-01-10T10:11:46.000Z</time>
      </trkpt>
      <trkpt lat="47.46084" lon="6.78603">
        <ele>409.7</ele>
        <time>2016-01-10T10:11:47.000Z</time>
      </trkpt>
      <trkpt lat="47.46085" lon="6.78606">
        <ele>411</ele>
        <time>2016-01-10T10:11:48.000Z</time>
      </trkpt>
      <trkpt lat="47.46086" lon="6.7861">
        <ele>411.4</ele>
        <time>2016-01-10T10:11:49.000Z</time>
      </trkpt>
      <trkpt lat="47.46087" lon="6.78613">
        <ele>411.4</ele>
        <time>2016-01-10T10:11:50.000Z</time>
      </trkpt>
      <trkpt lat="47.46089" lon="6.78618">
        <ele>411.8</ele>
        <time>2016-01-10T10:11:52.000Z</time>
      </trkpt>
      <trkpt lat="47.4609" lon="6.78621">
        <ele>410.1</ele>
        <time>2016-01-10T10:11:53.000Z</time>
      </trkpt>
      <trkpt lat="47.46091" lon="6.78627">
        <ele>409.6</ele>
        <time>2016-01-10T10:11:55.000Z</time>
      </trkpt>
      <trkpt lat="47.46092" lon="6.78629">
        <ele>408.9</ele>
        <time>2016-01-10T10:11:56.000Z</time>
      </trkpt>
      <trkpt lat="47.46093" lon="6.78634">
        <ele>408.4</ele>
        <time>2016-01-10T10:11:58.000Z</time>
      </trkpt>
      <trkpt lat="47.46094" lon="6.78637">
        <ele>409</ele>
        <time>2016-01-10T10:11:59.000Z</time>
      </trkpt>
      <trkpt lat="47.46095" lon="6.7864">
        <ele>409.5</ele>
        <time>2016-01-10T10:12:00.000Z</time>
      </trkpt>
      <trkpt lat="47.46097" lon="6.78644">
        <ele>410.1</ele>
        <time>2016-01-10T10:12:01.000Z</time>
      </trkpt>
      <trkpt lat="47.46098" lon="6.78647">
        <ele>410.5</ele>
        <time>2016-01-10T10:12:02.000Z</time>
      </trkpt>
      <trkpt lat="47.46099" lon="6.7865">
        <ele>411.7</ele>
        <time>2016-01-10T10:12:03.000Z</time>
      </trkpt>
      <trkpt lat="47.46101" lon="6.78653">
        <ele>412.9</ele>
        <time>2016-01-10T10:12:04.000Z</time>
      </trkpt>
      <trkpt lat="47.46101" lon="6.78657">
        <ele>404.9</ele>
        <time>2016-01-10T10:12:05.000Z</time>
      </trkpt>
      <trkpt lat="47.46102" lon="6.7866">
        <ele>405.5</ele>
        <time>2016-01-10T10:12:06.000Z</time>
      </trkpt>
      <trkpt lat="47.46102" lon="6.78663">
        <ele>405</ele>
        <time>2016-01-10T10:12:07.000Z</time>
      </trkpt>
      <trkpt lat="47.46103" lon="6.78667">
        <ele>405.7</ele>
        <time>2016-01-10T10:12:08.000Z</time>
      </trkpt>
      <trkpt lat="47.46104" lon="6.78671">
        <ele>406.7</ele>
        <time>2016-01-10T10:12:09.000Z</time>
      </trkpt>
      <trkpt lat="47.46105" lon="6.78674">
        <ele>407.3</ele>
        <time>2016-01-10T10:12:10.000Z</time>
      </trkpt>
      <trkpt lat="47.46107" lon="6.78678">
        <ele>407</ele>
        <time>2016-01-10T10:12:11.000Z</time>
      </trkpt>
      <trkpt lat="47.46108" lon="6.78681">
        <ele>409</ele>
        <time>2016-01-10T10:12:12.000Z</time>
      </trkpt>
      <trkpt lat="47.46108" lon="6.78684">
        <ele>410</ele>
        <time>2016-01-10T10:12:13.000Z</time>
      </trkpt>
      <trkpt lat="47.4611" lon="6.78689">
        <ele>407.2</ele>
        <time>2016-01-10T10:12:15.000Z</time>
      </trkpt>
      <trkpt lat="47.46111" lon="6.78693">
        <ele>407.7</ele>
        <time>2016-01-10T10:12:16.000Z</time>
      </trkpt>
      <trkpt lat="47.46111" lon="6.78696">
        <ele>408</ele>
        <time>2016-01-10T10:12:17.000Z</time>
      </trkpt>
      <trkpt lat="47.46112" lon="6.787">
        <ele>409.6</ele>
        <time>2016-01-10T10:12:18.000Z</time>
      </trkpt>
      <trkpt lat="47.46112" lon="6.78705">
        <ele>410.4</ele>
        <time>2016-01-10T10:12:19.000Z</time>
      </trkpt>
      <trkpt lat="47.46113" lon="6.78708">
        <ele>410.9</ele>
        <time>2016-01-10T10:12:20.000Z</time>
      </trkpt>
      <trkpt lat="47.46114" lon="6.78712">
        <ele>411.4</ele>
        <time>2016-01-10T10:12:21.000Z</time>
      </trkpt>
      <trkpt lat="47.46115" lon="6.78715">
        <ele>412.8</ele>
        <time>2016-01-10T10:12:22.000Z</time>
      </trkpt>
      <trkpt lat="47.46116" lon="6.7872">
        <ele>414.3</ele>
        <time>2016-01-10T10:12:24.000Z</time>
      </trkpt>
      <trkpt lat="47.46117" lon="6.78722">
        <ele>415.2</ele>
        <time>2016-01-10T10:12:25.000Z</time>
      </trkpt>
      <trkpt lat="47.46118" lon="6.78726">
        <ele>412.5</ele>
        <time>2016-01-10T10:12:27.000Z</time>
      </trkpt>
      <trkpt lat="47.46119" lon="6.78728">
        <ele>411.3</ele>
        <time>2016-01-10T10:12:28.000Z</time>
      </trkpt>
      <trkpt lat="47.4612" lon="6.78733">
        <ele>411.8</ele>
        <time>2016-01-10T10:12:30.000Z</time>
      </trkpt>
      <trkpt lat="47.46121" lon="6.78735">
        <ele>412.1</ele>
        <time>2016-01-10T10:12:31.000Z</time>
      </trkpt>
      <trkpt lat="47.46121" lon="6.7874">
        <ele>412.2</ele>
        <time>2016-01-10T10:12:33.000Z</time>
      </trkpt>
      <trkpt lat="47.46122" lon="6.78742">
        <ele>411.9</ele>
        <time>2016-01-10T10:12:34.000Z</time>
      </trkpt>
      <trkpt lat="47.46123" lon="6.78746">
        <ele>411.8</ele>
        <time>2016-01-10T10:12:36.000Z</time>
      </trkpt>
      <trkpt lat="47.46124" lon="6.78749">
        <ele>413.3</ele>
        <time>2016-01-10T10:12:37.000Z</time>
      </trkpt>
      <trkpt lat="47.46126" lon="6.78754">
        <ele>415.7</ele>
        <time>2016-01-10T10:12:40.000Z</time>
      </trkpt>
      <trkpt lat="47.46126" lon="6.78756">
        <ele>415.9</ele>
        <time>2016-01-10T10:12:41.000Z</time>
      </trkpt>
      <trkpt lat="47.4613" lon="6.78759">
        <ele>416.9</ele>
        <time>2016-01-10T10:12:44.000Z</time>
      </trkpt>
      <trkpt lat="47.46131" lon="6.7876">
        <ele>416.9</ele>
        <time>2016-01-10T10:12:45.000Z</time>
      </trkpt>
      <trkpt lat="47.46134" lon="6.78762">
        <ele>416.4</ele>
        <time>2016-01-10T10:12:47.000Z</time>
      </trkpt>
      <trkpt lat="47.46135" lon="6.78763">
        <ele>416.7</ele>
        <time>2016-01-10T10:12:48.000Z</time>
      </trkpt>
      <trkpt lat="47.46139" lon="6.78765">
        <ele>417.2</ele>
        <time>2016-01-10T10:12:52.000Z</time>
      </trkpt>
      <trkpt lat="47.4614" lon="6.78766">
        <ele>417.4</ele>
        <time>2016-01-10T10:12:53.000Z</time>
      </trkpt>
      <trkpt lat="47.46143" lon="6.78768">
        <ele>417.6</ele>
        <time>2016-01-10T10:12:55.000Z</time>
      </trkpt>
      <trkpt lat="47.46145" lon="6.7877">
        <ele>418.4</ele>
        <time>2016-01-10T10:12:56.000Z</time>
      </trkpt>
      <trkpt lat="47.46147" lon="6.78774">
        <ele>418.1</ele>
        <time>2016-01-10T10:12:58.000Z</time>
      </trkpt>
      <trkpt lat="47.46148" lon="6.78776">
        <ele>418.8</ele>
        <time>2016-01-10T10:12:59.000Z</time>
      </trkpt>
      <trkpt lat="47.46149" lon="6.7878">
        <ele>417.7</ele>
        <time>2016-01-10T10:13:01.000Z</time>
      </trkpt>
      <trkpt lat="47.46151" lon="6.78781">
        <ele>417.7</ele>
        <time>2016-01-10T10:13:02.000Z</time>
      </trkpt>
      <trkpt lat="47.46154" lon="6.78782">
        <ele>419.2</ele>
        <time>2016-01-10T10:13:04.000Z</time>
      </trkpt>
      <trkpt lat="47.46157" lon="6.78783">
        <ele>418</ele>
        <time>2016-01-10T10:13:05.000Z</time>
      </trkpt>
      <trkpt lat="47.4616" lon="6.78783">
        <ele>417.9</ele>
        <time>2016-01-10T10:13:07.000Z</time>
      </trkpt>
      <trkpt lat="47.46161" lon="6.78783">
        <ele>419</ele>
        <time>2016-01-10T10:13:08.000Z</time>
      </trkpt>
      <trkpt lat="47.46165" lon="6.78783">
        <ele>419.5</ele>
        <time>2016-01-10T10:13:11.000Z</time>
      </trkpt>
      <trkpt lat="47.46166" lon="6.78782">
        <ele>419.6</ele>
        <time>2016-01-10T10:13:12.000Z</time>
      </trkpt>
      <trkpt lat="47.46169" lon="6.78782">
        <ele>419.7</ele>
        <time>2016-01-10T10:13:14.000Z</time>
      </trkpt>
      <trkpt lat="47.4617" lon="6.78782">
        <ele>420</ele>
        <time>2016-01-10T10:13:15.000Z</time>
      </trkpt>
      <trkpt lat="47.46174" lon="6.78782">
        <ele>421.7</ele>
        <time>2016-01-10T10:13:18.000Z</time>
      </trkpt>
      <trkpt lat="47.46175" lon="6.78781">
        <ele>422.1</ele>
        <time>2016-01-10T10:13:19.000Z</time>
      </trkpt>
      <trkpt lat="47.46178" lon="6.78778">
        <ele>423.5</ele>
        <time>2016-01-10T10:13:22.000Z</time>
      </trkpt>
      <trkpt lat="47.46179" lon="6.78778">
        <ele>423.7</ele>
        <time>2016-01-10T10:13:23.000Z</time>
      </trkpt>
      <trkpt lat="47.46183" lon="6.78775">
        <ele>424.9</ele>
        <time>2016-01-10T10:13:26.000Z</time>
      </trkpt>
      <trkpt lat="47.46185" lon="6.78775">
        <ele>424.8</ele>
        <time>2016-01-10T10:13:27.000Z</time>
      </trkpt>
      <trkpt lat="47.46189" lon="6.78774">
        <ele>429.5</ele>
        <time>2016-01-10T10:13:29.000Z</time>
      </trkpt>
      <trkpt lat="47.46191" lon="6.78772">
        <ele>430</ele>
        <time>2016-01-10T10:13:30.000Z</time>
      </trkpt>
      <trkpt lat="47.46193" lon="6.78771">
        <ele>428.6</ele>
        <time>2016-01-10T10:13:31.000Z</time>
      </trkpt>
      <trkpt lat="47.46195" lon="6.7877">
        <ele>428.1</ele>
        <time>2016-01-10T10:13:32.000Z</time>
      </trkpt>
      <trkpt lat="47.462" lon="6.7877">
        <ele>424</ele>
        <time>2016-01-10T10:13:34.000Z</time>
      </trkpt>
      <trkpt lat="47.46202" lon="6.7877">
        <ele>424.4</ele>
        <time>2016-01-10T10:13:35.000Z</time>
      </trkpt>
      <trkpt lat="47.46204" lon="6.7877">
        <ele>424.5</ele>
        <time>2016-01-10T10:13:36.000Z</time>
      </trkpt>
      <trkpt lat="47.46206" lon="6.78769">
        <ele>424.4</ele>
        <time>2016-01-10T10:13:37.000Z</time>
      </trkpt>
      <trkpt lat="47.46208" lon="6.78768">
        <ele>424.3</ele>
        <time>2016-01-10T10:13:38.000Z</time>
      </trkpt>
      <trkpt lat="47.46211" lon="6.78768">
        <ele>424.4</ele>
        <time>2016-01-10T10:13:39.000Z</time>
      </trkpt>
      <trkpt lat="47.46213" lon="6.78767">
        <ele>424.9</ele>
        <time>2016-01-10T10:13:40.000Z</time>
      </trkpt>
      <trkpt lat="47.46216" lon="6.78767">
        <ele>422.9</ele>
        <time>2016-01-10T10:13:41.000Z</time>
      </trkpt>
      <trkpt lat="47.46218" lon="6.78766">
        <ele>421.8</ele>
        <time>2016-01-10T10:13:42.000Z</time>
      </trkpt>
      <trkpt lat="47.46221" lon="6.78767">
        <ele>421.7</ele>
        <time>2016-01-10T10:13:43.000Z</time>
      </trkpt>
      <trkpt lat="47.46224" lon="6.78768">
        <ele>419.8</ele>
        <time>2016-01-10T10:13:44.000Z</time>
      </trkpt>
      <trkpt lat="47.46227" lon="6.78769">
        <ele>419.5</ele>
        <time>2016-01-10T10:13:45.000Z</time>
      </trkpt>
      <trkpt lat="47.4623" lon="6.78769">
        <ele>418.8</ele>
        <time>2016-01-10T10:13:46.000Z</time>
      </trkpt>
      <trkpt lat="47.46232" lon="6.78769">
        <ele>421</ele>
        <time>2016-01-10T10:13:47.000Z</time>
      </trkpt>
      <trkpt lat="47.46236" lon="6.78767">
        <ele>422.2</ele>
        <time>2016-01-10T10:13:49.000Z</time>
      </trkpt>
      <trkpt lat="47.46237" lon="6.78765">
        <ele>423</ele>
        <time>2016-01-10T10:13:50.000Z</time>
      </trkpt>
      <trkpt lat="47.46239" lon="6.78764">
        <ele>422.8</ele>
        <time>2016-01-10T10:13:51.000Z</time>
      </trkpt>
      <trkpt lat="47.46241" lon="6.78762">
        <ele>422.9</ele>
        <time>2016-01-10T10:13:52.000Z</time>
      </trkpt>
      <trkpt lat="47.46244" lon="6.78761">
        <ele>422.8</ele>
        <time>2016-01-10T10:13:53.000Z</time>
      </trkpt>
      <trkpt lat="47.46247" lon="6.7876">
        <ele>422.6</ele>
        <time>2016-01-10T10:13:54.000Z</time>
      </trkpt>
      <trkpt lat="47.46249" lon="6.78759">
        <ele>422.3</ele>
        <time>2016-01-10T10:13:55.000Z</time>
      </trkpt>
      <trkpt lat="47.46252" lon="6.78758">
        <ele>422.7</ele>
        <time>2016-01-10T10:13:56.000Z</time>
      </trkpt>
      <trkpt lat="47.46255" lon="6.78757">
        <ele>422.8</ele>
        <time>2016-01-10T10:13:58.000Z</time>
      </trkpt>
      <trkpt lat="47.46257" lon="6.78756">
        <ele>422.5</ele>
        <time>2016-01-10T10:13:59.000Z</time>
      </trkpt>
      <trkpt lat="47.46261" lon="6.78756">
        <ele>419.9</ele>
        <time>2016-01-10T10:14:01.000Z</time>
      </trkpt>
      <trkpt lat="47.46263" lon="6.78755">
        <ele>419.9</ele>
        <time>2016-01-10T10:14:02.000Z</time>
      </trkpt>
      <trkpt lat="47.46266" lon="6.78755">
        <ele>420</ele>
        <time>2016-01-10T10:14:04.000Z</time>
      </trkpt>
      <trkpt lat="47.46268" lon="6.78755">
        <ele>421</ele>
        <time>2016-01-10T10:14:05.000Z</time>
      </trkpt>
      <trkpt lat="47.46271" lon="6.78755">
        <ele>421.7</ele>
        <time>2016-01-10T10:14:06.000Z</time>
      </trkpt>
      <trkpt lat="47.46274" lon="6.78754">
        <ele>420.7</ele>
        <time>2016-01-10T10:14:07.000Z</time>
      </trkpt>
      <trkpt lat="47.46277" lon="6.78753">
        <ele>421.2</ele>
        <time>2016-01-10T10:14:08.000Z</time>
      </trkpt>
      <trkpt lat="47.4628" lon="6.78751">
        <ele>422.2</ele>
        <time>2016-01-10T10:14:09.000Z</time>
      </trkpt>
      <trkpt lat="47.46283" lon="6.78749">
        <ele>422.4</ele>
        <time>2016-01-10T10:14:10.000Z</time>
      </trkpt>
      <trkpt lat="47.46286" lon="6.78748">
        <ele>422.6</ele>
        <time>2016-01-10T10:14:11.000Z</time>
      </trkpt>
      <trkpt lat="47.46288" lon="6.78745">
        <ele>421.2</ele>
        <time>2016-01-10T10:14:12.000Z</time>
      </trkpt>
      <trkpt lat="47.46289" lon="6.78743">
        <ele>420.8</ele>
        <time>2016-01-10T10:14:13.000Z</time>
      </trkpt>
      <trkpt lat="47.46293" lon="6.78742">
        <ele>421.6</ele>
        <time>2016-01-10T10:14:15.000Z</time>
      </trkpt>
      <trkpt lat="47.46295" lon="6.78742">
        <ele>422.7</ele>
        <time>2016-01-10T10:14:16.000Z</time>
      </trkpt>
      <trkpt lat="47.46298" lon="6.78742">
        <ele>423.1</ele>
        <time>2016-01-10T10:14:17.000Z</time>
      </trkpt>
      <trkpt lat="47.463" lon="6.78742">
        <ele>422.4</ele>
        <time>2016-01-10T10:14:18.000Z</time>
      </trkpt>
      <trkpt lat="47.46303" lon="6.7874">
        <ele>422.7</ele>
        <time>2016-01-10T10:14:20.000Z</time>
      </trkpt>
      <trkpt lat="47.46304" lon="6.78739">
        <ele>422.8</ele>
        <time>2016-01-10T10:14:21.000Z</time>
      </trkpt>
      <trkpt lat="47.46307" lon="6.78737">
        <ele>424.6</ele>
        <time>2016-01-10T10:14:23.000Z</time>
      </trkpt>
      <trkpt lat="47.46309" lon="6.78737">
        <ele>424.8</ele>
        <time>2016-01-10T10:14:24.000Z</time>
      </trkpt>
      <trkpt lat="47.46312" lon="6.78736">
        <ele>422.9</ele>
        <time>2016-01-10T10:14:26.000Z</time>
      </trkpt>
      <trkpt lat="47.46314" lon="6.78736">
        <ele>423.2</ele>
        <time>2016-01-10T10:14:27.000Z</time>
      </trkpt>
      <trkpt lat="47.46318" lon="6.78737">
        <ele>423.5</ele>
        <time>2016-01-10T10:14:29.000Z</time>
      </trkpt>
      <trkpt lat="47.4632" lon="6.78738">
        <ele>423.3</ele>
        <time>2016-01-10T10:14:30.000Z</time>
      </trkpt>
      <trkpt lat="47.46323" lon="6.78738">
        <ele>423</ele>
        <time>2016-01-10T10:14:31.000Z</time>
      </trkpt>
      <trkpt lat="47.46326" lon="6.78739">
        <ele>423.1</ele>
        <time>2016-01-10T10:14:32.000Z</time>
      </trkpt>
      <trkpt lat="47.46329" lon="6.78739">
        <ele>422.2</ele>
        <time>2016-01-10T10:14:33.000Z</time>
      </trkpt>
      <trkpt lat="47.46331" lon="6.78739">
        <ele>421.8</ele>
        <time>2016-01-10T10:14:34.000Z</time>
      </trkpt>
      <trkpt lat="47.46336" lon="6.78738">
        <ele>420.5</ele>
        <time>2016-01-10T10:14:36.000Z</time>
      </trkpt>
      <trkpt lat="47.46338" lon="6.78737">
        <ele>420.8</ele>
        <time>2016-01-10T10:14:37.000Z</time>
      </trkpt>
      <trkpt lat="47.46341" lon="6.78736">
        <ele>420.1</ele>
        <time>2016-01-10T10:14:38.000Z</time>
      </trkpt>
      <trkpt lat="47.46345" lon="6.78736">
        <ele>418.9</ele>
        <time>2016-01-10T10:14:39.000Z</time>
      </trkpt>
      <trkpt lat="47.46348" lon="6.78735">
        <ele>419.7</ele>
        <time>2016-01-10T10:14:40.000Z</time>
      </trkpt>
      <trkpt lat="47.46351" lon="6.78734">
        <ele>419.5</ele>
        <time>2016-01-10T10:14:41.000Z</time>
      </trkpt>
      <trkpt lat="47.46354" lon="6.78732">
        <ele>419.9</ele>
        <time>2016-01-10T10:14:42.000Z</time>
      </trkpt>
      <trkpt lat="47.46357" lon="6.78731">
        <ele>417.9</ele>
        <time>2016-01-10T10:14:43.000Z</time>
      </trkpt>
      <trkpt lat="47.46359" lon="6.7873">
        <ele>418.6</ele>
        <time>2016-01-10T10:14:44.000Z</time>
      </trkpt>
      <trkpt lat="47.46362" lon="6.78729">
        <ele>419.5</ele>
        <time>2016-01-10T10:14:45.000Z</time>
      </trkpt>
      <trkpt lat="47.46364" lon="6.78728">
        <ele>418.4</ele>
        <time>2016-01-10T10:14:46.000Z</time>
      </trkpt>
      <trkpt lat="47.46366" lon="6.78727">
        <ele>418.6</ele>
        <time>2016-01-10T10:14:47.000Z</time>
      </trkpt>
      <trkpt lat="47.46369" lon="6.78723">
        <ele>424.3</ele>
        <time>2016-01-10T10:14:49.000Z</time>
      </trkpt>
      <trkpt lat="47.46371" lon="6.78721">
        <ele>424.9</ele>
        <time>2016-01-10T10:14:50.000Z</time>
      </trkpt>
      <trkpt lat="47.46375" lon="6.78718">
        <ele>424.3</ele>
        <time>2016-01-10T10:14:52.000Z</time>
      </trkpt>
      <trkpt lat="47.46377" lon="6.78717">
        <ele>424.4</ele>
        <time>2016-01-10T10:14:53.000Z</time>
      </trkpt>
      <trkpt lat="47.46381" lon="6.78717">
        <ele>421.8</ele>
        <time>2016-01-10T10:14:55.000Z</time>
      </trkpt>
      <trkpt lat="47.46384" lon="6.78717">
        <ele>421.1</ele>
        <time>2016-01-10T10:14:56.000Z</time>
      </trkpt>
      <trkpt lat="47.46386" lon="6.78717">
        <ele>421.3</ele>
        <time>2016-01-10T10:14:57.000Z</time>
      </trkpt>
      <trkpt lat="47.46389" lon="6.78716">
        <ele>421.3</ele>
        <time>2016-01-10T10:14:58.000Z</time>
      </trkpt>
      <trkpt lat="47.46391" lon="6.78716">
        <ele>422.2</ele>
        <time>2016-01-10T10:14:59.000Z</time>
      </trkpt>
      <trkpt lat="47.46394" lon="6.78715">
        <ele>422.5</ele>
        <time>2016-01-10T10:15:00.000Z</time>
      </trkpt>
      <trkpt lat="47.46397" lon="6.78714">
        <ele>422.2</ele>
        <time>2016-01-10T10:15:01.000Z</time>
      </trkpt>
      <trkpt lat="47.464" lon="6.78714">
        <ele>422.2</ele>
        <time>2016-01-10T10:15:02.000Z</time>
      </trkpt>
      <trkpt lat="47.46403" lon="6.78713">
        <ele>421.9</ele>
        <time>2016-01-10T10:15:03.000Z</time>
      </trkpt>
      <trkpt lat="47.46406" lon="6.78713">
        <ele>418.1</ele>
        <time>2016-01-10T10:15:04.000Z</time>
      </trkpt>
      <trkpt lat="47.46409" lon="6.78713">
        <ele>417.3</ele>
        <time>2016-01-10T10:15:05.000Z</time>
      </trkpt>
      <trkpt lat="47.46412" lon="6.78713">
        <ele>417.4</ele>
        <time>2016-01-10T10:15:06.000Z</time>
      </trkpt>
      <trkpt lat="47.46416" lon="6.78711">
        <ele>419</ele>
        <time>2016-01-10T10:15:08.000Z</time>
      </trkpt>
      <trkpt lat="47.46417" lon="6.78709">
        <ele>418.4</ele>
        <time>2016-01-10T10:15:09.000Z</time>
      </trkpt>
      <trkpt lat="47.46419" lon="6.78703">
        <ele>418.7</ele>
        <time>2016-01-10T10:15:12.000Z</time>
      </trkpt>
      <trkpt lat="47.46419" lon="6.78701">
        <ele>418.7</ele>
        <time>2016-01-10T10:15:13.000Z</time>
      </trkpt>
      <trkpt lat="47.46419" lon="6.78695">
        <ele>420.3</ele>
        <time>2016-01-10T10:15:16.000Z</time>
      </trkpt>
      <trkpt lat="47.46419" lon="6.78693">
        <ele>420.8</ele>
        <time>2016-01-10T10:15:17.000Z</time>
      </trkpt>
      <trkpt lat="47.46418" lon="6.78689">
        <ele>420.1</ele>
        <time>2016-01-10T10:15:19.000Z</time>
      </trkpt>
      <trkpt lat="47.46418" lon="6.78686">
        <ele>420</ele>
        <time>2016-01-10T10:15:20.000Z</time>
      </trkpt>
      <trkpt lat="47.46417" lon="6.7868">
        <ele>421</ele>
        <time>2016-01-10T10:15:22.000Z</time>
      </trkpt>
      <trkpt lat="47.46416" lon="6.78676">
        <ele>421.1</ele>
        <time>2016-01-10T10:15:23.000Z</time>
      </trkpt>
      <trkpt lat="47.46415" lon="6.78673">
        <ele>420.9</ele>
        <time>2016-01-10T10:15:24.000Z</time>
      </trkpt>
      <trkpt lat="47.46414" lon="6.78669">
        <ele>420.1</ele>
        <time>2016-01-10T10:15:25.000Z</time>
      </trkpt>
      <trkpt lat="47.46413" lon="6.78666">
        <ele>420.3</ele>
        <time>2016-01-10T10:15:26.000Z</time>
      </trkpt>
      <trkpt lat="47.46412" lon="6.78662">
        <ele>420</ele>
        <time>2016-01-10T10:15:27.000Z</time>
      </trkpt>
      <trkpt lat="47.46411" lon="6.78659">
        <ele>420.4</ele>
        <time>2016-01-10T10:15:28.000Z</time>
      </trkpt>
      <trkpt lat="47.4641" lon="6.78655">
        <ele>419.7</ele>
        <time>2016-01-10T10:15:29.000Z</time>
      </trkpt>
      <trkpt lat="47.46409" lon="6.78652">
        <ele>418.5</ele>
        <time>2016-01-10T10:15:30.000Z</time>
      </trkpt>
      <trkpt lat="47.46409" lon="6.78648">
        <ele>418.9</ele>
        <time>2016-01-10T10:15:31.000Z</time>
      </trkpt>
      <trkpt lat="47.46408" lon="6.78643">
        <ele>419.3</ele>
        <time>2016-01-10T10:15:32.000Z</time>
      </trkpt>
      <trkpt lat="47.46406" lon="6.78639">
        <ele>417.7</ele>
        <time>2016-01-10T10:15:33.000Z</time>
      </trkpt>
      <trkpt lat="47.46405" lon="6.78633">
        <ele>417</ele>
        <time>2016-01-10T10:15:34.000Z</time>
      </trkpt>
      <trkpt lat="47.46403" lon="6.78628">
        <ele>416.3</ele>
        <time>2016-01-10T10:15:35.000Z</time>
      </trkpt>
      <trkpt lat="47.46402" lon="6.78622">
        <ele>415.5</ele>
        <time>2016-01-10T10:15:36.000Z</time>
      </trkpt>
      <trkpt lat="47.464" lon="6.78616">
        <ele>415.6</ele>
        <time>2016-01-10T10:15:37.000Z</time>
      </trkpt>
      <trkpt lat="47.46399" lon="6.78611">
        <ele>415.6</ele>
        <time>2016-01-10T10:15:38.000Z</time>
      </trkpt>
      <trkpt lat="47.46397" lon="6.78606">
        <ele>415.3</ele>
        <time>2016-01-10T10:15:39.000Z</time>
      </trkpt>
      <trkpt lat="47.46396" lon="6.78601">
        <ele>415</ele>
        <time>2016-01-10T10:15:40.000Z</time>
      </trkpt>
      <trkpt lat="47.46394" lon="6.78597">
        <ele>415.8</ele>
        <time>2016-01-10T10:15:41.000Z</time>
      </trkpt>
      <trkpt lat="47.46393" lon="6.78592">
        <ele>415.6</ele>
        <time>2016-01-10T10:15:42.000Z</time>
      </trkpt>
      <trkpt lat="47.46392" lon="6.78587">
        <ele>415.8</ele>
        <time>2016-01-10T10:15:43.000Z</time>
      </trkpt>
      <trkpt lat="47.46391" lon="6.78583">
        <ele>415.4</ele>
        <time>2016-01-10T10:15:44.000Z</time>
      </trkpt>
      <trkpt lat="47.46389" lon="6.78579">
        <ele>415.6</ele>
        <time>2016-01-10T10:15:45.000Z</time>
      </trkpt>
      <trkpt lat="47.46388" lon="6.78576">
        <ele>415.2</ele>
        <time>2016-01-10T10:15:46.000Z</time>
      </trkpt>
      <trkpt lat="47.46388" lon="6.78572">
        <ele>415.1</ele>
        <time>2016-01-10T10:15:47.000Z</time>
      </trkpt>
      <trkpt lat="47.46387" lon="6.78568">
        <ele>415.4</ele>
        <time>2016-01-10T10:15:48.000Z</time>
      </trkpt>
      <trkpt lat="47.46387" lon="6.78564">
        <ele>414.8</ele>
        <time>2016-01-10T10:15:49.000Z</time>
      </trkpt>
      <trkpt lat="47.46387" lon="6.78558">
        <ele>415.5</ele>
        <time>2016-01-10T10:15:50.000Z</time>
      </trkpt>
      <trkpt lat="47.46386" lon="6.78552">
        <ele>414.7</ele>
        <time>2016-01-10T10:15:51.000Z</time>
      </trkpt>
      <trkpt lat="47.46385" lon="6.78546">
        <ele>414.2</ele>
        <time>2016-01-10T10:15:52.000Z</time>
      </trkpt>
      <trkpt lat="47.46384" lon="6.78539">
        <ele>414</ele>
        <time>2016-01-10T10:15:53.000Z</time>
      </trkpt>
      <trkpt lat="47.46383" lon="6.78533">
        <ele>414</ele>
        <time>2016-01-10T10:15:54.000Z</time>
      </trkpt>
      <trkpt lat="47.46382" lon="6.78527">
        <ele>413.2</ele>
        <time>2016-01-10T10:15:55.000Z</time>
      </trkpt>
      <trkpt lat="47.46381" lon="6.7852">
        <ele>412.6</ele>
        <time>2016-01-10T10:15:56.000Z</time>
      </trkpt>
      <trkpt lat="47.46381" lon="6.78513">
        <ele>411.8</ele>
        <time>2016-01-10T10:15:57.000Z</time>
      </trkpt>
      <trkpt lat="47.46381" lon="6.78506">
        <ele>411.4</ele>
        <time>2016-01-10T10:15:58.000Z</time>
      </trkpt>
      <trkpt lat="47.46383" lon="6.78491">
        <ele>408.3</ele>
        <time>2016-01-10T10:15:59.000Z</time>
      </trkpt>
      <trkpt lat="47.46384" lon="6.78484">
        <ele>407.7</ele>
        <time>2016-01-10T10:16:00.000Z</time>
      </trkpt>
      <trkpt lat="47.46383" lon="6.78477">
        <ele>406.7</ele>
        <time>2016-01-10T10:16:01.000Z</time>
      </trkpt>
      <trkpt lat="47.46383" lon="6.78469">
        <ele>406</ele>
        <time>2016-01-10T10:16:02.000Z</time>
      </trkpt>
      <trkpt lat="47.46382" lon="6.78463">
        <ele>406</ele>
        <time>2016-01-10T10:16:03.000Z</time>
      </trkpt>
      <trkpt lat="47.46381" lon="6.78458">
        <ele>405.8</ele>
        <time>2016-01-10T10:16:04.000Z</time>
      </trkpt>
      <trkpt lat="47.4638" lon="6.78453">
        <ele>405.5</ele>
        <time>2016-01-10T10:16:05.000Z</time>
      </trkpt>
      <trkpt lat="47.46379" lon="6.78448">
        <ele>404.9</ele>
        <time>2016-01-10T10:16:06.000Z</time>
      </trkpt>
      <trkpt lat="47.46377" lon="6.78442">
        <ele>404.1</ele>
        <time>2016-01-10T10:16:08.000Z</time>
      </trkpt>
      <trkpt lat="47.46377" lon="6.78441">
        <ele>403.7</ele>
        <time>2016-01-10T10:16:09.000Z</time>
      </trkpt>
      <trkpt lat="47.46379" lon="6.78439">
        <ele>402.2</ele>
        <time>2016-01-10T10:16:29.000Z</time>
      </trkpt>
      <trkpt lat="47.4638" lon="6.78435">
        <ele>401.9</ele>
        <time>2016-01-10T10:16:30.000Z</time>
      </trkpt>
      <trkpt lat="47.46381" lon="6.78432">
        <ele>401.8</ele>
        <time>2016-01-10T10:16:31.000Z</time>
      </trkpt>
      <trkpt lat="47.46382" lon="6.78429">
        <ele>401.2</ele>
        <time>2016-01-10T10:16:32.000Z</time>
      </trkpt>
      <trkpt lat="47.46382" lon="6.78424">
        <ele>400.9</ele>
        <time>2016-01-10T10:16:33.000Z</time>
      </trkpt>
      <trkpt lat="47.46383" lon="6.7842">
        <ele>400.5</ele>
        <time>2016-01-10T10:16:34.000Z</time>
      </trkpt>
      <trkpt lat="47.46383" lon="6.78416">
        <ele>400.2</ele>
        <time>2016-01-10T10:16:35.000Z</time>
      </trkpt>
      <trkpt lat="47.46383" lon="6.78412">
        <ele>399.9</ele>
        <time>2016-01-10T10:16:36.000Z</time>
      </trkpt>
      <trkpt lat="47.46382" lon="6.78406">
        <ele>397.5</ele>
        <time>2016-01-10T10:16:37.000Z</time>
      </trkpt>
      <trkpt lat="47.46383" lon="6.784">
        <ele>397.2</ele>
        <time>2016-01-10T10:16:38.000Z</time>
      </trkpt>
      <trkpt lat="47.46383" lon="6.78393">
        <ele>396</ele>
        <time>2016-01-10T10:16:39.000Z</time>
      </trkpt>
      <trkpt lat="47.46385" lon="6.78388">
        <ele>395</ele>
        <time>2016-01-10T10:16:40.000Z</time>
      </trkpt>
      <trkpt lat="47.46386" lon="6.78384">
        <ele>394.3</ele>
        <time>2016-01-10T10:16:41.000Z</time>
      </trkpt>
      <trkpt lat="47.46388" lon="6.7838">
        <ele>394</ele>
        <time>2016-01-10T10:16:42.000Z</time>
      </trkpt>
      <trkpt lat="47.4639" lon="6.78377">
        <ele>393.4</ele>
        <time>2016-01-10T10:16:43.000Z</time>
      </trkpt>
      <trkpt lat="47.46393" lon="6.78375">
        <ele>393.3</ele>
        <time>2016-01-10T10:16:44.000Z</time>
      </trkpt>
      <trkpt lat="47.46395" lon="6.78373">
        <ele>393.6</ele>
        <time>2016-01-10T10:16:45.000Z</time>
      </trkpt>
      <trkpt lat="47.46397" lon="6.7837">
        <ele>392.7</ele>
        <time>2016-01-10T10:16:46.000Z</time>
      </trkpt>
      <trkpt lat="47.464" lon="6.78368">
        <ele>392.6</ele>
        <time>2016-01-10T10:16:47.000Z</time>
      </trkpt>
      <trkpt lat="47.46402" lon="6.78365">
        <ele>392.1</ele>
        <time>2016-01-10T10:16:48.000Z</time>
      </trkpt>
      <trkpt lat="47.46404" lon="6.78361">
        <ele>391.8</ele>
        <time>2016-01-10T10:16:49.000Z</time>
      </trkpt>
      <trkpt lat="47.46406" lon="6.78359">
        <ele>390.6</ele>
        <time>2016-01-10T10:16:50.000Z</time>
      </trkpt>
      <trkpt lat="47.46408" lon="6.78356">
        <ele>390.3</ele>
        <time>2016-01-10T10:16:51.000Z</time>
      </trkpt>
      <trkpt lat="47.4641" lon="6.78354">
        <ele>390.4</ele>
        <time>2016-01-10T10:16:52.000Z</time>
      </trkpt>
      <trkpt lat="47.46412" lon="6.78352">
        <ele>390.2</ele>
        <time>2016-01-10T10:16:53.000Z</time>
      </trkpt>
      <trkpt lat="47.46414" lon="6.7835">
        <ele>390.2</ele>
        <time>2016-01-10T10:16:54.000Z</time>
      </trkpt>
      <trkpt lat="47.46416" lon="6.78348">
        <ele>390.3</ele>
        <time>2016-01-10T10:16:55.000Z</time>
      </trkpt>
      <trkpt lat="47.46419" lon="6.78346">
        <ele>388.3</ele>
        <time>2016-01-10T10:16:56.000Z</time>
      </trkpt>
      <trkpt lat="47.46422" lon="6.78343">
        <ele>387.3</ele>
        <time>2016-01-10T10:16:57.000Z</time>
      </trkpt>
      <trkpt lat="47.46425" lon="6.7834">
        <ele>387</ele>
        <time>2016-01-10T10:16:58.000Z</time>
      </trkpt>
      <trkpt lat="47.46428" lon="6.78337">
        <ele>386.5</ele>
        <time>2016-01-10T10:16:59.000Z</time>
      </trkpt>
      <trkpt lat="47.46432" lon="6.78333">
        <ele>385.8</ele>
        <time>2016-01-10T10:17:00.000Z</time>
      </trkpt>
      <trkpt lat="47.46435" lon="6.78329">
        <ele>385.1</ele>
        <time>2016-01-10T10:17:01.000Z</time>
      </trkpt>
      <trkpt lat="47.46438" lon="6.78326">
        <ele>384.6</ele>
        <time>2016-01-10T10:17:02.000Z</time>
      </trkpt>
      <trkpt lat="47.46442" lon="6.78322">
        <ele>383.8</ele>
        <time>2016-01-10T10:17:03.000Z</time>
      </trkpt>
      <trkpt lat="47.46445" lon="6.78319">
        <ele>383.3</ele>
        <time>2016-01-10T10:17:04.000Z</time>
      </trkpt>
      <trkpt lat="47.46448" lon="6.78315">
        <ele>383.3</ele>
        <time>2016-01-10T10:17:05.000Z</time>
      </trkpt>
      <trkpt lat="47.46451" lon="6.78311">
        <ele>383.1</ele>
        <time>2016-01-10T10:17:06.000Z</time>
      </trkpt>
      <trkpt lat="47.46452" lon="6.78307">
        <ele>383.2</ele>
        <time>2016-01-10T10:17:07.000Z</time>
      </trkpt>
      <trkpt lat="47.46453" lon="6.78304">
        <ele>383.2</ele>
        <time>2016-01-10T10:17:08.000Z</time>
      </trkpt>
      <trkpt lat="47.46451" lon="6.783">
        <ele>383.8</ele>
        <time>2016-01-10T10:17:10.000Z</time>
      </trkpt>
      <trkpt lat="47.46449" lon="6.78299">
        <ele>383.9</ele>
        <time>2016-01-10T10:17:11.000Z</time>
      </trkpt>
      <trkpt lat="47.46446" lon="6.78297">
        <ele>383.2</ele>
        <time>2016-01-10T10:17:13.000Z</time>
      </trkpt>
      <trkpt lat="47.46445" lon="6.78296">
        <ele>383</ele>
        <time>2016-01-10T10:17:14.000Z</time>
      </trkpt>
      <trkpt lat="47.46443" lon="6.78293">
        <ele>382.3</ele>
        <time>2016-01-10T10:17:16.000Z</time>
      </trkpt>
      <trkpt lat="47.46441" lon="6.78291">
        <ele>381.9</ele>
        <time>2016-01-10T10:17:17.000Z</time>
      </trkpt>
      <trkpt lat="47.46438" lon="6.78287">
        <ele>381.7</ele>
        <time>2016-01-10T10:17:19.000Z</time>
      </trkpt>
      <trkpt lat="47.46436" lon="6.78284">
        <ele>381.8</ele>
        <time>2016-01-10T10:17:20.000Z</time>
      </trkpt>
      <trkpt lat="47.46433" lon="6.78281">
        <ele>381.8</ele>
        <time>2016-01-10T10:17:22.000Z</time>
      </trkpt>
      <trkpt lat="47.46432" lon="6.7828">
        <ele>382.1</ele>
        <time>2016-01-10T10:17:23.000Z</time>
      </trkpt>
      <trkpt lat="47.46428" lon="6.7828">
        <ele>382</ele>
        <time>2016-01-10T10:17:26.000Z</time>
      </trkpt>
      <trkpt lat="47.46427" lon="6.7828">
        <ele>382.3</ele>
        <time>2016-01-10T10:17:27.000Z</time>
      </trkpt>
      <trkpt lat="47.46422" lon="6.78279">
        <ele>382</ele>
        <time>2016-01-10T10:17:30.000Z</time>
      </trkpt>
      <trkpt lat="47.46421" lon="6.7828">
        <ele>382.3</ele>
        <time>2016-01-10T10:17:31.000Z</time>
      </trkpt>
      <trkpt lat="47.46418" lon="6.7828">
        <ele>382.7</ele>
        <time>2016-01-10T10:17:33.000Z</time>
      </trkpt>
      <trkpt lat="47.46416" lon="6.7828">
        <ele>383.6</ele>
        <time>2016-01-10T10:17:34.000Z</time>
      </trkpt>
      <trkpt lat="47.46413" lon="6.7828">
        <ele>383.5</ele>
        <time>2016-01-10T10:17:36.000Z</time>
      </trkpt>
      <trkpt lat="47.46412" lon="6.7828">
        <ele>383.5</ele>
        <time>2016-01-10T10:17:37.000Z</time>
      </trkpt>
      <trkpt lat="47.46408" lon="6.7828">
        <ele>382.8</ele>
        <time>2016-01-10T10:17:39.000Z</time>
      </trkpt>
      <trkpt lat="47.46406" lon="6.7828">
        <ele>383.1</ele>
        <time>2016-01-10T10:17:40.000Z</time>
      </trkpt>
      <trkpt lat="47.46405" lon="6.78278">
        <ele>382</ele>
        <time>2016-01-10T10:17:41.000Z</time>
      </trkpt>
      <trkpt lat="47.46403" lon="6.78274">
        <ele>381.2</ele>
        <time>2016-01-10T10:17:42.000Z</time>
      </trkpt>
      <trkpt lat="47.464" lon="6.7827">
        <ele>382.4</ele>
        <time>2016-01-10T10:17:44.000Z</time>
      </trkpt>
      <trkpt lat="47.46398" lon="6.7827">
        <ele>382.4</ele>
        <time>2016-01-10T10:17:45.000Z</time>
      </trkpt>
      <trkpt lat="47.46394" lon="6.78271">
        <ele>384.1</ele>
        <time>2016-01-10T10:17:47.000Z</time>
      </trkpt>
      <trkpt lat="47.46393" lon="6.78272">
        <ele>384.6</ele>
        <time>2016-01-10T10:17:48.000Z</time>
      </trkpt>
      <trkpt lat="47.46389" lon="6.78273">
        <ele>384.1</ele>
        <time>2016-01-10T10:17:50.000Z</time>
      </trkpt>
      <trkpt lat="47.46387" lon="6.78273">
        <ele>384.1</ele>
        <time>2016-01-10T10:17:51.000Z</time>
      </trkpt>
      <trkpt lat="47.46384" lon="6.78271">
        <ele>384.4</ele>
        <time>2016-01-10T10:17:52.000Z</time>
      </trkpt>
      <trkpt lat="47.46382" lon="6.78271">
        <ele>384.8</ele>
        <time>2016-01-10T10:17:53.000Z</time>
      </trkpt>
      <trkpt lat="47.46377" lon="6.7827">
        <ele>383.2</ele>
        <time>2016-01-10T10:17:55.000Z</time>
      </trkpt>
      <trkpt lat="47.46375" lon="6.78271">
        <ele>384.2</ele>
        <time>2016-01-10T10:17:56.000Z</time>
      </trkpt>
      <trkpt lat="47.46373" lon="6.78271">
        <ele>384.3</ele>
        <time>2016-01-10T10:17:57.000Z</time>
      </trkpt>
      <trkpt lat="47.4637" lon="6.78272">
        <ele>384.5</ele>
        <time>2016-01-10T10:17:58.000Z</time>
      </trkpt>
      <trkpt lat="47.46368" lon="6.78273">
        <ele>384.9</ele>
        <time>2016-01-10T10:17:59.000Z</time>
      </trkpt>
      <trkpt lat="47.46365" lon="6.78274">
        <ele>384.5</ele>
        <time>2016-01-10T10:18:00.000Z</time>
      </trkpt>
      <trkpt lat="47.46363" lon="6.78275">
        <ele>384.7</ele>
        <time>2016-01-10T10:18:01.000Z</time>
      </trkpt>
      <trkpt lat="47.4636" lon="6.78276">
        <ele>386.1</ele>
        <time>2016-01-10T10:18:02.000Z</time>
      </trkpt>
      <trkpt lat="47.46358" lon="6.78277">
        <ele>385.6</ele>
        <time>2016-01-10T10:18:03.000Z</time>
      </trkpt>
      <trkpt lat="47.46356" lon="6.78278">
        <ele>385.9</ele>
        <time>2016-01-10T10:18:04.000Z</time>
      </trkpt>
      <trkpt lat="47.46353" lon="6.78278">
        <ele>385.4</ele>
        <time>2016-01-10T10:18:05.000Z</time>
      </trkpt>
      <trkpt lat="47.46351" lon="6.78279">
        <ele>385.8</ele>
        <time>2016-01-10T10:18:06.000Z</time>
      </trkpt>
      <trkpt lat="47.46349" lon="6.78279">
        <ele>385.4</ele>
        <time>2016-01-10T10:18:07.000Z</time>
      </trkpt>
      <trkpt lat="47.46347" lon="6.7828">
        <ele>385.4</ele>
        <time>2016-01-10T10:18:08.000Z</time>
      </trkpt>
      <trkpt lat="47.46344" lon="6.78281">
        <ele>385.3</ele>
        <time>2016-01-10T10:18:09.000Z</time>
      </trkpt>
      <trkpt lat="47.46342" lon="6.78281">
        <ele>385.4</ele>
        <time>2016-01-10T10:18:10.000Z</time>
      </trkpt>
      <trkpt lat="47.46338" lon="6.78282">
        <ele>384.4</ele>
        <time>2016-01-10T10:18:12.000Z</time>
      </trkpt>
      <trkpt lat="47.46336" lon="6.78282">
        <ele>384.1</ele>
        <time>2016-01-10T10:18:13.000Z</time>
      </trkpt>
      <trkpt lat="47.46332" lon="6.78282">
        <ele>384.3</ele>
        <time>2016-01-10T10:18:15.000Z</time>
      </trkpt>
      <trkpt lat="47.4633" lon="6.78283">
        <ele>384.5</ele>
        <time>2016-01-10T10:18:16.000Z</time>
      </trkpt>
      <trkpt lat="47.46327" lon="6.78283">
        <ele>384.7</ele>
        <time>2016-01-10T10:18:17.000Z</time>
      </trkpt>
      <trkpt lat="47.46325" lon="6.78284">
        <ele>384.8</ele>
        <time>2016-01-10T10:18:18.000Z</time>
      </trkpt>
      <trkpt lat="47.46322" lon="6.78284">
        <ele>384.6</ele>
        <time>2016-01-10T10:18:19.000Z</time>
      </trkpt>
      <trkpt lat="47.4632" lon="6.78285">
        <ele>384.7</ele>
        <time>2016-01-10T10:18:20.000Z</time>
      </trkpt>
      <trkpt lat="47.46318" lon="6.78285">
        <ele>384.6</ele>
        <time>2016-01-10T10:18:21.000Z</time>
      </trkpt>
      <trkpt lat="47.46315" lon="6.78285">
        <ele>385.2</ele>
        <time>2016-01-10T10:18:22.000Z</time>
      </trkpt>
      <trkpt lat="47.46313" lon="6.78286">
        <ele>385.3</ele>
        <time>2016-01-10T10:18:23.000Z</time>
      </trkpt>
      <trkpt lat="47.4631" lon="6.78287">
        <ele>385.9</ele>
        <time>2016-01-10T10:18:24.000Z</time>
      </trkpt>
      <trkpt lat="47.46308" lon="6.78287">
        <ele>385.9</ele>
        <time>2016-01-10T10:18:25.000Z</time>
      </trkpt>
      <trkpt lat="47.46305" lon="6.78288">
        <ele>386</ele>
        <time>2016-01-10T10:18:26.000Z</time>
      </trkpt>
      <trkpt lat="47.46303" lon="6.78288">
        <ele>386</ele>
        <time>2016-01-10T10:18:27.000Z</time>
      </trkpt>
      <trkpt lat="47.463" lon="6.78289">
        <ele>386.2</ele>
        <time>2016-01-10T10:18:28.000Z</time>
      </trkpt>
      <trkpt lat="47.46298" lon="6.7829">
        <ele>386.3</ele>
        <time>2016-01-10T10:18:29.000Z</time>
      </trkpt>
      <trkpt lat="47.46295" lon="6.7829">
        <ele>386.7</ele>
        <time>2016-01-10T10:18:30.000Z</time>
      </trkpt>
      <trkpt lat="47.46293" lon="6.78291">
        <ele>387</ele>
        <time>2016-01-10T10:18:31.000Z</time>
      </trkpt>
      <trkpt lat="47.4629" lon="6.78292">
        <ele>387.9</ele>
        <time>2016-01-10T10:18:32.000Z</time>
      </trkpt>
      <trkpt lat="47.46286" lon="6.78293">
        <ele>389</ele>
        <time>2016-01-10T10:18:34.000Z</time>
      </trkpt>
      <trkpt lat="47.46284" lon="6.78294">
        <ele>389</ele>
        <time>2016-01-10T10:18:35.000Z</time>
      </trkpt>
      <trkpt lat="47.46282" lon="6.78295">
        <ele>388.5</ele>
        <time>2016-01-10T10:18:36.000Z</time>
      </trkpt>
      <trkpt lat="47.46279" lon="6.78295">
        <ele>388.9</ele>
        <time>2016-01-10T10:18:37.000Z</time>
      </trkpt>
      <trkpt lat="47.46277" lon="6.78296">
        <ele>389.4</ele>
        <time>2016-01-10T10:18:38.000Z</time>
      </trkpt>
      <trkpt lat="47.46275" lon="6.78297">
        <ele>389.6</ele>
        <time>2016-01-10T10:18:39.000Z</time>
      </trkpt>
      <trkpt lat="47.46272" lon="6.78297">
        <ele>390.1</ele>
        <time>2016-01-10T10:18:40.000Z</time>
      </trkpt>
      <trkpt lat="47.46269" lon="6.78298">
        <ele>390.6</ele>
        <time>2016-01-10T10:18:41.000Z</time>
      </trkpt>
      <trkpt lat="47.46266" lon="6.78298">
        <ele>390.8</ele>
        <time>2016-01-10T10:18:42.000Z</time>
      </trkpt>
      <trkpt lat="47.46263" lon="6.78299">
        <ele>391.1</ele>
        <time>2016-01-10T10:18:43.000Z</time>
      </trkpt>
      <trkpt lat="47.4626" lon="6.783">
        <ele>391.3</ele>
        <time>2016-01-10T10:18:44.000Z</time>
      </trkpt>
      <trkpt lat="47.46256" lon="6.783">
        <ele>389.8</ele>
        <time>2016-01-10T10:18:45.000Z</time>
      </trkpt>
      <trkpt lat="47.46253" lon="6.78299">
        <ele>390</ele>
        <time>2016-01-10T10:18:46.000Z</time>
      </trkpt>
      <trkpt lat="47.46249" lon="6.78299">
        <ele>390.4</ele>
        <time>2016-01-10T10:18:47.000Z</time>
      </trkpt>
      <trkpt lat="47.46246" lon="6.78299">
        <ele>391.3</ele>
        <time>2016-01-10T10:18:48.000Z</time>
      </trkpt>
      <trkpt lat="47.46243" lon="6.783">
        <ele>391.4</ele>
        <time>2016-01-10T10:18:49.000Z</time>
      </trkpt>
      <trkpt lat="47.4624" lon="6.783">
        <ele>391.6</ele>
        <time>2016-01-10T10:18:50.000Z</time>
      </trkpt>
      <trkpt lat="47.46237" lon="6.78302">
        <ele>393.3</ele>
        <time>2016-01-10T10:18:51.000Z</time>
      </trkpt>
      <trkpt lat="47.46234" lon="6.78303">
        <ele>394.3</ele>
        <time>2016-01-10T10:18:52.000Z</time>
      </trkpt>
      <trkpt lat="47.46231" lon="6.78304">
        <ele>394.1</ele>
        <time>2016-01-10T10:18:53.000Z</time>
      </trkpt>
      <trkpt lat="47.46229" lon="6.78305">
        <ele>394.7</ele>
        <time>2016-01-10T10:18:54.000Z</time>
      </trkpt>
      <trkpt lat="47.46226" lon="6.78306">
        <ele>394.5</ele>
        <time>2016-01-10T10:18:55.000Z</time>
      </trkpt>
      <trkpt lat="47.46223" lon="6.78306">
        <ele>395.3</ele>
        <time>2016-01-10T10:18:56.000Z</time>
      </trkpt>
      <trkpt lat="47.4622" lon="6.78306">
        <ele>395.3</ele>
        <time>2016-01-10T10:18:57.000Z</time>
      </trkpt>
      <trkpt lat="47.46217" lon="6.78306">
        <ele>395.3</ele>
        <time>2016-01-10T10:18:58.000Z</time>
      </trkpt>
      <trkpt lat="47.46214" lon="6.78306">
        <ele>395.5</ele>
        <time>2016-01-10T10:18:59.000Z</time>
      </trkpt>
      <trkpt lat="47.46212" lon="6.78307">
        <ele>396.4</ele>
        <time>2016-01-10T10:19:00.000Z</time>
      </trkpt>
      <trkpt lat="47.46209" lon="6.78307">
        <ele>395.7</ele>
        <time>2016-01-10T10:19:01.000Z</time>
      </trkpt>
      <trkpt lat="47.46207" lon="6.78308">
        <ele>395.4</ele>
        <time>2016-01-10T10:19:02.000Z</time>
      </trkpt>
      <trkpt lat="47.46204" lon="6.78308">
        <ele>395.2</ele>
        <time>2016-01-10T10:19:03.000Z</time>
      </trkpt>
      <trkpt lat="47.46202" lon="6.78308">
        <ele>395.9</ele>
        <time>2016-01-10T10:19:04.000Z</time>
      </trkpt>
      <trkpt lat="47.46199" lon="6.78308">
        <ele>396.3</ele>
        <time>2016-01-10T10:19:05.000Z</time>
      </trkpt>
      <trkpt lat="47.46197" lon="6.78308">
        <ele>396.5</ele>
        <time>2016-01-10T10:19:06.000Z</time>
      </trkpt>
      <trkpt lat="47.46194" lon="6.78308">
        <ele>396.7</ele>
        <time>2016-01-10T10:19:07.000Z</time>
      </trkpt>
      <trkpt lat="47.46192" lon="6.78309">
        <ele>396.8</ele>
        <time>2016-01-10T10:19:08.000Z</time>
      </trkpt>
      <trkpt lat="47.46189" lon="6.78309">
        <ele>397.2</ele>
        <time>2016-01-10T10:19:09.000Z</time>
      </trkpt>
      <trkpt lat="47.46187" lon="6.7831">
        <ele>397.9</ele>
        <time>2016-01-10T10:19:10.000Z</time>
      </trkpt>
      <trkpt lat="47.46184" lon="6.7831">
        <ele>398</ele>
        <time>2016-01-10T10:19:11.000Z</time>
      </trkpt>
      <trkpt lat="47.46181" lon="6.78311">
        <ele>398.1</ele>
        <time>2016-01-10T10:19:12.000Z</time>
      </trkpt>
      <trkpt lat="47.46179" lon="6.78311">
        <ele>398.8</ele>
        <time>2016-01-10T10:19:13.000Z</time>
      </trkpt>
      <trkpt lat="47.46176" lon="6.78312">
        <ele>399.1</ele>
        <time>2016-01-10T10:19:14.000Z</time>
      </trkpt>
      <trkpt lat="47.46173" lon="6.78312">
        <ele>399.3</ele>
        <time>2016-01-10T10:19:15.000Z</time>
      </trkpt>
      <trkpt lat="47.46171" lon="6.78313">
        <ele>399.7</ele>
        <time>2016-01-10T10:19:16.000Z</time>
      </trkpt>
      <trkpt lat="47.46168" lon="6.78313">
        <ele>400.1</ele>
        <time>2016-01-10T10:19:17.000Z</time>
      </trkpt>
      <trkpt lat="47.46165" lon="6.78314">
        <ele>400.3</ele>
        <time>2016-01-10T10:19:18.000Z</time>
      </trkpt>
      <trkpt lat="47.46162" lon="6.78314">
        <ele>400.3</ele>
        <time>2016-01-10T10:19:19.000Z</time>
      </trkpt>
      <trkpt lat="47.46159" lon="6.78314">
        <ele>399.8</ele>
        <time>2016-01-10T10:19:20.000Z</time>
      </trkpt>
      <trkpt lat="47.46156" lon="6.78315">
        <ele>400</ele>
        <time>2016-01-10T10:19:21.000Z</time>
      </trkpt>
      <trkpt lat="47.46154" lon="6.78315">
        <ele>403</ele>
        <time>2016-01-10T10:19:22.000Z</time>
      </trkpt>
      <trkpt lat="47.46151" lon="6.78315">
        <ele>404</ele>
        <time>2016-01-10T10:19:23.000Z</time>
      </trkpt>
      <trkpt lat="47.46148" lon="6.78315">
        <ele>404.7</ele>
        <time>2016-01-10T10:19:24.000Z</time>
      </trkpt>
      <trkpt lat="47.46146" lon="6.78315">
        <ele>404.1</ele>
        <time>2016-01-10T10:19:25.000Z</time>
      </trkpt>
      <trkpt lat="47.46143" lon="6.78315">
        <ele>404.7</ele>
        <time>2016-01-10T10:19:26.000Z</time>
      </trkpt>
      <trkpt lat="47.4614" lon="6.78316">
        <ele>404.8</ele>
        <time>2016-01-10T10:19:27.000Z</time>
      </trkpt>
      <trkpt lat="47.46137" lon="6.78316">
        <ele>404.8</ele>
        <time>2016-01-10T10:19:28.000Z</time>
      </trkpt>
      <trkpt lat="47.46134" lon="6.78317">
        <ele>404.6</ele>
        <time>2016-01-10T10:19:29.000Z</time>
      </trkpt>
      <trkpt lat="47.46131" lon="6.78317">
        <ele>404.9</ele>
        <time>2016-01-10T10:19:30.000Z</time>
      </trkpt>
      <trkpt lat="47.46128" lon="6.78318">
        <ele>404.2</ele>
        <time>2016-01-10T10:19:31.000Z</time>
      </trkpt>
      <trkpt lat="47.46125" lon="6.78319">
        <ele>404.6</ele>
        <time>2016-01-10T10:19:32.000Z</time>
      </trkpt>
      <trkpt lat="47.46122" lon="6.7832">
        <ele>404.6</ele>
        <time>2016-01-10T10:19:33.000Z</time>
      </trkpt>
      <trkpt lat="47.46119" lon="6.78321">
        <ele>405.1</ele>
        <time>2016-01-10T10:19:34.000Z</time>
      </trkpt>
      <trkpt lat="47.46116" lon="6.78322">
        <ele>402.7</ele>
        <time>2016-01-10T10:19:35.000Z</time>
      </trkpt>
      <trkpt lat="47.46113" lon="6.78323">
        <ele>403.1</ele>
        <time>2016-01-10T10:19:36.000Z</time>
      </trkpt>
      <trkpt lat="47.4611" lon="6.78326">
        <ele>402.8</ele>
        <time>2016-01-10T10:19:37.000Z</time>
      </trkpt>
      <trkpt lat="47.46106" lon="6.78328">
        <ele>401.3</ele>
        <time>2016-01-10T10:19:38.000Z</time>
      </trkpt>
      <trkpt lat="47.46103" lon="6.7833">
        <ele>401.5</ele>
        <time>2016-01-10T10:19:39.000Z</time>
      </trkpt>
      <trkpt lat="47.461" lon="6.78332">
        <ele>401.1</ele>
        <time>2016-01-10T10:19:40.000Z</time>
      </trkpt>
      <trkpt lat="47.46097" lon="6.78334">
        <ele>401.2</ele>
        <time>2016-01-10T10:19:41.000Z</time>
      </trkpt>
      <trkpt lat="47.46094" lon="6.78337">
        <ele>400.8</ele>
        <time>2016-01-10T10:19:42.000Z</time>
      </trkpt>
      <trkpt lat="47.4609" lon="6.7834">
        <ele>400.6</ele>
        <time>2016-01-10T10:19:43.000Z</time>
      </trkpt>
      <trkpt lat="47.46086" lon="6.78343">
        <ele>402.2</ele>
        <time>2016-01-10T10:19:44.000Z</time>
      </trkpt>
      <trkpt lat="47.46081" lon="6.78346">
        <ele>401.4</ele>
        <time>2016-01-10T10:19:45.000Z</time>
      </trkpt>
      <trkpt lat="47.46077" lon="6.78349">
        <ele>401.6</ele>
        <time>2016-01-10T10:19:46.000Z</time>
      </trkpt>
      <trkpt lat="47.46072" lon="6.78352">
        <ele>401.4</ele>
        <time>2016-01-10T10:19:47.000Z</time>
      </trkpt>
      <trkpt lat="47.46068" lon="6.78355">
        <ele>400.8</ele>
        <time>2016-01-10T10:19:48.000Z</time>
      </trkpt>
      <trkpt lat="47.46065" lon="6.78357">
        <ele>400.2</ele>
        <time>2016-01-10T10:19:49.000Z</time>
      </trkpt>
      <trkpt lat="47.46061" lon="6.7836">
        <ele>400.1</ele>
        <time>2016-01-10T10:19:50.000Z</time>
      </trkpt>
      <trkpt lat="47.46058" lon="6.78362">
        <ele>400.3</ele>
        <time>2016-01-10T10:19:51.000Z</time>
      </trkpt>
      <trkpt lat="47.46055" lon="6.78365">
        <ele>400.1</ele>
        <time>2016-01-10T10:19:52.000Z</time>
      </trkpt>
      <trkpt lat="47.46051" lon="6.78367">
        <ele>400.5</ele>
        <time>2016-01-10T10:19:53.000Z</time>
      </trkpt>
      <trkpt lat="47.46048" lon="6.7837">
        <ele>400.6</ele>
        <time>2016-01-10T10:19:54.000Z</time>
      </trkpt>
      <trkpt lat="47.46044" lon="6.78372">
        <ele>400</ele>
        <time>2016-01-10T10:19:55.000Z</time>
      </trkpt>
      <trkpt lat="47.4604" lon="6.78374">
        <ele>399.8</ele>
        <time>2016-01-10T10:19:56.000Z</time>
      </trkpt>
      <trkpt lat="47.46037" lon="6.78377">
        <ele>397.9</ele>
        <time>2016-01-10T10:19:57.000Z</time>
      </trkpt>
      <trkpt lat="47.46035" lon="6.78378">
        <ele>397.1</ele>
        <time>2016-01-10T10:19:58.000Z</time>
      </trkpt>
      <trkpt lat="47.46038" lon="6.7838">
        <ele>394.8</ele>
        <time>2016-01-10T10:20:04.000Z</time>
      </trkpt>
      <trkpt lat="47.4604" lon="6.78379">
        <ele>394.4</ele>
        <time>2016-01-10T10:20:05.000Z</time>
      </trkpt>
      <trkpt lat="47.46044" lon="6.78378">
        <ele>393.1</ele>
        <time>2016-01-10T10:20:08.000Z</time>
      </trkpt>
      <trkpt lat="47.46045" lon="6.7838">
        <ele>392.7</ele>
        <time>2016-01-10T10:20:09.000Z</time>
      </trkpt>
      <trkpt lat="47.46048" lon="6.78385">
        <ele>394.4</ele>
        <time>2016-01-10T10:20:12.000Z</time>
      </trkpt>
      <trkpt lat="47.46048" lon="6.78386">
        <ele>394.8</ele>
        <time>2016-01-10T10:20:13.000Z</time>
      </trkpt>
      <trkpt lat="47.46051" lon="6.78391">
        <ele>396.6</ele>
        <time>2016-01-10T10:20:22.000Z</time>
      </trkpt>
      <trkpt lat="47.46051" lon="6.78392">
        <ele>395.5</ele>
        <time>2016-01-10T10:20:23.000Z</time>
      </trkpt>
      <trkpt lat="47.46055" lon="6.78393">
        <ele>394.8</ele>
        <time>2016-01-10T10:20:38.000Z</time>
      </trkpt>
      <trkpt lat="47.46055" lon="6.78394">
        <ele>395</ele>
        <time>2016-01-10T10:20:39.000Z</time>
      </trkpt>
      <trkpt lat="47.46058" lon="6.78398">
        <ele>396</ele>
        <time>2016-01-10T10:20:43.000Z</time>
      </trkpt>
      <trkpt lat="47.46059" lon="6.78399">
        <ele>397.8</ele>
        <time>2016-01-10T10:20:44.000Z</time>
      </trkpt>
      <trkpt lat="47.46063" lon="6.78403">
        <ele>398.7</ele>
        <time>2016-01-10T10:20:47.000Z</time>
      </trkpt>
      <trkpt lat="47.46063" lon="6.78403">
        <ele>398.8</ele>
        <time>2016-01-10T10:20:48.000Z</time>
      </trkpt>
      <trkpt lat="47.46065" lon="6.78408">
        <ele>400.1</ele>
        <time>2016-01-10T10:20:55.000Z</time>
      </trkpt>
      <trkpt lat="47.46065" lon="6.7841">
        <ele>402.8</ele>
        <time>2016-01-10T10:20:56.000Z</time>
      </trkpt>
      <trkpt lat="47.46064" lon="6.78416">
        <ele>404.4</ele>
        <time>2016-01-10T10:20:58.000Z</time>
      </trkpt>
      <trkpt lat="47.46064" lon="6.78419">
        <ele>405</ele>
        <time>2016-01-10T10:20:59.000Z</time>
      </trkpt>
      <trkpt lat="47.46065" lon="6.78424">
        <ele>405.4</ele>
        <time>2016-01-10T10:21:01.000Z</time>
      </trkpt>
      <trkpt lat="47.46066" lon="6.78426">
        <ele>405.2</ele>
        <time>2016-01-10T10:21:02.000Z</time>
      </trkpt>
      <trkpt lat="47.46067" lon="6.7843">
        <ele>403.8</ele>
        <time>2016-01-10T10:21:04.000Z</time>
      </trkpt>
      <trkpt lat="47.46068" lon="6.78432">
        <ele>403.3</ele>
        <time>2016-01-10T10:21:05.000Z</time>
      </trkpt>
      <trkpt lat="47.4607" lon="6.78438">
        <ele>401.9</ele>
        <time>2016-01-10T10:21:07.000Z</time>
      </trkpt>
      <trkpt lat="47.46071" lon="6.78441">
        <ele>399.8</ele>
        <time>2016-01-10T10:21:08.000Z</time>
      </trkpt>
      <trkpt lat="47.46072" lon="6.78446">
        <ele>400.4</ele>
        <time>2016-01-10T10:21:10.000Z</time>
      </trkpt>
      <trkpt lat="47.46073" lon="6.78449">
        <ele>400.5</ele>
        <time>2016-01-10T10:21:11.000Z</time>
      </trkpt>
      <trkpt lat="47.46074" lon="6.78455">
        <ele>399.5</ele>
        <time>2016-01-10T10:21:13.000Z</time>
      </trkpt>
      <trkpt lat="47.46074" lon="6.78458">
        <ele>399</ele>
        <time>2016-01-10T10:21:14.000Z</time>
      </trkpt>
      <trkpt lat="47.46074" lon="6.78465">
        <ele>400.5</ele>
        <time>2016-01-10T10:21:16.000Z</time>
      </trkpt>
      <trkpt lat="47.46074" lon="6.78468">
        <ele>400.8</ele>
        <time>2016-01-10T10:21:17.000Z</time>
      </trkpt>
      <trkpt lat="47.46073" lon="6.78474">
        <ele>401.5</ele>
        <time>2016-01-10T10:21:19.000Z</time>
      </trkpt>
      <trkpt lat="47.46073" lon="6.78476">
        <ele>401.6</ele>
        <time>2016-01-10T10:21:20.000Z</time>
      </trkpt>
      <trkpt lat="47.46072" lon="6.78481">
        <ele>402.3</ele>
        <time>2016-01-10T10:21:22.000Z</time>
      </trkpt>
      <trkpt lat="47.46072" lon="6.78483">
        <ele>402.1</ele>
        <time>2016-01-10T10:21:23.000Z</time>
      </trkpt>
      <trkpt lat="47.4607" lon="6.78487">
        <ele>401.9</ele>
        <time>2016-01-10T10:21:25.000Z</time>
      </trkpt>
      <trkpt lat="47.46068" lon="6.7849">
        <ele>403.1</ele>
        <time>2016-01-10T10:21:26.000Z</time>
      </trkpt>
      <trkpt lat="47.46065" lon="6.78494">
        <ele>403.3</ele>
        <time>2016-01-10T10:21:28.000Z</time>
      </trkpt>
      <trkpt lat="47.46064" lon="6.78495">
        <ele>402.3</ele>
        <time>2016-01-10T10:21:29.000Z</time>
      </trkpt>
      <trkpt lat="47.46061" lon="6.78499">
        <ele>402.4</ele>
        <time>2016-01-10T10:21:32.000Z</time>
      </trkpt>
      <trkpt lat="47.46061" lon="6.78501">
        <ele>402.8</ele>
        <time>2016-01-10T10:21:33.000Z</time>
      </trkpt>
      <trkpt lat="47.46059" lon="6.78505">
        <ele>404.9</ele>
        <time>2016-01-10T10:21:35.000Z</time>
      </trkpt>
      <trkpt lat="47.46058" lon="6.78508">
        <ele>407</ele>
        <time>2016-01-10T10:21:36.000Z</time>
      </trkpt>
      <trkpt lat="47.46057" lon="6.78514">
        <ele>409.1</ele>
        <time>2016-01-10T10:21:38.000Z</time>
      </trkpt>
      <trkpt lat="47.46056" lon="6.78516">
        <ele>410.7</ele>
        <time>2016-01-10T10:21:39.000Z</time>
      </trkpt>
      <trkpt lat="47.46053" lon="6.78521">
        <ele>409.6</ele>
        <time>2016-01-10T10:21:41.000Z</time>
      </trkpt>
      <trkpt lat="47.46052" lon="6.78522">
        <ele>409.1</ele>
        <time>2016-01-10T10:21:42.000Z</time>
      </trkpt>
      <trkpt lat="47.46049" lon="6.78525">
        <ele>410.2</ele>
        <time>2016-01-10T10:21:44.000Z</time>
      </trkpt>
      <trkpt lat="47.46048" lon="6.78527">
        <ele>409.3</ele>
        <time>2016-01-10T10:21:45.000Z</time>
      </trkpt>
      <trkpt lat="47.46047" lon="6.78533">
        <ele>410.5</ele>
        <time>2016-01-10T10:21:47.000Z</time>
      </trkpt>
      <trkpt lat="47.46046" lon="6.78536">
        <ele>410.1</ele>
        <time>2016-01-10T10:21:48.000Z</time>
      </trkpt>
      <trkpt lat="47.46045" lon="6.78541">
        <ele>407.5</ele>
        <time>2016-01-10T10:21:50.000Z</time>
      </trkpt>
      <trkpt lat="47.46045" lon="6.78543">
        <ele>406.8</ele>
        <time>2016-01-10T10:21:51.000Z</time>
      </trkpt>
      <trkpt lat="47.46044" lon="6.78548">
        <ele>408.2</ele>
        <time>2016-01-10T10:21:53.000Z</time>
      </trkpt>
      <trkpt lat="47.46044" lon="6.78552">
        <ele>407.4</ele>
        <time>2016-01-10T10:21:54.000Z</time>
      </trkpt>
      <trkpt lat="47.46045" lon="6.78555">
        <ele>407.3</ele>
        <time>2016-01-10T10:21:55.000Z</time>
      </trkpt>
      <trkpt lat="47.46045" lon="6.78558">
        <ele>406.9</ele>
        <time>2016-01-10T10:21:56.000Z</time>
      </trkpt>
      <trkpt lat="47.46046" lon="6.78564">
        <ele>407.9</ele>
        <time>2016-01-10T10:21:58.000Z</time>
      </trkpt>
      <trkpt lat="47.46047" lon="6.78566">
        <ele>408.7</ele>
        <time>2016-01-10T10:21:59.000Z</time>
      </trkpt>
      <trkpt lat="47.46048" lon="6.78571">
        <ele>408.7</ele>
        <time>2016-01-10T10:22:02.000Z</time>
      </trkpt>
      <trkpt lat="47.46048" lon="6.78573">
        <ele>408.4</ele>
        <time>2016-01-10T10:22:03.000Z</time>
      </trkpt>
      <trkpt lat="47.4605" lon="6.78578">
        <ele>413.3</ele>
        <time>2016-01-10T10:22:05.000Z</time>
      </trkpt>
      <trkpt lat="47.4605" lon="6.7858">
        <ele>413.6</ele>
        <time>2016-01-10T10:22:06.000Z</time>
      </trkpt>
      <trkpt lat="47.46051" lon="6.78586">
        <ele>414.9</ele>
        <time>2016-01-10T10:22:08.000Z</time>
      </trkpt>
      <trkpt lat="47.46052" lon="6.78589">
        <ele>415.6</ele>
        <time>2016-01-10T10:22:09.000Z</time>
      </trkpt>
      <trkpt lat="47.46053" lon="6.78592">
        <ele>416</ele>
        <time>2016-01-10T10:22:10.000Z</time>
      </trkpt>
      <trkpt lat="47.46054" lon="6.78595">
        <ele>415.9</ele>
        <time>2016-01-10T10:22:11.000Z</time>
      </trkpt>
      <trkpt lat="47.46055" lon="6.78601">
        <ele>416.4</ele>
        <time>2016-01-10T10:22:13.000Z</time>
      </trkpt>
      <trkpt lat="47.46056" lon="6.78604">
        <ele>414.8</ele>
        <time>2016-01-10T10:22:14.000Z</time>
      </trkpt>
      <trkpt lat="47.46057" lon="6.78608">
        <ele>414.8</ele>
        <time>2016-01-10T10:22:15.000Z</time>
      </trkpt>
      <trkpt lat="47.46057" lon="6.78611">
        <ele>414.8</ele>
        <time>2016-01-10T10:22:16.000Z</time>
      </trkpt>
      <trkpt lat="47.46057" lon="6.78615">
        <ele>412.8</ele>
        <time>2016-01-10T10:22:17.000Z</time>
      </trkpt>
      <trkpt lat="47.46058" lon="6.78619">
        <ele>412.8</ele>
        <time>2016-01-10T10:22:18.000Z</time>
      </trkpt>
      <trkpt lat="47.46059" lon="6.78622">
        <ele>413.8</ele>
        <time>2016-01-10T10:22:19.000Z</time>
      </trkpt>
      <trkpt lat="47.46061" lon="6.78626">
        <ele>411.8</ele>
        <time>2016-01-10T10:22:20.000Z</time>
      </trkpt>
      <trkpt lat="47.46063" lon="6.78629">
        <ele>411.1</ele>
        <time>2016-01-10T10:22:21.000Z</time>
      </trkpt>
      <trkpt lat="47.46065" lon="6.78632">
        <ele>408.3</ele>
        <time>2016-01-10T10:22:22.000Z</time>
      </trkpt>
      <trkpt lat="47.46067" lon="6.78637">
        <ele>408.2</ele>
        <time>2016-01-10T10:22:24.000Z</time>
      </trkpt>
      <trkpt lat="47.46067" lon="6.7864">
        <ele>406.9</ele>
        <time>2016-01-10T10:22:25.000Z</time>
      </trkpt>
      <trkpt lat="47.46068" lon="6.78646">
        <ele>406</ele>
        <time>2016-01-10T10:22:27.000Z</time>
      </trkpt>
      <trkpt lat="47.46069" lon="6.78649">
        <ele>405.4</ele>
        <time>2016-01-10T10:22:28.000Z</time>
      </trkpt>
      <trkpt lat="47.4607" lon="6.78652">
        <ele>404.1</ele>
        <time>2016-01-10T10:22:29.000Z</time>
      </trkpt>
      <trkpt lat="47.4607" lon="6.78656">
        <ele>401.9</ele>
        <time>2016-01-10T10:22:30.000Z</time>
      </trkpt>
      <trkpt lat="47.4607" lon="6.78662">
        <ele>401.9</ele>
        <time>2016-01-10T10:22:32.000Z</time>
      </trkpt>
      <trkpt lat="47.46071" lon="6.78665">
        <ele>402.9</ele>
        <time>2016-01-10T10:22:33.000Z</time>
      </trkpt>
      <trkpt lat="47.46071" lon="6.78669">
        <ele>403.3</ele>
        <time>2016-01-10T10:22:34.000Z</time>
      </trkpt>
      <trkpt lat="47.46072" lon="6.78672">
        <ele>403.2</ele>
        <time>2016-01-10T10:22:35.000Z</time>
      </trkpt>
      <trkpt lat="47.46073" lon="6.78676">
        <ele>404.1</ele>
        <time>2016-01-10T10:22:36.000Z</time>
      </trkpt>
      <trkpt lat="47.46074" lon="6.7868">
        <ele>404</ele>
        <time>2016-01-10T10:22:37.000Z</time>
      </trkpt>
      <trkpt lat="47.46075" lon="6.78684">
        <ele>404.5</ele>
        <time>2016-01-10T10:22:38.000Z</time>
      </trkpt>
      <trkpt lat="47.46076" lon="6.78688">
        <ele>403.7</ele>
        <time>2016-01-10T10:22:39.000Z</time>
      </trkpt>
      <trkpt lat="47.46076" lon="6.78692">
        <ele>403.5</ele>
        <time>2016-01-10T10:22:40.000Z</time>
      </trkpt>
      <trkpt lat="47.46077" lon="6.78695">
        <ele>403.6</ele>
        <time>2016-01-10T10:22:41.000Z</time>
      </trkpt>
      <trkpt lat="47.46077" lon="6.78699">
        <ele>403.8</ele>
        <time>2016-01-10T10:22:42.000Z</time>
      </trkpt>
      <trkpt lat="47.46078" lon="6.78702">
        <ele>403.8</ele>
        <time>2016-01-10T10:22:43.000Z</time>
      </trkpt>
      <trkpt lat="47.4608" lon="6.78707">
        <ele>403.8</ele>
        <time>2016-01-10T10:22:45.000Z</time>
      </trkpt>
      <trkpt lat="47.46081" lon="6.78709">
        <ele>404</ele>
        <time>2016-01-10T10:22:46.000Z</time>
      </trkpt>
      <trkpt lat="47.46082" lon="6.78712">
        <ele>404.2</ele>
        <time>2016-01-10T10:22:47.000Z</time>
      </trkpt>
      <trkpt lat="47.46083" lon="6.78715">
        <ele>404.8</ele>
        <time>2016-01-10T10:22:48.000Z</time>
      </trkpt>
      <trkpt lat="47.46085" lon="6.7872">
        <ele>403.9</ele>
        <time>2016-01-10T10:22:50.000Z</time>
      </trkpt>
      <trkpt lat="47.46085" lon="6.78723">
        <ele>399.5</ele>
        <time>2016-01-10T10:22:51.000Z</time>
      </trkpt>
      <trkpt lat="47.46085" lon="6.78726">
        <ele>398.4</ele>
        <time>2016-01-10T10:22:52.000Z</time>
      </trkpt>
      <trkpt lat="47.46086" lon="6.7873">
        <ele>397.2</ele>
        <time>2016-01-10T10:22:53.000Z</time>
      </trkpt>
      <trkpt lat="47.46086" lon="6.78734">
        <ele>395.3</ele>
        <time>2016-01-10T10:22:54.000Z</time>
      </trkpt>
      <trkpt lat="47.46087" lon="6.78738">
        <ele>394</ele>
        <time>2016-01-10T10:22:55.000Z</time>
      </trkpt>
      <trkpt lat="47.46087" lon="6.78742">
        <ele>392.2</ele>
        <time>2016-01-10T10:22:56.000Z</time>
      </trkpt>
      <trkpt lat="47.46088" lon="6.78745">
        <ele>393.1</ele>
        <time>2016-01-10T10:22:57.000Z</time>
      </trkpt>
      <trkpt lat="47.46089" lon="6.78748">
        <ele>393.6</ele>
        <time>2016-01-10T10:22:58.000Z</time>
      </trkpt>
      <trkpt lat="47.4609" lon="6.78751">
        <ele>394.2</ele>
        <time>2016-01-10T10:22:59.000Z</time>
      </trkpt>
      <trkpt lat="47.46091" lon="6.78757">
        <ele>396.3</ele>
        <time>2016-01-10T10:23:01.000Z</time>
      </trkpt>
      <trkpt lat="47.46091" lon="6.78759">
        <ele>397</ele>
        <time>2016-01-10T10:23:02.000Z</time>
      </trkpt>
      <trkpt lat="47.46093" lon="6.78763">
        <ele>402</ele>
        <time>2016-01-10T10:23:04.000Z</time>
      </trkpt>
      <trkpt lat="47.46094" lon="6.78765">
        <ele>403.1</ele>
        <time>2016-01-10T10:23:05.000Z</time>
      </trkpt>
      <trkpt lat="47.46096" lon="6.78768">
        <ele>403.7</ele>
        <time>2016-01-10T10:23:06.000Z</time>
      </trkpt>
      <trkpt lat="47.46097" lon="6.78771">
        <ele>404.4</ele>
        <time>2016-01-10T10:23:07.000Z</time>
      </trkpt>
      <trkpt lat="47.46098" lon="6.78774">
        <ele>405.4</ele>
        <time>2016-01-10T10:23:08.000Z</time>
      </trkpt>
      <trkpt lat="47.46099" lon="6.78777">
        <ele>407.3</ele>
        <time>2016-01-10T10:23:09.000Z</time>
      </trkpt>
      <trkpt lat="47.461" lon="6.78781">
        <ele>407.4</ele>
        <time>2016-01-10T10:23:11.000Z</time>
      </trkpt>
      <trkpt lat="47.46101" lon="6.78783">
        <ele>407.4</ele>
        <time>2016-01-10T10:23:12.000Z</time>
      </trkpt>
      <trkpt lat="47.46105" lon="6.78786">
        <ele>410.9</ele>
        <time>2016-01-10T10:23:15.000Z</time>
      </trkpt>
      <trkpt lat="47.46105" lon="6.78787">
        <ele>409.3</ele>
        <time>2016-01-10T10:23:16.000Z</time>
      </trkpt>
      <trkpt lat="47.46108" lon="6.78791">
        <ele>405.1</ele>
        <time>2016-01-10T10:23:19.999Z</time>
      </trkpt>
      <trkpt lat="47.4611" lon="6.78792">
        <ele>406.1</ele>
        <time>2016-01-10T10:23:21.000Z</time>
      </trkpt>
      <trkpt lat="47.46114" lon="6.78793">
        <ele>408.2</ele>
        <time>2016-01-10T10:23:24.000Z</time>
      </trkpt>
      <trkpt lat="47.46115" lon="6.78793">
        <ele>409.4</ele>
        <time>2016-01-10T10:23:25.000Z</time>
      </trkpt>
      <trkpt lat="47.46119" lon="6.78792">
        <ele>411.9</ele>
        <time>2016-01-10T10:23:29.000Z</time>
      </trkpt>
      <trkpt lat="47.4612" lon="6.78792">
        <ele>412.2</ele>
        <time>2016-01-10T10:23:30.000Z</time>
      </trkpt>
      <trkpt lat="47.46124" lon="6.78792">
        <ele>412.9</ele>
        <time>2016-01-10T10:23:33.000Z</time>
      </trkpt>
      <trkpt lat="47.46125" lon="6.78792">
        <ele>412.7</ele>
        <time>2016-01-10T10:23:34.000Z</time>
      </trkpt>
      <trkpt lat="47.46129" lon="6.78792">
        <ele>414</ele>
        <time>2016-01-10T10:23:36.000Z</time>
      </trkpt>
      <trkpt lat="47.4613" lon="6.78792">
        <ele>413.8</ele>
        <time>2016-01-10T10:23:37.000Z</time>
      </trkpt>
      <trkpt lat="47.46134" lon="6.78792">
        <ele>414.3</ele>
        <time>2016-01-10T10:23:39.000Z</time>
      </trkpt>
      <trkpt lat="47.46137" lon="6.78793">
        <ele>414</ele>
        <time>2016-01-10T10:23:40.000Z</time>
      </trkpt>
      <trkpt lat="47.46141" lon="6.78794">
        <ele>415.3</ele>
        <time>2016-01-10T10:23:42.000Z</time>
      </trkpt>
      <trkpt lat="47.46142" lon="6.78794">
        <ele>415.6</ele>
        <time>2016-01-10T10:23:43.000Z</time>
      </trkpt>
      <trkpt lat="47.46146" lon="6.78793">
        <ele>417.4</ele>
        <time>2016-01-10T10:23:46.000Z</time>
      </trkpt>
      <trkpt lat="47.46148" lon="6.78792">
        <ele>417.5</ele>
        <time>2016-01-10T10:23:47.000Z</time>
      </trkpt>
      <trkpt lat="47.46152" lon="6.78791">
        <ele>416.9</ele>
        <time>2016-01-10T10:23:50.000Z</time>
      </trkpt>
      <trkpt lat="47.46153" lon="6.78791">
        <ele>416.5</ele>
        <time>2016-01-10T10:23:51.000Z</time>
      </trkpt>
      <trkpt lat="47.46157" lon="6.78792">
        <ele>416.5</ele>
        <time>2016-01-10T10:23:54.000Z</time>
      </trkpt>
      <trkpt lat="47.46159" lon="6.78791">
        <ele>416.3</ele>
        <time>2016-01-10T10:23:55.000Z</time>
      </trkpt>
      <trkpt lat="47.46163" lon="6.78789">
        <ele>417.6</ele>
        <time>2016-01-10T10:23:58.000Z</time>
      </trkpt>
      <trkpt lat="47.46164" lon="6.78789">
        <ele>417.9</ele>
        <time>2016-01-10T10:23:59.000Z</time>
      </trkpt>
      <trkpt lat="47.46168" lon="6.78788">
        <ele>418.5</ele>
        <time>2016-01-10T10:24:01.000Z</time>
      </trkpt>
      <trkpt lat="47.4617" lon="6.78788">
        <ele>418.6</ele>
        <time>2016-01-10T10:24:02.000Z</time>
      </trkpt>
      <trkpt lat="47.46174" lon="6.78787">
        <ele>418.7</ele>
        <time>2016-01-10T10:24:04.000Z</time>
      </trkpt>
      <trkpt lat="47.46175" lon="6.78786">
        <ele>418.3</ele>
        <time>2016-01-10T10:24:05.000Z</time>
      </trkpt>
      <trkpt lat="47.46179" lon="6.78785">
        <ele>419.3</ele>
        <time>2016-01-10T10:24:08.000Z</time>
      </trkpt>
      <trkpt lat="47.46181" lon="6.78784">
        <ele>420.1</ele>
        <time>2016-01-10T10:24:09.000Z</time>
      </trkpt>
      <trkpt lat="47.46184" lon="6.78782">
        <ele>419.4</ele>
        <time>2016-01-10T10:24:11.000Z</time>
      </trkpt>
      <trkpt lat="47.46185" lon="6.78781">
        <ele>419.3</ele>
        <time>2016-01-10T10:24:12.000Z</time>
      </trkpt>
      <trkpt lat="47.46188" lon="6.78779">
        <ele>420.8</ele>
        <time>2016-01-10T10:24:14.000Z</time>
      </trkpt>
      <trkpt lat="47.4619" lon="6.78778">
        <ele>417.6</ele>
        <time>2016-01-10T10:24:15.000Z</time>
      </trkpt>
      <trkpt lat="47.46193" lon="6.78777">
        <ele>416</ele>
        <time>2016-01-10T10:24:17.000Z</time>
      </trkpt>
      <trkpt lat="47.46195" lon="6.78777">
        <ele>415.5</ele>
        <time>2016-01-10T10:24:18.000Z</time>
      </trkpt>
      <trkpt lat="47.46198" lon="6.78776">
        <ele>415</ele>
        <time>2016-01-10T10:24:19.000Z</time>
      </trkpt>
      <trkpt lat="47.462" lon="6.78776">
        <ele>413.5</ele>
        <time>2016-01-10T10:24:20.000Z</time>
      </trkpt>
      <trkpt lat="47.46203" lon="6.78775">
        <ele>412.5</ele>
        <time>2016-01-10T10:24:21.000Z</time>
      </trkpt>
      <trkpt lat="47.46205" lon="6.78775">
        <ele>412.3</ele>
        <time>2016-01-10T10:24:22.000Z</time>
      </trkpt>
      <trkpt lat="47.46208" lon="6.78775">
        <ele>411.7</ele>
        <time>2016-01-10T10:24:23.000Z</time>
      </trkpt>
      <trkpt lat="47.4621" lon="6.78775">
        <ele>411.3</ele>
        <time>2016-01-10T10:24:24.000Z</time>
      </trkpt>
      <trkpt lat="47.46214" lon="6.78774">
        <ele>412.5</ele>
        <time>2016-01-10T10:24:26.000Z</time>
      </trkpt>
      <trkpt lat="47.46216" lon="6.78773">
        <ele>412.4</ele>
        <time>2016-01-10T10:24:27.000Z</time>
      </trkpt>
      <trkpt lat="47.46218" lon="6.78772">
        <ele>412.2</ele>
        <time>2016-01-10T10:24:28.000Z</time>
      </trkpt>
      <trkpt lat="47.4622" lon="6.78771">
        <ele>411.8</ele>
        <time>2016-01-10T10:24:29.000Z</time>
      </trkpt>
      <trkpt lat="47.46223" lon="6.7877">
        <ele>412</ele>
        <time>2016-01-10T10:24:30.000Z</time>
      </trkpt>
      <trkpt lat="47.46225" lon="6.7877">
        <ele>412.1</ele>
        <time>2016-01-10T10:24:31.000Z</time>
      </trkpt>
      <trkpt lat="47.46227" lon="6.7877">
        <ele>409.1</ele>
        <time>2016-01-10T10:24:32.000Z</time>
      </trkpt>
      <trkpt lat="47.46229" lon="6.7877">
        <ele>407.6</ele>
        <time>2016-01-10T10:24:33.000Z</time>
      </trkpt>
      <trkpt lat="47.46232" lon="6.78771">
        <ele>407.2</ele>
        <time>2016-01-10T10:24:34.000Z</time>
      </trkpt>
      <trkpt lat="47.46234" lon="6.78772">
        <ele>408</ele>
        <time>2016-01-10T10:24:35.000Z</time>
      </trkpt>
      <trkpt lat="47.46236" lon="6.78771">
        <ele>408.3</ele>
        <time>2016-01-10T10:24:36.000Z</time>
      </trkpt>
      <trkpt lat="47.46238" lon="6.78771">
        <ele>409.1</ele>
        <time>2016-01-10T10:24:37.000Z</time>
      </trkpt>
      <trkpt lat="47.46241" lon="6.78769">
        <ele>409.3</ele>
        <time>2016-01-10T10:24:38.000Z</time>
      </trkpt>
      <trkpt lat="47.46243" lon="6.78768">
        <ele>409.8</ele>
        <time>2016-01-10T10:24:39.000Z</time>
      </trkpt>
      <trkpt lat="47.46247" lon="6.78767">
        <ele>411.3</ele>
        <time>2016-01-10T10:24:41.000Z</time>
      </trkpt>
      <trkpt lat="47.46248" lon="6.78766">
        <ele>413.5</ele>
        <time>2016-01-10T10:24:42.000Z</time>
      </trkpt>
      <trkpt lat="47.46252" lon="6.78766">
        <ele>409.4</ele>
        <time>2016-01-10T10:24:45.000Z</time>
      </trkpt>
      <trkpt lat="47.46253" lon="6.78767">
        <ele>408.3</ele>
        <time>2016-01-10T10:24:46.000Z</time>
      </trkpt>
      <trkpt lat="47.46258" lon="6.78767">
        <ele>407.4</ele>
        <time>2016-01-10T10:24:48.000Z</time>
      </trkpt>
      <trkpt lat="47.4626" lon="6.78768">
        <ele>404.9</ele>
        <time>2016-01-10T10:24:49.000Z</time>
      </trkpt>
      <trkpt lat="47.46263" lon="6.78769">
        <ele>403.4</ele>
        <time>2016-01-10T10:24:50.000Z</time>
      </trkpt>
      <trkpt lat="47.46265" lon="6.78769">
        <ele>403.4</ele>
        <time>2016-01-10T10:24:51.000Z</time>
      </trkpt>
      <trkpt lat="47.46269" lon="6.78768">
        <ele>403.8</ele>
        <time>2016-01-10T10:24:53.000Z</time>
      </trkpt>
      <trkpt lat="47.46271" lon="6.78766">
        <ele>405.2</ele>
        <time>2016-01-10T10:24:54.000Z</time>
      </trkpt>
      <trkpt lat="47.46274" lon="6.78765">
        <ele>405.9</ele>
        <time>2016-01-10T10:24:55.000Z</time>
      </trkpt>
      <trkpt lat="47.46277" lon="6.78764">
        <ele>406.2</ele>
        <time>2016-01-10T10:24:56.000Z</time>
      </trkpt>
      <trkpt lat="47.4628" lon="6.78762">
        <ele>407.9</ele>
        <time>2016-01-10T10:24:57.000Z</time>
      </trkpt>
      <trkpt lat="47.46283" lon="6.78761">
        <ele>407.4</ele>
        <time>2016-01-10T10:24:58.000Z</time>
      </trkpt>
      <trkpt lat="47.46286" lon="6.7876">
        <ele>407.4</ele>
        <time>2016-01-10T10:24:59.000Z</time>
      </trkpt>
      <trkpt lat="47.46288" lon="6.78759">
        <ele>406.8</ele>
        <time>2016-01-10T10:25:00.000Z</time>
      </trkpt>
      <trkpt lat="47.4629" lon="6.78758">
        <ele>407.6</ele>
        <time>2016-01-10T10:25:01.000Z</time>
      </trkpt>
      <trkpt lat="47.46292" lon="6.78758">
        <ele>407.5</ele>
        <time>2016-01-10T10:25:02.000Z</time>
      </trkpt>
      <trkpt lat="47.46295" lon="6.78757">
        <ele>407.5</ele>
        <time>2016-01-10T10:25:03.000Z</time>
      </trkpt>
      <trkpt lat="47.46297" lon="6.78756">
        <ele>407.5</ele>
        <time>2016-01-10T10:25:04.000Z</time>
      </trkpt>
      <trkpt lat="47.46301" lon="6.78755">
        <ele>406.3</ele>
        <time>2016-01-10T10:25:06.000Z</time>
      </trkpt>
      <trkpt lat="47.46304" lon="6.78754">
        <ele>406.6</ele>
        <time>2016-01-10T10:25:07.000Z</time>
      </trkpt>
      <trkpt lat="47.46306" lon="6.78753">
        <ele>406.8</ele>
        <time>2016-01-10T10:25:08.000Z</time>
      </trkpt>
      <trkpt lat="47.46309" lon="6.78753">
        <ele>404.8</ele>
        <time>2016-01-10T10:25:09.000Z</time>
      </trkpt>
      <trkpt lat="47.46311" lon="6.78752">
        <ele>405.6</ele>
        <time>2016-01-10T10:25:10.000Z</time>
      </trkpt>
      <trkpt lat="47.46314" lon="6.78751">
        <ele>406.1</ele>
        <time>2016-01-10T10:25:11.000Z</time>
      </trkpt>
      <trkpt lat="47.46318" lon="6.7875">
        <ele>405.5</ele>
        <time>2016-01-10T10:25:13.000Z</time>
      </trkpt>
      <trkpt lat="47.4632" lon="6.78749">
        <ele>406</ele>
        <time>2016-01-10T10:25:14.000Z</time>
      </trkpt>
      <trkpt lat="47.46322" lon="6.78749">
        <ele>406.1</ele>
        <time>2016-01-10T10:25:15.000Z</time>
      </trkpt>
      <trkpt lat="47.46325" lon="6.78748">
        <ele>406.6</ele>
        <time>2016-01-10T10:25:16.000Z</time>
      </trkpt>
      <trkpt lat="47.46329" lon="6.78748">
        <ele>407.5</ele>
        <time>2016-01-10T10:25:17.999Z</time>
      </trkpt>
      <trkpt lat="47.46331" lon="6.78746">
        <ele>408.2</ele>
        <time>2016-01-10T10:25:19.000Z</time>
      </trkpt>
      <trkpt lat="47.46333" lon="6.78745">
        <ele>409.2</ele>
        <time>2016-01-10T10:25:20.000Z</time>
      </trkpt>
      <trkpt lat="47.46336" lon="6.78744">
        <ele>409.1</ele>
        <time>2016-01-10T10:25:21.000Z</time>
      </trkpt>
      <trkpt lat="47.46338" lon="6.78743">
        <ele>411.5</ele>
        <time>2016-01-10T10:25:22.000Z</time>
      </trkpt>
      <trkpt lat="47.46342" lon="6.78741">
        <ele>411.6</ele>
        <time>2016-01-10T10:25:23.000Z</time>
      </trkpt>
      <trkpt lat="47.46345" lon="6.7874">
        <ele>410.2</ele>
        <time>2016-01-10T10:25:24.000Z</time>
      </trkpt>
      <trkpt lat="47.46348" lon="6.78739">
        <ele>411.3</ele>
        <time>2016-01-10T10:25:25.000Z</time>
      </trkpt>
      <trkpt lat="47.46351" lon="6.78738">
        <ele>414</ele>
        <time>2016-01-10T10:25:26.000Z</time>
      </trkpt>
      <trkpt lat="47.46353" lon="6.78736">
        <ele>414.3</ele>
        <time>2016-01-10T10:25:27.000Z</time>
      </trkpt>
      <trkpt lat="47.46356" lon="6.78734">
        <ele>414.5</ele>
        <time>2016-01-10T10:25:28.000Z</time>
      </trkpt>
      <trkpt lat="47.46358" lon="6.78733">
        <ele>414.8</ele>
        <time>2016-01-10T10:25:29.000Z</time>
      </trkpt>
      <trkpt lat="47.46361" lon="6.78732">
        <ele>414.5</ele>
        <time>2016-01-10T10:25:30.000Z</time>
      </trkpt>
      <trkpt lat="47.46363" lon="6.78731">
        <ele>416.6</ele>
        <time>2016-01-10T10:25:31.000Z</time>
      </trkpt>
      <trkpt lat="47.46365" lon="6.7873">
        <ele>416.3</ele>
        <time>2016-01-10T10:25:32.000Z</time>
      </trkpt>
      <trkpt lat="47.46367" lon="6.78729">
        <ele>415.7</ele>
        <time>2016-01-10T10:25:33.000Z</time>
      </trkpt>
      <trkpt lat="47.4637" lon="6.78728">
        <ele>415</ele>
        <time>2016-01-10T10:25:34.000Z</time>
      </trkpt>
      <trkpt lat="47.46372" lon="6.78727">
        <ele>414.5</ele>
        <time>2016-01-10T10:25:35.000Z</time>
      </trkpt>
      <trkpt lat="47.46376" lon="6.78727">
        <ele>415</ele>
        <time>2016-01-10T10:25:37.000Z</time>
      </trkpt>
      <trkpt lat="47.46379" lon="6.78726">
        <ele>414.9</ele>
        <time>2016-01-10T10:25:38.000Z</time>
      </trkpt>
      <trkpt lat="47.46381" lon="6.78724">
        <ele>415</ele>
        <time>2016-01-10T10:25:39.000Z</time>
      </trkpt>
      <trkpt lat="47.46383" lon="6.78723">
        <ele>415.1</ele>
        <time>2016-01-10T10:25:40.000Z</time>
      </trkpt>
      <trkpt lat="47.46385" lon="6.78722">
        <ele>415.1</ele>
        <time>2016-01-10T10:25:41.000Z</time>
      </trkpt>
      <trkpt lat="47.46388" lon="6.78721">
        <ele>415.1</ele>
        <time>2016-01-10T10:25:42.000Z</time>
      </trkpt>
      <trkpt lat="47.46392" lon="6.78719">
        <ele>415.1</ele>
        <time>2016-01-10T10:25:44.000Z</time>
      </trkpt>
      <trkpt lat="47.46394" lon="6.78719">
        <ele>415.9</ele>
        <time>2016-01-10T10:25:45.000Z</time>
      </trkpt>
      <trkpt lat="47.46397" lon="6.78719">
        <ele>415.8</ele>
        <time>2016-01-10T10:25:46.000Z</time>
      </trkpt>
      <trkpt lat="47.46399" lon="6.78719">
        <ele>417.2</ele>
        <time>2016-01-10T10:25:47.000Z</time>
      </trkpt>
      <trkpt lat="47.46402" lon="6.78718">
        <ele>417.8</ele>
        <time>2016-01-10T10:25:48.000Z</time>
      </trkpt>
      <trkpt lat="47.46404" lon="6.78718">
        <ele>417.5</ele>
        <time>2016-01-10T10:25:49.000Z</time>
      </trkpt>
      <trkpt lat="47.46407" lon="6.78717">
        <ele>420.4</ele>
        <time>2016-01-10T10:25:50.000Z</time>
      </trkpt>
      <trkpt lat="47.46409" lon="6.78717">
        <ele>418.7</ele>
        <time>2016-01-10T10:25:51.000Z</time>
      </trkpt>
      <trkpt lat="47.46412" lon="6.78716">
        <ele>419.4</ele>
        <time>2016-01-10T10:25:52.000Z</time>
      </trkpt>
      <trkpt lat="47.46414" lon="6.78716">
        <ele>417.6</ele>
        <time>2016-01-10T10:25:53.000Z</time>
      </trkpt>
      <trkpt lat="47.46416" lon="6.78715">
        <ele>416.8</ele>
        <time>2016-01-10T10:25:54.000Z</time>
      </trkpt>
      <trkpt lat="47.46419" lon="6.78715">
        <ele>415.3</ele>
        <time>2016-01-10T10:25:55.000Z</time>
      </trkpt>
      <trkpt lat="47.46422" lon="6.78715">
        <ele>414.4</ele>
        <time>2016-01-10T10:25:56.000Z</time>
      </trkpt>
      <trkpt lat="47.46424" lon="6.78716">
        <ele>414.1</ele>
        <time>2016-01-10T10:25:57.000Z</time>
      </trkpt>
      <trkpt lat="47.46426" lon="6.78717">
        <ele>413.4</ele>
        <time>2016-01-10T10:25:58.000Z</time>
      </trkpt>
      <trkpt lat="47.46428" lon="6.78718">
        <ele>413.5</ele>
        <time>2016-01-10T10:25:59.000Z</time>
      </trkpt>
      <trkpt lat="47.4643" lon="6.78721">
        <ele>412.6</ele>
        <time>2016-01-10T10:26:00.000Z</time>
      </trkpt>
      <trkpt lat="47.46432" lon="6.78724">
        <ele>411.7</ele>
        <time>2016-01-10T10:26:01.000Z</time>
      </trkpt>
      <trkpt lat="47.46433" lon="6.78727">
        <ele>410.2</ele>
        <time>2016-01-10T10:26:02.000Z</time>
      </trkpt>
      <trkpt lat="47.46434" lon="6.7873">
        <ele>411.4</ele>
        <time>2016-01-10T10:26:03.000Z</time>
      </trkpt>
      <trkpt lat="47.46435" lon="6.78734">
        <ele>411.5</ele>
        <time>2016-01-10T10:26:04.000Z</time>
      </trkpt>
      <trkpt lat="47.46436" lon="6.78737">
        <ele>412.2</ele>
        <time>2016-01-10T10:26:05.000Z</time>
      </trkpt>
      <trkpt lat="47.46437" lon="6.78743">
        <ele>404.7</ele>
        <time>2016-01-10T10:26:07.000Z</time>
      </trkpt>
      <trkpt lat="47.46438" lon="6.78746">
        <ele>404.3</ele>
        <time>2016-01-10T10:26:08.000Z</time>
      </trkpt>
      <trkpt lat="47.46438" lon="6.78749">
        <ele>403</ele>
        <time>2016-01-10T10:26:09.000Z</time>
      </trkpt>
      <trkpt lat="47.46439" lon="6.78753">
        <ele>401.4</ele>
        <time>2016-01-10T10:26:10.000Z</time>
      </trkpt>
      <trkpt lat="47.4644" lon="6.78757">
        <ele>400.6</ele>
        <time>2016-01-10T10:26:11.000Z</time>
      </trkpt>
      <trkpt lat="47.46441" lon="6.78761">
        <ele>400.9</ele>
        <time>2016-01-10T10:26:12.000Z</time>
      </trkpt>
      <trkpt lat="47.46442" lon="6.78765">
        <ele>401.3</ele>
        <time>2016-01-10T10:26:13.000Z</time>
      </trkpt>
      <trkpt lat="47.46443" lon="6.78769">
        <ele>402.4</ele>
        <time>2016-01-10T10:26:14.000Z</time>
      </trkpt>
      <trkpt lat="47.46444" lon="6.78772">
        <ele>403</ele>
        <time>2016-01-10T10:26:15.000Z</time>
      </trkpt>
      <trkpt lat="47.46446" lon="6.78775">
        <ele>404.3</ele>
        <time>2016-01-10T10:26:16.000Z</time>
      </trkpt>
      <trkpt lat="47.46447" lon="6.78778">
        <ele>404.8</ele>
        <time>2016-01-10T10:26:17.000Z</time>
      </trkpt>
      <trkpt lat="47.46449" lon="6.78782">
        <ele>402.4</ele>
        <time>2016-01-10T10:26:18.000Z</time>
      </trkpt>
      <trkpt lat="47.4645" lon="6.78786">
        <ele>400.1</ele>
        <time>2016-01-10T10:26:19.000Z</time>
      </trkpt>
      <trkpt lat="47.46451" lon="6.78792">
        <ele>400.4</ele>
        <time>2016-01-10T10:26:20.000Z</time>
      </trkpt>
      <trkpt lat="47.46452" lon="6.78797">
        <ele>400.5</ele>
        <time>2016-01-10T10:26:21.000Z</time>
      </trkpt>
      <trkpt lat="47.46453" lon="6.78803">
        <ele>400.1</ele>
        <time>2016-01-10T10:26:22.000Z</time>
      </trkpt>
      <trkpt lat="47.46455" lon="6.78809">
        <ele>399.4</ele>
        <time>2016-01-10T10:26:23.000Z</time>
      </trkpt>
      <trkpt lat="47.46457" lon="6.78814">
        <ele>399.4</ele>
        <time>2016-01-10T10:26:24.000Z</time>
      </trkpt>
      <trkpt lat="47.46458" lon="6.78819">
        <ele>399.6</ele>
        <time>2016-01-10T10:26:25.000Z</time>
      </trkpt>
      <trkpt lat="47.4646" lon="6.78823">
        <ele>400.1</ele>
        <time>2016-01-10T10:26:26.000Z</time>
      </trkpt>
      <trkpt lat="47.46461" lon="6.78826">
        <ele>400.8</ele>
        <time>2016-01-10T10:26:27.000Z</time>
      </trkpt>
      <trkpt lat="47.46463" lon="6.7883">
        <ele>400.9</ele>
        <time>2016-01-10T10:26:28.000Z</time>
      </trkpt>
      <trkpt lat="47.46465" lon="6.78834">
        <ele>400.8</ele>
        <time>2016-01-10T10:26:29.000Z</time>
      </trkpt>
      <trkpt lat="47.46466" lon="6.78838">
        <ele>400.1</ele>
        <time>2016-01-10T10:26:30.000Z</time>
      </trkpt>
      <trkpt lat="47.46467" lon="6.78844">
        <ele>396.3</ele>
        <time>2016-01-10T10:26:31.000Z</time>
      </trkpt>
      <trkpt lat="47.46467" lon="6.78852">
        <ele>396.1</ele>
        <time>2016-01-10T10:26:32.000Z</time>
      </trkpt>
      <trkpt lat="47.46466" lon="6.7886">
        <ele>394.6</ele>
        <time>2016-01-10T10:26:33.000Z</time>
      </trkpt>
      <trkpt lat="47.46465" lon="6.78867">
        <ele>393.9</ele>
        <time>2016-01-10T10:26:34.000Z</time>
      </trkpt>
      <trkpt lat="47.46465" lon="6.78873">
        <ele>391.7</ele>
        <time>2016-01-10T10:26:35.000Z</time>
      </trkpt>
      <trkpt lat="47.46464" lon="6.78878">
        <ele>391.4</ele>
        <time>2016-01-10T10:26:36.000Z</time>
      </trkpt>
      <trkpt lat="47.46464" lon="6.78884">
        <ele>389.4</ele>
        <time>2016-01-10T10:26:38.000Z</time>
      </trkpt>
      <trkpt lat="47.46463" lon="6.78887">
        <ele>388.8</ele>
        <time>2016-01-10T10:26:39.000Z</time>
      </trkpt>
      <trkpt lat="47.46463" lon="6.78891">
        <ele>388.4</ele>
        <time>2016-01-10T10:26:40.000Z</time>
      </trkpt>
      <trkpt lat="47.46464" lon="6.78896">
        <ele>391.1</ele>
        <time>2016-01-10T10:26:41.000Z</time>
      </trkpt>
      <trkpt lat="47.46465" lon="6.78901">
        <ele>391.6</ele>
        <time>2016-01-10T10:26:42.000Z</time>
      </trkpt>
      <trkpt lat="47.46466" lon="6.78908">
        <ele>391.9</ele>
        <time>2016-01-10T10:26:43.000Z</time>
      </trkpt>
      <trkpt lat="47.46466" lon="6.78914">
        <ele>392.5</ele>
        <time>2016-01-10T10:26:44.000Z</time>
      </trkpt>
      <trkpt lat="47.46467" lon="6.78921">
        <ele>392.5</ele>
        <time>2016-01-10T10:26:45.000Z</time>
      </trkpt>
      <trkpt lat="47.46467" lon="6.78928">
        <ele>393.8</ele>
        <time>2016-01-10T10:26:46.000Z</time>
      </trkpt>
      <trkpt lat="47.46467" lon="6.78934">
        <ele>394</ele>
        <time>2016-01-10T10:26:47.000Z</time>
      </trkpt>
      <trkpt lat="47.46468" lon="6.7894">
        <ele>394.9</ele>
        <time>2016-01-10T10:26:48.000Z</time>
      </trkpt>
      <trkpt lat="47.46468" lon="6.78947">
        <ele>395.2</ele>
        <time>2016-01-10T10:26:49.000Z</time>
      </trkpt>
      <trkpt lat="47.46469" lon="6.78954">
        <ele>395.9</ele>
        <time>2016-01-10T10:26:50.000Z</time>
      </trkpt>
      <trkpt lat="47.46469" lon="6.78961">
        <ele>396.2</ele>
        <time>2016-01-10T10:26:51.000Z</time>
      </trkpt>
      <trkpt lat="47.4647" lon="6.78969">
        <ele>396.7</ele>
        <time>2016-01-10T10:26:52.000Z</time>
      </trkpt>
      <trkpt lat="47.4647" lon="6.78977">
        <ele>397.4</ele>
        <time>2016-01-10T10:26:53.000Z</time>
      </trkpt>
      <trkpt lat="47.4647" lon="6.78983">
        <ele>398.1</ele>
        <time>2016-01-10T10:26:54.000Z</time>
      </trkpt>
      <trkpt lat="47.46471" lon="6.7899">
        <ele>399.4</ele>
        <time>2016-01-10T10:26:55.000Z</time>
      </trkpt>
      <trkpt lat="47.46471" lon="6.78994">
        <ele>399.5</ele>
        <time>2016-01-10T10:26:56.000Z</time>
      </trkpt>
      <trkpt lat="47.46472" lon="6.78999">
        <ele>400</ele>
        <time>2016-01-10T10:26:57.000Z</time>
      </trkpt>
      <trkpt lat="47.46473" lon="6.79003">
        <ele>400.3</ele>
        <time>2016-01-10T10:26:58.000Z</time>
      </trkpt>
      <trkpt lat="47.46474" lon="6.79007">
        <ele>401</ele>
        <time>2016-01-10T10:26:59.000Z</time>
      </trkpt>
      <trkpt lat="47.46475" lon="6.79012">
        <ele>399.8</ele>
        <time>2016-01-10T10:27:00.000Z</time>
      </trkpt>
      <trkpt lat="47.46475" lon="6.79017">
        <ele>397.8</ele>
        <time>2016-01-10T10:27:01.000Z</time>
      </trkpt>
      <trkpt lat="47.46476" lon="6.79022">
        <ele>398.1</ele>
        <time>2016-01-10T10:27:02.000Z</time>
      </trkpt>
      <trkpt lat="47.46476" lon="6.79028">
        <ele>398.2</ele>
        <time>2016-01-10T10:27:03.000Z</time>
      </trkpt>
      <trkpt lat="47.46476" lon="6.79034">
        <ele>397.7</ele>
        <time>2016-01-10T10:27:04.000Z</time>
      </trkpt>
      <trkpt lat="47.46476" lon="6.7904">
        <ele>397.2</ele>
        <time>2016-01-10T10:27:05.000Z</time>
      </trkpt>
      <trkpt lat="47.46477" lon="6.79046">
        <ele>397.5</ele>
        <time>2016-01-10T10:27:06.000Z</time>
      </trkpt>
      <trkpt lat="47.46477" lon="6.79053">
        <ele>398.3</ele>
        <time>2016-01-10T10:27:07.000Z</time>
      </trkpt>
      <trkpt lat="47.46478" lon="6.79059">
        <ele>398.8</ele>
        <time>2016-01-10T10:27:08.000Z</time>
      </trkpt>
      <trkpt lat="47.46478" lon="6.79066">
        <ele>399</ele>
        <time>2016-01-10T10:27:09.000Z</time>
      </trkpt>
      <trkpt lat="47.46478" lon="6.79072">
        <ele>400.7</ele>
        <time>2016-01-10T10:27:10.000Z</time>
      </trkpt>
      <trkpt lat="47.46478" lon="6.79079">
        <ele>401.7</ele>
        <time>2016-01-10T10:27:11.000Z</time>
      </trkpt>
      <trkpt lat="47.46478" lon="6.79087">
        <ele>402.5</ele>
        <time>2016-01-10T10:27:12.000Z</time>
      </trkpt>
      <trkpt lat="47.46478" lon="6.79095">
        <ele>402.9</ele>
        <time>2016-01-10T10:27:13.000Z</time>
      </trkpt>
      <trkpt lat="47.46478" lon="6.79103">
        <ele>402.3</ele>
        <time>2016-01-10T10:27:14.000Z</time>
      </trkpt>
      <trkpt lat="47.46478" lon="6.79111">
        <ele>402.5</ele>
        <time>2016-01-10T10:27:15.000Z</time>
      </trkpt>
      <trkpt lat="47.46478" lon="6.79118">
        <ele>402.8</ele>
        <time>2016-01-10T10:27:16.000Z</time>
      </trkpt>
      <trkpt lat="47.46478" lon="6.79126">
        <ele>402.9</ele>
        <time>2016-01-10T10:27:17.000Z</time>
      </trkpt>
      <trkpt lat="47.46478" lon="6.79132">
        <ele>403.1</ele>
        <time>2016-01-10T10:27:18.000Z</time>
      </trkpt>
      <trkpt lat="47.46478" lon="6.79137">
        <ele>403.5</ele>
        <time>2016-01-10T10:27:19.000Z</time>
      </trkpt>
      <trkpt lat="47.46478" lon="6.79142">
        <ele>403.8</ele>
        <time>2016-01-10T10:27:20.000Z</time>
      </trkpt>
      <trkpt lat="47.46478" lon="6.79147">
        <ele>403.5</ele>
        <time>2016-01-10T10:27:21.000Z</time>
      </trkpt>
      <trkpt lat="47.46478" lon="6.79152">
        <ele>404.1</ele>
        <time>2016-01-10T10:27:22.000Z</time>
      </trkpt>
      <trkpt lat="47.46478" lon="6.79158">
        <ele>404.2</ele>
        <time>2016-01-10T10:27:23.000Z</time>
      </trkpt>
      <trkpt lat="47.46478" lon="6.79161">
        <ele>404.2</ele>
        <time>2016-01-10T10:27:23.998Z</time>
      </trkpt>
      <trkpt lat="47.46478" lon="6.79169">
        <ele>405</ele>
        <time>2016-01-10T10:27:25.000Z</time>
      </trkpt>
      <trkpt lat="47.46477" lon="6.79175">
        <ele>403.9</ele>
        <time>2016-01-10T10:27:26.000Z</time>
      </trkpt>
      <trkpt lat="47.46477" lon="6.79181">
        <ele>399.3</ele>
        <time>2016-01-10T10:27:27.000Z</time>
      </trkpt>
      <trkpt lat="47.46477" lon="6.79186">
        <ele>397.6</ele>
        <time>2016-01-10T10:27:28.000Z</time>
      </trkpt>
      <trkpt lat="47.46476" lon="6.79192">
        <ele>397.3</ele>
        <time>2016-01-10T10:27:29.000Z</time>
      </trkpt>
      <trkpt lat="47.46475" lon="6.79198">
        <ele>397.9</ele>
        <time>2016-01-10T10:27:30.000Z</time>
      </trkpt>
      <trkpt lat="47.46474" lon="6.79204">
        <ele>397.9</ele>
        <time>2016-01-10T10:27:31.000Z</time>
      </trkpt>
      <trkpt lat="47.46474" lon="6.79209">
        <ele>398.5</ele>
        <time>2016-01-10T10:27:32.000Z</time>
      </trkpt>
      <trkpt lat="47.46474" lon="6.79215">
        <ele>400.2</ele>
        <time>2016-01-10T10:27:33.000Z</time>
      </trkpt>
      <trkpt lat="47.46474" lon="6.79221">
        <ele>399.9</ele>
        <time>2016-01-10T10:27:34.000Z</time>
      </trkpt>
      <trkpt lat="47.46474" lon="6.79226">
        <ele>401.1</ele>
        <time>2016-01-10T10:27:35.000Z</time>
      </trkpt>
      <trkpt lat="47.46475" lon="6.79232">
        <ele>398.7</ele>
        <time>2016-01-10T10:27:36.000Z</time>
      </trkpt>
      <trkpt lat="47.46474" lon="6.79237">
        <ele>396.8</ele>
        <time>2016-01-10T10:27:37.000Z</time>
      </trkpt>
      <trkpt lat="47.46474" lon="6.79241">
        <ele>395.8</ele>
        <time>2016-01-10T10:27:38.000Z</time>
      </trkpt>
      <trkpt lat="47.46473" lon="6.79245">
        <ele>395.9</ele>
        <time>2016-01-10T10:27:39.000Z</time>
      </trkpt>
      <trkpt lat="47.46473" lon="6.79249">
        <ele>397.9</ele>
        <time>2016-01-10T10:27:40.000Z</time>
      </trkpt>
      <trkpt lat="47.46473" lon="6.79254">
        <ele>398.7</ele>
        <time>2016-01-10T10:27:41.000Z</time>
      </trkpt>
      <trkpt lat="47.46473" lon="6.79257">
        <ele>399.2</ele>
        <time>2016-01-10T10:27:42.000Z</time>
      </trkpt>
      <trkpt lat="47.46473" lon="6.79261">
        <ele>399.6</ele>
        <time>2016-01-10T10:27:43.000Z</time>
      </trkpt>
      <trkpt lat="47.46474" lon="6.79265">
        <ele>400.2</ele>
        <time>2016-01-10T10:27:44.000Z</time>
      </trkpt>
      <trkpt lat="47.46474" lon="6.79269">
        <ele>399.4</ele>
        <time>2016-01-10T10:27:45.000Z</time>
      </trkpt>
      <trkpt lat="47.46474" lon="6.79272">
        <ele>398.7</ele>
        <time>2016-01-10T10:27:46.000Z</time>
      </trkpt>
      <trkpt lat="47.46473" lon="6.79275">
        <ele>396.9</ele>
        <time>2016-01-10T10:27:47.000Z</time>
      </trkpt>
      <trkpt lat="47.46471" lon="6.79279">
        <ele>396.4</ele>
        <time>2016-01-10T10:27:49.000Z</time>
      </trkpt>
      <trkpt lat="47.4647" lon="6.79281">
        <ele>395.4</ele>
        <time>2016-01-10T10:27:50.000Z</time>
      </trkpt>
      <trkpt lat="47.46469" lon="6.79285">
        <ele>394.1</ele>
        <time>2016-01-10T10:27:52.000Z</time>
      </trkpt>
      <trkpt lat="47.46469" lon="6.79288">
        <ele>394.1</ele>
        <time>2016-01-10T10:27:53.000Z</time>
      </trkpt>
      <trkpt lat="47.46468" lon="6.79293">
        <ele>396.5</ele>
        <time>2016-01-10T10:27:55.000Z</time>
      </trkpt>
      <trkpt lat="47.46468" lon="6.79296">
        <ele>397.4</ele>
        <time>2016-01-10T10:27:56.000Z</time>
      </trkpt>
      <trkpt lat="47.46468" lon="6.79299">
        <ele>396.8</ele>
        <time>2016-01-10T10:27:57.000Z</time>
      </trkpt>
      <trkpt lat="47.46469" lon="6.79304">
        <ele>396.4</ele>
        <time>2016-01-10T10:27:58.000Z</time>
      </trkpt>
      <trkpt lat="47.46468" lon="6.79309">
        <ele>394</ele>
        <time>2016-01-10T10:27:59.000Z</time>
      </trkpt>
      <trkpt lat="47.46468" lon="6.79314">
        <ele>392.7</ele>
        <time>2016-01-10T10:28:00.000Z</time>
      </trkpt>
      <trkpt lat="47.46467" lon="6.7932">
        <ele>392.4</ele>
        <time>2016-01-10T10:28:01.000Z</time>
      </trkpt>
      <trkpt lat="47.46467" lon="6.79325">
        <ele>392.6</ele>
        <time>2016-01-10T10:28:02.000Z</time>
      </trkpt>
      <trkpt lat="47.46466" lon="6.7933">
        <ele>392.7</ele>
        <time>2016-01-10T10:28:03.000Z</time>
      </trkpt>
      <trkpt lat="47.46466" lon="6.79334">
        <ele>393.2</ele>
        <time>2016-01-10T10:28:04.000Z</time>
      </trkpt>
      <trkpt lat="47.46467" lon="6.79339">
        <ele>393.7</ele>
        <time>2016-01-10T10:28:05.000Z</time>
      </trkpt>
      <trkpt lat="47.46467" lon="6.79344">
        <ele>393.5</ele>
        <time>2016-01-10T10:28:06.000Z</time>
      </trkpt>
      <trkpt lat="47.46468" lon="6.79349">
        <ele>393.3</ele>
        <time>2016-01-10T10:28:07.000Z</time>
      </trkpt>
      <trkpt lat="47.46468" lon="6.79355">
        <ele>395.7</ele>
        <time>2016-01-10T10:28:08.000Z</time>
      </trkpt>
      <trkpt lat="47.46468" lon="6.79362">
        <ele>396.1</ele>
        <time>2016-01-10T10:28:09.000Z</time>
      </trkpt>
      <trkpt lat="47.46469" lon="6.79368">
        <ele>396.4</ele>
        <time>2016-01-10T10:28:10.000Z</time>
      </trkpt>
      <trkpt lat="47.46469" lon="6.79375">
        <ele>397.2</ele>
        <time>2016-01-10T10:28:11.000Z</time>
      </trkpt>
      <trkpt lat="47.46469" lon="6.79381">
        <ele>397.3</ele>
        <time>2016-01-10T10:28:12.000Z</time>
      </trkpt>
      <trkpt lat="47.46469" lon="6.79388">
        <ele>398.4</ele>
        <time>2016-01-10T10:28:13.000Z</time>
      </trkpt>
      <trkpt lat="47.46469" lon="6.79411">
        <ele>398.2</ele>
        <time>2016-01-10T10:28:14.000Z</time>
      </trkpt>
      <trkpt lat="47.46469" lon="6.79421">
        <ele>395.6</ele>
        <time>2016-01-10T10:28:15.000Z</time>
      </trkpt>
      <trkpt lat="47.46467" lon="6.79429">
        <ele>393.6</ele>
        <time>2016-01-10T10:28:16.000Z</time>
      </trkpt>
      <trkpt lat="47.46467" lon="6.79437">
        <ele>392.7</ele>
        <time>2016-01-10T10:28:17.000Z</time>
      </trkpt>
      <trkpt lat="47.46466" lon="6.79445">
        <ele>390.5</ele>
        <time>2016-01-10T10:28:18.000Z</time>
      </trkpt>
      <trkpt lat="47.46466" lon="6.79453">
        <ele>390.7</ele>
        <time>2016-01-10T10:28:19.000Z</time>
      </trkpt>
      <trkpt lat="47.46466" lon="6.79462">
        <ele>391.1</ele>
        <time>2016-01-10T10:28:20.000Z</time>
      </trkpt>
      <trkpt lat="47.46467" lon="6.79469">
        <ele>391.6</ele>
        <time>2016-01-10T10:28:21.000Z</time>
      </trkpt>
      <trkpt lat="47.46467" lon="6.79476">
        <ele>391.7</ele>
        <time>2016-01-10T10:28:22.000Z</time>
      </trkpt>
      <trkpt lat="47.46467" lon="6.79485">
        <ele>392.8</ele>
        <time>2016-01-10T10:28:23.000Z</time>
      </trkpt>
      <trkpt lat="47.46467" lon="6.79491">
        <ele>392.6</ele>
        <time>2016-01-10T10:28:24.000Z</time>
      </trkpt>
      <trkpt lat="47.46464" lon="6.79496">
        <ele>389.3</ele>
        <time>2016-01-10T10:28:25.000Z</time>
      </trkpt>
      <trkpt lat="47.46462" lon="6.79501">
        <ele>390.3</ele>
        <time>2016-01-10T10:28:26.000Z</time>
      </trkpt>
      <trkpt lat="47.46465" lon="6.79503">
        <ele>392.7</ele>
        <time>2016-01-10T10:28:27.000Z</time>
      </trkpt>
      <trkpt lat="47.46465" lon="6.79506">
        <ele>392.7</ele>
        <time>2016-01-10T10:28:28.000Z</time>
      </trkpt>
      <trkpt lat="47.46467" lon="6.79509">
        <ele>392.9</ele>
        <time>2016-01-10T10:28:29.000Z</time>
      </trkpt>
      <trkpt lat="47.46469" lon="6.79512">
        <ele>393.1</ele>
        <time>2016-01-10T10:28:30.000Z</time>
      </trkpt>
      <trkpt lat="47.4647" lon="6.79514">
        <ele>394</ele>
        <time>2016-01-10T10:28:31.000Z</time>
      </trkpt>
      <trkpt lat="47.46472" lon="6.79516">
        <ele>394.1</ele>
        <time>2016-01-10T10:28:32.000Z</time>
      </trkpt>
      <trkpt lat="47.46474" lon="6.79519">
        <ele>394.1</ele>
        <time>2016-01-10T10:28:33.000Z</time>
      </trkpt>
      <trkpt lat="47.46476" lon="6.79521">
        <ele>394.1</ele>
        <time>2016-01-10T10:28:34.000Z</time>
      </trkpt>
      <trkpt lat="47.46478" lon="6.79523">
        <ele>393.7</ele>
        <time>2016-01-10T10:28:35.000Z</time>
      </trkpt>
      <trkpt lat="47.4648" lon="6.79524">
        <ele>393.7</ele>
        <time>2016-01-10T10:28:36.000Z</time>
      </trkpt>
      <trkpt lat="47.46483" lon="6.79525">
        <ele>392.3</ele>
        <time>2016-01-10T10:28:37.000Z</time>
      </trkpt>
      <trkpt lat="47.46485" lon="6.79527">
        <ele>392.4</ele>
        <time>2016-01-10T10:28:38.000Z</time>
      </trkpt>
      <trkpt lat="47.46488" lon="6.79528">
        <ele>392.3</ele>
        <time>2016-01-10T10:28:39.000Z</time>
      </trkpt>
      <trkpt lat="47.46491" lon="6.7953">
        <ele>392.6</ele>
        <time>2016-01-10T10:28:40.000Z</time>
      </trkpt>
      <trkpt lat="47.46495" lon="6.79532">
        <ele>392.6</ele>
        <time>2016-01-10T10:28:41.000Z</time>
      </trkpt>
      <trkpt lat="47.46499" lon="6.79536">
        <ele>392</ele>
        <time>2016-01-10T10:28:42.000Z</time>
      </trkpt>
      <trkpt lat="47.46503" lon="6.7954">
        <ele>393</ele>
        <time>2016-01-10T10:28:43.000Z</time>
      </trkpt>
      <trkpt lat="47.46506" lon="6.79543">
        <ele>391.9</ele>
        <time>2016-01-10T10:28:44.000Z</time>
      </trkpt>
      <trkpt lat="47.46508" lon="6.79546">
        <ele>389.7</ele>
        <time>2016-01-10T10:28:45.000Z</time>
      </trkpt>
      <trkpt lat="47.46511" lon="6.79549">
        <ele>388.2</ele>
        <time>2016-01-10T10:28:47.000Z</time>
      </trkpt>
      <trkpt lat="47.46513" lon="6.7955">
        <ele>386.7</ele>
        <time>2016-01-10T10:28:48.000Z</time>
      </trkpt>
      <trkpt lat="47.46515" lon="6.79554">
        <ele>386.3</ele>
        <time>2016-01-10T10:28:50.000Z</time>
      </trkpt>
      <trkpt lat="47.46516" lon="6.79554">
        <ele>386.3</ele>
        <time>2016-01-10T10:28:51.000Z</time>
      </trkpt>
      <trkpt lat="47.4652" lon="6.79558">
        <ele>387.7</ele>
        <time>2016-01-10T10:29:01.000Z</time>
      </trkpt>
      <trkpt lat="47.46521" lon="6.79558">
        <ele>387.5</ele>
        <time>2016-01-10T10:29:02.000Z</time>
      </trkpt>
      <trkpt lat="47.46525" lon="6.79557">
        <ele>388.4</ele>
        <time>2016-01-10T10:29:06.000Z</time>
      </trkpt>
      <trkpt lat="47.46526" lon="6.79557">
        <ele>388.4</ele>
        <time>2016-01-10T10:29:07.000Z</time>
      </trkpt>
      <trkpt lat="47.4653" lon="6.79557">
        <ele>388.8</ele>
        <time>2016-01-10T10:29:11.000Z</time>
      </trkpt>
      <trkpt lat="47.46531" lon="6.79557">
        <ele>388.7</ele>
        <time>2016-01-10T10:29:12.000Z</time>
      </trkpt>
      <trkpt lat="47.46535" lon="6.79557">
        <ele>389.6</ele>
        <time>2016-01-10T10:29:22.000Z</time>
      </trkpt>
      <trkpt lat="47.46536" lon="6.79557">
        <ele>389.8</ele>
        <time>2016-01-10T10:29:23.000Z</time>
      </trkpt>
      <trkpt lat="47.46539" lon="6.79557">
        <ele>389.4</ele>
        <time>2016-01-10T10:29:25.000Z</time>
      </trkpt>
      <trkpt lat="47.46541" lon="6.79557">
        <ele>388.9</ele>
        <time>2016-01-10T10:29:26.000Z</time>
      </trkpt>
      <trkpt lat="47.46544" lon="6.79558">
        <ele>388.1</ele>
        <time>2016-01-10T10:29:28.000Z</time>
      </trkpt>
      <trkpt lat="47.46546" lon="6.79558">
        <ele>387.9</ele>
        <time>2016-01-10T10:29:29.000Z</time>
      </trkpt>
      <trkpt lat="47.46549" lon="6.79559">
        <ele>386.7</ele>
        <time>2016-01-10T10:29:31.000Z</time>
      </trkpt>
      <trkpt lat="47.46552" lon="6.79558">
        <ele>390</ele>
        <time>2016-01-10T10:29:32.000Z</time>
      </trkpt>
      <trkpt lat="47.46554" lon="6.79557">
        <ele>391</ele>
        <time>2016-01-10T10:29:33.000Z</time>
      </trkpt>
      <trkpt lat="47.46556" lon="6.79555">
        <ele>391.8</ele>
        <time>2016-01-10T10:29:34.000Z</time>
      </trkpt>
      <trkpt lat="47.4656" lon="6.79553">
        <ele>393.2</ele>
        <time>2016-01-10T10:29:36.000Z</time>
      </trkpt>
      <trkpt lat="47.46562" lon="6.79553">
        <ele>393.4</ele>
        <time>2016-01-10T10:29:37.000Z</time>
      </trkpt>
      <trkpt lat="47.46566" lon="6.79553">
        <ele>393.6</ele>
        <time>2016-01-10T10:29:39.000Z</time>
      </trkpt>
      <trkpt lat="47.46567" lon="6.79553">
        <ele>393.8</ele>
        <time>2016-01-10T10:29:40.000Z</time>
      </trkpt>
      <trkpt lat="47.4657" lon="6.79554">
        <ele>394.7</ele>
        <time>2016-01-10T10:29:42.000Z</time>
      </trkpt>
      <trkpt lat="47.46572" lon="6.79554">
        <ele>394.9</ele>
        <time>2016-01-10T10:29:43.000Z</time>
      </trkpt>
      <trkpt lat="47.46575" lon="6.79555">
        <ele>395.2</ele>
        <time>2016-01-10T10:29:45.000Z</time>
      </trkpt>
      <trkpt lat="47.46576" lon="6.79556">
        <ele>394.1</ele>
        <time>2016-01-10T10:29:46.000Z</time>
      </trkpt>
      <trkpt lat="47.46579" lon="6.79557">
        <ele>394.4</ele>
        <time>2016-01-10T10:29:48.000Z</time>
      </trkpt>
      <trkpt lat="47.46582" lon="6.79557">
        <ele>394.9</ele>
        <time>2016-01-10T10:29:49.000Z</time>
      </trkpt>
      <trkpt lat="47.46586" lon="6.79559">
        <ele>392.4</ele>
        <time>2016-01-10T10:29:52.000Z</time>
      </trkpt>
      <trkpt lat="47.46587" lon="6.7956">
        <ele>390.6</ele>
        <time>2016-01-10T10:29:53.000Z</time>
      </trkpt>
      <trkpt lat="47.4659" lon="6.79563">
        <ele>389.6</ele>
        <time>2016-01-10T10:29:56.000Z</time>
      </trkpt>
      <trkpt lat="47.46591" lon="6.79563">
        <ele>389</ele>
        <time>2016-01-10T10:29:57.000Z</time>
      </trkpt>
      <trkpt lat="47.46595" lon="6.79564">
        <ele>385.7</ele>
        <time>2016-01-10T10:30:00.000Z</time>
      </trkpt>
      <trkpt lat="47.46596" lon="6.79564">
        <ele>385.2</ele>
        <time>2016-01-10T10:30:01.000Z</time>
      </trkpt>
      <trkpt lat="47.466" lon="6.79564">
        <ele>386.2</ele>
        <time>2016-01-10T10:30:04.000Z</time>
      </trkpt>
      <trkpt lat="47.46601" lon="6.79563">
        <ele>386.1</ele>
        <time>2016-01-10T10:30:05.000Z</time>
      </trkpt>
      <trkpt lat="47.46605" lon="6.79562">
        <ele>386.7</ele>
        <time>2016-01-10T10:30:11.000Z</time>
      </trkpt>
      <trkpt lat="47.46606" lon="6.79561">
        <ele>386.6</ele>
        <time>2016-01-10T10:30:12.000Z</time>
      </trkpt>
      <trkpt lat="47.46609" lon="6.79559">
        <ele>386.2</ele>
        <time>2016-01-10T10:30:14.000Z</time>
      </trkpt>
      <trkpt lat="47.4661" lon="6.79559">
        <ele>386.5</ele>
        <time>2016-01-10T10:30:15.000Z</time>
      </trkpt>
      <trkpt lat="47.46613" lon="6.79557">
        <ele>388.7</ele>
        <time>2016-01-10T10:30:17.000Z</time>
      </trkpt>
      <trkpt lat="47.46615" lon="6.79556">
        <ele>388.5</ele>
        <time>2016-01-10T10:30:18.000Z</time>
      </trkpt>
      <trkpt lat="47.46617" lon="6.79557">
        <ele>386.1</ele>
        <time>2016-01-10T10:30:19.000Z</time>
      </trkpt>
      <trkpt lat="47.4662" lon="6.79558">
        <ele>385</ele>
        <time>2016-01-10T10:30:20.000Z</time>
      </trkpt>
      <trkpt lat="47.46622" lon="6.7956">
        <ele>384.6</ele>
        <time>2016-01-10T10:30:21.000Z</time>
      </trkpt>
      <trkpt lat="47.46625" lon="6.79561">
        <ele>384.8</ele>
        <time>2016-01-10T10:30:22.000Z</time>
      </trkpt>
      <trkpt lat="47.46627" lon="6.79562">
        <ele>386.1</ele>
        <time>2016-01-10T10:30:23.000Z</time>
      </trkpt>
      <trkpt lat="47.4663" lon="6.79561">
        <ele>386.3</ele>
        <time>2016-01-10T10:30:24.000Z</time>
      </trkpt>
      <trkpt lat="47.46632" lon="6.7956">
        <ele>386.2</ele>
        <time>2016-01-10T10:30:25.000Z</time>
      </trkpt>
      <trkpt lat="47.46634" lon="6.79559">
        <ele>386.4</ele>
        <time>2016-01-10T10:30:26.000Z</time>
      </trkpt>
      <trkpt lat="47.46637" lon="6.79558">
        <ele>386.4</ele>
        <time>2016-01-10T10:30:27.000Z</time>
      </trkpt>
      <trkpt lat="47.46639" lon="6.79556">
        <ele>387.7</ele>
        <time>2016-01-10T10:30:28.000Z</time>
      </trkpt>
      <trkpt lat="47.46642" lon="6.79554">
        <ele>387.7</ele>
        <time>2016-01-10T10:30:30.000Z</time>
      </trkpt>
      <trkpt lat="47.46644" lon="6.79553">
        <ele>388.6</ele>
        <time>2016-01-10T10:30:31.000Z</time>
      </trkpt>
      <trkpt lat="47.46646" lon="6.79552">
        <ele>388.9</ele>
        <time>2016-01-10T10:30:32.000Z</time>
      </trkpt>
      <trkpt lat="47.46649" lon="6.79551">
        <ele>390.2</ele>
        <time>2016-01-10T10:30:33.000Z</time>
      </trkpt>
      <trkpt lat="47.46652" lon="6.7955">
        <ele>390.4</ele>
        <time>2016-01-10T10:30:34.000Z</time>
      </trkpt>
      <trkpt lat="47.46655" lon="6.79548">
        <ele>390.4</ele>
        <time>2016-01-10T10:30:35.000Z</time>
      </trkpt>
      <trkpt lat="47.46658" lon="6.79547">
        <ele>389.8</ele>
        <time>2016-01-10T10:30:36.000Z</time>
      </trkpt>
      <trkpt lat="47.46662" lon="6.79545">
        <ele>388</ele>
        <time>2016-01-10T10:30:37.000Z</time>
      </trkpt>
      <trkpt lat="47.46665" lon="6.79543">
        <ele>387.3</ele>
        <time>2016-01-10T10:30:38.000Z</time>
      </trkpt>
      <trkpt lat="47.46668" lon="6.79542">
        <ele>387.6</ele>
        <time>2016-01-10T10:30:39.000Z</time>
      </trkpt>
      <trkpt lat="47.46671" lon="6.7954">
        <ele>389.2</ele>
        <time>2016-01-10T10:30:40.000Z</time>
      </trkpt>
      <trkpt lat="47.46673" lon="6.79538">
        <ele>389.9</ele>
        <time>2016-01-10T10:30:41.000Z</time>
      </trkpt>
      <trkpt lat="47.46675" lon="6.79536">
        <ele>389.8</ele>
        <time>2016-01-10T10:30:42.000Z</time>
      </trkpt>
      <trkpt lat="47.46677" lon="6.79534">
        <ele>390.3</ele>
        <time>2016-01-10T10:30:43.000Z</time>
      </trkpt>
      <trkpt lat="47.46679" lon="6.79531">
        <ele>390.5</ele>
        <time>2016-01-10T10:30:44.000Z</time>
      </trkpt>
      <trkpt lat="47.46681" lon="6.79529">
        <ele>390.3</ele>
        <time>2016-01-10T10:30:45.000Z</time>
      </trkpt>
      <trkpt lat="47.46683" lon="6.79527">
        <ele>391.5</ele>
        <time>2016-01-10T10:30:46.000Z</time>
      </trkpt>
      <trkpt lat="47.46685" lon="6.79525">
        <ele>390.6</ele>
        <time>2016-01-10T10:30:47.000Z</time>
      </trkpt>
      <trkpt lat="47.46688" lon="6.79523">
        <ele>390.4</ele>
        <time>2016-01-10T10:30:48.000Z</time>
      </trkpt>
      <trkpt lat="47.4669" lon="6.7952">
        <ele>391.1</ele>
        <time>2016-01-10T10:30:49.000Z</time>
      </trkpt>
      <trkpt lat="47.46692" lon="6.79518">
        <ele>390</ele>
        <time>2016-01-10T10:30:50.000Z</time>
      </trkpt>
      <trkpt lat="47.46694" lon="6.79516">
        <ele>387.6</ele>
        <time>2016-01-10T10:30:51.000Z</time>
      </trkpt>
      <trkpt lat="47.46696" lon="6.79514">
        <ele>385.7</ele>
        <time>2016-01-10T10:30:52.000Z</time>
      </trkpt>
      <trkpt lat="47.46698" lon="6.79512">
        <ele>384.2</ele>
        <time>2016-01-10T10:30:53.000Z</time>
      </trkpt>
      <trkpt lat="47.467" lon="6.79509">
        <ele>384.2</ele>
        <time>2016-01-10T10:30:54.000Z</time>
      </trkpt>
      <trkpt lat="47.46703" lon="6.79506">
        <ele>383.1</ele>
        <time>2016-01-10T10:30:55.000Z</time>
      </trkpt>
      <trkpt lat="47.46706" lon="6.79502">
        <ele>382.8</ele>
        <time>2016-01-10T10:30:56.000Z</time>
      </trkpt>
      <trkpt lat="47.46708" lon="6.79498">
        <ele>382.5</ele>
        <time>2016-01-10T10:30:57.000Z</time>
      </trkpt>
      <trkpt lat="47.46711" lon="6.79494">
        <ele>382.2</ele>
        <time>2016-01-10T10:30:58.000Z</time>
      </trkpt>
      <trkpt lat="47.46714" lon="6.7949">
        <ele>381.7</ele>
        <time>2016-01-10T10:30:59.000Z</time>
      </trkpt>
      <trkpt lat="47.46717" lon="6.79485">
        <ele>381.5</ele>
        <time>2016-01-10T10:31:00.000Z</time>
      </trkpt>
      <trkpt lat="47.4672" lon="6.79481">
        <ele>383</ele>
        <time>2016-01-10T10:31:01.000Z</time>
      </trkpt>
      <trkpt lat="47.46723" lon="6.79477">
        <ele>380.4</ele>
        <time>2016-01-10T10:31:02.000Z</time>
      </trkpt>
      <trkpt lat="47.46725" lon="6.79473">
        <ele>379.2</ele>
        <time>2016-01-10T10:31:03.000Z</time>
      </trkpt>
      <trkpt lat="47.46728" lon="6.79469">
        <ele>378.3</ele>
        <time>2016-01-10T10:31:04.000Z</time>
      </trkpt>
      <trkpt lat="47.46732" lon="6.79464">
        <ele>377.7</ele>
        <time>2016-01-10T10:31:05.000Z</time>
      </trkpt>
      <trkpt lat="47.46734" lon="6.79459">
        <ele>377.5</ele>
        <time>2016-01-10T10:31:06.000Z</time>
      </trkpt>
      <trkpt lat="47.46737" lon="6.79454">
        <ele>377.3</ele>
        <time>2016-01-10T10:31:07.000Z</time>
      </trkpt>
      <trkpt lat="47.46739" lon="6.79448">
        <ele>378.2</ele>
        <time>2016-01-10T10:31:08.000Z</time>
      </trkpt>
      <trkpt lat="47.46742" lon="6.79442">
        <ele>378.4</ele>
        <time>2016-01-10T10:31:09.000Z</time>
      </trkpt>
      <trkpt lat="47.46744" lon="6.79435">
        <ele>377.5</ele>
        <time>2016-01-10T10:31:10.000Z</time>
      </trkpt>
      <trkpt lat="47.46746" lon="6.79429">
        <ele>377.5</ele>
        <time>2016-01-10T10:31:11.000Z</time>
      </trkpt>
      <trkpt lat="47.46748" lon="6.79423">
        <ele>377.4</ele>
        <time>2016-01-10T10:31:12.000Z</time>
      </trkpt>
      <trkpt lat="47.46749" lon="6.79416">
        <ele>377.3</ele>
        <time>2016-01-10T10:31:13.000Z</time>
      </trkpt>
      <trkpt lat="47.46757" lon="6.79399">
        <ele>375.4</ele>
        <time>2016-01-10T10:31:14.000Z</time>
      </trkpt>
      <trkpt lat="47.46758" lon="6.79391">
        <ele>374.6</ele>
        <time>2016-01-10T10:31:15.000Z</time>
      </trkpt>
      <trkpt lat="47.4676" lon="6.79385">
        <ele>374.4</ele>
        <time>2016-01-10T10:31:16.000Z</time>
      </trkpt>
      <trkpt lat="47.46763" lon="6.79378">
        <ele>376.2</ele>
        <time>2016-01-10T10:31:17.000Z</time>
      </trkpt>
      <trkpt lat="47.46763" lon="6.79371">
        <ele>376.1</ele>
        <time>2016-01-10T10:31:18.000Z</time>
      </trkpt>
      <trkpt lat="47.46765" lon="6.79364">
        <ele>375.5</ele>
        <time>2016-01-10T10:31:19.000Z</time>
      </trkpt>
      <trkpt lat="47.46763" lon="6.79356">
        <ele>377.8</ele>
        <time>2016-01-10T10:31:20.000Z</time>
      </trkpt>
      <trkpt lat="47.46763" lon="6.79349">
        <ele>376.7</ele>
        <time>2016-01-10T10:31:21.000Z</time>
      </trkpt>
      <trkpt lat="47.46764" lon="6.79341">
        <ele>377</ele>
        <time>2016-01-10T10:31:22.000Z</time>
      </trkpt>
      <trkpt lat="47.46765" lon="6.79332">
        <ele>377.3</ele>
        <time>2016-01-10T10:31:23.000Z</time>
      </trkpt>
      <trkpt lat="47.46766" lon="6.79326">
        <ele>378.3</ele>
        <time>2016-01-10T10:31:24.000Z</time>
      </trkpt>
      <trkpt lat="47.46767" lon="6.79319">
        <ele>377.7</ele>
        <time>2016-01-10T10:31:25.000Z</time>
      </trkpt>
      <trkpt lat="47.46767" lon="6.79314">
        <ele>377.7</ele>
        <time>2016-01-10T10:31:25.998Z</time>
      </trkpt>
      <trkpt lat="47.46765" lon="6.79307">
        <ele>377.5</ele>
        <time>2016-01-10T10:31:27.000Z</time>
      </trkpt>
      <trkpt lat="47.46764" lon="6.79301">
        <ele>373.7</ele>
        <time>2016-01-10T10:31:28.000Z</time>
      </trkpt>
      <trkpt lat="47.46765" lon="6.79295">
        <ele>374.9</ele>
        <time>2016-01-10T10:31:29.000Z</time>
      </trkpt>
      <trkpt lat="47.4677" lon="6.79278">
        <ele>377.3</ele>
        <time>2016-01-10T10:31:30.000Z</time>
      </trkpt>
      <trkpt lat="47.46772" lon="6.7927">
        <ele>379</ele>
        <time>2016-01-10T10:31:31.000Z</time>
      </trkpt>
      <trkpt lat="47.46772" lon="6.79264">
        <ele>380.3</ele>
        <time>2016-01-10T10:31:32.000Z</time>
      </trkpt>
      <trkpt lat="47.46773" lon="6.7926">
        <ele>380.6</ele>
        <time>2016-01-10T10:31:33.000Z</time>
      </trkpt>
      <trkpt lat="47.46772" lon="6.79254">
        <ele>380.5</ele>
        <time>2016-01-10T10:31:34.000Z</time>
      </trkpt>
      <trkpt lat="47.46771" lon="6.79247">
        <ele>379.9</ele>
        <time>2016-01-10T10:31:35.000Z</time>
      </trkpt>
      <trkpt lat="47.46771" lon="6.79241">
        <ele>379.8</ele>
        <time>2016-01-10T10:31:36.000Z</time>
      </trkpt>
      <trkpt lat="47.46771" lon="6.79235">
        <ele>379.8</ele>
        <time>2016-01-10T10:31:37.000Z</time>
      </trkpt>
      <trkpt lat="47.4677" lon="6.79228">
        <ele>379.1</ele>
        <time>2016-01-10T10:31:38.000Z</time>
      </trkpt>
      <trkpt lat="47.46772" lon="6.7922">
        <ele>378.3</ele>
        <time>2016-01-10T10:31:39.000Z</time>
      </trkpt>
      <trkpt lat="47.46772" lon="6.79215">
        <ele>378</ele>
        <time>2016-01-10T10:31:40.000Z</time>
      </trkpt>
      <trkpt lat="47.46772" lon="6.7921">
        <ele>378.6</ele>
        <time>2016-01-10T10:31:41.000Z</time>
      </trkpt>
      <trkpt lat="47.46772" lon="6.79205">
        <ele>379.2</ele>
        <time>2016-01-10T10:31:42.000Z</time>
      </trkpt>
      <trkpt lat="47.46772" lon="6.79201">
        <ele>383.3</ele>
        <time>2016-01-10T10:31:43.000Z</time>
      </trkpt>
      <trkpt lat="47.46772" lon="6.79196">
        <ele>384.9</ele>
        <time>2016-01-10T10:31:44.000Z</time>
      </trkpt>
      <trkpt lat="47.46771" lon="6.79191">
        <ele>384.7</ele>
        <time>2016-01-10T10:31:45.000Z</time>
      </trkpt>
      <trkpt lat="47.46771" lon="6.79187">
        <ele>384.5</ele>
        <time>2016-01-10T10:31:46.000Z</time>
      </trkpt>
      <trkpt lat="47.46772" lon="6.79182">
        <ele>385.3</ele>
        <time>2016-01-10T10:31:47.000Z</time>
      </trkpt>
      <trkpt lat="47.46772" lon="6.79178">
        <ele>384.3</ele>
        <time>2016-01-10T10:31:48.000Z</time>
      </trkpt>
      <trkpt lat="47.46772" lon="6.79173">
        <ele>383.7</ele>
        <time>2016-01-10T10:31:49.000Z</time>
      </trkpt>
      <trkpt lat="47.46772" lon="6.79169">
        <ele>382.7</ele>
        <time>2016-01-10T10:31:50.000Z</time>
      </trkpt>
      <trkpt lat="47.46772" lon="6.79164">
        <ele>381.6</ele>
        <time>2016-01-10T10:31:51.000Z</time>
      </trkpt>
      <trkpt lat="47.46773" lon="6.7916">
        <ele>381.4</ele>
        <time>2016-01-10T10:31:52.000Z</time>
      </trkpt>
      <trkpt lat="47.46773" lon="6.79155">
        <ele>381</ele>
        <time>2016-01-10T10:31:53.000Z</time>
      </trkpt>
      <trkpt lat="47.46773" lon="6.7915">
        <ele>380.8</ele>
        <time>2016-01-10T10:31:54.000Z</time>
      </trkpt>
      <trkpt lat="47.46773" lon="6.79146">
        <ele>379.3</ele>
        <time>2016-01-10T10:31:55.000Z</time>
      </trkpt>
      <trkpt lat="47.46773" lon="6.79141">
        <ele>379.3</ele>
        <time>2016-01-10T10:31:56.000Z</time>
      </trkpt>
      <trkpt lat="47.46773" lon="6.79136">
        <ele>380</ele>
        <time>2016-01-10T10:31:57.000Z</time>
      </trkpt>
      <trkpt lat="47.46772" lon="6.79132">
        <ele>379.8</ele>
        <time>2016-01-10T10:31:58.000Z</time>
      </trkpt>
      <trkpt lat="47.46771" lon="6.79129">
        <ele>380</ele>
        <time>2016-01-10T10:31:59.000Z</time>
      </trkpt>
      <trkpt lat="47.4677" lon="6.79125">
        <ele>381.6</ele>
        <time>2016-01-10T10:32:00.000Z</time>
      </trkpt>
      <trkpt lat="47.46769" lon="6.79122">
        <ele>382.4</ele>
        <time>2016-01-10T10:32:01.000Z</time>
      </trkpt>
      <trkpt lat="47.46768" lon="6.79119">
        <ele>382.7</ele>
        <time>2016-01-10T10:32:02.000Z</time>
      </trkpt>
      <trkpt lat="47.46767" lon="6.79116">
        <ele>383.3</ele>
        <time>2016-01-10T10:32:03.000Z</time>
      </trkpt>
      <trkpt lat="47.46765" lon="6.79111">
        <ele>382</ele>
        <time>2016-01-10T10:32:05.000Z</time>
      </trkpt>
      <trkpt lat="47.46764" lon="6.79108">
        <ele>381.2</ele>
        <time>2016-01-10T10:32:06.000Z</time>
      </trkpt>
      <trkpt lat="47.46763" lon="6.79102">
        <ele>381</ele>
        <time>2016-01-10T10:32:08.000Z</time>
      </trkpt>
      <trkpt lat="47.46762" lon="6.79099">
        <ele>382.1</ele>
        <time>2016-01-10T10:32:09.000Z</time>
      </trkpt>
      <trkpt lat="47.46761" lon="6.79096">
        <ele>382.2</ele>
        <time>2016-01-10T10:32:10.000Z</time>
      </trkpt>
      <trkpt lat="47.4676" lon="6.79092">
        <ele>381.7</ele>
        <time>2016-01-10T10:32:11.000Z</time>
      </trkpt>
      <trkpt lat="47.46759" lon="6.79089">
        <ele>382</ele>
        <time>2016-01-10T10:32:12.000Z</time>
      </trkpt>
      <trkpt lat="47.46759" lon="6.79085">
        <ele>382</ele>
        <time>2016-01-10T10:32:13.000Z</time>
      </trkpt>
      <trkpt lat="47.46758" lon="6.79082">
        <ele>384.3</ele>
        <time>2016-01-10T10:32:14.000Z</time>
      </trkpt>
      <trkpt lat="47.46757" lon="6.79078">
        <ele>384.2</ele>
        <time>2016-01-10T10:32:15.000Z</time>
      </trkpt>
      <trkpt lat="47.46756" lon="6.79073">
        <ele>384.2</ele>
        <time>2016-01-10T10:32:16.000Z</time>
      </trkpt>
      <trkpt lat="47.46756" lon="6.79069">
        <ele>384</ele>
        <time>2016-01-10T10:32:17.000Z</time>
      </trkpt>
      <trkpt lat="47.46756" lon="6.79065">
        <ele>384.1</ele>
        <time>2016-01-10T10:32:18.000Z</time>
      </trkpt>
      <trkpt lat="47.46756" lon="6.79061">
        <ele>383.1</ele>
        <time>2016-01-10T10:32:19.000Z</time>
      </trkpt>
      <trkpt lat="47.46755" lon="6.79057">
        <ele>381.2</ele>
        <time>2016-01-10T10:32:20.000Z</time>
      </trkpt>
      <trkpt lat="47.46754" lon="6.79052">
        <ele>380.8</ele>
        <time>2016-01-10T10:32:21.000Z</time>
      </trkpt>
      <trkpt lat="47.46753" lon="6.79048">
        <ele>380.1</ele>
        <time>2016-01-10T10:32:22.000Z</time>
      </trkpt>
      <trkpt lat="47.46753" lon="6.79044">
        <ele>381.2</ele>
        <time>2016-01-10T10:32:23.000Z</time>
      </trkpt>
      <trkpt lat="47.46753" lon="6.79039">
        <ele>381.8</ele>
        <time>2016-01-10T10:32:24.000Z</time>
      </trkpt>
      <trkpt lat="47.46752" lon="6.79035">
        <ele>380.9</ele>
        <time>2016-01-10T10:32:25.000Z</time>
      </trkpt>
      <trkpt lat="47.46752" lon="6.79031">
        <ele>380.2</ele>
        <time>2016-01-10T10:32:26.000Z</time>
      </trkpt>
      <trkpt lat="47.46751" lon="6.79027">
        <ele>381.9</ele>
        <time>2016-01-10T10:32:27.000Z</time>
      </trkpt>
      <trkpt lat="47.46751" lon="6.79023">
        <ele>382.3</ele>
        <time>2016-01-10T10:32:28.000Z</time>
      </trkpt>
      <trkpt lat="47.46751" lon="6.79019">
        <ele>382.1</ele>
        <time>2016-01-10T10:32:29.000Z</time>
      </trkpt>
      <trkpt lat="47.46752" lon="6.79015">
        <ele>378.9</ele>
        <time>2016-01-10T10:32:30.000Z</time>
      </trkpt>
      <trkpt lat="47.46752" lon="6.7901">
        <ele>378.1</ele>
        <time>2016-01-10T10:32:31.000Z</time>
      </trkpt>
      <trkpt lat="47.46752" lon="6.79006">
        <ele>377.6</ele>
        <time>2016-01-10T10:32:32.000Z</time>
      </trkpt>
      <trkpt lat="47.46752" lon="6.79001">
        <ele>377.5</ele>
        <time>2016-01-10T10:32:33.000Z</time>
      </trkpt>
      <trkpt lat="47.46752" lon="6.78996">
        <ele>377.1</ele>
        <time>2016-01-10T10:32:34.000Z</time>
      </trkpt>
      <trkpt lat="47.46752" lon="6.78991">
        <ele>376.9</ele>
        <time>2016-01-10T10:32:35.000Z</time>
      </trkpt>
      <trkpt lat="47.46752" lon="6.78987">
        <ele>376.1</ele>
        <time>2016-01-10T10:32:36.000Z</time>
      </trkpt>
      <trkpt lat="47.46751" lon="6.78982">
        <ele>375.9</ele>
        <time>2016-01-10T10:32:37.000Z</time>
      </trkpt>
      <trkpt lat="47.46751" lon="6.78976">
        <ele>376.3</ele>
        <time>2016-01-10T10:32:38.000Z</time>
      </trkpt>
      <trkpt lat="47.46748" lon="6.78959">
        <ele>379.2</ele>
        <time>2016-01-10T10:32:39.000Z</time>
      </trkpt>
      <trkpt lat="47.46747" lon="6.78953">
        <ele>379.3</ele>
        <time>2016-01-10T10:32:40.000Z</time>
      </trkpt>
      <trkpt lat="47.46749" lon="6.78947">
        <ele>378.4</ele>
        <time>2016-01-10T10:32:41.000Z</time>
      </trkpt>
      <trkpt lat="47.46748" lon="6.78943">
        <ele>378.1</ele>
        <time>2016-01-10T10:32:42.000Z</time>
      </trkpt>
      <trkpt lat="47.46745" lon="6.78941">
        <ele>379.7</ele>
        <time>2016-01-10T10:32:43.000Z</time>
      </trkpt>
      <trkpt lat="47.46745" lon="6.78938">
        <ele>379.8</ele>
        <time>2016-01-10T10:32:44.000Z</time>
      </trkpt>
      <trkpt lat="47.46744" lon="6.78933">
        <ele>380.4</ele>
        <time>2016-01-10T10:32:45.000Z</time>
      </trkpt>
      <trkpt lat="47.46743" lon="6.78929">
        <ele>380.7</ele>
        <time>2016-01-10T10:32:46.000Z</time>
      </trkpt>
      <trkpt lat="47.46743" lon="6.78924">
        <ele>380.2</ele>
        <time>2016-01-10T10:32:47.000Z</time>
      </trkpt>
      <trkpt lat="47.46742" lon="6.78919">
        <ele>380.3</ele>
        <time>2016-01-10T10:32:48.000Z</time>
      </trkpt>
      <trkpt lat="47.4674" lon="6.78916">
        <ele>380.1</ele>
        <time>2016-01-10T10:32:49.000Z</time>
      </trkpt>
      <trkpt lat="47.46738" lon="6.78912">
        <ele>378.5</ele>
        <time>2016-01-10T10:32:50.000Z</time>
      </trkpt>
      <trkpt lat="47.46737" lon="6.78909">
        <ele>377.7</ele>
        <time>2016-01-10T10:32:51.000Z</time>
      </trkpt>
      <trkpt lat="47.46736" lon="6.78906">
        <ele>377.4</ele>
        <time>2016-01-10T10:32:52.000Z</time>
      </trkpt>
      <trkpt lat="47.46734" lon="6.78902">
        <ele>380.5</ele>
        <time>2016-01-10T10:32:53.000Z</time>
      </trkpt>
      <trkpt lat="47.46733" lon="6.78898">
        <ele>378.8</ele>
        <time>2016-01-10T10:32:54.000Z</time>
      </trkpt>
      <trkpt lat="47.46732" lon="6.78894">
        <ele>379.4</ele>
        <time>2016-01-10T10:32:55.000Z</time>
      </trkpt>
      <trkpt lat="47.46731" lon="6.7889">
        <ele>379.2</ele>
        <time>2016-01-10T10:32:56.000Z</time>
      </trkpt>
      <trkpt lat="47.4673" lon="6.78885">
        <ele>379.1</ele>
        <time>2016-01-10T10:32:57.000Z</time>
      </trkpt>
      <trkpt lat="47.46729" lon="6.78881">
        <ele>378.2</ele>
        <time>2016-01-10T10:32:58.000Z</time>
      </trkpt>
      <trkpt lat="47.46728" lon="6.78876">
        <ele>378.1</ele>
        <time>2016-01-10T10:32:59.000Z</time>
      </trkpt>
      <trkpt lat="47.46727" lon="6.78872">
        <ele>377.6</ele>
        <time>2016-01-10T10:33:00.000Z</time>
      </trkpt>
      <trkpt lat="47.46725" lon="6.78869">
        <ele>377.7</ele>
        <time>2016-01-10T10:33:01.000Z</time>
      </trkpt>
      <trkpt lat="47.46724" lon="6.78865">
        <ele>376.9</ele>
        <time>2016-01-10T10:33:02.000Z</time>
      </trkpt>
      <trkpt lat="47.46722" lon="6.78861">
        <ele>376.7</ele>
        <time>2016-01-10T10:33:03.000Z</time>
      </trkpt>
      <trkpt lat="47.46721" lon="6.78858">
        <ele>377</ele>
        <time>2016-01-10T10:33:04.000Z</time>
      </trkpt>
      <trkpt lat="47.46719" lon="6.78855">
        <ele>377.4</ele>
        <time>2016-01-10T10:33:05.000Z</time>
      </trkpt>
      <trkpt lat="47.46716" lon="6.78851">
        <ele>379.3</ele>
        <time>2016-01-10T10:33:07.000Z</time>
      </trkpt>
      <trkpt lat="47.46714" lon="6.78849">
        <ele>380.9</ele>
        <time>2016-01-10T10:33:08.000Z</time>
      </trkpt>
      <trkpt lat="47.46711" lon="6.78845">
        <ele>380.7</ele>
        <time>2016-01-10T10:33:10.000Z</time>
      </trkpt>
      <trkpt lat="47.46711" lon="6.78842">
        <ele>380</ele>
        <time>2016-01-10T10:33:11.000Z</time>
      </trkpt>
      <trkpt lat="47.46711" lon="6.78839">
        <ele>379.3</ele>
        <time>2016-01-10T10:33:12.000Z</time>
      </trkpt>
      <trkpt lat="47.46712" lon="6.78835">
        <ele>375.8</ele>
        <time>2016-01-10T10:33:13.000Z</time>
      </trkpt>
      <trkpt lat="47.46714" lon="6.78831">
        <ele>374.5</ele>
        <time>2016-01-10T10:33:14.000Z</time>
      </trkpt>
      <trkpt lat="47.46715" lon="6.78827">
        <ele>374.1</ele>
        <time>2016-01-10T10:33:15.000Z</time>
      </trkpt>
      <trkpt lat="47.46717" lon="6.78824">
        <ele>373</ele>
        <time>2016-01-10T10:33:16.000Z</time>
      </trkpt>
      <trkpt lat="47.46719" lon="6.7882">
        <ele>372</ele>
        <time>2016-01-10T10:33:17.000Z</time>
      </trkpt>
      <trkpt lat="47.46721" lon="6.78817">
        <ele>373.6</ele>
        <time>2016-01-10T10:33:18.000Z</time>
      </trkpt>
      <trkpt lat="47.46723" lon="6.78812">
        <ele>373.2</ele>
        <time>2016-01-10T10:33:19.000Z</time>
      </trkpt>
      <trkpt lat="47.46724" lon="6.78808">
        <ele>373.3</ele>
        <time>2016-01-10T10:33:20.000Z</time>
      </trkpt>
      <trkpt lat="47.46725" lon="6.78804">
        <ele>373.5</ele>
        <time>2016-01-10T10:33:21.000Z</time>
      </trkpt>
      <trkpt lat="47.46726" lon="6.78801">
        <ele>373.4</ele>
        <time>2016-01-10T10:33:22.000Z</time>
      </trkpt>
      <trkpt lat="47.46727" lon="6.78797">
        <ele>372</ele>
        <time>2016-01-10T10:33:23.000Z</time>
      </trkpt>
      <trkpt lat="47.46728" lon="6.78794">
        <ele>371.7</ele>
        <time>2016-01-10T10:33:24.000Z</time>
      </trkpt>
      <trkpt lat="47.46729" lon="6.78791">
        <ele>371.7</ele>
        <time>2016-01-10T10:33:25.000Z</time>
      </trkpt>
      <trkpt lat="47.4673" lon="6.78788">
        <ele>371.7</ele>
        <time>2016-01-10T10:33:26.000Z</time>
      </trkpt>
      <trkpt lat="47.46731" lon="6.78784">
        <ele>373.8</ele>
        <time>2016-01-10T10:33:27.000Z</time>
      </trkpt>
      <trkpt lat="47.46733" lon="6.78779">
        <ele>373.9</ele>
        <time>2016-01-10T10:33:28.000Z</time>
      </trkpt>
      <trkpt lat="47.46734" lon="6.78774">
        <ele>373.8</ele>
        <time>2016-01-10T10:33:29.000Z</time>
      </trkpt>
      <trkpt lat="47.46735" lon="6.78769">
        <ele>373.2</ele>
        <time>2016-01-10T10:33:30.000Z</time>
      </trkpt>
      <trkpt lat="47.46734" lon="6.78764">
        <ele>373.2</ele>
        <time>2016-01-10T10:33:31.000Z</time>
      </trkpt>
      <trkpt lat="47.46734" lon="6.78759">
        <ele>374.7</ele>
        <time>2016-01-10T10:33:32.000Z</time>
      </trkpt>
      <trkpt lat="47.46733" lon="6.78755">
        <ele>376</ele>
        <time>2016-01-10T10:33:33.000Z</time>
      </trkpt>
      <trkpt lat="47.46732" lon="6.78751">
        <ele>375.9</ele>
        <time>2016-01-10T10:33:34.000Z</time>
      </trkpt>
      <trkpt lat="47.46731" lon="6.78747">
        <ele>375.5</ele>
        <time>2016-01-10T10:33:35.000Z</time>
      </trkpt>
      <trkpt lat="47.4673" lon="6.78743">
        <ele>374.2</ele>
        <time>2016-01-10T10:33:36.000Z</time>
      </trkpt>
      <trkpt lat="47.46729" lon="6.78738">
        <ele>374.3</ele>
        <time>2016-01-10T10:33:37.000Z</time>
      </trkpt>
      <trkpt lat="47.46729" lon="6.78734">
        <ele>374.5</ele>
        <time>2016-01-10T10:33:38.000Z</time>
      </trkpt>
      <trkpt lat="47.46728" lon="6.7873">
        <ele>373.4</ele>
        <time>2016-01-10T10:33:39.000Z</time>
      </trkpt>
      <trkpt lat="47.46727" lon="6.78726">
        <ele>372.2</ele>
        <time>2016-01-10T10:33:40.000Z</time>
      </trkpt>
      <trkpt lat="47.46726" lon="6.78722">
        <ele>370.6</ele>
        <time>2016-01-10T10:33:41.000Z</time>
      </trkpt>
      <trkpt lat="47.46726" lon="6.78718">
        <ele>370</ele>
        <time>2016-01-10T10:33:42.000Z</time>
      </trkpt>
      <trkpt lat="47.46725" lon="6.78715">
        <ele>369.7</ele>
        <time>2016-01-10T10:33:43.000Z</time>
      </trkpt>
      <trkpt lat="47.46725" lon="6.78708">
        <ele>369.7</ele>
        <time>2016-01-10T10:33:45.000Z</time>
      </trkpt>
      <trkpt lat="47.46725" lon="6.78706">
        <ele>369.9</ele>
        <time>2016-01-10T10:33:46.000Z</time>
      </trkpt>
      <trkpt lat="47.46728" lon="6.78701">
        <ele>369.8</ele>
        <time>2016-01-10T10:33:48.000Z</time>
      </trkpt>
      <trkpt lat="47.4673" lon="6.787">
        <ele>369.4</ele>
        <time>2016-01-10T10:33:49.000Z</time>
      </trkpt>
      <trkpt lat="47.46732" lon="6.78698">
        <ele>369.3</ele>
        <time>2016-01-10T10:33:50.000Z</time>
      </trkpt>
      <trkpt lat="47.46735" lon="6.78697">
        <ele>368.3</ele>
        <time>2016-01-10T10:33:51.000Z</time>
      </trkpt>
      <trkpt lat="47.46737" lon="6.78696">
        <ele>368</ele>
        <time>2016-01-10T10:33:52.000Z</time>
      </trkpt>
      <trkpt lat="47.4674" lon="6.78696">
        <ele>367.2</ele>
        <time>2016-01-10T10:33:53.000Z</time>
      </trkpt>
      <trkpt lat="47.46744" lon="6.78696">
        <ele>366.9</ele>
        <time>2016-01-10T10:33:55.000Z</time>
      </trkpt>
      <trkpt lat="47.46746" lon="6.78697">
        <ele>366.5</ele>
        <time>2016-01-10T10:33:56.000Z</time>
      </trkpt>
      <trkpt lat="47.46749" lon="6.787">
        <ele>364.2</ele>
        <time>2016-01-10T10:34:00.000Z</time>
      </trkpt>
      <trkpt lat="47.4675" lon="6.78699">
        <ele>364.4</ele>
        <time>2016-01-10T10:34:01.000Z</time>
      </trkpt>
      <trkpt lat="47.4675" lon="6.78695">
        <ele>362.8</ele>
        <time>2016-01-10T10:34:04.000Z</time>
      </trkpt>
      <trkpt lat="47.4675" lon="6.78692">
        <ele>362.7</ele>
        <time>2016-01-10T10:34:05.000Z</time>
      </trkpt>
      <trkpt lat="47.46751" lon="6.78688">
        <ele>363.4</ele>
        <time>2016-01-10T10:34:06.000Z</time>
      </trkpt>
      <trkpt lat="47.46753" lon="6.78683">
        <ele>362.2</ele>
        <time>2016-01-10T10:34:07.000Z</time>
      </trkpt>
      <trkpt lat="47.46755" lon="6.78678">
        <ele>361.8</ele>
        <time>2016-01-10T10:34:08.000Z</time>
      </trkpt>
      <trkpt lat="47.46758" lon="6.78674">
        <ele>360.4</ele>
        <time>2016-01-10T10:34:09.000Z</time>
      </trkpt>
      <trkpt lat="47.46763" lon="6.7867">
        <ele>359</ele>
        <time>2016-01-10T10:34:10.000Z</time>
      </trkpt>
      <trkpt lat="47.46769" lon="6.78668">
        <ele>357.9</ele>
        <time>2016-01-10T10:34:11.000Z</time>
      </trkpt>
      <trkpt lat="47.46774" lon="6.78667">
        <ele>357.4</ele>
        <time>2016-01-10T10:34:12.000Z</time>
      </trkpt>
      <trkpt lat="47.46779" lon="6.78666">
        <ele>358.9</ele>
        <time>2016-01-10T10:34:13.000Z</time>
      </trkpt>
      <trkpt lat="47.46783" lon="6.78664">
        <ele>359.6</ele>
        <time>2016-01-10T10:34:14.000Z</time>
      </trkpt>
      <trkpt lat="47.46787" lon="6.78662">
        <ele>360.1</ele>
        <time>2016-01-10T10:34:15.000Z</time>
      </trkpt>
      <trkpt lat="47.46789" lon="6.78659">
        <ele>360.4</ele>
        <time>2016-01-10T10:34:16.000Z</time>
      </trkpt>
      <trkpt lat="47.46792" lon="6.78655">
        <ele>362.6</ele>
        <time>2016-01-10T10:34:17.000Z</time>
      </trkpt>
      <trkpt lat="47.46794" lon="6.7865">
        <ele>363.9</ele>
        <time>2016-01-10T10:34:18.000Z</time>
      </trkpt>
      <trkpt lat="47.46796" lon="6.78645">
        <ele>362.9</ele>
        <time>2016-01-10T10:34:19.000Z</time>
      </trkpt>
      <trkpt lat="47.46799" lon="6.7864">
        <ele>362.2</ele>
        <time>2016-01-10T10:34:20.000Z</time>
      </trkpt>
      <trkpt lat="47.46801" lon="6.78636">
        <ele>362.2</ele>
        <time>2016-01-10T10:34:21.000Z</time>
      </trkpt>
      <trkpt lat="47.46803" lon="6.78631">
        <ele>360.2</ele>
        <time>2016-01-10T10:34:22.000Z</time>
      </trkpt>
      <trkpt lat="47.46805" lon="6.78626">
        <ele>359.8</ele>
        <time>2016-01-10T10:34:23.000Z</time>
      </trkpt>
      <trkpt lat="47.46807" lon="6.78622">
        <ele>358.5</ele>
        <time>2016-01-10T10:34:24.000Z</time>
      </trkpt>
      <trkpt lat="47.4681" lon="6.78617">
        <ele>358.3</ele>
        <time>2016-01-10T10:34:25.000Z</time>
      </trkpt>
      <trkpt lat="47.46814" lon="6.78613">
        <ele>358.3</ele>
        <time>2016-01-10T10:34:26.000Z</time>
      </trkpt>
      <trkpt lat="47.46817" lon="6.78608">
        <ele>358.8</ele>
        <time>2016-01-10T10:34:27.000Z</time>
      </trkpt>
      <trkpt lat="47.46825" lon="6.78595">
        <ele>358.3</ele>
        <time>2016-01-10T10:34:28.000Z</time>
      </trkpt>
      <trkpt lat="47.46829" lon="6.78591">
        <ele>356</ele>
        <time>2016-01-10T10:34:29.000Z</time>
      </trkpt>
      <trkpt lat="47.46834" lon="6.78587">
        <ele>356.3</ele>
        <time>2016-01-10T10:34:30.000Z</time>
      </trkpt>
      <trkpt lat="47.4684" lon="6.78586">
        <ele>355.8</ele>
        <time>2016-01-10T10:34:31.000Z</time>
      </trkpt>
      <trkpt lat="47.46845" lon="6.78584">
        <ele>355.7</ele>
        <time>2016-01-10T10:34:32.000Z</time>
      </trkpt>
      <trkpt lat="47.4685" lon="6.78582">
        <ele>355</ele>
        <time>2016-01-10T10:34:33.000Z</time>
      </trkpt>
      <trkpt lat="47.46857" lon="6.7858">
        <ele>353.9</ele>
        <time>2016-01-10T10:34:34.000Z</time>
      </trkpt>
      <trkpt lat="47.46862" lon="6.78584">
        <ele>350.1</ele>
        <time>2016-01-10T10:34:35.000Z</time>
      </trkpt>
      <trkpt lat="47.46868" lon="6.78583">
        <ele>348.9</ele>
        <time>2016-01-10T10:34:36.000Z</time>
      </trkpt>
      <trkpt lat="47.46875" lon="6.78585">
        <ele>348.7</ele>
        <time>2016-01-10T10:34:37.000Z</time>
      </trkpt>
      <trkpt lat="47.46881" lon="6.78585">
        <ele>347.4</ele>
        <time>2016-01-10T10:34:38.000Z</time>
      </trkpt>
      <trkpt lat="47.46889" lon="6.78584">
        <ele>346.9</ele>
        <time>2016-01-10T10:34:39.000Z</time>
      </trkpt>
      <trkpt lat="47.46897" lon="6.78587">
        <ele>342.1</ele>
        <time>2016-01-10T10:34:40.000Z</time>
      </trkpt>
      <trkpt lat="47.46904" lon="6.78589">
        <ele>341.2</ele>
        <time>2016-01-10T10:34:41.000Z</time>
      </trkpt>
      <trkpt lat="47.46911" lon="6.7859">
        <ele>341</ele>
        <time>2016-01-10T10:34:42.000Z</time>
      </trkpt>
      <trkpt lat="47.46915" lon="6.7859">
        <ele>341</ele>
        <time>2016-01-10T10:34:43.000Z</time>
      </trkpt>
      <trkpt lat="47.46918" lon="6.78591">
        <ele>340.8</ele>
        <time>2016-01-10T10:34:44.000Z</time>
      </trkpt>
      <trkpt lat="47.4692" lon="6.78592">
        <ele>340.7</ele>
        <time>2016-01-10T10:34:45.000Z</time>
      </trkpt>
      <trkpt lat="47.46918" lon="6.78597">
        <ele>343.7</ele>
        <time>2016-01-10T10:34:50.000Z</time>
      </trkpt>
      <trkpt lat="47.46917" lon="6.786">
        <ele>343.6</ele>
        <time>2016-01-10T10:34:51.000Z</time>
      </trkpt>
      <trkpt lat="47.46921" lon="6.78602">
        <ele>341.4</ele>
        <time>2016-01-10T10:34:58.000Z</time>
      </trkpt>
      <trkpt lat="47.46922" lon="6.78599">
        <ele>340.9</ele>
        <time>2016-01-10T10:34:59.000Z</time>
      </trkpt>
      <trkpt lat="47.46923" lon="6.78594">
        <ele>341.4</ele>
        <time>2016-01-10T10:35:01.000Z</time>
      </trkpt>
      <trkpt lat="47.46923" lon="6.78592">
        <ele>341.1</ele>
        <time>2016-01-10T10:35:02.000Z</time>
      </trkpt>
      <trkpt lat="47.46922" lon="6.78597">
        <ele>343.7</ele>
        <time>2016-01-10T10:35:09.000Z</time>
      </trkpt>
      <trkpt lat="47.46923" lon="6.78598">
        <ele>343.9</ele>
        <time>2016-01-10T10:35:10.000Z</time>
      </trkpt>
      <trkpt lat="47.46926" lon="6.786">
        <ele>347.5</ele>
        <time>2016-01-10T10:35:11.000Z</time>
      </trkpt>
      <trkpt lat="47.46928" lon="6.78602">
        <ele>346.8</ele>
        <time>2016-01-10T10:35:12.000Z</time>
      </trkpt>
      <trkpt lat="47.46931" lon="6.78603">
        <ele>346.9</ele>
        <time>2016-01-10T10:35:13.000Z</time>
      </trkpt>
      <trkpt lat="47.46933" lon="6.78604">
        <ele>346.9</ele>
        <time>2016-01-10T10:35:14.000Z</time>
      </trkpt>
      <trkpt lat="47.46937" lon="6.78605">
        <ele>347.1</ele>
        <time>2016-01-10T10:35:17.000Z</time>
      </trkpt>
      <trkpt lat="47.46938" lon="6.78605">
        <ele>346.9</ele>
        <time>2016-01-10T10:35:18.000Z</time>
      </trkpt>
      <trkpt lat="47.46942" lon="6.78607">
        <ele>347.9</ele>
        <time>2016-01-10T10:35:23.000Z</time>
      </trkpt>
      <trkpt lat="47.46943" lon="6.78607">
        <ele>347.7</ele>
        <time>2016-01-10T10:35:24.000Z</time>
      </trkpt>
      <trkpt lat="47.46946" lon="6.78604">
        <ele>349.1</ele>
        <time>2016-01-10T10:35:28.000Z</time>
      </trkpt>
      <trkpt lat="47.46947" lon="6.78603">
        <ele>349</ele>
        <time>2016-01-10T10:35:29.000Z</time>
      </trkpt>
      <trkpt lat="47.46951" lon="6.78603">
        <ele>349.2</ele>
        <time>2016-01-10T10:35:34.000Z</time>
      </trkpt>
      <trkpt lat="47.46952" lon="6.78602">
        <ele>350.3</ele>
        <time>2016-01-10T10:35:35.000Z</time>
      </trkpt>
      <trkpt lat="47.46954" lon="6.78598">
        <ele>351.5</ele>
        <time>2016-01-10T10:35:38.000Z</time>
      </trkpt>
      <trkpt lat="47.46955" lon="6.78596">
        <ele>352.3</ele>
        <time>2016-01-10T10:35:39.000Z</time>
      </trkpt>
      <trkpt lat="47.46958" lon="6.78592">
        <ele>352.3</ele>
        <time>2016-01-10T10:35:43.000Z</time>
      </trkpt>
      <trkpt lat="47.46959" lon="6.78592">
        <ele>352.5</ele>
        <time>2016-01-10T10:35:44.000Z</time>
      </trkpt>
      <trkpt lat="47.46962" lon="6.7859">
        <ele>353.4</ele>
        <time>2016-01-10T10:35:49.000Z</time>
      </trkpt>
      <trkpt lat="47.46963" lon="6.7859">
        <ele>353.5</ele>
        <time>2016-01-10T10:35:50.000Z</time>
      </trkpt>
      <trkpt lat="47.46968" lon="6.78592">
        <ele>351.4</ele>
        <time>2016-01-10T10:35:54.000Z</time>
      </trkpt>
      <trkpt lat="47.46969" lon="6.78592">
        <ele>352.5</ele>
        <time>2016-01-10T10:35:55.000Z</time>
      </trkpt>
      <trkpt lat="47.46972" lon="6.78587">
        <ele>357.6</ele>
        <time>2016-01-10T10:36:00.000Z</time>
      </trkpt>
      <trkpt lat="47.46973" lon="6.78586">
        <ele>357.5</ele>
        <time>2016-01-10T10:36:01.000Z</time>
      </trkpt>
      <trkpt lat="47.46977" lon="6.78584">
        <ele>358.9</ele>
        <time>2016-01-10T10:36:04.000Z</time>
      </trkpt>
      <trkpt lat="47.46978" lon="6.78583">
        <ele>358.6</ele>
        <time>2016-01-10T10:36:05.000Z</time>
      </trkpt>
      <trkpt lat="47.4698" lon="6.78579">
        <ele>359.4</ele>
        <time>2016-01-10T10:36:08.000Z</time>
      </trkpt>
      <trkpt lat="47.46981" lon="6.78578">
        <ele>359.1</ele>
        <time>2016-01-10T10:36:09.000Z</time>
      </trkpt>
      <trkpt lat="47.46985" lon="6.78575">
        <ele>357.1</ele>
        <time>2016-01-10T10:36:12.000Z</time>
      </trkpt>
      <trkpt lat="47.46986" lon="6.78575">
        <ele>355.9</ele>
        <time>2016-01-10T10:36:13.000Z</time>
      </trkpt>
      <trkpt lat="47.46989" lon="6.78573">
        <ele>354.9</ele>
        <time>2016-01-10T10:36:15.000Z</time>
      </trkpt>
      <trkpt lat="47.46991" lon="6.78573">
        <ele>354.7</ele>
        <time>2016-01-10T10:36:16.000Z</time>
      </trkpt>
      <trkpt lat="47.46993" lon="6.7857">
        <ele>354.4</ele>
        <time>2016-01-10T10:36:18.000Z</time>
      </trkpt>
      <trkpt lat="47.46994" lon="6.78569">
        <ele>354.2</ele>
        <time>2016-01-10T10:36:19.000Z</time>
      </trkpt>
      <trkpt lat="47.46998" lon="6.78567">
        <ele>352.6</ele>
        <time>2016-01-10T10:36:21.000Z</time>
      </trkpt>
      <trkpt lat="47.46999" lon="6.78567">
        <ele>353.5</ele>
        <time>2016-01-10T10:36:22.000Z</time>
      </trkpt>
      <trkpt lat="47.47002" lon="6.78564">
        <ele>354.1</ele>
        <time>2016-01-10T10:36:24.000Z</time>
      </trkpt>
      <trkpt lat="47.47004" lon="6.78562">
        <ele>354</ele>
        <time>2016-01-10T10:36:25.000Z</time>
      </trkpt>
      <trkpt lat="47.47006" lon="6.78558">
        <ele>354.1</ele>
        <time>2016-01-10T10:36:28.000Z</time>
      </trkpt>
      <trkpt lat="47.47008" lon="6.78557">
        <ele>353.5</ele>
        <time>2016-01-10T10:36:29.000Z</time>
      </trkpt>
      <trkpt lat="47.4701" lon="6.78556">
        <ele>354.1</ele>
        <time>2016-01-10T10:36:31.000Z</time>
      </trkpt>
      <trkpt lat="47.47012" lon="6.78555">
        <ele>354.2</ele>
        <time>2016-01-10T10:36:32.000Z</time>
      </trkpt>
      <trkpt lat="47.47016" lon="6.78552">
        <ele>356.3</ele>
        <time>2016-01-10T10:36:34.000Z</time>
      </trkpt>
      <trkpt lat="47.47018" lon="6.7855">
        <ele>359.2</ele>
        <time>2016-01-10T10:36:35.000Z</time>
      </trkpt>
      <trkpt lat="47.4702" lon="6.78548">
        <ele>360.3</ele>
        <time>2016-01-10T10:36:36.000Z</time>
      </trkpt>
      <trkpt lat="47.47022" lon="6.78546">
        <ele>360.7</ele>
        <time>2016-01-10T10:36:37.000Z</time>
      </trkpt>
      <trkpt lat="47.47024" lon="6.78545">
        <ele>361.1</ele>
        <time>2016-01-10T10:36:38.000Z</time>
      </trkpt>
      <trkpt lat="47.47027" lon="6.78544">
        <ele>360.6</ele>
        <time>2016-01-10T10:36:39.000Z</time>
      </trkpt>
      <trkpt lat="47.47031" lon="6.78543">
        <ele>361.6</ele>
        <time>2016-01-10T10:36:41.000Z</time>
      </trkpt>
      <trkpt lat="47.47033" lon="6.78542">
        <ele>361.9</ele>
        <time>2016-01-10T10:36:42.000Z</time>
      </trkpt>
      <trkpt lat="47.47036" lon="6.7854">
        <ele>363.2</ele>
        <time>2016-01-10T10:36:44.000Z</time>
      </trkpt>
      <trkpt lat="47.47038" lon="6.78538">
        <ele>363.8</ele>
        <time>2016-01-10T10:36:45.000Z</time>
      </trkpt>
      <trkpt lat="47.4704" lon="6.78536">
        <ele>362.5</ele>
        <time>2016-01-10T10:36:46.000Z</time>
      </trkpt>
      <trkpt lat="47.47043" lon="6.78535">
        <ele>361.6</ele>
        <time>2016-01-10T10:36:47.000Z</time>
      </trkpt>
      <trkpt lat="47.47045" lon="6.78533">
        <ele>362</ele>
        <time>2016-01-10T10:36:48.000Z</time>
      </trkpt>
      <trkpt lat="47.47047" lon="6.78532">
        <ele>362.8</ele>
        <time>2016-01-10T10:36:49.000Z</time>
      </trkpt>
      <trkpt lat="47.47049" lon="6.7853">
        <ele>363.3</ele>
        <time>2016-01-10T10:36:50.000Z</time>
      </trkpt>
      <trkpt lat="47.47051" lon="6.78528">
        <ele>364.8</ele>
        <time>2016-01-10T10:36:51.000Z</time>
      </trkpt>
      <trkpt lat="47.47053" lon="6.78526">
        <ele>365.1</ele>
        <time>2016-01-10T10:36:52.000Z</time>
      </trkpt>
      <trkpt lat="47.47056" lon="6.78523">
        <ele>365.5</ele>
        <time>2016-01-10T10:36:53.000Z</time>
      </trkpt>
      <trkpt lat="47.47058" lon="6.78521">
        <ele>365.6</ele>
        <time>2016-01-10T10:36:54.000Z</time>
      </trkpt>
      <trkpt lat="47.47061" lon="6.78519">
        <ele>362</ele>
        <time>2016-01-10T10:36:55.000Z</time>
      </trkpt>
      <trkpt lat="47.47069" lon="6.78516">
        <ele>360.3</ele>
        <time>2016-01-10T10:36:56.000Z</time>
      </trkpt>
      <trkpt lat="47.47072" lon="6.78514">
        <ele>360.1</ele>
        <time>2016-01-10T10:36:57.000Z</time>
      </trkpt>
      <trkpt lat="47.47074" lon="6.78511">
        <ele>360.5</ele>
        <time>2016-01-10T10:36:58.000Z</time>
      </trkpt>
      <trkpt lat="47.47077" lon="6.78507">
        <ele>361.3</ele>
        <time>2016-01-10T10:36:59.000Z</time>
      </trkpt>
      <trkpt lat="47.4708" lon="6.78504">
        <ele>362</ele>
        <time>2016-01-10T10:37:00.000Z</time>
      </trkpt>
      <trkpt lat="47.47082" lon="6.78503">
        <ele>362.1</ele>
        <time>2016-01-10T10:37:01.000Z</time>
      </trkpt>
      <trkpt lat="47.47084" lon="6.78502">
        <ele>362.7</ele>
        <time>2016-01-10T10:37:02.000Z</time>
      </trkpt>
      <trkpt lat="47.47096" lon="6.78493">
        <ele>361.4</ele>
        <time>2016-01-10T10:37:03.000Z</time>
      </trkpt>
      <trkpt lat="47.47099" lon="6.78491">
        <ele>363.2</ele>
        <time>2016-01-10T10:37:05.000Z</time>
      </trkpt>
      <trkpt lat="47.471" lon="6.78489">
        <ele>364.7</ele>
        <time>2016-01-10T10:37:06.000Z</time>
      </trkpt>
      <trkpt lat="47.47104" lon="6.78488">
        <ele>366.1</ele>
        <time>2016-01-10T10:37:08.000Z</time>
      </trkpt>
      <trkpt lat="47.47105" lon="6.78487">
        <ele>366.5</ele>
        <time>2016-01-10T10:37:09.000Z</time>
      </trkpt>
      <trkpt lat="47.47108" lon="6.78485">
        <ele>365</ele>
        <time>2016-01-10T10:37:10.000Z</time>
      </trkpt>
      <trkpt lat="47.4711" lon="6.78484">
        <ele>365.1</ele>
        <time>2016-01-10T10:37:11.000Z</time>
      </trkpt>
      <trkpt lat="47.47113" lon="6.78482">
        <ele>367.4</ele>
        <time>2016-01-10T10:37:13.000Z</time>
      </trkpt>
      <trkpt lat="47.47115" lon="6.78481">
        <ele>367.5</ele>
        <time>2016-01-10T10:37:14.000Z</time>
      </trkpt>
      <trkpt lat="47.47117" lon="6.78478">
        <ele>369.8</ele>
        <time>2016-01-10T10:37:16.000Z</time>
      </trkpt>
      <trkpt lat="47.47118" lon="6.78476">
        <ele>371</ele>
        <time>2016-01-10T10:37:17.000Z</time>
      </trkpt>
      <trkpt lat="47.4712" lon="6.78473">
        <ele>371.7</ele>
        <time>2016-01-10T10:37:19.000Z</time>
      </trkpt>
      <trkpt lat="47.47121" lon="6.78471">
        <ele>371.3</ele>
        <time>2016-01-10T10:37:20.000Z</time>
      </trkpt>
      <trkpt lat="47.47124" lon="6.78468">
        <ele>377</ele>
        <time>2016-01-10T10:37:22.000Z</time>
      </trkpt>
      <trkpt lat="47.47125" lon="6.78467">
        <ele>376.8</ele>
        <time>2016-01-10T10:37:23.000Z</time>
      </trkpt>
      <trkpt lat="47.47129" lon="6.78465">
        <ele>376.3</ele>
        <time>2016-01-10T10:37:25.000Z</time>
      </trkpt>
      <trkpt lat="47.4713" lon="6.78464">
        <ele>376.1</ele>
        <time>2016-01-10T10:37:26.000Z</time>
      </trkpt>
      <trkpt lat="47.47134" lon="6.7846">
        <ele>376.8</ele>
        <time>2016-01-10T10:37:28.000Z</time>
      </trkpt>
      <trkpt lat="47.47135" lon="6.78458">
        <ele>375.8</ele>
        <time>2016-01-10T10:37:29.000Z</time>
      </trkpt>
      <trkpt lat="47.47137" lon="6.78457">
        <ele>375.4</ele>
        <time>2016-01-10T10:37:30.000Z</time>
      </trkpt>
      <trkpt lat="47.4714" lon="6.78455">
        <ele>372.8</ele>
        <time>2016-01-10T10:37:31.000Z</time>
      </trkpt>
      <trkpt lat="47.47143" lon="6.78453">
        <ele>373.8</ele>
        <time>2016-01-10T10:37:32.000Z</time>
      </trkpt>
      <trkpt lat="47.47146" lon="6.78451">
        <ele>373.9</ele>
        <time>2016-01-10T10:37:33.000Z</time>
      </trkpt>
      <trkpt lat="47.4715" lon="6.7845">
        <ele>373.5</ele>
        <time>2016-01-10T10:37:34.000Z</time>
      </trkpt>
      <trkpt lat="47.47153" lon="6.78449">
        <ele>373.2</ele>
        <time>2016-01-10T10:37:35.000Z</time>
      </trkpt>
      <trkpt lat="47.47157" lon="6.78449">
        <ele>372.4</ele>
        <time>2016-01-10T10:37:36.000Z</time>
      </trkpt>
      <trkpt lat="47.4716" lon="6.78449">
        <ele>371.9</ele>
        <time>2016-01-10T10:37:37.000Z</time>
      </trkpt>
      <trkpt lat="47.47164" lon="6.7845">
        <ele>371.5</ele>
        <time>2016-01-10T10:37:38.000Z</time>
      </trkpt>
      <trkpt lat="47.47167" lon="6.78451">
        <ele>371.1</ele>
        <time>2016-01-10T10:37:39.000Z</time>
      </trkpt>
      <trkpt lat="47.47169" lon="6.78452">
        <ele>370.7</ele>
        <time>2016-01-10T10:37:40.000Z</time>
      </trkpt>
      <trkpt lat="47.47172" lon="6.78453">
        <ele>370.9</ele>
        <time>2016-01-10T10:37:41.000Z</time>
      </trkpt>
      <trkpt lat="47.47174" lon="6.78455">
        <ele>370.8</ele>
        <time>2016-01-10T10:37:42.000Z</time>
      </trkpt>
      <trkpt lat="47.47176" lon="6.78456">
        <ele>370.1</ele>
        <time>2016-01-10T10:37:43.000Z</time>
      </trkpt>
      <trkpt lat="47.47178" lon="6.78458">
        <ele>369.8</ele>
        <time>2016-01-10T10:37:44.000Z</time>
      </trkpt>
      <trkpt lat="47.47181" lon="6.78459">
        <ele>370.1</ele>
        <time>2016-01-10T10:37:45.000Z</time>
      </trkpt>
      <trkpt lat="47.47183" lon="6.7846">
        <ele>370.2</ele>
        <time>2016-01-10T10:37:46.000Z</time>
      </trkpt>
      <trkpt lat="47.47186" lon="6.78462">
        <ele>369.7</ele>
        <time>2016-01-10T10:37:47.000Z</time>
      </trkpt>
      <trkpt lat="47.47188" lon="6.78463">
        <ele>369.7</ele>
        <time>2016-01-10T10:37:48.000Z</time>
      </trkpt>
      <trkpt lat="47.47191" lon="6.78463">
        <ele>369.6</ele>
        <time>2016-01-10T10:37:49.000Z</time>
      </trkpt>
      <trkpt lat="47.47193" lon="6.78464">
        <ele>369.4</ele>
        <time>2016-01-10T10:37:50.000Z</time>
      </trkpt>
      <trkpt lat="47.47195" lon="6.78465">
        <ele>369.3</ele>
        <time>2016-01-10T10:37:51.000Z</time>
      </trkpt>
      <trkpt lat="47.47197" lon="6.78467">
        <ele>369.3</ele>
        <time>2016-01-10T10:37:52.000Z</time>
      </trkpt>
      <trkpt lat="47.472" lon="6.78468">
        <ele>369.1</ele>
        <time>2016-01-10T10:37:53.000Z</time>
      </trkpt>
      <trkpt lat="47.47202" lon="6.78469">
        <ele>369.4</ele>
        <time>2016-01-10T10:37:54.000Z</time>
      </trkpt>
      <trkpt lat="47.47204" lon="6.7847">
        <ele>369.8</ele>
        <time>2016-01-10T10:37:55.000Z</time>
      </trkpt>
      <trkpt lat="47.47206" lon="6.78471">
        <ele>369.7</ele>
        <time>2016-01-10T10:37:56.000Z</time>
      </trkpt>
      <trkpt lat="47.47209" lon="6.78472">
        <ele>370.2</ele>
        <time>2016-01-10T10:37:57.000Z</time>
      </trkpt>
      <trkpt lat="47.47211" lon="6.78473">
        <ele>370.2</ele>
        <time>2016-01-10T10:37:58.000Z</time>
      </trkpt>
      <trkpt lat="47.47214" lon="6.78475">
        <ele>369.8</ele>
        <time>2016-01-10T10:37:59.000Z</time>
      </trkpt>
      <trkpt lat="47.47216" lon="6.78476">
        <ele>369.7</ele>
        <time>2016-01-10T10:38:00.000Z</time>
      </trkpt>
      <trkpt lat="47.47219" lon="6.78477">
        <ele>369.3</ele>
        <time>2016-01-10T10:38:01.000Z</time>
      </trkpt>
      <trkpt lat="47.47221" lon="6.78479">
        <ele>369</ele>
        <time>2016-01-10T10:38:02.000Z</time>
      </trkpt>
      <trkpt lat="47.47224" lon="6.7848">
        <ele>368.9</ele>
        <time>2016-01-10T10:38:03.000Z</time>
      </trkpt>
      <trkpt lat="47.47226" lon="6.78481">
        <ele>368.9</ele>
        <time>2016-01-10T10:38:04.000Z</time>
      </trkpt>
      <trkpt lat="47.47229" lon="6.78483">
        <ele>368.8</ele>
        <time>2016-01-10T10:38:05.000Z</time>
      </trkpt>
      <trkpt lat="47.47233" lon="6.78484">
        <ele>368.8</ele>
        <time>2016-01-10T10:38:07.000Z</time>
      </trkpt>
      <trkpt lat="47.47235" lon="6.78485">
        <ele>368.6</ele>
        <time>2016-01-10T10:38:08.000Z</time>
      </trkpt>
      <trkpt lat="47.47239" lon="6.78483">
        <ele>368.1</ele>
        <time>2016-01-10T10:38:12.000Z</time>
      </trkpt>
      <trkpt lat="47.47239" lon="6.78481">
        <ele>367.6</ele>
        <time>2016-01-10T10:38:13.000Z</time>
      </trkpt>
      <trkpt lat="47.4724" lon="6.78475">
        <ele>366.9</ele>
        <time>2016-01-10T10:38:15.000Z</time>
      </trkpt>
      <trkpt lat="47.47241" lon="6.78472">
        <ele>366.6</ele>
        <time>2016-01-10T10:38:16.000Z</time>
      </trkpt>
      <trkpt lat="47.47242" lon="6.78468">
        <ele>366.4</ele>
        <time>2016-01-10T10:38:17.000Z</time>
      </trkpt>
      <trkpt lat="47.47242" lon="6.78465">
        <ele>366.3</ele>
        <time>2016-01-10T10:38:18.000Z</time>
      </trkpt>
      <trkpt lat="47.47243" lon="6.78461">
        <ele>365.8</ele>
        <time>2016-01-10T10:38:19.000Z</time>
      </trkpt>
      <trkpt lat="47.47244" lon="6.78458">
        <ele>366.2</ele>
        <time>2016-01-10T10:38:20.000Z</time>
      </trkpt>
      <trkpt lat="47.47245" lon="6.78452">
        <ele>365.9</ele>
        <time>2016-01-10T10:38:22.000Z</time>
      </trkpt>
      <trkpt lat="47.47245" lon="6.78449">
        <ele>366.1</ele>
        <time>2016-01-10T10:38:23.000Z</time>
      </trkpt>
      <trkpt lat="47.47246" lon="6.78445">
        <ele>365.9</ele>
        <time>2016-01-10T10:38:25.000Z</time>
      </trkpt>
      <trkpt lat="47.47246" lon="6.78442">
        <ele>363.8</ele>
        <time>2016-01-10T10:38:26.000Z</time>
      </trkpt>
      <trkpt lat="47.47247" lon="6.78439">
        <ele>363.8</ele>
        <time>2016-01-10T10:38:27.000Z</time>
      </trkpt>
      <trkpt lat="47.47248" lon="6.78435">
        <ele>363.7</ele>
        <time>2016-01-10T10:38:28.000Z</time>
      </trkpt>
      <trkpt lat="47.47249" lon="6.7843">
        <ele>363.4</ele>
        <time>2016-01-10T10:38:29.000Z</time>
      </trkpt>
      <trkpt lat="47.4725" lon="6.78425">
        <ele>363.3</ele>
        <time>2016-01-10T10:38:30.000Z</time>
      </trkpt>
      <trkpt lat="47.47252" lon="6.78421">
        <ele>363</ele>
        <time>2016-01-10T10:38:31.000Z</time>
      </trkpt>
      <trkpt lat="47.47253" lon="6.78416">
        <ele>362.6</ele>
        <time>2016-01-10T10:38:32.000Z</time>
      </trkpt>
      <trkpt lat="47.47254" lon="6.78412">
        <ele>362.8</ele>
        <time>2016-01-10T10:38:33.000Z</time>
      </trkpt>
      <trkpt lat="47.47255" lon="6.78408">
        <ele>362.8</ele>
        <time>2016-01-10T10:38:34.000Z</time>
      </trkpt>
      <trkpt lat="47.47256" lon="6.78404">
        <ele>362.5</ele>
        <time>2016-01-10T10:38:35.000Z</time>
      </trkpt>
      <trkpt lat="47.47257" lon="6.784">
        <ele>362.1</ele>
        <time>2016-01-10T10:38:36.000Z</time>
      </trkpt>
      <trkpt lat="47.47258" lon="6.78396">
        <ele>362.3</ele>
        <time>2016-01-10T10:38:37.000Z</time>
      </trkpt>
      <trkpt lat="47.47259" lon="6.78392">
        <ele>362.5</ele>
        <time>2016-01-10T10:38:38.000Z</time>
      </trkpt>
      <trkpt lat="47.4726" lon="6.78388">
        <ele>361.8</ele>
        <time>2016-01-10T10:38:39.000Z</time>
      </trkpt>
      <trkpt lat="47.47261" lon="6.78384">
        <ele>361.8</ele>
        <time>2016-01-10T10:38:40.000Z</time>
      </trkpt>
      <trkpt lat="47.47262" lon="6.78378">
        <ele>361.4</ele>
        <time>2016-01-10T10:38:41.000Z</time>
      </trkpt>
      <trkpt lat="47.47264" lon="6.78373">
        <ele>361.4</ele>
        <time>2016-01-10T10:38:42.000Z</time>
      </trkpt>
      <trkpt lat="47.47266" lon="6.78367">
        <ele>361.3</ele>
        <time>2016-01-10T10:38:43.000Z</time>
      </trkpt>
      <trkpt lat="47.47268" lon="6.78361">
        <ele>361.3</ele>
        <time>2016-01-10T10:38:44.000Z</time>
      </trkpt>
      <trkpt lat="47.47269" lon="6.78356">
        <ele>361.4</ele>
        <time>2016-01-10T10:38:45.000Z</time>
      </trkpt>
      <trkpt lat="47.47271" lon="6.78351">
        <ele>361.3</ele>
        <time>2016-01-10T10:38:46.000Z</time>
      </trkpt>
      <trkpt lat="47.47272" lon="6.78345">
        <ele>362</ele>
        <time>2016-01-10T10:38:47.000Z</time>
      </trkpt>
      <trkpt lat="47.47273" lon="6.78341">
        <ele>362.1</ele>
        <time>2016-01-10T10:38:48.000Z</time>
      </trkpt>
      <trkpt lat="47.47273" lon="6.78336">
        <ele>361.8</ele>
        <time>2016-01-10T10:38:49.000Z</time>
      </trkpt>
      <trkpt lat="47.47274" lon="6.78332">
        <ele>361.8</ele>
        <time>2016-01-10T10:38:50.000Z</time>
      </trkpt>
      <trkpt lat="47.47274" lon="6.78328">
        <ele>361.1</ele>
        <time>2016-01-10T10:38:51.000Z</time>
      </trkpt>
      <trkpt lat="47.47276" lon="6.78323">
        <ele>360.9</ele>
        <time>2016-01-10T10:38:52.000Z</time>
      </trkpt>
      <trkpt lat="47.47277" lon="6.78318">
        <ele>360.9</ele>
        <time>2016-01-10T10:38:53.000Z</time>
      </trkpt>
      <trkpt lat="47.47278" lon="6.78313">
        <ele>361.4</ele>
        <time>2016-01-10T10:38:54.000Z</time>
      </trkpt>
      <trkpt lat="47.4728" lon="6.78309">
        <ele>360.7</ele>
        <time>2016-01-10T10:38:55.000Z</time>
      </trkpt>
      <trkpt lat="47.47282" lon="6.78305">
        <ele>360.8</ele>
        <time>2016-01-10T10:38:56.000Z</time>
      </trkpt>
      <trkpt lat="47.47284" lon="6.78301">
        <ele>361</ele>
        <time>2016-01-10T10:38:57.000Z</time>
      </trkpt>
      <trkpt lat="47.47286" lon="6.78296">
        <ele>361.1</ele>
        <time>2016-01-10T10:38:58.000Z</time>
      </trkpt>
      <trkpt lat="47.47288" lon="6.78292">
        <ele>361.1</ele>
        <time>2016-01-10T10:38:59.000Z</time>
      </trkpt>
      <trkpt lat="47.47289" lon="6.78287">
        <ele>360.4</ele>
        <time>2016-01-10T10:39:00.000Z</time>
      </trkpt>
      <trkpt lat="47.4729" lon="6.78282">
        <ele>360.8</ele>
        <time>2016-01-10T10:39:01.000Z</time>
      </trkpt>
      <trkpt lat="47.47292" lon="6.78277">
        <ele>360.4</ele>
        <time>2016-01-10T10:39:02.000Z</time>
      </trkpt>
      <trkpt lat="47.47293" lon="6.78271">
        <ele>360.3</ele>
        <time>2016-01-10T10:39:03.000Z</time>
      </trkpt>
      <trkpt lat="47.47295" lon="6.78265">
        <ele>360.4</ele>
        <time>2016-01-10T10:39:04.000Z</time>
      </trkpt>
      <trkpt lat="47.47296" lon="6.78259">
        <ele>360.2</ele>
        <time>2016-01-10T10:39:05.000Z</time>
      </trkpt>
      <trkpt lat="47.47298" lon="6.78253">
        <ele>360</ele>
        <time>2016-01-10T10:39:06.000Z</time>
      </trkpt>
      <trkpt lat="47.47299" lon="6.78247">
        <ele>360</ele>
        <time>2016-01-10T10:39:07.000Z</time>
      </trkpt>
      <trkpt lat="47.47301" lon="6.78241">
        <ele>360</ele>
        <time>2016-01-10T10:39:08.000Z</time>
      </trkpt>
      <trkpt lat="47.47302" lon="6.78235">
        <ele>360.2</ele>
        <time>2016-01-10T10:39:09.000Z</time>
      </trkpt>
      <trkpt lat="47.47303" lon="6.7823">
        <ele>360.5</ele>
        <time>2016-01-10T10:39:10.000Z</time>
      </trkpt>
      <trkpt lat="47.47304" lon="6.78225">
        <ele>360.4</ele>
        <time>2016-01-10T10:39:11.000Z</time>
      </trkpt>
      <trkpt lat="47.47305" lon="6.7822">
        <ele>360.9</ele>
        <time>2016-01-10T10:39:12.000Z</time>
      </trkpt>
      <trkpt lat="47.47306" lon="6.78215">
        <ele>360.8</ele>
        <time>2016-01-10T10:39:13.000Z</time>
      </trkpt>
      <trkpt lat="47.47307" lon="6.78211">
        <ele>360.4</ele>
        <time>2016-01-10T10:39:14.000Z</time>
      </trkpt>
      <trkpt lat="47.47308" lon="6.78207">
        <ele>359.4</ele>
        <time>2016-01-10T10:39:15.000Z</time>
      </trkpt>
      <trkpt lat="47.47309" lon="6.78203">
        <ele>359.3</ele>
        <time>2016-01-10T10:39:16.000Z</time>
      </trkpt>
      <trkpt lat="47.47311" lon="6.78199">
        <ele>359.1</ele>
        <time>2016-01-10T10:39:17.000Z</time>
      </trkpt>
      <trkpt lat="47.47312" lon="6.78195">
        <ele>359</ele>
        <time>2016-01-10T10:39:18.000Z</time>
      </trkpt>
      <trkpt lat="47.47314" lon="6.7819">
        <ele>358.7</ele>
        <time>2016-01-10T10:39:19.000Z</time>
      </trkpt>
      <trkpt lat="47.47315" lon="6.78186">
        <ele>358.3</ele>
        <time>2016-01-10T10:39:20.000Z</time>
      </trkpt>
      <trkpt lat="47.47317" lon="6.78181">
        <ele>357.8</ele>
        <time>2016-01-10T10:39:21.000Z</time>
      </trkpt>
      <trkpt lat="47.47318" lon="6.78176">
        <ele>355.7</ele>
        <time>2016-01-10T10:39:22.000Z</time>
      </trkpt>
      <trkpt lat="47.47319" lon="6.78172">
        <ele>355.6</ele>
        <time>2016-01-10T10:39:23.000Z</time>
      </trkpt>
      <trkpt lat="47.47321" lon="6.78167">
        <ele>355.7</ele>
        <time>2016-01-10T10:39:24.000Z</time>
      </trkpt>
      <trkpt lat="47.47322" lon="6.78162">
        <ele>355.8</ele>
        <time>2016-01-10T10:39:25.000Z</time>
      </trkpt>
      <trkpt lat="47.47324" lon="6.78156">
        <ele>355.7</ele>
        <time>2016-01-10T10:39:26.000Z</time>
      </trkpt>
      <trkpt lat="47.47326" lon="6.78147">
        <ele>355.4</ele>
        <time>2016-01-10T10:39:27.000Z</time>
      </trkpt>
      <trkpt lat="47.47328" lon="6.78141">
        <ele>355.3</ele>
        <time>2016-01-10T10:39:28.000Z</time>
      </trkpt>
      <trkpt lat="47.4733" lon="6.78133">
        <ele>355.2</ele>
        <time>2016-01-10T10:39:29.000Z</time>
      </trkpt>
      <trkpt lat="47.47332" lon="6.78127">
        <ele>355.1</ele>
        <time>2016-01-10T10:39:30.000Z</time>
      </trkpt>
      <trkpt lat="47.47334" lon="6.78119">
        <ele>354.4</ele>
        <time>2016-01-10T10:39:31.000Z</time>
      </trkpt>
      <trkpt lat="47.47337" lon="6.78109">
        <ele>353.9</ele>
        <time>2016-01-10T10:39:32.000Z</time>
      </trkpt>
      <trkpt lat="47.4734" lon="6.78101">
        <ele>353.2</ele>
        <time>2016-01-10T10:39:33.000Z</time>
      </trkpt>
      <trkpt lat="47.47342" lon="6.78092">
        <ele>353.3</ele>
        <time>2016-01-10T10:39:34.000Z</time>
      </trkpt>
      <trkpt lat="47.47345" lon="6.78082">
        <ele>352.4</ele>
        <time>2016-01-10T10:39:35.000Z</time>
      </trkpt>
      <trkpt lat="47.47348" lon="6.78072">
        <ele>351.9</ele>
        <time>2016-01-10T10:39:36.000Z</time>
      </trkpt>
      <trkpt lat="47.47351" lon="6.78061">
        <ele>350.9</ele>
        <time>2016-01-10T10:39:37.000Z</time>
      </trkpt>
      <trkpt lat="47.47354" lon="6.78051">
        <ele>350.2</ele>
        <time>2016-01-10T10:39:37.998Z</time>
      </trkpt>
      <trkpt lat="47.47357" lon="6.7804">
        <ele>350.2</ele>
        <time>2016-01-10T10:39:39.000Z</time>
      </trkpt>
      <trkpt lat="47.47361" lon="6.7803">
        <ele>349.7</ele>
        <time>2016-01-10T10:39:40.000Z</time>
      </trkpt>
      <trkpt lat="47.47365" lon="6.78019">
        <ele>349.2</ele>
        <time>2016-01-10T10:39:41.000Z</time>
      </trkpt>
      <trkpt lat="47.47369" lon="6.7801">
        <ele>348.6</ele>
        <time>2016-01-10T10:39:42.000Z</time>
      </trkpt>
      <trkpt lat="47.47372" lon="6.78003">
        <ele>348</ele>
        <time>2016-01-10T10:39:43.000Z</time>
      </trkpt>
      <trkpt lat="47.47375" lon="6.77997">
        <ele>348</ele>
        <time>2016-01-10T10:39:44.000Z</time>
      </trkpt>
      <trkpt lat="47.47377" lon="6.77994">
        <ele>347.1</ele>
        <time>2016-01-10T10:39:45.000Z</time>
      </trkpt>
      <trkpt lat="47.4738" lon="6.7799">
        <ele>346.7</ele>
        <time>2016-01-10T10:39:46.000Z</time>
      </trkpt>
      <trkpt lat="47.47384" lon="6.77989">
        <ele>345.7</ele>
        <time>2016-01-10T10:39:47.000Z</time>
      </trkpt>
      <trkpt lat="47.47388" lon="6.77991">
        <ele>345.4</ele>
        <time>2016-01-10T10:39:48.000Z</time>
      </trkpt>
      <trkpt lat="47.4739" lon="6.77993">
        <ele>346.5</ele>
        <time>2016-01-10T10:39:49.000Z</time>
      </trkpt>
      <trkpt lat="47.47392" lon="6.77998">
        <ele>346.8</ele>
        <time>2016-01-10T10:39:50.000Z</time>
      </trkpt>
      <trkpt lat="47.47393" lon="6.78001">
        <ele>346.4</ele>
        <time>2016-01-10T10:39:51.000Z</time>
      </trkpt>
      <trkpt lat="47.47394" lon="6.78004">
        <ele>346.6</ele>
        <time>2016-01-10T10:39:52.000Z</time>
      </trkpt>
      <trkpt lat="47.47395" lon="6.78006">
        <ele>347.6</ele>
        <time>2016-01-10T10:39:53.000Z</time>
      </trkpt>
      <trkpt lat="47.47397" lon="6.78012">
        <ele>348.2</ele>
        <time>2016-01-10T10:39:55.000Z</time>
      </trkpt>
      <trkpt lat="47.47398" lon="6.78015">
        <ele>348.1</ele>
        <time>2016-01-10T10:39:56.000Z</time>
      </trkpt>
      <trkpt lat="47.47399" lon="6.78019">
        <ele>349</ele>
        <time>2016-01-10T10:39:57.000Z</time>
      </trkpt>
      <trkpt lat="47.47399" lon="6.78022">
        <ele>348.8</ele>
        <time>2016-01-10T10:39:58.000Z</time>
      </trkpt>
      <trkpt lat="47.47401" lon="6.78025">
        <ele>349.2</ele>
        <time>2016-01-10T10:39:59.000Z</time>
      </trkpt>
      <trkpt lat="47.47402" lon="6.78028">
        <ele>349.5</ele>
        <time>2016-01-10T10:40:00.000Z</time>
      </trkpt>
      <trkpt lat="47.47404" lon="6.78031">
        <ele>350.2</ele>
        <time>2016-01-10T10:40:01.000Z</time>
      </trkpt>
      <trkpt lat="47.47407" lon="6.78034">
        <ele>350.6</ele>
        <time>2016-01-10T10:40:02.000Z</time>
      </trkpt>
      <trkpt lat="47.47409" lon="6.78037">
        <ele>350.9</ele>
        <time>2016-01-10T10:40:03.000Z</time>
      </trkpt>
      <trkpt lat="47.47412" lon="6.78039">
        <ele>351.1</ele>
        <time>2016-01-10T10:40:04.000Z</time>
      </trkpt>
      <trkpt lat="47.47415" lon="6.78041">
        <ele>351.6</ele>
        <time>2016-01-10T10:40:05.000Z</time>
      </trkpt>
      <trkpt lat="47.47418" lon="6.78043">
        <ele>351.7</ele>
        <time>2016-01-10T10:40:06.000Z</time>
      </trkpt>
      <trkpt lat="47.47422" lon="6.78045">
        <ele>352.2</ele>
        <time>2016-01-10T10:40:07.000Z</time>
      </trkpt>
      <trkpt lat="47.47425" lon="6.78048">
        <ele>352.3</ele>
        <time>2016-01-10T10:40:08.000Z</time>
      </trkpt>
      <trkpt lat="47.47428" lon="6.78051">
        <ele>352.2</ele>
        <time>2016-01-10T10:40:09.000Z</time>
      </trkpt>
      <trkpt lat="47.47431" lon="6.78054">
        <ele>352.6</ele>
        <time>2016-01-10T10:40:10.000Z</time>
      </trkpt>
      <trkpt lat="47.47434" lon="6.78057">
        <ele>352.9</ele>
        <time>2016-01-10T10:40:11.000Z</time>
      </trkpt>
      <trkpt lat="47.47438" lon="6.7806">
        <ele>352.9</ele>
        <time>2016-01-10T10:40:12.000Z</time>
      </trkpt>
      <trkpt lat="47.47441" lon="6.78064">
        <ele>352.3</ele>
        <time>2016-01-10T10:40:13.000Z</time>
      </trkpt>
      <trkpt lat="47.47444" lon="6.78067">
        <ele>352.2</ele>
        <time>2016-01-10T10:40:14.000Z</time>
      </trkpt>
      <trkpt lat="47.47446" lon="6.78072">
        <ele>352.8</ele>
        <time>2016-01-10T10:40:15.000Z</time>
      </trkpt>
      <trkpt lat="47.47449" lon="6.78076">
        <ele>352.9</ele>
        <time>2016-01-10T10:40:16.000Z</time>
      </trkpt>
      <trkpt lat="47.47451" lon="6.7808">
        <ele>353.1</ele>
        <time>2016-01-10T10:40:17.000Z</time>
      </trkpt>
      <trkpt lat="47.47454" lon="6.78084">
        <ele>353.1</ele>
        <time>2016-01-10T10:40:18.000Z</time>
      </trkpt>
      <trkpt lat="47.47456" lon="6.78088">
        <ele>353.3</ele>
        <time>2016-01-10T10:40:19.000Z</time>
      </trkpt>
      <trkpt lat="47.47459" lon="6.78092">
        <ele>353.5</ele>
        <time>2016-01-10T10:40:20.000Z</time>
      </trkpt>
      <trkpt lat="47.47461" lon="6.78096">
        <ele>353.1</ele>
        <time>2016-01-10T10:40:21.000Z</time>
      </trkpt>
      <trkpt lat="47.47463" lon="6.781">
        <ele>352.8</ele>
        <time>2016-01-10T10:40:22.000Z</time>
      </trkpt>
      <trkpt lat="47.47465" lon="6.78105">
        <ele>352.7</ele>
        <time>2016-01-10T10:40:23.000Z</time>
      </trkpt>
      <trkpt lat="47.47467" lon="6.78109">
        <ele>352.6</ele>
        <time>2016-01-10T10:40:24.000Z</time>
      </trkpt>
      <trkpt lat="47.47469" lon="6.78112">
        <ele>352.6</ele>
        <time>2016-01-10T10:40:25.000Z</time>
      </trkpt>
      <trkpt lat="47.47471" lon="6.78116">
        <ele>353.2</ele>
        <time>2016-01-10T10:40:26.000Z</time>
      </trkpt>
      <trkpt lat="47.47474" lon="6.7812">
        <ele>353.7</ele>
        <time>2016-01-10T10:40:27.000Z</time>
      </trkpt>
      <trkpt lat="47.47476" lon="6.78124">
        <ele>353.9</ele>
        <time>2016-01-10T10:40:28.000Z</time>
      </trkpt>
      <trkpt lat="47.47478" lon="6.78128">
        <ele>353.7</ele>
        <time>2016-01-10T10:40:29.000Z</time>
      </trkpt>
      <trkpt lat="47.4748" lon="6.78132">
        <ele>353.7</ele>
        <time>2016-01-10T10:40:30.000Z</time>
      </trkpt>
      <trkpt lat="47.47483" lon="6.78136">
        <ele>353.8</ele>
        <time>2016-01-10T10:40:31.000Z</time>
      </trkpt>
      <trkpt lat="47.47485" lon="6.7814">
        <ele>353.8</ele>
        <time>2016-01-10T10:40:32.000Z</time>
      </trkpt>
      <trkpt lat="47.47488" lon="6.78143">
        <ele>353.6</ele>
        <time>2016-01-10T10:40:33.000Z</time>
      </trkpt>
      <trkpt lat="47.4749" lon="6.78147">
        <ele>353.4</ele>
        <time>2016-01-10T10:40:34.000Z</time>
      </trkpt>
      <trkpt lat="47.47493" lon="6.78151">
        <ele>352.7</ele>
        <time>2016-01-10T10:40:35.000Z</time>
      </trkpt>
      <trkpt lat="47.47496" lon="6.78155">
        <ele>352.9</ele>
        <time>2016-01-10T10:40:36.000Z</time>
      </trkpt>
      <trkpt lat="47.47498" lon="6.78159">
        <ele>353</ele>
        <time>2016-01-10T10:40:37.000Z</time>
      </trkpt>
      <trkpt lat="47.47501" lon="6.78163">
        <ele>352.6</ele>
        <time>2016-01-10T10:40:38.000Z</time>
      </trkpt>
      <trkpt lat="47.47503" lon="6.78167">
        <ele>352.7</ele>
        <time>2016-01-10T10:40:39.000Z</time>
      </trkpt>
      <trkpt lat="47.47505" lon="6.78171">
        <ele>352.7</ele>
        <time>2016-01-10T10:40:40.000Z</time>
      </trkpt>
      <trkpt lat="47.47508" lon="6.78175">
        <ele>353</ele>
        <time>2016-01-10T10:40:41.000Z</time>
      </trkpt>
      <trkpt lat="47.47511" lon="6.78179">
        <ele>353.3</ele>
        <time>2016-01-10T10:40:42.000Z</time>
      </trkpt>
      <trkpt lat="47.47513" lon="6.78184">
        <ele>353.1</ele>
        <time>2016-01-10T10:40:43.000Z</time>
      </trkpt>
      <trkpt lat="47.47516" lon="6.78188">
        <ele>353.1</ele>
        <time>2016-01-10T10:40:44.000Z</time>
      </trkpt>
      <trkpt lat="47.47518" lon="6.78192">
        <ele>353.5</ele>
        <time>2016-01-10T10:40:45.000Z</time>
      </trkpt>
      <trkpt lat="47.47521" lon="6.78196">
        <ele>353.3</ele>
        <time>2016-01-10T10:40:46.000Z</time>
      </trkpt>
      <trkpt lat="47.47523" lon="6.782">
        <ele>353.8</ele>
        <time>2016-01-10T10:40:47.000Z</time>
      </trkpt>
      <trkpt lat="47.47526" lon="6.78204">
        <ele>354.1</ele>
        <time>2016-01-10T10:40:48.000Z</time>
      </trkpt>
      <trkpt lat="47.47528" lon="6.78208">
        <ele>354.1</ele>
        <time>2016-01-10T10:40:49.000Z</time>
      </trkpt>
      <trkpt lat="47.47531" lon="6.78212">
        <ele>354.1</ele>
        <time>2016-01-10T10:40:50.000Z</time>
      </trkpt>
      <trkpt lat="47.47533" lon="6.78216">
        <ele>354.2</ele>
        <time>2016-01-10T10:40:51.000Z</time>
      </trkpt>
      <trkpt lat="47.47536" lon="6.7822">
        <ele>354.6</ele>
        <time>2016-01-10T10:40:52.000Z</time>
      </trkpt>
      <trkpt lat="47.47538" lon="6.78224">
        <ele>354.7</ele>
        <time>2016-01-10T10:40:53.000Z</time>
      </trkpt>
      <trkpt lat="47.47541" lon="6.78228">
        <ele>355.2</ele>
        <time>2016-01-10T10:40:54.000Z</time>
      </trkpt>
      <trkpt lat="47.47544" lon="6.78232">
        <ele>355.2</ele>
        <time>2016-01-10T10:40:55.000Z</time>
      </trkpt>
      <trkpt lat="47.47546" lon="6.78236">
        <ele>355.3</ele>
        <time>2016-01-10T10:40:56.000Z</time>
      </trkpt>
      <trkpt lat="47.47549" lon="6.7824">
        <ele>355.1</ele>
        <time>2016-01-10T10:40:57.000Z</time>
      </trkpt>
      <trkpt lat="47.47552" lon="6.78244">
        <ele>355.3</ele>
        <time>2016-01-10T10:40:58.000Z</time>
      </trkpt>
      <trkpt lat="47.47554" lon="6.78248">
        <ele>355.2</ele>
        <time>2016-01-10T10:40:59.000Z</time>
      </trkpt>
      <trkpt lat="47.47557" lon="6.78253">
        <ele>355.5</ele>
        <time>2016-01-10T10:41:00.000Z</time>
      </trkpt>
      <trkpt lat="47.4756" lon="6.78257">
        <ele>355.6</ele>
        <time>2016-01-10T10:41:01.000Z</time>
      </trkpt>
      <trkpt lat="47.47563" lon="6.78261">
        <ele>355.5</ele>
        <time>2016-01-10T10:41:02.000Z</time>
      </trkpt>
      <trkpt lat="47.47566" lon="6.78265">
        <ele>355.6</ele>
        <time>2016-01-10T10:41:03.000Z</time>
      </trkpt>
      <trkpt lat="47.47569" lon="6.7827">
        <ele>355.8</ele>
        <time>2016-01-10T10:41:04.000Z</time>
      </trkpt>
      <trkpt lat="47.47571" lon="6.78274">
        <ele>355.9</ele>
        <time>2016-01-10T10:41:05.000Z</time>
      </trkpt>
      <trkpt lat="47.47574" lon="6.78278">
        <ele>356.1</ele>
        <time>2016-01-10T10:41:06.000Z</time>
      </trkpt>
      <trkpt lat="47.47577" lon="6.78282">
        <ele>356.1</ele>
        <time>2016-01-10T10:41:07.000Z</time>
      </trkpt>
      <trkpt lat="47.4758" lon="6.78286">
        <ele>355.8</ele>
        <time>2016-01-10T10:41:08.000Z</time>
      </trkpt>
      <trkpt lat="47.47583" lon="6.78291">
        <ele>355.8</ele>
        <time>2016-01-10T10:41:09.000Z</time>
      </trkpt>
      <trkpt lat="47.47586" lon="6.78296">
        <ele>355.8</ele>
        <time>2016-01-10T10:41:10.000Z</time>
      </trkpt>
      <trkpt lat="47.47589" lon="6.78301">
        <ele>355.7</ele>
        <time>2016-01-10T10:41:11.000Z</time>
      </trkpt>
      <trkpt lat="47.47593" lon="6.78307">
        <ele>355.7</ele>
        <time>2016-01-10T10:41:12.000Z</time>
      </trkpt>
      <trkpt lat="47.47596" lon="6.78312">
        <ele>355.4</ele>
        <time>2016-01-10T10:41:13.000Z</time>
      </trkpt>
      <trkpt lat="47.47599" lon="6.78317">
        <ele>355.3</ele>
        <time>2016-01-10T10:41:14.000Z</time>
      </trkpt>
      <trkpt lat="47.47603" lon="6.78324">
        <ele>355</ele>
        <time>2016-01-10T10:41:15.000Z</time>
      </trkpt>
      <trkpt lat="47.47606" lon="6.78329">
        <ele>354.7</ele>
        <time>2016-01-10T10:41:16.000Z</time>
      </trkpt>
      <trkpt lat="47.47609" lon="6.78335">
        <ele>354.5</ele>
        <time>2016-01-10T10:41:17.000Z</time>
      </trkpt>
      <trkpt lat="47.47612" lon="6.7834">
        <ele>354.2</ele>
        <time>2016-01-10T10:41:18.000Z</time>
      </trkpt>
      <trkpt lat="47.47615" lon="6.78346">
        <ele>354.1</ele>
        <time>2016-01-10T10:41:19.000Z</time>
      </trkpt>
      <trkpt lat="47.47618" lon="6.78352">
        <ele>353.9</ele>
        <time>2016-01-10T10:41:20.000Z</time>
      </trkpt>
      <trkpt lat="47.47621" lon="6.78358">
        <ele>353.7</ele>
        <time>2016-01-10T10:41:21.000Z</time>
      </trkpt>
      <trkpt lat="47.47624" lon="6.78363">
        <ele>353.6</ele>
        <time>2016-01-10T10:41:22.000Z</time>
      </trkpt>
      <trkpt lat="47.47627" lon="6.78369">
        <ele>353.5</ele>
        <time>2016-01-10T10:41:23.000Z</time>
      </trkpt>
      <trkpt lat="47.47629" lon="6.78374">
        <ele>353.6</ele>
        <time>2016-01-10T10:41:24.000Z</time>
      </trkpt>
      <trkpt lat="47.4763" lon="6.78379">
        <ele>353.7</ele>
        <time>2016-01-10T10:41:25.000Z</time>
      </trkpt>
      <trkpt lat="47.47631" lon="6.78384">
        <ele>353.7</ele>
        <time>2016-01-10T10:41:26.000Z</time>
      </trkpt>
      <trkpt lat="47.47632" lon="6.78388">
        <ele>353.9</ele>
        <time>2016-01-10T10:41:27.000Z</time>
      </trkpt>
      <trkpt lat="47.47632" lon="6.78393">
        <ele>353.8</ele>
        <time>2016-01-10T10:41:28.000Z</time>
      </trkpt>
      <trkpt lat="47.47632" lon="6.78396">
        <ele>353.9</ele>
        <time>2016-01-10T10:41:29.000Z</time>
      </trkpt>
      <trkpt lat="47.47635" lon="6.78399">
        <ele>354.5</ele>
        <time>2016-01-10T10:41:33.000Z</time>
      </trkpt>
      <trkpt lat="47.47636" lon="6.78398">
        <ele>354.8</ele>
        <time>2016-01-10T10:41:34.000Z</time>
      </trkpt>
      <trkpt lat="47.47639" lon="6.78395">
        <ele>352.2</ele>
        <time>2016-01-10T10:41:37.000Z</time>
      </trkpt>
      <trkpt lat="47.4764" lon="6.78394">
        <ele>352</ele>
        <time>2016-01-10T10:41:38.000Z</time>
      </trkpt>
      <trkpt lat="47.47644" lon="6.78396">
        <ele>349.8</ele>
        <time>2016-01-10T10:41:40.000Z</time>
      </trkpt>
      <trkpt lat="47.47646" lon="6.78398">
        <ele>351.1</ele>
        <time>2016-01-10T10:41:41.000Z</time>
      </trkpt>
      <trkpt lat="47.47649" lon="6.78399">
        <ele>351.5</ele>
        <time>2016-01-10T10:41:42.000Z</time>
      </trkpt>
      <trkpt lat="47.47651" lon="6.78401">
        <ele>351.1</ele>
        <time>2016-01-10T10:41:43.000Z</time>
      </trkpt>
      <trkpt lat="47.47654" lon="6.78404">
        <ele>350.9</ele>
        <time>2016-01-10T10:41:45.000Z</time>
      </trkpt>
      <trkpt lat="47.47655" lon="6.78406">
        <ele>350.9</ele>
        <time>2016-01-10T10:41:46.000Z</time>
      </trkpt>
      <trkpt lat="47.47656" lon="6.78411">
        <ele>349.9</ele>
        <time>2016-01-10T10:41:49.000Z</time>
      </trkpt>
      <trkpt lat="47.47657" lon="6.78413">
        <ele>348.9</ele>
        <time>2016-01-10T10:41:50.000Z</time>
      </trkpt>
      <trkpt lat="47.47657" lon="6.78417">
        <ele>346.8</ele>
        <time>2016-01-10T10:41:51.000Z</time>
      </trkpt>
      <trkpt lat="47.4766" lon="6.78428">
        <ele>344.5</ele>
        <time>2016-01-10T10:41:52.000Z</time>
      </trkpt>
      <trkpt lat="47.47662" lon="6.78434">
        <ele>344</ele>
        <time>2016-01-10T10:41:53.000Z</time>
      </trkpt>
      <trkpt lat="47.47662" lon="6.78438">
        <ele>344.1</ele>
        <time>2016-01-10T10:41:54.000Z</time>
      </trkpt>
      <trkpt lat="47.47662" lon="6.78442">
        <ele>344.3</ele>
        <time>2016-01-10T10:41:55.000Z</time>
      </trkpt>
      <trkpt lat="47.47662" lon="6.78448">
        <ele>343.6</ele>
        <time>2016-01-10T10:41:57.000Z</time>
      </trkpt>
      <trkpt lat="47.4766" lon="6.78448">
        <ele>343.2</ele>
        <time>2016-01-10T10:41:58.000Z</time>
      </trkpt>
      <trkpt lat="47.47657" lon="6.78445">
        <ele>342.7</ele>
        <time>2016-01-10T10:42:00.000Z</time>
      </trkpt>
      <trkpt lat="47.47655" lon="6.78443">
        <ele>342.2</ele>
        <time>2016-01-10T10:42:01.000Z</time>
      </trkpt>
      <trkpt lat="47.47654" lon="6.78438">
        <ele>341.7</ele>
        <time>2016-01-10T10:42:03.000Z</time>
      </trkpt>
      <trkpt lat="47.47655" lon="6.78436">
        <ele>341</ele>
        <time>2016-01-10T10:42:04.000Z</time>
      </trkpt>
      <trkpt lat="47.47657" lon="6.78431">
        <ele>340.7</ele>
        <time>2016-01-10T10:42:06.000Z</time>
      </trkpt>
      <trkpt lat="47.47659" lon="6.78428">
        <ele>340.8</ele>
        <time>2016-01-10T10:42:07.000Z</time>
      </trkpt>
      <trkpt lat="47.47661" lon="6.78425">
        <ele>340.7</ele>
        <time>2016-01-10T10:42:09.000Z</time>
      </trkpt>
      <trkpt lat="47.47663" lon="6.78423">
        <ele>340.7</ele>
        <time>2016-01-10T10:42:10.000Z</time>
      </trkpt>
      <trkpt lat="47.47665" lon="6.7842">
        <ele>338.2</ele>
        <time>2016-01-10T10:42:12.000Z</time>
      </trkpt>
      <trkpt lat="47.47667" lon="6.78418">
        <ele>336.9</ele>
        <time>2016-01-10T10:42:13.000Z</time>
      </trkpt>
      <trkpt lat="47.4767" lon="6.78414">
        <ele>336.3</ele>
        <time>2016-01-10T10:42:15.000Z</time>
      </trkpt>
      <trkpt lat="47.47671" lon="6.78413">
        <ele>336.3</ele>
        <time>2016-01-10T10:42:16.000Z</time>
      </trkpt>
      <trkpt lat="47.47673" lon="6.78409">
        <ele>336.2</ele>
        <time>2016-01-10T10:42:19.000Z</time>
      </trkpt>
      <trkpt lat="47.47674" lon="6.78408">
        <ele>336.2</ele>
        <time>2016-01-10T10:42:20.000Z</time>
      </trkpt>
      <trkpt lat="47.47676" lon="6.78404">
        <ele>336.2</ele>
        <time>2016-01-10T10:42:22.000Z</time>
      </trkpt>
      <trkpt lat="47.47677" lon="6.78401">
        <ele>336.3</ele>
        <time>2016-01-10T10:42:23.000Z</time>
      </trkpt>
      <trkpt lat="47.47679" lon="6.78396">
        <ele>336.3</ele>
        <time>2016-01-10T10:42:25.000Z</time>
      </trkpt>
      <trkpt lat="47.4768" lon="6.78392">
        <ele>336.2</ele>
        <time>2016-01-10T10:42:26.000Z</time>
      </trkpt>
      <trkpt lat="47.47682" lon="6.78388">
        <ele>336.5</ele>
        <time>2016-01-10T10:42:29.000Z</time>
      </trkpt>
      <trkpt lat="47.47683" lon="6.78387">
        <ele>336.5</ele>
        <time>2016-01-10T10:42:30.000Z</time>
      </trkpt>
      <trkpt lat="47.47685" lon="6.78383">
        <ele>339.2</ele>
        <time>2016-01-10T10:42:32.000Z</time>
      </trkpt>
      <trkpt lat="47.47687" lon="6.7838">
        <ele>337.5</ele>
        <time>2016-01-10T10:42:33.000Z</time>
      </trkpt>
      <trkpt lat="47.47689" lon="6.78377">
        <ele>336.8</ele>
        <time>2016-01-10T10:42:34.000Z</time>
      </trkpt>
      <trkpt lat="47.47691" lon="6.78373">
        <ele>336.8</ele>
        <time>2016-01-10T10:42:35.000Z</time>
      </trkpt>
      <trkpt lat="47.47693" lon="6.7837">
        <ele>336.9</ele>
        <time>2016-01-10T10:42:36.000Z</time>
      </trkpt>
      <trkpt lat="47.47696" lon="6.78365">
        <ele>337.7</ele>
        <time>2016-01-10T10:42:37.000Z</time>
      </trkpt>
      <trkpt lat="47.47698" lon="6.78361">
        <ele>338.9</ele>
        <time>2016-01-10T10:42:38.000Z</time>
      </trkpt>
      <trkpt lat="47.477" lon="6.78357">
        <ele>339.2</ele>
        <time>2016-01-10T10:42:39.000Z</time>
      </trkpt>
      <trkpt lat="47.47702" lon="6.78352">
        <ele>338.9</ele>
        <time>2016-01-10T10:42:40.000Z</time>
      </trkpt>
      <trkpt lat="47.47703" lon="6.78348">
        <ele>338.8</ele>
        <time>2016-01-10T10:42:41.000Z</time>
      </trkpt>
      <trkpt lat="47.47705" lon="6.78343">
        <ele>338.6</ele>
        <time>2016-01-10T10:42:42.000Z</time>
      </trkpt>
      <trkpt lat="47.47707" lon="6.78339">
        <ele>338.5</ele>
        <time>2016-01-10T10:42:43.000Z</time>
      </trkpt>
      <trkpt lat="47.47709" lon="6.78334">
        <ele>338.8</ele>
        <time>2016-01-10T10:42:44.000Z</time>
      </trkpt>
      <trkpt lat="47.4771" lon="6.78329">
        <ele>338.9</ele>
        <time>2016-01-10T10:42:45.000Z</time>
      </trkpt>
      <trkpt lat="47.47711" lon="6.78324">
        <ele>339.6</ele>
        <time>2016-01-10T10:42:46.000Z</time>
      </trkpt>
      <trkpt lat="47.47712" lon="6.78318">
        <ele>339.4</ele>
        <time>2016-01-10T10:42:47.000Z</time>
      </trkpt>
      <trkpt lat="47.47713" lon="6.78313">
        <ele>339.6</ele>
        <time>2016-01-10T10:42:48.000Z</time>
      </trkpt>
      <trkpt lat="47.47713" lon="6.78307">
        <ele>339</ele>
        <time>2016-01-10T10:42:49.000Z</time>
      </trkpt>
      <trkpt lat="47.47713" lon="6.78301">
        <ele>339</ele>
        <time>2016-01-10T10:42:50.000Z</time>
      </trkpt>
      <trkpt lat="47.47712" lon="6.78295">
        <ele>338.9</ele>
        <time>2016-01-10T10:42:51.000Z</time>
      </trkpt>
      <trkpt lat="47.47706" lon="6.78287">
        <ele>339.1</ele>
        <time>2016-01-10T10:42:52.000Z</time>
      </trkpt>
      <trkpt lat="47.47704" lon="6.7828">
        <ele>337.6</ele>
        <time>2016-01-10T10:42:53.000Z</time>
      </trkpt>
      <trkpt lat="47.47702" lon="6.78272">
        <ele>337.2</ele>
        <time>2016-01-10T10:42:54.000Z</time>
      </trkpt>
      <trkpt lat="47.477" lon="6.78265">
        <ele>337</ele>
        <time>2016-01-10T10:42:55.000Z</time>
      </trkpt>
      <trkpt lat="47.47699" lon="6.78257">
        <ele>336.5</ele>
        <time>2016-01-10T10:42:56.000Z</time>
      </trkpt>
      <trkpt lat="47.47697" lon="6.78249">
        <ele>336.3</ele>
        <time>2016-01-10T10:42:57.000Z</time>
      </trkpt>
      <trkpt lat="47.47695" lon="6.78241">
        <ele>336.1</ele>
        <time>2016-01-10T10:42:58.000Z</time>
      </trkpt>
      <trkpt lat="47.47692" lon="6.78234">
        <ele>335.4</ele>
        <time>2016-01-10T10:42:59.000Z</time>
      </trkpt>
      <trkpt lat="47.4769" lon="6.78227">
        <ele>334.3</ele>
        <time>2016-01-10T10:43:00.000Z</time>
      </trkpt>
      <trkpt lat="47.47688" lon="6.7822">
        <ele>333.6</ele>
        <time>2016-01-10T10:43:01.000Z</time>
      </trkpt>
      <trkpt lat="47.47688" lon="6.78211">
        <ele>333</ele>
        <time>2016-01-10T10:43:02.000Z</time>
      </trkpt>
      <trkpt lat="47.47687" lon="6.78202">
        <ele>332.4</ele>
        <time>2016-01-10T10:43:03.000Z</time>
      </trkpt>
      <trkpt lat="47.47688" lon="6.78192">
        <ele>331.8</ele>
        <time>2016-01-10T10:43:04.000Z</time>
      </trkpt>
      <trkpt lat="47.47689" lon="6.78183">
        <ele>331.2</ele>
        <time>2016-01-10T10:43:05.000Z</time>
      </trkpt>
      <trkpt lat="47.47691" lon="6.78174">
        <ele>330.3</ele>
        <time>2016-01-10T10:43:06.000Z</time>
      </trkpt>
      <trkpt lat="47.47693" lon="6.78165">
        <ele>329.7</ele>
        <time>2016-01-10T10:43:07.000Z</time>
      </trkpt>
      <trkpt lat="47.47695" lon="6.78156">
        <ele>329</ele>
        <time>2016-01-10T10:43:08.000Z</time>
      </trkpt>
      <trkpt lat="47.47698" lon="6.78147">
        <ele>328.3</ele>
        <time>2016-01-10T10:43:09.000Z</time>
      </trkpt>
      <trkpt lat="47.47701" lon="6.78138">
        <ele>327.3</ele>
        <time>2016-01-10T10:43:10.000Z</time>
      </trkpt>
      <trkpt lat="47.47705" lon="6.78129">
        <ele>326.9</ele>
        <time>2016-01-10T10:43:11.000Z</time>
      </trkpt>
      <trkpt lat="47.47708" lon="6.7812">
        <ele>326.7</ele>
        <time>2016-01-10T10:43:12.000Z</time>
      </trkpt>
      <trkpt lat="47.47711" lon="6.7811">
        <ele>325.9</ele>
        <time>2016-01-10T10:43:13.000Z</time>
      </trkpt>
      <trkpt lat="47.47714" lon="6.78102">
        <ele>325.6</ele>
        <time>2016-01-10T10:43:14.000Z</time>
      </trkpt>
      <trkpt lat="47.47717" lon="6.78094">
        <ele>325.3</ele>
        <time>2016-01-10T10:43:15.000Z</time>
      </trkpt>
      <trkpt lat="47.4772" lon="6.78086">
        <ele>325.2</ele>
        <time>2016-01-10T10:43:16.000Z</time>
      </trkpt>
      <trkpt lat="47.47723" lon="6.78079">
        <ele>324.9</ele>
        <time>2016-01-10T10:43:17.000Z</time>
      </trkpt>
      <trkpt lat="47.47725" lon="6.78073">
        <ele>324.6</ele>
        <time>2016-01-10T10:43:18.000Z</time>
      </trkpt>
      <trkpt lat="47.47727" lon="6.78065">
        <ele>324.3</ele>
        <time>2016-01-10T10:43:19.000Z</time>
      </trkpt>
      <trkpt lat="47.47728" lon="6.78058">
        <ele>324.3</ele>
        <time>2016-01-10T10:43:20.000Z</time>
      </trkpt>
      <trkpt lat="47.4773" lon="6.7805">
        <ele>324.3</ele>
        <time>2016-01-10T10:43:21.000Z</time>
      </trkpt>
      <trkpt lat="47.4773" lon="6.78042">
        <ele>324.2</ele>
        <time>2016-01-10T10:43:22.000Z</time>
      </trkpt>
      <trkpt lat="47.4773" lon="6.78034">
        <ele>324.1</ele>
        <time>2016-01-10T10:43:23.000Z</time>
      </trkpt>
      <trkpt lat="47.4773" lon="6.78026">
        <ele>323.9</ele>
        <time>2016-01-10T10:43:24.000Z</time>
      </trkpt>
      <trkpt lat="47.47729" lon="6.78018">
        <ele>323.8</ele>
        <time>2016-01-10T10:43:25.000Z</time>
      </trkpt>
      <trkpt lat="47.47728" lon="6.7801">
        <ele>323.8</ele>
        <time>2016-01-10T10:43:26.000Z</time>
      </trkpt>
      <trkpt lat="47.47727" lon="6.78002">
        <ele>323.7</ele>
        <time>2016-01-10T10:43:27.000Z</time>
      </trkpt>
      <trkpt lat="47.47726" lon="6.77995">
        <ele>323.7</ele>
        <time>2016-01-10T10:43:28.000Z</time>
      </trkpt>
      <trkpt lat="47.47725" lon="6.77987">
        <ele>323.4</ele>
        <time>2016-01-10T10:43:29.000Z</time>
      </trkpt>
      <trkpt lat="47.47724" lon="6.7798">
        <ele>323.1</ele>
        <time>2016-01-10T10:43:30.000Z</time>
      </trkpt>
      <trkpt lat="47.47723" lon="6.77972">
        <ele>322.8</ele>
        <time>2016-01-10T10:43:31.000Z</time>
      </trkpt>
      <trkpt lat="47.47722" lon="6.77965">
        <ele>322.9</ele>
        <time>2016-01-10T10:43:32.000Z</time>
      </trkpt>
      <trkpt lat="47.47721" lon="6.77957">
        <ele>323</ele>
        <time>2016-01-10T10:43:33.000Z</time>
      </trkpt>
      <trkpt lat="47.47719" lon="6.7795">
        <ele>321.8</ele>
        <time>2016-01-10T10:43:34.000Z</time>
      </trkpt>
      <trkpt lat="47.47718" lon="6.77943">
        <ele>321.5</ele>
        <time>2016-01-10T10:43:35.000Z</time>
      </trkpt>
      <trkpt lat="47.47717" lon="6.77935">
        <ele>321.8</ele>
        <time>2016-01-10T10:43:36.000Z</time>
      </trkpt>
      <trkpt lat="47.47716" lon="6.77928">
        <ele>321.5</ele>
        <time>2016-01-10T10:43:37.000Z</time>
      </trkpt>
      <trkpt lat="47.47714" lon="6.7792">
        <ele>321.7</ele>
        <time>2016-01-10T10:43:38.000Z</time>
      </trkpt>
      <trkpt lat="47.47713" lon="6.77912">
        <ele>321.5</ele>
        <time>2016-01-10T10:43:39.000Z</time>
      </trkpt>
      <trkpt lat="47.47711" lon="6.77904">
        <ele>321.5</ele>
        <time>2016-01-10T10:43:40.000Z</time>
      </trkpt>
      <trkpt lat="47.47709" lon="6.77897">
        <ele>321.9</ele>
        <time>2016-01-10T10:43:41.000Z</time>
      </trkpt>
      <trkpt lat="47.47707" lon="6.77889">
        <ele>321.8</ele>
        <time>2016-01-10T10:43:42.000Z</time>
      </trkpt>
      <trkpt lat="47.47706" lon="6.7788">
        <ele>320.6</ele>
        <time>2016-01-10T10:43:43.000Z</time>
      </trkpt>
      <trkpt lat="47.47706" lon="6.77871">
        <ele>320.3</ele>
        <time>2016-01-10T10:43:44.000Z</time>
      </trkpt>
      <trkpt lat="47.47705" lon="6.77863">
        <ele>320.6</ele>
        <time>2016-01-10T10:43:45.000Z</time>
      </trkpt>
      <trkpt lat="47.47704" lon="6.77854">
        <ele>320.1</ele>
        <time>2016-01-10T10:43:46.000Z</time>
      </trkpt>
      <trkpt lat="47.47704" lon="6.77846">
        <ele>319.5</ele>
        <time>2016-01-10T10:43:47.000Z</time>
      </trkpt>
      <trkpt lat="47.47704" lon="6.77837">
        <ele>319.3</ele>
        <time>2016-01-10T10:43:48.000Z</time>
      </trkpt>
      <trkpt lat="47.47704" lon="6.77829">
        <ele>319.6</ele>
        <time>2016-01-10T10:43:49.000Z</time>
      </trkpt>
      <trkpt lat="47.47705" lon="6.7782">
        <ele>319.1</ele>
        <time>2016-01-10T10:43:50.000Z</time>
      </trkpt>
      <trkpt lat="47.47705" lon="6.77811">
        <ele>319.8</ele>
        <time>2016-01-10T10:43:51.000Z</time>
      </trkpt>
      <trkpt lat="47.47705" lon="6.77802">
        <ele>319.8</ele>
        <time>2016-01-10T10:43:52.000Z</time>
      </trkpt>
      <trkpt lat="47.47706" lon="6.77794">
        <ele>319.3</ele>
        <time>2016-01-10T10:43:53.000Z</time>
      </trkpt>
      <trkpt lat="47.47705" lon="6.77785">
        <ele>319.2</ele>
        <time>2016-01-10T10:43:54.000Z</time>
      </trkpt>
      <trkpt lat="47.47705" lon="6.77776">
        <ele>319.5</ele>
        <time>2016-01-10T10:43:55.000Z</time>
      </trkpt>
      <trkpt lat="47.47704" lon="6.77767">
        <ele>320.2</ele>
        <time>2016-01-10T10:43:56.000Z</time>
      </trkpt>
      <trkpt lat="47.47706" lon="6.77759">
        <ele>319.3</ele>
        <time>2016-01-10T10:43:57.000Z</time>
      </trkpt>
      <trkpt lat="47.47707" lon="6.7775">
        <ele>319.1</ele>
        <time>2016-01-10T10:43:58.000Z</time>
      </trkpt>
      <trkpt lat="47.47707" lon="6.77742">
        <ele>319.5</ele>
        <time>2016-01-10T10:43:59.000Z</time>
      </trkpt>
      <trkpt lat="47.47709" lon="6.77733">
        <ele>319.8</ele>
        <time>2016-01-10T10:44:00.000Z</time>
      </trkpt>
      <trkpt lat="47.47711" lon="6.77727">
        <ele>319.2</ele>
        <time>2016-01-10T10:44:01.000Z</time>
      </trkpt>
      <trkpt lat="47.47712" lon="6.7772">
        <ele>319.1</ele>
        <time>2016-01-10T10:44:02.000Z</time>
      </trkpt>
      <trkpt lat="47.47714" lon="6.77714">
        <ele>320.2</ele>
        <time>2016-01-10T10:44:03.000Z</time>
      </trkpt>
      <trkpt lat="47.47716" lon="6.77712">
        <ele>319.9</ele>
        <time>2016-01-10T10:44:04.000Z</time>
      </trkpt>
      <trkpt lat="47.47717" lon="6.77709">
        <ele>319.7</ele>
        <time>2016-01-10T10:44:05.000Z</time>
      </trkpt>
      <trkpt lat="47.47718" lon="6.77706">
        <ele>318.9</ele>
        <time>2016-01-10T10:44:06.000Z</time>
      </trkpt>
      <trkpt lat="47.47718" lon="6.77701">
        <ele>319</ele>
        <time>2016-01-10T10:44:07.000Z</time>
      </trkpt>
      <trkpt lat="47.47717" lon="6.77697">
        <ele>318.8</ele>
        <time>2016-01-10T10:44:08.000Z</time>
      </trkpt>
      <trkpt lat="47.47716" lon="6.77692">
        <ele>318.6</ele>
        <time>2016-01-10T10:44:09.000Z</time>
      </trkpt>
      <trkpt lat="47.47715" lon="6.77687">
        <ele>317.8</ele>
        <time>2016-01-10T10:44:10.000Z</time>
      </trkpt>
      <trkpt lat="47.47713" lon="6.77681">
        <ele>317.4</ele>
        <time>2016-01-10T10:44:11.000Z</time>
      </trkpt>
      <trkpt lat="47.47712" lon="6.77675">
        <ele>317.2</ele>
        <time>2016-01-10T10:44:12.000Z</time>
      </trkpt>
      <trkpt lat="47.4771" lon="6.77669">
        <ele>317.4</ele>
        <time>2016-01-10T10:44:13.000Z</time>
      </trkpt>
      <trkpt lat="47.47709" lon="6.77663">
        <ele>316.7</ele>
        <time>2016-01-10T10:44:14.000Z</time>
      </trkpt>
      <trkpt lat="47.47707" lon="6.77656">
        <ele>316.6</ele>
        <time>2016-01-10T10:44:15.000Z</time>
      </trkpt>
      <trkpt lat="47.47707" lon="6.77649">
        <ele>316.6</ele>
        <time>2016-01-10T10:44:16.000Z</time>
      </trkpt>
      <trkpt lat="47.47705" lon="6.77641">
        <ele>316.7</ele>
        <time>2016-01-10T10:44:17.000Z</time>
      </trkpt>
      <trkpt lat="47.47705" lon="6.77634">
        <ele>316.8</ele>
        <time>2016-01-10T10:44:18.000Z</time>
      </trkpt>
      <trkpt lat="47.47704" lon="6.77626">
        <ele>316.6</ele>
        <time>2016-01-10T10:44:19.000Z</time>
      </trkpt>
      <trkpt lat="47.47702" lon="6.77619">
        <ele>316.8</ele>
        <time>2016-01-10T10:44:20.000Z</time>
      </trkpt>
      <trkpt lat="47.47701" lon="6.77612">
        <ele>316.9</ele>
        <time>2016-01-10T10:44:21.000Z</time>
      </trkpt>
      <trkpt lat="47.47699" lon="6.77605">
        <ele>316.8</ele>
        <time>2016-01-10T10:44:22.000Z</time>
      </trkpt>
      <trkpt lat="47.47696" lon="6.77598">
        <ele>316.9</ele>
        <time>2016-01-10T10:44:23.000Z</time>
      </trkpt>
      <trkpt lat="47.47693" lon="6.77592">
        <ele>316.7</ele>
        <time>2016-01-10T10:44:24.000Z</time>
      </trkpt>
      <trkpt lat="47.4769" lon="6.77586">
        <ele>316.6</ele>
        <time>2016-01-10T10:44:25.000Z</time>
      </trkpt>
      <trkpt lat="47.47686" lon="6.77581">
        <ele>316.3</ele>
        <time>2016-01-10T10:44:26.000Z</time>
      </trkpt>
      <trkpt lat="47.47682" lon="6.77576">
        <ele>316.2</ele>
        <time>2016-01-10T10:44:27.000Z</time>
      </trkpt>
      <trkpt lat="47.47679" lon="6.7757">
        <ele>315.6</ele>
        <time>2016-01-10T10:44:28.000Z</time>
      </trkpt>
      <trkpt lat="47.47675" lon="6.77565">
        <ele>315.6</ele>
        <time>2016-01-10T10:44:29.000Z</time>
      </trkpt>
      <trkpt lat="47.47672" lon="6.77559">
        <ele>315.7</ele>
        <time>2016-01-10T10:44:30.000Z</time>
      </trkpt>
      <trkpt lat="47.47668" lon="6.77554">
        <ele>315.3</ele>
        <time>2016-01-10T10:44:31.000Z</time>
      </trkpt>
      <trkpt lat="47.47665" lon="6.77548">
        <ele>315.3</ele>
        <time>2016-01-10T10:44:32.000Z</time>
      </trkpt>
      <trkpt lat="47.47661" lon="6.77543">
        <ele>315.4</ele>
        <time>2016-01-10T10:44:33.000Z</time>
      </trkpt>
      <trkpt lat="47.47657" lon="6.77538">
        <ele>315.5</ele>
        <time>2016-01-10T10:44:34.000Z</time>
      </trkpt>
      <trkpt lat="47.47654" lon="6.77533">
        <ele>315.1</ele>
        <time>2016-01-10T10:44:35.000Z</time>
      </trkpt>
      <trkpt lat="47.4765" lon="6.77528">
        <ele>314.9</ele>
        <time>2016-01-10T10:44:36.000Z</time>
      </trkpt>
      <trkpt lat="47.47647" lon="6.77522">
        <ele>314.7</ele>
        <time>2016-01-10T10:44:37.000Z</time>
      </trkpt>
      <trkpt lat="47.47643" lon="6.77516">
        <ele>315</ele>
        <time>2016-01-10T10:44:38.000Z</time>
      </trkpt>
      <trkpt lat="47.47639" lon="6.77511">
        <ele>315</ele>
        <time>2016-01-10T10:44:39.000Z</time>
      </trkpt>
      <trkpt lat="47.47635" lon="6.77506">
        <ele>314.9</ele>
        <time>2016-01-10T10:44:40.000Z</time>
      </trkpt>
      <trkpt lat="47.47632" lon="6.77501">
        <ele>315.1</ele>
        <time>2016-01-10T10:44:41.000Z</time>
      </trkpt>
      <trkpt lat="47.47629" lon="6.77496">
        <ele>315.3</ele>
        <time>2016-01-10T10:44:42.000Z</time>
      </trkpt>
      <trkpt lat="47.47625" lon="6.77491">
        <ele>314.6</ele>
        <time>2016-01-10T10:44:43.000Z</time>
      </trkpt>
      <trkpt lat="47.47621" lon="6.77487">
        <ele>315</ele>
        <time>2016-01-10T10:44:44.000Z</time>
      </trkpt>
      <trkpt lat="47.47617" lon="6.77482">
        <ele>314.6</ele>
        <time>2016-01-10T10:44:45.000Z</time>
      </trkpt>
      <trkpt lat="47.47613" lon="6.77478">
        <ele>315.2</ele>
        <time>2016-01-10T10:44:46.000Z</time>
      </trkpt>
      <trkpt lat="47.47609" lon="6.77474">
        <ele>314.8</ele>
        <time>2016-01-10T10:44:47.000Z</time>
      </trkpt>
      <trkpt lat="47.47605" lon="6.7747">
        <ele>315</ele>
        <time>2016-01-10T10:44:48.000Z</time>
      </trkpt>
      <trkpt lat="47.47601" lon="6.77465">
        <ele>315.2</ele>
        <time>2016-01-10T10:44:49.000Z</time>
      </trkpt>
      <trkpt lat="47.47598" lon="6.77461">
        <ele>314.9</ele>
        <time>2016-01-10T10:44:50.000Z</time>
      </trkpt>
      <trkpt lat="47.47594" lon="6.77458">
        <ele>314.4</ele>
        <time>2016-01-10T10:44:51.000Z</time>
      </trkpt>
      <trkpt lat="47.4759" lon="6.77455">
        <ele>314.5</ele>
        <time>2016-01-10T10:44:52.000Z</time>
      </trkpt>
      <trkpt lat="47.47589" lon="6.77451">
        <ele>314.3</ele>
        <time>2016-01-10T10:44:53.000Z</time>
      </trkpt>
      <trkpt lat="47.47589" lon="6.77447">
        <ele>314.3</ele>
        <time>2016-01-10T10:44:54.000Z</time>
      </trkpt>
      <trkpt lat="47.47591" lon="6.77442">
        <ele>313.3</ele>
        <time>2016-01-10T10:44:55.000Z</time>
      </trkpt>
      <trkpt lat="47.47594" lon="6.77437">
        <ele>313</ele>
        <time>2016-01-10T10:44:56.000Z</time>
      </trkpt>
      <trkpt lat="47.47597" lon="6.77432">
        <ele>313.2</ele>
        <time>2016-01-10T10:44:57.000Z</time>
      </trkpt>
      <trkpt lat="47.47599" lon="6.77426">
        <ele>312.9</ele>
        <time>2016-01-10T10:44:58.000Z</time>
      </trkpt>
      <trkpt lat="47.47602" lon="6.7742">
        <ele>312.9</ele>
        <time>2016-01-10T10:44:59.000Z</time>
      </trkpt>
      <trkpt lat="47.47604" lon="6.77414">
        <ele>313</ele>
        <time>2016-01-10T10:45:00.000Z</time>
      </trkpt>
      <trkpt lat="47.47606" lon="6.77409">
        <ele>313</ele>
        <time>2016-01-10T10:45:01.000Z</time>
      </trkpt>
      <trkpt lat="47.47609" lon="6.77404">
        <ele>312.5</ele>
        <time>2016-01-10T10:45:02.000Z</time>
      </trkpt>
      <trkpt lat="47.47611" lon="6.77398">
        <ele>312.8</ele>
        <time>2016-01-10T10:45:03.000Z</time>
      </trkpt>
      <trkpt lat="47.47613" lon="6.77391">
        <ele>313.1</ele>
        <time>2016-01-10T10:45:04.000Z</time>
      </trkpt>
      <trkpt lat="47.47615" lon="6.77385">
        <ele>312.9</ele>
        <time>2016-01-10T10:45:05.000Z</time>
      </trkpt>
      <trkpt lat="47.47617" lon="6.77378">
        <ele>313</ele>
        <time>2016-01-10T10:45:06.000Z</time>
      </trkpt>
      <trkpt lat="47.4762" lon="6.77372">
        <ele>312.9</ele>
        <time>2016-01-10T10:45:07.000Z</time>
      </trkpt>
      <trkpt lat="47.47622" lon="6.77365">
        <ele>312.9</ele>
        <time>2016-01-10T10:45:08.000Z</time>
      </trkpt>
      <trkpt lat="47.47624" lon="6.77358">
        <ele>312.9</ele>
        <time>2016-01-10T10:45:09.000Z</time>
      </trkpt>
      <trkpt lat="47.47626" lon="6.77352">
        <ele>313.3</ele>
        <time>2016-01-10T10:45:10.000Z</time>
      </trkpt>
      <trkpt lat="47.47629" lon="6.77345">
        <ele>313.4</ele>
        <time>2016-01-10T10:45:11.000Z</time>
      </trkpt>
      <trkpt lat="47.47631" lon="6.77338">
        <ele>313.3</ele>
        <time>2016-01-10T10:45:12.000Z</time>
      </trkpt>
      <trkpt lat="47.47634" lon="6.77332">
        <ele>313</ele>
        <time>2016-01-10T10:45:13.000Z</time>
      </trkpt>
      <trkpt lat="47.47636" lon="6.77325">
        <ele>312.8</ele>
        <time>2016-01-10T10:45:14.000Z</time>
      </trkpt>
      <trkpt lat="47.47639" lon="6.77318">
        <ele>313.2</ele>
        <time>2016-01-10T10:45:15.000Z</time>
      </trkpt>
      <trkpt lat="47.4764" lon="6.77311">
        <ele>313.2</ele>
        <time>2016-01-10T10:45:16.000Z</time>
      </trkpt>
      <trkpt lat="47.47641" lon="6.77304">
        <ele>313.2</ele>
        <time>2016-01-10T10:45:17.000Z</time>
      </trkpt>
      <trkpt lat="47.47642" lon="6.77297">
        <ele>313.5</ele>
        <time>2016-01-10T10:45:18.000Z</time>
      </trkpt>
      <trkpt lat="47.47641" lon="6.7729">
        <ele>313.4</ele>
        <time>2016-01-10T10:45:19.000Z</time>
      </trkpt>
      <trkpt lat="47.47639" lon="6.77283">
        <ele>313.7</ele>
        <time>2016-01-10T10:45:20.000Z</time>
      </trkpt>
      <trkpt lat="47.47635" lon="6.77277">
        <ele>314.3</ele>
        <time>2016-01-10T10:45:21.000Z</time>
      </trkpt>
      <trkpt lat="47.47632" lon="6.77272">
        <ele>314.3</ele>
        <time>2016-01-10T10:45:22.000Z</time>
      </trkpt>
      <trkpt lat="47.47628" lon="6.77268">
        <ele>313.7</ele>
        <time>2016-01-10T10:45:23.000Z</time>
      </trkpt>
      <trkpt lat="47.47624" lon="6.77264">
        <ele>314.2</ele>
        <time>2016-01-10T10:45:24.000Z</time>
      </trkpt>
      <trkpt lat="47.4762" lon="6.7726">
        <ele>314.4</ele>
        <time>2016-01-10T10:45:25.000Z</time>
      </trkpt>
      <trkpt lat="47.47615" lon="6.77257">
        <ele>314.4</ele>
        <time>2016-01-10T10:45:26.000Z</time>
      </trkpt>
      <trkpt lat="47.47611" lon="6.77254">
        <ele>314.2</ele>
        <time>2016-01-10T10:45:27.000Z</time>
      </trkpt>
      <trkpt lat="47.47607" lon="6.7725">
        <ele>314</ele>
        <time>2016-01-10T10:45:28.000Z</time>
      </trkpt>
      <trkpt lat="47.47602" lon="6.77246">
        <ele>314</ele>
        <time>2016-01-10T10:45:29.000Z</time>
      </trkpt>
      <trkpt lat="47.47598" lon="6.77242">
        <ele>313.7</ele>
        <time>2016-01-10T10:45:30.000Z</time>
      </trkpt>
      <trkpt lat="47.47594" lon="6.77239">
        <ele>313.6</ele>
        <time>2016-01-10T10:45:31.000Z</time>
      </trkpt>
      <trkpt lat="47.47589" lon="6.77236">
        <ele>313.5</ele>
        <time>2016-01-10T10:45:32.000Z</time>
      </trkpt>
      <trkpt lat="47.47585" lon="6.77232">
        <ele>313.1</ele>
        <time>2016-01-10T10:45:33.000Z</time>
      </trkpt>
      <trkpt lat="47.4758" lon="6.77228">
        <ele>313.2</ele>
        <time>2016-01-10T10:45:34.000Z</time>
      </trkpt>
      <trkpt lat="47.47576" lon="6.77224">
        <ele>313.3</ele>
        <time>2016-01-10T10:45:35.000Z</time>
      </trkpt>
      <trkpt lat="47.47572" lon="6.7722">
        <ele>313.3</ele>
        <time>2016-01-10T10:45:36.000Z</time>
      </trkpt>
      <trkpt lat="47.47568" lon="6.77217">
        <ele>313.1</ele>
        <time>2016-01-10T10:45:37.000Z</time>
      </trkpt>
      <trkpt lat="47.47563" lon="6.77214">
        <ele>313.1</ele>
        <time>2016-01-10T10:45:38.000Z</time>
      </trkpt>
      <trkpt lat="47.47559" lon="6.7721">
        <ele>312.7</ele>
        <time>2016-01-10T10:45:39.000Z</time>
      </trkpt>
      <trkpt lat="47.47555" lon="6.77207">
        <ele>312.5</ele>
        <time>2016-01-10T10:45:40.000Z</time>
      </trkpt>
      <trkpt lat="47.47551" lon="6.77205">
        <ele>312.8</ele>
        <time>2016-01-10T10:45:41.000Z</time>
      </trkpt>
      <trkpt lat="47.47546" lon="6.77203">
        <ele>312.7</ele>
        <time>2016-01-10T10:45:42.000Z</time>
      </trkpt>
      <trkpt lat="47.47542" lon="6.77201">
        <ele>312.5</ele>
        <time>2016-01-10T10:45:43.000Z</time>
      </trkpt>
      <trkpt lat="47.47538" lon="6.77198">
        <ele>312.5</ele>
        <time>2016-01-10T10:45:44.000Z</time>
      </trkpt>
      <trkpt lat="47.47533" lon="6.77194">
        <ele>312.6</ele>
        <time>2016-01-10T10:45:45.000Z</time>
      </trkpt>
      <trkpt lat="47.47529" lon="6.77193">
        <ele>312.4</ele>
        <time>2016-01-10T10:45:46.000Z</time>
      </trkpt>
      <trkpt lat="47.47525" lon="6.77192">
        <ele>312.7</ele>
        <time>2016-01-10T10:45:47.000Z</time>
      </trkpt>
      <trkpt lat="47.47522" lon="6.77187">
        <ele>312.7</ele>
        <time>2016-01-10T10:45:48.000Z</time>
      </trkpt>
      <trkpt lat="47.4752" lon="6.77182">
        <ele>312.6</ele>
        <time>2016-01-10T10:45:49.000Z</time>
      </trkpt>
      <trkpt lat="47.47518" lon="6.77177">
        <ele>312.6</ele>
        <time>2016-01-10T10:45:50.000Z</time>
      </trkpt>
      <trkpt lat="47.47517" lon="6.7717">
        <ele>312.3</ele>
        <time>2016-01-10T10:45:51.000Z</time>
      </trkpt>
      <trkpt lat="47.47519" lon="6.77165">
        <ele>310.3</ele>
        <time>2016-01-10T10:45:52.000Z</time>
      </trkpt>
      <trkpt lat="47.47521" lon="6.77159">
        <ele>309.8</ele>
        <time>2016-01-10T10:45:53.000Z</time>
      </trkpt>
      <trkpt lat="47.47522" lon="6.77154">
        <ele>309.7</ele>
        <time>2016-01-10T10:45:54.000Z</time>
      </trkpt>
      <trkpt lat="47.47524" lon="6.77149">
        <ele>309.5</ele>
        <time>2016-01-10T10:45:55.000Z</time>
      </trkpt>
      <trkpt lat="47.47526" lon="6.77143">
        <ele>309.2</ele>
        <time>2016-01-10T10:45:56.000Z</time>
      </trkpt>
      <trkpt lat="47.47529" lon="6.77139">
        <ele>309.5</ele>
        <time>2016-01-10T10:45:57.000Z</time>
      </trkpt>
      <trkpt lat="47.47533" lon="6.77136">
        <ele>310</ele>
        <time>2016-01-10T10:45:58.000Z</time>
      </trkpt>
      <trkpt lat="47.47537" lon="6.77136">
        <ele>310.1</ele>
        <time>2016-01-10T10:45:59.000Z</time>
      </trkpt>
      <trkpt lat="47.47541" lon="6.77137">
        <ele>310.2</ele>
        <time>2016-01-10T10:46:00.000Z</time>
      </trkpt>
      <trkpt lat="47.47545" lon="6.7714">
        <ele>309.8</ele>
        <time>2016-01-10T10:46:01.000Z</time>
      </trkpt>
      <trkpt lat="47.47549" lon="6.77143">
        <ele>310.3</ele>
        <time>2016-01-10T10:46:02.000Z</time>
      </trkpt>
      <trkpt lat="47.47553" lon="6.77147">
        <ele>310.9</ele>
        <time>2016-01-10T10:46:03.000Z</time>
      </trkpt>
      <trkpt lat="47.47557" lon="6.7715">
        <ele>311.1</ele>
        <time>2016-01-10T10:46:04.000Z</time>
      </trkpt>
      <trkpt lat="47.47561" lon="6.77153">
        <ele>310.8</ele>
        <time>2016-01-10T10:46:05.000Z</time>
      </trkpt>
      <trkpt lat="47.47565" lon="6.77156">
        <ele>311</ele>
        <time>2016-01-10T10:46:06.000Z</time>
      </trkpt>
      <trkpt lat="47.47569" lon="6.77159">
        <ele>311</ele>
        <time>2016-01-10T10:46:07.000Z</time>
      </trkpt>
      <trkpt lat="47.47574" lon="6.77164">
        <ele>311.3</ele>
        <time>2016-01-10T10:46:08.000Z</time>
      </trkpt>
      <trkpt lat="47.47578" lon="6.77167">
        <ele>312.1</ele>
        <time>2016-01-10T10:46:09.000Z</time>
      </trkpt>
      <trkpt lat="47.47582" lon="6.7717">
        <ele>311.6</ele>
        <time>2016-01-10T10:46:10.000Z</time>
      </trkpt>
      <trkpt lat="47.47586" lon="6.77172">
        <ele>311.7</ele>
        <time>2016-01-10T10:46:11.000Z</time>
      </trkpt>
      <trkpt lat="47.4759" lon="6.77175">
        <ele>311.9</ele>
        <time>2016-01-10T10:46:12.000Z</time>
      </trkpt>
      <trkpt lat="47.47593" lon="6.77177">
        <ele>312.5</ele>
        <time>2016-01-10T10:46:13.000Z</time>
      </trkpt>
      <trkpt lat="47.47596" lon="6.7718">
        <ele>312.9</ele>
        <time>2016-01-10T10:46:14.000Z</time>
      </trkpt>
      <trkpt lat="47.476" lon="6.77182">
        <ele>313.1</ele>
        <time>2016-01-10T10:46:15.000Z</time>
      </trkpt>
      <trkpt lat="47.47603" lon="6.77184">
        <ele>312.9</ele>
        <time>2016-01-10T10:46:16.000Z</time>
      </trkpt>
      <trkpt lat="47.47606" lon="6.77186">
        <ele>312.9</ele>
        <time>2016-01-10T10:46:17.000Z</time>
      </trkpt>
      <trkpt lat="47.47609" lon="6.77187">
        <ele>313.8</ele>
        <time>2016-01-10T10:46:18.000Z</time>
      </trkpt>
      <trkpt lat="47.47612" lon="6.77187">
        <ele>314.8</ele>
        <time>2016-01-10T10:46:19.000Z</time>
      </trkpt>
      <trkpt lat="47.47615" lon="6.77187">
        <ele>315.4</ele>
        <time>2016-01-10T10:46:20.000Z</time>
      </trkpt>
      <trkpt lat="47.47618" lon="6.77185">
        <ele>315</ele>
        <time>2016-01-10T10:46:21.000Z</time>
      </trkpt>
      <trkpt lat="47.4762" lon="6.77183">
        <ele>314.4</ele>
        <time>2016-01-10T10:46:22.000Z</time>
      </trkpt>
      <trkpt lat="47.47622" lon="6.7718">
        <ele>314.4</ele>
        <time>2016-01-10T10:46:23.000Z</time>
      </trkpt>
      <trkpt lat="47.47623" lon="6.77177">
        <ele>314</ele>
        <time>2016-01-10T10:46:24.000Z</time>
      </trkpt>
      <trkpt lat="47.47624" lon="6.77171">
        <ele>314.6</ele>
        <time>2016-01-10T10:46:26.000Z</time>
      </trkpt>
      <trkpt lat="47.47624" lon="6.77169">
        <ele>315</ele>
        <time>2016-01-10T10:46:27.000Z</time>
      </trkpt>
      <trkpt lat="47.47626" lon="6.77163">
        <ele>314.7</ele>
        <time>2016-01-10T10:46:30.000Z</time>
      </trkpt>
      <trkpt lat="47.47626" lon="6.77161">
        <ele>314.7</ele>
        <time>2016-01-10T10:46:31.000Z</time>
      </trkpt>
      <trkpt lat="47.47628" lon="6.77156">
        <ele>314.7</ele>
        <time>2016-01-10T10:46:34.000Z</time>
      </trkpt>
      <trkpt lat="47.47629" lon="6.77154">
        <ele>314.9</ele>
        <time>2016-01-10T10:46:35.000Z</time>
      </trkpt>
      <trkpt lat="47.4763" lon="6.77149">
        <ele>315.3</ele>
        <time>2016-01-10T10:46:37.000Z</time>
      </trkpt>
      <trkpt lat="47.47631" lon="6.77147">
        <ele>315.3</ele>
        <time>2016-01-10T10:46:38.000Z</time>
      </trkpt>
      <trkpt lat="47.47632" lon="6.77142">
        <ele>315.6</ele>
        <time>2016-01-10T10:46:40.000Z</time>
      </trkpt>
      <trkpt lat="47.47633" lon="6.7714">
        <ele>315.7</ele>
        <time>2016-01-10T10:46:41.000Z</time>
      </trkpt>
      <trkpt lat="47.47635" lon="6.77136">
        <ele>316.3</ele>
        <time>2016-01-10T10:46:43.000Z</time>
      </trkpt>
      <trkpt lat="47.47636" lon="6.77134">
        <ele>316.2</ele>
        <time>2016-01-10T10:46:44.000Z</time>
      </trkpt>
      <trkpt lat="47.47637" lon="6.77129">
        <ele>316.6</ele>
        <time>2016-01-10T10:46:46.000Z</time>
      </trkpt>
      <trkpt lat="47.47638" lon="6.77126">
        <ele>317</ele>
        <time>2016-01-10T10:46:47.000Z</time>
      </trkpt>
      <trkpt lat="47.47638" lon="6.7712">
        <ele>317.2</ele>
        <time>2016-01-10T10:46:49.000Z</time>
      </trkpt>
      <trkpt lat="47.47639" lon="6.77117">
        <ele>317.5</ele>
        <time>2016-01-10T10:46:50.000Z</time>
      </trkpt>
      <trkpt lat="47.47639" lon="6.77113">
        <ele>317.5</ele>
        <time>2016-01-10T10:46:51.000Z</time>
      </trkpt>
      <trkpt lat="47.4764" lon="6.77109">
        <ele>317.9</ele>
        <time>2016-01-10T10:46:52.000Z</time>
      </trkpt>
      <trkpt lat="47.4764" lon="6.77105">
        <ele>318.2</ele>
        <time>2016-01-10T10:46:53.000Z</time>
      </trkpt>
      <trkpt lat="47.47641" lon="6.77101">
        <ele>318.7</ele>
        <time>2016-01-10T10:46:54.000Z</time>
      </trkpt>
      <trkpt lat="47.47641" lon="6.77097">
        <ele>318.9</ele>
        <time>2016-01-10T10:46:55.000Z</time>
      </trkpt>
      <trkpt lat="47.47642" lon="6.77093">
        <ele>319.4</ele>
        <time>2016-01-10T10:46:56.000Z</time>
      </trkpt>
      <trkpt lat="47.47642" lon="6.77089">
        <ele>319.4</ele>
        <time>2016-01-10T10:46:57.000Z</time>
      </trkpt>
      <trkpt lat="47.47643" lon="6.77085">
        <ele>319.6</ele>
        <time>2016-01-10T10:46:58.000Z</time>
      </trkpt>
      <trkpt lat="47.47643" lon="6.77081">
        <ele>319.5</ele>
        <time>2016-01-10T10:46:59.000Z</time>
      </trkpt>
      <trkpt lat="47.47644" lon="6.77077">
        <ele>319.6</ele>
        <time>2016-01-10T10:47:00.000Z</time>
      </trkpt>
      <trkpt lat="47.47645" lon="6.77071">
        <ele>319.5</ele>
        <time>2016-01-10T10:47:02.000Z</time>
      </trkpt>
      <trkpt lat="47.47646" lon="6.7707">
        <ele>319.5</ele>
        <time>2016-01-10T10:47:03.000Z</time>
      </trkpt>
      <trkpt lat="47.47645" lon="6.77066">
        <ele>320.7</ele>
        <time>2016-01-10T10:47:19.000Z</time>
      </trkpt>
      <trkpt lat="47.47645" lon="6.77063">
        <ele>320.1</ele>
        <time>2016-01-10T10:47:20.000Z</time>
      </trkpt>
      <trkpt lat="47.47646" lon="6.77059">
        <ele>319.8</ele>
        <time>2016-01-10T10:47:21.000Z</time>
      </trkpt>
      <trkpt lat="47.47646" lon="6.77054">
        <ele>319.7</ele>
        <time>2016-01-10T10:47:22.000Z</time>
      </trkpt>
      <trkpt lat="47.47647" lon="6.77049">
        <ele>319.4</ele>
        <time>2016-01-10T10:47:23.000Z</time>
      </trkpt>
      <trkpt lat="47.47648" lon="6.77043">
        <ele>319.1</ele>
        <time>2016-01-10T10:47:24.000Z</time>
      </trkpt>
      <trkpt lat="47.47649" lon="6.77033">
        <ele>318.5</ele>
        <time>2016-01-10T10:47:25.000Z</time>
      </trkpt>
      <trkpt lat="47.4765" lon="6.77026">
        <ele>318</ele>
        <time>2016-01-10T10:47:26.000Z</time>
      </trkpt>
      <trkpt lat="47.47651" lon="6.77018">
        <ele>317.7</ele>
        <time>2016-01-10T10:47:27.000Z</time>
      </trkpt>
      <trkpt lat="47.47652" lon="6.7701">
        <ele>317.2</ele>
        <time>2016-01-10T10:47:28.000Z</time>
      </trkpt>
      <trkpt lat="47.47655" lon="6.77002">
        <ele>316.7</ele>
        <time>2016-01-10T10:47:29.000Z</time>
      </trkpt>
      <trkpt lat="47.47657" lon="6.76994">
        <ele>316.1</ele>
        <time>2016-01-10T10:47:30.000Z</time>
      </trkpt>
      <trkpt lat="47.4766" lon="6.76986">
        <ele>315.6</ele>
        <time>2016-01-10T10:47:31.000Z</time>
      </trkpt>
      <trkpt lat="47.47664" lon="6.76977">
        <ele>315</ele>
        <time>2016-01-10T10:47:32.000Z</time>
      </trkpt>
      <trkpt lat="47.47667" lon="6.76968">
        <ele>314.6</ele>
        <time>2016-01-10T10:47:33.000Z</time>
      </trkpt>
      <trkpt lat="47.47672" lon="6.76959">
        <ele>313</ele>
        <time>2016-01-10T10:47:34.000Z</time>
      </trkpt>
      <trkpt lat="47.47674" lon="6.76951">
        <ele>312.9</ele>
        <time>2016-01-10T10:47:35.000Z</time>
      </trkpt>
      <trkpt lat="47.47678" lon="6.76942">
        <ele>313</ele>
        <time>2016-01-10T10:47:36.000Z</time>
      </trkpt>
      <trkpt lat="47.47681" lon="6.76933">
        <ele>313</ele>
        <time>2016-01-10T10:47:37.000Z</time>
      </trkpt>
      <trkpt lat="47.47684" lon="6.76925">
        <ele>313</ele>
        <time>2016-01-10T10:47:37.999Z</time>
      </trkpt>
      <trkpt lat="47.47687" lon="6.76917">
        <ele>312.8</ele>
        <time>2016-01-10T10:47:39.000Z</time>
      </trkpt>
      <trkpt lat="47.47689" lon="6.7691">
        <ele>312.8</ele>
        <time>2016-01-10T10:47:40.000Z</time>
      </trkpt>
      <trkpt lat="47.47691" lon="6.76905">
        <ele>312.3</ele>
        <time>2016-01-10T10:47:41.000Z</time>
      </trkpt>
      <trkpt lat="47.47693" lon="6.76898">
        <ele>312.5</ele>
        <time>2016-01-10T10:47:42.000Z</time>
      </trkpt>
      <trkpt lat="47.47696" lon="6.76891">
        <ele>312.8</ele>
        <time>2016-01-10T10:47:43.000Z</time>
      </trkpt>
      <trkpt lat="47.47697" lon="6.76885">
        <ele>312.3</ele>
        <time>2016-01-10T10:47:44.000Z</time>
      </trkpt>
      <trkpt lat="47.47699" lon="6.76879">
        <ele>312.4</ele>
        <time>2016-01-10T10:47:45.000Z</time>
      </trkpt>
      <trkpt lat="47.47702" lon="6.76875">
        <ele>312.6</ele>
        <time>2016-01-10T10:47:46.000Z</time>
      </trkpt>
      <trkpt lat="47.47704" lon="6.7687">
        <ele>313.1</ele>
        <time>2016-01-10T10:47:47.000Z</time>
      </trkpt>
      <trkpt lat="47.47708" lon="6.76865">
        <ele>314.9</ele>
        <time>2016-01-10T10:47:48.000Z</time>
      </trkpt>
      <trkpt lat="47.47708" lon="6.76861">
        <ele>314.4</ele>
        <time>2016-01-10T10:47:49.000Z</time>
      </trkpt>
      <trkpt lat="47.4771" lon="6.76856">
        <ele>314.7</ele>
        <time>2016-01-10T10:47:50.000Z</time>
      </trkpt>
      <trkpt lat="47.47711" lon="6.7685">
        <ele>315.2</ele>
        <time>2016-01-10T10:47:51.000Z</time>
      </trkpt>
      <trkpt lat="47.47715" lon="6.76845">
        <ele>312.4</ele>
        <time>2016-01-10T10:47:52.000Z</time>
      </trkpt>
      <trkpt lat="47.47717" lon="6.76839">
        <ele>312.4</ele>
        <time>2016-01-10T10:47:53.000Z</time>
      </trkpt>
      <trkpt lat="47.47719" lon="6.76833">
        <ele>312</ele>
        <time>2016-01-10T10:47:54.000Z</time>
      </trkpt>
      <trkpt lat="47.47721" lon="6.76827">
        <ele>312.1</ele>
        <time>2016-01-10T10:47:55.000Z</time>
      </trkpt>
      <trkpt lat="47.47723" lon="6.76822">
        <ele>312.1</ele>
        <time>2016-01-10T10:47:56.000Z</time>
      </trkpt>
      <trkpt lat="47.47726" lon="6.76817">
        <ele>312.7</ele>
        <time>2016-01-10T10:47:57.000Z</time>
      </trkpt>
      <trkpt lat="47.47728" lon="6.76811">
        <ele>313.2</ele>
        <time>2016-01-10T10:47:58.000Z</time>
      </trkpt>
      <trkpt lat="47.47731" lon="6.76807">
        <ele>314.4</ele>
        <time>2016-01-10T10:47:59.000Z</time>
      </trkpt>
      <trkpt lat="47.47734" lon="6.76803">
        <ele>315.2</ele>
        <time>2016-01-10T10:48:00.000Z</time>
      </trkpt>
      <trkpt lat="47.47737" lon="6.76801">
        <ele>315.2</ele>
        <time>2016-01-10T10:48:01.000Z</time>
      </trkpt>
      <trkpt lat="47.4774" lon="6.76799">
        <ele>315.7</ele>
        <time>2016-01-10T10:48:02.000Z</time>
      </trkpt>
      <trkpt lat="47.47742" lon="6.76798">
        <ele>315.9</ele>
        <time>2016-01-10T10:48:03.000Z</time>
      </trkpt>
      <trkpt lat="47.47745" lon="6.76797">
        <ele>316</ele>
        <time>2016-01-10T10:48:04.000Z</time>
      </trkpt>
      <trkpt lat="47.47747" lon="6.76797">
        <ele>315.7</ele>
        <time>2016-01-10T10:48:05.000Z</time>
      </trkpt>
      <trkpt lat="47.4775" lon="6.76797">
        <ele>315.8</ele>
        <time>2016-01-10T10:48:06.000Z</time>
      </trkpt>
      <trkpt lat="47.47753" lon="6.76797">
        <ele>316.1</ele>
        <time>2016-01-10T10:48:07.000Z</time>
      </trkpt>
      <trkpt lat="47.47756" lon="6.76797">
        <ele>316</ele>
        <time>2016-01-10T10:48:08.000Z</time>
      </trkpt>
      <trkpt lat="47.4776" lon="6.76797">
        <ele>316.1</ele>
        <time>2016-01-10T10:48:09.000Z</time>
      </trkpt>
      <trkpt lat="47.47764" lon="6.76797">
        <ele>315.7</ele>
        <time>2016-01-10T10:48:10.000Z</time>
      </trkpt>
      <trkpt lat="47.47768" lon="6.76798">
        <ele>315.1</ele>
        <time>2016-01-10T10:48:11.000Z</time>
      </trkpt>
      <trkpt lat="47.47772" lon="6.76799">
        <ele>315</ele>
        <time>2016-01-10T10:48:12.000Z</time>
      </trkpt>
      <trkpt lat="47.47779" lon="6.768">
        <ele>314.6</ele>
        <time>2016-01-10T10:48:13.000Z</time>
      </trkpt>
      <trkpt lat="47.47784" lon="6.76802">
        <ele>314.6</ele>
        <time>2016-01-10T10:48:14.000Z</time>
      </trkpt>
      <trkpt lat="47.47789" lon="6.76804">
        <ele>314.4</ele>
        <time>2016-01-10T10:48:15.000Z</time>
      </trkpt>
      <trkpt lat="47.47794" lon="6.76806">
        <ele>314.4</ele>
        <time>2016-01-10T10:48:16.000Z</time>
      </trkpt>
      <trkpt lat="47.47799" lon="6.76808">
        <ele>314.2</ele>
        <time>2016-01-10T10:48:17.000Z</time>
      </trkpt>
      <trkpt lat="47.47804" lon="6.76811">
        <ele>314.2</ele>
        <time>2016-01-10T10:48:18.000Z</time>
      </trkpt>
      <trkpt lat="47.47809" lon="6.76812">
        <ele>314</ele>
        <time>2016-01-10T10:48:19.000Z</time>
      </trkpt>
      <trkpt lat="47.47814" lon="6.76813">
        <ele>315.4</ele>
        <time>2016-01-10T10:48:20.000Z</time>
      </trkpt>
      <trkpt lat="47.47818" lon="6.76815">
        <ele>315.9</ele>
        <time>2016-01-10T10:48:21.000Z</time>
      </trkpt>
      <trkpt lat="47.47823" lon="6.76818">
        <ele>315.1</ele>
        <time>2016-01-10T10:48:22.000Z</time>
      </trkpt>
      <trkpt lat="47.47829" lon="6.76822">
        <ele>314</ele>
        <time>2016-01-10T10:48:23.000Z</time>
      </trkpt>
      <trkpt lat="47.47833" lon="6.76825">
        <ele>314.1</ele>
        <time>2016-01-10T10:48:24.000Z</time>
      </trkpt>
      <trkpt lat="47.47838" lon="6.76829">
        <ele>314.3</ele>
        <time>2016-01-10T10:48:25.000Z</time>
      </trkpt>
      <trkpt lat="47.47842" lon="6.76832">
        <ele>314.2</ele>
        <time>2016-01-10T10:48:26.000Z</time>
      </trkpt>
      <trkpt lat="47.47847" lon="6.76836">
        <ele>314.1</ele>
        <time>2016-01-10T10:48:27.000Z</time>
      </trkpt>
      <trkpt lat="47.47852" lon="6.7684">
        <ele>312</ele>
        <time>2016-01-10T10:48:28.000Z</time>
      </trkpt>
      <trkpt lat="47.47857" lon="6.7684">
        <ele>313.4</ele>
        <time>2016-01-10T10:48:29.000Z</time>
      </trkpt>
      <trkpt lat="47.47862" lon="6.76843">
        <ele>313.4</ele>
        <time>2016-01-10T10:48:30.000Z</time>
      </trkpt>
      <trkpt lat="47.47868" lon="6.76845">
        <ele>313.8</ele>
        <time>2016-01-10T10:48:31.000Z</time>
      </trkpt>
      <trkpt lat="47.47872" lon="6.76848">
        <ele>314.2</ele>
        <time>2016-01-10T10:48:32.000Z</time>
      </trkpt>
      <trkpt lat="47.47877" lon="6.7685">
        <ele>314</ele>
        <time>2016-01-10T10:48:33.000Z</time>
      </trkpt>
      <trkpt lat="47.47882" lon="6.76852">
        <ele>314.6</ele>
        <time>2016-01-10T10:48:34.000Z</time>
      </trkpt>
      <trkpt lat="47.47887" lon="6.76855">
        <ele>314.7</ele>
        <time>2016-01-10T10:48:35.000Z</time>
      </trkpt>
      <trkpt lat="47.47892" lon="6.76857">
        <ele>315</ele>
        <time>2016-01-10T10:48:36.000Z</time>
      </trkpt>
      <trkpt lat="47.47897" lon="6.7686">
        <ele>315.7</ele>
        <time>2016-01-10T10:48:37.000Z</time>
      </trkpt>
      <trkpt lat="47.47902" lon="6.76862">
        <ele>315.6</ele>
        <time>2016-01-10T10:48:38.000Z</time>
      </trkpt>
      <trkpt lat="47.47907" lon="6.76864">
        <ele>316.2</ele>
        <time>2016-01-10T10:48:39.000Z</time>
      </trkpt>
      <trkpt lat="47.47911" lon="6.76866">
        <ele>316.4</ele>
        <time>2016-01-10T10:48:40.000Z</time>
      </trkpt>
      <trkpt lat="47.47916" lon="6.76869">
        <ele>315.9</ele>
        <time>2016-01-10T10:48:41.000Z</time>
      </trkpt>
      <trkpt lat="47.47921" lon="6.76871">
        <ele>316.1</ele>
        <time>2016-01-10T10:48:42.000Z</time>
      </trkpt>
      <trkpt lat="47.47926" lon="6.76874">
        <ele>316.1</ele>
        <time>2016-01-10T10:48:43.000Z</time>
      </trkpt>
      <trkpt lat="47.47931" lon="6.76877">
        <ele>315.8</ele>
        <time>2016-01-10T10:48:44.000Z</time>
      </trkpt>
      <trkpt lat="47.47935" lon="6.76879">
        <ele>315.9</ele>
        <time>2016-01-10T10:48:45.000Z</time>
      </trkpt>
      <trkpt lat="47.4794" lon="6.76882">
        <ele>316.4</ele>
        <time>2016-01-10T10:48:46.000Z</time>
      </trkpt>
      <trkpt lat="47.47945" lon="6.76884">
        <ele>316.3</ele>
        <time>2016-01-10T10:48:47.000Z</time>
      </trkpt>
      <trkpt lat="47.4795" lon="6.76886">
        <ele>315.7</ele>
        <time>2016-01-10T10:48:48.000Z</time>
      </trkpt>
      <trkpt lat="47.47955" lon="6.76888">
        <ele>316</ele>
        <time>2016-01-10T10:48:49.000Z</time>
      </trkpt>
      <trkpt lat="47.4796" lon="6.7689">
        <ele>316.4</ele>
        <time>2016-01-10T10:48:50.000Z</time>
      </trkpt>
      <trkpt lat="47.47965" lon="6.76892">
        <ele>316.3</ele>
        <time>2016-01-10T10:48:51.000Z</time>
      </trkpt>
      <trkpt lat="47.4797" lon="6.76894">
        <ele>316.4</ele>
        <time>2016-01-10T10:48:52.000Z</time>
      </trkpt>
      <trkpt lat="47.47975" lon="6.76896">
        <ele>316.4</ele>
        <time>2016-01-10T10:48:53.000Z</time>
      </trkpt>
      <trkpt lat="47.4798" lon="6.76898">
        <ele>316.3</ele>
        <time>2016-01-10T10:48:54.000Z</time>
      </trkpt>
      <trkpt lat="47.47985" lon="6.76899">
        <ele>315.9</ele>
        <time>2016-01-10T10:48:55.000Z</time>
      </trkpt>
      <trkpt lat="47.4799" lon="6.769">
        <ele>315.8</ele>
        <time>2016-01-10T10:48:56.000Z</time>
      </trkpt>
      <trkpt lat="47.47996" lon="6.76902">
        <ele>316.1</ele>
        <time>2016-01-10T10:48:57.000Z</time>
      </trkpt>
      <trkpt lat="47.48001" lon="6.76906">
        <ele>314.9</ele>
        <time>2016-01-10T10:48:58.000Z</time>
      </trkpt>
      <trkpt lat="47.48006" lon="6.76909">
        <ele>315</ele>
        <time>2016-01-10T10:48:59.000Z</time>
      </trkpt>
      <trkpt lat="47.4801" lon="6.76911">
        <ele>315.1</ele>
        <time>2016-01-10T10:49:00.000Z</time>
      </trkpt>
      <trkpt lat="47.48015" lon="6.76913">
        <ele>315.2</ele>
        <time>2016-01-10T10:49:01.000Z</time>
      </trkpt>
      <trkpt lat="47.4802" lon="6.76915">
        <ele>315.4</ele>
        <time>2016-01-10T10:49:02.000Z</time>
      </trkpt>
      <trkpt lat="47.48025" lon="6.76916">
        <ele>315.6</ele>
        <time>2016-01-10T10:49:03.000Z</time>
      </trkpt>
      <trkpt lat="47.4803" lon="6.76919">
        <ele>315.4</ele>
        <time>2016-01-10T10:49:04.000Z</time>
      </trkpt>
      <trkpt lat="47.48035" lon="6.7692">
        <ele>315.6</ele>
        <time>2016-01-10T10:49:05.000Z</time>
      </trkpt>
      <trkpt lat="47.4804" lon="6.76921">
        <ele>315.9</ele>
        <time>2016-01-10T10:49:06.000Z</time>
      </trkpt>
      <trkpt lat="47.48045" lon="6.76923">
        <ele>315.9</ele>
        <time>2016-01-10T10:49:07.000Z</time>
      </trkpt>
      <trkpt lat="47.4805" lon="6.76926">
        <ele>315.8</ele>
        <time>2016-01-10T10:49:08.000Z</time>
      </trkpt>
      <trkpt lat="47.48055" lon="6.76928">
        <ele>315.4</ele>
        <time>2016-01-10T10:49:09.000Z</time>
      </trkpt>
      <trkpt lat="47.4806" lon="6.76929">
        <ele>315.4</ele>
        <time>2016-01-10T10:49:10.000Z</time>
      </trkpt>
      <trkpt lat="47.48065" lon="6.76932">
        <ele>315.4</ele>
        <time>2016-01-10T10:49:11.000Z</time>
      </trkpt>
      <trkpt lat="47.4807" lon="6.76933">
        <ele>315.9</ele>
        <time>2016-01-10T10:49:12.000Z</time>
      </trkpt>
      <trkpt lat="47.48075" lon="6.76936">
        <ele>315.7</ele>
        <time>2016-01-10T10:49:13.000Z</time>
      </trkpt>
      <trkpt lat="47.48081" lon="6.76936">
        <ele>316.5</ele>
        <time>2016-01-10T10:49:14.000Z</time>
      </trkpt>
      <trkpt lat="47.48085" lon="6.76938">
        <ele>316.1</ele>
        <time>2016-01-10T10:49:15.000Z</time>
      </trkpt>
      <trkpt lat="47.48091" lon="6.7694">
        <ele>315.8</ele>
        <time>2016-01-10T10:49:16.000Z</time>
      </trkpt>
      <trkpt lat="47.48096" lon="6.76942">
        <ele>316</ele>
        <time>2016-01-10T10:49:17.000Z</time>
      </trkpt>
      <trkpt lat="47.481" lon="6.76943">
        <ele>316.2</ele>
        <time>2016-01-10T10:49:18.000Z</time>
      </trkpt>
      <trkpt lat="47.48105" lon="6.76945">
        <ele>316.1</ele>
        <time>2016-01-10T10:49:19.000Z</time>
      </trkpt>
      <trkpt lat="47.4811" lon="6.76947">
        <ele>316.3</ele>
        <time>2016-01-10T10:49:20.000Z</time>
      </trkpt>
      <trkpt lat="47.48115" lon="6.76948">
        <ele>317.3</ele>
        <time>2016-01-10T10:49:21.000Z</time>
      </trkpt>
      <trkpt lat="47.4812" lon="6.7695">
        <ele>317.5</ele>
        <time>2016-01-10T10:49:22.000Z</time>
      </trkpt>
      <trkpt lat="47.48126" lon="6.76952">
        <ele>317.9</ele>
        <time>2016-01-10T10:49:23.000Z</time>
      </trkpt>
      <trkpt lat="47.4813" lon="6.76954">
        <ele>318.1</ele>
        <time>2016-01-10T10:49:24.000Z</time>
      </trkpt>
      <trkpt lat="47.48136" lon="6.76956">
        <ele>318.3</ele>
        <time>2016-01-10T10:49:25.000Z</time>
      </trkpt>
      <trkpt lat="47.48141" lon="6.76958">
        <ele>318.3</ele>
        <time>2016-01-10T10:49:26.000Z</time>
      </trkpt>
      <trkpt lat="47.48146" lon="6.76962">
        <ele>315.6</ele>
        <time>2016-01-10T10:49:27.000Z</time>
      </trkpt>
      <trkpt lat="47.48152" lon="6.76963">
        <ele>315.6</ele>
        <time>2016-01-10T10:49:28.000Z</time>
      </trkpt>
      <trkpt lat="47.48157" lon="6.76966">
        <ele>314.5</ele>
        <time>2016-01-10T10:49:29.000Z</time>
      </trkpt>
      <trkpt lat="47.48162" lon="6.76968">
        <ele>314.5</ele>
        <time>2016-01-10T10:49:30.000Z</time>
      </trkpt>
      <trkpt lat="47.48167" lon="6.76969">
        <ele>315.1</ele>
        <time>2016-01-10T10:49:31.000Z</time>
      </trkpt>
      <trkpt lat="47.48171" lon="6.76969">
        <ele>316.8</ele>
        <time>2016-01-10T10:49:32.000Z</time>
      </trkpt>
      <trkpt lat="47.48176" lon="6.76972">
        <ele>315.4</ele>
        <time>2016-01-10T10:49:33.000Z</time>
      </trkpt>
      <trkpt lat="47.48181" lon="6.76973">
        <ele>316.4</ele>
        <time>2016-01-10T10:49:34.000Z</time>
      </trkpt>
      <trkpt lat="47.48186" lon="6.76974">
        <ele>317.1</ele>
        <time>2016-01-10T10:49:35.000Z</time>
      </trkpt>
      <trkpt lat="47.48191" lon="6.76976">
        <ele>316.6</ele>
        <time>2016-01-10T10:49:36.000Z</time>
      </trkpt>
      <trkpt lat="47.48196" lon="6.76978">
        <ele>316.6</ele>
        <time>2016-01-10T10:49:37.000Z</time>
      </trkpt>
      <trkpt lat="47.48201" lon="6.7698">
        <ele>317</ele>
        <time>2016-01-10T10:49:38.000Z</time>
      </trkpt>
      <trkpt lat="47.48206" lon="6.76983">
        <ele>315.8</ele>
        <time>2016-01-10T10:49:39.000Z</time>
      </trkpt>
      <trkpt lat="47.48211" lon="6.76984">
        <ele>316.1</ele>
        <time>2016-01-10T10:49:40.000Z</time>
      </trkpt>
      <trkpt lat="47.48216" lon="6.76987">
        <ele>315.6</ele>
        <time>2016-01-10T10:49:41.000Z</time>
      </trkpt>
      <trkpt lat="47.48221" lon="6.76989">
        <ele>315.8</ele>
        <time>2016-01-10T10:49:42.000Z</time>
      </trkpt>
      <trkpt lat="47.48226" lon="6.7699">
        <ele>316.1</ele>
        <time>2016-01-10T10:49:43.000Z</time>
      </trkpt>
      <trkpt lat="47.48231" lon="6.76991">
        <ele>316.6</ele>
        <time>2016-01-10T10:49:44.000Z</time>
      </trkpt>
      <trkpt lat="47.48236" lon="6.76992">
        <ele>317.1</ele>
        <time>2016-01-10T10:49:45.000Z</time>
      </trkpt>
      <trkpt lat="47.4824" lon="6.76994">
        <ele>317.6</ele>
        <time>2016-01-10T10:49:46.000Z</time>
      </trkpt>
      <trkpt lat="47.48245" lon="6.76996">
        <ele>317.8</ele>
        <time>2016-01-10T10:49:47.000Z</time>
      </trkpt>
      <trkpt lat="47.4825" lon="6.76998">
        <ele>318.1</ele>
        <time>2016-01-10T10:49:48.000Z</time>
      </trkpt>
      <trkpt lat="47.48254" lon="6.76999">
        <ele>319.1</ele>
        <time>2016-01-10T10:49:49.000Z</time>
      </trkpt>
      <trkpt lat="47.48259" lon="6.77001">
        <ele>319.7</ele>
        <time>2016-01-10T10:49:50.000Z</time>
      </trkpt>
      <trkpt lat="47.48264" lon="6.77002">
        <ele>319.9</ele>
        <time>2016-01-10T10:49:51.000Z</time>
      </trkpt>
      <trkpt lat="47.48268" lon="6.77004">
        <ele>320.5</ele>
        <time>2016-01-10T10:49:52.000Z</time>
      </trkpt>
      <trkpt lat="47.48272" lon="6.77005">
        <ele>320.4</ele>
        <time>2016-01-10T10:49:53.000Z</time>
      </trkpt>
      <trkpt lat="47.48276" lon="6.77008">
        <ele>320.5</ele>
        <time>2016-01-10T10:49:54.000Z</time>
      </trkpt>
      <trkpt lat="47.48278" lon="6.77012">
        <ele>320.3</ele>
        <time>2016-01-10T10:49:55.000Z</time>
      </trkpt>
      <trkpt lat="47.48279" lon="6.77017">
        <ele>320.8</ele>
        <time>2016-01-10T10:49:56.000Z</time>
      </trkpt>
      <trkpt lat="47.48278" lon="6.77024">
        <ele>320.5</ele>
        <time>2016-01-10T10:49:57.000Z</time>
      </trkpt>
      <trkpt lat="47.48276" lon="6.77032">
        <ele>319.6</ele>
        <time>2016-01-10T10:49:58.000Z</time>
      </trkpt>
      <trkpt lat="47.48275" lon="6.77037">
        <ele>318.7</ele>
        <time>2016-01-10T10:49:59.000Z</time>
      </trkpt>
      <trkpt lat="47.48274" lon="6.77042">
        <ele>318</ele>
        <time>2016-01-10T10:50:00.000Z</time>
      </trkpt>
      <trkpt lat="47.48273" lon="6.77048">
        <ele>318.8</ele>
        <time>2016-01-10T10:50:01.000Z</time>
      </trkpt>
      <trkpt lat="47.48272" lon="6.77053">
        <ele>318.3</ele>
        <time>2016-01-10T10:50:02.000Z</time>
      </trkpt>
      <trkpt lat="47.48271" lon="6.77059">
        <ele>318.4</ele>
        <time>2016-01-10T10:50:03.000Z</time>
      </trkpt>
      <trkpt lat="47.48269" lon="6.77064">
        <ele>318.3</ele>
        <time>2016-01-10T10:50:04.000Z</time>
      </trkpt>
      <trkpt lat="47.48268" lon="6.77069">
        <ele>318.3</ele>
        <time>2016-01-10T10:50:05.000Z</time>
      </trkpt>
      <trkpt lat="47.48267" lon="6.77074">
        <ele>317.1</ele>
        <time>2016-01-10T10:50:06.000Z</time>
      </trkpt>
      <trkpt lat="47.48265" lon="6.7708">
        <ele>316.8</ele>
        <time>2016-01-10T10:50:07.000Z</time>
      </trkpt>
      <trkpt lat="47.48264" lon="6.77085">
        <ele>316.5</ele>
        <time>2016-01-10T10:50:08.000Z</time>
      </trkpt>
      <trkpt lat="47.48263" lon="6.7709">
        <ele>316.9</ele>
        <time>2016-01-10T10:50:09.000Z</time>
      </trkpt>
      <trkpt lat="47.48262" lon="6.77095">
        <ele>316.1</ele>
        <time>2016-01-10T10:50:10.000Z</time>
      </trkpt>
      <trkpt lat="47.48261" lon="6.771">
        <ele>315.6</ele>
        <time>2016-01-10T10:50:11.000Z</time>
      </trkpt>
      <trkpt lat="47.48259" lon="6.77106">
        <ele>315.4</ele>
        <time>2016-01-10T10:50:12.000Z</time>
      </trkpt>
      <trkpt lat="47.48258" lon="6.7711">
        <ele>315.8</ele>
        <time>2016-01-10T10:50:13.000Z</time>
      </trkpt>
      <trkpt lat="47.48257" lon="6.77114">
        <ele>315.6</ele>
        <time>2016-01-10T10:50:14.000Z</time>
      </trkpt>
      <trkpt lat="47.48261" lon="6.77113">
        <ele>316.7</ele>
        <time>2016-01-10T10:50:18.000Z</time>
      </trkpt>
      <trkpt lat="47.48264" lon="6.77111">
        <ele>315.6</ele>
        <time>2016-01-10T10:50:19.000Z</time>
      </trkpt>
      <trkpt lat="47.48267" lon="6.77109">
        <ele>314.7</ele>
        <time>2016-01-10T10:50:20.000Z</time>
      </trkpt>
      <trkpt lat="47.48269" lon="6.77108">
        <ele>313.5</ele>
        <time>2016-01-10T10:50:21.000Z</time>
      </trkpt>
      <trkpt lat="47.48271" lon="6.77106">
        <ele>313.7</ele>
        <time>2016-01-10T10:50:22.000Z</time>
      </trkpt>
      <trkpt lat="47.48273" lon="6.77105">
        <ele>313.4</ele>
        <time>2016-01-10T10:50:23.000Z</time>
      </trkpt>
      <trkpt lat="47.48276" lon="6.77103">
        <ele>312.8</ele>
        <time>2016-01-10T10:50:25.000Z</time>
      </trkpt>
      <trkpt lat="47.48278" lon="6.77103">
        <ele>311.9</ele>
        <time>2016-01-10T10:50:26.000Z</time>
      </trkpt>
      <trkpt lat="47.48283" lon="6.77104">
        <ele>311.6</ele>
        <time>2016-01-10T10:50:28.000Z</time>
      </trkpt>
      <trkpt lat="47.48285" lon="6.77104">
        <ele>311.8</ele>
        <time>2016-01-10T10:50:29.000Z</time>
      </trkpt>
      <trkpt lat="47.48289" lon="6.77102">
        <ele>313.5</ele>
        <time>2016-01-10T10:50:31.000Z</time>
      </trkpt>
      <trkpt lat="47.48291" lon="6.771">
        <ele>314.7</ele>
        <time>2016-01-10T10:50:32.000Z</time>
      </trkpt>
      <trkpt lat="47.48293" lon="6.77096">
        <ele>315.8</ele>
        <time>2016-01-10T10:50:34.000Z</time>
      </trkpt>
      <trkpt lat="47.48295" lon="6.77095">
        <ele>311.9</ele>
        <time>2016-01-10T10:50:35.000Z</time>
      </trkpt>
      <trkpt lat="47.48299" lon="6.77097">
        <ele>314.2</ele>
        <time>2016-01-10T10:50:38.000Z</time>
      </trkpt>
      <trkpt lat="47.483" lon="6.77097">
        <ele>316.9</ele>
        <time>2016-01-10T10:50:39.000Z</time>
      </trkpt>
      <trkpt lat="47.48304" lon="6.77097">
        <ele>317.4</ele>
        <time>2016-01-10T10:50:42.000Z</time>
      </trkpt>
      <trkpt lat="47.48305" lon="6.77097">
        <ele>315.2</ele>
        <time>2016-01-10T10:50:43.000Z</time>
      </trkpt>
      <trkpt lat="47.48308" lon="6.77098">
        <ele>313.7</ele>
        <time>2016-01-10T10:50:44.000Z</time>
      </trkpt>
      <trkpt lat="47.4831" lon="6.77098">
        <ele>313.4</ele>
        <time>2016-01-10T10:50:45.000Z</time>
      </trkpt>
      <trkpt lat="47.48313" lon="6.77098">
        <ele>314.4</ele>
        <time>2016-01-10T10:50:46.000Z</time>
      </trkpt>
      <trkpt lat="47.48315" lon="6.77098">
        <ele>314.7</ele>
        <time>2016-01-10T10:50:47.000Z</time>
      </trkpt>
      <trkpt lat="47.48318" lon="6.77098">
        <ele>314.3</ele>
        <time>2016-01-10T10:50:49.000Z</time>
      </trkpt>
      <trkpt lat="47.4832" lon="6.77098">
        <ele>315</ele>
        <time>2016-01-10T10:50:50.000Z</time>
      </trkpt>
      <trkpt lat="47.48324" lon="6.77099">
        <ele>314.8</ele>
        <time>2016-01-10T10:50:52.000Z</time>
      </trkpt>
      <trkpt lat="47.48325" lon="6.77099">
        <ele>319.4</ele>
        <time>2016-01-10T10:50:53.000Z</time>
      </trkpt>
      <trkpt lat="47.48329" lon="6.77099">
        <ele>318.9</ele>
        <time>2016-01-10T10:50:57.000Z</time>
      </trkpt>
      <trkpt lat="47.48331" lon="6.771">
        <ele>320.1</ele>
        <time>2016-01-10T10:50:58.000Z</time>
      </trkpt>
      <trkpt lat="47.48335" lon="6.77101">
        <ele>318.9</ele>
        <time>2016-01-10T10:51:01.000Z</time>
      </trkpt>
      <trkpt lat="47.48336" lon="6.77102">
        <ele>318.2</ele>
        <time>2016-01-10T10:51:02.000Z</time>
      </trkpt>
      <trkpt lat="47.48339" lon="6.77104">
        <ele>318.3</ele>
        <time>2016-01-10T10:51:04.000Z</time>
      </trkpt>
      <trkpt lat="47.48341" lon="6.77105">
        <ele>317.5</ele>
        <time>2016-01-10T10:51:05.000Z</time>
      </trkpt>
      <trkpt lat="47.48343" lon="6.77107">
        <ele>316.7</ele>
        <time>2016-01-10T10:51:07.000Z</time>
      </trkpt>
      <trkpt lat="47.48345" lon="6.77109">
        <ele>317.8</ele>
        <time>2016-01-10T10:51:08.000Z</time>
      </trkpt>
      <trkpt lat="47.48346" lon="6.77113">
        <ele>318.4</ele>
        <time>2016-01-10T10:51:10.000Z</time>
      </trkpt>
      <trkpt lat="47.48347" lon="6.77114">
        <ele>318.9</ele>
        <time>2016-01-10T10:51:11.000Z</time>
      </trkpt>
      <trkpt lat="47.48347" lon="6.77119">
        <ele>319.3</ele>
        <time>2016-01-10T10:51:13.000Z</time>
      </trkpt>
      <trkpt lat="47.48347" lon="6.77121">
        <ele>318.2</ele>
        <time>2016-01-10T10:51:14.000Z</time>
      </trkpt>
      <trkpt lat="47.48347" lon="6.77126">
        <ele>318.2</ele>
        <time>2016-01-10T10:51:17.000Z</time>
      </trkpt>
      <trkpt lat="47.48346" lon="6.77128">
        <ele>316.6</ele>
        <time>2016-01-10T10:51:18.000Z</time>
      </trkpt>
      <trkpt lat="47.48346" lon="6.77133">
        <ele>316</ele>
        <time>2016-01-10T10:51:21.000Z</time>
      </trkpt>
      <trkpt lat="47.48345" lon="6.77135">
        <ele>316.4</ele>
        <time>2016-01-10T10:51:22.000Z</time>
      </trkpt>
      <trkpt lat="47.48344" lon="6.77141">
        <ele>315.1</ele>
        <time>2016-01-10T10:51:25.000Z</time>
      </trkpt>
      <trkpt lat="47.48344" lon="6.77142">
        <ele>315.4</ele>
        <time>2016-01-10T10:51:26.000Z</time>
      </trkpt>
      <trkpt lat="47.48344" lon="6.77148">
        <ele>315.8</ele>
        <time>2016-01-10T10:51:29.000Z</time>
      </trkpt>
      <trkpt lat="47.48344" lon="6.77149">
        <ele>315.8</ele>
        <time>2016-01-10T10:51:30.000Z</time>
      </trkpt>
      <trkpt lat="47.48342" lon="6.77154">
        <ele>316.3</ele>
        <time>2016-01-10T10:51:33.000Z</time>
      </trkpt>
      <trkpt lat="47.48341" lon="6.77156">
        <ele>316.4</ele>
        <time>2016-01-10T10:51:34.000Z</time>
      </trkpt>
      <trkpt lat="47.48341" lon="6.77162">
        <ele>316.6</ele>
        <time>2016-01-10T10:51:37.000Z</time>
      </trkpt>
      <trkpt lat="47.48341" lon="6.77165">
        <ele>317</ele>
        <time>2016-01-10T10:51:38.000Z</time>
      </trkpt>
      <trkpt lat="47.48342" lon="6.77171">
        <ele>319.6</ele>
        <time>2016-01-10T10:51:41.000Z</time>
      </trkpt>
      <trkpt lat="47.48342" lon="6.77172">
        <ele>319.7</ele>
        <time>2016-01-10T10:51:42.000Z</time>
      </trkpt>
      <trkpt lat="47.48342" lon="6.77178">
        <ele>323</ele>
        <time>2016-01-10T10:51:46.000Z</time>
      </trkpt>
      <trkpt lat="47.48342" lon="6.77179">
        <ele>324.2</ele>
        <time>2016-01-10T10:51:47.000Z</time>
      </trkpt>
      <trkpt lat="47.48343" lon="6.77186">
        <ele>322.1</ele>
        <time>2016-01-10T10:51:52.000Z</time>
      </trkpt>
      <trkpt lat="47.48343" lon="6.77187">
        <ele>322.3</ele>
        <time>2016-01-10T10:51:53.000Z</time>
      </trkpt>
      <trkpt lat="47.48344" lon="6.77193">
        <ele>324.3</ele>
        <time>2016-01-10T10:51:56.000Z</time>
      </trkpt>
      <trkpt lat="47.48344" lon="6.77194">
        <ele>326.2</ele>
        <time>2016-01-10T10:51:57.000Z</time>
      </trkpt>
      <trkpt lat="47.48346" lon="6.77199">
        <ele>331.9</ele>
        <time>2016-01-10T10:52:02.000Z</time>
      </trkpt>
      <trkpt lat="47.48347" lon="6.77201">
        <ele>333</ele>
        <time>2016-01-10T10:52:03.000Z</time>
      </trkpt>
      <trkpt lat="47.48348" lon="6.77205">
        <ele>334.2</ele>
        <time>2016-01-10T10:52:05.000Z</time>
      </trkpt>
      <trkpt lat="47.48349" lon="6.77207">
        <ele>332.5</ele>
        <time>2016-01-10T10:52:06.000Z</time>
      </trkpt>
      <trkpt lat="47.48351" lon="6.77211">
        <ele>333.8</ele>
        <time>2016-01-10T10:52:08.000Z</time>
      </trkpt>
      <trkpt lat="47.48353" lon="6.77212">
        <ele>334.2</ele>
        <time>2016-01-10T10:52:09.000Z</time>
      </trkpt>
      <trkpt lat="47.48356" lon="6.77213">
        <ele>335.1</ele>
        <time>2016-01-10T10:52:11.000Z</time>
      </trkpt>
      <trkpt lat="47.48358" lon="6.77214">
        <ele>336.8</ele>
        <time>2016-01-10T10:52:12.000Z</time>
      </trkpt>
      <trkpt lat="47.48361" lon="6.77215">
        <ele>337.9</ele>
        <time>2016-01-10T10:52:14.000Z</time>
      </trkpt>
      <trkpt lat="47.48363" lon="6.77215">
        <ele>338.7</ele>
        <time>2016-01-10T10:52:15.000Z</time>
      </trkpt>
      <trkpt lat="47.48366" lon="6.77216">
        <ele>344.1</ele>
        <time>2016-01-10T10:52:18.000Z</time>
      </trkpt>
      <trkpt lat="47.48367" lon="6.77216">
        <ele>345.1</ele>
        <time>2016-01-10T10:52:19.000Z</time>
      </trkpt>
      <trkpt lat="47.4837" lon="6.77219">
        <ele>345.6</ele>
        <time>2016-01-10T10:52:21.000Z</time>
      </trkpt>
      <trkpt lat="47.48372" lon="6.77222">
        <ele>344.5</ele>
        <time>2016-01-10T10:52:22.000Z</time>
      </trkpt>
      <trkpt lat="47.48373" lon="6.77224">
        <ele>343.6</ele>
        <time>2016-01-10T10:52:23.000Z</time>
      </trkpt>
      <trkpt lat="47.48375" lon="6.77227">
        <ele>343.6</ele>
        <time>2016-01-10T10:52:24.000Z</time>
      </trkpt>
      <trkpt lat="47.48376" lon="6.7723">
        <ele>343.3</ele>
        <time>2016-01-10T10:52:25.000Z</time>
      </trkpt>
      <trkpt lat="47.48378" lon="6.77232">
        <ele>343.7</ele>
        <time>2016-01-10T10:52:26.000Z</time>
      </trkpt>
      <trkpt lat="47.4838" lon="6.77235">
        <ele>344.1</ele>
        <time>2016-01-10T10:52:27.000Z</time>
      </trkpt>
      <trkpt lat="47.48383" lon="6.77237">
        <ele>344.4</ele>
        <time>2016-01-10T10:52:28.000Z</time>
      </trkpt>
      <trkpt lat="47.48385" lon="6.77239">
        <ele>348.5</ele>
        <time>2016-01-10T10:52:29.000Z</time>
      </trkpt>
      <trkpt lat="47.48388" lon="6.77241">
        <ele>349.4</ele>
        <time>2016-01-10T10:52:30.000Z</time>
      </trkpt>
      <trkpt lat="47.4839" lon="6.77244">
        <ele>349.8</ele>
        <time>2016-01-10T10:52:31.000Z</time>
      </trkpt>
      <trkpt lat="47.48393" lon="6.77246">
        <ele>351.3</ele>
        <time>2016-01-10T10:52:32.000Z</time>
      </trkpt>
      <trkpt lat="47.48395" lon="6.77249">
        <ele>351.3</ele>
        <time>2016-01-10T10:52:33.000Z</time>
      </trkpt>
      <trkpt lat="47.48397" lon="6.77251">
        <ele>351.6</ele>
        <time>2016-01-10T10:52:34.000Z</time>
      </trkpt>
      <trkpt lat="47.484" lon="6.77253">
        <ele>353.6</ele>
        <time>2016-01-10T10:52:35.000Z</time>
      </trkpt>
      <trkpt lat="47.48402" lon="6.77254">
        <ele>354.8</ele>
        <time>2016-01-10T10:52:36.000Z</time>
      </trkpt>
      <trkpt lat="47.48404" lon="6.77255">
        <ele>354.8</ele>
        <time>2016-01-10T10:52:37.000Z</time>
      </trkpt>
      <trkpt lat="47.48407" lon="6.77256">
        <ele>355.3</ele>
        <time>2016-01-10T10:52:38.000Z</time>
      </trkpt>
      <trkpt lat="47.48409" lon="6.77258">
        <ele>355.7</ele>
        <time>2016-01-10T10:52:39.000Z</time>
      </trkpt>
      <trkpt lat="47.48411" lon="6.77259">
        <ele>355.8</ele>
        <time>2016-01-10T10:52:40.000Z</time>
      </trkpt>
      <trkpt lat="47.48415" lon="6.77261">
        <ele>355.9</ele>
        <time>2016-01-10T10:52:42.000Z</time>
      </trkpt>
      <trkpt lat="47.48418" lon="6.77263">
        <ele>355.4</ele>
        <time>2016-01-10T10:52:43.000Z</time>
      </trkpt>
      <trkpt lat="47.4842" lon="6.77265">
        <ele>355</ele>
        <time>2016-01-10T10:52:44.000Z</time>
      </trkpt>
      <trkpt lat="47.48423" lon="6.77269">
        <ele>354.3</ele>
        <time>2016-01-10T10:52:45.000Z</time>
      </trkpt>
      <trkpt lat="47.48425" lon="6.77272">
        <ele>353.4</ele>
        <time>2016-01-10T10:52:46.000Z</time>
      </trkpt>
      <trkpt lat="47.48428" lon="6.77276">
        <ele>352.9</ele>
        <time>2016-01-10T10:52:47.000Z</time>
      </trkpt>
      <trkpt lat="47.4843" lon="6.7728">
        <ele>352.5</ele>
        <time>2016-01-10T10:52:48.000Z</time>
      </trkpt>
      <trkpt lat="47.48432" lon="6.77284">
        <ele>352.9</ele>
        <time>2016-01-10T10:52:49.000Z</time>
      </trkpt>
      <trkpt lat="47.48434" lon="6.77287">
        <ele>353.3</ele>
        <time>2016-01-10T10:52:50.000Z</time>
      </trkpt>
      <trkpt lat="47.48436" lon="6.7729">
        <ele>351.6</ele>
        <time>2016-01-10T10:52:51.000Z</time>
      </trkpt>
      <trkpt lat="47.48438" lon="6.77294">
        <ele>349.9</ele>
        <time>2016-01-10T10:52:52.000Z</time>
      </trkpt>
      <trkpt lat="47.4844" lon="6.77297">
        <ele>348.9</ele>
        <time>2016-01-10T10:52:53.000Z</time>
      </trkpt>
      <trkpt lat="47.48442" lon="6.773">
        <ele>348.1</ele>
        <time>2016-01-10T10:52:54.000Z</time>
      </trkpt>
      <trkpt lat="47.48445" lon="6.77304">
        <ele>348</ele>
        <time>2016-01-10T10:52:55.000Z</time>
      </trkpt>
      <trkpt lat="47.48448" lon="6.77307">
        <ele>347.1</ele>
        <time>2016-01-10T10:52:56.000Z</time>
      </trkpt>
      <trkpt lat="47.48452" lon="6.7731">
        <ele>347.6</ele>
        <time>2016-01-10T10:52:57.000Z</time>
      </trkpt>
      <trkpt lat="47.48455" lon="6.77313">
        <ele>347.6</ele>
        <time>2016-01-10T10:52:58.000Z</time>
      </trkpt>
      <trkpt lat="47.48458" lon="6.77316">
        <ele>348.1</ele>
        <time>2016-01-10T10:52:59.000Z</time>
      </trkpt>
      <trkpt lat="47.48461" lon="6.7732">
        <ele>347.9</ele>
        <time>2016-01-10T10:53:00.000Z</time>
      </trkpt>
      <trkpt lat="47.48464" lon="6.77323">
        <ele>347.9</ele>
        <time>2016-01-10T10:53:01.000Z</time>
      </trkpt>
      <trkpt lat="47.48467" lon="6.77327">
        <ele>348.1</ele>
        <time>2016-01-10T10:53:02.000Z</time>
      </trkpt>
      <trkpt lat="47.4847" lon="6.7733">
        <ele>348</ele>
        <time>2016-01-10T10:53:03.000Z</time>
      </trkpt>
      <trkpt lat="47.48472" lon="6.77333">
        <ele>347.7</ele>
        <time>2016-01-10T10:53:04.000Z</time>
      </trkpt>
      <trkpt lat="47.48475" lon="6.77337">
        <ele>348.8</ele>
        <time>2016-01-10T10:53:05.000Z</time>
      </trkpt>
      <trkpt lat="47.48477" lon="6.7734">
        <ele>349.4</ele>
        <time>2016-01-10T10:53:06.000Z</time>
      </trkpt>
      <trkpt lat="47.48479" lon="6.77343">
        <ele>349.4</ele>
        <time>2016-01-10T10:53:07.000Z</time>
      </trkpt>
      <trkpt lat="47.48482" lon="6.77346">
        <ele>349.8</ele>
        <time>2016-01-10T10:53:08.000Z</time>
      </trkpt>
      <trkpt lat="47.48484" lon="6.77349">
        <ele>349.9</ele>
        <time>2016-01-10T10:53:09.000Z</time>
      </trkpt>
      <trkpt lat="47.48486" lon="6.77352">
        <ele>350</ele>
        <time>2016-01-10T10:53:10.000Z</time>
      </trkpt>
      <trkpt lat="47.48489" lon="6.77355">
        <ele>351</ele>
        <time>2016-01-10T10:53:11.000Z</time>
      </trkpt>
      <trkpt lat="47.48491" lon="6.77357">
        <ele>352</ele>
        <time>2016-01-10T10:53:12.000Z</time>
      </trkpt>
      <trkpt lat="47.48494" lon="6.7736">
        <ele>351.9</ele>
        <time>2016-01-10T10:53:13.000Z</time>
      </trkpt>
      <trkpt lat="47.48497" lon="6.77363">
        <ele>354.8</ele>
        <time>2016-01-10T10:53:14.000Z</time>
      </trkpt>
      <trkpt lat="47.485" lon="6.77365">
        <ele>355.7</ele>
        <time>2016-01-10T10:53:15.000Z</time>
      </trkpt>
      <trkpt lat="47.48502" lon="6.77368">
        <ele>354.7</ele>
        <time>2016-01-10T10:53:16.000Z</time>
      </trkpt>
      <trkpt lat="47.48504" lon="6.77371">
        <ele>355.2</ele>
        <time>2016-01-10T10:53:17.000Z</time>
      </trkpt>
      <trkpt lat="47.48506" lon="6.77373">
        <ele>356.9</ele>
        <time>2016-01-10T10:53:18.000Z</time>
      </trkpt>
      <trkpt lat="47.48508" lon="6.77374">
        <ele>357.9</ele>
        <time>2016-01-10T10:53:19.000Z</time>
      </trkpt>
      <trkpt lat="47.4851" lon="6.77376">
        <ele>358.9</ele>
        <time>2016-01-10T10:53:20.000Z</time>
      </trkpt>
      <trkpt lat="47.48512" lon="6.77378">
        <ele>359.2</ele>
        <time>2016-01-10T10:53:21.000Z</time>
      </trkpt>
      <trkpt lat="47.48515" lon="6.7738">
        <ele>359.4</ele>
        <time>2016-01-10T10:53:22.000Z</time>
      </trkpt>
      <trkpt lat="47.48518" lon="6.77383">
        <ele>360.3</ele>
        <time>2016-01-10T10:53:23.000Z</time>
      </trkpt>
      <trkpt lat="47.48521" lon="6.77385">
        <ele>360.8</ele>
        <time>2016-01-10T10:53:24.000Z</time>
      </trkpt>
      <trkpt lat="47.48523" lon="6.77387">
        <ele>361</ele>
        <time>2016-01-10T10:53:25.000Z</time>
      </trkpt>
      <trkpt lat="47.48526" lon="6.77388">
        <ele>361.2</ele>
        <time>2016-01-10T10:53:26.000Z</time>
      </trkpt>
      <trkpt lat="47.48528" lon="6.7739">
        <ele>361.2</ele>
        <time>2016-01-10T10:53:27.000Z</time>
      </trkpt>
      <trkpt lat="47.4853" lon="6.77393">
        <ele>359.1</ele>
        <time>2016-01-10T10:53:29.000Z</time>
      </trkpt>
      <trkpt lat="47.48531" lon="6.77395">
        <ele>360.7</ele>
        <time>2016-01-10T10:53:30.000Z</time>
      </trkpt>
      <trkpt lat="47.48533" lon="6.774">
        <ele>361.5</ele>
        <time>2016-01-10T10:53:32.000Z</time>
      </trkpt>
      <trkpt lat="47.48535" lon="6.77402">
        <ele>361.6</ele>
        <time>2016-01-10T10:53:33.000Z</time>
      </trkpt>
      <trkpt lat="47.48536" lon="6.77404">
        <ele>361.5</ele>
        <time>2016-01-10T10:53:34.000Z</time>
      </trkpt>
      <trkpt lat="47.48538" lon="6.77406">
        <ele>358.8</ele>
        <time>2016-01-10T10:53:35.000Z</time>
      </trkpt>
      <trkpt lat="47.4854" lon="6.77409">
        <ele>357.8</ele>
        <time>2016-01-10T10:53:36.000Z</time>
      </trkpt>
      <trkpt lat="47.48542" lon="6.77411">
        <ele>358.8</ele>
        <time>2016-01-10T10:53:37.000Z</time>
      </trkpt>
      <trkpt lat="47.48544" lon="6.77413">
        <ele>360.7</ele>
        <time>2016-01-10T10:53:38.000Z</time>
      </trkpt>
      <trkpt lat="47.48547" lon="6.77415">
        <ele>361.5</ele>
        <time>2016-01-10T10:53:39.000Z</time>
      </trkpt>
      <trkpt lat="47.4855" lon="6.77417">
        <ele>362.1</ele>
        <time>2016-01-10T10:53:40.000Z</time>
      </trkpt>
      <trkpt lat="47.48553" lon="6.77419">
        <ele>361.9</ele>
        <time>2016-01-10T10:53:41.000Z</time>
      </trkpt>
      <trkpt lat="47.48556" lon="6.77422">
        <ele>359.7</ele>
        <time>2016-01-10T10:53:42.000Z</time>
      </trkpt>
      <trkpt lat="47.48558" lon="6.77425">
        <ele>359</ele>
        <time>2016-01-10T10:53:43.000Z</time>
      </trkpt>
      <trkpt lat="47.4856" lon="6.77428">
        <ele>359.4</ele>
        <time>2016-01-10T10:53:44.000Z</time>
      </trkpt>
      <trkpt lat="47.48561" lon="6.77431">
        <ele>359.1</ele>
        <time>2016-01-10T10:53:45.000Z</time>
      </trkpt>
      <trkpt lat="47.48562" lon="6.77434">
        <ele>359.1</ele>
        <time>2016-01-10T10:53:46.000Z</time>
      </trkpt>
      <trkpt lat="47.48564" lon="6.77437">
        <ele>357</ele>
        <time>2016-01-10T10:53:47.000Z</time>
      </trkpt>
      <trkpt lat="47.48565" lon="6.7744">
        <ele>356.6</ele>
        <time>2016-01-10T10:53:48.000Z</time>
      </trkpt>
      <trkpt lat="47.48567" lon="6.77443">
        <ele>356.5</ele>
        <time>2016-01-10T10:53:49.000Z</time>
      </trkpt>
      <trkpt lat="47.4857" lon="6.77445">
        <ele>355.4</ele>
        <time>2016-01-10T10:53:51.000Z</time>
      </trkpt>
      <trkpt lat="47.48572" lon="6.77446">
        <ele>356</ele>
        <time>2016-01-10T10:53:52.000Z</time>
      </trkpt>
      <trkpt lat="47.48575" lon="6.77447">
        <ele>355.7</ele>
        <time>2016-01-10T10:53:53.000Z</time>
      </trkpt>
      <trkpt lat="47.48577" lon="6.77449">
        <ele>355.4</ele>
        <time>2016-01-10T10:53:54.000Z</time>
      </trkpt>
      <trkpt lat="47.48579" lon="6.77452">
        <ele>354.7</ele>
        <time>2016-01-10T10:53:55.000Z</time>
      </trkpt>
      <trkpt lat="47.48581" lon="6.77454">
        <ele>356.1</ele>
        <time>2016-01-10T10:53:56.000Z</time>
      </trkpt>
      <trkpt lat="47.48584" lon="6.77456">
        <ele>356.7</ele>
        <time>2016-01-10T10:53:57.000Z</time>
      </trkpt>
      <trkpt lat="47.48586" lon="6.77458">
        <ele>356.3</ele>
        <time>2016-01-10T10:53:58.000Z</time>
      </trkpt>
      <trkpt lat="47.48588" lon="6.77459">
        <ele>356.6</ele>
        <time>2016-01-10T10:53:59.000Z</time>
      </trkpt>
      <trkpt lat="47.4859" lon="6.77461">
        <ele>356.6</ele>
        <time>2016-01-10T10:54:00.000Z</time>
      </trkpt>
      <trkpt lat="47.48594" lon="6.77465">
        <ele>355.2</ele>
        <time>2016-01-10T10:54:02.000Z</time>
      </trkpt>
      <trkpt lat="47.48596" lon="6.77467">
        <ele>355.1</ele>
        <time>2016-01-10T10:54:03.000Z</time>
      </trkpt>
      <trkpt lat="47.48598" lon="6.77469">
        <ele>355.2</ele>
        <time>2016-01-10T10:54:04.000Z</time>
      </trkpt>
      <trkpt lat="47.486" lon="6.7747">
        <ele>356</ele>
        <time>2016-01-10T10:54:05.000Z</time>
      </trkpt>
      <trkpt lat="47.48602" lon="6.77472">
        <ele>356</ele>
        <time>2016-01-10T10:54:06.000Z</time>
      </trkpt>
      <trkpt lat="47.48605" lon="6.77473">
        <ele>355.8</ele>
        <time>2016-01-10T10:54:07.000Z</time>
      </trkpt>
      <trkpt lat="47.48608" lon="6.77476">
        <ele>350.5</ele>
        <time>2016-01-10T10:54:09.000Z</time>
      </trkpt>
      <trkpt lat="47.4861" lon="6.77477">
        <ele>352</ele>
        <time>2016-01-10T10:54:10.000Z</time>
      </trkpt>
      <trkpt lat="47.48613" lon="6.77478">
        <ele>350.4</ele>
        <time>2016-01-10T10:54:11.000Z</time>
      </trkpt>
      <trkpt lat="47.48615" lon="6.7748">
        <ele>352.3</ele>
        <time>2016-01-10T10:54:12.000Z</time>
      </trkpt>
      <trkpt lat="47.48618" lon="6.77482">
        <ele>352.8</ele>
        <time>2016-01-10T10:54:13.000Z</time>
      </trkpt>
      <trkpt lat="47.4862" lon="6.77484">
        <ele>352.6</ele>
        <time>2016-01-10T10:54:14.000Z</time>
      </trkpt>
      <trkpt lat="47.48622" lon="6.77486">
        <ele>352.9</ele>
        <time>2016-01-10T10:54:15.000Z</time>
      </trkpt>
      <trkpt lat="47.48624" lon="6.77489">
        <ele>352.9</ele>
        <time>2016-01-10T10:54:16.000Z</time>
      </trkpt>
      <trkpt lat="47.48626" lon="6.77492">
        <ele>352.6</ele>
        <time>2016-01-10T10:54:17.000Z</time>
      </trkpt>
      <trkpt lat="47.48627" lon="6.77495">
        <ele>352.9</ele>
        <time>2016-01-10T10:54:18.000Z</time>
      </trkpt>
      <trkpt lat="47.48629" lon="6.77498">
        <ele>352.3</ele>
        <time>2016-01-10T10:54:19.000Z</time>
      </trkpt>
      <trkpt lat="47.48631" lon="6.77501">
        <ele>352.9</ele>
        <time>2016-01-10T10:54:20.000Z</time>
      </trkpt>
      <trkpt lat="47.48634" lon="6.77505">
        <ele>352.4</ele>
        <time>2016-01-10T10:54:22.000Z</time>
      </trkpt>
      <trkpt lat="47.48635" lon="6.77507">
        <ele>352.1</ele>
        <time>2016-01-10T10:54:23.000Z</time>
      </trkpt>
      <trkpt lat="47.48639" lon="6.77512">
        <ele>353.5</ele>
        <time>2016-01-10T10:54:25.000Z</time>
      </trkpt>
      <trkpt lat="47.4864" lon="6.77514">
        <ele>353.4</ele>
        <time>2016-01-10T10:54:26.000Z</time>
      </trkpt>
      <trkpt lat="47.48642" lon="6.77516">
        <ele>353.4</ele>
        <time>2016-01-10T10:54:27.000Z</time>
      </trkpt>
      <trkpt lat="47.48644" lon="6.77519">
        <ele>353.4</ele>
        <time>2016-01-10T10:54:28.000Z</time>
      </trkpt>
      <trkpt lat="47.48646" lon="6.77522">
        <ele>354.2</ele>
        <time>2016-01-10T10:54:29.000Z</time>
      </trkpt>
      <trkpt lat="47.48648" lon="6.77526">
        <ele>354.8</ele>
        <time>2016-01-10T10:54:30.000Z</time>
      </trkpt>
      <trkpt lat="47.48651" lon="6.77529">
        <ele>352.8</ele>
        <time>2016-01-10T10:54:31.000Z</time>
      </trkpt>
      <trkpt lat="47.48653" lon="6.77533">
        <ele>355.8</ele>
        <time>2016-01-10T10:54:32.000Z</time>
      </trkpt>
      <trkpt lat="47.48656" lon="6.77536">
        <ele>355</ele>
        <time>2016-01-10T10:54:33.000Z</time>
      </trkpt>
      <trkpt lat="47.48659" lon="6.77539">
        <ele>355.1</ele>
        <time>2016-01-10T10:54:34.000Z</time>
      </trkpt>
      <trkpt lat="47.48661" lon="6.77541">
        <ele>354.9</ele>
        <time>2016-01-10T10:54:35.000Z</time>
      </trkpt>
      <trkpt lat="47.48663" lon="6.77544">
        <ele>354.7</ele>
        <time>2016-01-10T10:54:36.000Z</time>
      </trkpt>
      <trkpt lat="47.48665" lon="6.77547">
        <ele>353.2</ele>
        <time>2016-01-10T10:54:37.000Z</time>
      </trkpt>
      <trkpt lat="47.48667" lon="6.77551">
        <ele>352.7</ele>
        <time>2016-01-10T10:54:38.000Z</time>
      </trkpt>
      <trkpt lat="47.48669" lon="6.77555">
        <ele>351.5</ele>
        <time>2016-01-10T10:54:39.000Z</time>
      </trkpt>
      <trkpt lat="47.48671" lon="6.77559">
        <ele>351.6</ele>
        <time>2016-01-10T10:54:40.000Z</time>
      </trkpt>
      <trkpt lat="47.48674" lon="6.77563">
        <ele>351</ele>
        <time>2016-01-10T10:54:41.000Z</time>
      </trkpt>
      <trkpt lat="47.48676" lon="6.77566">
        <ele>349.3</ele>
        <time>2016-01-10T10:54:42.000Z</time>
      </trkpt>
      <trkpt lat="47.48679" lon="6.77569">
        <ele>348.4</ele>
        <time>2016-01-10T10:54:43.000Z</time>
      </trkpt>
      <trkpt lat="47.48681" lon="6.77571">
        <ele>349</ele>
        <time>2016-01-10T10:54:44.000Z</time>
      </trkpt>
      <trkpt lat="47.48683" lon="6.77574">
        <ele>349.9</ele>
        <time>2016-01-10T10:54:45.000Z</time>
      </trkpt>
      <trkpt lat="47.48685" lon="6.77577">
        <ele>350</ele>
        <time>2016-01-10T10:54:46.000Z</time>
      </trkpt>
      <trkpt lat="47.48687" lon="6.7758">
        <ele>348.7</ele>
        <time>2016-01-10T10:54:47.000Z</time>
      </trkpt>
      <trkpt lat="47.48689" lon="6.77584">
        <ele>347.5</ele>
        <time>2016-01-10T10:54:48.000Z</time>
      </trkpt>
      <trkpt lat="47.48691" lon="6.77587">
        <ele>347.7</ele>
        <time>2016-01-10T10:54:49.000Z</time>
      </trkpt>
      <trkpt lat="47.48693" lon="6.77591">
        <ele>347.2</ele>
        <time>2016-01-10T10:54:50.000Z</time>
      </trkpt>
      <trkpt lat="47.48695" lon="6.77594">
        <ele>347</ele>
        <time>2016-01-10T10:54:51.000Z</time>
      </trkpt>
      <trkpt lat="47.48696" lon="6.77598">
        <ele>345.5</ele>
        <time>2016-01-10T10:54:52.000Z</time>
      </trkpt>
      <trkpt lat="47.48698" lon="6.77601">
        <ele>344.5</ele>
        <time>2016-01-10T10:54:53.000Z</time>
      </trkpt>
      <trkpt lat="47.48699" lon="6.77604">
        <ele>343.7</ele>
        <time>2016-01-10T10:54:54.000Z</time>
      </trkpt>
      <trkpt lat="47.48701" lon="6.77606">
        <ele>343.8</ele>
        <time>2016-01-10T10:54:55.000Z</time>
      </trkpt>
      <trkpt lat="47.48703" lon="6.77609">
        <ele>343</ele>
        <time>2016-01-10T10:54:56.000Z</time>
      </trkpt>
      <trkpt lat="47.48705" lon="6.77612">
        <ele>341</ele>
        <time>2016-01-10T10:54:57.000Z</time>
      </trkpt>
      <trkpt lat="47.48707" lon="6.77614">
        <ele>339.9</ele>
        <time>2016-01-10T10:54:58.000Z</time>
      </trkpt>
      <trkpt lat="47.48709" lon="6.77617">
        <ele>339.7</ele>
        <time>2016-01-10T10:54:59.000Z</time>
      </trkpt>
      <trkpt lat="47.4871" lon="6.7762">
        <ele>340.7</ele>
        <time>2016-01-10T10:55:00.000Z</time>
      </trkpt>
      <trkpt lat="47.48712" lon="6.77623">
        <ele>341.1</ele>
        <time>2016-01-10T10:55:01.000Z</time>
      </trkpt>
      <trkpt lat="47.48713" lon="6.77626">
        <ele>341.3</ele>
        <time>2016-01-10T10:55:02.000Z</time>
      </trkpt>
      <trkpt lat="47.48715" lon="6.77631">
        <ele>341.2</ele>
        <time>2016-01-10T10:55:04.000Z</time>
      </trkpt>
      <trkpt lat="47.48716" lon="6.77633">
        <ele>341.6</ele>
        <time>2016-01-10T10:55:05.000Z</time>
      </trkpt>
      <trkpt lat="47.48712" lon="6.7763">
        <ele>341.6</ele>
        <time>2016-01-10T10:55:17.000Z</time>
      </trkpt>
      <trkpt lat="47.4871" lon="6.77629">
        <ele>341.5</ele>
        <time>2016-01-10T10:55:18.000Z</time>
      </trkpt>
      <trkpt lat="47.48707" lon="6.77629">
        <ele>344.2</ele>
        <time>2016-01-10T10:55:19.000Z</time>
      </trkpt>
      <trkpt lat="47.48705" lon="6.77628">
        <ele>342.4</ele>
        <time>2016-01-10T10:55:20.000Z</time>
      </trkpt>
      <trkpt lat="47.48702" lon="6.77627">
        <ele>343.1</ele>
        <time>2016-01-10T10:55:22.000Z</time>
      </trkpt>
      <trkpt lat="47.487" lon="6.77626">
        <ele>343.1</ele>
        <time>2016-01-10T10:55:23.000Z</time>
      </trkpt>
      <trkpt lat="47.48697" lon="6.77625">
        <ele>345.7</ele>
        <time>2016-01-10T10:55:25.000Z</time>
      </trkpt>
      <trkpt lat="47.48695" lon="6.77624">
        <ele>346.2</ele>
        <time>2016-01-10T10:55:26.000Z</time>
      </trkpt>
      <trkpt lat="47.48692" lon="6.77619">
        <ele>342.4</ele>
        <time>2016-01-10T10:55:28.000Z</time>
      </trkpt>
      <trkpt lat="47.4869" lon="6.77616">
        <ele>343.4</ele>
        <time>2016-01-10T10:55:29.000Z</time>
      </trkpt>
      <trkpt lat="47.48688" lon="6.77613">
        <ele>344.5</ele>
        <time>2016-01-10T10:55:30.000Z</time>
      </trkpt>
      <trkpt lat="47.48687" lon="6.77611">
        <ele>344.1</ele>
        <time>2016-01-10T10:55:31.000Z</time>
      </trkpt>
      <trkpt lat="47.48683" lon="6.77606">
        <ele>344</ele>
        <time>2016-01-10T10:55:33.000Z</time>
      </trkpt>
      <trkpt lat="47.48682" lon="6.77604">
        <ele>345.9</ele>
        <time>2016-01-10T10:55:34.000Z</time>
      </trkpt>
      <trkpt lat="47.48679" lon="6.77602">
        <ele>347.2</ele>
        <time>2016-01-10T10:55:35.000Z</time>
      </trkpt>
      <trkpt lat="47.48677" lon="6.77599">
        <ele>348</ele>
        <time>2016-01-10T10:55:36.000Z</time>
      </trkpt>
      <trkpt lat="47.48675" lon="6.77597">
        <ele>348.3</ele>
        <time>2016-01-10T10:55:37.000Z</time>
      </trkpt>
      <trkpt lat="47.48673" lon="6.77594">
        <ele>346.6</ele>
        <time>2016-01-10T10:55:38.000Z</time>
      </trkpt>
      <trkpt lat="47.48671" lon="6.77593">
        <ele>349</ele>
        <time>2016-01-10T10:55:39.000Z</time>
      </trkpt>
      <trkpt lat="47.48668" lon="6.77592">
        <ele>350</ele>
        <time>2016-01-10T10:55:40.000Z</time>
      </trkpt>
      <trkpt lat="47.48666" lon="6.77591">
        <ele>352.1</ele>
        <time>2016-01-10T10:55:41.000Z</time>
      </trkpt>
      <trkpt lat="47.48664" lon="6.7759">
        <ele>353.3</ele>
        <time>2016-01-10T10:55:42.000Z</time>
      </trkpt>
      <trkpt lat="47.4866" lon="6.77586">
        <ele>355.5</ele>
        <time>2016-01-10T10:55:44.000Z</time>
      </trkpt>
      <trkpt lat="47.48658" lon="6.77584">
        <ele>355.5</ele>
        <time>2016-01-10T10:55:45.000Z</time>
      </trkpt>
      <trkpt lat="47.48656" lon="6.77582">
        <ele>356.3</ele>
        <time>2016-01-10T10:55:46.000Z</time>
      </trkpt>
      <trkpt lat="47.48654" lon="6.77579">
        <ele>357.5</ele>
        <time>2016-01-10T10:55:47.000Z</time>
      </trkpt>
      <trkpt lat="47.48652" lon="6.77577">
        <ele>357.8</ele>
        <time>2016-01-10T10:55:48.000Z</time>
      </trkpt>
      <trkpt lat="47.4865" lon="6.77575">
        <ele>357.9</ele>
        <time>2016-01-10T10:55:49.000Z</time>
      </trkpt>
      <trkpt lat="47.48648" lon="6.77572">
        <ele>358.2</ele>
        <time>2016-01-10T10:55:50.000Z</time>
      </trkpt>
      <trkpt lat="47.48646" lon="6.77571">
        <ele>358.6</ele>
        <time>2016-01-10T10:55:50.981Z</time>
      </trkpt>
      <trkpt lat="47.48646" lon="6.77566">
        <ele>354.3</ele>
        <time>2016-01-10T10:55:52.000Z</time>
      </trkpt>
      <trkpt lat="47.48645" lon="6.77563">
        <ele>354.2</ele>
        <time>2016-01-10T10:55:53.000Z</time>
      </trkpt>
      <trkpt lat="47.48645" lon="6.77557">
        <ele>352.9</ele>
        <time>2016-01-10T10:55:56.000Z</time>
      </trkpt>
      <trkpt lat="47.48645" lon="6.77555">
        <ele>351.1</ele>
        <time>2016-01-10T10:55:57.000Z</time>
      </trkpt>
      <trkpt lat="47.48644" lon="6.77549">
        <ele>351.9</ele>
        <time>2016-01-10T10:56:00.000Z</time>
      </trkpt>
      <trkpt lat="47.48643" lon="6.77548">
        <ele>349.9</ele>
        <time>2016-01-10T10:56:01.000Z</time>
      </trkpt>
      <trkpt lat="47.48641" lon="6.77545">
        <ele>350.4</ele>
        <time>2016-01-10T10:56:03.000Z</time>
      </trkpt>
      <trkpt lat="47.48639" lon="6.77544">
        <ele>349.8</ele>
        <time>2016-01-10T10:56:04.000Z</time>
      </trkpt>
      <trkpt lat="47.48637" lon="6.77541">
        <ele>348.7</ele>
        <time>2016-01-10T10:56:06.000Z</time>
      </trkpt>
      <trkpt lat="47.48636" lon="6.77539">
        <ele>348.6</ele>
        <time>2016-01-10T10:56:07.000Z</time>
      </trkpt>
      <trkpt lat="47.48639" lon="6.77534">
        <ele>348.6</ele>
        <time>2016-01-10T10:56:16.000Z</time>
      </trkpt>
      <trkpt lat="47.4864" lon="6.77534">
        <ele>348.2</ele>
        <time>2016-01-10T10:56:17.000Z</time>
      </trkpt>
      <trkpt lat="47.48644" lon="6.77536">
        <ele>347.3</ele>
        <time>2016-01-10T10:56:20.000Z</time>
      </trkpt>
      <trkpt lat="47.48645" lon="6.77537">
        <ele>346.3</ele>
        <time>2016-01-10T10:56:21.000Z</time>
      </trkpt>
      <trkpt lat="47.48649" lon="6.77538">
        <ele>347.6</ele>
        <time>2016-01-10T10:56:24.000Z</time>
      </trkpt>
      <trkpt lat="47.4865" lon="6.77536">
        <ele>347.2</ele>
        <time>2016-01-10T10:56:25.000Z</time>
      </trkpt>
      <trkpt lat="47.48652" lon="6.77532">
        <ele>346.7</ele>
        <time>2016-01-10T10:56:27.000Z</time>
      </trkpt>
      <trkpt lat="47.48652" lon="6.7753">
        <ele>347.8</ele>
        <time>2016-01-10T10:56:28.000Z</time>
      </trkpt>
      <trkpt lat="47.48654" lon="6.77525">
        <ele>347.5</ele>
        <time>2016-01-10T10:56:31.000Z</time>
      </trkpt>
      <trkpt lat="47.48655" lon="6.77524">
        <ele>346.7</ele>
        <time>2016-01-10T10:56:32.000Z</time>
      </trkpt>
      <trkpt lat="47.48658" lon="6.7752">
        <ele>345.2</ele>
        <time>2016-01-10T10:58:01.000Z</time>
      </trkpt>
      <trkpt lat="47.4866" lon="6.77518">
        <ele>343.7</ele>
        <time>2016-01-10T10:58:02.000Z</time>
      </trkpt>
      <trkpt lat="47.48664" lon="6.77515">
        <ele>342.1</ele>
        <time>2016-01-10T10:58:04.000Z</time>
      </trkpt>
      <trkpt lat="47.48666" lon="6.77513">
        <ele>341.5</ele>
        <time>2016-01-10T10:58:05.000Z</time>
      </trkpt>
      <trkpt lat="47.48673" lon="6.77501">
        <ele>339.2</ele>
        <time>2016-01-10T10:58:06.000Z</time>
      </trkpt>
      <trkpt lat="47.48678" lon="6.77496">
        <ele>338.6</ele>
        <time>2016-01-10T10:58:07.000Z</time>
      </trkpt>
      <trkpt lat="47.48681" lon="6.77494">
        <ele>339</ele>
        <time>2016-01-10T10:58:09.000Z</time>
      </trkpt>
      <trkpt lat="47.48683" lon="6.77493">
        <ele>339.4</ele>
        <time>2016-01-10T10:58:10.000Z</time>
      </trkpt>
      <trkpt lat="47.48686" lon="6.7749">
        <ele>339.7</ele>
        <time>2016-01-10T10:58:12.000Z</time>
      </trkpt>
      <trkpt lat="47.48688" lon="6.77488">
        <ele>339</ele>
        <time>2016-01-10T10:58:13.000Z</time>
      </trkpt>
      <trkpt lat="47.48694" lon="6.77492">
        <ele>334.2</ele>
        <time>2016-01-10T10:58:14.000Z</time>
      </trkpt>
      <trkpt lat="47.48699" lon="6.77493">
        <ele>332</ele>
        <time>2016-01-10T10:58:15.000Z</time>
      </trkpt>
      <trkpt lat="47.48702" lon="6.77495">
        <ele>331.4</ele>
        <time>2016-01-10T10:58:16.000Z</time>
      </trkpt>
      <trkpt lat="47.48706" lon="6.77498">
        <ele>331.1</ele>
        <time>2016-01-10T10:58:17.000Z</time>
      </trkpt>
      <trkpt lat="47.4871" lon="6.775">
        <ele>330.5</ele>
        <time>2016-01-10T10:58:18.000Z</time>
      </trkpt>
      <trkpt lat="47.48714" lon="6.77502">
        <ele>330</ele>
        <time>2016-01-10T10:58:19.000Z</time>
      </trkpt>
      <trkpt lat="47.48718" lon="6.77505">
        <ele>329.6</ele>
        <time>2016-01-10T10:58:20.000Z</time>
      </trkpt>
      <trkpt lat="47.48721" lon="6.77509">
        <ele>325.7</ele>
        <time>2016-01-10T10:58:21.000Z</time>
      </trkpt>
      <trkpt lat="47.48724" lon="6.77514">
        <ele>324</ele>
        <time>2016-01-10T10:58:22.000Z</time>
      </trkpt>
      <trkpt lat="47.48726" lon="6.77517">
        <ele>324</ele>
        <time>2016-01-10T10:58:23.000Z</time>
      </trkpt>
      <trkpt lat="47.48727" lon="6.7751">
        <ele>323.5</ele>
        <time>2016-01-10T10:58:52.000Z</time>
      </trkpt>
      <trkpt lat="47.48726" lon="6.77508">
        <ele>322.8</ele>
        <time>2016-01-10T10:58:53.000Z</time>
      </trkpt>
      <trkpt lat="47.48722" lon="6.77504">
        <ele>323.8</ele>
        <time>2016-01-10T10:58:56.000Z</time>
      </trkpt>
      <trkpt lat="47.48721" lon="6.77504">
        <ele>325.3</ele>
        <time>2016-01-10T10:58:57.000Z</time>
      </trkpt>
      <trkpt lat="47.48722" lon="6.7751">
        <ele>328.2</ele>
        <time>2016-01-10T10:59:15.000Z</time>
      </trkpt>
      <trkpt lat="47.48724" lon="6.77512">
        <ele>330.2</ele>
        <time>2016-01-10T10:59:16.000Z</time>
      </trkpt>
      <trkpt lat="47.48727" lon="6.77515">
        <ele>330.2</ele>
        <time>2016-01-10T10:59:17.000Z</time>
      </trkpt>
      <trkpt lat="47.48729" lon="6.77517">
        <ele>329.6</ele>
        <time>2016-01-10T10:59:18.000Z</time>
      </trkpt>
      <trkpt lat="47.48734" lon="6.77516">
        <ele>329.5</ele>
        <time>2016-01-10T10:59:50.000Z</time>
      </trkpt>
      <trkpt lat="47.48734" lon="6.77516">
        <ele>329.4</ele>
        <time>2016-01-10T10:59:51.000Z</time>
      </trkpt>
      <trkpt lat="47.48736" lon="6.77517">
        <ele>329.5</ele>
        <time>2016-01-10T10:59:52.000Z</time>
      </trkpt>
      <trkpt lat="47.48739" lon="6.77518">
        <ele>329.5</ele>
        <time>2016-01-10T10:59:53.000Z</time>
      </trkpt>
      <trkpt lat="47.48741" lon="6.77519">
        <ele>329.1</ele>
        <time>2016-01-10T10:59:54.000Z</time>
      </trkpt>
      <trkpt lat="47.48745" lon="6.7752">
        <ele>328.6</ele>
        <time>2016-01-10T10:59:55.000Z</time>
      </trkpt>
      <trkpt lat="47.48748" lon="6.77522">
        <ele>328</ele>
        <time>2016-01-10T10:59:56.000Z</time>
      </trkpt>
      <trkpt lat="47.48752" lon="6.77524">
        <ele>328.1</ele>
        <time>2016-01-10T10:59:57.000Z</time>
      </trkpt>
      <trkpt lat="47.48754" lon="6.77526">
        <ele>327.2</ele>
        <time>2016-01-10T10:59:58.000Z</time>
      </trkpt>
      <trkpt lat="47.48756" lon="6.77527">
        <ele>327.2</ele>
        <time>2016-01-10T10:59:59.000Z</time>
      </trkpt>
      <trkpt lat="47.48759" lon="6.77529">
        <ele>329.3</ele>
        <time>2016-01-10T11:00:05.000Z</time>
      </trkpt>
      <trkpt lat="47.4876" lon="6.77531">
        <ele>327</ele>
        <time>2016-01-10T11:00:06.000Z</time>
      </trkpt>
      <trkpt lat="47.48762" lon="6.77535">
        <ele>327</ele>
        <time>2016-01-10T11:00:08.000Z</time>
      </trkpt>
      <trkpt lat="47.48763" lon="6.77537">
        <ele>326.8</ele>
        <time>2016-01-10T11:00:09.000Z</time>
      </trkpt>
      <trkpt lat="47.48759" lon="6.77535">
        <ele>330.5</ele>
        <time>2016-01-10T11:00:14.000Z</time>
      </trkpt>
      <trkpt lat="47.48758" lon="6.77533">
        <ele>330</ele>
        <time>2016-01-10T11:00:15.000Z</time>
      </trkpt>
      <trkpt lat="47.48756" lon="6.77529">
        <ele>329.7</ele>
        <time>2016-01-10T11:00:17.000Z</time>
      </trkpt>
      <trkpt lat="47.48755" lon="6.77528">
        <ele>330.6</ele>
        <time>2016-01-10T11:00:18.000Z</time>
      </trkpt>
      <trkpt lat="47.48756" lon="6.77521">
        <ele>329.8</ele>
        <time>2016-01-10T11:00:24.000Z</time>
      </trkpt>
      <trkpt lat="47.48758" lon="6.77521">
        <ele>329.3</ele>
        <time>2016-01-10T11:00:25.000Z</time>
      </trkpt>
      <trkpt lat="47.4876" lon="6.77522">
        <ele>329</ele>
        <time>2016-01-10T11:00:26.000Z</time>
      </trkpt>
      <trkpt lat="47.48763" lon="6.77523">
        <ele>328.4</ele>
        <time>2016-01-10T11:00:27.000Z</time>
      </trkpt>
      <trkpt lat="47.48765" lon="6.77524">
        <ele>325.7</ele>
        <time>2016-01-10T11:00:28.000Z</time>
      </trkpt>
      <trkpt lat="47.48768" lon="6.77525">
        <ele>324.8</ele>
        <time>2016-01-10T11:00:29.000Z</time>
      </trkpt>
      <trkpt lat="47.48777" lon="6.77532">
        <ele>322</ele>
        <time>2016-01-10T11:00:30.000Z</time>
      </trkpt>
      <trkpt lat="47.48781" lon="6.77536">
        <ele>321.5</ele>
        <time>2016-01-10T11:00:31.000Z</time>
      </trkpt>
      <trkpt lat="47.48785" lon="6.77539">
        <ele>321.1</ele>
        <time>2016-01-10T11:00:32.000Z</time>
      </trkpt>
      <trkpt lat="47.48789" lon="6.77542">
        <ele>319.9</ele>
        <time>2016-01-10T11:00:33.000Z</time>
      </trkpt>
      <trkpt lat="47.48793" lon="6.77544">
        <ele>318.9</ele>
        <time>2016-01-10T11:00:34.000Z</time>
      </trkpt>
      <trkpt lat="47.48797" lon="6.77546">
        <ele>318.6</ele>
        <time>2016-01-10T11:00:35.000Z</time>
      </trkpt>
      <trkpt lat="47.48801" lon="6.77549">
        <ele>318.5</ele>
        <time>2016-01-10T11:00:36.000Z</time>
      </trkpt>
      <trkpt lat="47.48805" lon="6.7755">
        <ele>318.4</ele>
        <time>2016-01-10T11:00:37.000Z</time>
      </trkpt>
      <trkpt lat="47.48808" lon="6.77553">
        <ele>317.9</ele>
        <time>2016-01-10T11:00:38.000Z</time>
      </trkpt>
      <trkpt lat="47.48814" lon="6.77552">
        <ele>318.7</ele>
        <time>2016-01-10T11:00:39.000Z</time>
      </trkpt>
      <trkpt lat="47.48818" lon="6.77556">
        <ele>318.6</ele>
        <time>2016-01-10T11:00:40.000Z</time>
      </trkpt>
      <trkpt lat="47.48822" lon="6.77558">
        <ele>318.7</ele>
        <time>2016-01-10T11:00:41.000Z</time>
      </trkpt>
      <trkpt lat="47.48826" lon="6.77561">
        <ele>317.4</ele>
        <time>2016-01-10T11:00:42.000Z</time>
      </trkpt>
      <trkpt lat="47.48829" lon="6.77564">
        <ele>318.4</ele>
        <time>2016-01-10T11:00:43.000Z</time>
      </trkpt>
      <trkpt lat="47.48832" lon="6.77567">
        <ele>318.3</ele>
        <time>2016-01-10T11:00:44.000Z</time>
      </trkpt>
      <trkpt lat="47.48835" lon="6.7757">
        <ele>318.4</ele>
        <time>2016-01-10T11:00:45.000Z</time>
      </trkpt>
      <trkpt lat="47.48838" lon="6.77573">
        <ele>318.7</ele>
        <time>2016-01-10T11:00:46.000Z</time>
      </trkpt>
      <trkpt lat="47.48841" lon="6.77576">
        <ele>318.2</ele>
        <time>2016-01-10T11:00:47.000Z</time>
      </trkpt>
      <trkpt lat="47.48845" lon="6.77579">
        <ele>318.6</ele>
        <time>2016-01-10T11:00:48.000Z</time>
      </trkpt>
      <trkpt lat="47.48851" lon="6.77582">
        <ele>319.2</ele>
        <time>2016-01-10T11:00:49.000Z</time>
      </trkpt>
      <trkpt lat="47.48856" lon="6.77585">
        <ele>319.9</ele>
        <time>2016-01-10T11:00:50.000Z</time>
      </trkpt>
      <trkpt lat="47.48861" lon="6.77588">
        <ele>320.6</ele>
        <time>2016-01-10T11:00:51.000Z</time>
      </trkpt>
      <trkpt lat="47.48866" lon="6.77592">
        <ele>320.6</ele>
        <time>2016-01-10T11:00:52.000Z</time>
      </trkpt>
      <trkpt lat="47.48869" lon="6.77595">
        <ele>320.9</ele>
        <time>2016-01-10T11:00:53.000Z</time>
      </trkpt>
      <trkpt lat="47.48873" lon="6.77602">
        <ele>318</ele>
        <time>2016-01-10T11:00:54.000Z</time>
      </trkpt>
      <trkpt lat="47.48877" lon="6.77608">
        <ele>316.9</ele>
        <time>2016-01-10T11:00:55.000Z</time>
      </trkpt>
      <trkpt lat="47.4888" lon="6.77611">
        <ele>316.4</ele>
        <time>2016-01-10T11:00:56.000Z</time>
      </trkpt>
      <trkpt lat="47.48882" lon="6.77615">
        <ele>316.4</ele>
        <time>2016-01-10T11:00:57.000Z</time>
      </trkpt>
      <trkpt lat="47.48884" lon="6.77618">
        <ele>316.5</ele>
        <time>2016-01-10T11:00:58.000Z</time>
      </trkpt>
      <trkpt lat="47.48887" lon="6.7762">
        <ele>316.6</ele>
        <time>2016-01-10T11:00:59.000Z</time>
      </trkpt>
      <trkpt lat="47.4889" lon="6.77623">
        <ele>316.4</ele>
        <time>2016-01-10T11:01:00.000Z</time>
      </trkpt>
      <trkpt lat="47.48893" lon="6.77626">
        <ele>316.4</ele>
        <time>2016-01-10T11:01:01.000Z</time>
      </trkpt>
      <trkpt lat="47.48896" lon="6.77628">
        <ele>316.3</ele>
        <time>2016-01-10T11:01:02.000Z</time>
      </trkpt>
      <trkpt lat="47.48899" lon="6.77632">
        <ele>316.5</ele>
        <time>2016-01-10T11:01:03.000Z</time>
      </trkpt>
      <trkpt lat="47.48902" lon="6.77635">
        <ele>316.3</ele>
        <time>2016-01-10T11:01:04.000Z</time>
      </trkpt>
      <trkpt lat="47.48905" lon="6.77639">
        <ele>316.4</ele>
        <time>2016-01-10T11:01:05.000Z</time>
      </trkpt>
      <trkpt lat="47.48908" lon="6.77643">
        <ele>317.1</ele>
        <time>2016-01-10T11:01:06.000Z</time>
      </trkpt>
      <trkpt lat="47.48912" lon="6.77647">
        <ele>316.7</ele>
        <time>2016-01-10T11:01:07.000Z</time>
      </trkpt>
      <trkpt lat="47.48915" lon="6.77651">
        <ele>316.7</ele>
        <time>2016-01-10T11:01:08.000Z</time>
      </trkpt>
      <trkpt lat="47.48918" lon="6.77655">
        <ele>316.7</ele>
        <time>2016-01-10T11:01:09.000Z</time>
      </trkpt>
      <trkpt lat="47.4892" lon="6.7766">
        <ele>316.6</ele>
        <time>2016-01-10T11:01:10.000Z</time>
      </trkpt>
      <trkpt lat="47.48921" lon="6.77664">
        <ele>318.1</ele>
        <time>2016-01-10T11:01:11.000Z</time>
      </trkpt>
      <trkpt lat="47.4892" lon="6.77668">
        <ele>318.6</ele>
        <time>2016-01-10T11:01:12.000Z</time>
      </trkpt>
      <trkpt lat="47.48918" lon="6.77669">
        <ele>320.1</ele>
        <time>2016-01-10T11:01:13.000Z</time>
      </trkpt>
      <trkpt lat="47.48915" lon="6.77668">
        <ele>321.1</ele>
        <time>2016-01-10T11:01:14.000Z</time>
      </trkpt>
      <trkpt lat="47.48913" lon="6.77665">
        <ele>321.8</ele>
        <time>2016-01-10T11:01:15.000Z</time>
      </trkpt>
      <trkpt lat="47.48911" lon="6.77663">
        <ele>321</ele>
        <time>2016-01-10T11:01:16.000Z</time>
      </trkpt>
      <trkpt lat="47.48909" lon="6.7766">
        <ele>319.2</ele>
        <time>2016-01-10T11:01:17.000Z</time>
      </trkpt>
      <trkpt lat="47.48905" lon="6.77658">
        <ele>320.9</ele>
        <time>2016-01-10T11:01:20.000Z</time>
      </trkpt>
      <trkpt lat="47.48904" lon="6.77658">
        <ele>321.4</ele>
        <time>2016-01-10T11:01:21.000Z</time>
      </trkpt>
      <trkpt lat="47.48905" lon="6.77652">
        <ele>320.1</ele>
        <time>2016-01-10T11:01:38.000Z</time>
      </trkpt>
      <trkpt lat="47.48905" lon="6.77651">
        <ele>320.3</ele>
        <time>2016-01-10T11:01:39.000Z</time>
      </trkpt>
      <trkpt lat="47.48907" lon="6.77647">
        <ele>320</ele>
        <time>2016-01-10T11:01:42.000Z</time>
      </trkpt>
      <trkpt lat="47.48908" lon="6.77645">
        <ele>319.7</ele>
        <time>2016-01-10T11:01:43.000Z</time>
      </trkpt>
      <trkpt lat="47.48911" lon="6.7764">
        <ele>320.6</ele>
        <time>2016-01-10T11:01:45.000Z</time>
      </trkpt>
      <trkpt lat="47.48911" lon="6.77638">
        <ele>321</ele>
        <time>2016-01-10T11:01:46.000Z</time>
      </trkpt>
      <trkpt lat="47.48913" lon="6.77634">
        <ele>320.2</ele>
        <time>2016-01-10T11:01:48.000Z</time>
      </trkpt>
      <trkpt lat="47.48914" lon="6.77632">
        <ele>319.7</ele>
        <time>2016-01-10T11:01:49.000Z</time>
      </trkpt>
      <trkpt lat="47.48916" lon="6.77628">
        <ele>319.8</ele>
        <time>2016-01-10T11:01:51.000Z</time>
      </trkpt>
      <trkpt lat="47.48917" lon="6.77626">
        <ele>319.2</ele>
        <time>2016-01-10T11:01:52.000Z</time>
      </trkpt>
      <trkpt lat="47.48919" lon="6.77621">
        <ele>319.6</ele>
        <time>2016-01-10T11:01:55.000Z</time>
      </trkpt>
      <trkpt lat="47.48919" lon="6.77619">
        <ele>319.4</ele>
        <time>2016-01-10T11:01:56.000Z</time>
      </trkpt>
      <trkpt lat="47.4892" lon="6.77613">
        <ele>318.2</ele>
        <time>2016-01-10T11:02:02.000Z</time>
      </trkpt>
      <trkpt lat="47.48916" lon="6.77604">
        <ele>328.4</ele>
        <time>2016-01-10T11:02:02.935Z</time>
      </trkpt>
      <trkpt lat="47.48916" lon="6.77604">
        <ele>328.5</ele>
        <time>2016-01-10T11:02:03.935Z</time>
      </trkpt>
      <trkpt lat="47.48922" lon="6.77586">
        <ele>336.2</ele>
        <time>2016-01-10T11:02:04.997Z</time>
      </trkpt>
      <trkpt lat="47.4892" lon="6.77611">
        <ele>317.9</ele>
        <time>2016-01-10T11:02:06.000Z</time>
      </trkpt>
      <trkpt lat="47.48921" lon="6.77606">
        <ele>318.5</ele>
        <time>2016-01-10T11:02:16.000Z</time>
      </trkpt>
      <trkpt lat="47.48922" lon="6.77604">
        <ele>319.2</ele>
        <time>2016-01-10T11:02:17.000Z</time>
      </trkpt>
      <trkpt lat="47.48924" lon="6.77601">
        <ele>319.7</ele>
        <time>2016-01-10T11:02:20.000Z</time>
      </trkpt>
      <trkpt lat="47.48926" lon="6.77601">
        <ele>317.3</ele>
        <time>2016-01-10T11:02:21.000Z</time>
      </trkpt>
      <trkpt lat="47.48929" lon="6.776">
        <ele>318.4</ele>
        <time>2016-01-10T11:02:22.000Z</time>
      </trkpt>
      <trkpt lat="47.48932" lon="6.77599">
        <ele>317.9</ele>
        <time>2016-01-10T11:02:23.000Z</time>
      </trkpt>
      <trkpt lat="47.48936" lon="6.77598">
        <ele>317</ele>
        <time>2016-01-10T11:02:24.000Z</time>
      </trkpt>
      <trkpt lat="47.4894" lon="6.77596">
        <ele>316.1</ele>
        <time>2016-01-10T11:02:25.000Z</time>
      </trkpt>
      <trkpt lat="47.48944" lon="6.77594">
        <ele>316.2</ele>
        <time>2016-01-10T11:02:26.000Z</time>
      </trkpt>
      <trkpt lat="47.48947" lon="6.77591">
        <ele>315.5</ele>
        <time>2016-01-10T11:02:27.000Z</time>
      </trkpt>
      <trkpt lat="47.4895" lon="6.77588">
        <ele>315.5</ele>
        <time>2016-01-10T11:02:28.000Z</time>
      </trkpt>
      <trkpt lat="47.48952" lon="6.77586">
        <ele>315.7</ele>
        <time>2016-01-10T11:02:29.000Z</time>
      </trkpt>
      <trkpt lat="47.48954" lon="6.77583">
        <ele>315.2</ele>
        <time>2016-01-10T11:02:30.000Z</time>
      </trkpt>
      <trkpt lat="47.48956" lon="6.77581">
        <ele>314.4</ele>
        <time>2016-01-10T11:02:31.000Z</time>
      </trkpt>
      <trkpt lat="47.4896" lon="6.77578">
        <ele>315.7</ele>
        <time>2016-01-10T11:02:33.000Z</time>
      </trkpt>
      <trkpt lat="47.48962" lon="6.77575">
        <ele>315.4</ele>
        <time>2016-01-10T11:02:34.000Z</time>
      </trkpt>
      <trkpt lat="47.48964" lon="6.77573">
        <ele>316.1</ele>
        <time>2016-01-10T11:02:35.000Z</time>
      </trkpt>
      <trkpt lat="47.48966" lon="6.77571">
        <ele>316.1</ele>
        <time>2016-01-10T11:02:36.000Z</time>
      </trkpt>
      <trkpt lat="47.48968" lon="6.77568">
        <ele>316.6</ele>
        <time>2016-01-10T11:02:37.000Z</time>
      </trkpt>
      <trkpt lat="47.4897" lon="6.77566">
        <ele>317</ele>
        <time>2016-01-10T11:02:38.000Z</time>
      </trkpt>
      <trkpt lat="47.48972" lon="6.77564">
        <ele>317.9</ele>
        <time>2016-01-10T11:02:39.000Z</time>
      </trkpt>
      <trkpt lat="47.48974" lon="6.77562">
        <ele>318.7</ele>
        <time>2016-01-10T11:02:40.000Z</time>
      </trkpt>
      <trkpt lat="47.48977" lon="6.7756">
        <ele>318.1</ele>
        <time>2016-01-10T11:02:41.000Z</time>
      </trkpt>
      <trkpt lat="47.48979" lon="6.77558">
        <ele>319</ele>
        <time>2016-01-10T11:02:42.000Z</time>
      </trkpt>
      <trkpt lat="47.48982" lon="6.77555">
        <ele>319.3</ele>
        <time>2016-01-10T11:02:43.000Z</time>
      </trkpt>
      <trkpt lat="47.48985" lon="6.77552">
        <ele>320</ele>
        <time>2016-01-10T11:02:44.000Z</time>
      </trkpt>
      <trkpt lat="47.48988" lon="6.77549">
        <ele>320.4</ele>
        <time>2016-01-10T11:02:45.000Z</time>
      </trkpt>
      <trkpt lat="47.48991" lon="6.77546">
        <ele>320.6</ele>
        <time>2016-01-10T11:02:46.000Z</time>
      </trkpt>
      <trkpt lat="47.48994" lon="6.77542">
        <ele>321.1</ele>
        <time>2016-01-10T11:02:47.000Z</time>
      </trkpt>
      <trkpt lat="47.48997" lon="6.77539">
        <ele>320.5</ele>
        <time>2016-01-10T11:02:48.000Z</time>
      </trkpt>
      <trkpt lat="47.49001" lon="6.77536">
        <ele>320.2</ele>
        <time>2016-01-10T11:02:49.000Z</time>
      </trkpt>
      <trkpt lat="47.49003" lon="6.77532">
        <ele>320.3</ele>
        <time>2016-01-10T11:02:50.000Z</time>
      </trkpt>
      <trkpt lat="47.49006" lon="6.77527">
        <ele>320.7</ele>
        <time>2016-01-10T11:02:51.000Z</time>
      </trkpt>
      <trkpt lat="47.49008" lon="6.77522">
        <ele>321.2</ele>
        <time>2016-01-10T11:02:52.000Z</time>
      </trkpt>
      <trkpt lat="47.4901" lon="6.77507">
        <ele>321.4</ele>
        <time>2016-01-10T11:02:53.000Z</time>
      </trkpt>
      <trkpt lat="47.4901" lon="6.77501">
        <ele>320.1</ele>
        <time>2016-01-10T11:02:54.000Z</time>
      </trkpt>
      <trkpt lat="47.4901" lon="6.77493">
        <ele>319.4</ele>
        <time>2016-01-10T11:02:55.000Z</time>
      </trkpt>
      <trkpt lat="47.49011" lon="6.77485">
        <ele>318.5</ele>
        <time>2016-01-10T11:02:56.000Z</time>
      </trkpt>
      <trkpt lat="47.49008" lon="6.7748">
        <ele>318.7</ele>
        <time>2016-01-10T11:02:57.000Z</time>
      </trkpt>
      <trkpt lat="47.49008" lon="6.77477">
        <ele>318.1</ele>
        <time>2016-01-10T11:02:57.394Z</time>
      </trkpt>
      <trkpt lat="47.49136" lon="6.77367">
        <ele>328.4</ele>
        <time>2016-01-10T11:03:32.936Z</time>
      </trkpt>
      <trkpt lat="47.49146" lon="6.77358">
        <ele>323.9</ele>
        <time>2016-01-10T11:03:34.000Z</time>
      </trkpt>
      <trkpt lat="47.49149" lon="6.77354">
        <ele>323.3</ele>
        <time>2016-01-10T11:03:35.000Z</time>
      </trkpt>
      <trkpt lat="47.49151" lon="6.77351">
        <ele>322.7</ele>
        <time>2016-01-10T11:03:36.000Z</time>
      </trkpt>
      <trkpt lat="47.49154" lon="6.77348">
        <ele>323.6</ele>
        <time>2016-01-10T11:03:37.000Z</time>
      </trkpt>
      <trkpt lat="47.49157" lon="6.77344">
        <ele>323.9</ele>
        <time>2016-01-10T11:03:38.000Z</time>
      </trkpt>
      <trkpt lat="47.49159" lon="6.7734">
        <ele>323.5</ele>
        <time>2016-01-10T11:03:39.000Z</time>
      </trkpt>
      <trkpt lat="47.49162" lon="6.77336">
        <ele>323.7</ele>
        <time>2016-01-10T11:03:40.000Z</time>
      </trkpt>
      <trkpt lat="47.49165" lon="6.77331">
        <ele>323.5</ele>
        <time>2016-01-10T11:03:41.000Z</time>
      </trkpt>
      <trkpt lat="47.49168" lon="6.77326">
        <ele>323.8</ele>
        <time>2016-01-10T11:03:42.000Z</time>
      </trkpt>
      <trkpt lat="47.49171" lon="6.77324">
        <ele>322.7</ele>
        <time>2016-01-10T11:03:45.000Z</time>
      </trkpt>
      <trkpt lat="47.49172" lon="6.77323">
        <ele>321.7</ele>
        <time>2016-01-10T11:03:46.000Z</time>
      </trkpt>
      <trkpt lat="47.49175" lon="6.77323">
        <ele>322</ele>
        <time>2016-01-10T11:03:47.000Z</time>
      </trkpt>
      <trkpt lat="47.49178" lon="6.77321">
        <ele>322.2</ele>
        <time>2016-01-10T11:03:48.000Z</time>
      </trkpt>
      <trkpt lat="47.49181" lon="6.77325">
        <ele>320.8</ele>
        <time>2016-01-10T11:03:49.000Z</time>
      </trkpt>
      <trkpt lat="47.49183" lon="6.77326">
        <ele>319.7</ele>
        <time>2016-01-10T11:03:50.000Z</time>
      </trkpt>
      <trkpt lat="47.49186" lon="6.77328">
        <ele>319.1</ele>
        <time>2016-01-10T11:03:51.000Z</time>
      </trkpt>
      <trkpt lat="47.49188" lon="6.77328">
        <ele>318.7</ele>
        <time>2016-01-10T11:03:52.000Z</time>
      </trkpt>
      <trkpt lat="47.49192" lon="6.77329">
        <ele>318.3</ele>
        <time>2016-01-10T11:03:53.000Z</time>
      </trkpt>
      <trkpt lat="47.49195" lon="6.7733">
        <ele>317.7</ele>
        <time>2016-01-10T11:03:54.000Z</time>
      </trkpt>
      <trkpt lat="47.49198" lon="6.77331">
        <ele>317.6</ele>
        <time>2016-01-10T11:03:55.000Z</time>
      </trkpt>
      <trkpt lat="47.49202" lon="6.77332">
        <ele>316.7</ele>
        <time>2016-01-10T11:03:56.000Z</time>
      </trkpt>
      <trkpt lat="47.49205" lon="6.77332">
        <ele>316.8</ele>
        <time>2016-01-10T11:03:57.000Z</time>
      </trkpt>
      <trkpt lat="47.49209" lon="6.77332">
        <ele>316.5</ele>
        <time>2016-01-10T11:03:58.000Z</time>
      </trkpt>
      <trkpt lat="47.49213" lon="6.77333">
        <ele>316.2</ele>
        <time>2016-01-10T11:03:59.000Z</time>
      </trkpt>
      <trkpt lat="47.49217" lon="6.77333">
        <ele>316.1</ele>
        <time>2016-01-10T11:04:00.000Z</time>
      </trkpt>
      <trkpt lat="47.49221" lon="6.77334">
        <ele>315.8</ele>
        <time>2016-01-10T11:04:01.000Z</time>
      </trkpt>
      <trkpt lat="47.49225" lon="6.77334">
        <ele>315.7</ele>
        <time>2016-01-10T11:04:02.000Z</time>
      </trkpt>
      <trkpt lat="47.49229" lon="6.77334">
        <ele>315.2</ele>
        <time>2016-01-10T11:04:03.000Z</time>
      </trkpt>
      <trkpt lat="47.49233" lon="6.77334">
        <ele>315.9</ele>
        <time>2016-01-10T11:04:04.000Z</time>
      </trkpt>
      <trkpt lat="47.49237" lon="6.77334">
        <ele>315.8</ele>
        <time>2016-01-10T11:04:05.000Z</time>
      </trkpt>
      <trkpt lat="47.49241" lon="6.77334">
        <ele>315.9</ele>
        <time>2016-01-10T11:04:06.000Z</time>
      </trkpt>
      <trkpt lat="47.49246" lon="6.77334">
        <ele>316.1</ele>
        <time>2016-01-10T11:04:07.000Z</time>
      </trkpt>
      <trkpt lat="47.4925" lon="6.77333">
        <ele>316.9</ele>
        <time>2016-01-10T11:04:08.000Z</time>
      </trkpt>
      <trkpt lat="47.49254" lon="6.77331">
        <ele>316.7</ele>
        <time>2016-01-10T11:04:09.000Z</time>
      </trkpt>
      <trkpt lat="47.49258" lon="6.77327">
        <ele>316.9</ele>
        <time>2016-01-10T11:04:10.000Z</time>
      </trkpt>
      <trkpt lat="47.49263" lon="6.77325">
        <ele>316.7</ele>
        <time>2016-01-10T11:04:11.000Z</time>
      </trkpt>
      <trkpt lat="47.49268" lon="6.77322">
        <ele>316.5</ele>
        <time>2016-01-10T11:04:12.000Z</time>
      </trkpt>
      <trkpt lat="47.49274" lon="6.77322">
        <ele>316.6</ele>
        <time>2016-01-10T11:04:13.000Z</time>
      </trkpt>
      <trkpt lat="47.4928" lon="6.77322">
        <ele>316</ele>
        <time>2016-01-10T11:04:14.000Z</time>
      </trkpt>
      <trkpt lat="47.49286" lon="6.77323">
        <ele>315.5</ele>
        <time>2016-01-10T11:04:15.000Z</time>
      </trkpt>
      <trkpt lat="47.49292" lon="6.77324">
        <ele>315.2</ele>
        <time>2016-01-10T11:04:16.000Z</time>
      </trkpt>
      <trkpt lat="47.49297" lon="6.77324">
        <ele>315</ele>
        <time>2016-01-10T11:04:17.000Z</time>
      </trkpt>
      <trkpt lat="47.49303" lon="6.77324">
        <ele>315.4</ele>
        <time>2016-01-10T11:04:18.000Z</time>
      </trkpt>
      <trkpt lat="47.49309" lon="6.77325">
        <ele>315.7</ele>
        <time>2016-01-10T11:04:19.000Z</time>
      </trkpt>
      <trkpt lat="47.49314" lon="6.77325">
        <ele>315.9</ele>
        <time>2016-01-10T11:04:20.000Z</time>
      </trkpt>
      <trkpt lat="47.4932" lon="6.77326">
        <ele>316.2</ele>
        <time>2016-01-10T11:04:21.000Z</time>
      </trkpt>
      <trkpt lat="47.49324" lon="6.77328">
        <ele>316.6</ele>
        <time>2016-01-10T11:04:22.000Z</time>
      </trkpt>
      <trkpt lat="47.49329" lon="6.7733">
        <ele>316.9</ele>
        <time>2016-01-10T11:04:23.000Z</time>
      </trkpt>
      <trkpt lat="47.49333" lon="6.77332">
        <ele>316.8</ele>
        <time>2016-01-10T11:04:24.000Z</time>
      </trkpt>
      <trkpt lat="47.49337" lon="6.77336">
        <ele>317.1</ele>
        <time>2016-01-10T11:04:25.000Z</time>
      </trkpt>
      <trkpt lat="47.4934" lon="6.77339">
        <ele>317.3</ele>
        <time>2016-01-10T11:04:26.000Z</time>
      </trkpt>
      <trkpt lat="47.49345" lon="6.77341">
        <ele>316.7</ele>
        <time>2016-01-10T11:04:27.000Z</time>
      </trkpt>
      <trkpt lat="47.49349" lon="6.77343">
        <ele>316.6</ele>
        <time>2016-01-10T11:04:28.000Z</time>
      </trkpt>
      <trkpt lat="47.49354" lon="6.77342">
        <ele>317.5</ele>
        <time>2016-01-10T11:04:29.000Z</time>
      </trkpt>
      <trkpt lat="47.49359" lon="6.77342">
        <ele>317.8</ele>
        <time>2016-01-10T11:04:30.000Z</time>
      </trkpt>
      <trkpt lat="47.49364" lon="6.77343">
        <ele>317</ele>
        <time>2016-01-10T11:04:31.000Z</time>
      </trkpt>
      <trkpt lat="47.49369" lon="6.77343">
        <ele>316.6</ele>
        <time>2016-01-10T11:04:32.000Z</time>
      </trkpt>
      <trkpt lat="47.49374" lon="6.77343">
        <ele>316.2</ele>
        <time>2016-01-10T11:04:33.000Z</time>
      </trkpt>
      <trkpt lat="47.49379" lon="6.77343">
        <ele>315.7</ele>
        <time>2016-01-10T11:04:34.000Z</time>
      </trkpt>
      <trkpt lat="47.49384" lon="6.77344">
        <ele>316.1</ele>
        <time>2016-01-10T11:04:35.000Z</time>
      </trkpt>
      <trkpt lat="47.4939" lon="6.77344">
        <ele>316.4</ele>
        <time>2016-01-10T11:04:36.000Z</time>
      </trkpt>
      <trkpt lat="47.49395" lon="6.77344">
        <ele>315.8</ele>
        <time>2016-01-10T11:04:37.000Z</time>
      </trkpt>
      <trkpt lat="47.494" lon="6.77344">
        <ele>315.9</ele>
        <time>2016-01-10T11:04:38.000Z</time>
      </trkpt>
      <trkpt lat="47.49405" lon="6.77345">
        <ele>316</ele>
        <time>2016-01-10T11:04:39.000Z</time>
      </trkpt>
      <trkpt lat="47.4941" lon="6.77346">
        <ele>316</ele>
        <time>2016-01-10T11:04:40.000Z</time>
      </trkpt>
      <trkpt lat="47.49415" lon="6.77346">
        <ele>316.1</ele>
        <time>2016-01-10T11:04:41.000Z</time>
      </trkpt>
      <trkpt lat="47.4942" lon="6.77347">
        <ele>316.1</ele>
        <time>2016-01-10T11:04:42.000Z</time>
      </trkpt>
      <trkpt lat="47.49425" lon="6.77348">
        <ele>316.2</ele>
        <time>2016-01-10T11:04:43.000Z</time>
      </trkpt>
      <trkpt lat="47.4943" lon="6.77348">
        <ele>316</ele>
        <time>2016-01-10T11:04:44.000Z</time>
      </trkpt>
      <trkpt lat="47.49435" lon="6.77349">
        <ele>316</ele>
        <time>2016-01-10T11:04:45.000Z</time>
      </trkpt>
      <trkpt lat="47.49441" lon="6.77349">
        <ele>316.2</ele>
        <time>2016-01-10T11:04:46.000Z</time>
      </trkpt>
      <trkpt lat="47.49446" lon="6.7735">
        <ele>316.2</ele>
        <time>2016-01-10T11:04:47.000Z</time>
      </trkpt>
      <trkpt lat="47.49451" lon="6.7735">
        <ele>316.1</ele>
        <time>2016-01-10T11:04:48.000Z</time>
      </trkpt>
      <trkpt lat="47.49457" lon="6.77351">
        <ele>315.9</ele>
        <time>2016-01-10T11:04:49.000Z</time>
      </trkpt>
      <trkpt lat="47.49462" lon="6.77351">
        <ele>315.8</ele>
        <time>2016-01-10T11:04:50.000Z</time>
      </trkpt>
      <trkpt lat="47.49467" lon="6.77351">
        <ele>315.7</ele>
        <time>2016-01-10T11:04:51.000Z</time>
      </trkpt>
      <trkpt lat="47.49472" lon="6.77351">
        <ele>315.7</ele>
        <time>2016-01-10T11:04:52.000Z</time>
      </trkpt>
      <trkpt lat="47.49478" lon="6.77351">
        <ele>315.8</ele>
        <time>2016-01-10T11:04:53.000Z</time>
      </trkpt>
      <trkpt lat="47.49483" lon="6.77352">
        <ele>315.7</ele>
        <time>2016-01-10T11:04:54.000Z</time>
      </trkpt>
      <trkpt lat="47.49488" lon="6.77352">
        <ele>315.6</ele>
        <time>2016-01-10T11:04:55.000Z</time>
      </trkpt>
      <trkpt lat="47.49494" lon="6.77353">
        <ele>315.5</ele>
        <time>2016-01-10T11:04:56.000Z</time>
      </trkpt>
      <trkpt lat="47.49499" lon="6.77353">
        <ele>315.4</ele>
        <time>2016-01-10T11:04:57.000Z</time>
      </trkpt>
      <trkpt lat="47.49504" lon="6.77354">
        <ele>315.5</ele>
        <time>2016-01-10T11:04:58.000Z</time>
      </trkpt>
      <trkpt lat="47.4951" lon="6.77354">
        <ele>315.5</ele>
        <time>2016-01-10T11:04:59.000Z</time>
      </trkpt>
      <trkpt lat="47.49515" lon="6.77355">
        <ele>315.8</ele>
        <time>2016-01-10T11:05:00.000Z</time>
      </trkpt>
      <trkpt lat="47.4952" lon="6.77355">
        <ele>316.1</ele>
        <time>2016-01-10T11:05:01.000Z</time>
      </trkpt>
      <trkpt lat="47.49525" lon="6.77355">
        <ele>316.1</ele>
        <time>2016-01-10T11:05:02.000Z</time>
      </trkpt>
      <trkpt lat="47.49531" lon="6.77356">
        <ele>316.3</ele>
        <time>2016-01-10T11:05:03.000Z</time>
      </trkpt>
      <trkpt lat="47.49536" lon="6.77356">
        <ele>316.2</ele>
        <time>2016-01-10T11:05:04.000Z</time>
      </trkpt>
      <trkpt lat="47.49541" lon="6.77356">
        <ele>316.3</ele>
        <time>2016-01-10T11:05:05.000Z</time>
      </trkpt>
      <trkpt lat="47.49546" lon="6.77357">
        <ele>316.4</ele>
        <time>2016-01-10T11:05:06.000Z</time>
      </trkpt>
      <trkpt lat="47.49552" lon="6.77357">
        <ele>316.4</ele>
        <time>2016-01-10T11:05:07.000Z</time>
      </trkpt>
      <trkpt lat="47.49557" lon="6.77358">
        <ele>316.7</ele>
        <time>2016-01-10T11:05:08.000Z</time>
      </trkpt>
      <trkpt lat="47.49563" lon="6.77358">
        <ele>316.9</ele>
        <time>2016-01-10T11:05:09.000Z</time>
      </trkpt>
      <trkpt lat="47.49568" lon="6.77358">
        <ele>317</ele>
        <time>2016-01-10T11:05:10.000Z</time>
      </trkpt>
      <trkpt lat="47.49574" lon="6.77359">
        <ele>316.9</ele>
        <time>2016-01-10T11:05:11.000Z</time>
      </trkpt>
      <trkpt lat="47.49579" lon="6.77359">
        <ele>316.7</ele>
        <time>2016-01-10T11:05:12.000Z</time>
      </trkpt>
      <trkpt lat="47.49585" lon="6.77359">
        <ele>316.7</ele>
        <time>2016-01-10T11:05:13.000Z</time>
      </trkpt>
      <trkpt lat="47.49591" lon="6.77358">
        <ele>316.8</ele>
        <time>2016-01-10T11:05:14.000Z</time>
      </trkpt>
      <trkpt lat="47.49596" lon="6.77358">
        <ele>316.5</ele>
        <time>2016-01-10T11:05:15.000Z</time>
      </trkpt>
      <trkpt lat="47.49602" lon="6.77357">
        <ele>316.6</ele>
        <time>2016-01-10T11:05:16.000Z</time>
      </trkpt>
      <trkpt lat="47.49607" lon="6.77356">
        <ele>316.4</ele>
        <time>2016-01-10T11:05:17.000Z</time>
      </trkpt>
      <trkpt lat="47.49613" lon="6.77355">
        <ele>316.3</ele>
        <time>2016-01-10T11:05:18.000Z</time>
      </trkpt>
      <trkpt lat="47.49618" lon="6.77354">
        <ele>316.5</ele>
        <time>2016-01-10T11:05:19.000Z</time>
      </trkpt>
      <trkpt lat="47.49623" lon="6.77352">
        <ele>316.6</ele>
        <time>2016-01-10T11:05:20.000Z</time>
      </trkpt>
      <trkpt lat="47.49629" lon="6.77351">
        <ele>316.5</ele>
        <time>2016-01-10T11:05:21.000Z</time>
      </trkpt>
      <trkpt lat="47.49634" lon="6.77349">
        <ele>316.4</ele>
        <time>2016-01-10T11:05:22.000Z</time>
      </trkpt>
      <trkpt lat="47.49639" lon="6.77348">
        <ele>316.7</ele>
        <time>2016-01-10T11:05:23.000Z</time>
      </trkpt>
      <trkpt lat="47.49645" lon="6.77347">
        <ele>316.7</ele>
        <time>2016-01-10T11:05:24.000Z</time>
      </trkpt>
      <trkpt lat="47.49651" lon="6.77345">
        <ele>316.9</ele>
        <time>2016-01-10T11:05:25.000Z</time>
      </trkpt>
      <trkpt lat="47.49656" lon="6.77344">
        <ele>317.2</ele>
        <time>2016-01-10T11:05:26.000Z</time>
      </trkpt>
      <trkpt lat="47.49661" lon="6.77343">
        <ele>317.2</ele>
        <time>2016-01-10T11:05:27.000Z</time>
      </trkpt>
      <trkpt lat="47.49667" lon="6.77341">
        <ele>317.2</ele>
        <time>2016-01-10T11:05:28.000Z</time>
      </trkpt>
      <trkpt lat="47.49672" lon="6.7734">
        <ele>317.8</ele>
        <time>2016-01-10T11:05:29.000Z</time>
      </trkpt>
      <trkpt lat="47.49678" lon="6.7734">
        <ele>316.8</ele>
        <time>2016-01-10T11:05:30.000Z</time>
      </trkpt>
      <trkpt lat="47.49683" lon="6.77339">
        <ele>316.8</ele>
        <time>2016-01-10T11:05:31.000Z</time>
      </trkpt>
      <trkpt lat="47.49689" lon="6.77337">
        <ele>317.3</ele>
        <time>2016-01-10T11:05:32.000Z</time>
      </trkpt>
      <trkpt lat="47.49694" lon="6.77336">
        <ele>317.2</ele>
        <time>2016-01-10T11:05:33.000Z</time>
      </trkpt>
      <trkpt lat="47.497" lon="6.77334">
        <ele>317.5</ele>
        <time>2016-01-10T11:05:34.000Z</time>
      </trkpt>
      <trkpt lat="47.49705" lon="6.77333">
        <ele>317.5</ele>
        <time>2016-01-10T11:05:35.000Z</time>
      </trkpt>
      <trkpt lat="47.4971" lon="6.77332">
        <ele>317.5</ele>
        <time>2016-01-10T11:05:36.000Z</time>
      </trkpt>
      <trkpt lat="47.49716" lon="6.77331">
        <ele>317.6</ele>
        <time>2016-01-10T11:05:37.000Z</time>
      </trkpt>
      <trkpt lat="47.49721" lon="6.7733">
        <ele>317.9</ele>
        <time>2016-01-10T11:05:38.000Z</time>
      </trkpt>
      <trkpt lat="47.49727" lon="6.77332">
        <ele>315.4</ele>
        <time>2016-01-10T11:05:39.000Z</time>
      </trkpt>
      <trkpt lat="47.49733" lon="6.77329">
        <ele>315.6</ele>
        <time>2016-01-10T11:05:40.000Z</time>
      </trkpt>
      <trkpt lat="47.49738" lon="6.77326">
        <ele>316.1</ele>
        <time>2016-01-10T11:05:41.000Z</time>
      </trkpt>
      <trkpt lat="47.49743" lon="6.77322">
        <ele>316.1</ele>
        <time>2016-01-10T11:05:42.000Z</time>
      </trkpt>
      <trkpt lat="47.49748" lon="6.77319">
        <ele>316.2</ele>
        <time>2016-01-10T11:05:43.000Z</time>
      </trkpt>
      <trkpt lat="47.49754" lon="6.77316">
        <ele>316.4</ele>
        <time>2016-01-10T11:05:44.000Z</time>
      </trkpt>
      <trkpt lat="47.49758" lon="6.77314">
        <ele>316.6</ele>
        <time>2016-01-10T11:05:45.000Z</time>
      </trkpt>
      <trkpt lat="47.49764" lon="6.77312">
        <ele>316.7</ele>
        <time>2016-01-10T11:05:46.000Z</time>
      </trkpt>
      <trkpt lat="47.49769" lon="6.7731">
        <ele>317</ele>
        <time>2016-01-10T11:05:47.000Z</time>
      </trkpt>
      <trkpt lat="47.49774" lon="6.77309">
        <ele>316.9</ele>
        <time>2016-01-10T11:05:48.000Z</time>
      </trkpt>
      <trkpt lat="47.4978" lon="6.77309">
        <ele>316.7</ele>
        <time>2016-01-10T11:05:49.000Z</time>
      </trkpt>
      <trkpt lat="47.49785" lon="6.77309">
        <ele>315.7</ele>
        <time>2016-01-10T11:05:50.000Z</time>
      </trkpt>
      <trkpt lat="47.49791" lon="6.7731">
        <ele>315.4</ele>
        <time>2016-01-10T11:05:51.000Z</time>
      </trkpt>
      <trkpt lat="47.49796" lon="6.77308">
        <ele>316.5</ele>
        <time>2016-01-10T11:05:52.000Z</time>
      </trkpt>
      <trkpt lat="47.49801" lon="6.77307">
        <ele>316</ele>
        <time>2016-01-10T11:05:53.000Z</time>
      </trkpt>
      <trkpt lat="47.49807" lon="6.77305">
        <ele>316.5</ele>
        <time>2016-01-10T11:05:54.000Z</time>
      </trkpt>
      <trkpt lat="47.49813" lon="6.77304">
        <ele>316.9</ele>
        <time>2016-01-10T11:05:55.000Z</time>
      </trkpt>
      <trkpt lat="47.49817" lon="6.77303">
        <ele>317.2</ele>
        <time>2016-01-10T11:05:56.000Z</time>
      </trkpt>
      <trkpt lat="47.49822" lon="6.77301">
        <ele>317.6</ele>
        <time>2016-01-10T11:05:57.000Z</time>
      </trkpt>
      <trkpt lat="47.49826" lon="6.773">
        <ele>318.8</ele>
        <time>2016-01-10T11:05:58.000Z</time>
      </trkpt>
      <trkpt lat="47.4983" lon="6.77299">
        <ele>319.4</ele>
        <time>2016-01-10T11:05:59.000Z</time>
      </trkpt>
      <trkpt lat="47.49834" lon="6.77297">
        <ele>319.8</ele>
        <time>2016-01-10T11:06:00.000Z</time>
      </trkpt>
      <trkpt lat="47.4984" lon="6.77299">
        <ele>320.7</ele>
        <time>2016-01-10T11:06:01.000Z</time>
      </trkpt>
      <trkpt lat="47.49845" lon="6.77297">
        <ele>320.7</ele>
        <time>2016-01-10T11:06:02.000Z</time>
      </trkpt>
      <trkpt lat="47.49851" lon="6.77297">
        <ele>320</ele>
        <time>2016-01-10T11:06:03.000Z</time>
      </trkpt>
      <trkpt lat="47.49857" lon="6.77295">
        <ele>320.3</ele>
        <time>2016-01-10T11:06:04.000Z</time>
      </trkpt>
      <trkpt lat="47.49862" lon="6.77296">
        <ele>317.9</ele>
        <time>2016-01-10T11:06:05.000Z</time>
      </trkpt>
      <trkpt lat="47.49868" lon="6.77295">
        <ele>317.6</ele>
        <time>2016-01-10T11:06:06.000Z</time>
      </trkpt>
      <trkpt lat="47.49873" lon="6.77295">
        <ele>317.9</ele>
        <time>2016-01-10T11:06:07.000Z</time>
      </trkpt>
      <trkpt lat="47.49879" lon="6.77295">
        <ele>318.5</ele>
        <time>2016-01-10T11:06:08.000Z</time>
      </trkpt>
      <trkpt lat="47.49884" lon="6.77293">
        <ele>318.9</ele>
        <time>2016-01-10T11:06:09.000Z</time>
      </trkpt>
      <trkpt lat="47.49889" lon="6.77291">
        <ele>319.3</ele>
        <time>2016-01-10T11:06:10.000Z</time>
      </trkpt>
      <trkpt lat="47.49895" lon="6.77289">
        <ele>318.7</ele>
        <time>2016-01-10T11:06:11.000Z</time>
      </trkpt>
      <trkpt lat="47.499" lon="6.77287">
        <ele>318.5</ele>
        <time>2016-01-10T11:06:12.000Z</time>
      </trkpt>
      <trkpt lat="47.49905" lon="6.77284">
        <ele>318.7</ele>
        <time>2016-01-10T11:06:13.000Z</time>
      </trkpt>
      <trkpt lat="47.4991" lon="6.77282">
        <ele>318.7</ele>
        <time>2016-01-10T11:06:14.000Z</time>
      </trkpt>
      <trkpt lat="47.49914" lon="6.77279">
        <ele>318.7</ele>
        <time>2016-01-10T11:06:15.000Z</time>
      </trkpt>
      <trkpt lat="47.49919" lon="6.77277">
        <ele>318.8</ele>
        <time>2016-01-10T11:06:16.000Z</time>
      </trkpt>
      <trkpt lat="47.49923" lon="6.77274">
        <ele>318.8</ele>
        <time>2016-01-10T11:06:17.000Z</time>
      </trkpt>
      <trkpt lat="47.49928" lon="6.77271">
        <ele>318.8</ele>
        <time>2016-01-10T11:06:18.000Z</time>
      </trkpt>
      <trkpt lat="47.49934" lon="6.7727">
        <ele>319.3</ele>
        <time>2016-01-10T11:06:19.000Z</time>
      </trkpt>
      <trkpt lat="47.49937" lon="6.77266">
        <ele>317.8</ele>
        <time>2016-01-10T11:06:20.000Z</time>
      </trkpt>
      <trkpt lat="47.49942" lon="6.77263">
        <ele>317.9</ele>
        <time>2016-01-10T11:06:21.000Z</time>
      </trkpt>
      <trkpt lat="47.49947" lon="6.7726">
        <ele>317.9</ele>
        <time>2016-01-10T11:06:22.000Z</time>
      </trkpt>
      <trkpt lat="47.49951" lon="6.77257">
        <ele>318</ele>
        <time>2016-01-10T11:06:23.000Z</time>
      </trkpt>
      <trkpt lat="47.49957" lon="6.77253">
        <ele>318</ele>
        <time>2016-01-10T11:06:24.000Z</time>
      </trkpt>
      <trkpt lat="47.49962" lon="6.77249">
        <ele>317.1</ele>
        <time>2016-01-10T11:06:25.000Z</time>
      </trkpt>
      <trkpt lat="47.49968" lon="6.77246">
        <ele>317.2</ele>
        <time>2016-01-10T11:06:26.000Z</time>
      </trkpt>
      <trkpt lat="47.49972" lon="6.77244">
        <ele>317</ele>
        <time>2016-01-10T11:06:27.000Z</time>
      </trkpt>
      <trkpt lat="47.49977" lon="6.77241">
        <ele>317.1</ele>
        <time>2016-01-10T11:06:28.000Z</time>
      </trkpt>
      <trkpt lat="47.49981" lon="6.77238">
        <ele>316.9</ele>
        <time>2016-01-10T11:06:29.000Z</time>
      </trkpt>
      <trkpt lat="47.49986" lon="6.77236">
        <ele>316.9</ele>
        <time>2016-01-10T11:06:30.000Z</time>
      </trkpt>
      <trkpt lat="47.4999" lon="6.77234">
        <ele>317</ele>
        <time>2016-01-10T11:06:31.000Z</time>
      </trkpt>
      <trkpt lat="47.49995" lon="6.77231">
        <ele>317.5</ele>
        <time>2016-01-10T11:06:32.000Z</time>
      </trkpt>
      <trkpt lat="47.49999" lon="6.7723">
        <ele>317</ele>
        <time>2016-01-10T11:06:33.000Z</time>
      </trkpt>
      <trkpt lat="47.50003" lon="6.77229">
        <ele>316.8</ele>
        <time>2016-01-10T11:06:34.000Z</time>
      </trkpt>
      <trkpt lat="47.50007" lon="6.77227">
        <ele>316.4</ele>
        <time>2016-01-10T11:06:35.000Z</time>
      </trkpt>
      <trkpt lat="47.50011" lon="6.77225">
        <ele>315.9</ele>
        <time>2016-01-10T11:06:36.000Z</time>
      </trkpt>
      <trkpt lat="47.50015" lon="6.77223">
        <ele>315.9</ele>
        <time>2016-01-10T11:06:37.000Z</time>
      </trkpt>
      <trkpt lat="47.50018" lon="6.77221">
        <ele>315.9</ele>
        <time>2016-01-10T11:06:38.000Z</time>
      </trkpt>
      <trkpt lat="47.50022" lon="6.77219">
        <ele>315.8</ele>
        <time>2016-01-10T11:06:39.000Z</time>
      </trkpt>
      <trkpt lat="47.50026" lon="6.77218">
        <ele>315.1</ele>
        <time>2016-01-10T11:06:40.000Z</time>
      </trkpt>
      <trkpt lat="47.5003" lon="6.77216">
        <ele>315</ele>
        <time>2016-01-10T11:06:41.000Z</time>
      </trkpt>
      <trkpt lat="47.50034" lon="6.77214">
        <ele>315</ele>
        <time>2016-01-10T11:06:42.000Z</time>
      </trkpt>
      <trkpt lat="47.50038" lon="6.77212">
        <ele>315</ele>
        <time>2016-01-10T11:06:43.000Z</time>
      </trkpt>
      <trkpt lat="47.50042" lon="6.7721">
        <ele>315.1</ele>
        <time>2016-01-10T11:06:44.000Z</time>
      </trkpt>
      <trkpt lat="47.50047" lon="6.77208">
        <ele>315</ele>
        <time>2016-01-10T11:06:45.000Z</time>
      </trkpt>
      <trkpt lat="47.50051" lon="6.77207">
        <ele>315.7</ele>
        <time>2016-01-10T11:06:46.000Z</time>
      </trkpt>
      <trkpt lat="47.50055" lon="6.77205">
        <ele>316.5</ele>
        <time>2016-01-10T11:06:47.000Z</time>
      </trkpt>
      <trkpt lat="47.5006" lon="6.77202">
        <ele>316.6</ele>
        <time>2016-01-10T11:06:48.000Z</time>
      </trkpt>
      <trkpt lat="47.50064" lon="6.77202">
        <ele>317.6</ele>
        <time>2016-01-10T11:06:49.000Z</time>
      </trkpt>
      <trkpt lat="47.50069" lon="6.77201">
        <ele>318</ele>
        <time>2016-01-10T11:06:50.000Z</time>
      </trkpt>
      <trkpt lat="47.50073" lon="6.772">
        <ele>318.2</ele>
        <time>2016-01-10T11:06:51.000Z</time>
      </trkpt>
      <trkpt lat="47.50077" lon="6.77198">
        <ele>318.4</ele>
        <time>2016-01-10T11:06:52.000Z</time>
      </trkpt>
      <trkpt lat="47.50082" lon="6.77196">
        <ele>318.4</ele>
        <time>2016-01-10T11:06:53.000Z</time>
      </trkpt>
      <trkpt lat="47.50086" lon="6.77193">
        <ele>318.3</ele>
        <time>2016-01-10T11:06:54.000Z</time>
      </trkpt>
      <trkpt lat="47.5009" lon="6.77192">
        <ele>318.5</ele>
        <time>2016-01-10T11:06:55.000Z</time>
      </trkpt>
      <trkpt lat="47.50094" lon="6.77191">
        <ele>317.2</ele>
        <time>2016-01-10T11:06:56.000Z</time>
      </trkpt>
      <trkpt lat="47.50098" lon="6.77188">
        <ele>317.2</ele>
        <time>2016-01-10T11:06:57.000Z</time>
      </trkpt>
      <trkpt lat="47.50103" lon="6.77188">
        <ele>316.6</ele>
        <time>2016-01-10T11:06:58.000Z</time>
      </trkpt>
      <trkpt lat="47.50109" lon="6.77189">
        <ele>316.1</ele>
        <time>2016-01-10T11:06:59.000Z</time>
      </trkpt>
      <trkpt lat="47.50114" lon="6.7719">
        <ele>315.9</ele>
        <time>2016-01-10T11:07:00.000Z</time>
      </trkpt>
      <trkpt lat="47.5012" lon="6.77192">
        <ele>315.4</ele>
        <time>2016-01-10T11:07:01.000Z</time>
      </trkpt>
      <trkpt lat="47.50126" lon="6.77193">
        <ele>315.1</ele>
        <time>2016-01-10T11:07:02.000Z</time>
      </trkpt>
      <trkpt lat="47.50132" lon="6.77193">
        <ele>315.2</ele>
        <time>2016-01-10T11:07:03.000Z</time>
      </trkpt>
      <trkpt lat="47.50138" lon="6.77195">
        <ele>315.2</ele>
        <time>2016-01-10T11:07:04.000Z</time>
      </trkpt>
      <trkpt lat="47.50143" lon="6.77197">
        <ele>315.3</ele>
        <time>2016-01-10T11:07:05.000Z</time>
      </trkpt>
      <trkpt lat="47.50148" lon="6.77201">
        <ele>314.9</ele>
        <time>2016-01-10T11:07:06.000Z</time>
      </trkpt>
      <trkpt lat="47.50154" lon="6.77206">
        <ele>314.1</ele>
        <time>2016-01-10T11:07:07.000Z</time>
      </trkpt>
      <trkpt lat="47.50159" lon="6.7721">
        <ele>313.9</ele>
        <time>2016-01-10T11:07:08.000Z</time>
      </trkpt>
      <trkpt lat="47.50163" lon="6.77214">
        <ele>313.9</ele>
        <time>2016-01-10T11:07:09.000Z</time>
      </trkpt>
      <trkpt lat="47.50168" lon="6.77219">
        <ele>314.1</ele>
        <time>2016-01-10T11:07:10.000Z</time>
      </trkpt>
      <trkpt lat="47.50172" lon="6.77223">
        <ele>314.3</ele>
        <time>2016-01-10T11:07:11.000Z</time>
      </trkpt>
      <trkpt lat="47.50177" lon="6.77227">
        <ele>314.3</ele>
        <time>2016-01-10T11:07:12.000Z</time>
      </trkpt>
      <trkpt lat="47.50182" lon="6.7723">
        <ele>314.5</ele>
        <time>2016-01-10T11:07:13.000Z</time>
      </trkpt>
      <trkpt lat="47.50185" lon="6.77235">
        <ele>314</ele>
        <time>2016-01-10T11:07:14.000Z</time>
      </trkpt>
      <trkpt lat="47.5019" lon="6.77239">
        <ele>313.7</ele>
        <time>2016-01-10T11:07:15.000Z</time>
      </trkpt>
      <trkpt lat="47.50194" lon="6.77243">
        <ele>313.9</ele>
        <time>2016-01-10T11:07:16.000Z</time>
      </trkpt>
      <trkpt lat="47.50199" lon="6.77247">
        <ele>313.9</ele>
        <time>2016-01-10T11:07:17.000Z</time>
      </trkpt>
      <trkpt lat="47.50204" lon="6.77251">
        <ele>314.2</ele>
        <time>2016-01-10T11:07:18.000Z</time>
      </trkpt>
      <trkpt lat="47.50208" lon="6.77255">
        <ele>314.1</ele>
        <time>2016-01-10T11:07:19.000Z</time>
      </trkpt>
      <trkpt lat="47.50213" lon="6.77259">
        <ele>314</ele>
        <time>2016-01-10T11:07:20.000Z</time>
      </trkpt>
      <trkpt lat="47.50217" lon="6.77262">
        <ele>314</ele>
        <time>2016-01-10T11:07:21.000Z</time>
      </trkpt>
      <trkpt lat="47.50222" lon="6.77265">
        <ele>313.8</ele>
        <time>2016-01-10T11:07:22.000Z</time>
      </trkpt>
      <trkpt lat="47.50227" lon="6.77269">
        <ele>314.4</ele>
        <time>2016-01-10T11:07:23.000Z</time>
      </trkpt>
      <trkpt lat="47.50231" lon="6.77272">
        <ele>314.4</ele>
        <time>2016-01-10T11:07:24.000Z</time>
      </trkpt>
      <trkpt lat="47.50236" lon="6.77275">
        <ele>314.8</ele>
        <time>2016-01-10T11:07:25.000Z</time>
      </trkpt>
      <trkpt lat="47.50241" lon="6.77278">
        <ele>315.1</ele>
        <time>2016-01-10T11:07:26.000Z</time>
      </trkpt>
      <trkpt lat="47.50246" lon="6.77281">
        <ele>315.6</ele>
        <time>2016-01-10T11:07:27.000Z</time>
      </trkpt>
      <trkpt lat="47.50251" lon="6.77286">
        <ele>316</ele>
        <time>2016-01-10T11:07:28.000Z</time>
      </trkpt>
      <trkpt lat="47.50256" lon="6.77289">
        <ele>316</ele>
        <time>2016-01-10T11:07:29.000Z</time>
      </trkpt>
      <trkpt lat="47.5026" lon="6.77292">
        <ele>316</ele>
        <time>2016-01-10T11:07:30.000Z</time>
      </trkpt>
      <trkpt lat="47.50265" lon="6.77296">
        <ele>316.1</ele>
        <time>2016-01-10T11:07:31.000Z</time>
      </trkpt>
      <trkpt lat="47.50269" lon="6.773">
        <ele>316.4</ele>
        <time>2016-01-10T11:07:32.000Z</time>
      </trkpt>
      <trkpt lat="47.50274" lon="6.77303">
        <ele>316.4</ele>
        <time>2016-01-10T11:07:33.000Z</time>
      </trkpt>
      <trkpt lat="47.50278" lon="6.77306">
        <ele>316.6</ele>
        <time>2016-01-10T11:07:34.000Z</time>
      </trkpt>
      <trkpt lat="47.50283" lon="6.77309">
        <ele>316.6</ele>
        <time>2016-01-10T11:07:35.000Z</time>
      </trkpt>
      <trkpt lat="47.50288" lon="6.77312">
        <ele>316.8</ele>
        <time>2016-01-10T11:07:36.000Z</time>
      </trkpt>
      <trkpt lat="47.50293" lon="6.77316">
        <ele>317.1</ele>
        <time>2016-01-10T11:07:37.000Z</time>
      </trkpt>
      <trkpt lat="47.50298" lon="6.77319">
        <ele>317.3</ele>
        <time>2016-01-10T11:07:38.000Z</time>
      </trkpt>
      <trkpt lat="47.50303" lon="6.77323">
        <ele>317.2</ele>
        <time>2016-01-10T11:07:39.000Z</time>
      </trkpt>
      <trkpt lat="47.50307" lon="6.77326">
        <ele>317.2</ele>
        <time>2016-01-10T11:07:40.000Z</time>
      </trkpt>
      <trkpt lat="47.50312" lon="6.77331">
        <ele>317</ele>
        <time>2016-01-10T11:07:41.000Z</time>
      </trkpt>
      <trkpt lat="47.50316" lon="6.77335">
        <ele>317</ele>
        <time>2016-01-10T11:07:42.000Z</time>
      </trkpt>
      <trkpt lat="47.50321" lon="6.77338">
        <ele>317.2</ele>
        <time>2016-01-10T11:07:43.000Z</time>
      </trkpt>
      <trkpt lat="47.50326" lon="6.77342">
        <ele>318.1</ele>
        <time>2016-01-10T11:07:44.000Z</time>
      </trkpt>
      <trkpt lat="47.5033" lon="6.77345">
        <ele>318.1</ele>
        <time>2016-01-10T11:07:45.000Z</time>
      </trkpt>
      <trkpt lat="47.50335" lon="6.77349">
        <ele>318</ele>
        <time>2016-01-10T11:07:46.000Z</time>
      </trkpt>
      <trkpt lat="47.5034" lon="6.77353">
        <ele>318.3</ele>
        <time>2016-01-10T11:07:47.000Z</time>
      </trkpt>
      <trkpt lat="47.50344" lon="6.77356">
        <ele>318.1</ele>
        <time>2016-01-10T11:07:48.000Z</time>
      </trkpt>
      <trkpt lat="47.50349" lon="6.7736">
        <ele>318.4</ele>
        <time>2016-01-10T11:07:49.000Z</time>
      </trkpt>
      <trkpt lat="47.50354" lon="6.77363">
        <ele>318.1</ele>
        <time>2016-01-10T11:07:50.000Z</time>
      </trkpt>
      <trkpt lat="47.50358" lon="6.77367">
        <ele>318.2</ele>
        <time>2016-01-10T11:07:51.000Z</time>
      </trkpt>
      <trkpt lat="47.50363" lon="6.7737">
        <ele>318.3</ele>
        <time>2016-01-10T11:07:52.000Z</time>
      </trkpt>
      <trkpt lat="47.50367" lon="6.77374">
        <ele>318.1</ele>
        <time>2016-01-10T11:07:53.000Z</time>
      </trkpt>
      <trkpt lat="47.50371" lon="6.77378">
        <ele>317.5</ele>
        <time>2016-01-10T11:07:54.000Z</time>
      </trkpt>
      <trkpt lat="47.50376" lon="6.77382">
        <ele>317.3</ele>
        <time>2016-01-10T11:07:55.000Z</time>
      </trkpt>
      <trkpt lat="47.5038" lon="6.77386">
        <ele>317.1</ele>
        <time>2016-01-10T11:07:56.000Z</time>
      </trkpt>
      <trkpt lat="47.50385" lon="6.7739">
        <ele>317</ele>
        <time>2016-01-10T11:07:57.000Z</time>
      </trkpt>
      <trkpt lat="47.50389" lon="6.77394">
        <ele>317.3</ele>
        <time>2016-01-10T11:07:58.000Z</time>
      </trkpt>
      <trkpt lat="47.50394" lon="6.77397">
        <ele>317.3</ele>
        <time>2016-01-10T11:07:59.000Z</time>
      </trkpt>
      <trkpt lat="47.50398" lon="6.77401">
        <ele>317</ele>
        <time>2016-01-10T11:08:00.000Z</time>
      </trkpt>
      <trkpt lat="47.50402" lon="6.77405">
        <ele>316.6</ele>
        <time>2016-01-10T11:08:01.000Z</time>
      </trkpt>
      <trkpt lat="47.50407" lon="6.77408">
        <ele>317.1</ele>
        <time>2016-01-10T11:08:02.000Z</time>
      </trkpt>
      <trkpt lat="47.50412" lon="6.77412">
        <ele>316.9</ele>
        <time>2016-01-10T11:08:03.000Z</time>
      </trkpt>
      <trkpt lat="47.50416" lon="6.77416">
        <ele>317.2</ele>
        <time>2016-01-10T11:08:04.000Z</time>
      </trkpt>
      <trkpt lat="47.50421" lon="6.77419">
        <ele>317.7</ele>
        <time>2016-01-10T11:08:05.000Z</time>
      </trkpt>
      <trkpt lat="47.50426" lon="6.77423">
        <ele>317.2</ele>
        <time>2016-01-10T11:08:06.000Z</time>
      </trkpt>
      <trkpt lat="47.5043" lon="6.77427">
        <ele>317.3</ele>
        <time>2016-01-10T11:08:07.000Z</time>
      </trkpt>
      <trkpt lat="47.50435" lon="6.77431">
        <ele>317.6</ele>
        <time>2016-01-10T11:08:08.000Z</time>
      </trkpt>
      <trkpt lat="47.50439" lon="6.77435">
        <ele>317.7</ele>
        <time>2016-01-10T11:08:09.000Z</time>
      </trkpt>
      <trkpt lat="47.50444" lon="6.77439">
        <ele>317.7</ele>
        <time>2016-01-10T11:08:10.000Z</time>
      </trkpt>
      <trkpt lat="47.50448" lon="6.77442">
        <ele>318.4</ele>
        <time>2016-01-10T11:08:11.000Z</time>
      </trkpt>
      <trkpt lat="47.50453" lon="6.77446">
        <ele>318.2</ele>
        <time>2016-01-10T11:08:12.000Z</time>
      </trkpt>
      <trkpt lat="47.50457" lon="6.7745">
        <ele>318.4</ele>
        <time>2016-01-10T11:08:13.000Z</time>
      </trkpt>
      <trkpt lat="47.50461" lon="6.77456">
        <ele>317.9</ele>
        <time>2016-01-10T11:08:14.000Z</time>
      </trkpt>
      <trkpt lat="47.50465" lon="6.77459">
        <ele>318</ele>
        <time>2016-01-10T11:08:15.000Z</time>
      </trkpt>
      <trkpt lat="47.5047" lon="6.77463">
        <ele>317.8</ele>
        <time>2016-01-10T11:08:16.000Z</time>
      </trkpt>
      <trkpt lat="47.50474" lon="6.77467">
        <ele>317.8</ele>
        <time>2016-01-10T11:08:17.000Z</time>
      </trkpt>
      <trkpt lat="47.50479" lon="6.7747">
        <ele>318.1</ele>
        <time>2016-01-10T11:08:17.999Z</time>
      </trkpt>
      <trkpt lat="47.50484" lon="6.77474">
        <ele>317.8</ele>
        <time>2016-01-10T11:08:19.000Z</time>
      </trkpt>
      <trkpt lat="47.50489" lon="6.77477">
        <ele>317.8</ele>
        <time>2016-01-10T11:08:20.000Z</time>
      </trkpt>
      <trkpt lat="47.50493" lon="6.77481">
        <ele>317.4</ele>
        <time>2016-01-10T11:08:21.000Z</time>
      </trkpt>
      <trkpt lat="47.50498" lon="6.77484">
        <ele>317.6</ele>
        <time>2016-01-10T11:08:22.000Z</time>
      </trkpt>
      <trkpt lat="47.50502" lon="6.77488">
        <ele>317.6</ele>
        <time>2016-01-10T11:08:23.000Z</time>
      </trkpt>
      <trkpt lat="47.50507" lon="6.77491">
        <ele>317.7</ele>
        <time>2016-01-10T11:08:24.000Z</time>
      </trkpt>
      <trkpt lat="47.50512" lon="6.77495">
        <ele>318.3</ele>
        <time>2016-01-10T11:08:25.000Z</time>
      </trkpt>
      <trkpt lat="47.50517" lon="6.77498">
        <ele>318.8</ele>
        <time>2016-01-10T11:08:26.000Z</time>
      </trkpt>
      <trkpt lat="47.50521" lon="6.77501">
        <ele>319.1</ele>
        <time>2016-01-10T11:08:27.000Z</time>
      </trkpt>
      <trkpt lat="47.50526" lon="6.77504">
        <ele>319.4</ele>
        <time>2016-01-10T11:08:28.000Z</time>
      </trkpt>
      <trkpt lat="47.5053" lon="6.77507">
        <ele>319.1</ele>
        <time>2016-01-10T11:08:29.000Z</time>
      </trkpt>
      <trkpt lat="47.50535" lon="6.7751">
        <ele>319.3</ele>
        <time>2016-01-10T11:08:30.000Z</time>
      </trkpt>
      <trkpt lat="47.50539" lon="6.77513">
        <ele>320.5</ele>
        <time>2016-01-10T11:08:31.000Z</time>
      </trkpt>
      <trkpt lat="47.50544" lon="6.77516">
        <ele>320</ele>
        <time>2016-01-10T11:08:32.000Z</time>
      </trkpt>
      <trkpt lat="47.50548" lon="6.7752">
        <ele>320</ele>
        <time>2016-01-10T11:08:33.000Z</time>
      </trkpt>
      <trkpt lat="47.50552" lon="6.77525">
        <ele>319.9</ele>
        <time>2016-01-10T11:08:34.000Z</time>
      </trkpt>
      <trkpt lat="47.50555" lon="6.77531">
        <ele>319.4</ele>
        <time>2016-01-10T11:08:35.000Z</time>
      </trkpt>
      <trkpt lat="47.50558" lon="6.77537">
        <ele>318.7</ele>
        <time>2016-01-10T11:08:36.000Z</time>
      </trkpt>
      <trkpt lat="47.5056" lon="6.77543">
        <ele>318.3</ele>
        <time>2016-01-10T11:08:37.000Z</time>
      </trkpt>
      <trkpt lat="47.50562" lon="6.77547">
        <ele>318.8</ele>
        <time>2016-01-10T11:08:38.000Z</time>
      </trkpt>
      <trkpt lat="47.50565" lon="6.7755">
        <ele>319.2</ele>
        <time>2016-01-10T11:08:39.000Z</time>
      </trkpt>
      <trkpt lat="47.50569" lon="6.77549">
        <ele>319.2</ele>
        <time>2016-01-10T11:08:40.000Z</time>
      </trkpt>
      <trkpt lat="47.50575" lon="6.77546">
        <ele>319.3</ele>
        <time>2016-01-10T11:08:41.000Z</time>
      </trkpt>
      <trkpt lat="47.50579" lon="6.77545">
        <ele>319.9</ele>
        <time>2016-01-10T11:08:42.000Z</time>
      </trkpt>
      <trkpt lat="47.50582" lon="6.77541">
        <ele>320.3</ele>
        <time>2016-01-10T11:08:43.000Z</time>
      </trkpt>
      <trkpt lat="47.50584" lon="6.77538">
        <ele>319.6</ele>
        <time>2016-01-10T11:08:44.000Z</time>
      </trkpt>
      <trkpt lat="47.50586" lon="6.77533">
        <ele>319.5</ele>
        <time>2016-01-10T11:08:45.000Z</time>
      </trkpt>
      <trkpt lat="47.50591" lon="6.77533">
        <ele>319.4</ele>
        <time>2016-01-10T11:08:46.000Z</time>
      </trkpt>
      <trkpt lat="47.50596" lon="6.77531">
        <ele>319.5</ele>
        <time>2016-01-10T11:08:47.000Z</time>
      </trkpt>
      <trkpt lat="47.50601" lon="6.7753">
        <ele>319.3</ele>
        <time>2016-01-10T11:08:48.000Z</time>
      </trkpt>
      <trkpt lat="47.50606" lon="6.77529">
        <ele>319.8</ele>
        <time>2016-01-10T11:08:49.000Z</time>
      </trkpt>
      <trkpt lat="47.50611" lon="6.77528">
        <ele>319.1</ele>
        <time>2016-01-10T11:08:50.000Z</time>
      </trkpt>
      <trkpt lat="47.50615" lon="6.77528">
        <ele>320</ele>
        <time>2016-01-10T11:08:51.000Z</time>
      </trkpt>
      <trkpt lat="47.5062" lon="6.77529">
        <ele>320.3</ele>
        <time>2016-01-10T11:08:52.000Z</time>
      </trkpt>
      <trkpt lat="47.50624" lon="6.7753">
        <ele>320.7</ele>
        <time>2016-01-10T11:08:53.000Z</time>
      </trkpt>
      <trkpt lat="47.50629" lon="6.7753">
        <ele>320.6</ele>
        <time>2016-01-10T11:08:54.000Z</time>
      </trkpt>
      <trkpt lat="47.50634" lon="6.77527">
        <ele>321.6</ele>
        <time>2016-01-10T11:08:55.000Z</time>
      </trkpt>
      <trkpt lat="47.50638" lon="6.77526">
        <ele>321.6</ele>
        <time>2016-01-10T11:08:56.000Z</time>
      </trkpt>
      <trkpt lat="47.50642" lon="6.77526">
        <ele>323.1</ele>
        <time>2016-01-10T11:08:57.000Z</time>
      </trkpt>
      <trkpt lat="47.50646" lon="6.77527">
        <ele>322.9</ele>
        <time>2016-01-10T11:08:58.000Z</time>
      </trkpt>
      <trkpt lat="47.50651" lon="6.77529">
        <ele>322.9</ele>
        <time>2016-01-10T11:08:59.000Z</time>
      </trkpt>
      <trkpt lat="47.50655" lon="6.77529">
        <ele>322.9</ele>
        <time>2016-01-10T11:09:00.000Z</time>
      </trkpt>
      <trkpt lat="47.50662" lon="6.77527">
        <ele>322.7</ele>
        <time>2016-01-10T11:09:01.000Z</time>
      </trkpt>
      <trkpt lat="47.50668" lon="6.77525">
        <ele>322.4</ele>
        <time>2016-01-10T11:09:02.000Z</time>
      </trkpt>
      <trkpt lat="47.50671" lon="6.77525">
        <ele>321.9</ele>
        <time>2016-01-10T11:09:03.000Z</time>
      </trkpt>
      <trkpt lat="47.50675" lon="6.77524">
        <ele>321.6</ele>
        <time>2016-01-10T11:09:04.000Z</time>
      </trkpt>
      <trkpt lat="47.50679" lon="6.77524">
        <ele>321.7</ele>
        <time>2016-01-10T11:09:05.000Z</time>
      </trkpt>
      <trkpt lat="47.50683" lon="6.77523">
        <ele>321.8</ele>
        <time>2016-01-10T11:09:06.000Z</time>
      </trkpt>
      <trkpt lat="47.50688" lon="6.77522">
        <ele>321.9</ele>
        <time>2016-01-10T11:09:07.000Z</time>
      </trkpt>
      <trkpt lat="47.50692" lon="6.77521">
        <ele>322.2</ele>
        <time>2016-01-10T11:09:08.000Z</time>
      </trkpt>
      <trkpt lat="47.50697" lon="6.77521">
        <ele>322.3</ele>
        <time>2016-01-10T11:09:09.000Z</time>
      </trkpt>
      <trkpt lat="47.50701" lon="6.77521">
        <ele>322.6</ele>
        <time>2016-01-10T11:09:10.000Z</time>
      </trkpt>
      <trkpt lat="47.50707" lon="6.77521">
        <ele>322.5</ele>
        <time>2016-01-10T11:09:11.000Z</time>
      </trkpt>
      <trkpt lat="47.50712" lon="6.77522">
        <ele>322.6</ele>
        <time>2016-01-10T11:09:12.000Z</time>
      </trkpt>
      <trkpt lat="47.50717" lon="6.77523">
        <ele>322.5</ele>
        <time>2016-01-10T11:09:13.000Z</time>
      </trkpt>
      <trkpt lat="47.50722" lon="6.77525">
        <ele>323.1</ele>
        <time>2016-01-10T11:09:14.000Z</time>
      </trkpt>
      <trkpt lat="47.50726" lon="6.77528">
        <ele>323.3</ele>
        <time>2016-01-10T11:09:15.000Z</time>
      </trkpt>
      <trkpt lat="47.50731" lon="6.7753">
        <ele>323.5</ele>
        <time>2016-01-10T11:09:16.000Z</time>
      </trkpt>
      <trkpt lat="47.50735" lon="6.77533">
        <ele>323.5</ele>
        <time>2016-01-10T11:09:17.000Z</time>
      </trkpt>
      <trkpt lat="47.5074" lon="6.77538">
        <ele>322.2</ele>
        <time>2016-01-10T11:09:18.000Z</time>
      </trkpt>
      <trkpt lat="47.50745" lon="6.77542">
        <ele>322</ele>
        <time>2016-01-10T11:09:19.000Z</time>
      </trkpt>
      <trkpt lat="47.50749" lon="6.77545">
        <ele>321.8</ele>
        <time>2016-01-10T11:09:20.000Z</time>
      </trkpt>
      <trkpt lat="47.50753" lon="6.7755">
        <ele>321.4</ele>
        <time>2016-01-10T11:09:21.000Z</time>
      </trkpt>
      <trkpt lat="47.50757" lon="6.77554">
        <ele>321.5</ele>
        <time>2016-01-10T11:09:22.000Z</time>
      </trkpt>
      <trkpt lat="47.50761" lon="6.77557">
        <ele>321.2</ele>
        <time>2016-01-10T11:09:23.000Z</time>
      </trkpt>
      <trkpt lat="47.50766" lon="6.7756">
        <ele>321.3</ele>
        <time>2016-01-10T11:09:24.000Z</time>
      </trkpt>
      <trkpt lat="47.5077" lon="6.77563">
        <ele>320.9</ele>
        <time>2016-01-10T11:09:25.000Z</time>
      </trkpt>
      <trkpt lat="47.50773" lon="6.77567">
        <ele>320.3</ele>
        <time>2016-01-10T11:09:26.000Z</time>
      </trkpt>
      <trkpt lat="47.50777" lon="6.7757">
        <ele>320.2</ele>
        <time>2016-01-10T11:09:27.000Z</time>
      </trkpt>
      <trkpt lat="47.5078" lon="6.77573">
        <ele>319.9</ele>
        <time>2016-01-10T11:09:28.000Z</time>
      </trkpt>
      <trkpt lat="47.50785" lon="6.77577">
        <ele>320.5</ele>
        <time>2016-01-10T11:09:29.000Z</time>
      </trkpt>
      <trkpt lat="47.50789" lon="6.7758">
        <ele>320</ele>
        <time>2016-01-10T11:09:30.000Z</time>
      </trkpt>
      <trkpt lat="47.50793" lon="6.77584">
        <ele>319.6</ele>
        <time>2016-01-10T11:09:31.000Z</time>
      </trkpt>
      <trkpt lat="47.50797" lon="6.77587">
        <ele>319.4</ele>
        <time>2016-01-10T11:09:32.000Z</time>
      </trkpt>
      <trkpt lat="47.50801" lon="6.7759">
        <ele>319.3</ele>
        <time>2016-01-10T11:09:33.000Z</time>
      </trkpt>
      <trkpt lat="47.50804" lon="6.77594">
        <ele>319.2</ele>
        <time>2016-01-10T11:09:34.000Z</time>
      </trkpt>
      <trkpt lat="47.50809" lon="6.77599">
        <ele>319.4</ele>
        <time>2016-01-10T11:09:35.000Z</time>
      </trkpt>
      <trkpt lat="47.50813" lon="6.77602">
        <ele>319.5</ele>
        <time>2016-01-10T11:09:36.000Z</time>
      </trkpt>
      <trkpt lat="47.50817" lon="6.77604">
        <ele>320.1</ele>
        <time>2016-01-10T11:09:37.000Z</time>
      </trkpt>
      <trkpt lat="47.50822" lon="6.77607">
        <ele>320.5</ele>
        <time>2016-01-10T11:09:38.000Z</time>
      </trkpt>
      <trkpt lat="47.50826" lon="6.77611">
        <ele>320.3</ele>
        <time>2016-01-10T11:09:39.000Z</time>
      </trkpt>
      <trkpt lat="47.5083" lon="6.77615">
        <ele>319.6</ele>
        <time>2016-01-10T11:09:40.000Z</time>
      </trkpt>
      <trkpt lat="47.50834" lon="6.7762">
        <ele>318.3</ele>
        <time>2016-01-10T11:09:41.000Z</time>
      </trkpt>
      <trkpt lat="47.50837" lon="6.77623">
        <ele>318.4</ele>
        <time>2016-01-10T11:09:42.000Z</time>
      </trkpt>
      <trkpt lat="47.50841" lon="6.77627">
        <ele>318.5</ele>
        <time>2016-01-10T11:09:43.000Z</time>
      </trkpt>
      <trkpt lat="47.50845" lon="6.77631">
        <ele>318</ele>
        <time>2016-01-10T11:09:44.000Z</time>
      </trkpt>
      <trkpt lat="47.50849" lon="6.77636">
        <ele>317.2</ele>
        <time>2016-01-10T11:09:45.000Z</time>
      </trkpt>
      <trkpt lat="47.50852" lon="6.7764">
        <ele>317.9</ele>
        <time>2016-01-10T11:09:46.000Z</time>
      </trkpt>
      <trkpt lat="47.50856" lon="6.77645">
        <ele>318.1</ele>
        <time>2016-01-10T11:09:47.000Z</time>
      </trkpt>
      <trkpt lat="47.50859" lon="6.7765">
        <ele>317.9</ele>
        <time>2016-01-10T11:09:48.000Z</time>
      </trkpt>
      <trkpt lat="47.50862" lon="6.77654">
        <ele>317.8</ele>
        <time>2016-01-10T11:09:49.000Z</time>
      </trkpt>
      <trkpt lat="47.50865" lon="6.77659">
        <ele>318.1</ele>
        <time>2016-01-10T11:09:50.000Z</time>
      </trkpt>
      <trkpt lat="47.50869" lon="6.77666">
        <ele>317</ele>
        <time>2016-01-10T11:09:51.000Z</time>
      </trkpt>
      <trkpt lat="47.50872" lon="6.77671">
        <ele>317</ele>
        <time>2016-01-10T11:09:52.000Z</time>
      </trkpt>
      <trkpt lat="47.50874" lon="6.77676">
        <ele>317</ele>
        <time>2016-01-10T11:09:53.000Z</time>
      </trkpt>
      <trkpt lat="47.50876" lon="6.77681">
        <ele>318</ele>
        <time>2016-01-10T11:09:54.000Z</time>
      </trkpt>
      <trkpt lat="47.50879" lon="6.77686">
        <ele>317.4</ele>
        <time>2016-01-10T11:09:55.000Z</time>
      </trkpt>
      <trkpt lat="47.50881" lon="6.7769">
        <ele>317.5</ele>
        <time>2016-01-10T11:09:56.000Z</time>
      </trkpt>
      <trkpt lat="47.50884" lon="6.77693">
        <ele>317.1</ele>
        <time>2016-01-10T11:09:57.000Z</time>
      </trkpt>
      <trkpt lat="47.50888" lon="6.77696">
        <ele>317.8</ele>
        <time>2016-01-10T11:09:58.000Z</time>
      </trkpt>
      <trkpt lat="47.50893" lon="6.77697">
        <ele>317.8</ele>
        <time>2016-01-10T11:09:59.000Z</time>
      </trkpt>
      <trkpt lat="47.50897" lon="6.77697">
        <ele>318.1</ele>
        <time>2016-01-10T11:10:00.000Z</time>
      </trkpt>
      <trkpt lat="47.50901" lon="6.77696">
        <ele>318.5</ele>
        <time>2016-01-10T11:10:01.000Z</time>
      </trkpt>
      <trkpt lat="47.50905" lon="6.77696">
        <ele>318.4</ele>
        <time>2016-01-10T11:10:02.000Z</time>
      </trkpt>
      <trkpt lat="47.50909" lon="6.77695">
        <ele>318.8</ele>
        <time>2016-01-10T11:10:03.000Z</time>
      </trkpt>
      <trkpt lat="47.50913" lon="6.77695">
        <ele>318.9</ele>
        <time>2016-01-10T11:10:04.000Z</time>
      </trkpt>
      <trkpt lat="47.50917" lon="6.77694">
        <ele>319.2</ele>
        <time>2016-01-10T11:10:05.000Z</time>
      </trkpt>
      <trkpt lat="47.50921" lon="6.77694">
        <ele>318.6</ele>
        <time>2016-01-10T11:10:06.000Z</time>
      </trkpt>
      <trkpt lat="47.50925" lon="6.77694">
        <ele>318.6</ele>
        <time>2016-01-10T11:10:07.000Z</time>
      </trkpt>
      <trkpt lat="47.50929" lon="6.77695">
        <ele>319.4</ele>
        <time>2016-01-10T11:10:08.000Z</time>
      </trkpt>
      <trkpt lat="47.50932" lon="6.77695">
        <ele>319.7</ele>
        <time>2016-01-10T11:10:09.000Z</time>
      </trkpt>
      <trkpt lat="47.50936" lon="6.77696">
        <ele>319.7</ele>
        <time>2016-01-10T11:10:10.000Z</time>
      </trkpt>
      <trkpt lat="47.50939" lon="6.77695">
        <ele>320</ele>
        <time>2016-01-10T11:10:11.000Z</time>
      </trkpt>
      <trkpt lat="47.50942" lon="6.77695">
        <ele>319.9</ele>
        <time>2016-01-10T11:10:12.000Z</time>
      </trkpt>
      <trkpt lat="47.50945" lon="6.77694">
        <ele>320.3</ele>
        <time>2016-01-10T11:10:13.000Z</time>
      </trkpt>
      <trkpt lat="47.50949" lon="6.77693">
        <ele>321.1</ele>
        <time>2016-01-10T11:10:19.000Z</time>
      </trkpt>
      <trkpt lat="47.5095" lon="6.77694">
        <ele>321.4</ele>
        <time>2016-01-10T11:10:20.000Z</time>
      </trkpt>
      <trkpt lat="47.50952" lon="6.77694">
        <ele>321.6</ele>
        <time>2016-01-10T11:10:21.000Z</time>
      </trkpt>
      <trkpt lat="47.50955" lon="6.77694">
        <ele>321.9</ele>
        <time>2016-01-10T11:10:22.000Z</time>
      </trkpt>
      <trkpt lat="47.50958" lon="6.77693">
        <ele>321</ele>
        <time>2016-01-10T11:10:23.000Z</time>
      </trkpt>
      <trkpt lat="47.50961" lon="6.77691">
        <ele>321.1</ele>
        <time>2016-01-10T11:10:24.000Z</time>
      </trkpt>
      <trkpt lat="47.50964" lon="6.7769">
        <ele>321</ele>
        <time>2016-01-10T11:10:25.000Z</time>
      </trkpt>
      <trkpt lat="47.50968" lon="6.77688">
        <ele>321</ele>
        <time>2016-01-10T11:10:26.000Z</time>
      </trkpt>
      <trkpt lat="47.50971" lon="6.77688">
        <ele>321.4</ele>
        <time>2016-01-10T11:10:27.000Z</time>
      </trkpt>
      <trkpt lat="47.50974" lon="6.77689">
        <ele>322.5</ele>
        <time>2016-01-10T11:10:28.000Z</time>
      </trkpt>
      <trkpt lat="47.50977" lon="6.7769">
        <ele>322.7</ele>
        <time>2016-01-10T11:10:29.000Z</time>
      </trkpt>
      <trkpt lat="47.5098" lon="6.77693">
        <ele>322.8</ele>
        <time>2016-01-10T11:10:30.000Z</time>
      </trkpt>
      <trkpt lat="47.50983" lon="6.77695">
        <ele>323.5</ele>
        <time>2016-01-10T11:10:31.000Z</time>
      </trkpt>
      <trkpt lat="47.50986" lon="6.77698">
        <ele>323.8</ele>
        <time>2016-01-10T11:10:32.000Z</time>
      </trkpt>
      <trkpt lat="47.50989" lon="6.777">
        <ele>324</ele>
        <time>2016-01-10T11:10:33.000Z</time>
      </trkpt>
      <trkpt lat="47.50992" lon="6.77703">
        <ele>323.5</ele>
        <time>2016-01-10T11:10:34.000Z</time>
      </trkpt>
      <trkpt lat="47.50995" lon="6.77706">
        <ele>323.3</ele>
        <time>2016-01-10T11:10:35.000Z</time>
      </trkpt>
      <trkpt lat="47.50998" lon="6.7771">
        <ele>323.9</ele>
        <time>2016-01-10T11:10:36.000Z</time>
      </trkpt>
      <trkpt lat="47.51001" lon="6.77713">
        <ele>324.1</ele>
        <time>2016-01-10T11:10:37.000Z</time>
      </trkpt>
      <trkpt lat="47.51004" lon="6.77715">
        <ele>323.7</ele>
        <time>2016-01-10T11:10:38.000Z</time>
      </trkpt>
      <trkpt lat="47.51007" lon="6.77718">
        <ele>323.5</ele>
        <time>2016-01-10T11:10:39.000Z</time>
      </trkpt>
      <trkpt lat="47.51011" lon="6.7772">
        <ele>323.6</ele>
        <time>2016-01-10T11:10:40.000Z</time>
      </trkpt>
      <trkpt lat="47.51014" lon="6.77723">
        <ele>323.4</ele>
        <time>2016-01-10T11:10:41.000Z</time>
      </trkpt>
      <trkpt lat="47.51017" lon="6.77726">
        <ele>323.6</ele>
        <time>2016-01-10T11:10:42.000Z</time>
      </trkpt>
      <trkpt lat="47.5102" lon="6.77728">
        <ele>323.8</ele>
        <time>2016-01-10T11:10:43.000Z</time>
      </trkpt>
      <trkpt lat="47.51023" lon="6.77731">
        <ele>324.2</ele>
        <time>2016-01-10T11:10:44.000Z</time>
      </trkpt>
      <trkpt lat="47.51027" lon="6.77733">
        <ele>324.4</ele>
        <time>2016-01-10T11:10:45.000Z</time>
      </trkpt>
      <trkpt lat="47.5103" lon="6.77735">
        <ele>324.7</ele>
        <time>2016-01-10T11:10:46.000Z</time>
      </trkpt>
      <trkpt lat="47.51032" lon="6.77736">
        <ele>325.3</ele>
        <time>2016-01-10T11:10:47.000Z</time>
      </trkpt>
      <trkpt lat="47.51035" lon="6.77738">
        <ele>327.2</ele>
        <time>2016-01-10T11:10:48.000Z</time>
      </trkpt>
      <trkpt lat="47.51038" lon="6.7774">
        <ele>328.7</ele>
        <time>2016-01-10T11:10:49.000Z</time>
      </trkpt>
      <trkpt lat="47.51042" lon="6.77739">
        <ele>335.1</ele>
        <time>2016-01-10T11:10:50.000Z</time>
      </trkpt>
      <trkpt lat="47.51045" lon="6.7774">
        <ele>337.7</ele>
        <time>2016-01-10T11:10:51.000Z</time>
      </trkpt>
      <trkpt lat="47.51048" lon="6.77742">
        <ele>338.7</ele>
        <time>2016-01-10T11:10:52.000Z</time>
      </trkpt>
      <trkpt lat="47.51051" lon="6.77744">
        <ele>336.3</ele>
        <time>2016-01-10T11:10:54.000Z</time>
      </trkpt>
      <trkpt lat="47.51052" lon="6.77744">
        <ele>335.9</ele>
        <time>2016-01-10T11:10:55.000Z</time>
      </trkpt>
      <trkpt lat="47.51053" lon="6.77747">
        <ele>334.8</ele>
        <time>2016-01-10T11:10:56.000Z</time>
      </trkpt>
      <trkpt lat="47.51053" lon="6.77751">
        <ele>333</ele>
        <time>2016-01-10T11:10:57.000Z</time>
      </trkpt>
      <trkpt lat="47.51053" lon="6.77756">
        <ele>330.1</ele>
        <time>2016-01-10T11:11:04.000Z</time>
      </trkpt>
      <trkpt lat="47.51055" lon="6.77757">
        <ele>330.7</ele>
        <time>2016-01-10T11:11:05.000Z</time>
      </trkpt>
      <trkpt lat="47.51059" lon="6.77758">
        <ele>331.1</ele>
        <time>2016-01-10T11:11:07.000Z</time>
      </trkpt>
      <trkpt lat="47.51062" lon="6.77758">
        <ele>331.2</ele>
        <time>2016-01-10T11:11:08.000Z</time>
      </trkpt>
      <trkpt lat="47.51065" lon="6.77758">
        <ele>331.5</ele>
        <time>2016-01-10T11:11:09.000Z</time>
      </trkpt>
      <trkpt lat="47.51069" lon="6.77759">
        <ele>332.2</ele>
        <time>2016-01-10T11:11:10.000Z</time>
      </trkpt>
      <trkpt lat="47.51072" lon="6.77759">
        <ele>332.4</ele>
        <time>2016-01-10T11:11:11.000Z</time>
      </trkpt>
      <trkpt lat="47.51076" lon="6.7776">
        <ele>331.7</ele>
        <time>2016-01-10T11:11:12.000Z</time>
      </trkpt>
      <trkpt lat="47.5108" lon="6.7776">
        <ele>331.4</ele>
        <time>2016-01-10T11:11:13.000Z</time>
      </trkpt>
      <trkpt lat="47.51083" lon="6.77761">
        <ele>331.5</ele>
        <time>2016-01-10T11:11:14.000Z</time>
      </trkpt>
      <trkpt lat="47.51087" lon="6.77763">
        <ele>331.8</ele>
        <time>2016-01-10T11:11:15.000Z</time>
      </trkpt>
      <trkpt lat="47.51091" lon="6.77764">
        <ele>331.5</ele>
        <time>2016-01-10T11:11:16.000Z</time>
      </trkpt>
      <trkpt lat="47.51094" lon="6.77765">
        <ele>331.2</ele>
        <time>2016-01-10T11:11:17.000Z</time>
      </trkpt>
      <trkpt lat="47.51098" lon="6.77766">
        <ele>330.6</ele>
        <time>2016-01-10T11:11:18.000Z</time>
      </trkpt>
      <trkpt lat="47.51102" lon="6.77768">
        <ele>331</ele>
        <time>2016-01-10T11:11:19.000Z</time>
      </trkpt>
      <trkpt lat="47.51105" lon="6.77769">
        <ele>331.1</ele>
        <time>2016-01-10T11:11:20.000Z</time>
      </trkpt>
      <trkpt lat="47.51109" lon="6.7777">
        <ele>331.1</ele>
        <time>2016-01-10T11:11:21.000Z</time>
      </trkpt>
      <trkpt lat="47.51112" lon="6.77771">
        <ele>331.2</ele>
        <time>2016-01-10T11:11:22.000Z</time>
      </trkpt>
      <trkpt lat="47.51115" lon="6.77772">
        <ele>331.2</ele>
        <time>2016-01-10T11:11:23.000Z</time>
      </trkpt>
      <trkpt lat="47.51119" lon="6.77773">
        <ele>331.3</ele>
        <time>2016-01-10T11:11:24.000Z</time>
      </trkpt>
      <trkpt lat="47.51122" lon="6.77774">
        <ele>331.3</ele>
        <time>2016-01-10T11:11:25.000Z</time>
      </trkpt>
      <trkpt lat="47.51125" lon="6.77774">
        <ele>331</ele>
        <time>2016-01-10T11:11:26.000Z</time>
      </trkpt>
      <trkpt lat="47.51129" lon="6.77775">
        <ele>331.6</ele>
        <time>2016-01-10T11:11:27.000Z</time>
      </trkpt>
      <trkpt lat="47.51132" lon="6.77775">
        <ele>331.7</ele>
        <time>2016-01-10T11:11:28.000Z</time>
      </trkpt>
      <trkpt lat="47.51136" lon="6.77775">
        <ele>332.2</ele>
        <time>2016-01-10T11:11:29.000Z</time>
      </trkpt>
      <trkpt lat="47.51139" lon="6.77775">
        <ele>332.4</ele>
        <time>2016-01-10T11:11:30.000Z</time>
      </trkpt>
      <trkpt lat="47.51142" lon="6.77775">
        <ele>332.6</ele>
        <time>2016-01-10T11:11:31.000Z</time>
      </trkpt>
      <trkpt lat="47.51145" lon="6.77775">
        <ele>332.6</ele>
        <time>2016-01-10T11:11:32.000Z</time>
      </trkpt>
      <trkpt lat="47.51149" lon="6.77774">
        <ele>332.6</ele>
        <time>2016-01-10T11:11:33.000Z</time>
      </trkpt>
      <trkpt lat="47.51152" lon="6.77774">
        <ele>333.1</ele>
        <time>2016-01-10T11:11:34.000Z</time>
      </trkpt>
      <trkpt lat="47.51155" lon="6.77774">
        <ele>333.3</ele>
        <time>2016-01-10T11:11:35.000Z</time>
      </trkpt>
      <trkpt lat="47.51158" lon="6.77774">
        <ele>333.9</ele>
        <time>2016-01-10T11:11:36.000Z</time>
      </trkpt>
      <trkpt lat="47.5116" lon="6.77774">
        <ele>334</ele>
        <time>2016-01-10T11:11:37.000Z</time>
      </trkpt>
      <trkpt lat="47.51163" lon="6.77774">
        <ele>333.8</ele>
        <time>2016-01-10T11:11:38.000Z</time>
      </trkpt>
      <trkpt lat="47.51166" lon="6.77775">
        <ele>333.7</ele>
        <time>2016-01-10T11:11:39.000Z</time>
      </trkpt>
      <trkpt lat="47.51169" lon="6.77775">
        <ele>333</ele>
        <time>2016-01-10T11:11:40.000Z</time>
      </trkpt>
      <trkpt lat="47.51171" lon="6.77775">
        <ele>333.2</ele>
        <time>2016-01-10T11:11:41.000Z</time>
      </trkpt>
      <trkpt lat="47.51174" lon="6.77775">
        <ele>333.2</ele>
        <time>2016-01-10T11:11:42.000Z</time>
      </trkpt>
      <trkpt lat="47.51176" lon="6.77776">
        <ele>333.6</ele>
        <time>2016-01-10T11:11:43.000Z</time>
      </trkpt>
      <trkpt lat="47.51179" lon="6.77776">
        <ele>333.7</ele>
        <time>2016-01-10T11:11:44.000Z</time>
      </trkpt>
      <trkpt lat="47.51182" lon="6.77777">
        <ele>333.6</ele>
        <time>2016-01-10T11:11:45.000Z</time>
      </trkpt>
      <trkpt lat="47.51185" lon="6.77778">
        <ele>334.2</ele>
        <time>2016-01-10T11:11:46.000Z</time>
      </trkpt>
      <trkpt lat="47.51188" lon="6.77778">
        <ele>334</ele>
        <time>2016-01-10T11:11:47.000Z</time>
      </trkpt>
      <trkpt lat="47.51191" lon="6.77779">
        <ele>334.5</ele>
        <time>2016-01-10T11:11:48.000Z</time>
      </trkpt>
      <trkpt lat="47.51194" lon="6.7778">
        <ele>334.7</ele>
        <time>2016-01-10T11:11:49.000Z</time>
      </trkpt>
      <trkpt lat="47.51197" lon="6.7778">
        <ele>334.8</ele>
        <time>2016-01-10T11:11:50.000Z</time>
      </trkpt>
      <trkpt lat="47.512" lon="6.7778">
        <ele>335.2</ele>
        <time>2016-01-10T11:11:51.000Z</time>
      </trkpt>
      <trkpt lat="47.51203" lon="6.7778">
        <ele>335.6</ele>
        <time>2016-01-10T11:11:52.000Z</time>
      </trkpt>
      <trkpt lat="47.51205" lon="6.7778">
        <ele>335.6</ele>
        <time>2016-01-10T11:11:53.000Z</time>
      </trkpt>
      <trkpt lat="47.51208" lon="6.7778">
        <ele>335.4</ele>
        <time>2016-01-10T11:11:54.000Z</time>
      </trkpt>
      <trkpt lat="47.51211" lon="6.77779">
        <ele>336</ele>
        <time>2016-01-10T11:11:55.000Z</time>
      </trkpt>
      <trkpt lat="47.51213" lon="6.77779">
        <ele>336.7</ele>
        <time>2016-01-10T11:11:56.000Z</time>
      </trkpt>
      <trkpt lat="47.51216" lon="6.77778">
        <ele>336.6</ele>
        <time>2016-01-10T11:11:57.000Z</time>
      </trkpt>
      <trkpt lat="47.51218" lon="6.77778">
        <ele>336.8</ele>
        <time>2016-01-10T11:11:58.000Z</time>
      </trkpt>
      <trkpt lat="47.51221" lon="6.77777">
        <ele>337.3</ele>
        <time>2016-01-10T11:11:59.000Z</time>
      </trkpt>
      <trkpt lat="47.51223" lon="6.77777">
        <ele>337.7</ele>
        <time>2016-01-10T11:12:00.000Z</time>
      </trkpt>
      <trkpt lat="47.51225" lon="6.77777">
        <ele>337.7</ele>
        <time>2016-01-10T11:12:01.000Z</time>
      </trkpt>
      <trkpt lat="47.51228" lon="6.77777">
        <ele>338.1</ele>
        <time>2016-01-10T11:12:02.000Z</time>
      </trkpt>
      <trkpt lat="47.51231" lon="6.77777">
        <ele>338.1</ele>
        <time>2016-01-10T11:12:03.000Z</time>
      </trkpt>
      <trkpt lat="47.51233" lon="6.77776">
        <ele>338.5</ele>
        <time>2016-01-10T11:12:04.000Z</time>
      </trkpt>
      <trkpt lat="47.51236" lon="6.77776">
        <ele>338.8</ele>
        <time>2016-01-10T11:12:05.000Z</time>
      </trkpt>
      <trkpt lat="47.51239" lon="6.77776">
        <ele>338.7</ele>
        <time>2016-01-10T11:12:06.000Z</time>
      </trkpt>
      <trkpt lat="47.51241" lon="6.77777">
        <ele>338.5</ele>
        <time>2016-01-10T11:12:07.000Z</time>
      </trkpt>
      <trkpt lat="47.51244" lon="6.77777">
        <ele>338.7</ele>
        <time>2016-01-10T11:12:08.000Z</time>
      </trkpt>
      <trkpt lat="47.51247" lon="6.77778">
        <ele>338.5</ele>
        <time>2016-01-10T11:12:09.000Z</time>
      </trkpt>
      <trkpt lat="47.5125" lon="6.77778">
        <ele>338.6</ele>
        <time>2016-01-10T11:12:10.000Z</time>
      </trkpt>
      <trkpt lat="47.51253" lon="6.77777">
        <ele>338.8</ele>
        <time>2016-01-10T11:12:11.000Z</time>
      </trkpt>
      <trkpt lat="47.51255" lon="6.77777">
        <ele>339.1</ele>
        <time>2016-01-10T11:12:12.000Z</time>
      </trkpt>
      <trkpt lat="47.51258" lon="6.77777">
        <ele>339.1</ele>
        <time>2016-01-10T11:12:13.000Z</time>
      </trkpt>
      <trkpt lat="47.51261" lon="6.77777">
        <ele>339.1</ele>
        <time>2016-01-10T11:12:14.000Z</time>
      </trkpt>
      <trkpt lat="47.51263" lon="6.77777">
        <ele>338.9</ele>
        <time>2016-01-10T11:12:15.000Z</time>
      </trkpt>
      <trkpt lat="47.51265" lon="6.77778">
        <ele>338.9</ele>
        <time>2016-01-10T11:12:16.000Z</time>
      </trkpt>
      <trkpt lat="47.51268" lon="6.77779">
        <ele>338.5</ele>
        <time>2016-01-10T11:12:17.000Z</time>
      </trkpt>
      <trkpt lat="47.51271" lon="6.77779">
        <ele>338.4</ele>
        <time>2016-01-10T11:12:18.000Z</time>
      </trkpt>
      <trkpt lat="47.51273" lon="6.7778">
        <ele>338.5</ele>
        <time>2016-01-10T11:12:19.000Z</time>
      </trkpt>
      <trkpt lat="47.51275" lon="6.7778">
        <ele>338.6</ele>
        <time>2016-01-10T11:12:20.000Z</time>
      </trkpt>
      <trkpt lat="47.51279" lon="6.7778">
        <ele>339</ele>
        <time>2016-01-10T11:12:22.000Z</time>
      </trkpt>
      <trkpt lat="47.51281" lon="6.77779">
        <ele>339.3</ele>
        <time>2016-01-10T11:12:23.000Z</time>
      </trkpt>
      <trkpt lat="47.51285" lon="6.77779">
        <ele>339</ele>
        <time>2016-01-10T11:12:25.000Z</time>
      </trkpt>
      <trkpt lat="47.51287" lon="6.77779">
        <ele>339.1</ele>
        <time>2016-01-10T11:12:26.000Z</time>
      </trkpt>
      <trkpt lat="47.51291" lon="6.77779">
        <ele>340</ele>
        <time>2016-01-10T11:12:28.000Z</time>
      </trkpt>
      <trkpt lat="47.51293" lon="6.77779">
        <ele>340</ele>
        <time>2016-01-10T11:12:29.000Z</time>
      </trkpt>
      <trkpt lat="47.51296" lon="6.77778">
        <ele>339.8</ele>
        <time>2016-01-10T11:12:30.000Z</time>
      </trkpt>
      <trkpt lat="47.51298" lon="6.77778">
        <ele>340.2</ele>
        <time>2016-01-10T11:12:31.000Z</time>
      </trkpt>
      <trkpt lat="47.513" lon="6.77777">
        <ele>340.6</ele>
        <time>2016-01-10T11:12:32.000Z</time>
      </trkpt>
      <trkpt lat="47.51303" lon="6.77777">
        <ele>340.8</ele>
        <time>2016-01-10T11:12:33.000Z</time>
      </trkpt>
      <trkpt lat="47.51305" lon="6.77777">
        <ele>340.9</ele>
        <time>2016-01-10T11:12:34.000Z</time>
      </trkpt>
      <trkpt lat="47.51307" lon="6.77776">
        <ele>341.2</ele>
        <time>2016-01-10T11:12:35.000Z</time>
      </trkpt>
      <trkpt lat="47.51309" lon="6.77776">
        <ele>341.3</ele>
        <time>2016-01-10T11:12:36.000Z</time>
      </trkpt>
      <trkpt lat="47.51312" lon="6.77775">
        <ele>341.5</ele>
        <time>2016-01-10T11:12:37.000Z</time>
      </trkpt>
      <trkpt lat="47.51316" lon="6.77773">
        <ele>341.9</ele>
        <time>2016-01-10T11:12:39.000Z</time>
      </trkpt>
      <trkpt lat="47.51318" lon="6.77772">
        <ele>342.2</ele>
        <time>2016-01-10T11:12:40.000Z</time>
      </trkpt>
      <trkpt lat="47.51322" lon="6.77773">
        <ele>342.7</ele>
        <time>2016-01-10T11:12:42.000Z</time>
      </trkpt>
      <trkpt lat="47.51324" lon="6.77773">
        <ele>342.8</ele>
        <time>2016-01-10T11:12:43.000Z</time>
      </trkpt>
      <trkpt lat="47.51328" lon="6.77775">
        <ele>343.1</ele>
        <time>2016-01-10T11:12:45.000Z</time>
      </trkpt>
      <trkpt lat="47.5133" lon="6.77775">
        <ele>343.5</ele>
        <time>2016-01-10T11:12:46.000Z</time>
      </trkpt>
      <trkpt lat="47.51333" lon="6.77777">
        <ele>342</ele>
        <time>2016-01-10T11:12:48.000Z</time>
      </trkpt>
      <trkpt lat="47.51335" lon="6.77778">
        <ele>342.8</ele>
        <time>2016-01-10T11:12:49.000Z</time>
      </trkpt>
      <trkpt lat="47.51339" lon="6.77779">
        <ele>343</ele>
        <time>2016-01-10T11:12:51.000Z</time>
      </trkpt>
      <trkpt lat="47.51341" lon="6.77779">
        <ele>343.5</ele>
        <time>2016-01-10T11:12:52.000Z</time>
      </trkpt>
      <trkpt lat="47.51345" lon="6.77779">
        <ele>343.7</ele>
        <time>2016-01-10T11:12:54.000Z</time>
      </trkpt>
      <trkpt lat="47.51346" lon="6.77778">
        <ele>343.8</ele>
        <time>2016-01-10T11:12:55.000Z</time>
      </trkpt>
      <trkpt lat="47.5135" lon="6.77776">
        <ele>344.7</ele>
        <time>2016-01-10T11:12:57.000Z</time>
      </trkpt>
      <trkpt lat="47.51352" lon="6.77774">
        <ele>344.9</ele>
        <time>2016-01-10T11:12:58.000Z</time>
      </trkpt>
      <trkpt lat="47.51355" lon="6.77771">
        <ele>345.3</ele>
        <time>2016-01-10T11:13:00.000Z</time>
      </trkpt>
      <trkpt lat="47.51356" lon="6.7777">
        <ele>345.5</ele>
        <time>2016-01-10T11:13:01.000Z</time>
      </trkpt>
      <trkpt lat="47.5136" lon="6.77767">
        <ele>346</ele>
        <time>2016-01-10T11:13:03.000Z</time>
      </trkpt>
      <trkpt lat="47.51362" lon="6.77767">
        <ele>346.4</ele>
        <time>2016-01-10T11:13:04.000Z</time>
      </trkpt>
      <trkpt lat="47.51365" lon="6.77765">
        <ele>346.4</ele>
        <time>2016-01-10T11:13:06.000Z</time>
      </trkpt>
      <trkpt lat="47.51366" lon="6.77764">
        <ele>347</ele>
        <time>2016-01-10T11:13:07.000Z</time>
      </trkpt>
      <trkpt lat="47.5137" lon="6.77761">
        <ele>348.8</ele>
        <time>2016-01-10T11:13:09.000Z</time>
      </trkpt>
      <trkpt lat="47.51371" lon="6.77758">
        <ele>349.2</ele>
        <time>2016-01-10T11:13:10.000Z</time>
      </trkpt>
      <trkpt lat="47.51374" lon="6.77756">
        <ele>347.4</ele>
        <time>2016-01-10T11:13:12.000Z</time>
      </trkpt>
      <trkpt lat="47.51376" lon="6.77756">
        <ele>347.6</ele>
        <time>2016-01-10T11:13:13.000Z</time>
      </trkpt>
      <trkpt lat="47.5138" lon="6.77755">
        <ele>347.1</ele>
        <time>2016-01-10T11:13:15.000Z</time>
      </trkpt>
      <trkpt lat="47.51382" lon="6.77755">
        <ele>347.1</ele>
        <time>2016-01-10T11:13:16.000Z</time>
      </trkpt>
      <trkpt lat="47.51386" lon="6.77755">
        <ele>348.8</ele>
        <time>2016-01-10T11:13:18.000Z</time>
      </trkpt>
      <trkpt lat="47.51387" lon="6.77754">
        <ele>348.7</ele>
        <time>2016-01-10T11:13:19.000Z</time>
      </trkpt>
      <trkpt lat="47.51391" lon="6.77752">
        <ele>350</ele>
        <time>2016-01-10T11:13:21.000Z</time>
      </trkpt>
      <trkpt lat="47.51392" lon="6.77751">
        <ele>350.1</ele>
        <time>2016-01-10T11:13:22.000Z</time>
      </trkpt>
      <trkpt lat="47.51396" lon="6.7775">
        <ele>350</ele>
        <time>2016-01-10T11:13:24.000Z</time>
      </trkpt>
      <trkpt lat="47.51398" lon="6.77749">
        <ele>350.1</ele>
        <time>2016-01-10T11:13:25.000Z</time>
      </trkpt>
      <trkpt lat="47.51401" lon="6.77747">
        <ele>349.4</ele>
        <time>2016-01-10T11:13:27.000Z</time>
      </trkpt>
      <trkpt lat="47.51403" lon="6.77745">
        <ele>348.9</ele>
        <time>2016-01-10T11:13:28.000Z</time>
      </trkpt>
      <trkpt lat="47.51406" lon="6.77744">
        <ele>348.7</ele>
        <time>2016-01-10T11:13:29.000Z</time>
      </trkpt>
      <trkpt lat="47.51408" lon="6.77742">
        <ele>348.4</ele>
        <time>2016-01-10T11:13:30.000Z</time>
      </trkpt>
      <trkpt lat="47.5141" lon="6.77741">
        <ele>347.4</ele>
        <time>2016-01-10T11:13:31.000Z</time>
      </trkpt>
      <trkpt lat="47.51412" lon="6.77739">
        <ele>346.9</ele>
        <time>2016-01-10T11:13:32.000Z</time>
      </trkpt>
      <trkpt lat="47.51415" lon="6.77738">
        <ele>347.4</ele>
        <time>2016-01-10T11:13:34.000Z</time>
      </trkpt>
      <trkpt lat="47.51417" lon="6.77737">
        <ele>348.5</ele>
        <time>2016-01-10T11:13:35.000Z</time>
      </trkpt>
      <trkpt lat="47.51421" lon="6.77736">
        <ele>348.4</ele>
        <time>2016-01-10T11:13:38.000Z</time>
      </trkpt>
      <trkpt lat="47.51422" lon="6.77735">
        <ele>349.2</ele>
        <time>2016-01-10T11:13:39.000Z</time>
      </trkpt>
      <trkpt lat="47.51426" lon="6.77733">
        <ele>347.1</ele>
        <time>2016-01-10T11:13:42.000Z</time>
      </trkpt>
      <trkpt lat="47.51428" lon="6.77733">
        <ele>346.9</ele>
        <time>2016-01-10T11:13:43.000Z</time>
      </trkpt>
      <trkpt lat="47.51431" lon="6.77733">
        <ele>347.5</ele>
        <time>2016-01-10T11:13:45.000Z</time>
      </trkpt>
      <trkpt lat="47.51432" lon="6.77732">
        <ele>349.4</ele>
        <time>2016-01-10T11:13:46.000Z</time>
      </trkpt>
      <trkpt lat="47.51436" lon="6.7773">
        <ele>352.1</ele>
        <time>2016-01-10T11:13:49.000Z</time>
      </trkpt>
      <trkpt lat="47.51438" lon="6.7773">
        <ele>352.8</ele>
        <time>2016-01-10T11:13:50.000Z</time>
      </trkpt>
      <trkpt lat="47.51442" lon="6.77729">
        <ele>357.2</ele>
        <time>2016-01-10T11:13:54.000Z</time>
      </trkpt>
      <trkpt lat="47.51443" lon="6.77729">
        <ele>357.1</ele>
        <time>2016-01-10T11:13:55.000Z</time>
      </trkpt>
      <trkpt lat="47.51447" lon="6.77728">
        <ele>356.7</ele>
        <time>2016-01-10T11:13:57.000Z</time>
      </trkpt>
      <trkpt lat="47.51449" lon="6.77727">
        <ele>357.7</ele>
        <time>2016-01-10T11:13:58.000Z</time>
      </trkpt>
      <trkpt lat="47.51453" lon="6.77726">
        <ele>358.4</ele>
        <time>2016-01-10T11:14:00.000Z</time>
      </trkpt>
      <trkpt lat="47.51455" lon="6.77726">
        <ele>358.1</ele>
        <time>2016-01-10T11:14:01.000Z</time>
      </trkpt>
      <trkpt lat="47.51459" lon="6.77724">
        <ele>361.6</ele>
        <time>2016-01-10T11:14:04.000Z</time>
      </trkpt>
      <trkpt lat="47.5146" lon="6.77724">
        <ele>361.9</ele>
        <time>2016-01-10T11:14:05.000Z</time>
      </trkpt>
      <trkpt lat="47.51463" lon="6.77724">
        <ele>363</ele>
        <time>2016-01-10T11:14:07.000Z</time>
      </trkpt>
      <trkpt lat="47.51465" lon="6.77724">
        <ele>363.2</ele>
        <time>2016-01-10T11:14:08.000Z</time>
      </trkpt>
      <trkpt lat="47.51469" lon="6.77724">
        <ele>364</ele>
        <time>2016-01-10T11:14:10.000Z</time>
      </trkpt>
      <trkpt lat="47.51471" lon="6.77724">
        <ele>364.3</ele>
        <time>2016-01-10T11:14:11.000Z</time>
      </trkpt>
      <trkpt lat="47.51475" lon="6.77724">
        <ele>365.2</ele>
        <time>2016-01-10T11:14:13.000Z</time>
      </trkpt>
      <trkpt lat="47.51476" lon="6.77724">
        <ele>366.1</ele>
        <time>2016-01-10T11:14:14.000Z</time>
      </trkpt>
      <trkpt lat="47.51479" lon="6.77723">
        <ele>367.5</ele>
        <time>2016-01-10T11:14:16.000Z</time>
      </trkpt>
      <trkpt lat="47.51481" lon="6.77722">
        <ele>368.3</ele>
        <time>2016-01-10T11:14:17.000Z</time>
      </trkpt>
      <trkpt lat="47.51484" lon="6.77721">
        <ele>369.8</ele>
        <time>2016-01-10T11:14:19.000Z</time>
      </trkpt>
      <trkpt lat="47.51485" lon="6.7772">
        <ele>369.3</ele>
        <time>2016-01-10T11:14:20.000Z</time>
      </trkpt>
      <trkpt lat="47.51489" lon="6.7772">
        <ele>369.2</ele>
        <time>2016-01-10T11:14:23.000Z</time>
      </trkpt>
      <trkpt lat="47.51491" lon="6.7772">
        <ele>368.3</ele>
        <time>2016-01-10T11:14:24.000Z</time>
      </trkpt>
      <trkpt lat="47.51495" lon="6.77719">
        <ele>367.7</ele>
        <time>2016-01-10T11:14:27.000Z</time>
      </trkpt>
      <trkpt lat="47.51496" lon="6.77719">
        <ele>369.1</ele>
        <time>2016-01-10T11:14:28.000Z</time>
      </trkpt>
      <trkpt lat="47.515" lon="6.77719">
        <ele>368.6</ele>
        <time>2016-01-10T11:14:31.000Z</time>
      </trkpt>
      <trkpt lat="47.51502" lon="6.77719">
        <ele>370</ele>
        <time>2016-01-10T11:14:32.000Z</time>
      </trkpt>
      <trkpt lat="47.51505" lon="6.77719">
        <ele>369.3</ele>
        <time>2016-01-10T11:14:34.000Z</time>
      </trkpt>
      <trkpt lat="47.51507" lon="6.77718">
        <ele>369.2</ele>
        <time>2016-01-10T11:14:35.000Z</time>
      </trkpt>
      <trkpt lat="47.51511" lon="6.77718">
        <ele>369.9</ele>
        <time>2016-01-10T11:14:37.000Z</time>
      </trkpt>
      <trkpt lat="47.51513" lon="6.77718">
        <ele>370.9</ele>
        <time>2016-01-10T11:14:38.000Z</time>
      </trkpt>
      <trkpt lat="47.51516" lon="6.77717">
        <ele>372</ele>
        <time>2016-01-10T11:14:40.000Z</time>
      </trkpt>
      <trkpt lat="47.51517" lon="6.77716">
        <ele>372.8</ele>
        <time>2016-01-10T11:14:41.000Z</time>
      </trkpt>
      <trkpt lat="47.51521" lon="6.77715">
        <ele>372.2</ele>
        <time>2016-01-10T11:14:43.000Z</time>
      </trkpt>
      <trkpt lat="47.51523" lon="6.77715">
        <ele>371.8</ele>
        <time>2016-01-10T11:14:44.000Z</time>
      </trkpt>
      <trkpt lat="47.51527" lon="6.77716">
        <ele>370.4</ele>
        <time>2016-01-10T11:14:46.000Z</time>
      </trkpt>
      <trkpt lat="47.5153" lon="6.77716">
        <ele>369.9</ele>
        <time>2016-01-10T11:14:47.000Z</time>
      </trkpt>
      <trkpt lat="47.51532" lon="6.77716">
        <ele>369.7</ele>
        <time>2016-01-10T11:14:48.000Z</time>
      </trkpt>
      <trkpt lat="47.51535" lon="6.77717">
        <ele>369.2</ele>
        <time>2016-01-10T11:14:49.000Z</time>
      </trkpt>
      <trkpt lat="47.51539" lon="6.77718">
        <ele>370.4</ele>
        <time>2016-01-10T11:14:51.000Z</time>
      </trkpt>
      <trkpt lat="47.51541" lon="6.77718">
        <ele>370.3</ele>
        <time>2016-01-10T11:14:52.000Z</time>
      </trkpt>
      <trkpt lat="47.51544" lon="6.77718">
        <ele>374.1</ele>
        <time>2016-01-10T11:14:54.000Z</time>
      </trkpt>
      <trkpt lat="47.51546" lon="6.77719">
        <ele>374.7</ele>
        <time>2016-01-10T11:14:55.000Z</time>
      </trkpt>
      <trkpt lat="47.51549" lon="6.7772">
        <ele>374.4</ele>
        <time>2016-01-10T11:14:57.000Z</time>
      </trkpt>
      <trkpt lat="47.5155" lon="6.77721">
        <ele>374.1</ele>
        <time>2016-01-10T11:14:58.000Z</time>
      </trkpt>
      <trkpt lat="47.51554" lon="6.77721">
        <ele>374.2</ele>
        <time>2016-01-10T11:15:00.000Z</time>
      </trkpt>
      <trkpt lat="47.51557" lon="6.77721">
        <ele>374.4</ele>
        <time>2016-01-10T11:15:01.000Z</time>
      </trkpt>
      <trkpt lat="47.51561" lon="6.77721">
        <ele>373.7</ele>
        <time>2016-01-10T11:15:03.000Z</time>
      </trkpt>
      <trkpt lat="47.51563" lon="6.77721">
        <ele>373.2</ele>
        <time>2016-01-10T11:15:04.000Z</time>
      </trkpt>
      <trkpt lat="47.51567" lon="6.77721">
        <ele>372.6</ele>
        <time>2016-01-10T11:15:06.000Z</time>
      </trkpt>
      <trkpt lat="47.51569" lon="6.77722">
        <ele>372.5</ele>
        <time>2016-01-10T11:15:07.000Z</time>
      </trkpt>
      <trkpt lat="47.51573" lon="6.77724">
        <ele>373.3</ele>
        <time>2016-01-10T11:15:09.000Z</time>
      </trkpt>
      <trkpt lat="47.51575" lon="6.77725">
        <ele>374.1</ele>
        <time>2016-01-10T11:15:10.000Z</time>
      </trkpt>
      <trkpt lat="47.51579" lon="6.77728">
        <ele>374.1</ele>
        <time>2016-01-10T11:15:12.000Z</time>
      </trkpt>
      <trkpt lat="47.5158" lon="6.7773">
        <ele>374.9</ele>
        <time>2016-01-10T11:15:13.000Z</time>
      </trkpt>
      <trkpt lat="47.51582" lon="6.77732">
        <ele>374.5</ele>
        <time>2016-01-10T11:15:14.000Z</time>
      </trkpt>
      <trkpt lat="47.51584" lon="6.77735">
        <ele>375</ele>
        <time>2016-01-10T11:15:15.000Z</time>
      </trkpt>
      <trkpt lat="47.51586" lon="6.77738">
        <ele>376.2</ele>
        <time>2016-01-10T11:15:16.000Z</time>
      </trkpt>
      <trkpt lat="47.51588" lon="6.7774">
        <ele>378.1</ele>
        <time>2016-01-10T11:15:17.000Z</time>
      </trkpt>
      <trkpt lat="47.5159" lon="6.77742">
        <ele>378.9</ele>
        <time>2016-01-10T11:15:18.000Z</time>
      </trkpt>
      <trkpt lat="47.51592" lon="6.77744">
        <ele>379.1</ele>
        <time>2016-01-10T11:15:19.000Z</time>
      </trkpt>
      <trkpt lat="47.51594" lon="6.77745">
        <ele>379.8</ele>
        <time>2016-01-10T11:15:20.000Z</time>
      </trkpt>
      <trkpt lat="47.51596" lon="6.77746">
        <ele>379.7</ele>
        <time>2016-01-10T11:15:21.000Z</time>
      </trkpt>
      <trkpt lat="47.516" lon="6.77748">
        <ele>378</ele>
        <time>2016-01-10T11:15:23.000Z</time>
      </trkpt>
      <trkpt lat="47.51602" lon="6.77749">
        <ele>378.3</ele>
        <time>2016-01-10T11:15:24.000Z</time>
      </trkpt>
      <trkpt lat="47.51606" lon="6.77748">
        <ele>381.5</ele>
        <time>2016-01-10T11:15:27.000Z</time>
      </trkpt>
      <trkpt lat="47.51607" lon="6.77746">
        <ele>380.5</ele>
        <time>2016-01-10T11:15:28.000Z</time>
      </trkpt>
      <trkpt lat="47.5161" lon="6.77744">
        <ele>380.3</ele>
        <time>2016-01-10T11:15:30.000Z</time>
      </trkpt>
      <trkpt lat="47.51612" lon="6.77743">
        <ele>379.8</ele>
        <time>2016-01-10T11:15:31.000Z</time>
      </trkpt>
      <trkpt lat="47.51616" lon="6.77744">
        <ele>379.6</ele>
        <time>2016-01-10T11:15:33.000Z</time>
      </trkpt>
      <trkpt lat="47.51617" lon="6.77745">
        <ele>379.3</ele>
        <time>2016-01-10T11:15:34.000Z</time>
      </trkpt>
      <trkpt lat="47.51621" lon="6.77746">
        <ele>379.1</ele>
        <time>2016-01-10T11:15:36.000Z</time>
      </trkpt>
      <trkpt lat="47.51622" lon="6.77746">
        <ele>379.5</ele>
        <time>2016-01-10T11:15:37.000Z</time>
      </trkpt>
      <trkpt lat="47.51626" lon="6.77746">
        <ele>379.1</ele>
        <time>2016-01-10T11:15:39.000Z</time>
      </trkpt>
      <trkpt lat="47.51627" lon="6.77746">
        <ele>379</ele>
        <time>2016-01-10T11:15:40.000Z</time>
      </trkpt>
      <trkpt lat="47.51631" lon="6.77748">
        <ele>380.6</ele>
        <time>2016-01-10T11:15:42.000Z</time>
      </trkpt>
      <trkpt lat="47.51633" lon="6.77748">
        <ele>380.1</ele>
        <time>2016-01-10T11:15:43.000Z</time>
      </trkpt>
      <trkpt lat="47.51637" lon="6.77748">
        <ele>385</ele>
        <time>2016-01-10T11:15:46.000Z</time>
      </trkpt>
      <trkpt lat="47.51639" lon="6.77748">
        <ele>385.5</ele>
        <time>2016-01-10T11:15:47.000Z</time>
      </trkpt>
      <trkpt lat="47.51642" lon="6.77747">
        <ele>385.2</ele>
        <time>2016-01-10T11:15:49.000Z</time>
      </trkpt>
      <trkpt lat="47.51644" lon="6.77746">
        <ele>384.9</ele>
        <time>2016-01-10T11:15:50.000Z</time>
      </trkpt>
      <trkpt lat="47.51647" lon="6.77744">
        <ele>385.2</ele>
        <time>2016-01-10T11:15:51.000Z</time>
      </trkpt>
      <trkpt lat="47.51649" lon="6.77741">
        <ele>385</ele>
        <time>2016-01-10T11:15:52.000Z</time>
      </trkpt>
      <trkpt lat="47.51652" lon="6.7774">
        <ele>385.7</ele>
        <time>2016-01-10T11:15:53.000Z</time>
      </trkpt>
      <trkpt lat="47.51654" lon="6.77739">
        <ele>385.6</ele>
        <time>2016-01-10T11:15:54.000Z</time>
      </trkpt>
      <trkpt lat="47.51657" lon="6.77741">
        <ele>385.4</ele>
        <time>2016-01-10T11:15:56.000Z</time>
      </trkpt>
      <trkpt lat="47.51659" lon="6.77742">
        <ele>387.5</ele>
        <time>2016-01-10T11:15:57.000Z</time>
      </trkpt>
      <trkpt lat="47.51663" lon="6.77743">
        <ele>378.6</ele>
        <time>2016-01-10T11:15:59.000Z</time>
      </trkpt>
      <trkpt lat="47.51664" lon="6.77744">
        <ele>377.9</ele>
        <time>2016-01-10T11:16:00.000Z</time>
      </trkpt>
      <trkpt lat="47.51667" lon="6.77745">
        <ele>378.1</ele>
        <time>2016-01-10T11:16:02.000Z</time>
      </trkpt>
      <trkpt lat="47.51669" lon="6.77745">
        <ele>376.5</ele>
        <time>2016-01-10T11:16:03.000Z</time>
      </trkpt>
      <trkpt lat="47.51673" lon="6.77746">
        <ele>375.9</ele>
        <time>2016-01-10T11:16:05.000Z</time>
      </trkpt>
      <trkpt lat="47.51674" lon="6.77747">
        <ele>375.8</ele>
        <time>2016-01-10T11:16:06.000Z</time>
      </trkpt>
      <trkpt lat="47.51678" lon="6.77748">
        <ele>376.8</ele>
        <time>2016-01-10T11:16:08.000Z</time>
      </trkpt>
      <trkpt lat="47.5168" lon="6.77749">
        <ele>377.8</ele>
        <time>2016-01-10T11:16:09.000Z</time>
      </trkpt>
      <trkpt lat="47.51683" lon="6.77749">
        <ele>378.4</ele>
        <time>2016-01-10T11:16:11.000Z</time>
      </trkpt>
      <trkpt lat="47.51685" lon="6.77748">
        <ele>378.7</ele>
        <time>2016-01-10T11:16:12.000Z</time>
      </trkpt>
      <trkpt lat="47.51688" lon="6.77746">
        <ele>379.1</ele>
        <time>2016-01-10T11:16:14.000Z</time>
      </trkpt>
      <trkpt lat="47.5169" lon="6.77743">
        <ele>380</ele>
        <time>2016-01-10T11:16:15.000Z</time>
      </trkpt>
      <trkpt lat="47.51692" lon="6.77739">
        <ele>379.6</ele>
        <time>2016-01-10T11:16:17.000Z</time>
      </trkpt>
      <trkpt lat="47.51693" lon="6.77736">
        <ele>379.8</ele>
        <time>2016-01-10T11:16:18.000Z</time>
      </trkpt>
      <trkpt lat="47.51695" lon="6.77732">
        <ele>380.2</ele>
        <time>2016-01-10T11:16:20.000Z</time>
      </trkpt>
      <trkpt lat="47.51696" lon="6.7773">
        <ele>380.9</ele>
        <time>2016-01-10T11:16:21.000Z</time>
      </trkpt>
      <trkpt lat="47.51699" lon="6.77726">
        <ele>383.7</ele>
        <time>2016-01-10T11:16:24.000Z</time>
      </trkpt>
      <trkpt lat="47.517" lon="6.77724">
        <ele>386</ele>
        <time>2016-01-10T11:16:25.000Z</time>
      </trkpt>
      <trkpt lat="47.51701" lon="6.77721">
        <ele>386.4</ele>
        <time>2016-01-10T11:16:26.000Z</time>
      </trkpt>
      <trkpt lat="47.51702" lon="6.77717">
        <ele>387.3</ele>
        <time>2016-01-10T11:16:27.000Z</time>
      </trkpt>
      <trkpt lat="47.51703" lon="6.77711">
        <ele>388.7</ele>
        <time>2016-01-10T11:16:29.000Z</time>
      </trkpt>
      <trkpt lat="47.51703" lon="6.77708">
        <ele>389.3</ele>
        <time>2016-01-10T11:16:30.000Z</time>
      </trkpt>
      <trkpt lat="47.51702" lon="6.77702">
        <ele>389.7</ele>
        <time>2016-01-10T11:16:32.000Z</time>
      </trkpt>
      <trkpt lat="47.51701" lon="6.77699">
        <ele>390.5</ele>
        <time>2016-01-10T11:16:33.000Z</time>
      </trkpt>
      <trkpt lat="47.517" lon="6.77693">
        <ele>392</ele>
        <time>2016-01-10T11:16:35.000Z</time>
      </trkpt>
      <trkpt lat="47.517" lon="6.7769">
        <ele>391.7</ele>
        <time>2016-01-10T11:16:36.000Z</time>
      </trkpt>
      <trkpt lat="47.51701" lon="6.77687">
        <ele>391.2</ele>
        <time>2016-01-10T11:16:37.000Z</time>
      </trkpt>
      <trkpt lat="47.51701" lon="6.77684">
        <ele>391.6</ele>
        <time>2016-01-10T11:16:38.000Z</time>
      </trkpt>
      <trkpt lat="47.51702" lon="6.7768">
        <ele>391.2</ele>
        <time>2016-01-10T11:16:39.000Z</time>
      </trkpt>
      <trkpt lat="47.51703" lon="6.77677">
        <ele>391.3</ele>
        <time>2016-01-10T11:16:40.000Z</time>
      </trkpt>
      <trkpt lat="47.51703" lon="6.77674">
        <ele>391.4</ele>
        <time>2016-01-10T11:16:41.000Z</time>
      </trkpt>
      <trkpt lat="47.51703" lon="6.7767">
        <ele>391.5</ele>
        <time>2016-01-10T11:16:42.000Z</time>
      </trkpt>
      <trkpt lat="47.51704" lon="6.77667">
        <ele>391.8</ele>
        <time>2016-01-10T11:16:43.000Z</time>
      </trkpt>
      <trkpt lat="47.51704" lon="6.77663">
        <ele>391.6</ele>
        <time>2016-01-10T11:16:44.000Z</time>
      </trkpt>
      <trkpt lat="47.51705" lon="6.77659">
        <ele>391.8</ele>
        <time>2016-01-10T11:16:45.000Z</time>
      </trkpt>
      <trkpt lat="47.51706" lon="6.77655">
        <ele>391.9</ele>
        <time>2016-01-10T11:16:46.000Z</time>
      </trkpt>
      <trkpt lat="47.51706" lon="6.77652">
        <ele>392.2</ele>
        <time>2016-01-10T11:16:47.000Z</time>
      </trkpt>
      <trkpt lat="47.51707" lon="6.77648">
        <ele>392.5</ele>
        <time>2016-01-10T11:16:48.000Z</time>
      </trkpt>
      <trkpt lat="47.51707" lon="6.77645">
        <ele>393</ele>
        <time>2016-01-10T11:16:49.000Z</time>
      </trkpt>
      <trkpt lat="47.51707" lon="6.77641">
        <ele>393.1</ele>
        <time>2016-01-10T11:16:50.000Z</time>
      </trkpt>
      <trkpt lat="47.51708" lon="6.77638">
        <ele>393.3</ele>
        <time>2016-01-10T11:16:51.000Z</time>
      </trkpt>
      <trkpt lat="47.51708" lon="6.77635">
        <ele>393.5</ele>
        <time>2016-01-10T11:16:52.000Z</time>
      </trkpt>
      <trkpt lat="47.51708" lon="6.77628">
        <ele>394</ele>
        <time>2016-01-10T11:16:54.000Z</time>
      </trkpt>
      <trkpt lat="47.51708" lon="6.77625">
        <ele>394.8</ele>
        <time>2016-01-10T11:16:55.000Z</time>
      </trkpt>
      <trkpt lat="47.51708" lon="6.77621">
        <ele>395</ele>
        <time>2016-01-10T11:16:56.000Z</time>
      </trkpt>
      <trkpt lat="47.51708" lon="6.77618">
        <ele>395.8</ele>
        <time>2016-01-10T11:16:57.000Z</time>
      </trkpt>
      <trkpt lat="47.51707" lon="6.77612">
        <ele>396.3</ele>
        <time>2016-01-10T11:16:59.000Z</time>
      </trkpt>
      <trkpt lat="47.51707" lon="6.77608">
        <ele>396.6</ele>
        <time>2016-01-10T11:17:00.000Z</time>
      </trkpt>
      <trkpt lat="47.51707" lon="6.77602">
        <ele>397.1</ele>
        <time>2016-01-10T11:17:02.000Z</time>
      </trkpt>
      <trkpt lat="47.51708" lon="6.77599">
        <ele>396.6</ele>
        <time>2016-01-10T11:17:03.000Z</time>
      </trkpt>
      <trkpt lat="47.51708" lon="6.77596">
        <ele>396.9</ele>
        <time>2016-01-10T11:17:04.000Z</time>
      </trkpt>
      <trkpt lat="47.5171" lon="6.77592">
        <ele>397.2</ele>
        <time>2016-01-10T11:17:05.000Z</time>
      </trkpt>
      <trkpt lat="47.51711" lon="6.7759">
        <ele>397.2</ele>
        <time>2016-01-10T11:17:06.000Z</time>
      </trkpt>
      <trkpt lat="47.51713" lon="6.77587">
        <ele>397.4</ele>
        <time>2016-01-10T11:17:07.000Z</time>
      </trkpt>
      <trkpt lat="47.51716" lon="6.77585">
        <ele>397.4</ele>
        <time>2016-01-10T11:17:09.000Z</time>
      </trkpt>
      <trkpt lat="47.51718" lon="6.77583">
        <ele>396.9</ele>
        <time>2016-01-10T11:17:10.000Z</time>
      </trkpt>
      <trkpt lat="47.5172" lon="6.77578">
        <ele>396.4</ele>
        <time>2016-01-10T11:17:12.000Z</time>
      </trkpt>
      <trkpt lat="47.51719" lon="6.77574">
        <ele>396.6</ele>
        <time>2016-01-10T11:17:13.000Z</time>
      </trkpt>
      <trkpt lat="47.51718" lon="6.7757">
        <ele>397</ele>
        <time>2016-01-10T11:17:14.000Z</time>
      </trkpt>
      <trkpt lat="47.51717" lon="6.77566">
        <ele>397</ele>
        <time>2016-01-10T11:17:15.000Z</time>
      </trkpt>
      <trkpt lat="47.51716" lon="6.7756">
        <ele>396.9</ele>
        <time>2016-01-10T11:17:16.000Z</time>
      </trkpt>
      <trkpt lat="47.51716" lon="6.77554">
        <ele>396.9</ele>
        <time>2016-01-10T11:17:17.000Z</time>
      </trkpt>
      <trkpt lat="47.51717" lon="6.77549">
        <ele>397</ele>
        <time>2016-01-10T11:17:18.000Z</time>
      </trkpt>
      <trkpt lat="47.51718" lon="6.77543">
        <ele>396.9</ele>
        <time>2016-01-10T11:17:19.000Z</time>
      </trkpt>
      <trkpt lat="47.51719" lon="6.77537">
        <ele>396.8</ele>
        <time>2016-01-10T11:17:20.000Z</time>
      </trkpt>
      <trkpt lat="47.5172" lon="6.77532">
        <ele>396.8</ele>
        <time>2016-01-10T11:17:21.000Z</time>
      </trkpt>
      <trkpt lat="47.51722" lon="6.77527">
        <ele>396.7</ele>
        <time>2016-01-10T11:17:22.000Z</time>
      </trkpt>
      <trkpt lat="47.51723" lon="6.77521">
        <ele>396.5</ele>
        <time>2016-01-10T11:17:23.000Z</time>
      </trkpt>
      <trkpt lat="47.51724" lon="6.77515">
        <ele>396.5</ele>
        <time>2016-01-10T11:17:24.000Z</time>
      </trkpt>
      <trkpt lat="47.51726" lon="6.77506">
        <ele>396.1</ele>
        <time>2016-01-10T11:17:25.000Z</time>
      </trkpt>
      <trkpt lat="47.51728" lon="6.77499">
        <ele>395.9</ele>
        <time>2016-01-10T11:17:26.000Z</time>
      </trkpt>
      <trkpt lat="47.51729" lon="6.77492">
        <ele>395.7</ele>
        <time>2016-01-10T11:17:27.000Z</time>
      </trkpt>
      <trkpt lat="47.5173" lon="6.77486">
        <ele>395.5</ele>
        <time>2016-01-10T11:17:28.000Z</time>
      </trkpt>
      <trkpt lat="47.51734" lon="6.77481">
        <ele>395.5</ele>
        <time>2016-01-10T11:17:29.000Z</time>
      </trkpt>
      <trkpt lat="47.51738" lon="6.77481">
        <ele>395.8</ele>
        <time>2016-01-10T11:17:30.000Z</time>
      </trkpt>
      <trkpt lat="47.51742" lon="6.77481">
        <ele>396.1</ele>
        <time>2016-01-10T11:17:31.000Z</time>
      </trkpt>
      <trkpt lat="47.51746" lon="6.77481">
        <ele>396.5</ele>
        <time>2016-01-10T11:17:32.000Z</time>
      </trkpt>
      <trkpt lat="47.51751" lon="6.77482">
        <ele>396.1</ele>
        <time>2016-01-10T11:17:33.000Z</time>
      </trkpt>
      <trkpt lat="47.51755" lon="6.77482">
        <ele>396.2</ele>
        <time>2016-01-10T11:17:34.000Z</time>
      </trkpt>
      <trkpt lat="47.51759" lon="6.77482">
        <ele>396.3</ele>
        <time>2016-01-10T11:17:35.000Z</time>
      </trkpt>
      <trkpt lat="47.51762" lon="6.77483">
        <ele>396.2</ele>
        <time>2016-01-10T11:17:36.000Z</time>
      </trkpt>
      <trkpt lat="47.51766" lon="6.77484">
        <ele>396.2</ele>
        <time>2016-01-10T11:17:37.000Z</time>
      </trkpt>
      <trkpt lat="47.5177" lon="6.77485">
        <ele>396.1</ele>
        <time>2016-01-10T11:17:38.000Z</time>
      </trkpt>
      <trkpt lat="47.51774" lon="6.77486">
        <ele>395.9</ele>
        <time>2016-01-10T11:17:39.000Z</time>
      </trkpt>
      <trkpt lat="47.51778" lon="6.77487">
        <ele>395.7</ele>
        <time>2016-01-10T11:17:40.000Z</time>
      </trkpt>
      <trkpt lat="47.51782" lon="6.77488">
        <ele>395.5</ele>
        <time>2016-01-10T11:17:41.000Z</time>
      </trkpt>
      <trkpt lat="47.51786" lon="6.77489">
        <ele>395.1</ele>
        <time>2016-01-10T11:17:42.000Z</time>
      </trkpt>
      <trkpt lat="47.5179" lon="6.7749">
        <ele>394.6</ele>
        <time>2016-01-10T11:17:43.000Z</time>
      </trkpt>
      <trkpt lat="47.51794" lon="6.77491">
        <ele>394.3</ele>
        <time>2016-01-10T11:17:44.000Z</time>
      </trkpt>
      <trkpt lat="47.51798" lon="6.77493">
        <ele>393.6</ele>
        <time>2016-01-10T11:17:45.000Z</time>
      </trkpt>
      <trkpt lat="47.51802" lon="6.77495">
        <ele>393.4</ele>
        <time>2016-01-10T11:17:46.000Z</time>
      </trkpt>
      <trkpt lat="47.51805" lon="6.77496">
        <ele>393.4</ele>
        <time>2016-01-10T11:17:47.000Z</time>
      </trkpt>
      <trkpt lat="47.51809" lon="6.77496">
        <ele>393</ele>
        <time>2016-01-10T11:17:48.000Z</time>
      </trkpt>
      <trkpt lat="47.51812" lon="6.77495">
        <ele>392.9</ele>
        <time>2016-01-10T11:17:49.000Z</time>
      </trkpt>
      <trkpt lat="47.51813" lon="6.77493">
        <ele>392.5</ele>
        <time>2016-01-10T11:17:50.000Z</time>
      </trkpt>
      <trkpt lat="47.51813" lon="6.77489">
        <ele>392.5</ele>
        <time>2016-01-10T11:17:51.000Z</time>
      </trkpt>
      <trkpt lat="47.51812" lon="6.77484">
        <ele>392.5</ele>
        <time>2016-01-10T11:17:52.000Z</time>
      </trkpt>
      <trkpt lat="47.5181" lon="6.77483">
        <ele>392.6</ele>
        <time>2016-01-10T11:17:53.000Z</time>
      </trkpt>
      <trkpt lat="47.51806" lon="6.7748">
        <ele>390.9</ele>
        <time>2016-01-10T11:18:15.000Z</time>
      </trkpt>
      <trkpt lat="47.51805" lon="6.7748">
        <ele>389.9</ele>
        <time>2016-01-10T11:18:16.000Z</time>
      </trkpt>
      <trkpt lat="47.51809" lon="6.77482">
        <ele>388.3</ele>
        <time>2016-01-10T11:19:35.000Z</time>
      </trkpt>
      <trkpt lat="47.5181" lon="6.77482">
        <ele>388.5</ele>
        <time>2016-01-10T11:19:36.000Z</time>
      </trkpt>
      <trkpt lat="47.51807" lon="6.77479">
        <ele>389</ele>
        <time>2016-01-10T11:25:51.000Z</time>
      </trkpt>
      <trkpt lat="47.51806" lon="6.77478">
        <ele>387.8</ele>
        <time>2016-01-10T11:25:52.000Z</time>
      </trkpt>
      <trkpt lat="47.51805" lon="6.77485">
        <ele>388.4</ele>
        <time>2016-01-10T11:30:51.000Z</time>
      </trkpt>
      <trkpt lat="47.51806" lon="6.77486">
        <ele>388.9</ele>
        <time>2016-01-10T11:30:52.000Z</time>
      </trkpt>
      <trkpt lat="47.51809" lon="6.77486">
        <ele>386.1</ele>
        <time>2016-01-10T11:35:28.000Z</time>
      </trkpt>
    </trkseg>
  </trk>
</gpx>